<?xml version='1.0' encoding='UTF-8'?><gpx version="1.1" creator="JPX - https://github.com/jenetics/jpx" xmlns="http://www.topografix.com/GPX/1/1"><trk><trkseg><trkpt lat="44.2117717" lon="12.01466"><ele>35.0</ele><time>2026-04-26T07:55:38.022Z</time></trkpt><trkpt lat="44.21173" lon="12.0145733"><ele>35.0</ele><time>2026-04-26T07:55:40.023Z</time></trkpt><trkpt lat="44.21167" lon="12.0145"><ele>35.0</ele><time>2026-04-26T07:55:42.023Z</time></trkpt><trkpt lat="44.211585" lon="12.0144033"><ele>35.0</ele><time>2026-04-26T07:55:44.023Z</time></trkpt><trkpt lat="44.2115433" lon="12.014335"><ele>35.0</ele><time>2026-04-26T07:55:45.028Z</time></trkpt><trkpt lat="44.211495" lon="12.0142317"><ele>35.0</ele><time>2026-04-26T07:55:46.025Z</time></trkpt><trkpt lat="44.2114467" lon="12.0141167"><ele>34.5</ele><time>2026-04-26T07:55:47.023Z</time></trkpt><trkpt lat="44.211395" lon="12.01399"><ele>34.0</ele><time>2026-04-26T07:55:48.029Z</time></trkpt><trkpt lat="44.2113417" lon="12.0138483"><ele>33.5</ele><time>2026-04-26T07:55:49.024Z</time></trkpt><trkpt lat="44.2112833" lon="12.01368"><ele>33.0</ele><time>2026-04-26T07:55:50.025Z</time></trkpt><trkpt lat="44.2112183" lon="12.0134933"><ele>33.0</ele><time>2026-04-26T07:55:51.025Z</time></trkpt><trkpt lat="44.2111517" lon="12.0132967"><ele>33.0</ele><time>2026-04-26T07:55:52.026Z</time></trkpt><trkpt lat="44.2110883" lon="12.013085"><ele>33.0</ele><time>2026-04-26T07:55:53.026Z</time></trkpt><trkpt lat="44.211025" lon="12.0128583"><ele>33.0</ele><time>2026-04-26T07:55:54.026Z</time></trkpt><trkpt lat="44.21096" lon="12.0126283"><ele>33.0</ele><time>2026-04-26T07:55:55.026Z</time></trkpt><trkpt lat="44.210895" lon="12.0124"><ele>33.0</ele><time>2026-04-26T07:55:56.025Z</time></trkpt><trkpt lat="44.2108283" lon="12.012165"><ele>33.666666666666664</ele><time>2026-04-26T07:55:57.025Z</time></trkpt><trkpt lat="44.21076" lon="12.0119283"><ele>34.33333333333333</ele><time>2026-04-26T07:55:58.024Z</time></trkpt><trkpt lat="44.2107" lon="12.0116867"><ele>35.0</ele><time>2026-04-26T07:55:59.027Z</time></trkpt><trkpt lat="44.2106317" lon="12.0114583"><ele>35.0</ele><time>2026-04-26T07:56:00.025Z</time></trkpt><trkpt lat="44.21057" lon="12.0112367"><ele>35.0</ele><time>2026-04-26T07:56:01.024Z</time></trkpt><trkpt lat="44.2105167" lon="12.0110267"><ele>35.0</ele><time>2026-04-26T07:56:02.024Z</time></trkpt><trkpt lat="44.2104717" lon="12.0108383"><ele>35.4</ele><time>2026-04-26T07:56:03.025Z</time></trkpt><trkpt lat="44.2104367" lon="12.0106733"><ele>35.8</ele><time>2026-04-26T07:56:04.025Z</time></trkpt><trkpt lat="44.21041" lon="12.0105267"><ele>36.2</ele><time>2026-04-26T07:56:05.024Z</time></trkpt><trkpt lat="44.2103883" lon="12.0104017"><ele>36.6</ele><time>2026-04-26T07:56:06.021Z</time></trkpt><trkpt lat="44.2103683" lon="12.0102917"><ele>37.0</ele><time>2026-04-26T07:56:07.026Z</time></trkpt><trkpt lat="44.210355" lon="12.0102017"><ele>37.0</ele><time>2026-04-26T07:56:08.023Z</time></trkpt><trkpt lat="44.2103333" lon="12.0100667"><ele>37.0</ele><time>2026-04-26T07:56:10.025Z</time></trkpt><trkpt lat="44.2103167" lon="12.009975"><ele>37.0</ele><time>2026-04-26T07:56:13.023Z</time></trkpt><trkpt lat="44.2102867" lon="12.0098683"><ele>37.0</ele><time>2026-04-26T07:57:37.024Z</time></trkpt><trkpt lat="44.2102361" lon="12.0097605"><ele>37.0</ele><time>2026-04-26T07:57:39.023Z</time></trkpt><trkpt lat="44.2101814" lon="12.0096846"><ele>37.0</ele><time>2026-04-26T07:57:40.025Z</time></trkpt><trkpt lat="44.2101038" lon="12.0096628"><ele>36.75</ele><time>2026-04-26T07:57:41.024Z</time></trkpt><trkpt lat="44.2100178" lon="12.0096783"><ele>36.5</ele><time>2026-04-26T07:57:42.024Z</time></trkpt><trkpt lat="44.2099199" lon="12.0097207"><ele>36.25</ele><time>2026-04-26T07:57:43.025Z</time></trkpt><trkpt lat="44.2097935" lon="12.0098008"><ele>36.0</ele><time>2026-04-26T07:57:44.024Z</time></trkpt><trkpt lat="44.209663" lon="12.0098877"><ele>36.0</ele><time>2026-04-26T07:57:45.026Z</time></trkpt><trkpt lat="44.2095191" lon="12.0099782"><ele>36.0</ele><time>2026-04-26T07:57:46.023Z</time></trkpt><trkpt lat="44.2093655" lon="12.0100734"><ele>36.0</ele><time>2026-04-26T07:57:47.024Z</time></trkpt><trkpt lat="44.2092058" lon="12.010169"><ele>35.333333333333336</ele><time>2026-04-26T07:57:48.025Z</time></trkpt><trkpt lat="44.2090348" lon="12.0102748"><ele>34.66666666666667</ele><time>2026-04-26T07:57:49.023Z</time></trkpt><trkpt lat="44.2088502" lon="12.0103878"><ele>34.0</ele><time>2026-04-26T07:57:50.025Z</time></trkpt><trkpt lat="44.2086588" lon="12.010503"><ele>32.66666666666667</ele><time>2026-04-26T07:57:51.023Z</time></trkpt><trkpt lat="44.2084602" lon="12.0106216"><ele>31.333333333333336</ele><time>2026-04-26T07:57:52.025Z</time></trkpt><trkpt lat="44.2082525" lon="12.0107469"><ele>30.0</ele><time>2026-04-26T07:57:53.026Z</time></trkpt><trkpt lat="44.2080413" lon="12.0108733"><ele>29.0</ele><time>2026-04-26T07:57:54.025Z</time></trkpt><trkpt lat="44.2078292" lon="12.0109962"><ele>28.0</ele><time>2026-04-26T07:57:55.025Z</time></trkpt><trkpt lat="44.2076101" lon="12.0111235"><ele>28.0</ele><time>2026-04-26T07:57:56.024Z</time></trkpt><trkpt lat="44.2073892" lon="12.0112533"><ele>28.0</ele><time>2026-04-26T07:57:57.024Z</time></trkpt><trkpt lat="44.2071685" lon="12.0113813"><ele>28.0</ele><time>2026-04-26T07:57:58.025Z</time></trkpt><trkpt lat="44.20695" lon="12.0115068"><ele>28.0</ele><time>2026-04-26T07:57:59.025Z</time></trkpt><trkpt lat="44.2067389" lon="12.0116264"><ele>28.0</ele><time>2026-04-26T07:58:00.025Z</time></trkpt><trkpt lat="44.2065386" lon="12.0117436"><ele>28.0</ele><time>2026-04-26T07:58:01.025Z</time></trkpt><trkpt lat="44.2063569" lon="12.0118516"><ele>28.0</ele><time>2026-04-26T07:58:02.024Z</time></trkpt><trkpt lat="44.2061875" lon="12.0119503"><ele>28.0</ele><time>2026-04-26T07:58:03.024Z</time></trkpt><trkpt lat="44.2060333" lon="12.0120375"><ele>28.0</ele><time>2026-04-26T07:58:04.025Z</time></trkpt><trkpt lat="44.2059038" lon="12.0121146"><ele>28.0</ele><time>2026-04-26T07:58:05.025Z</time></trkpt><trkpt lat="44.2057993" lon="12.0122067"><ele>28.0</ele><time>2026-04-26T07:58:06.023Z</time></trkpt><trkpt lat="44.2057193" lon="12.0123196"><ele>28.0</ele><time>2026-04-26T07:58:07.027Z</time></trkpt><trkpt lat="44.2056634" lon="12.012448"><ele>28.0</ele><time>2026-04-26T07:58:08.024Z</time></trkpt><trkpt lat="44.2056327" lon="12.0125959"><ele>28.0</ele><time>2026-04-26T07:58:09.026Z</time></trkpt><trkpt lat="44.2056341" lon="12.012764"><ele>28.0</ele><time>2026-04-26T07:58:10.027Z</time></trkpt><trkpt lat="44.2056647" lon="12.0129498"><ele>28.0</ele><time>2026-04-26T07:58:11.024Z</time></trkpt><trkpt lat="44.2057235" lon="12.0131469"><ele>28.0</ele><time>2026-04-26T07:58:12.025Z</time></trkpt><trkpt lat="44.2058054" lon="12.0133512"><ele>28.0</ele><time>2026-04-26T07:58:13.024Z</time></trkpt><trkpt lat="44.2059016" lon="12.0135619"><ele>28.0</ele><time>2026-04-26T07:58:14.026Z</time></trkpt><trkpt lat="44.2060025" lon="12.0137729"><ele>28.0</ele><time>2026-04-26T07:58:15.025Z</time></trkpt><trkpt lat="44.2060919" lon="12.0139792"><ele>28.0</ele><time>2026-04-26T07:58:16.024Z</time></trkpt><trkpt lat="44.2061558" lon="12.0141765"><ele>28.75</ele><time>2026-04-26T07:58:17.028Z</time></trkpt><trkpt lat="44.2061962" lon="12.0143696"><ele>29.5</ele><time>2026-04-26T07:58:18.024Z</time></trkpt><trkpt lat="44.2062123" lon="12.0145618"><ele>30.25</ele><time>2026-04-26T07:58:19.026Z</time></trkpt><trkpt lat="44.2062039" lon="12.0147422"><ele>31.0</ele><time>2026-04-26T07:58:20.027Z</time></trkpt><trkpt lat="44.2061701" lon="12.0149138"><ele>31.8</ele><time>2026-04-26T07:58:21.025Z</time></trkpt><trkpt lat="44.2061176" lon="12.0150743"><ele>32.6</ele><time>2026-04-26T07:58:22.023Z</time></trkpt><trkpt lat="44.2060611" lon="12.0152106"><ele>33.4</ele><time>2026-04-26T07:58:23.024Z</time></trkpt><trkpt lat="44.2060096" lon="12.0153126"><ele>34.2</ele><time>2026-04-26T07:58:24.024Z</time></trkpt><trkpt lat="44.2059544" lon="12.0153843"><ele>35.0</ele><time>2026-04-26T07:58:25.028Z</time></trkpt><trkpt lat="44.2058925" lon="12.0154304"><ele>35.0</ele><time>2026-04-26T07:58:26.025Z</time></trkpt><trkpt lat="44.2058143" lon="12.0154532"><ele>35.0</ele><time>2026-04-26T07:58:27.027Z</time></trkpt><trkpt lat="44.2057126" lon="12.0154355"><ele>35.0</ele><time>2026-04-26T07:58:28.027Z</time></trkpt><trkpt lat="44.2055821" lon="12.0153705"><ele>35.0</ele><time>2026-04-26T07:58:29.023Z</time></trkpt><trkpt lat="44.2054243" lon="12.0152689"><ele>35.33333333333333</ele><time>2026-04-26T07:58:30.025Z</time></trkpt><trkpt lat="44.2052549" lon="12.015172"><ele>35.666666666666664</ele><time>2026-04-26T07:58:31.024Z</time></trkpt><trkpt lat="44.2050832" lon="12.0150841"><ele>36.0</ele><time>2026-04-26T07:58:32.024Z</time></trkpt><trkpt lat="44.2049226" lon="12.0150072"><ele>35.5</ele><time>2026-04-26T07:58:33.023Z</time></trkpt><trkpt lat="44.2047784" lon="12.0149372"><ele>35.0</ele><time>2026-04-26T07:58:34.025Z</time></trkpt><trkpt lat="44.2046486" lon="12.0148763"><ele>34.5</ele><time>2026-04-26T07:58:35.025Z</time></trkpt><trkpt lat="44.2045203" lon="12.0148179"><ele>34.0</ele><time>2026-04-26T07:58:36.026Z</time></trkpt><trkpt lat="44.2043886" lon="12.0147592"><ele>34.0</ele><time>2026-04-26T07:58:37.023Z</time></trkpt><trkpt lat="44.2042463" lon="12.0146785"><ele>34.0</ele><time>2026-04-26T07:58:38.024Z</time></trkpt><trkpt lat="44.2041001" lon="12.0145714"><ele>34.0</ele><time>2026-04-26T07:58:39.026Z</time></trkpt><trkpt lat="44.2039458" lon="12.0144438"><ele>34.333333333333336</ele><time>2026-04-26T07:58:40.022Z</time></trkpt><trkpt lat="44.2037846" lon="12.0143142"><ele>34.666666666666664</ele><time>2026-04-26T07:58:41.022Z</time></trkpt><trkpt lat="44.2036211" lon="12.014207"><ele>35.0</ele><time>2026-04-26T07:58:42.023Z</time></trkpt><trkpt lat="44.203458" lon="12.0141395"><ele>35.0</ele><time>2026-04-26T07:58:43.026Z</time></trkpt><trkpt lat="44.2033021" lon="12.0141188"><ele>35.0</ele><time>2026-04-26T07:58:44.026Z</time></trkpt><trkpt lat="44.2031448" lon="12.0141422"><ele>35.0</ele><time>2026-04-26T07:58:45.024Z</time></trkpt><trkpt lat="44.202982" lon="12.0142233"><ele>35.33333333333333</ele><time>2026-04-26T07:58:46.026Z</time></trkpt><trkpt lat="44.2028151" lon="12.0143394"><ele>35.666666666666664</ele><time>2026-04-26T07:58:47.023Z</time></trkpt><trkpt lat="44.2026373" lon="12.0144572"><ele>36.0</ele><time>2026-04-26T07:58:48.022Z</time></trkpt><trkpt lat="44.2024436" lon="12.0145532"><ele>36.333333333333336</ele><time>2026-04-26T07:58:49.022Z</time></trkpt><trkpt lat="44.2022452" lon="12.0146387"><ele>36.66666666666667</ele><time>2026-04-26T07:58:50.026Z</time></trkpt><trkpt lat="44.2020576" lon="12.0147419"><ele>37.0</ele><time>2026-04-26T07:58:51.026Z</time></trkpt><trkpt lat="44.2018876" lon="12.0148787"><ele>37.0</ele><time>2026-04-26T07:58:52.024Z</time></trkpt><trkpt lat="44.2017401" lon="12.015054"><ele>37.0</ele><time>2026-04-26T07:58:53.023Z</time></trkpt><trkpt lat="44.2016167" lon="12.0152621"><ele>37.0</ele><time>2026-04-26T07:58:54.025Z</time></trkpt><trkpt lat="44.2015195" lon="12.0154694"><ele>37.0</ele><time>2026-04-26T07:58:55.026Z</time></trkpt><trkpt lat="44.2014379" lon="12.0156542"><ele>37.0</ele><time>2026-04-26T07:58:56.023Z</time></trkpt><trkpt lat="44.2013564" lon="12.0158091"><ele>37.0</ele><time>2026-04-26T07:58:57.026Z</time></trkpt><trkpt lat="44.2012755" lon="12.0159253"><ele>37.0</ele><time>2026-04-26T07:58:58.023Z</time></trkpt><trkpt lat="44.2011959" lon="12.0159995"><ele>37.0</ele><time>2026-04-26T07:58:59.024Z</time></trkpt><trkpt lat="44.2011222" lon="12.0160322"><ele>37.0</ele><time>2026-04-26T07:59:00.023Z</time></trkpt><trkpt lat="44.2010378" lon="12.0159912"><ele>37.0</ele><time>2026-04-26T07:59:01.024Z</time></trkpt><trkpt lat="44.2009612" lon="12.0159293"><ele>37.0</ele><time>2026-04-26T07:59:02.024Z</time></trkpt><trkpt lat="44.2008918" lon="12.0158007"><ele>37.0</ele><time>2026-04-26T07:59:03.023Z</time></trkpt><trkpt lat="44.200823" lon="12.0156232"><ele>37.333333333333336</ele><time>2026-04-26T07:59:04.023Z</time></trkpt><trkpt lat="44.2007479" lon="12.0154256"><ele>37.666666666666664</ele><time>2026-04-26T07:59:05.024Z</time></trkpt><trkpt lat="44.2006723" lon="12.0152259"><ele>38.0</ele><time>2026-04-26T07:59:06.022Z</time></trkpt><trkpt lat="44.200607" lon="12.015043"><ele>37.6</ele><time>2026-04-26T07:59:07.024Z</time></trkpt><trkpt lat="44.2005578" lon="12.0148813"><ele>37.199999999999996</ele><time>2026-04-26T07:59:08.023Z</time></trkpt><trkpt lat="44.2005418" lon="12.0147378"><ele>36.8</ele><time>2026-04-26T07:59:09.025Z</time></trkpt><trkpt lat="44.2005585" lon="12.0146059"><ele>36.4</ele><time>2026-04-26T07:59:10.024Z</time></trkpt><trkpt lat="44.2005835" lon="12.0144787"><ele>36.0</ele><time>2026-04-26T07:59:11.025Z</time></trkpt><trkpt lat="44.2005953" lon="12.0143448"><ele>36.0</ele><time>2026-04-26T07:59:12.024Z</time></trkpt><trkpt lat="44.2005795" lon="12.0142081"><ele>36.0</ele><time>2026-04-26T07:59:13.022Z</time></trkpt><trkpt lat="44.2005374" lon="12.0140916"><ele>36.0</ele><time>2026-04-26T07:59:14.023Z</time></trkpt><trkpt lat="44.2004787" lon="12.013997"><ele>36.0</ele><time>2026-04-26T07:59:15.024Z</time></trkpt><trkpt lat="44.2004091" lon="12.0139307"><ele>36.0</ele><time>2026-04-26T07:59:16.022Z</time></trkpt><trkpt lat="44.2003262" lon="12.0138755"><ele>36.75</ele><time>2026-04-26T07:59:17.023Z</time></trkpt><trkpt lat="44.2002508" lon="12.0137889"><ele>37.5</ele><time>2026-04-26T07:59:18.026Z</time></trkpt><trkpt lat="44.2001868" lon="12.0136647"><ele>38.25</ele><time>2026-04-26T07:59:19.023Z</time></trkpt><trkpt lat="44.2001312" lon="12.0134987"><ele>39.0</ele><time>2026-04-26T07:59:20.024Z</time></trkpt><trkpt lat="44.2000691" lon="12.0133063"><ele>39.0</ele><time>2026-04-26T07:59:21.024Z</time></trkpt><trkpt lat="44.1999991" lon="12.0130993"><ele>39.0</ele><time>2026-04-26T07:59:22.025Z</time></trkpt><trkpt lat="44.1999221" lon="12.0128733"><ele>39.0</ele><time>2026-04-26T07:59:23.027Z</time></trkpt><trkpt lat="44.1998372" lon="12.0126387"><ele>38.333333333333336</ele><time>2026-04-26T07:59:24.025Z</time></trkpt><trkpt lat="44.1997487" lon="12.0123912"><ele>37.66666666666667</ele><time>2026-04-26T07:59:25.026Z</time></trkpt><trkpt lat="44.1996534" lon="12.0121366"><ele>37.0</ele><time>2026-04-26T07:59:26.022Z</time></trkpt><trkpt lat="44.1995547" lon="12.0118715"><ele>38.0</ele><time>2026-04-26T07:59:27.024Z</time></trkpt><trkpt lat="44.1994508" lon="12.0115918"><ele>39.0</ele><time>2026-04-26T07:59:28.023Z</time></trkpt><trkpt lat="44.1993408" lon="12.0112968"><ele>39.0</ele><time>2026-04-26T07:59:29.027Z</time></trkpt><trkpt lat="44.1992301" lon="12.0109891"><ele>39.0</ele><time>2026-04-26T07:59:30.024Z</time></trkpt><trkpt lat="44.1991206" lon="12.0106815"><ele>39.0</ele><time>2026-04-26T07:59:31.025Z</time></trkpt><trkpt lat="44.1990083" lon="12.0103815"><ele>39.0</ele><time>2026-04-26T07:59:32.024Z</time></trkpt><trkpt lat="44.1988998" lon="12.0100833"><ele>40.0</ele><time>2026-04-26T07:59:33.023Z</time></trkpt><trkpt lat="44.1988015" lon="12.0097813"><ele>41.0</ele><time>2026-04-26T07:59:34.023Z</time></trkpt><trkpt lat="44.1987158" lon="12.0094751"><ele>41.0</ele><time>2026-04-26T07:59:35.023Z</time></trkpt><trkpt lat="44.1986316" lon="12.0091649"><ele>41.0</ele><time>2026-04-26T07:59:36.026Z</time></trkpt><trkpt lat="44.1985534" lon="12.0088512"><ele>40.0</ele><time>2026-04-26T07:59:37.026Z</time></trkpt><trkpt lat="44.1984865" lon="12.0085307"><ele>39.0</ele><time>2026-04-26T07:59:38.023Z</time></trkpt><trkpt lat="44.1984248" lon="12.0082044"><ele>39.0</ele><time>2026-04-26T07:59:39.024Z</time></trkpt><trkpt lat="44.1983706" lon="12.0078793"><ele>39.0</ele><time>2026-04-26T07:59:40.026Z</time></trkpt><trkpt lat="44.1983208" lon="12.0075683"><ele>40.0</ele><time>2026-04-26T07:59:41.026Z</time></trkpt><trkpt lat="44.1982791" lon="12.0072779"><ele>41.0</ele><time>2026-04-26T07:59:42.024Z</time></trkpt><trkpt lat="44.1982423" lon="12.0070095"><ele>42.0</ele><time>2026-04-26T07:59:43.028Z</time></trkpt><trkpt lat="44.1982042" lon="12.0067608"><ele>42.333333333333336</ele><time>2026-04-26T07:59:44.024Z</time></trkpt><trkpt lat="44.1981705" lon="12.00653"><ele>42.66666666666667</ele><time>2026-04-26T07:59:45.024Z</time></trkpt><trkpt lat="44.1981417" lon="12.0063178"><ele>43.0</ele><time>2026-04-26T07:59:46.027Z</time></trkpt><trkpt lat="44.1981139" lon="12.0061312"><ele>43.0</ele><time>2026-04-26T07:59:47.025Z</time></trkpt><trkpt lat="44.1980841" lon="12.0059809"><ele>43.0</ele><time>2026-04-26T07:59:48.025Z</time></trkpt><trkpt lat="44.1980453" lon="12.0058692"><ele>43.0</ele><time>2026-04-26T07:59:49.026Z</time></trkpt><trkpt lat="44.1979982" lon="12.0057911"><ele>43.0</ele><time>2026-04-26T07:59:50.024Z</time></trkpt><trkpt lat="44.1979461" lon="12.0057404"><ele>43.0</ele><time>2026-04-26T07:59:51.027Z</time></trkpt><trkpt lat="44.1978621" lon="12.0057693"><ele>43.0</ele><time>2026-04-26T07:59:52.025Z</time></trkpt><trkpt lat="44.1977703" lon="12.005837"><ele>43.0</ele><time>2026-04-26T07:59:53.024Z</time></trkpt><trkpt lat="44.1976553" lon="12.0059728"><ele>43.0</ele><time>2026-04-26T07:59:54.025Z</time></trkpt><trkpt lat="44.1975282" lon="12.0061397"><ele>43.0</ele><time>2026-04-26T07:59:55.025Z</time></trkpt><trkpt lat="44.1973925" lon="12.0063135"><ele>42.66666666666667</ele><time>2026-04-26T07:59:56.025Z</time></trkpt><trkpt lat="44.1972439" lon="12.0064906"><ele>42.333333333333336</ele><time>2026-04-26T07:59:57.026Z</time></trkpt><trkpt lat="44.1970899" lon="12.0066749"><ele>42.0</ele><time>2026-04-26T07:59:58.025Z</time></trkpt><trkpt lat="44.1969315" lon="12.0068486"><ele>41.666666666666664</ele><time>2026-04-26T07:59:59.023Z</time></trkpt><trkpt lat="44.1967835" lon="12.0070145"><ele>41.33333333333333</ele><time>2026-04-26T08:00:00.027Z</time></trkpt><trkpt lat="44.196642" lon="12.0071706"><ele>41.0</ele><time>2026-04-26T08:00:01.025Z</time></trkpt><trkpt lat="44.1965095" lon="12.0073308"><ele>41.33333333333333</ele><time>2026-04-26T08:00:02.027Z</time></trkpt><trkpt lat="44.196378" lon="12.0074995"><ele>41.666666666666664</ele><time>2026-04-26T08:00:03.025Z</time></trkpt><trkpt lat="44.1962398" lon="12.0076633"><ele>42.0</ele><time>2026-04-26T08:00:04.025Z</time></trkpt><trkpt lat="44.196099" lon="12.0078359"><ele>42.0</ele><time>2026-04-26T08:00:05.025Z</time></trkpt><trkpt lat="44.1959597" lon="12.0080279"><ele>42.0</ele><time>2026-04-26T08:00:06.024Z</time></trkpt><trkpt lat="44.1958395" lon="12.0082434"><ele>42.0</ele><time>2026-04-26T08:00:07.026Z</time></trkpt><trkpt lat="44.1957228" lon="12.0084685"><ele>41.333333333333336</ele><time>2026-04-26T08:00:08.024Z</time></trkpt><trkpt lat="44.1956038" lon="12.0086992"><ele>40.66666666666667</ele><time>2026-04-26T08:00:09.024Z</time></trkpt><trkpt lat="44.1954824" lon="12.0089313"><ele>40.0</ele><time>2026-04-26T08:00:10.025Z</time></trkpt><trkpt lat="44.1953574" lon="12.0091672"><ele>39.66666666666667</ele><time>2026-04-26T08:00:11.024Z</time></trkpt><trkpt lat="44.1952307" lon="12.0094053"><ele>39.333333333333336</ele><time>2026-04-26T08:00:12.024Z</time></trkpt><trkpt lat="44.1950978" lon="12.0096352"><ele>39.0</ele><time>2026-04-26T08:00:13.024Z</time></trkpt><trkpt lat="44.1949603" lon="12.0098574"><ele>40.333333333333336</ele><time>2026-04-26T08:00:14.024Z</time></trkpt><trkpt lat="44.194809" lon="12.0100612"><ele>41.66666666666667</ele><time>2026-04-26T08:00:15.025Z</time></trkpt><trkpt lat="44.1946563" lon="12.0102602"><ele>43.0</ele><time>2026-04-26T08:00:16.025Z</time></trkpt><trkpt lat="44.1945096" lon="12.0104635"><ele>43.0</ele><time>2026-04-26T08:00:17.023Z</time></trkpt><trkpt lat="44.1943627" lon="12.01067"><ele>43.0</ele><time>2026-04-26T08:00:18.025Z</time></trkpt><trkpt lat="44.1942213" lon="12.0108757"><ele>43.0</ele><time>2026-04-26T08:00:19.025Z</time></trkpt><trkpt lat="44.1940879" lon="12.0110652"><ele>43.66666666666667</ele><time>2026-04-26T08:00:20.023Z</time></trkpt><trkpt lat="44.1939647" lon="12.0112356"><ele>44.333333333333336</ele><time>2026-04-26T08:00:21.026Z</time></trkpt><trkpt lat="44.1938532" lon="12.0113921"><ele>45.0</ele><time>2026-04-26T08:00:22.028Z</time></trkpt><trkpt lat="44.1937555" lon="12.0115376"><ele>45.2</ele><time>2026-04-26T08:00:23.025Z</time></trkpt><trkpt lat="44.1936689" lon="12.011667"><ele>45.4</ele><time>2026-04-26T08:00:24.024Z</time></trkpt><trkpt lat="44.1935942" lon="12.0117727"><ele>45.599999999999994</ele><time>2026-04-26T08:00:25.027Z</time></trkpt><trkpt lat="44.1935363" lon="12.0118544"><ele>45.8</ele><time>2026-04-26T08:00:26.026Z</time></trkpt><trkpt lat="44.193482" lon="12.011909"><ele>46.0</ele><time>2026-04-26T08:00:27.026Z</time></trkpt><trkpt lat="44.1933778" lon="12.0118769"><ele>46.0</ele><time>2026-04-26T08:00:29.026Z</time></trkpt><trkpt lat="44.1932843" lon="12.0116886"><ele>46.0</ele><time>2026-04-26T08:00:31.025Z</time></trkpt><trkpt lat="44.1932259" lon="12.0115083"><ele>46.0</ele><time>2026-04-26T08:00:32.026Z</time></trkpt><trkpt lat="44.1931558" lon="12.0113076"><ele>46.0</ele><time>2026-04-26T08:00:33.025Z</time></trkpt><trkpt lat="44.1930662" lon="12.0110899"><ele>46.0</ele><time>2026-04-26T08:00:34.026Z</time></trkpt><trkpt lat="44.1929693" lon="12.0108571"><ele>46.0</ele><time>2026-04-26T08:00:35.026Z</time></trkpt><trkpt lat="44.1928688" lon="12.0106087"><ele>46.0</ele><time>2026-04-26T08:00:36.025Z</time></trkpt><trkpt lat="44.1927563" lon="12.0103581"><ele>46.0</ele><time>2026-04-26T08:00:37.027Z</time></trkpt><trkpt lat="44.1926342" lon="12.0101082"><ele>46.0</ele><time>2026-04-26T08:00:38.024Z</time></trkpt><trkpt lat="44.1924885" lon="12.0098565"><ele>50.0</ele><time>2026-04-26T08:00:39.026Z</time></trkpt><trkpt lat="44.1923201" lon="12.0096121"><ele>54.0</ele><time>2026-04-26T08:00:40.024Z</time></trkpt><trkpt lat="44.1921359" lon="12.0093735"><ele>53.5</ele><time>2026-04-26T08:00:41.023Z</time></trkpt><trkpt lat="44.1919575" lon="12.0091281"><ele>53.0</ele><time>2026-04-26T08:00:42.025Z</time></trkpt><trkpt lat="44.1917845" lon="12.0088905"><ele>53.0</ele><time>2026-04-26T08:00:43.025Z</time></trkpt><trkpt lat="44.1916144" lon="12.0086784"><ele>53.0</ele><time>2026-04-26T08:00:44.025Z</time></trkpt><trkpt lat="44.1914459" lon="12.0084856"><ele>53.0</ele><time>2026-04-26T08:00:45.025Z</time></trkpt><trkpt lat="44.1912619" lon="12.0083149"><ele>53.66666666666667</ele><time>2026-04-26T08:00:46.025Z</time></trkpt><trkpt lat="44.1910749" lon="12.008156"><ele>54.33333333333333</ele><time>2026-04-26T08:00:47.024Z</time></trkpt><trkpt lat="44.190891" lon="12.0079983"><ele>55.0</ele><time>2026-04-26T08:00:48.025Z</time></trkpt><trkpt lat="44.1907088" lon="12.0078355"><ele>56.0</ele><time>2026-04-26T08:00:49.025Z</time></trkpt><trkpt lat="44.1905286" lon="12.0076844"><ele>57.0</ele><time>2026-04-26T08:00:50.025Z</time></trkpt><trkpt lat="44.1903513" lon="12.0075288"><ele>58.0</ele><time>2026-04-26T08:00:51.025Z</time></trkpt><trkpt lat="44.1901812" lon="12.0073573"><ele>59.33333333333333</ele><time>2026-04-26T08:00:52.025Z</time></trkpt><trkpt lat="44.1900133" lon="12.0071824"><ele>60.66666666666667</ele><time>2026-04-26T08:00:53.025Z</time></trkpt><trkpt lat="44.1898456" lon="12.0069943"><ele>62.0</ele><time>2026-04-26T08:00:54.027Z</time></trkpt><trkpt lat="44.189675" lon="12.0067868"><ele>65.0</ele><time>2026-04-26T08:00:55.027Z</time></trkpt><trkpt lat="44.1895094" lon="12.0065613"><ele>68.0</ele><time>2026-04-26T08:00:56.025Z</time></trkpt><trkpt lat="44.1893391" lon="12.0063296"><ele>68.0</ele><time>2026-04-26T08:00:57.025Z</time></trkpt><trkpt lat="44.1891638" lon="12.0060986"><ele>68.0</ele><time>2026-04-26T08:00:58.025Z</time></trkpt><trkpt lat="44.1889821" lon="12.005875"><ele>69.5</ele><time>2026-04-26T08:00:59.025Z</time></trkpt><trkpt lat="44.1887949" lon="12.0056557"><ele>71.0</ele><time>2026-04-26T08:01:00.024Z</time></trkpt><trkpt lat="44.1885969" lon="12.0054522"><ele>71.0</ele><time>2026-04-26T08:01:01.026Z</time></trkpt><trkpt lat="44.1883913" lon="12.0052637"><ele>71.0</ele><time>2026-04-26T08:01:02.024Z</time></trkpt><trkpt lat="44.1881875" lon="12.0050874"><ele>73.0</ele><time>2026-04-26T08:01:03.025Z</time></trkpt><trkpt lat="44.187993" lon="12.0049231"><ele>75.0</ele><time>2026-04-26T08:01:04.025Z</time></trkpt><trkpt lat="44.1878108" lon="12.0047575"><ele>77.0</ele><time>2026-04-26T08:01:05.023Z</time></trkpt><trkpt lat="44.1876356" lon="12.0045959"><ele>77.0</ele><time>2026-04-26T08:01:06.025Z</time></trkpt><trkpt lat="44.1874672" lon="12.0044457"><ele>77.0</ele><time>2026-04-26T08:01:07.025Z</time></trkpt><trkpt lat="44.1873094" lon="12.0042967"><ele>77.0</ele><time>2026-04-26T08:01:08.025Z</time></trkpt><trkpt lat="44.1871588" lon="12.0041439"><ele>77.66666666666667</ele><time>2026-04-26T08:01:09.025Z</time></trkpt><trkpt lat="44.1870211" lon="12.0039767"><ele>78.33333333333333</ele><time>2026-04-26T08:01:10.027Z</time></trkpt><trkpt lat="44.1868948" lon="12.0037907"><ele>79.0</ele><time>2026-04-26T08:01:11.025Z</time></trkpt><trkpt lat="44.1867631" lon="12.0036031"><ele>79.0</ele><time>2026-04-26T08:01:12.027Z</time></trkpt><trkpt lat="44.1866258" lon="12.0034141"><ele>79.0</ele><time>2026-04-26T08:01:13.026Z</time></trkpt><trkpt lat="44.1864835" lon="12.0032189"><ele>79.0</ele><time>2026-04-26T08:01:14.025Z</time></trkpt><trkpt lat="44.1863375" lon="12.0030198"><ele>80.33333333333333</ele><time>2026-04-26T08:01:15.025Z</time></trkpt><trkpt lat="44.1861911" lon="12.0028176"><ele>81.66666666666667</ele><time>2026-04-26T08:01:16.024Z</time></trkpt><trkpt lat="44.1860487" lon="12.002605"><ele>83.0</ele><time>2026-04-26T08:01:17.024Z</time></trkpt><trkpt lat="44.1859121" lon="12.0023792"><ele>83.66666666666667</ele><time>2026-04-26T08:01:18.027Z</time></trkpt><trkpt lat="44.1857913" lon="12.0021282"><ele>84.33333333333333</ele><time>2026-04-26T08:01:19.023Z</time></trkpt><trkpt lat="44.1856872" lon="12.0018491"><ele>85.0</ele><time>2026-04-26T08:01:20.028Z</time></trkpt><trkpt lat="44.1855925" lon="12.0015548"><ele>87.0</ele><time>2026-04-26T08:01:21.024Z</time></trkpt><trkpt lat="44.1854998" lon="12.0012498"><ele>89.0</ele><time>2026-04-26T08:01:22.023Z</time></trkpt><trkpt lat="44.1854005" lon="12.0009398"><ele>90.5</ele><time>2026-04-26T08:01:23.024Z</time></trkpt><trkpt lat="44.185299" lon="12.0006299"><ele>92.0</ele><time>2026-04-26T08:01:24.023Z</time></trkpt><trkpt lat="44.185194" lon="12.0003268"><ele>92.0</ele><time>2026-04-26T08:01:25.025Z</time></trkpt><trkpt lat="44.1850999" lon="12.0000376"><ele>92.0</ele><time>2026-04-26T08:01:26.023Z</time></trkpt><trkpt lat="44.1850148" lon="11.9997692"><ele>92.0</ele><time>2026-04-26T08:01:27.027Z</time></trkpt><trkpt lat="44.1849328" lon="11.9995239"><ele>92.0</ele><time>2026-04-26T08:01:28.023Z</time></trkpt><trkpt lat="44.1848547" lon="11.999291"><ele>92.0</ele><time>2026-04-26T08:01:29.026Z</time></trkpt><trkpt lat="44.1847823" lon="11.9990633"><ele>92.0</ele><time>2026-04-26T08:01:30.024Z</time></trkpt><trkpt lat="44.1847099" lon="11.9988397"><ele>92.66666666666667</ele><time>2026-04-26T08:01:31.022Z</time></trkpt><trkpt lat="44.1846385" lon="11.9986227"><ele>93.33333333333333</ele><time>2026-04-26T08:01:32.024Z</time></trkpt><trkpt lat="44.1845711" lon="11.9984147"><ele>94.0</ele><time>2026-04-26T08:01:33.024Z</time></trkpt><trkpt lat="44.1845075" lon="11.9982219"><ele>94.6</ele><time>2026-04-26T08:01:34.022Z</time></trkpt><trkpt lat="44.1844494" lon="11.9980465"><ele>95.2</ele><time>2026-04-26T08:01:35.023Z</time></trkpt><trkpt lat="44.1844013" lon="11.9979028"><ele>95.8</ele><time>2026-04-26T08:01:36.023Z</time></trkpt><trkpt lat="44.184363" lon="11.9977875"><ele>96.39999999999999</ele><time>2026-04-26T08:01:37.026Z</time></trkpt><trkpt lat="44.1843353" lon="11.9977"><ele>97.0</ele><time>2026-04-26T08:01:38.023Z</time></trkpt><trkpt lat="44.1843362" lon="11.9975762"><ele>97.19999999999999</ele><time>2026-04-26T08:01:40.025Z</time></trkpt><trkpt lat="44.184384" lon="11.9974669"><ele>97.4</ele><time>2026-04-26T08:01:42.025Z</time></trkpt><trkpt lat="44.1844666" lon="11.9973437"><ele>97.6</ele><time>2026-04-26T08:01:44.022Z</time></trkpt><trkpt lat="44.1845487" lon="11.9972065"><ele>97.80000000000001</ele><time>2026-04-26T08:01:46.024Z</time></trkpt><trkpt lat="44.1845966" lon="11.9971163"><ele>98.0</ele><time>2026-04-26T08:01:47.025Z</time></trkpt><trkpt lat="44.184648" lon="11.9970106"><ele>97.99999999999999</ele><time>2026-04-26T08:01:48.024Z</time></trkpt><trkpt lat="44.1847025" lon="11.9969079"><ele>98.0</ele><time>2026-04-26T08:01:49.026Z</time></trkpt><trkpt lat="44.1847527" lon="11.9968094"><ele>98.0</ele><time>2026-04-26T08:01:50.024Z</time></trkpt><trkpt lat="44.1848059" lon="11.99672"><ele>98.0</ele><time>2026-04-26T08:01:51.026Z</time></trkpt><trkpt lat="44.1848477" lon="11.996635"><ele>97.99999999999999</ele><time>2026-04-26T08:01:52.024Z</time></trkpt><trkpt lat="44.1848848" lon="11.9965548"><ele>98.0</ele><time>2026-04-26T08:01:53.023Z</time></trkpt><trkpt lat="44.1849625" lon="11.9964364"><ele>97.4</ele><time>2026-04-26T08:01:55.024Z</time></trkpt><trkpt lat="44.1850274" lon="11.9963658"><ele>96.80000000000001</ele><time>2026-04-26T08:01:57.024Z</time></trkpt><trkpt lat="44.1851099" lon="11.9963405"><ele>96.2</ele><time>2026-04-26T08:02:00.025Z</time></trkpt><trkpt lat="44.1850121" lon="11.9964145"><ele>95.6</ele><time>2026-04-26T08:02:15.099Z</time></trkpt><trkpt lat="44.1849333" lon="11.9965983"><ele>95.0</ele><time>2026-04-26T08:04:50.027Z</time></trkpt><trkpt lat="44.1848633" lon="11.9966883"><ele>95.6</ele><time>2026-04-26T08:04:52.024Z</time></trkpt><trkpt lat="44.1847833" lon="11.9968317"><ele>96.2</ele><time>2026-04-26T08:04:54.025Z</time></trkpt><trkpt lat="44.1847367" lon="11.99692"><ele>96.80000000000001</ele><time>2026-04-26T08:04:55.024Z</time></trkpt><trkpt lat="44.18468" lon="11.9970117"><ele>97.4</ele><time>2026-04-26T08:04:56.025Z</time></trkpt><trkpt lat="44.184635" lon="11.997105"><ele>98.0</ele><time>2026-04-26T08:04:57.028Z</time></trkpt><trkpt lat="44.1845803" lon="11.997192"><ele>97.99999999999999</ele><time>2026-04-26T08:04:58.025Z</time></trkpt><trkpt lat="44.1845288" lon="11.9972647"><ele>98.0</ele><time>2026-04-26T08:04:59.023Z</time></trkpt><trkpt lat="44.1844871" lon="11.9973397"><ele>98.0</ele><time>2026-04-26T08:05:00.025Z</time></trkpt><trkpt lat="44.1844216" lon="11.9974475"><ele>98.0</ele><time>2026-04-26T08:05:02.025Z</time></trkpt><trkpt lat="44.184375" lon="11.9975218"><ele>97.99999999999999</ele><time>2026-04-26T08:05:04.024Z</time></trkpt><trkpt lat="44.1842863" lon="11.9975154"><ele>98.0</ele><time>2026-04-26T08:05:19.026Z</time></trkpt><trkpt lat="44.1842107" lon="11.9973813"><ele>98.0</ele><time>2026-04-26T08:05:21.024Z</time></trkpt><trkpt lat="44.184155" lon="11.9972526"><ele>98.0</ele><time>2026-04-26T08:05:22.025Z</time></trkpt><trkpt lat="44.1840822" lon="11.9970531"><ele>98.0</ele><time>2026-04-26T08:05:23.024Z</time></trkpt><trkpt lat="44.1840172" lon="11.996832"><ele>98.0</ele><time>2026-04-26T08:05:24.025Z</time></trkpt><trkpt lat="44.1839526" lon="11.9966029"><ele>98.66666666666666</ele><time>2026-04-26T08:05:25.026Z</time></trkpt><trkpt lat="44.1838835" lon="11.9963718"><ele>99.33333333333334</ele><time>2026-04-26T08:05:26.027Z</time></trkpt><trkpt lat="44.1838063" lon="11.9961381"><ele>100.0</ele><time>2026-04-26T08:05:27.024Z</time></trkpt><trkpt lat="44.1837287" lon="11.9958944"><ele>100.66666666666667</ele><time>2026-04-26T08:05:28.025Z</time></trkpt><trkpt lat="44.1836487" lon="11.9956462"><ele>101.33333333333334</ele><time>2026-04-26T08:05:29.024Z</time></trkpt><trkpt lat="44.1835652" lon="11.9953893"><ele>102.0</ele><time>2026-04-26T08:05:30.024Z</time></trkpt><trkpt lat="44.1834747" lon="11.9951304"><ele>103.0</ele><time>2026-04-26T08:05:31.026Z</time></trkpt><trkpt lat="44.183384" lon="11.9948639"><ele>104.0</ele><time>2026-04-26T08:05:32.025Z</time></trkpt><trkpt lat="44.1832958" lon="11.9945885"><ele>105.0</ele><time>2026-04-26T08:05:33.025Z</time></trkpt><trkpt lat="44.1832033" lon="11.9943171"><ele>106.33333333333334</ele><time>2026-04-26T08:05:34.026Z</time></trkpt><trkpt lat="44.1831147" lon="11.994051"><ele>107.66666666666667</ele><time>2026-04-26T08:05:35.023Z</time></trkpt><trkpt lat="44.1830256" lon="11.9937861"><ele>109.0</ele><time>2026-04-26T08:05:36.025Z</time></trkpt><trkpt lat="44.1829402" lon="11.9935256"><ele>109.33333333333334</ele><time>2026-04-26T08:05:37.027Z</time></trkpt><trkpt lat="44.1828575" lon="11.9932678"><ele>109.66666666666666</ele><time>2026-04-26T08:05:38.027Z</time></trkpt><trkpt lat="44.1827649" lon="11.9930197"><ele>110.0</ele><time>2026-04-26T08:05:39.025Z</time></trkpt><trkpt lat="44.1826644" lon="11.9927837"><ele>110.0</ele><time>2026-04-26T08:05:40.025Z</time></trkpt><trkpt lat="44.1825377" lon="11.9925782"><ele>110.0</ele><time>2026-04-26T08:05:41.024Z</time></trkpt><trkpt lat="44.1823898" lon="11.9924053"><ele>110.0</ele><time>2026-04-26T08:05:42.024Z</time></trkpt><trkpt lat="44.1822417" lon="11.9922494"><ele>111.66666666666666</ele><time>2026-04-26T08:05:43.026Z</time></trkpt><trkpt lat="44.18211" lon="11.9921005"><ele>113.33333333333334</ele><time>2026-04-26T08:05:44.027Z</time></trkpt><trkpt lat="44.1819911" lon="11.9919663"><ele>115.0</ele><time>2026-04-26T08:05:45.027Z</time></trkpt><trkpt lat="44.181888" lon="11.9918436"><ele>115.0</ele><time>2026-04-26T08:05:46.027Z</time></trkpt><trkpt lat="44.1817966" lon="11.9917304"><ele>115.0</ele><time>2026-04-26T08:05:47.026Z</time></trkpt><trkpt lat="44.181713" lon="11.9916176"><ele>115.0</ele><time>2026-04-26T08:05:48.028Z</time></trkpt><trkpt lat="44.1816341" lon="11.9915116"><ele>115.0</ele><time>2026-04-26T08:05:49.025Z</time></trkpt><trkpt lat="44.1815629" lon="11.9914214"><ele>115.0</ele><time>2026-04-26T08:05:50.025Z</time></trkpt><trkpt lat="44.1814942" lon="11.9913472"><ele>115.4</ele><time>2026-04-26T08:05:51.026Z</time></trkpt><trkpt lat="44.1814317" lon="11.9912732"><ele>115.8</ele><time>2026-04-26T08:05:52.026Z</time></trkpt><trkpt lat="44.1813705" lon="11.991186"><ele>116.19999999999999</ele><time>2026-04-26T08:05:53.025Z</time></trkpt><trkpt lat="44.1813108" lon="11.9910866"><ele>116.6</ele><time>2026-04-26T08:05:54.025Z</time></trkpt><trkpt lat="44.1812361" lon="11.990991"><ele>117.0</ele><time>2026-04-26T08:05:55.025Z</time></trkpt><trkpt lat="44.1811472" lon="11.9908813"><ele>118.0</ele><time>2026-04-26T08:05:56.025Z</time></trkpt><trkpt lat="44.1810535" lon="11.9907644"><ele>119.0</ele><time>2026-04-26T08:05:57.024Z</time></trkpt><trkpt lat="44.1809561" lon="11.9906447"><ele>120.0</ele><time>2026-04-26T08:05:58.026Z</time></trkpt><trkpt lat="44.1808504" lon="11.9905173"><ele>121.0</ele><time>2026-04-26T08:05:59.024Z</time></trkpt><trkpt lat="44.1807414" lon="11.9903791"><ele>121.66666666666667</ele><time>2026-04-26T08:06:00.024Z</time></trkpt><trkpt lat="44.1806245" lon="11.9902329"><ele>122.33333333333334</ele><time>2026-04-26T08:06:01.026Z</time></trkpt><trkpt lat="44.1805034" lon="11.9900763"><ele>123.0</ele><time>2026-04-26T08:06:02.026Z</time></trkpt><trkpt lat="44.1803732" lon="11.9899153"><ele>125.0</ele><time>2026-04-26T08:06:03.025Z</time></trkpt><trkpt lat="44.1802354" lon="11.9897459"><ele>127.0</ele><time>2026-04-26T08:06:04.023Z</time></trkpt><trkpt lat="44.1800943" lon="11.9895782"><ele>129.0</ele><time>2026-04-26T08:06:05.022Z</time></trkpt><trkpt lat="44.179946" lon="11.9893968"><ele>128.66666666666666</ele><time>2026-04-26T08:06:06.022Z</time></trkpt><trkpt lat="44.1797937" lon="11.9892"><ele>128.33333333333331</ele><time>2026-04-26T08:06:07.024Z</time></trkpt><trkpt lat="44.1796369" lon="11.9890041"><ele>128.0</ele><time>2026-04-26T08:06:08.026Z</time></trkpt><trkpt lat="44.179472" lon="11.9888079"><ele>130.5</ele><time>2026-04-26T08:06:09.023Z</time></trkpt><trkpt lat="44.1793006" lon="11.988608"><ele>133.0</ele><time>2026-04-26T08:06:10.023Z</time></trkpt><trkpt lat="44.1791256" lon="11.988401"><ele>135.0</ele><time>2026-04-26T08:06:11.027Z</time></trkpt><trkpt lat="44.178949" lon="11.9881895"><ele>137.0</ele><time>2026-04-26T08:06:12.024Z</time></trkpt><trkpt lat="44.1787729" lon="11.9879776"><ele>137.0</ele><time>2026-04-26T08:06:13.024Z</time></trkpt><trkpt lat="44.1785987" lon="11.98777"><ele>137.0</ele><time>2026-04-26T08:06:14.024Z</time></trkpt><trkpt lat="44.1784298" lon="11.9875691"><ele>138.66666666666666</ele><time>2026-04-26T08:06:15.026Z</time></trkpt><trkpt lat="44.178268" lon="11.9873745"><ele>140.33333333333334</ele><time>2026-04-26T08:06:16.023Z</time></trkpt><trkpt lat="44.1781092" lon="11.9871827"><ele>142.0</ele><time>2026-04-26T08:06:17.023Z</time></trkpt><trkpt lat="44.1779512" lon="11.9869913"><ele>142.0</ele><time>2026-04-26T08:06:18.023Z</time></trkpt><trkpt lat="44.1777966" lon="11.9867982"><ele>142.0</ele><time>2026-04-26T08:06:19.022Z</time></trkpt><trkpt lat="44.177642" lon="11.9866022"><ele>142.0</ele><time>2026-04-26T08:06:20.022Z</time></trkpt><trkpt lat="44.1774928" lon="11.9864095"><ele>142.0</ele><time>2026-04-26T08:06:21.025Z</time></trkpt><trkpt lat="44.1773471" lon="11.9862252"><ele>142.0</ele><time>2026-04-26T08:06:22.023Z</time></trkpt><trkpt lat="44.1772159" lon="11.9860598"><ele>142.0</ele><time>2026-04-26T08:06:23.024Z</time></trkpt><trkpt lat="44.1771003" lon="11.9859046"><ele>144.66666666666669</ele><time>2026-04-26T08:06:24.023Z</time></trkpt><trkpt lat="44.1770023" lon="11.9857436"><ele>147.33333333333334</ele><time>2026-04-26T08:06:25.025Z</time></trkpt><trkpt lat="44.1769206" lon="11.985567"><ele>150.0</ele><time>2026-04-26T08:06:26.025Z</time></trkpt><trkpt lat="44.1768436" lon="11.9853751"><ele>150.0</ele><time>2026-04-26T08:06:27.026Z</time></trkpt><trkpt lat="44.1767673" lon="11.9851708"><ele>150.0</ele><time>2026-04-26T08:06:28.022Z</time></trkpt><trkpt lat="44.1766873" lon="11.9849535"><ele>150.0</ele><time>2026-04-26T08:06:29.024Z</time></trkpt><trkpt lat="44.1766057" lon="11.9847126"><ele>149.33333333333334</ele><time>2026-04-26T08:06:30.03Z</time></trkpt><trkpt lat="44.1765143" lon="11.9844786"><ele>148.66666666666669</ele><time>2026-04-26T08:06:31.022Z</time></trkpt><trkpt lat="44.1764186" lon="11.9842387"><ele>148.0</ele><time>2026-04-26T08:06:32.025Z</time></trkpt><trkpt lat="44.1763206" lon="11.9839961"><ele>150.33333333333334</ele><time>2026-04-26T08:06:33.023Z</time></trkpt><trkpt lat="44.1762216" lon="11.9837485"><ele>152.66666666666666</ele><time>2026-04-26T08:06:34.03Z</time></trkpt><trkpt lat="44.1761232" lon="11.9835001"><ele>155.0</ele><time>2026-04-26T08:06:35.022Z</time></trkpt><trkpt lat="44.1760241" lon="11.9832505"><ele>157.0</ele><time>2026-04-26T08:06:36.023Z</time></trkpt><trkpt lat="44.1759252" lon="11.9830045"><ele>159.0</ele><time>2026-04-26T08:06:37.025Z</time></trkpt><trkpt lat="44.1758246" lon="11.9827502"><ele>161.0</ele><time>2026-04-26T08:06:38.023Z</time></trkpt><trkpt lat="44.1757219" lon="11.9824919"><ele>162.66666666666666</ele><time>2026-04-26T08:06:39.024Z</time></trkpt><trkpt lat="44.1756176" lon="11.9822429"><ele>164.33333333333334</ele><time>2026-04-26T08:06:40.022Z</time></trkpt><trkpt lat="44.1755122" lon="11.9819917"><ele>166.0</ele><time>2026-04-26T08:06:41.024Z</time></trkpt><trkpt lat="44.1754029" lon="11.98174"><ele>166.66666666666669</ele><time>2026-04-26T08:06:42.022Z</time></trkpt><trkpt lat="44.1752903" lon="11.9814865"><ele>167.33333333333334</ele><time>2026-04-26T08:06:43.026Z</time></trkpt><trkpt lat="44.1751758" lon="11.9812315"><ele>168.0</ele><time>2026-04-26T08:06:44.023Z</time></trkpt><trkpt lat="44.1750609" lon="11.9809749"><ele>169.0</ele><time>2026-04-26T08:06:45.026Z</time></trkpt><trkpt lat="44.1749499" lon="11.9807139"><ele>170.0</ele><time>2026-04-26T08:06:46.024Z</time></trkpt><trkpt lat="44.1748392" lon="11.9804451"><ele>171.0</ele><time>2026-04-26T08:06:47.023Z</time></trkpt><trkpt lat="44.1747261" lon="11.9801708"><ele>174.5</ele><time>2026-04-26T08:06:48.026Z</time></trkpt><trkpt lat="44.1746137" lon="11.9798985"><ele>178.0</ele><time>2026-04-26T08:06:49.025Z</time></trkpt><trkpt lat="44.1745031" lon="11.9796235"><ele>178.0</ele><time>2026-04-26T08:06:50.024Z</time></trkpt><trkpt lat="44.1743926" lon="11.9793399"><ele>178.0</ele><time>2026-04-26T08:06:51.026Z</time></trkpt><trkpt lat="44.1742796" lon="11.9790485"><ele>180.0</ele><time>2026-04-26T08:06:52.023Z</time></trkpt><trkpt lat="44.1741603" lon="11.9787486"><ele>182.0</ele><time>2026-04-26T08:06:53.024Z</time></trkpt><trkpt lat="44.1740392" lon="11.9784513"><ele>183.5</ele><time>2026-04-26T08:06:54.025Z</time></trkpt><trkpt lat="44.1739212" lon="11.9781688"><ele>185.0</ele><time>2026-04-26T08:06:55.024Z</time></trkpt><trkpt lat="44.1738114" lon="11.9779034"><ele>185.0</ele><time>2026-04-26T08:06:56.026Z</time></trkpt><trkpt lat="44.1737067" lon="11.9776557"><ele>185.0</ele><time>2026-04-26T08:06:57.025Z</time></trkpt><trkpt lat="44.1736069" lon="11.9774173"><ele>185.0</ele><time>2026-04-26T08:06:58.024Z</time></trkpt><trkpt lat="44.1735109" lon="11.9771825"><ele>186.33333333333331</ele><time>2026-04-26T08:06:59.022Z</time></trkpt><trkpt lat="44.1734171" lon="11.9769496"><ele>187.66666666666666</ele><time>2026-04-26T08:07:00.023Z</time></trkpt><trkpt lat="44.173324" lon="11.9767243"><ele>189.0</ele><time>2026-04-26T08:07:01.026Z</time></trkpt><trkpt lat="44.173238" lon="11.9765121"><ele>191.33333333333331</ele><time>2026-04-26T08:07:02.022Z</time></trkpt><trkpt lat="44.173148" lon="11.9763228"><ele>193.66666666666666</ele><time>2026-04-26T08:07:03.023Z</time></trkpt><trkpt lat="44.1730397" lon="11.9761615"><ele>196.0</ele><time>2026-04-26T08:07:04.023Z</time></trkpt><trkpt lat="44.1729117" lon="11.9760324"><ele>196.0</ele><time>2026-04-26T08:07:05.023Z</time></trkpt><trkpt lat="44.1727616" lon="11.9759583"><ele>196.0</ele><time>2026-04-26T08:07:06.026Z</time></trkpt><trkpt lat="44.1726238" lon="11.9759049"><ele>196.0</ele><time>2026-04-26T08:07:07.026Z</time></trkpt><trkpt lat="44.1725034" lon="11.9758494"><ele>196.0</ele><time>2026-04-26T08:07:08.025Z</time></trkpt><trkpt lat="44.1724002" lon="11.9757947"><ele>195.66666666666666</ele><time>2026-04-26T08:07:09.025Z</time></trkpt><trkpt lat="44.1723151" lon="11.9757284"><ele>195.33333333333331</ele><time>2026-04-26T08:07:10.024Z</time></trkpt><trkpt lat="44.1722562" lon="11.9756469"><ele>195.0</ele><time>2026-04-26T08:07:11.024Z</time></trkpt><trkpt lat="44.1722247" lon="11.9755701"><ele>194.66666666666669</ele><time>2026-04-26T08:07:12.023Z</time></trkpt><trkpt lat="44.172202" lon="11.9754636"><ele>194.33333333333334</ele><time>2026-04-26T08:07:13.026Z</time></trkpt><trkpt lat="44.1721845" lon="11.975293"><ele>194.0</ele><time>2026-04-26T08:07:14.025Z</time></trkpt><trkpt lat="44.1721602" lon="11.97505"><ele>194.66666666666669</ele><time>2026-04-26T08:07:15.024Z</time></trkpt><trkpt lat="44.1721342" lon="11.9747928"><ele>195.33333333333331</ele><time>2026-04-26T08:07:16.023Z</time></trkpt><trkpt lat="44.1721083" lon="11.9744967"><ele>196.0</ele><time>2026-04-26T08:07:17.023Z</time></trkpt><trkpt lat="44.17208" lon="11.9742317"><ele>197.33333333333331</ele><time>2026-04-26T08:07:18.022Z</time></trkpt><trkpt lat="44.1720533" lon="11.973995"><ele>198.66666666666669</ele><time>2026-04-26T08:07:19.026Z</time></trkpt><trkpt lat="44.1720283" lon="11.9737833"><ele>200.0</ele><time>2026-04-26T08:07:20.025Z</time></trkpt><trkpt lat="44.17199" lon="11.9735967"><ele>200.0</ele><time>2026-04-26T08:07:21.024Z</time></trkpt><trkpt lat="44.1719383" lon="11.9734333"><ele>200.0</ele><time>2026-04-26T08:07:22.028Z</time></trkpt><trkpt lat="44.17186" lon="11.973275"><ele>200.0</ele><time>2026-04-26T08:07:23.023Z</time></trkpt><trkpt lat="44.171755" lon="11.97314"><ele>200.0</ele><time>2026-04-26T08:07:24.025Z</time></trkpt><trkpt lat="44.1716417" lon="11.9730067"><ele>200.75</ele><time>2026-04-26T08:07:25.024Z</time></trkpt><trkpt lat="44.171525" lon="11.9728767"><ele>201.5</ele><time>2026-04-26T08:07:26.025Z</time></trkpt><trkpt lat="44.1714083" lon="11.9727433"><ele>202.25</ele><time>2026-04-26T08:07:27.025Z</time></trkpt><trkpt lat="44.1712983" lon="11.97262"><ele>203.0</ele><time>2026-04-26T08:07:28.024Z</time></trkpt><trkpt lat="44.1711933" lon="11.9725067"><ele>203.0</ele><time>2026-04-26T08:07:29.024Z</time></trkpt><trkpt lat="44.1710917" lon="11.9723767"><ele>203.0</ele><time>2026-04-26T08:07:30.024Z</time></trkpt><trkpt lat="44.171" lon="11.97223"><ele>203.0</ele><time>2026-04-26T08:07:31.026Z</time></trkpt><trkpt lat="44.1709083" lon="11.9720583"><ele>203.0</ele><time>2026-04-26T08:07:32.024Z</time></trkpt><trkpt lat="44.1708217" lon="11.9718717"><ele>204.33333333333334</ele><time>2026-04-26T08:07:33.024Z</time></trkpt><trkpt lat="44.170745" lon="11.97168"><ele>205.66666666666669</ele><time>2026-04-26T08:07:34.022Z</time></trkpt><trkpt lat="44.1706917" lon="11.971485"><ele>207.0</ele><time>2026-04-26T08:07:35.023Z</time></trkpt><trkpt lat="44.1706517" lon="11.971285"><ele>201.33333333333334</ele><time>2026-04-26T08:07:36.023Z</time></trkpt><trkpt lat="44.1706217" lon="11.9710767"><ele>195.66666666666669</ele><time>2026-04-26T08:07:37.024Z</time></trkpt><trkpt lat="44.1705967" lon="11.9708517"><ele>190.0</ele><time>2026-04-26T08:07:38.025Z</time></trkpt><trkpt lat="44.1705717" lon="11.97061"><ele>190.0</ele><time>2026-04-26T08:07:39.025Z</time></trkpt><trkpt lat="44.1705483" lon="11.9703567"><ele>190.0</ele><time>2026-04-26T08:07:40.022Z</time></trkpt><trkpt lat="44.170525" lon="11.9701033"><ele>190.0</ele><time>2026-04-26T08:07:41.025Z</time></trkpt><trkpt lat="44.1705033" lon="11.9698633"><ele>190.0</ele><time>2026-04-26T08:07:42.024Z</time></trkpt><trkpt lat="44.1704767" lon="11.969625"><ele>190.0</ele><time>2026-04-26T08:07:43.024Z</time></trkpt><trkpt lat="44.1704333" lon="11.9694"><ele>190.0</ele><time>2026-04-26T08:07:44.024Z</time></trkpt><trkpt lat="44.1703633" lon="11.96919"><ele>191.33333333333334</ele><time>2026-04-26T08:07:45.025Z</time></trkpt><trkpt lat="44.1702717" lon="11.969005"><ele>192.66666666666669</ele><time>2026-04-26T08:07:46.025Z</time></trkpt><trkpt lat="44.170165" lon="11.9688467"><ele>194.0</ele><time>2026-04-26T08:07:47.024Z</time></trkpt><trkpt lat="44.1700483" lon="11.9687067"><ele>194.0</ele><time>2026-04-26T08:07:48.026Z</time></trkpt><trkpt lat="44.16991" lon="11.9685917"><ele>194.0</ele><time>2026-04-26T08:07:49.024Z</time></trkpt><trkpt lat="44.1697517" lon="11.968505"><ele>194.0</ele><time>2026-04-26T08:07:50.024Z</time></trkpt><trkpt lat="44.1695817" lon="11.96843"><ele>194.33333333333334</ele><time>2026-04-26T08:07:51.025Z</time></trkpt><trkpt lat="44.169415" lon="11.9683583"><ele>194.66666666666669</ele><time>2026-04-26T08:07:52.025Z</time></trkpt><trkpt lat="44.1692583" lon="11.9683033"><ele>195.0</ele><time>2026-04-26T08:07:53.025Z</time></trkpt><trkpt lat="44.16912" lon="11.9682467"><ele>198.75</ele><time>2026-04-26T08:07:54.023Z</time></trkpt><trkpt lat="44.16899" lon="11.9681733"><ele>202.5</ele><time>2026-04-26T08:07:55.025Z</time></trkpt><trkpt lat="44.168865" lon="11.968075"><ele>206.25</ele><time>2026-04-26T08:07:56.024Z</time></trkpt><trkpt lat="44.16875" lon="11.9679533"><ele>210.0</ele><time>2026-04-26T08:07:57.024Z</time></trkpt><trkpt lat="44.1686317" lon="11.9678217"><ele>210.0</ele><time>2026-04-26T08:07:58.024Z</time></trkpt><trkpt lat="44.168515" lon="11.9676933"><ele>210.0</ele><time>2026-04-26T08:07:59.026Z</time></trkpt><trkpt lat="44.16839" lon="11.9675917"><ele>210.0</ele><time>2026-04-26T08:08:00.025Z</time></trkpt><trkpt lat="44.168265" lon="11.9675167"><ele>210.0</ele><time>2026-04-26T08:08:01.026Z</time></trkpt><trkpt lat="44.16815" lon="11.9674417"><ele>212.25</ele><time>2026-04-26T08:08:02.025Z</time></trkpt><trkpt lat="44.16805" lon="11.96735"><ele>214.5</ele><time>2026-04-26T08:08:03.024Z</time></trkpt><trkpt lat="44.167965" lon="11.9672267"><ele>216.75</ele><time>2026-04-26T08:08:04.025Z</time></trkpt><trkpt lat="44.1678817" lon="11.9670867"><ele>219.0</ele><time>2026-04-26T08:08:05.023Z</time></trkpt><trkpt lat="44.1678083" lon="11.9669317"><ele>219.0</ele><time>2026-04-26T08:08:06.024Z</time></trkpt><trkpt lat="44.167725" lon="11.9668"><ele>219.0</ele><time>2026-04-26T08:08:07.024Z</time></trkpt><trkpt lat="44.1676283" lon="11.9666817"><ele>219.0</ele><time>2026-04-26T08:08:08.025Z</time></trkpt><trkpt lat="44.1675183" lon="11.9665867"><ele>219.0</ele><time>2026-04-26T08:08:09.025Z</time></trkpt><trkpt lat="44.1674067" lon="11.9665217"><ele>217.6</ele><time>2026-04-26T08:08:10.024Z</time></trkpt><trkpt lat="44.1672917" lon="11.9664867"><ele>216.2</ele><time>2026-04-26T08:08:11.023Z</time></trkpt><trkpt lat="44.1671933" lon="11.9664367"><ele>214.79999999999998</ele><time>2026-04-26T08:08:12.025Z</time></trkpt><trkpt lat="44.1671117" lon="11.9663833"><ele>213.39999999999998</ele><time>2026-04-26T08:08:13.025Z</time></trkpt><trkpt lat="44.167045" lon="11.96633"><ele>212.0</ele><time>2026-04-26T08:08:14.026Z</time></trkpt><trkpt lat="44.1669467" lon="11.9662583"><ele>212.0</ele><time>2026-04-26T08:08:16.025Z</time></trkpt><trkpt lat="44.16687" lon="11.9661483"><ele>212.0</ele><time>2026-04-26T08:08:18.025Z</time></trkpt><trkpt lat="44.1668517" lon="11.96606"><ele>212.0</ele><time>2026-04-26T08:08:19.026Z</time></trkpt><trkpt lat="44.1668467" lon="11.9659433"><ele>212.0</ele><time>2026-04-26T08:08:20.026Z</time></trkpt><trkpt lat="44.16685" lon="11.96577"><ele>212.0</ele><time>2026-04-26T08:08:21.029Z</time></trkpt><trkpt lat="44.1668467" lon="11.965535"><ele>208.0</ele><time>2026-04-26T08:08:22.024Z</time></trkpt><trkpt lat="44.1668433" lon="11.965265"><ele>204.0</ele><time>2026-04-26T08:08:23.022Z</time></trkpt><trkpt lat="44.1668367" lon="11.9649983"><ele>200.0</ele><time>2026-04-26T08:08:24.026Z</time></trkpt><trkpt lat="44.1668267" lon="11.9647467"><ele>198.33333333333334</ele><time>2026-04-26T08:08:25.026Z</time></trkpt><trkpt lat="44.1668167" lon="11.9645033"><ele>196.66666666666669</ele><time>2026-04-26T08:08:26.026Z</time></trkpt><trkpt lat="44.166805" lon="11.964275"><ele>195.0</ele><time>2026-04-26T08:08:27.025Z</time></trkpt><trkpt lat="44.1667733" lon="11.9640617"><ele>194.0</ele><time>2026-04-26T08:08:28.024Z</time></trkpt><trkpt lat="44.166725" lon="11.9638583"><ele>193.0</ele><time>2026-04-26T08:08:29.022Z</time></trkpt><trkpt lat="44.1666767" lon="11.9636717"><ele>192.0</ele><time>2026-04-26T08:08:30.025Z</time></trkpt><trkpt lat="44.166635" lon="11.9634933"><ele>191.0</ele><time>2026-04-26T08:08:31.024Z</time></trkpt><trkpt lat="44.1666" lon="11.9633417"><ele>190.83333333333331</ele><time>2026-04-26T08:08:32.024Z</time></trkpt><trkpt lat="44.1665717" lon="11.9632183"><ele>190.66666666666666</ele><time>2026-04-26T08:08:33.025Z</time></trkpt><trkpt lat="44.1665517" lon="11.96311"><ele>190.5</ele><time>2026-04-26T08:08:34.024Z</time></trkpt><trkpt lat="44.1665083" lon="11.9630283"><ele>190.33333333333334</ele><time>2026-04-26T08:08:35.028Z</time></trkpt><trkpt lat="44.16645" lon="11.9629633"><ele>190.16666666666669</ele><time>2026-04-26T08:08:36.023Z</time></trkpt><trkpt lat="44.16637" lon="11.9629133"><ele>190.0</ele><time>2026-04-26T08:08:37.025Z</time></trkpt><trkpt lat="44.1662567" lon="11.9628817"><ele>188.0</ele><time>2026-04-26T08:08:38.025Z</time></trkpt><trkpt lat="44.1661317" lon="11.9628367"><ele>186.0</ele><time>2026-04-26T08:08:39.024Z</time></trkpt><trkpt lat="44.1660067" lon="11.96276"><ele>184.0</ele><time>2026-04-26T08:08:40.025Z</time></trkpt><trkpt lat="44.165895" lon="11.962635"><ele>182.0</ele><time>2026-04-26T08:08:41.023Z</time></trkpt><trkpt lat="44.1657883" lon="11.9624633"><ele>178.0</ele><time>2026-04-26T08:08:42.025Z</time></trkpt><trkpt lat="44.16569" lon="11.962275"><ele>174.0</ele><time>2026-04-26T08:08:43.025Z</time></trkpt><trkpt lat="44.1656" lon="11.9620733"><ele>170.0</ele><time>2026-04-26T08:08:44.027Z</time></trkpt><trkpt lat="44.16552" lon="11.9618767"><ele>173.0</ele><time>2026-04-26T08:08:45.027Z</time></trkpt><trkpt lat="44.165455" lon="11.9616817"><ele>176.0</ele><time>2026-04-26T08:08:46.024Z</time></trkpt><trkpt lat="44.1654383" lon="11.9614917"><ele>179.0</ele><time>2026-04-26T08:08:47.028Z</time></trkpt><trkpt lat="44.1654033" lon="11.961335"><ele>182.0</ele><time>2026-04-26T08:08:48.03Z</time></trkpt><trkpt lat="44.1653367" lon="11.9612133"><ele>182.0</ele><time>2026-04-26T08:08:49.025Z</time></trkpt><trkpt lat="44.165245" lon="11.96112"><ele>182.0</ele><time>2026-04-26T08:08:50.023Z</time></trkpt><trkpt lat="44.1651233" lon="11.96103"><ele>182.0</ele><time>2026-04-26T08:08:51.025Z</time></trkpt><trkpt lat="44.1650017" lon="11.9609267"><ele>182.0</ele><time>2026-04-26T08:08:52.024Z</time></trkpt><trkpt lat="44.1648867" lon="11.9607983"><ele>184.25</ele><time>2026-04-26T08:08:53.025Z</time></trkpt><trkpt lat="44.164785" lon="11.96066"><ele>186.5</ele><time>2026-04-26T08:08:54.025Z</time></trkpt><trkpt lat="44.1646967" lon="11.9605183"><ele>188.75</ele><time>2026-04-26T08:08:55.027Z</time></trkpt><trkpt lat="44.1646" lon="11.9603983"><ele>191.0</ele><time>2026-04-26T08:08:56.026Z</time></trkpt><trkpt lat="44.1645067" lon="11.96028"><ele>191.0</ele><time>2026-04-26T08:08:57.024Z</time></trkpt><trkpt lat="44.1644267" lon="11.9601633"><ele>191.0</ele><time>2026-04-26T08:08:58.025Z</time></trkpt><trkpt lat="44.164355" lon="11.9600333"><ele>191.0</ele><time>2026-04-26T08:08:59.025Z</time></trkpt><trkpt lat="44.1642913" lon="11.959871"><ele>191.0</ele><time>2026-04-26T08:09:00.025Z</time></trkpt><trkpt lat="44.1642336" lon="11.9596839"><ele>193.66666666666666</ele><time>2026-04-26T08:09:01.025Z</time></trkpt><trkpt lat="44.1641732" lon="11.9594732"><ele>196.33333333333331</ele><time>2026-04-26T08:09:02.025Z</time></trkpt><trkpt lat="44.1641114" lon="11.9592375"><ele>199.0</ele><time>2026-04-26T08:09:03.025Z</time></trkpt><trkpt lat="44.1640467" lon="11.958985"><ele>198.0</ele><time>2026-04-26T08:09:04.022Z</time></trkpt><trkpt lat="44.1639711" lon="11.9587272"><ele>197.0</ele><time>2026-04-26T08:09:05.024Z</time></trkpt><trkpt lat="44.1638879" lon="11.9584785"><ele>196.0</ele><time>2026-04-26T08:09:06.025Z</time></trkpt><trkpt lat="44.1637982" lon="11.9582476"><ele>198.33333333333331</ele><time>2026-04-26T08:09:07.025Z</time></trkpt><trkpt lat="44.1637107" lon="11.9580347"><ele>200.66666666666669</ele><time>2026-04-26T08:09:08.026Z</time></trkpt><trkpt lat="44.1636319" lon="11.957837"><ele>203.0</ele><time>2026-04-26T08:09:09.024Z</time></trkpt><trkpt lat="44.1635561" lon="11.9576549"><ele>203.25</ele><time>2026-04-26T08:09:10.024Z</time></trkpt><trkpt lat="44.1634826" lon="11.957484"><ele>203.5</ele><time>2026-04-26T08:09:11.025Z</time></trkpt><trkpt lat="44.163405" lon="11.9573317"><ele>203.75</ele><time>2026-04-26T08:09:12.027Z</time></trkpt><trkpt lat="44.1633056" lon="11.9571996"><ele>204.0</ele><time>2026-04-26T08:09:13.025Z</time></trkpt><trkpt lat="44.1631843" lon="11.9570749"><ele>203.66666666666669</ele><time>2026-04-26T08:09:14.025Z</time></trkpt><trkpt lat="44.1630486" lon="11.9569471"><ele>203.33333333333334</ele><time>2026-04-26T08:09:15.025Z</time></trkpt><trkpt lat="44.1629072" lon="11.9568156"><ele>203.0</ele><time>2026-04-26T08:09:16.025Z</time></trkpt><trkpt lat="44.1627696" lon="11.956688"><ele>203.0</ele><time>2026-04-26T08:09:17.024Z</time></trkpt><trkpt lat="44.1626373" lon="11.9565607"><ele>203.0</ele><time>2026-04-26T08:09:18.023Z</time></trkpt><trkpt lat="44.1624968" lon="11.9564544"><ele>203.0</ele><time>2026-04-26T08:09:19.026Z</time></trkpt><trkpt lat="44.1623462" lon="11.9563716"><ele>204.0</ele><time>2026-04-26T08:09:20.024Z</time></trkpt><trkpt lat="44.1621891" lon="11.9562982"><ele>205.0</ele><time>2026-04-26T08:09:21.025Z</time></trkpt><trkpt lat="44.1620281" lon="11.9562281"><ele>206.0</ele><time>2026-04-26T08:09:22.026Z</time></trkpt><trkpt lat="44.1618638" lon="11.9561632"><ele>206.0</ele><time>2026-04-26T08:09:23.023Z</time></trkpt><trkpt lat="44.1617106" lon="11.9560828"><ele>206.0</ele><time>2026-04-26T08:09:24.027Z</time></trkpt><trkpt lat="44.1615714" lon="11.9560128"><ele>206.0</ele><time>2026-04-26T08:09:25.025Z</time></trkpt><trkpt lat="44.1614443" lon="11.9559543"><ele>206.0</ele><time>2026-04-26T08:09:26.025Z</time></trkpt><trkpt lat="44.1613236" lon="11.9559063"><ele>207.75</ele><time>2026-04-26T08:09:27.025Z</time></trkpt><trkpt lat="44.1611982" lon="11.9558759"><ele>209.5</ele><time>2026-04-26T08:09:28.025Z</time></trkpt><trkpt lat="44.1610664" lon="11.9558793"><ele>211.25</ele><time>2026-04-26T08:09:29.024Z</time></trkpt><trkpt lat="44.1609333" lon="11.9559451"><ele>213.0</ele><time>2026-04-26T08:09:30.023Z</time></trkpt><trkpt lat="44.1608038" lon="11.9560462"><ele>218.33333333333331</ele><time>2026-04-26T08:09:31.027Z</time></trkpt><trkpt lat="44.1606756" lon="11.9561625"><ele>223.66666666666666</ele><time>2026-04-26T08:09:32.024Z</time></trkpt><trkpt lat="44.1605443" lon="11.9562791"><ele>229.0</ele><time>2026-04-26T08:09:33.028Z</time></trkpt><trkpt lat="44.1604112" lon="11.9563995"><ele>229.0</ele><time>2026-04-26T08:09:34.025Z</time></trkpt><trkpt lat="44.160276" lon="11.9565182"><ele>229.0</ele><time>2026-04-26T08:09:35.023Z</time></trkpt><trkpt lat="44.1601318" lon="11.9566333"><ele>229.0</ele><time>2026-04-26T08:09:36.024Z</time></trkpt><trkpt lat="44.1599852" lon="11.9567593"><ele>230.33333333333331</ele><time>2026-04-26T08:09:37.024Z</time></trkpt><trkpt lat="44.1598297" lon="11.9568886"><ele>231.66666666666669</ele><time>2026-04-26T08:09:38.024Z</time></trkpt><trkpt lat="44.1596698" lon="11.9570182"><ele>233.0</ele><time>2026-04-26T08:09:39.025Z</time></trkpt><trkpt lat="44.1595176" lon="11.9571531"><ele>233.0</ele><time>2026-04-26T08:09:40.023Z</time></trkpt><trkpt lat="44.159368" lon="11.9572885"><ele>233.0</ele><time>2026-04-26T08:09:41.023Z</time></trkpt><trkpt lat="44.1592188" lon="11.9574081"><ele>233.0</ele><time>2026-04-26T08:09:42.023Z</time></trkpt><trkpt lat="44.1590756" lon="11.9575124"><ele>236.5</ele><time>2026-04-26T08:09:43.024Z</time></trkpt><trkpt lat="44.1589418" lon="11.957605"><ele>240.0</ele><time>2026-04-26T08:09:44.026Z</time></trkpt><trkpt lat="44.1588289" lon="11.9577186"><ele>243.5</ele><time>2026-04-26T08:09:45.024Z</time></trkpt><trkpt lat="44.158734" lon="11.9578619"><ele>247.0</ele><time>2026-04-26T08:09:46.024Z</time></trkpt><trkpt lat="44.1586469" lon="11.9580298"><ele>247.0</ele><time>2026-04-26T08:09:47.023Z</time></trkpt><trkpt lat="44.158559" lon="11.9582013"><ele>247.0</ele><time>2026-04-26T08:09:48.025Z</time></trkpt><trkpt lat="44.1584559" lon="11.9583552"><ele>247.0</ele><time>2026-04-26T08:09:49.024Z</time></trkpt><trkpt lat="44.1583424" lon="11.9585089"><ele>246.66666666666666</ele><time>2026-04-26T08:09:50.025Z</time></trkpt><trkpt lat="44.158223" lon="11.9586706"><ele>246.33333333333331</ele><time>2026-04-26T08:09:51.025Z</time></trkpt><trkpt lat="44.1581028" lon="11.9588476"><ele>246.0</ele><time>2026-04-26T08:09:52.022Z</time></trkpt><trkpt lat="44.1579926" lon="11.9590224"><ele>246.0</ele><time>2026-04-26T08:09:53.023Z</time></trkpt><trkpt lat="44.1578892" lon="11.9591619"><ele>246.0</ele><time>2026-04-26T08:09:54.025Z</time></trkpt><trkpt lat="44.157803" lon="11.9592957"><ele>246.0</ele><time>2026-04-26T08:09:55.027Z</time></trkpt><trkpt lat="44.1577216" lon="11.9594052"><ele>246.0</ele><time>2026-04-26T08:09:56.023Z</time></trkpt><trkpt lat="44.1576373" lon="11.9594689"><ele>246.0</ele><time>2026-04-26T08:09:57.023Z</time></trkpt><trkpt lat="44.157552" lon="11.9594884"><ele>246.00000000000003</ele><time>2026-04-26T08:09:58.024Z</time></trkpt><trkpt lat="44.157471" lon="11.9594833"><ele>246.00000000000003</ele><time>2026-04-26T08:09:59.023Z</time></trkpt><trkpt lat="44.1574023" lon="11.9594424"><ele>246.0</ele><time>2026-04-26T08:10:00.026Z</time></trkpt><trkpt lat="44.157386" lon="11.9593041"><ele>246.0</ele><time>2026-04-26T08:10:01.025Z</time></trkpt><trkpt lat="44.1573857" lon="11.9591549"><ele>246.0</ele><time>2026-04-26T08:10:02.023Z</time></trkpt><trkpt lat="44.1574031" lon="11.9590072"><ele>246.0</ele><time>2026-04-26T08:10:03.025Z</time></trkpt><trkpt lat="44.1574174" lon="11.9588896"><ele>246.0</ele><time>2026-04-26T08:10:04.024Z</time></trkpt><trkpt lat="44.1574321" lon="11.9587861"><ele>246.0</ele><time>2026-04-26T08:10:05.022Z</time></trkpt><trkpt lat="44.1574419" lon="11.9586937"><ele>246.0</ele><time>2026-04-26T08:10:06.023Z</time></trkpt><trkpt lat="44.1574526" lon="11.9586025"><ele>246.0</ele><time>2026-04-26T08:10:07.026Z</time></trkpt><trkpt lat="44.1574581" lon="11.9585081"><ele>246.0</ele><time>2026-04-26T08:10:08.023Z</time></trkpt><trkpt lat="44.1574596" lon="11.9584084"><ele>246.0</ele><time>2026-04-26T08:10:09.024Z</time></trkpt><trkpt lat="44.1574719" lon="11.958305"><ele>246.0</ele><time>2026-04-26T08:10:10.024Z</time></trkpt><trkpt lat="44.1575051" lon="11.9582035"><ele>246.0</ele><time>2026-04-26T08:10:11.025Z</time></trkpt><trkpt lat="44.1575642" lon="11.9581089"><ele>246.0</ele><time>2026-04-26T08:10:12.023Z</time></trkpt><trkpt lat="44.1576494" lon="11.9580294"><ele>246.0</ele><time>2026-04-26T08:10:13.024Z</time></trkpt><trkpt lat="44.1577557" lon="11.9579687"><ele>246.60000000000002</ele><time>2026-04-26T08:10:14.025Z</time></trkpt><trkpt lat="44.1578662" lon="11.9579011"><ele>247.20000000000002</ele><time>2026-04-26T08:10:15.026Z</time></trkpt><trkpt lat="44.1579579" lon="11.9578089"><ele>247.79999999999998</ele><time>2026-04-26T08:10:16.025Z</time></trkpt><trkpt lat="44.158029" lon="11.9577086"><ele>248.39999999999998</ele><time>2026-04-26T08:10:17.023Z</time></trkpt><trkpt lat="44.158087" lon="11.9576211"><ele>249.0</ele><time>2026-04-26T08:10:18.024Z</time></trkpt><trkpt lat="44.1581175" lon="11.9575218"><ele>249.0</ele><time>2026-04-26T08:10:19.026Z</time></trkpt><trkpt lat="44.1581239" lon="11.9574128"><ele>248.99999999999997</ele><time>2026-04-26T08:10:20.024Z</time></trkpt><trkpt lat="44.158107" lon="11.9573003"><ele>248.99999999999997</ele><time>2026-04-26T08:10:21.025Z</time></trkpt><trkpt lat="44.1580751" lon="11.9571806"><ele>249.0</ele><time>2026-04-26T08:10:22.025Z</time></trkpt><trkpt lat="44.1580353" lon="11.9570532"><ele>249.0</ele><time>2026-04-26T08:10:23.024Z</time></trkpt><trkpt lat="44.1579871" lon="11.9569179"><ele>249.0</ele><time>2026-04-26T08:10:24.024Z</time></trkpt><trkpt lat="44.1579294" lon="11.9567756"><ele>249.0</ele><time>2026-04-26T08:10:25.025Z</time></trkpt><trkpt lat="44.157862" lon="11.9566172"><ele>249.0</ele><time>2026-04-26T08:10:26.025Z</time></trkpt><trkpt lat="44.1577904" lon="11.9564476"><ele>249.0</ele><time>2026-04-26T08:10:27.025Z</time></trkpt><trkpt lat="44.1577136" lon="11.956279"><ele>250.33333333333331</ele><time>2026-04-26T08:10:28.025Z</time></trkpt><trkpt lat="44.1576249" lon="11.9561226"><ele>251.66666666666666</ele><time>2026-04-26T08:10:29.023Z</time></trkpt><trkpt lat="44.1575149" lon="11.9559741"><ele>253.0</ele><time>2026-04-26T08:10:30.023Z</time></trkpt><trkpt lat="44.1573762" lon="11.9558269"><ele>247.0</ele><time>2026-04-26T08:10:31.027Z</time></trkpt><trkpt lat="44.1572258" lon="11.9556861"><ele>241.0</ele><time>2026-04-26T08:10:32.025Z</time></trkpt><trkpt lat="44.1570833" lon="11.955548"><ele>235.0</ele><time>2026-04-26T08:10:33.026Z</time></trkpt><trkpt lat="44.1569567" lon="11.9554159"><ele>235.0</ele><time>2026-04-26T08:10:34.025Z</time></trkpt><trkpt lat="44.1568534" lon="11.9552894"><ele>235.0</ele><time>2026-04-26T08:10:35.025Z</time></trkpt><trkpt lat="44.1567727" lon="11.9551466"><ele>235.0</ele><time>2026-04-26T08:10:36.026Z</time></trkpt><trkpt lat="44.1566989" lon="11.9549811"><ele>235.0</ele><time>2026-04-26T08:10:37.026Z</time></trkpt><trkpt lat="44.1566185" lon="11.954814"><ele>236.25</ele><time>2026-04-26T08:10:38.024Z</time></trkpt><trkpt lat="44.1565175" lon="11.9546626"><ele>237.5</ele><time>2026-04-26T08:10:39.025Z</time></trkpt><trkpt lat="44.1564033" lon="11.9545333"><ele>238.75</ele><time>2026-04-26T08:10:40.024Z</time></trkpt><trkpt lat="44.1562967" lon="11.9544233"><ele>240.0</ele><time>2026-04-26T08:10:41.026Z</time></trkpt><trkpt lat="44.1562033" lon="11.9543317"><ele>240.0</ele><time>2026-04-26T08:10:42.024Z</time></trkpt><trkpt lat="44.1561267" lon="11.954255"><ele>240.0</ele><time>2026-04-26T08:10:43.028Z</time></trkpt><trkpt lat="44.1560633" lon="11.954175"><ele>240.0</ele><time>2026-04-26T08:10:44.024Z</time></trkpt><trkpt lat="44.1560083" lon="11.954075"><ele>240.0</ele><time>2026-04-26T08:10:45.027Z</time></trkpt><trkpt lat="44.1559783" lon="11.953955"><ele>240.0</ele><time>2026-04-26T08:10:46.026Z</time></trkpt><trkpt lat="44.1559767" lon="11.9538217"><ele>244.25</ele><time>2026-04-26T08:10:47.024Z</time></trkpt><trkpt lat="44.1559933" lon="11.9536767"><ele>248.5</ele><time>2026-04-26T08:10:48.025Z</time></trkpt><trkpt lat="44.1560267" lon="11.95352"><ele>252.75</ele><time>2026-04-26T08:10:49.025Z</time></trkpt><trkpt lat="44.156075" lon="11.953345"><ele>257.0</ele><time>2026-04-26T08:10:50.024Z</time></trkpt><trkpt lat="44.1561217" lon="11.953185"><ele>257.0</ele><time>2026-04-26T08:10:51.025Z</time></trkpt><trkpt lat="44.1561583" lon="11.9530383"><ele>257.0</ele><time>2026-04-26T08:10:52.024Z</time></trkpt><trkpt lat="44.1561917" lon="11.952895"><ele>257.0</ele><time>2026-04-26T08:10:53.025Z</time></trkpt><trkpt lat="44.1562033" lon="11.95275"><ele>257.0</ele><time>2026-04-26T08:10:54.027Z</time></trkpt><trkpt lat="44.1561933" lon="11.9526117"><ele>257.0</ele><time>2026-04-26T08:10:55.025Z</time></trkpt><trkpt lat="44.1561633" lon="11.9524733"><ele>257.0</ele><time>2026-04-26T08:10:56.025Z</time></trkpt><trkpt lat="44.156115" lon="11.9523417"><ele>257.0</ele><time>2026-04-26T08:10:57.026Z</time></trkpt><trkpt lat="44.1560467" lon="11.9522217"><ele>257.0</ele><time>2026-04-26T08:10:58.024Z</time></trkpt><trkpt lat="44.1559633" lon="11.9521083"><ele>257.0</ele><time>2026-04-26T08:10:59.025Z</time></trkpt><trkpt lat="44.155885" lon="11.9520133"><ele>257.0</ele><time>2026-04-26T08:11:00.022Z</time></trkpt><trkpt lat="44.1558233" lon="11.95192"><ele>257.0</ele><time>2026-04-26T08:11:01.025Z</time></trkpt><trkpt lat="44.15577" lon="11.9518033"><ele>257.0</ele><time>2026-04-26T08:11:02.023Z</time></trkpt><trkpt lat="44.1557267" lon="11.95167"><ele>257.0</ele><time>2026-04-26T08:11:03.022Z</time></trkpt><trkpt lat="44.1556833" lon="11.95152"><ele>257.0</ele><time>2026-04-26T08:11:04.022Z</time></trkpt><trkpt lat="44.15564" lon="11.9513733"><ele>257.0</ele><time>2026-04-26T08:11:05.022Z</time></trkpt><trkpt lat="44.155595" lon="11.9512283"><ele>253.25</ele><time>2026-04-26T08:11:06.029Z</time></trkpt><trkpt lat="44.15556" lon="11.9513517"><ele>249.5</ele><time>2026-04-26T08:11:07.025Z</time></trkpt><trkpt lat="44.1554967" lon="11.95128"><ele>245.75</ele><time>2026-04-26T08:11:08.025Z</time></trkpt><trkpt lat="44.155465" lon="11.9509817"><ele>242.0</ele><time>2026-04-26T08:11:09.024Z</time></trkpt><trkpt lat="44.155435" lon="11.95083"><ele>242.0</ele><time>2026-04-26T08:11:10.024Z</time></trkpt><trkpt lat="44.1553933" lon="11.9506783"><ele>242.0</ele><time>2026-04-26T08:11:11.023Z</time></trkpt><trkpt lat="44.1553433" lon="11.9504283"><ele>242.0</ele><time>2026-04-26T08:11:12.023Z</time></trkpt><trkpt lat="44.1553083" lon="11.950265"><ele>242.0</ele><time>2026-04-26T08:11:13.024Z</time></trkpt><trkpt lat="44.15527" lon="11.9501883"><ele>244.66666666666669</ele><time>2026-04-26T08:11:14.022Z</time></trkpt><trkpt lat="44.155245" lon="11.9500183"><ele>247.33333333333331</ele><time>2026-04-26T08:11:15.022Z</time></trkpt><trkpt lat="44.155245" lon="11.9498017"><ele>250.0</ele><time>2026-04-26T08:11:16.022Z</time></trkpt><trkpt lat="44.1551867" lon="11.94952"><ele>250.0</ele><time>2026-04-26T08:11:18.023Z</time></trkpt><trkpt lat="44.1551433" lon="11.94934"><ele>250.0</ele><time>2026-04-26T08:11:19.024Z</time></trkpt><trkpt lat="44.155025" lon="11.9490883"><ele>250.0</ele><time>2026-04-26T08:11:21.026Z</time></trkpt><trkpt lat="44.1549433" lon="11.9488917"><ele>249.0</ele><time>2026-04-26T08:11:22.023Z</time></trkpt><trkpt lat="44.1548633" lon="11.9487717"><ele>248.0</ele><time>2026-04-26T08:11:23.023Z</time></trkpt><trkpt lat="44.1547383" lon="11.948615"><ele>247.0</ele><time>2026-04-26T08:11:24.022Z</time></trkpt><trkpt lat="44.1546533" lon="11.9485633"><ele>246.0</ele><time>2026-04-26T08:11:25.025Z</time></trkpt><trkpt lat="44.1544517" lon="11.9483733"><ele>246.5</ele><time>2026-04-26T08:11:27.023Z</time></trkpt><trkpt lat="44.1543883" lon="11.9483633"><ele>247.0</ele><time>2026-04-26T08:11:29.024Z</time></trkpt><trkpt lat="44.1542017" lon="11.94824"><ele>247.5</ele><time>2026-04-26T08:11:30.024Z</time></trkpt><trkpt lat="44.1540733" lon="11.9481633"><ele>248.0</ele><time>2026-04-26T08:11:31.022Z</time></trkpt><trkpt lat="44.153985" lon="11.9481683"><ele>248.0</ele><time>2026-04-26T08:11:32.025Z</time></trkpt><trkpt lat="44.1538717" lon="11.94813"><ele>248.0</ele><time>2026-04-26T08:11:33.024Z</time></trkpt><trkpt lat="44.1537417" lon="11.948045"><ele>248.0</ele><time>2026-04-26T08:11:34.023Z</time></trkpt><trkpt lat="44.153635" lon="11.947965"><ele>248.0</ele><time>2026-04-26T08:11:35.025Z</time></trkpt><trkpt lat="44.15335" lon="11.9477433"><ele>246.0</ele><time>2026-04-26T08:11:36.024Z</time></trkpt><trkpt lat="44.1531117" lon="11.9475983"><ele>244.0</ele><time>2026-04-26T08:11:37.025Z</time></trkpt><trkpt lat="44.1529967" lon="11.9475217"><ele>242.0</ele><time>2026-04-26T08:11:38.025Z</time></trkpt><trkpt lat="44.1528633" lon="11.947505"><ele>242.0</ele><time>2026-04-26T08:11:39.024Z</time></trkpt><trkpt lat="44.15272" lon="11.9474967"><ele>242.0</ele><time>2026-04-26T08:11:40.022Z</time></trkpt><trkpt lat="44.1525883" lon="11.9475767"><ele>242.0</ele><time>2026-04-26T08:11:41.022Z</time></trkpt><trkpt lat="44.15249" lon="11.947575"><ele>242.0</ele><time>2026-04-26T08:11:42.022Z</time></trkpt><trkpt lat="44.152305" lon="11.9474433"><ele>248.25</ele><time>2026-04-26T08:11:43.023Z</time></trkpt><trkpt lat="44.1521767" lon="11.94739"><ele>254.5</ele><time>2026-04-26T08:11:44.026Z</time></trkpt><trkpt lat="44.15208" lon="11.9473817"><ele>260.75</ele><time>2026-04-26T08:11:45.021Z</time></trkpt><trkpt lat="44.1519633" lon="11.9473133"><ele>267.0</ele><time>2026-04-26T08:11:46.023Z</time></trkpt><trkpt lat="44.1518317" lon="11.947195"><ele>267.0</ele><time>2026-04-26T08:11:47.021Z</time></trkpt><trkpt lat="44.1517267" lon="11.9470967"><ele>267.0</ele><time>2026-04-26T08:11:48.023Z</time></trkpt><trkpt lat="44.151635" lon="11.94704"><ele>267.0</ele><time>2026-04-26T08:11:49.023Z</time></trkpt><trkpt lat="44.1515617" lon="11.9470083"><ele>267.0</ele><time>2026-04-26T08:11:50.023Z</time></trkpt><trkpt lat="44.15148" lon="11.9469767"><ele>267.0</ele><time>2026-04-26T08:11:51.023Z</time></trkpt><trkpt lat="44.1514017" lon="11.9469733"><ele>269.6666666666667</ele><time>2026-04-26T08:11:52.025Z</time></trkpt><trkpt lat="44.15134" lon="11.9470033"><ele>272.3333333333333</ele><time>2026-04-26T08:11:53.023Z</time></trkpt><trkpt lat="44.151285" lon="11.9470567"><ele>275.0</ele><time>2026-04-26T08:11:54.022Z</time></trkpt><trkpt lat="44.151275" lon="11.947165"><ele>277.66666666666663</ele><time>2026-04-26T08:11:55.022Z</time></trkpt><trkpt lat="44.1511933" lon="11.94722"><ele>280.3333333333333</ele><time>2026-04-26T08:11:56.022Z</time></trkpt><trkpt lat="44.1511267" lon="11.9472933"><ele>283.0</ele><time>2026-04-26T08:11:57.023Z</time></trkpt><trkpt lat="44.1510383" lon="11.9473717"><ele>283.0</ele><time>2026-04-26T08:11:59.021Z</time></trkpt><trkpt lat="44.1509717" lon="11.94742"><ele>283.0</ele><time>2026-04-26T08:12:00.023Z</time></trkpt><trkpt lat="44.15088" lon="11.94745"><ele>283.0</ele><time>2026-04-26T08:12:01.023Z</time></trkpt><trkpt lat="44.1507867" lon="11.9474817"><ele>283.0</ele><time>2026-04-26T08:12:02.023Z</time></trkpt><trkpt lat="44.15069" lon="11.9475133"><ele>283.0</ele><time>2026-04-26T08:12:03.025Z</time></trkpt><trkpt lat="44.1506" lon="11.9475483"><ele>282.5</ele><time>2026-04-26T08:12:04.024Z</time></trkpt><trkpt lat="44.1505267" lon="11.94756"><ele>282.0</ele><time>2026-04-26T08:12:05.024Z</time></trkpt><trkpt lat="44.15046" lon="11.9475683"><ele>281.5</ele><time>2026-04-26T08:12:06.021Z</time></trkpt><trkpt lat="44.1503967" lon="11.9475783"><ele>281.0</ele><time>2026-04-26T08:12:07.021Z</time></trkpt><trkpt lat="44.1503333" lon="11.9475417"><ele>280.5</ele><time>2026-04-26T08:12:08.024Z</time></trkpt><trkpt lat="44.1502383" lon="11.947525"><ele>280.0</ele><time>2026-04-26T08:12:09.024Z</time></trkpt><trkpt lat="44.1501433" lon="11.94749"><ele>281.2</ele><time>2026-04-26T08:12:10.022Z</time></trkpt><trkpt lat="44.150055" lon="11.9474333"><ele>282.4</ele><time>2026-04-26T08:12:11.023Z</time></trkpt><trkpt lat="44.1499667" lon="11.9473633"><ele>283.6</ele><time>2026-04-26T08:12:12.022Z</time></trkpt><trkpt lat="44.1498783" lon="11.9472983"><ele>284.8</ele><time>2026-04-26T08:12:13.023Z</time></trkpt><trkpt lat="44.1498083" lon="11.9472"><ele>286.0</ele><time>2026-04-26T08:12:14.023Z</time></trkpt><trkpt lat="44.14974" lon="11.9471483"><ele>286.0</ele><time>2026-04-26T08:12:15.023Z</time></trkpt><trkpt lat="44.1496933" lon="11.9470767"><ele>286.0</ele><time>2026-04-26T08:12:16.023Z</time></trkpt><trkpt lat="44.1496117" lon="11.946955"><ele>286.0</ele><time>2026-04-26T08:12:18.023Z</time></trkpt><trkpt lat="44.149505" lon="11.9468733"><ele>286.0</ele><time>2026-04-26T08:12:20.022Z</time></trkpt><trkpt lat="44.1494117" lon="11.94678"><ele>286.0</ele><time>2026-04-26T08:12:22.023Z</time></trkpt><trkpt lat="44.1493267" lon="11.9466733"><ele>287.2</ele><time>2026-04-26T08:12:24.025Z</time></trkpt><trkpt lat="44.1492533" lon="11.9465833"><ele>288.40000000000003</ele><time>2026-04-26T08:12:26.022Z</time></trkpt><trkpt lat="44.1491583" lon="11.9465083"><ele>289.6</ele><time>2026-04-26T08:12:28.023Z</time></trkpt><trkpt lat="44.1490567" lon="11.9464367"><ele>290.8</ele><time>2026-04-26T08:12:30.021Z</time></trkpt><trkpt lat="44.1489533" lon="11.946345"><ele>292.0</ele><time>2026-04-26T08:12:32.023Z</time></trkpt><trkpt lat="44.1488967" lon="11.9462767"><ele>287.6</ele><time>2026-04-26T08:12:33.025Z</time></trkpt><trkpt lat="44.1488383" lon="11.946225"><ele>283.2</ele><time>2026-04-26T08:12:34.024Z</time></trkpt><trkpt lat="44.14877" lon="11.946185"><ele>278.8</ele><time>2026-04-26T08:12:35.023Z</time></trkpt><trkpt lat="44.1486517" lon="11.94615"><ele>274.4</ele><time>2026-04-26T08:12:37.023Z</time></trkpt><trkpt lat="44.1485517" lon="11.9460817"><ele>270.0</ele><time>2026-04-26T08:12:39.023Z</time></trkpt><trkpt lat="44.1484583" lon="11.9460083"><ele>270.0</ele><time>2026-04-26T08:12:41.023Z</time></trkpt><trkpt lat="44.1483533" lon="11.9459767"><ele>270.0</ele><time>2026-04-26T08:12:43.023Z</time></trkpt><trkpt lat="44.1482933" lon="11.94594"><ele>270.0</ele><time>2026-04-26T08:12:44.022Z</time></trkpt><trkpt lat="44.14819" lon="11.9458767"><ele>270.0</ele><time>2026-04-26T08:12:46.022Z</time></trkpt><trkpt lat="44.148095" lon="11.9458267"><ele>270.0</ele><time>2026-04-26T08:12:48.026Z</time></trkpt><trkpt lat="44.148" lon="11.9457933"><ele>266.6</ele><time>2026-04-26T08:12:50.022Z</time></trkpt><trkpt lat="44.1479067" lon="11.9457383"><ele>263.2</ele><time>2026-04-26T08:12:52.025Z</time></trkpt><trkpt lat="44.1478117" lon="11.9457217"><ele>259.8</ele><time>2026-04-26T08:12:54.023Z</time></trkpt><trkpt lat="44.1477083" lon="11.9457"><ele>256.4</ele><time>2026-04-26T08:12:56.024Z</time></trkpt><trkpt lat="44.14761" lon="11.945665"><ele>253.0</ele><time>2026-04-26T08:12:58.022Z</time></trkpt><trkpt lat="44.1475317" lon="11.9456283"><ele>253.00000000000003</ele><time>2026-04-26T08:13:00.022Z</time></trkpt><trkpt lat="44.1474633" lon="11.9455733"><ele>253.0</ele><time>2026-04-26T08:13:02.023Z</time></trkpt><trkpt lat="44.1473833" lon="11.9455567"><ele>253.00000000000003</ele><time>2026-04-26T08:13:04.022Z</time></trkpt><trkpt lat="44.147315" lon="11.9455833"><ele>253.00000000000003</ele><time>2026-04-26T08:13:06.023Z</time></trkpt><trkpt lat="44.14725" lon="11.9456083"><ele>253.0</ele><time>2026-04-26T08:13:08.022Z</time></trkpt><trkpt lat="44.1471867" lon="11.9456233"><ele>253.00000000000003</ele><time>2026-04-26T08:13:10.026Z</time></trkpt><trkpt lat="44.1471083" lon="11.9455933"><ele>253.00000000000003</ele><time>2026-04-26T08:13:13.023Z</time></trkpt><trkpt lat="44.1470683" lon="11.945505"><ele>249.16666666666666</ele><time>2026-04-26T08:13:16.023Z</time></trkpt><trkpt lat="44.1470667" lon="11.9454133"><ele>245.33333333333331</ele><time>2026-04-26T08:13:18.025Z</time></trkpt><trkpt lat="44.1470783" lon="11.945305"><ele>241.5</ele><time>2026-04-26T08:13:20.025Z</time></trkpt><trkpt lat="44.1470933" lon="11.9451867"><ele>237.66666666666669</ele><time>2026-04-26T08:13:22.024Z</time></trkpt><trkpt lat="44.1471167" lon="11.945045"><ele>233.83333333333334</ele><time>2026-04-26T08:13:24.024Z</time></trkpt><trkpt lat="44.1471417" lon="11.9449117"><ele>230.0</ele><time>2026-04-26T08:13:26.023Z</time></trkpt><trkpt lat="44.1471683" lon="11.9447783"><ele>229.66666666666669</ele><time>2026-04-26T08:13:28.025Z</time></trkpt><trkpt lat="44.1472017" lon="11.94464"><ele>229.33333333333334</ele><time>2026-04-26T08:13:30.022Z</time></trkpt><trkpt lat="44.1472217" lon="11.944555"><ele>229.0</ele><time>2026-04-26T08:13:31.022Z</time></trkpt><trkpt lat="44.14725" lon="11.944465"><ele>228.66666666666669</ele><time>2026-04-26T08:13:32.021Z</time></trkpt><trkpt lat="44.1472617" lon="11.9443533"><ele>228.33333333333334</ele><time>2026-04-26T08:13:33.022Z</time></trkpt><trkpt lat="44.1472933" lon="11.94424"><ele>228.0</ele><time>2026-04-26T08:13:34.022Z</time></trkpt><trkpt lat="44.14731" lon="11.9441017"><ele>228.83333333333334</ele><time>2026-04-26T08:13:35.023Z</time></trkpt><trkpt lat="44.1473117" lon="11.94397"><ele>229.66666666666669</ele><time>2026-04-26T08:13:36.024Z</time></trkpt><trkpt lat="44.1473183" lon="11.9438617"><ele>230.5</ele><time>2026-04-26T08:13:37.023Z</time></trkpt><trkpt lat="44.1473183" lon="11.943755"><ele>231.33333333333334</ele><time>2026-04-26T08:13:38.023Z</time></trkpt><trkpt lat="44.1473417" lon="11.9436567"><ele>232.16666666666669</ele><time>2026-04-26T08:13:39.023Z</time></trkpt><trkpt lat="44.1473867" lon="11.9435033"><ele>233.0</ele><time>2026-04-26T08:13:41.023Z</time></trkpt><trkpt lat="44.147425" lon="11.9434017"><ele>231.2</ele><time>2026-04-26T08:13:43.023Z</time></trkpt><trkpt lat="44.1474017" lon="11.9433183"><ele>229.4</ele><time>2026-04-26T08:13:45.026Z</time></trkpt><trkpt lat="44.1473133" lon="11.9432833"><ele>227.59999999999997</ele><time>2026-04-26T08:13:47.022Z</time></trkpt><trkpt lat="44.14719" lon="11.9432767"><ele>225.79999999999998</ele><time>2026-04-26T08:13:49.022Z</time></trkpt><trkpt lat="44.1470717" lon="11.9433167"><ele>224.0</ele><time>2026-04-26T08:13:51.022Z</time></trkpt><trkpt lat="44.14696" lon="11.9433917"><ele>222.25</ele><time>2026-04-26T08:13:53.022Z</time></trkpt><trkpt lat="44.1468583" lon="11.9434733"><ele>220.5</ele><time>2026-04-26T08:13:55.023Z</time></trkpt><trkpt lat="44.1467683" lon="11.9435517"><ele>218.75</ele><time>2026-04-26T08:13:57.024Z</time></trkpt><trkpt lat="44.146675" lon="11.9436333"><ele>217.0</ele><time>2026-04-26T08:13:59.023Z</time></trkpt><trkpt lat="44.146565" lon="11.943715"><ele>212.6</ele><time>2026-04-26T08:14:01.025Z</time></trkpt><trkpt lat="44.1465067" lon="11.943765"><ele>208.2</ele><time>2026-04-26T08:14:02.022Z</time></trkpt><trkpt lat="44.1464483" lon="11.94381"><ele>203.8</ele><time>2026-04-26T08:14:03.023Z</time></trkpt><trkpt lat="44.14634" lon="11.9438783"><ele>199.4</ele><time>2026-04-26T08:14:05.023Z</time></trkpt><trkpt lat="44.1462383" lon="11.9439333"><ele>195.0</ele><time>2026-04-26T08:14:07.026Z</time></trkpt><trkpt lat="44.146125" lon="11.944005"><ele>195.0</ele><time>2026-04-26T08:14:09.025Z</time></trkpt><trkpt lat="44.1460667" lon="11.9440383"><ele>195.0</ele><time>2026-04-26T08:14:10.023Z</time></trkpt><trkpt lat="44.1459583" lon="11.9440967"><ele>195.0</ele><time>2026-04-26T08:14:12.022Z</time></trkpt><trkpt lat="44.1458517" lon="11.9441567"><ele>195.0</ele><time>2026-04-26T08:14:14.023Z</time></trkpt><trkpt lat="44.145755" lon="11.9442033"><ele>195.0</ele><time>2026-04-26T08:14:16.027Z</time></trkpt><trkpt lat="44.14567" lon="11.9442517"><ele>191.8</ele><time>2026-04-26T08:14:18.025Z</time></trkpt><trkpt lat="44.1455733" lon="11.944305"><ele>188.6</ele><time>2026-04-26T08:14:20.024Z</time></trkpt><trkpt lat="44.1454617" lon="11.944355"><ele>185.39999999999998</ele><time>2026-04-26T08:14:22.023Z</time></trkpt><trkpt lat="44.145345" lon="11.9443967"><ele>182.2</ele><time>2026-04-26T08:14:24.023Z</time></trkpt><trkpt lat="44.1452783" lon="11.9444017"><ele>179.0</ele><time>2026-04-26T08:14:25.023Z</time></trkpt><trkpt lat="44.14521" lon="11.9443967"><ele>179.0</ele><time>2026-04-26T08:14:26.025Z</time></trkpt><trkpt lat="44.1451333" lon="11.9443833"><ele>179.0</ele><time>2026-04-26T08:14:27.024Z</time></trkpt><trkpt lat="44.14505" lon="11.9443467"><ele>179.0</ele><time>2026-04-26T08:14:28.025Z</time></trkpt><trkpt lat="44.144965" lon="11.94427"><ele>179.0</ele><time>2026-04-26T08:14:29.025Z</time></trkpt><trkpt lat="44.14487" lon="11.9441917"><ele>179.0</ele><time>2026-04-26T08:14:30.023Z</time></trkpt><trkpt lat="44.1447767" lon="11.944105"><ele>179.5</ele><time>2026-04-26T08:14:31.021Z</time></trkpt><trkpt lat="44.1446717" lon="11.94402"><ele>180.0</ele><time>2026-04-26T08:14:32.022Z</time></trkpt><trkpt lat="44.144575" lon="11.94391"><ele>180.5</ele><time>2026-04-26T08:14:33.025Z</time></trkpt><trkpt lat="44.1444683" lon="11.9438067"><ele>181.0</ele><time>2026-04-26T08:14:34.023Z</time></trkpt><trkpt lat="44.1443717" lon="11.9437017"><ele>181.0</ele><time>2026-04-26T08:14:35.022Z</time></trkpt><trkpt lat="44.1442767" lon="11.943625"><ele>181.0</ele><time>2026-04-26T08:14:36.024Z</time></trkpt><trkpt lat="44.1441817" lon="11.943535"><ele>181.0</ele><time>2026-04-26T08:14:37.024Z</time></trkpt><trkpt lat="44.144075" lon="11.94349"><ele>181.0</ele><time>2026-04-26T08:14:38.024Z</time></trkpt><trkpt lat="44.1439633" lon="11.9435117"><ele>181.0</ele><time>2026-04-26T08:14:39.025Z</time></trkpt><trkpt lat="44.1438367" lon="11.9435233"><ele>182.0</ele><time>2026-04-26T08:14:40.026Z</time></trkpt><trkpt lat="44.1437167" lon="11.9435933"><ele>183.0</ele><time>2026-04-26T08:14:41.023Z</time></trkpt><trkpt lat="44.1435917" lon="11.9436617"><ele>184.0</ele><time>2026-04-26T08:14:42.027Z</time></trkpt><trkpt lat="44.1434783" lon="11.94374"><ele>185.0</ele><time>2026-04-26T08:14:43.025Z</time></trkpt><trkpt lat="44.1433717" lon="11.943805"><ele>185.0</ele><time>2026-04-26T08:14:44.022Z</time></trkpt><trkpt lat="44.1432683" lon="11.943865"><ele>185.0</ele><time>2026-04-26T08:14:45.025Z</time></trkpt><trkpt lat="44.1431617" lon="11.9439233"><ele>185.0</ele><time>2026-04-26T08:14:46.023Z</time></trkpt><trkpt lat="44.1430567" lon="11.9439717"><ele>185.0</ele><time>2026-04-26T08:14:47.028Z</time></trkpt><trkpt lat="44.14295" lon="11.9440067"><ele>185.0</ele><time>2026-04-26T08:14:48.025Z</time></trkpt><trkpt lat="44.1428417" lon="11.9440267"><ele>186.33333333333331</ele><time>2026-04-26T08:14:49.024Z</time></trkpt><trkpt lat="44.14274" lon="11.9440333"><ele>187.66666666666666</ele><time>2026-04-26T08:14:50.023Z</time></trkpt><trkpt lat="44.14265" lon="11.9440233"><ele>189.0</ele><time>2026-04-26T08:14:51.024Z</time></trkpt><trkpt lat="44.142565" lon="11.9440017"><ele>190.33333333333331</ele><time>2026-04-26T08:14:52.023Z</time></trkpt><trkpt lat="44.1424833" lon="11.94397"><ele>191.66666666666666</ele><time>2026-04-26T08:14:53.025Z</time></trkpt><trkpt lat="44.142405" lon="11.9439267"><ele>193.0</ele><time>2026-04-26T08:14:54.027Z</time></trkpt><trkpt lat="44.1423267" lon="11.9438817"><ele>196.00000000000003</ele><time>2026-04-26T08:14:55.025Z</time></trkpt><trkpt lat="44.14225" lon="11.94384"><ele>199.0</ele><time>2026-04-26T08:14:56.024Z</time></trkpt><trkpt lat="44.1421767" lon="11.9438167"><ele>202.0</ele><time>2026-04-26T08:14:57.025Z</time></trkpt><trkpt lat="44.1421083" lon="11.9438183"><ele>205.0</ele><time>2026-04-26T08:14:58.023Z</time></trkpt><trkpt lat="44.1420467" lon="11.9438417"><ele>208.0</ele><time>2026-04-26T08:14:59.025Z</time></trkpt><trkpt lat="44.141985" lon="11.9438733"><ele>211.00000000000003</ele><time>2026-04-26T08:15:00.022Z</time></trkpt><trkpt lat="44.1419283" lon="11.9439183"><ele>214.0</ele><time>2026-04-26T08:15:01.023Z</time></trkpt><trkpt lat="44.141875" lon="11.9439683"><ele>213.99999999999997</ele><time>2026-04-26T08:15:02.024Z</time></trkpt><trkpt lat="44.1418217" lon="11.9440217"><ele>214.0</ele><time>2026-04-26T08:15:03.025Z</time></trkpt><trkpt lat="44.141765" lon="11.94408"><ele>214.0</ele><time>2026-04-26T08:15:04.023Z</time></trkpt><trkpt lat="44.1417083" lon="11.9441317"><ele>214.0</ele><time>2026-04-26T08:15:05.024Z</time></trkpt><trkpt lat="44.1416" lon="11.944225"><ele>213.99999999999997</ele><time>2026-04-26T08:15:07.024Z</time></trkpt><trkpt lat="44.141545" lon="11.9442683"><ele>214.0</ele><time>2026-04-26T08:15:08.024Z</time></trkpt><trkpt lat="44.1414867" lon="11.9443067"><ele>219.2</ele><time>2026-04-26T08:15:09.025Z</time></trkpt><trkpt lat="44.1413817" lon="11.944375"><ele>224.39999999999998</ele><time>2026-04-26T08:15:11.266Z</time></trkpt><trkpt lat="44.1413033" lon="11.9444333"><ele>229.6</ele><time>2026-04-26T08:15:12.443Z</time></trkpt><trkpt lat="44.1412317" lon="11.9444783"><ele>234.8</ele><time>2026-04-26T08:15:14.027Z</time></trkpt><trkpt lat="44.14113" lon="11.9445417"><ele>240.0</ele><time>2026-04-26T08:15:16.025Z</time></trkpt><trkpt lat="44.1410317" lon="11.94459"><ele>240.0</ele><time>2026-04-26T08:15:18.024Z</time></trkpt><trkpt lat="44.1409333" lon="11.9446483"><ele>240.0</ele><time>2026-04-26T08:15:20.024Z</time></trkpt><trkpt lat="44.140825" lon="11.9447167"><ele>240.0</ele><time>2026-04-26T08:15:22.024Z</time></trkpt><trkpt lat="44.140765" lon="11.94475"><ele>240.0</ele><time>2026-04-26T08:15:23.024Z</time></trkpt><trkpt lat="44.140705" lon="11.9447817"><ele>240.0</ele><time>2026-04-26T08:15:24.024Z</time></trkpt><trkpt lat="44.1406467" lon="11.944815"><ele>240.0</ele><time>2026-04-26T08:15:25.029Z</time></trkpt><trkpt lat="44.1405883" lon="11.9448517"><ele>243.14285714285717</ele><time>2026-04-26T08:15:26.023Z</time></trkpt><trkpt lat="44.140525" lon="11.9448883"><ele>246.28571428571428</ele><time>2026-04-26T08:15:27.026Z</time></trkpt><trkpt lat="44.1404617" lon="11.94492"><ele>249.42857142857144</ele><time>2026-04-26T08:15:28.027Z</time></trkpt><trkpt lat="44.1403983" lon="11.9449467"><ele>252.57142857142858</ele><time>2026-04-26T08:15:29.025Z</time></trkpt><trkpt lat="44.140335" lon="11.94497"><ele>255.71428571428572</ele><time>2026-04-26T08:15:30.025Z</time></trkpt><trkpt lat="44.14027" lon="11.94499"><ele>258.8571428571429</ele><time>2026-04-26T08:15:31.026Z</time></trkpt><trkpt lat="44.1401967" lon="11.9449983"><ele>262.0</ele><time>2026-04-26T08:15:32.026Z</time></trkpt><trkpt lat="44.1401167" lon="11.9450017"><ele>262.0</ele><time>2026-04-26T08:15:33.026Z</time></trkpt><trkpt lat="44.1400283" lon="11.945"><ele>262.0</ele><time>2026-04-26T08:15:34.026Z</time></trkpt><trkpt lat="44.1399383" lon="11.9449917"><ele>262.0</ele><time>2026-04-26T08:15:35.025Z</time></trkpt><trkpt lat="44.1398483" lon="11.9449833"><ele>262.0</ele><time>2026-04-26T08:15:36.026Z</time></trkpt><trkpt lat="44.139755" lon="11.9449783"><ele>262.0</ele><time>2026-04-26T08:15:37.025Z</time></trkpt><trkpt lat="44.139655" lon="11.9449783"><ele>265.8</ele><time>2026-04-26T08:15:38.024Z</time></trkpt><trkpt lat="44.1395533" lon="11.944985"><ele>269.6</ele><time>2026-04-26T08:15:39.026Z</time></trkpt><trkpt lat="44.13945" lon="11.944995"><ele>273.40000000000003</ele><time>2026-04-26T08:15:40.026Z</time></trkpt><trkpt lat="44.13935" lon="11.9450067"><ele>277.2</ele><time>2026-04-26T08:15:41.025Z</time></trkpt><trkpt lat="44.139255" lon="11.9450217"><ele>281.0</ele><time>2026-04-26T08:15:42.026Z</time></trkpt><trkpt lat="44.1391667" lon="11.94504"><ele>281.28571428571433</ele><time>2026-04-26T08:15:43.026Z</time></trkpt><trkpt lat="44.1390867" lon="11.9450583"><ele>281.57142857142856</ele><time>2026-04-26T08:15:44.025Z</time></trkpt><trkpt lat="44.139015" lon="11.94508"><ele>281.8571428571429</ele><time>2026-04-26T08:15:45.025Z</time></trkpt><trkpt lat="44.1389433" lon="11.945105"><ele>282.14285714285717</ele><time>2026-04-26T08:15:46.025Z</time></trkpt><trkpt lat="44.1388733" lon="11.945135"><ele>282.42857142857144</ele><time>2026-04-26T08:15:47.025Z</time></trkpt><trkpt lat="44.1388033" lon="11.9451683"><ele>282.7142857142857</ele><time>2026-04-26T08:15:48.024Z</time></trkpt><trkpt lat="44.1387383" lon="11.9452"><ele>283.0</ele><time>2026-04-26T08:15:49.026Z</time></trkpt><trkpt lat="44.13864" lon="11.9452417"><ele>287.16666666666663</ele><time>2026-04-26T08:15:51.027Z</time></trkpt><trkpt lat="44.138565" lon="11.9452817"><ele>291.3333333333333</ele><time>2026-04-26T08:15:53.024Z</time></trkpt><trkpt lat="44.13849" lon="11.9453133"><ele>295.5</ele><time>2026-04-26T08:15:55.027Z</time></trkpt><trkpt lat="44.1384067" lon="11.94535"><ele>299.6666666666667</ele><time>2026-04-26T08:15:57.026Z</time></trkpt><trkpt lat="44.1383283" lon="11.9453767"><ele>303.83333333333337</ele><time>2026-04-26T08:15:59.023Z</time></trkpt><trkpt lat="44.1382583" lon="11.9453733"><ele>308.0</ele><time>2026-04-26T08:16:01.028Z</time></trkpt><trkpt lat="44.1381833" lon="11.9453933"><ele>311.0</ele><time>2026-04-26T08:16:04.025Z</time></trkpt><trkpt lat="44.138115" lon="11.9453917"><ele>314.0</ele><time>2026-04-26T08:16:06.027Z</time></trkpt><trkpt lat="44.1380167" lon="11.9453967"><ele>317.0</ele><time>2026-04-26T08:16:08.027Z</time></trkpt><trkpt lat="44.1379017" lon="11.9453983"><ele>320.0</ele><time>2026-04-26T08:16:10.026Z</time></trkpt><trkpt lat="44.1378383" lon="11.9454"><ele>323.0</ele><time>2026-04-26T08:16:11.024Z</time></trkpt><trkpt lat="44.1377733" lon="11.9454067"><ele>326.0</ele><time>2026-04-26T08:16:12.026Z</time></trkpt><trkpt lat="44.1377067" lon="11.9454167"><ele>326.0</ele><time>2026-04-26T08:16:13.026Z</time></trkpt><trkpt lat="44.13764" lon="11.9454333"><ele>326.0</ele><time>2026-04-26T08:16:14.022Z</time></trkpt><trkpt lat="44.1375717" lon="11.9454583"><ele>326.0</ele><time>2026-04-26T08:16:15.023Z</time></trkpt><trkpt lat="44.1375017" lon="11.94549"><ele>326.0</ele><time>2026-04-26T08:16:16.023Z</time></trkpt><trkpt lat="44.1374433" lon="11.9455267"><ele>326.0</ele><time>2026-04-26T08:16:17.022Z</time></trkpt><trkpt lat="44.1373933" lon="11.94558"><ele>326.0</ele><time>2026-04-26T08:16:18.024Z</time></trkpt><trkpt lat="44.1373567" lon="11.9456617"><ele>326.0</ele><time>2026-04-26T08:16:19.026Z</time></trkpt><trkpt lat="44.1373267" lon="11.9457533"><ele>328.83333333333337</ele><time>2026-04-26T08:16:20.025Z</time></trkpt><trkpt lat="44.1373" lon="11.9458417"><ele>331.6666666666667</ele><time>2026-04-26T08:16:21.022Z</time></trkpt><trkpt lat="44.137265" lon="11.945925"><ele>334.5</ele><time>2026-04-26T08:16:22.023Z</time></trkpt><trkpt lat="44.1372167" lon="11.9460117"><ele>337.3333333333333</ele><time>2026-04-26T08:16:23.025Z</time></trkpt><trkpt lat="44.1371617" lon="11.946105"><ele>340.16666666666663</ele><time>2026-04-26T08:16:24.023Z</time></trkpt><trkpt lat="44.13711" lon="11.94622"><ele>343.0</ele><time>2026-04-26T08:16:25.024Z</time></trkpt><trkpt lat="44.137075" lon="11.94635"><ele>343.0</ele><time>2026-04-26T08:16:26.025Z</time></trkpt><trkpt lat="44.1370433" lon="11.9464783"><ele>343.0</ele><time>2026-04-26T08:16:27.023Z</time></trkpt><trkpt lat="44.1370133" lon="11.94661"><ele>343.0</ele><time>2026-04-26T08:16:28.027Z</time></trkpt><trkpt lat="44.1369767" lon="11.946735"><ele>343.0</ele><time>2026-04-26T08:16:29.022Z</time></trkpt><trkpt lat="44.13693" lon="11.9468583"><ele>343.0</ele><time>2026-04-26T08:16:30.022Z</time></trkpt><trkpt lat="44.1368783" lon="11.9469683"><ele>341.3333333333333</ele><time>2026-04-26T08:16:31.025Z</time></trkpt><trkpt lat="44.1368233" lon="11.9470617"><ele>339.66666666666663</ele><time>2026-04-26T08:16:32.023Z</time></trkpt><trkpt lat="44.1367617" lon="11.947135"><ele>338.0</ele><time>2026-04-26T08:16:33.026Z</time></trkpt><trkpt lat="44.1366883" lon="11.9472"><ele>336.3333333333333</ele><time>2026-04-26T08:16:34.024Z</time></trkpt><trkpt lat="44.1366017" lon="11.9472317"><ele>334.6666666666667</ele><time>2026-04-26T08:16:35.024Z</time></trkpt><trkpt lat="44.1365067" lon="11.9472367"><ele>333.0</ele><time>2026-04-26T08:16:36.023Z</time></trkpt><trkpt lat="44.1364067" lon="11.947225"><ele>337.59999999999997</ele><time>2026-04-26T08:16:37.024Z</time></trkpt><trkpt lat="44.136305" lon="11.9472117"><ele>342.2</ele><time>2026-04-26T08:16:38.026Z</time></trkpt><trkpt lat="44.136205" lon="11.9471967"><ele>346.8</ele><time>2026-04-26T08:16:39.023Z</time></trkpt><trkpt lat="44.136115" lon="11.9472017"><ele>351.4</ele><time>2026-04-26T08:16:40.022Z</time></trkpt><trkpt lat="44.1360317" lon="11.9472183"><ele>356.0</ele><time>2026-04-26T08:16:41.023Z</time></trkpt><trkpt lat="44.13595" lon="11.94726"><ele>356.0</ele><time>2026-04-26T08:16:42.023Z</time></trkpt><trkpt lat="44.13588" lon="11.9473317"><ele>356.0</ele><time>2026-04-26T08:16:43.024Z</time></trkpt><trkpt lat="44.13583" lon="11.9474233"><ele>356.0</ele><time>2026-04-26T08:16:44.024Z</time></trkpt><trkpt lat="44.135815" lon="11.9475367"><ele>356.0</ele><time>2026-04-26T08:16:45.024Z</time></trkpt><trkpt lat="44.1358117" lon="11.9476633"><ele>356.0</ele><time>2026-04-26T08:16:46.024Z</time></trkpt><trkpt lat="44.1358183" lon="11.94781"><ele>356.0</ele><time>2026-04-26T08:16:47.023Z</time></trkpt><trkpt lat="44.13585" lon="11.9479667"><ele>355.5</ele><time>2026-04-26T08:16:48.023Z</time></trkpt><trkpt lat="44.1358733" lon="11.948105"><ele>355.0</ele><time>2026-04-26T08:16:49.026Z</time></trkpt><trkpt lat="44.1358883" lon="11.94823"><ele>354.5</ele><time>2026-04-26T08:16:50.024Z</time></trkpt><trkpt lat="44.135905" lon="11.9483283"><ele>354.0</ele><time>2026-04-26T08:16:51.029Z</time></trkpt><trkpt lat="44.1359" lon="11.948435"><ele>353.5</ele><time>2026-04-26T08:16:52.024Z</time></trkpt><trkpt lat="44.1358267" lon="11.94852"><ele>353.0</ele><time>2026-04-26T08:16:54.021Z</time></trkpt><trkpt lat="44.1357317" lon="11.9484917"><ele>351.4</ele><time>2026-04-26T08:16:56.023Z</time></trkpt><trkpt lat="44.1356483" lon="11.948375"><ele>349.79999999999995</ele><time>2026-04-26T08:16:58.024Z</time></trkpt><trkpt lat="44.1356067" lon="11.948285"><ele>348.2</ele><time>2026-04-26T08:16:59.023Z</time></trkpt><trkpt lat="44.13556" lon="11.9481883"><ele>346.6</ele><time>2026-04-26T08:17:00.026Z</time></trkpt><trkpt lat="44.1355083" lon="11.9480817"><ele>345.0</ele><time>2026-04-26T08:17:01.025Z</time></trkpt><trkpt lat="44.1354533" lon="11.9479733"><ele>345.0</ele><time>2026-04-26T08:17:02.023Z</time></trkpt><trkpt lat="44.1353933" lon="11.94786"><ele>345.0</ele><time>2026-04-26T08:17:03.022Z</time></trkpt><trkpt lat="44.1353283" lon="11.9477533"><ele>345.0</ele><time>2026-04-26T08:17:04.022Z</time></trkpt><trkpt lat="44.135255" lon="11.94764"><ele>345.0</ele><time>2026-04-26T08:17:05.024Z</time></trkpt><trkpt lat="44.135175" lon="11.947525"><ele>345.0</ele><time>2026-04-26T08:17:06.023Z</time></trkpt><trkpt lat="44.13509" lon="11.9474133"><ele>346.75</ele><time>2026-04-26T08:17:07.024Z</time></trkpt><trkpt lat="44.1349967" lon="11.947305"><ele>348.5</ele><time>2026-04-26T08:17:08.024Z</time></trkpt><trkpt lat="44.1348967" lon="11.9471933"><ele>350.25</ele><time>2026-04-26T08:17:09.023Z</time></trkpt><trkpt lat="44.1347883" lon="11.9470683"><ele>352.0</ele><time>2026-04-26T08:17:10.025Z</time></trkpt><trkpt lat="44.1346667" lon="11.946925"><ele>352.0</ele><time>2026-04-26T08:17:11.023Z</time></trkpt><trkpt lat="44.134545" lon="11.9467783"><ele>352.0</ele><time>2026-04-26T08:17:12.021Z</time></trkpt><trkpt lat="44.1344333" lon="11.9466467"><ele>352.0</ele><time>2026-04-26T08:17:13.027Z</time></trkpt><trkpt lat="44.13433" lon="11.9465367"><ele>352.0</ele><time>2026-04-26T08:17:14.024Z</time></trkpt><trkpt lat="44.1342367" lon="11.9464483"><ele>355.40000000000003</ele><time>2026-04-26T08:17:15.029Z</time></trkpt><trkpt lat="44.1341517" lon="11.94637"><ele>358.8</ele><time>2026-04-26T08:17:16.023Z</time></trkpt><trkpt lat="44.1340633" lon="11.9463083"><ele>362.2</ele><time>2026-04-26T08:17:17.025Z</time></trkpt><trkpt lat="44.133965" lon="11.946255"><ele>365.6</ele><time>2026-04-26T08:17:18.026Z</time></trkpt><trkpt lat="44.1338533" lon="11.9462117"><ele>369.0</ele><time>2026-04-26T08:17:19.026Z</time></trkpt><trkpt lat="44.133735" lon="11.9461783"><ele>369.0</ele><time>2026-04-26T08:17:20.021Z</time></trkpt><trkpt lat="44.1336133" lon="11.94616"><ele>369.0</ele><time>2026-04-26T08:17:21.023Z</time></trkpt><trkpt lat="44.1334883" lon="11.9461617"><ele>369.0</ele><time>2026-04-26T08:17:22.023Z</time></trkpt><trkpt lat="44.133365" lon="11.94618"><ele>369.0</ele><time>2026-04-26T08:17:23.023Z</time></trkpt><trkpt lat="44.1332433" lon="11.9462083"><ele>367.75</ele><time>2026-04-26T08:17:24.024Z</time></trkpt><trkpt lat="44.13312" lon="11.9462517"><ele>366.5</ele><time>2026-04-26T08:17:25.023Z</time></trkpt><trkpt lat="44.1329983" lon="11.9463067"><ele>365.25</ele><time>2026-04-26T08:17:26.022Z</time></trkpt><trkpt lat="44.1328733" lon="11.946365"><ele>364.0</ele><time>2026-04-26T08:17:27.025Z</time></trkpt><trkpt lat="44.13275" lon="11.9464133"><ele>364.0</ele><time>2026-04-26T08:17:28.022Z</time></trkpt><trkpt lat="44.1326317" lon="11.9464417"><ele>364.0</ele><time>2026-04-26T08:17:29.022Z</time></trkpt><trkpt lat="44.13251" lon="11.9464433"><ele>364.0</ele><time>2026-04-26T08:17:30.023Z</time></trkpt><trkpt lat="44.1323833" lon="11.946415"><ele>364.0</ele><time>2026-04-26T08:17:31.026Z</time></trkpt><trkpt lat="44.1322517" lon="11.9463717"><ele>363.5</ele><time>2026-04-26T08:17:32.024Z</time></trkpt><trkpt lat="44.132115" lon="11.946325"><ele>363.0</ele><time>2026-04-26T08:17:33.024Z</time></trkpt><trkpt lat="44.131975" lon="11.946275"><ele>362.5</ele><time>2026-04-26T08:17:34.024Z</time></trkpt><trkpt lat="44.1318267" lon="11.946225"><ele>362.0</ele><time>2026-04-26T08:17:35.022Z</time></trkpt><trkpt lat="44.1316683" lon="11.94617"><ele>362.33333333333337</ele><time>2026-04-26T08:17:36.025Z</time></trkpt><trkpt lat="44.1315" lon="11.94611"><ele>362.6666666666667</ele><time>2026-04-26T08:17:37.024Z</time></trkpt><trkpt lat="44.1313383" lon="11.9460517"><ele>363.0</ele><time>2026-04-26T08:17:38.026Z</time></trkpt><trkpt lat="44.13119" lon="11.945995"><ele>363.0</ele><time>2026-04-26T08:17:39.022Z</time></trkpt><trkpt lat="44.1310517" lon="11.9459317"><ele>363.0</ele><time>2026-04-26T08:17:40.026Z</time></trkpt><trkpt lat="44.1309217" lon="11.9458617"><ele>363.0</ele><time>2026-04-26T08:17:41.025Z</time></trkpt><trkpt lat="44.1308017" lon="11.9457867"><ele>363.0</ele><time>2026-04-26T08:17:42.025Z</time></trkpt><trkpt lat="44.1306917" lon="11.9457017"><ele>364.79999999999995</ele><time>2026-04-26T08:17:43.025Z</time></trkpt><trkpt lat="44.130595" lon="11.9456183"><ele>366.6</ele><time>2026-04-26T08:17:44.027Z</time></trkpt><trkpt lat="44.130505" lon="11.94554"><ele>368.4</ele><time>2026-04-26T08:17:45.026Z</time></trkpt><trkpt lat="44.130435" lon="11.945495"><ele>370.20000000000005</ele><time>2026-04-26T08:17:46.026Z</time></trkpt><trkpt lat="44.1303567" lon="11.9454767"><ele>372.0</ele><time>2026-04-26T08:17:47.024Z</time></trkpt><trkpt lat="44.1302767" lon="11.945485"><ele>372.0</ele><time>2026-04-26T08:17:48.022Z</time></trkpt><trkpt lat="44.1302" lon="11.9455233"><ele>372.0</ele><time>2026-04-26T08:17:49.025Z</time></trkpt><trkpt lat="44.1301217" lon="11.945585"><ele>372.0</ele><time>2026-04-26T08:17:50.025Z</time></trkpt><trkpt lat="44.13006" lon="11.9456783"><ele>372.0</ele><time>2026-04-26T08:17:51.025Z</time></trkpt><trkpt lat="44.130005" lon="11.9457917"><ele>372.0</ele><time>2026-04-26T08:17:52.026Z</time></trkpt><trkpt lat="44.1299617" lon="11.9459083"><ele>370.20000000000005</ele><time>2026-04-26T08:17:53.024Z</time></trkpt><trkpt lat="44.1299183" lon="11.94603"><ele>368.4</ele><time>2026-04-26T08:17:54.025Z</time></trkpt><trkpt lat="44.1298633" lon="11.9461367"><ele>366.6</ele><time>2026-04-26T08:17:55.024Z</time></trkpt><trkpt lat="44.12979" lon="11.946225"><ele>364.79999999999995</ele><time>2026-04-26T08:17:56.023Z</time></trkpt><trkpt lat="44.129705" lon="11.9463033"><ele>363.0</ele><time>2026-04-26T08:17:57.022Z</time></trkpt><trkpt lat="44.1296033" lon="11.9463717"><ele>362.75</ele><time>2026-04-26T08:17:58.023Z</time></trkpt><trkpt lat="44.129485" lon="11.946445"><ele>362.5</ele><time>2026-04-26T08:17:59.022Z</time></trkpt><trkpt lat="44.12936" lon="11.9465317"><ele>362.25</ele><time>2026-04-26T08:18:00.028Z</time></trkpt><trkpt lat="44.1292217" lon="11.9466283"><ele>362.0</ele><time>2026-04-26T08:18:01.025Z</time></trkpt><trkpt lat="44.1290783" lon="11.9467333"><ele>364.0</ele><time>2026-04-26T08:18:02.029Z</time></trkpt><trkpt lat="44.1289283" lon="11.9468383"><ele>366.0</ele><time>2026-04-26T08:18:03.023Z</time></trkpt><trkpt lat="44.1287717" lon="11.9469483"><ele>368.0</ele><time>2026-04-26T08:18:04.021Z</time></trkpt><trkpt lat="44.1286117" lon="11.94707"><ele>368.0</ele><time>2026-04-26T08:18:05.022Z</time></trkpt><trkpt lat="44.1284617" lon="11.9471967"><ele>368.0</ele><time>2026-04-26T08:18:06.027Z</time></trkpt><trkpt lat="44.1283317" lon="11.94732"><ele>368.0</ele><time>2026-04-26T08:18:07.023Z</time></trkpt><trkpt lat="44.128215" lon="11.9474383"><ele>370.2</ele><time>2026-04-26T08:18:08.022Z</time></trkpt><trkpt lat="44.1281133" lon="11.947545"><ele>372.4</ele><time>2026-04-26T08:18:09.022Z</time></trkpt><trkpt lat="44.1280283" lon="11.94764"><ele>374.59999999999997</ele><time>2026-04-26T08:18:10.022Z</time></trkpt><trkpt lat="44.127965" lon="11.9477083"><ele>376.79999999999995</ele><time>2026-04-26T08:18:11.022Z</time></trkpt><trkpt lat="44.1279167" lon="11.94777"><ele>379.0</ele><time>2026-04-26T08:18:12.023Z</time></trkpt><trkpt lat="44.1278567" lon="11.9479167"><ele>379.0</ele><time>2026-04-26T08:18:14.023Z</time></trkpt><trkpt lat="44.12783" lon="11.9480267"><ele>379.0</ele><time>2026-04-26T08:18:15.024Z</time></trkpt><trkpt lat="44.1278083" lon="11.9481717"><ele>379.0</ele><time>2026-04-26T08:18:16.026Z</time></trkpt><trkpt lat="44.1277967" lon="11.948355"><ele>379.0</ele><time>2026-04-26T08:18:17.024Z</time></trkpt><trkpt lat="44.127805" lon="11.948545"><ele>381.66666666666663</ele><time>2026-04-26T08:18:18.023Z</time></trkpt><trkpt lat="44.1278417" lon="11.9487467"><ele>384.3333333333333</ele><time>2026-04-26T08:18:19.024Z</time></trkpt><trkpt lat="44.127895" lon="11.9489483"><ele>387.0</ele><time>2026-04-26T08:18:20.024Z</time></trkpt><trkpt lat="44.1279583" lon="11.94915"><ele>385.5</ele><time>2026-04-26T08:18:21.027Z</time></trkpt><trkpt lat="44.1280183" lon="11.949345"><ele>384.0</ele><time>2026-04-26T08:18:22.023Z</time></trkpt><trkpt lat="44.1280683" lon="11.9495367"><ele>382.5</ele><time>2026-04-26T08:18:23.022Z</time></trkpt><trkpt lat="44.1281183" lon="11.94973"><ele>381.0</ele><time>2026-04-26T08:18:24.022Z</time></trkpt><trkpt lat="44.1281767" lon="11.949895"><ele>376.4</ele><time>2026-04-26T08:18:25.024Z</time></trkpt><trkpt lat="44.1282317" lon="11.95003"><ele>371.8</ele><time>2026-04-26T08:18:26.021Z</time></trkpt><trkpt lat="44.1282617" lon="11.9501517"><ele>367.2</ele><time>2026-04-26T08:18:27.023Z</time></trkpt><trkpt lat="44.128275" lon="11.95027"><ele>362.59999999999997</ele><time>2026-04-26T08:18:28.028Z</time></trkpt><trkpt lat="44.1282633" lon="11.95039"><ele>358.0</ele><time>2026-04-26T08:18:29.026Z</time></trkpt><trkpt lat="44.128235" lon="11.9504917"><ele>358.5</ele><time>2026-04-26T08:18:30.025Z</time></trkpt><trkpt lat="44.12821" lon="11.9505817"><ele>359.0</ele><time>2026-04-26T08:18:31.023Z</time></trkpt><trkpt lat="44.1282233" lon="11.950725"><ele>359.5</ele><time>2026-04-26T08:18:33.023Z</time></trkpt><trkpt lat="44.128325" lon="11.950705"><ele>360.0</ele><time>2026-04-26T08:18:35.025Z</time></trkpt><trkpt lat="44.1283983" lon="11.950645"><ele>360.5</ele><time>2026-04-26T08:18:36.026Z</time></trkpt><trkpt lat="44.1284683" lon="11.9505917"><ele>361.0</ele><time>2026-04-26T08:18:37.024Z</time></trkpt><trkpt lat="44.1285433" lon="11.950555"><ele>360.0</ele><time>2026-04-26T08:18:38.024Z</time></trkpt><trkpt lat="44.1286317" lon="11.950565"><ele>359.0</ele><time>2026-04-26T08:18:39.023Z</time></trkpt><trkpt lat="44.12872" lon="11.9506017"><ele>358.0</ele><time>2026-04-26T08:18:40.026Z</time></trkpt><trkpt lat="44.1287617" lon="11.9506683"><ele>357.0</ele><time>2026-04-26T08:18:41.021Z</time></trkpt><trkpt lat="44.1287983" lon="11.950775"><ele>356.0</ele><time>2026-04-26T08:18:43.024Z</time></trkpt><trkpt lat="44.1288183" lon="11.9509017"><ele>355.0</ele><time>2026-04-26T08:18:59.023Z</time></trkpt><trkpt lat="44.1288717" lon="11.95109"><ele>351.0</ele><time>2026-04-26T08:19:01.022Z</time></trkpt><trkpt lat="44.128915" lon="11.9512383"><ele>347.0</ele><time>2026-04-26T08:19:02.021Z</time></trkpt><trkpt lat="44.1289717" lon="11.9513833"><ele>343.0</ele><time>2026-04-26T08:19:03.023Z</time></trkpt><trkpt lat="44.12905" lon="11.9515267"><ele>339.0</ele><time>2026-04-26T08:19:04.025Z</time></trkpt><trkpt lat="44.1291517" lon="11.9516633"><ele>335.5</ele><time>2026-04-26T08:19:05.026Z</time></trkpt><trkpt lat="44.1292617" lon="11.951785"><ele>332.0</ele><time>2026-04-26T08:19:06.024Z</time></trkpt><trkpt lat="44.1293617" lon="11.9519117"><ele>328.5</ele><time>2026-04-26T08:19:07.027Z</time></trkpt><trkpt lat="44.12945" lon="11.9520567"><ele>325.0</ele><time>2026-04-26T08:19:08.023Z</time></trkpt><trkpt lat="44.1295167" lon="11.952215"><ele>325.0</ele><time>2026-04-26T08:19:09.024Z</time></trkpt><trkpt lat="44.12956" lon="11.95238"><ele>325.0</ele><time>2026-04-26T08:19:10.024Z</time></trkpt><trkpt lat="44.1295917" lon="11.9525333"><ele>325.0</ele><time>2026-04-26T08:19:11.023Z</time></trkpt><trkpt lat="44.1296233" lon="11.9526733"><ele>325.0</ele><time>2026-04-26T08:19:12.022Z</time></trkpt><trkpt lat="44.1296633" lon="11.9528"><ele>325.0</ele><time>2026-04-26T08:19:13.024Z</time></trkpt><trkpt lat="44.1297217" lon="11.9529083"><ele>326.25</ele><time>2026-04-26T08:19:14.023Z</time></trkpt><trkpt lat="44.1297917" lon="11.9530133"><ele>327.5</ele><time>2026-04-26T08:19:15.026Z</time></trkpt><trkpt lat="44.1298867" lon="11.9531083"><ele>328.75</ele><time>2026-04-26T08:19:16.024Z</time></trkpt><trkpt lat="44.1299983" lon="11.9532"><ele>330.0</ele><time>2026-04-26T08:19:17.023Z</time></trkpt><trkpt lat="44.1301217" lon="11.9532967"><ele>327.0</ele><time>2026-04-26T08:19:18.025Z</time></trkpt><trkpt lat="44.1302567" lon="11.9533933"><ele>324.0</ele><time>2026-04-26T08:19:19.024Z</time></trkpt><trkpt lat="44.1303967" lon="11.9534933"><ele>321.0</ele><time>2026-04-26T08:19:20.023Z</time></trkpt><trkpt lat="44.1305317" lon="11.9535933"><ele>321.0</ele><time>2026-04-26T08:19:21.026Z</time></trkpt><trkpt lat="44.13066" lon="11.9536917"><ele>321.0</ele><time>2026-04-26T08:19:22.026Z</time></trkpt><trkpt lat="44.1307817" lon="11.953795"><ele>321.0</ele><time>2026-04-26T08:19:23.025Z</time></trkpt><trkpt lat="44.1308917" lon="11.9539083"><ele>321.0</ele><time>2026-04-26T08:19:24.024Z</time></trkpt><trkpt lat="44.13099" lon="11.9540267"><ele>322.75</ele><time>2026-04-26T08:19:25.025Z</time></trkpt><trkpt lat="44.1310733" lon="11.954165"><ele>324.5</ele><time>2026-04-26T08:19:26.025Z</time></trkpt><trkpt lat="44.1311517" lon="11.9543217"><ele>326.25</ele><time>2026-04-26T08:19:27.024Z</time></trkpt><trkpt lat="44.1312233" lon="11.9545"><ele>328.0</ele><time>2026-04-26T08:19:28.025Z</time></trkpt><trkpt lat="44.1312917" lon="11.9546817"><ele>328.0</ele><time>2026-04-26T08:19:29.025Z</time></trkpt><trkpt lat="44.13136" lon="11.9548583"><ele>328.0</ele><time>2026-04-26T08:19:30.025Z</time></trkpt><trkpt lat="44.1314283" lon="11.95503"><ele>328.0</ele><time>2026-04-26T08:19:31.026Z</time></trkpt><trkpt lat="44.1315017" lon="11.9551917"><ele>328.0</ele><time>2026-04-26T08:19:32.025Z</time></trkpt><trkpt lat="44.1315917" lon="11.95535"><ele>324.0</ele><time>2026-04-26T08:19:33.025Z</time></trkpt><trkpt lat="44.1317" lon="11.95551"><ele>320.0</ele><time>2026-04-26T08:19:34.023Z</time></trkpt><trkpt lat="44.1318217" lon="11.9556717"><ele>316.0</ele><time>2026-04-26T08:19:35.024Z</time></trkpt><trkpt lat="44.1319533" lon="11.955835"><ele>310.66666666666663</ele><time>2026-04-26T08:19:36.024Z</time></trkpt><trkpt lat="44.1320833" lon="11.955995"><ele>305.3333333333333</ele><time>2026-04-26T08:19:37.024Z</time></trkpt><trkpt lat="44.1322133" lon="11.9561433"><ele>300.0</ele><time>2026-04-26T08:19:38.026Z</time></trkpt><trkpt lat="44.132345" lon="11.956295"><ele>301.0</ele><time>2026-04-26T08:19:39.027Z</time></trkpt><trkpt lat="44.132465" lon="11.9564483"><ele>302.0</ele><time>2026-04-26T08:19:40.026Z</time></trkpt><trkpt lat="44.1325833" lon="11.95659"><ele>303.0</ele><time>2026-04-26T08:19:41.024Z</time></trkpt><trkpt lat="44.1327183" lon="11.9567283"><ele>298.75</ele><time>2026-04-26T08:19:42.024Z</time></trkpt><trkpt lat="44.13283" lon="11.956875"><ele>294.5</ele><time>2026-04-26T08:19:43.023Z</time></trkpt><trkpt lat="44.1329233" lon="11.9570367"><ele>290.25</ele><time>2026-04-26T08:19:44.024Z</time></trkpt><trkpt lat="44.1329983" lon="11.9572067"><ele>286.0</ele><time>2026-04-26T08:19:45.025Z</time></trkpt><trkpt lat="44.1330583" lon="11.957385"><ele>289.5</ele><time>2026-04-26T08:19:46.026Z</time></trkpt><trkpt lat="44.1331133" lon="11.9575717"><ele>293.0</ele><time>2026-04-26T08:19:47.024Z</time></trkpt><trkpt lat="44.13317" lon="11.9577617"><ele>296.5</ele><time>2026-04-26T08:19:48.024Z</time></trkpt><trkpt lat="44.1332333" lon="11.9579517"><ele>300.0</ele><time>2026-04-26T08:19:49.025Z</time></trkpt><trkpt lat="44.1333083" lon="11.95813"><ele>300.0</ele><time>2026-04-26T08:19:50.024Z</time></trkpt><trkpt lat="44.1333967" lon="11.9583033"><ele>300.0</ele><time>2026-04-26T08:19:51.027Z</time></trkpt><trkpt lat="44.1334983" lon="11.9584633"><ele>300.0</ele><time>2026-04-26T08:19:52.025Z</time></trkpt><trkpt lat="44.1336017" lon="11.9586183"><ele>295.6666666666667</ele><time>2026-04-26T08:19:53.026Z</time></trkpt><trkpt lat="44.1336967" lon="11.9587883"><ele>291.33333333333337</ele><time>2026-04-26T08:19:54.025Z</time></trkpt><trkpt lat="44.1337767" lon="11.9589767"><ele>287.0</ele><time>2026-04-26T08:19:55.026Z</time></trkpt><trkpt lat="44.1338467" lon="11.959165"><ele>288.0</ele><time>2026-04-26T08:19:56.025Z</time></trkpt><trkpt lat="44.133915" lon="11.9593417"><ele>289.0</ele><time>2026-04-26T08:19:57.025Z</time></trkpt><trkpt lat="44.1339967" lon="11.9595067"><ele>290.0</ele><time>2026-04-26T08:19:58.021Z</time></trkpt><trkpt lat="44.1340983" lon="11.9596533"><ele>291.0</ele><time>2026-04-26T08:19:59.025Z</time></trkpt><trkpt lat="44.1342133" lon="11.9597833"><ele>291.0</ele><time>2026-04-26T08:20:00.026Z</time></trkpt><trkpt lat="44.1343333" lon="11.9599117"><ele>291.0</ele><time>2026-04-26T08:20:01.026Z</time></trkpt><trkpt lat="44.1344633" lon="11.9600333"><ele>291.0</ele><time>2026-04-26T08:20:02.024Z</time></trkpt><trkpt lat="44.134605" lon="11.9601533"><ele>289.3333333333333</ele><time>2026-04-26T08:20:03.025Z</time></trkpt><trkpt lat="44.1347517" lon="11.96028"><ele>287.66666666666663</ele><time>2026-04-26T08:20:04.024Z</time></trkpt><trkpt lat="44.134905" lon="11.9604067"><ele>286.0</ele><time>2026-04-26T08:20:05.023Z</time></trkpt><trkpt lat="44.1350567" lon="11.9605317"><ele>293.0</ele><time>2026-04-26T08:20:06.022Z</time></trkpt><trkpt lat="44.1352067" lon="11.96066"><ele>300.0</ele><time>2026-04-26T08:20:07.025Z</time></trkpt><trkpt lat="44.135355" lon="11.9607767"><ele>307.0</ele><time>2026-04-26T08:20:08.028Z</time></trkpt><trkpt lat="44.1355" lon="11.9609"><ele>309.0</ele><time>2026-04-26T08:20:09.022Z</time></trkpt><trkpt lat="44.1356367" lon="11.9610183"><ele>311.0</ele><time>2026-04-26T08:20:10.023Z</time></trkpt><trkpt lat="44.1357767" lon="11.9611233"><ele>313.0</ele><time>2026-04-26T08:20:11.024Z</time></trkpt><trkpt lat="44.1359133" lon="11.961215"><ele>315.25</ele><time>2026-04-26T08:20:12.023Z</time></trkpt><trkpt lat="44.136045" lon="11.961295"><ele>317.5</ele><time>2026-04-26T08:20:13.024Z</time></trkpt><trkpt lat="44.1361667" lon="11.9613717"><ele>319.75</ele><time>2026-04-26T08:20:14.028Z</time></trkpt><trkpt lat="44.1362717" lon="11.9614533"><ele>322.0</ele><time>2026-04-26T08:20:15.025Z</time></trkpt><trkpt lat="44.1363583" lon="11.9615417"><ele>322.0</ele><time>2026-04-26T08:20:16.024Z</time></trkpt><trkpt lat="44.1364233" lon="11.9616383"><ele>322.0</ele><time>2026-04-26T08:20:17.025Z</time></trkpt><trkpt lat="44.13646" lon="11.961755"><ele>322.0</ele><time>2026-04-26T08:20:18.024Z</time></trkpt><trkpt lat="44.1365" lon="11.9618933"><ele>322.0</ele><time>2026-04-26T08:20:19.026Z</time></trkpt><trkpt lat="44.1365417" lon="11.9620617"><ele>322.0</ele><time>2026-04-26T08:20:20.024Z</time></trkpt><trkpt lat="44.1365883" lon="11.9622517"><ele>320.0</ele><time>2026-04-26T08:20:21.026Z</time></trkpt><trkpt lat="44.1366333" lon="11.9624517"><ele>318.0</ele><time>2026-04-26T08:20:22.024Z</time></trkpt><trkpt lat="44.1366817" lon="11.96265"><ele>316.0</ele><time>2026-04-26T08:20:23.025Z</time></trkpt><trkpt lat="44.1367417" lon="11.962845"><ele>315.0</ele><time>2026-04-26T08:20:24.025Z</time></trkpt><trkpt lat="44.1368217" lon="11.9630283"><ele>314.0</ele><time>2026-04-26T08:20:25.024Z</time></trkpt><trkpt lat="44.136915" lon="11.9632067"><ele>313.0</ele><time>2026-04-26T08:20:26.027Z</time></trkpt><trkpt lat="44.1370233" lon="11.963385"><ele>308.0</ele><time>2026-04-26T08:20:27.026Z</time></trkpt><trkpt lat="44.1371367" lon="11.963555"><ele>303.0</ele><time>2026-04-26T08:20:28.027Z</time></trkpt><trkpt lat="44.1372567" lon="11.9637"><ele>298.0</ele><time>2026-04-26T08:20:29.03Z</time></trkpt><trkpt lat="44.1373833" lon="11.9638383"><ele>299.3333333333333</ele><time>2026-04-26T08:20:30.026Z</time></trkpt><trkpt lat="44.1375217" lon="11.96397"><ele>300.6666666666667</ele><time>2026-04-26T08:20:31.028Z</time></trkpt><trkpt lat="44.1376633" lon="11.964105"><ele>302.0</ele><time>2026-04-26T08:20:32.022Z</time></trkpt><trkpt lat="44.1378" lon="11.964245"><ele>301.33333333333337</ele><time>2026-04-26T08:20:33.027Z</time></trkpt><trkpt lat="44.13794" lon="11.9644083"><ele>300.6666666666667</ele><time>2026-04-26T08:20:34.023Z</time></trkpt><trkpt lat="44.1380867" lon="11.96459"><ele>300.0</ele><time>2026-04-26T08:20:35.023Z</time></trkpt><trkpt lat="44.138235" lon="11.9647817"><ele>300.0</ele><time>2026-04-26T08:20:36.028Z</time></trkpt><trkpt lat="44.1383817" lon="11.96497"><ele>300.0</ele><time>2026-04-26T08:20:37.024Z</time></trkpt><trkpt lat="44.1385217" lon="11.9651567"><ele>300.0</ele><time>2026-04-26T08:20:38.026Z</time></trkpt><trkpt lat="44.1386633" lon="11.9653367"><ele>300.6666666666667</ele><time>2026-04-26T08:20:39.025Z</time></trkpt><trkpt lat="44.1388" lon="11.9655167"><ele>301.33333333333337</ele><time>2026-04-26T08:20:40.023Z</time></trkpt><trkpt lat="44.1389317" lon="11.96569"><ele>302.0</ele><time>2026-04-26T08:20:41.027Z</time></trkpt><trkpt lat="44.1390517" lon="11.9658583"><ele>297.6666666666667</ele><time>2026-04-26T08:20:42.024Z</time></trkpt><trkpt lat="44.1391617" lon="11.966035"><ele>293.3333333333333</ele><time>2026-04-26T08:20:43.025Z</time></trkpt><trkpt lat="44.1392983" lon="11.9661833"><ele>289.0</ele><time>2026-04-26T08:20:44.025Z</time></trkpt><trkpt lat="44.139405" lon="11.966385"><ele>289.0</ele><time>2026-04-26T08:20:45.024Z</time></trkpt><trkpt lat="44.13952" lon="11.9665817"><ele>289.0</ele><time>2026-04-26T08:20:46.026Z</time></trkpt><trkpt lat="44.1396333" lon="11.9667733"><ele>289.0</ele><time>2026-04-26T08:20:47.025Z</time></trkpt><trkpt lat="44.13976" lon="11.9669433"><ele>289.3333333333333</ele><time>2026-04-26T08:20:48.025Z</time></trkpt><trkpt lat="44.13988" lon="11.96712"><ele>289.6666666666667</ele><time>2026-04-26T08:20:49.023Z</time></trkpt><trkpt lat="44.1399733" lon="11.967315"><ele>290.0</ele><time>2026-04-26T08:20:50.022Z</time></trkpt><trkpt lat="44.14006" lon="11.9674917"><ele>289.75</ele><time>2026-04-26T08:20:51.023Z</time></trkpt><trkpt lat="44.1401267" lon="11.9676617"><ele>289.5</ele><time>2026-04-26T08:20:52.024Z</time></trkpt><trkpt lat="44.14017" lon="11.9678217"><ele>289.25</ele><time>2026-04-26T08:20:53.023Z</time></trkpt><trkpt lat="44.1401817" lon="11.96799"><ele>289.0</ele><time>2026-04-26T08:20:54.024Z</time></trkpt><trkpt lat="44.1401717" lon="11.96816"><ele>289.0</ele><time>2026-04-26T08:20:55.024Z</time></trkpt><trkpt lat="44.1401633" lon="11.9683367"><ele>289.0</ele><time>2026-04-26T08:20:56.022Z</time></trkpt><trkpt lat="44.1401767" lon="11.9685067"><ele>289.0</ele><time>2026-04-26T08:20:57.027Z</time></trkpt><trkpt lat="44.1402083" lon="11.968675"><ele>289.0</ele><time>2026-04-26T08:20:58.025Z</time></trkpt><trkpt lat="44.14025" lon="11.9688533"><ele>288.0</ele><time>2026-04-26T08:20:59.026Z</time></trkpt><trkpt lat="44.1402883" lon="11.9690383"><ele>287.0</ele><time>2026-04-26T08:21:00.023Z</time></trkpt><trkpt lat="44.1403033" lon="11.9692467"><ele>286.0</ele><time>2026-04-26T08:21:01.023Z</time></trkpt><trkpt lat="44.1402983" lon="11.9694733"><ele>284.66666666666663</ele><time>2026-04-26T08:21:02.025Z</time></trkpt><trkpt lat="44.140285" lon="11.9697"><ele>283.3333333333333</ele><time>2026-04-26T08:21:03.024Z</time></trkpt><trkpt lat="44.1402883" lon="11.9699117"><ele>282.0</ele><time>2026-04-26T08:21:04.021Z</time></trkpt><trkpt lat="44.14031" lon="11.9701083"><ele>280.25</ele><time>2026-04-26T08:21:05.025Z</time></trkpt><trkpt lat="44.1403517" lon="11.970285"><ele>278.5</ele><time>2026-04-26T08:21:06.024Z</time></trkpt><trkpt lat="44.140415" lon="11.9704333"><ele>276.75</ele><time>2026-04-26T08:21:07.024Z</time></trkpt><trkpt lat="44.1405067" lon="11.9705533"><ele>275.0</ele><time>2026-04-26T08:21:08.025Z</time></trkpt><trkpt lat="44.1406183" lon="11.9706567"><ele>274.75</ele><time>2026-04-26T08:21:09.023Z</time></trkpt><trkpt lat="44.1407367" lon="11.9707517"><ele>274.5</ele><time>2026-04-26T08:21:10.023Z</time></trkpt><trkpt lat="44.140845" lon="11.970845"><ele>274.25</ele><time>2026-04-26T08:21:11.025Z</time></trkpt><trkpt lat="44.1409383" lon="11.9709517"><ele>274.0</ele><time>2026-04-26T08:21:12.025Z</time></trkpt><trkpt lat="44.14102" lon="11.9710667"><ele>274.0</ele><time>2026-04-26T08:21:13.022Z</time></trkpt><trkpt lat="44.141085" lon="11.97119"><ele>274.0</ele><time>2026-04-26T08:21:14.025Z</time></trkpt><trkpt lat="44.141145" lon="11.9713117"><ele>274.0</ele><time>2026-04-26T08:21:15.024Z</time></trkpt><trkpt lat="44.1412283" lon="11.9714117"><ele>274.0</ele><time>2026-04-26T08:21:16.024Z</time></trkpt><trkpt lat="44.1413333" lon="11.9714867"><ele>274.0</ele><time>2026-04-26T08:21:17.024Z</time></trkpt><trkpt lat="44.1414617" lon="11.9715283"><ele>276.25</ele><time>2026-04-26T08:21:18.023Z</time></trkpt><trkpt lat="44.1415967" lon="11.9715483"><ele>278.5</ele><time>2026-04-26T08:21:19.025Z</time></trkpt><trkpt lat="44.1417317" lon="11.9715433"><ele>280.75</ele><time>2026-04-26T08:21:20.024Z</time></trkpt><trkpt lat="44.1418583" lon="11.9715233"><ele>283.0</ele><time>2026-04-26T08:21:21.027Z</time></trkpt><trkpt lat="44.14197" lon="11.971475"><ele>283.0</ele><time>2026-04-26T08:21:22.025Z</time></trkpt><trkpt lat="44.1420817" lon="11.9713867"><ele>283.0</ele><time>2026-04-26T08:21:23.024Z</time></trkpt><trkpt lat="44.1422017" lon="11.9712783"><ele>283.0</ele><time>2026-04-26T08:21:24.024Z</time></trkpt><trkpt lat="44.142325" lon="11.971165"><ele>283.0</ele><time>2026-04-26T08:21:25.024Z</time></trkpt><trkpt lat="44.142455" lon="11.971055"><ele>284.66666666666663</ele><time>2026-04-26T08:21:26.024Z</time></trkpt><trkpt lat="44.14259" lon="11.9709233"><ele>286.3333333333333</ele><time>2026-04-26T08:21:27.023Z</time></trkpt><trkpt lat="44.14272" lon="11.9707833"><ele>288.0</ele><time>2026-04-26T08:21:28.027Z</time></trkpt><trkpt lat="44.14284" lon="11.9706333"><ele>288.0</ele><time>2026-04-26T08:21:29.024Z</time></trkpt><trkpt lat="44.1429633" lon="11.970475"><ele>288.0</ele><time>2026-04-26T08:21:30.023Z</time></trkpt><trkpt lat="44.1430833" lon="11.97031"><ele>288.0</ele><time>2026-04-26T08:21:31.025Z</time></trkpt><trkpt lat="44.1431933" lon="11.9701283"><ele>286.3333333333333</ele><time>2026-04-26T08:21:32.023Z</time></trkpt><trkpt lat="44.1433317" lon="11.970015"><ele>284.66666666666663</ele><time>2026-04-26T08:21:33.026Z</time></trkpt><trkpt lat="44.143475" lon="11.9699133"><ele>283.0</ele><time>2026-04-26T08:21:34.025Z</time></trkpt><trkpt lat="44.1436267" lon="11.9698233"><ele>283.0</ele><time>2026-04-26T08:21:35.025Z</time></trkpt><trkpt lat="44.143775" lon="11.9697367"><ele>283.0</ele><time>2026-04-26T08:21:36.025Z</time></trkpt><trkpt lat="44.1439117" lon="11.969655"><ele>283.0</ele><time>2026-04-26T08:21:37.026Z</time></trkpt><trkpt lat="44.1440333" lon="11.96956"><ele>283.0</ele><time>2026-04-26T08:21:38.022Z</time></trkpt><trkpt lat="44.1441367" lon="11.9694483"><ele>281.75</ele><time>2026-04-26T08:21:39.022Z</time></trkpt><trkpt lat="44.1442133" lon="11.9693083"><ele>280.5</ele><time>2026-04-26T08:21:40.021Z</time></trkpt><trkpt lat="44.14428" lon="11.969145"><ele>279.25</ele><time>2026-04-26T08:21:41.025Z</time></trkpt><trkpt lat="44.1443367" lon="11.968955"><ele>278.0</ele><time>2026-04-26T08:21:42.023Z</time></trkpt><trkpt lat="44.1443933" lon="11.9687517"><ele>278.0</ele><time>2026-04-26T08:21:43.023Z</time></trkpt><trkpt lat="44.1444567" lon="11.9685417"><ele>278.0</ele><time>2026-04-26T08:21:44.024Z</time></trkpt><trkpt lat="44.1445133" lon="11.9683383"><ele>278.0</ele><time>2026-04-26T08:21:45.027Z</time></trkpt><trkpt lat="44.14457" lon="11.9681583"><ele>277.6</ele><time>2026-04-26T08:21:46.025Z</time></trkpt><trkpt lat="44.1446233" lon="11.9680183"><ele>277.20000000000005</ele><time>2026-04-26T08:21:47.023Z</time></trkpt><trkpt lat="44.1446917" lon="11.9679183"><ele>276.8</ele><time>2026-04-26T08:21:48.024Z</time></trkpt><trkpt lat="44.14478" lon="11.9678617"><ele>276.40000000000003</ele><time>2026-04-26T08:21:49.025Z</time></trkpt><trkpt lat="44.1448883" lon="11.96784"><ele>276.0</ele><time>2026-04-26T08:21:50.023Z</time></trkpt><trkpt lat="44.1450183" lon="11.967865"><ele>276.0</ele><time>2026-04-26T08:21:51.024Z</time></trkpt><trkpt lat="44.1451617" lon="11.9679167"><ele>276.0</ele><time>2026-04-26T08:21:52.025Z</time></trkpt><trkpt lat="44.1453117" lon="11.96799"><ele>276.0</ele><time>2026-04-26T08:21:53.024Z</time></trkpt><trkpt lat="44.1454617" lon="11.968095"><ele>276.0</ele><time>2026-04-26T08:21:54.026Z</time></trkpt><trkpt lat="44.14561" lon="11.9682183"><ele>276.0</ele><time>2026-04-26T08:21:55.025Z</time></trkpt><trkpt lat="44.1457583" lon="11.9683417"><ele>276.0</ele><time>2026-04-26T08:21:56.023Z</time></trkpt><trkpt lat="44.1458917" lon="11.968455"><ele>276.5</ele><time>2026-04-26T08:21:57.023Z</time></trkpt><trkpt lat="44.1460067" lon="11.9685417"><ele>277.0</ele><time>2026-04-26T08:21:58.025Z</time></trkpt><trkpt lat="44.14612" lon="11.9685933"><ele>277.5</ele><time>2026-04-26T08:21:59.026Z</time></trkpt><trkpt lat="44.14623" lon="11.9685917"><ele>278.0</ele><time>2026-04-26T08:22:00.022Z</time></trkpt><trkpt lat="44.146335" lon="11.9685317"><ele>278.0</ele><time>2026-04-26T08:22:01.022Z</time></trkpt><trkpt lat="44.1464417" lon="11.968425"><ele>278.0</ele><time>2026-04-26T08:22:02.025Z</time></trkpt><trkpt lat="44.1465533" lon="11.9683"><ele>278.0</ele><time>2026-04-26T08:22:03.026Z</time></trkpt><trkpt lat="44.14667" lon="11.9681733"><ele>278.0</ele><time>2026-04-26T08:22:04.025Z</time></trkpt><trkpt lat="44.146795" lon="11.9680567"><ele>273.75</ele><time>2026-04-26T08:22:05.026Z</time></trkpt><trkpt lat="44.1469233" lon="11.9679467"><ele>269.5</ele><time>2026-04-26T08:22:06.025Z</time></trkpt><trkpt lat="44.1470467" lon="11.9678533"><ele>265.25</ele><time>2026-04-26T08:22:07.025Z</time></trkpt><trkpt lat="44.147165" lon="11.9677767"><ele>261.0</ele><time>2026-04-26T08:22:08.025Z</time></trkpt><trkpt lat="44.1472817" lon="11.9677267"><ele>262.0</ele><time>2026-04-26T08:22:09.026Z</time></trkpt><trkpt lat="44.1474" lon="11.967705"><ele>263.0</ele><time>2026-04-26T08:22:10.025Z</time></trkpt><trkpt lat="44.14753" lon="11.96771"><ele>264.0</ele><time>2026-04-26T08:22:11.026Z</time></trkpt><trkpt lat="44.147675" lon="11.9677083"><ele>265.0</ele><time>2026-04-26T08:22:12.026Z</time></trkpt><trkpt lat="44.14784" lon="11.9676817"><ele>265.0</ele><time>2026-04-26T08:22:13.026Z</time></trkpt><trkpt lat="44.1479967" lon="11.9676283"><ele>265.0</ele><time>2026-04-26T08:22:14.027Z</time></trkpt><trkpt lat="44.1481417" lon="11.9675817"><ele>265.0</ele><time>2026-04-26T08:22:15.024Z</time></trkpt><trkpt lat="44.1482633" lon="11.967565"><ele>265.0</ele><time>2026-04-26T08:22:16.023Z</time></trkpt><trkpt lat="44.1483717" lon="11.9675867"><ele>262.75</ele><time>2026-04-26T08:22:17.022Z</time></trkpt><trkpt lat="44.1484617" lon="11.9676633"><ele>260.5</ele><time>2026-04-26T08:22:18.023Z</time></trkpt><trkpt lat="44.1485467" lon="11.9677883"><ele>258.25</ele><time>2026-04-26T08:22:19.025Z</time></trkpt><trkpt lat="44.14863" lon="11.9679317"><ele>256.0</ele><time>2026-04-26T08:22:20.023Z</time></trkpt><trkpt lat="44.1487033" lon="11.9680833"><ele>256.0</ele><time>2026-04-26T08:22:21.024Z</time></trkpt><trkpt lat="44.14877" lon="11.96823"><ele>256.0</ele><time>2026-04-26T08:22:22.022Z</time></trkpt><trkpt lat="44.148835" lon="11.9683733"><ele>256.0</ele><time>2026-04-26T08:22:23.022Z</time></trkpt><trkpt lat="44.1488433" lon="11.968535"><ele>256.0</ele><time>2026-04-26T08:22:24.023Z</time></trkpt><trkpt lat="44.1488233" lon="11.9687"><ele>255.0</ele><time>2026-04-26T08:22:25.026Z</time></trkpt><trkpt lat="44.1487617" lon="11.9688867"><ele>254.0</ele><time>2026-04-26T08:22:26.023Z</time></trkpt><trkpt lat="44.148765" lon="11.9690867"><ele>253.0</ele><time>2026-04-26T08:22:27.024Z</time></trkpt><trkpt lat="44.1487383" lon="11.9692883"><ele>252.0</ele><time>2026-04-26T08:22:28.023Z</time></trkpt><trkpt lat="44.148715" lon="11.9694867"><ele>251.0</ele><time>2026-04-26T08:22:29.024Z</time></trkpt><trkpt lat="44.148695" lon="11.9696833"><ele>250.0</ele><time>2026-04-26T08:22:30.025Z</time></trkpt><trkpt lat="44.148645" lon="11.9698867"><ele>249.0</ele><time>2026-04-26T08:22:31.021Z</time></trkpt><trkpt lat="44.1486517" lon="11.97008"><ele>248.0</ele><time>2026-04-26T08:22:32.026Z</time></trkpt><trkpt lat="44.14871" lon="11.970275"><ele>247.75</ele><time>2026-04-26T08:22:33.023Z</time></trkpt><trkpt lat="44.1487317" lon="11.9704683"><ele>247.5</ele><time>2026-04-26T08:22:34.022Z</time></trkpt><trkpt lat="44.1487617" lon="11.9706667"><ele>247.25</ele><time>2026-04-26T08:22:35.025Z</time></trkpt><trkpt lat="44.1488267" lon="11.9707917"><ele>247.0</ele><time>2026-04-26T08:22:36.024Z</time></trkpt><trkpt lat="44.1488967" lon="11.9709133"><ele>245.25</ele><time>2026-04-26T08:22:37.027Z</time></trkpt><trkpt lat="44.1489883" lon="11.97104"><ele>243.5</ele><time>2026-04-26T08:22:38.023Z</time></trkpt><trkpt lat="44.1491117" lon="11.971145"><ele>241.75</ele><time>2026-04-26T08:22:39.026Z</time></trkpt><trkpt lat="44.149265" lon="11.9711883"><ele>240.0</ele><time>2026-04-26T08:22:40.021Z</time></trkpt><trkpt lat="44.1494117" lon="11.971285"><ele>236.66666666666669</ele><time>2026-04-26T08:22:41.024Z</time></trkpt><trkpt lat="44.1495667" lon="11.9713567"><ele>233.33333333333334</ele><time>2026-04-26T08:22:42.023Z</time></trkpt><trkpt lat="44.1497133" lon="11.9714217"><ele>230.0</ele><time>2026-04-26T08:22:43.022Z</time></trkpt><trkpt lat="44.1498583" lon="11.9714667"><ele>228.66666666666669</ele><time>2026-04-26T08:22:44.025Z</time></trkpt><trkpt lat="44.15001" lon="11.9714633"><ele>227.33333333333331</ele><time>2026-04-26T08:22:45.022Z</time></trkpt><trkpt lat="44.150165" lon="11.97143"><ele>226.0</ele><time>2026-04-26T08:22:46.02Z</time></trkpt><trkpt lat="44.1503133" lon="11.971405"><ele>226.0</ele><time>2026-04-26T08:22:47.023Z</time></trkpt><trkpt lat="44.1504533" lon="11.971435"><ele>226.0</ele><time>2026-04-26T08:22:48.023Z</time></trkpt><trkpt lat="44.1505967" lon="11.9714683"><ele>226.0</ele><time>2026-04-26T08:22:49.023Z</time></trkpt><trkpt lat="44.150735" lon="11.9715267"><ele>226.0</ele><time>2026-04-26T08:22:50.023Z</time></trkpt><trkpt lat="44.1508683" lon="11.9716283"><ele>220.66666666666666</ele><time>2026-04-26T08:22:51.027Z</time></trkpt><trkpt lat="44.150995" lon="11.9717683"><ele>215.33333333333331</ele><time>2026-04-26T08:22:52.023Z</time></trkpt><trkpt lat="44.151115" lon="11.9719333"><ele>210.0</ele><time>2026-04-26T08:22:53.024Z</time></trkpt><trkpt lat="44.151235" lon="11.9721083"><ele>210.0</ele><time>2026-04-26T08:22:54.023Z</time></trkpt><trkpt lat="44.1513533" lon="11.9722883"><ele>210.0</ele><time>2026-04-26T08:22:55.022Z</time></trkpt><trkpt lat="44.15147" lon="11.9724733"><ele>210.0</ele><time>2026-04-26T08:22:56.023Z</time></trkpt><trkpt lat="44.15157" lon="11.9726717"><ele>209.0</ele><time>2026-04-26T08:22:57.022Z</time></trkpt><trkpt lat="44.1516633" lon="11.9728717"><ele>208.0</ele><time>2026-04-26T08:22:58.024Z</time></trkpt><trkpt lat="44.1517883" lon="11.972985"><ele>207.0</ele><time>2026-04-26T08:22:59.031Z</time></trkpt><trkpt lat="44.1519133" lon="11.97308"><ele>207.0</ele><time>2026-04-26T08:23:00.025Z</time></trkpt><trkpt lat="44.152035" lon="11.9731667"><ele>207.0</ele><time>2026-04-26T08:23:01.022Z</time></trkpt><trkpt lat="44.1521417" lon="11.9732617"><ele>207.0</ele><time>2026-04-26T08:23:02.022Z</time></trkpt><trkpt lat="44.1522183" lon="11.9733783"><ele>207.0</ele><time>2026-04-26T08:23:03.022Z</time></trkpt><trkpt lat="44.1522583" lon="11.973515"><ele>206.75</ele><time>2026-04-26T08:23:04.022Z</time></trkpt><trkpt lat="44.152285" lon="11.9736583"><ele>206.5</ele><time>2026-04-26T08:23:05.021Z</time></trkpt><trkpt lat="44.1523067" lon="11.9738117"><ele>206.25</ele><time>2026-04-26T08:23:06.023Z</time></trkpt><trkpt lat="44.1523483" lon="11.9739767"><ele>206.0</ele><time>2026-04-26T08:23:07.024Z</time></trkpt><trkpt lat="44.1524217" lon="11.9741367"><ele>201.66666666666669</ele><time>2026-04-26T08:23:08.025Z</time></trkpt><trkpt lat="44.15252" lon="11.974305"><ele>197.33333333333331</ele><time>2026-04-26T08:23:09.023Z</time></trkpt><trkpt lat="44.1526233" lon="11.9744917"><ele>193.0</ele><time>2026-04-26T08:23:10.022Z</time></trkpt><trkpt lat="44.1527217" lon="11.974685"><ele>193.0</ele><time>2026-04-26T08:23:11.024Z</time></trkpt><trkpt lat="44.1528117" lon="11.9748767"><ele>193.0</ele><time>2026-04-26T08:23:12.022Z</time></trkpt><trkpt lat="44.1529083" lon="11.9750467"><ele>193.0</ele><time>2026-04-26T08:23:13.023Z</time></trkpt><trkpt lat="44.15301" lon="11.9752"><ele>193.5</ele><time>2026-04-26T08:23:14.024Z</time></trkpt><trkpt lat="44.15312" lon="11.9753383"><ele>194.0</ele><time>2026-04-26T08:23:15.025Z</time></trkpt><trkpt lat="44.1532383" lon="11.9754617"><ele>194.5</ele><time>2026-04-26T08:23:16.023Z</time></trkpt><trkpt lat="44.1533467" lon="11.9755833"><ele>195.0</ele><time>2026-04-26T08:23:17.022Z</time></trkpt><trkpt lat="44.1534383" lon="11.9757233"><ele>192.75</ele><time>2026-04-26T08:23:18.024Z</time></trkpt><trkpt lat="44.1535133" lon="11.9758783"><ele>190.5</ele><time>2026-04-26T08:23:19.024Z</time></trkpt><trkpt lat="44.1535683" lon="11.9760583"><ele>188.25</ele><time>2026-04-26T08:23:20.024Z</time></trkpt><trkpt lat="44.1536" lon="11.976265"><ele>186.0</ele><time>2026-04-26T08:23:21.024Z</time></trkpt><trkpt lat="44.1536033" lon="11.97649"><ele>185.33333333333334</ele><time>2026-04-26T08:23:22.023Z</time></trkpt><trkpt lat="44.1535883" lon="11.9767283"><ele>184.66666666666669</ele><time>2026-04-26T08:23:23.025Z</time></trkpt><trkpt lat="44.1535733" lon="11.97698"><ele>184.0</ele><time>2026-04-26T08:23:24.024Z</time></trkpt><trkpt lat="44.1535583" lon="11.9772433"><ele>184.0</ele><time>2026-04-26T08:23:25.026Z</time></trkpt><trkpt lat="44.1535483" lon="11.9775117"><ele>184.0</ele><time>2026-04-26T08:23:26.023Z</time></trkpt><trkpt lat="44.1535483" lon="11.97778"><ele>184.0</ele><time>2026-04-26T08:23:27.024Z</time></trkpt><trkpt lat="44.153555" lon="11.97804"><ele>183.66666666666669</ele><time>2026-04-26T08:23:28.024Z</time></trkpt><trkpt lat="44.1535633" lon="11.9782883"><ele>183.33333333333334</ele><time>2026-04-26T08:23:29.024Z</time></trkpt><trkpt lat="44.1535767" lon="11.978525"><ele>183.0</ele><time>2026-04-26T08:23:30.025Z</time></trkpt><trkpt lat="44.1535867" lon="11.978755"><ele>184.66666666666666</ele><time>2026-04-26T08:23:31.023Z</time></trkpt><trkpt lat="44.1536283" lon="11.9789717"><ele>186.33333333333331</ele><time>2026-04-26T08:23:32.021Z</time></trkpt><trkpt lat="44.153675" lon="11.97918"><ele>188.0</ele><time>2026-04-26T08:23:33.025Z</time></trkpt><trkpt lat="44.153725" lon="11.979375"><ele>189.5</ele><time>2026-04-26T08:23:34.022Z</time></trkpt><trkpt lat="44.1537733" lon="11.9795683"><ele>191.0</ele><time>2026-04-26T08:23:35.022Z</time></trkpt><trkpt lat="44.153815" lon="11.9797733"><ele>192.5</ele><time>2026-04-26T08:23:36.022Z</time></trkpt><trkpt lat="44.1538467" lon="11.9799767"><ele>194.0</ele><time>2026-04-26T08:23:37.021Z</time></trkpt><trkpt lat="44.1538733" lon="11.9801717"><ele>194.0</ele><time>2026-04-26T08:23:38.025Z</time></trkpt><trkpt lat="44.1539083" lon="11.98035"><ele>194.0</ele><time>2026-04-26T08:23:39.024Z</time></trkpt><trkpt lat="44.1539633" lon="11.980505"><ele>194.0</ele><time>2026-04-26T08:23:40.022Z</time></trkpt><trkpt lat="44.15404" lon="11.980625"><ele>194.0</ele><time>2026-04-26T08:23:41.024Z</time></trkpt><trkpt lat="44.1541333" lon="11.9807183"><ele>193.6</ele><time>2026-04-26T08:23:42.022Z</time></trkpt><trkpt lat="44.1542383" lon="11.9807683"><ele>193.2</ele><time>2026-04-26T08:23:43.027Z</time></trkpt><trkpt lat="44.1543433" lon="11.980805"><ele>192.79999999999998</ele><time>2026-04-26T08:23:44.023Z</time></trkpt><trkpt lat="44.1544417" lon="11.9808483"><ele>192.39999999999998</ele><time>2026-04-26T08:23:45.024Z</time></trkpt><trkpt lat="44.1545267" lon="11.9809183"><ele>192.0</ele><time>2026-04-26T08:23:46.024Z</time></trkpt><trkpt lat="44.1545917" lon="11.9810183"><ele>190.39999999999998</ele><time>2026-04-26T08:23:47.022Z</time></trkpt><trkpt lat="44.1546233" lon="11.9811467"><ele>188.79999999999998</ele><time>2026-04-26T08:23:48.023Z</time></trkpt><trkpt lat="44.1546417" lon="11.9812733"><ele>187.2</ele><time>2026-04-26T08:23:49.025Z</time></trkpt><trkpt lat="44.1545717" lon="11.9813967"><ele>185.6</ele><time>2026-04-26T08:23:50.024Z</time></trkpt><trkpt lat="44.1544567" lon="11.98147"><ele>184.0</ele><time>2026-04-26T08:23:51.024Z</time></trkpt><trkpt lat="44.15435" lon="11.9815483"><ele>181.25</ele><time>2026-04-26T08:23:52.02Z</time></trkpt><trkpt lat="44.1543033" lon="11.9817033"><ele>178.5</ele><time>2026-04-26T08:23:53.025Z</time></trkpt><trkpt lat="44.154225" lon="11.9818667"><ele>175.75</ele><time>2026-04-26T08:23:54.023Z</time></trkpt><trkpt lat="44.1541667" lon="11.982075"><ele>173.0</ele><time>2026-04-26T08:23:55.027Z</time></trkpt><trkpt lat="44.1541167" lon="11.9822833"><ele>173.0</ele><time>2026-04-26T08:23:56.022Z</time></trkpt><trkpt lat="44.1540583" lon="11.9824867"><ele>173.0</ele><time>2026-04-26T08:23:57.025Z</time></trkpt><trkpt lat="44.1540067" lon="11.9826767"><ele>173.0</ele><time>2026-04-26T08:23:58.024Z</time></trkpt><trkpt lat="44.1539783" lon="11.98286"><ele>173.0</ele><time>2026-04-26T08:23:59.023Z</time></trkpt><trkpt lat="44.153915" lon="11.9830117"><ele>172.60000000000002</ele><time>2026-04-26T08:24:00.025Z</time></trkpt><trkpt lat="44.1539017" lon="11.9831567"><ele>172.20000000000002</ele><time>2026-04-26T08:24:01.024Z</time></trkpt><trkpt lat="44.15391" lon="11.983295"><ele>171.8</ele><time>2026-04-26T08:24:02.026Z</time></trkpt><trkpt lat="44.15396" lon="11.9834233"><ele>171.4</ele><time>2026-04-26T08:24:03.025Z</time></trkpt><trkpt lat="44.1540583" lon="11.9835033"><ele>171.0</ele><time>2026-04-26T08:24:04.024Z</time></trkpt><trkpt lat="44.154135" lon="11.9835983"><ele>168.0</ele><time>2026-04-26T08:24:05.024Z</time></trkpt><trkpt lat="44.1542067" lon="11.9837233"><ele>165.0</ele><time>2026-04-26T08:24:06.024Z</time></trkpt><trkpt lat="44.1542617" lon="11.9838633"><ele>162.0</ele><time>2026-04-26T08:24:07.026Z</time></trkpt><trkpt lat="44.1542883" lon="11.9840317"><ele>159.0</ele><time>2026-04-26T08:24:08.025Z</time></trkpt><trkpt lat="44.1543033" lon="11.9842033"><ele>157.0</ele><time>2026-04-26T08:24:09.027Z</time></trkpt><trkpt lat="44.1543133" lon="11.9843717"><ele>155.0</ele><time>2026-04-26T08:24:10.025Z</time></trkpt><trkpt lat="44.1543267" lon="11.9845367"><ele>153.0</ele><time>2026-04-26T08:24:11.027Z</time></trkpt><trkpt lat="44.1543367" lon="11.9847117"><ele>151.0</ele><time>2026-04-26T08:24:12.022Z</time></trkpt><trkpt lat="44.154395" lon="11.9848583"><ele>151.0</ele><time>2026-04-26T08:24:13.023Z</time></trkpt><trkpt lat="44.1544783" lon="11.9850067"><ele>151.0</ele><time>2026-04-26T08:24:14.024Z</time></trkpt><trkpt lat="44.15459" lon="11.985145"><ele>151.0</ele><time>2026-04-26T08:24:15.021Z</time></trkpt><trkpt lat="44.15471" lon="11.9852883"><ele>151.0</ele><time>2026-04-26T08:24:16.021Z</time></trkpt><trkpt lat="44.1548233" lon="11.98545"><ele>147.66666666666669</ele><time>2026-04-26T08:24:17.023Z</time></trkpt><trkpt lat="44.15495" lon="11.9855883"><ele>144.33333333333334</ele><time>2026-04-26T08:24:18.024Z</time></trkpt><trkpt lat="44.155065" lon="11.9857433"><ele>141.0</ele><time>2026-04-26T08:24:19.023Z</time></trkpt><trkpt lat="44.1552017" lon="11.9858883"><ele>138.66666666666666</ele><time>2026-04-26T08:24:20.022Z</time></trkpt><trkpt lat="44.1553233" lon="11.9860433"><ele>136.33333333333331</ele><time>2026-04-26T08:24:21.024Z</time></trkpt><trkpt lat="44.1554283" lon="11.9862183"><ele>134.0</ele><time>2026-04-26T08:24:22.023Z</time></trkpt><trkpt lat="44.15557" lon="11.9863283"><ele>134.0</ele><time>2026-04-26T08:24:23.024Z</time></trkpt><trkpt lat="44.155695" lon="11.9864767"><ele>134.0</ele><time>2026-04-26T08:24:24.025Z</time></trkpt><trkpt lat="44.155825" lon="11.9866083"><ele>134.0</ele><time>2026-04-26T08:24:25.022Z</time></trkpt><trkpt lat="44.1559533" lon="11.9867367"><ele>131.66666666666666</ele><time>2026-04-26T08:24:26.025Z</time></trkpt><trkpt lat="44.1560817" lon="11.9868683"><ele>129.33333333333334</ele><time>2026-04-26T08:24:27.027Z</time></trkpt><trkpt lat="44.1562133" lon="11.986995"><ele>127.0</ele><time>2026-04-26T08:24:28.025Z</time></trkpt><trkpt lat="44.1563517" lon="11.9871067"><ele>127.0</ele><time>2026-04-26T08:24:29.023Z</time></trkpt><trkpt lat="44.1564917" lon="11.9872267"><ele>127.0</ele><time>2026-04-26T08:24:30.025Z</time></trkpt><trkpt lat="44.1565967" lon="11.9873967"><ele>127.0</ele><time>2026-04-26T08:24:31.026Z</time></trkpt><trkpt lat="44.1566983" lon="11.9875833"><ele>123.0</ele><time>2026-04-26T08:24:32.022Z</time></trkpt><trkpt lat="44.1567817" lon="11.9877867"><ele>119.0</ele><time>2026-04-26T08:24:33.023Z</time></trkpt><trkpt lat="44.1568517" lon="11.9879917"><ele>115.0</ele><time>2026-04-26T08:24:34.022Z</time></trkpt><trkpt lat="44.1569167" lon="11.98818"><ele>112.25</ele><time>2026-04-26T08:24:35.023Z</time></trkpt><trkpt lat="44.15698" lon="11.988345"><ele>109.5</ele><time>2026-04-26T08:24:36.024Z</time></trkpt><trkpt lat="44.15705" lon="11.9884883"><ele>106.75</ele><time>2026-04-26T08:24:37.025Z</time></trkpt><trkpt lat="44.1571317" lon="11.9886017"><ele>104.0</ele><time>2026-04-26T08:24:38.023Z</time></trkpt><trkpt lat="44.1572233" lon="11.9886817"><ele>104.0</ele><time>2026-04-26T08:24:39.036Z</time></trkpt><trkpt lat="44.1573217" lon="11.9887183"><ele>104.0</ele><time>2026-04-26T08:24:40.022Z</time></trkpt><trkpt lat="44.1574417" lon="11.9887117"><ele>104.0</ele><time>2026-04-26T08:24:41.021Z</time></trkpt><trkpt lat="44.1575817" lon="11.9886767"><ele>104.0</ele><time>2026-04-26T08:24:42.023Z</time></trkpt><trkpt lat="44.1577267" lon="11.9886433"><ele>103.0</ele><time>2026-04-26T08:24:43.024Z</time></trkpt><trkpt lat="44.1578683" lon="11.988625"><ele>102.0</ele><time>2026-04-26T08:24:44.023Z</time></trkpt><trkpt lat="44.1580017" lon="11.9886367"><ele>101.0</ele><time>2026-04-26T08:24:45.024Z</time></trkpt><trkpt lat="44.1581233" lon="11.9886917"><ele>100.0</ele><time>2026-04-26T08:24:46.024Z</time></trkpt><trkpt lat="44.1582267" lon="11.988785"><ele>98.75</ele><time>2026-04-26T08:24:47.022Z</time></trkpt><trkpt lat="44.158305" lon="11.9889117"><ele>97.5</ele><time>2026-04-26T08:24:48.024Z</time></trkpt><trkpt lat="44.1583583" lon="11.9890733"><ele>96.25</ele><time>2026-04-26T08:24:49.026Z</time></trkpt><trkpt lat="44.158395" lon="11.98926"><ele>95.0</ele><time>2026-04-26T08:24:50.024Z</time></trkpt><trkpt lat="44.1584283" lon="11.9894667"><ele>94.33333333333334</ele><time>2026-04-26T08:24:51.024Z</time></trkpt><trkpt lat="44.1584617" lon="11.9896967"><ele>93.66666666666667</ele><time>2026-04-26T08:24:52.024Z</time></trkpt><trkpt lat="44.158495" lon="11.9899517"><ele>93.0</ele><time>2026-04-26T08:24:53.024Z</time></trkpt><trkpt lat="44.15853" lon="11.9902017"><ele>92.66666666666667</ele><time>2026-04-26T08:24:54.022Z</time></trkpt><trkpt lat="44.1585633" lon="11.9904517"><ele>92.33333333333334</ele><time>2026-04-26T08:24:55.022Z</time></trkpt><trkpt lat="44.1585967" lon="11.990695"><ele>92.0</ele><time>2026-04-26T08:24:56.026Z</time></trkpt><trkpt lat="44.1586183" lon="11.99094"><ele>91.0</ele><time>2026-04-26T08:24:57.023Z</time></trkpt><trkpt lat="44.1586183" lon="11.9911933"><ele>90.0</ele><time>2026-04-26T08:24:58.021Z</time></trkpt><trkpt lat="44.1585933" lon="11.9914483"><ele>89.0</ele><time>2026-04-26T08:24:59.023Z</time></trkpt><trkpt lat="44.15856" lon="11.9917067"><ele>89.0</ele><time>2026-04-26T08:25:00.024Z</time></trkpt><trkpt lat="44.1585233" lon="11.9919617"><ele>89.0</ele><time>2026-04-26T08:25:01.024Z</time></trkpt><trkpt lat="44.1584867" lon="11.9922133"><ele>89.0</ele><time>2026-04-26T08:25:02.027Z</time></trkpt><trkpt lat="44.158445" lon="11.9924683"><ele>88.0</ele><time>2026-04-26T08:25:03.025Z</time></trkpt><trkpt lat="44.1583983" lon="11.9927217"><ele>87.0</ele><time>2026-04-26T08:25:04.023Z</time></trkpt><trkpt lat="44.1583433" lon="11.9929783"><ele>86.0</ele><time>2026-04-26T08:25:05.023Z</time></trkpt><trkpt lat="44.1582817" lon="11.9932317"><ele>86.33333333333334</ele><time>2026-04-26T08:25:06.023Z</time></trkpt><trkpt lat="44.158215" lon="11.9934917"><ele>86.66666666666667</ele><time>2026-04-26T08:25:07.024Z</time></trkpt><trkpt lat="44.158145" lon="11.99375"><ele>87.0</ele><time>2026-04-26T08:25:08.028Z</time></trkpt><trkpt lat="44.158075" lon="11.9940017"><ele>86.33333333333333</ele><time>2026-04-26T08:25:09.023Z</time></trkpt><trkpt lat="44.1579933" lon="11.9942417"><ele>85.66666666666666</ele><time>2026-04-26T08:25:10.023Z</time></trkpt><trkpt lat="44.1579317" lon="11.994475"><ele>85.0</ele><time>2026-04-26T08:25:11.024Z</time></trkpt><trkpt lat="44.1578717" lon="11.9947033"><ele>85.0</ele><time>2026-04-26T08:25:12.021Z</time></trkpt><trkpt lat="44.15781" lon="11.994915"><ele>85.0</ele><time>2026-04-26T08:25:13.026Z</time></trkpt><trkpt lat="44.1577483" lon="11.9951267"><ele>85.0</ele><time>2026-04-26T08:25:14.023Z</time></trkpt><trkpt lat="44.157705" lon="11.99534"><ele>83.66666666666666</ele><time>2026-04-26T08:25:15.024Z</time></trkpt><trkpt lat="44.1576483" lon="11.9955583"><ele>82.33333333333333</ele><time>2026-04-26T08:25:16.022Z</time></trkpt><trkpt lat="44.157585" lon="11.99578"><ele>81.0</ele><time>2026-04-26T08:25:17.026Z</time></trkpt><trkpt lat="44.15752" lon="11.9960083"><ele>79.33333333333333</ele><time>2026-04-26T08:25:18.025Z</time></trkpt><trkpt lat="44.1574633" lon="11.996245"><ele>77.66666666666666</ele><time>2026-04-26T08:25:19.026Z</time></trkpt><trkpt lat="44.1573917" lon="11.996485"><ele>76.0</ele><time>2026-04-26T08:25:20.024Z</time></trkpt><trkpt lat="44.1573217" lon="11.996725"><ele>75.33333333333333</ele><time>2026-04-26T08:25:21.022Z</time></trkpt><trkpt lat="44.1572467" lon="11.9969667"><ele>74.66666666666667</ele><time>2026-04-26T08:25:22.027Z</time></trkpt><trkpt lat="44.157185" lon="11.9972133"><ele>74.0</ele><time>2026-04-26T08:25:23.024Z</time></trkpt><trkpt lat="44.1571233" lon="11.9974567"><ele>73.66666666666667</ele><time>2026-04-26T08:25:24.029Z</time></trkpt><trkpt lat="44.157055" lon="11.9977"><ele>73.33333333333333</ele><time>2026-04-26T08:25:25.023Z</time></trkpt><trkpt lat="44.1569783" lon="11.9979367"><ele>73.0</ele><time>2026-04-26T08:25:26.024Z</time></trkpt><trkpt lat="44.1569133" lon="11.9981817"><ele>72.66666666666666</ele><time>2026-04-26T08:25:27.023Z</time></trkpt><trkpt lat="44.1568467" lon="11.99842"><ele>72.33333333333333</ele><time>2026-04-26T08:25:28.029Z</time></trkpt><trkpt lat="44.15678" lon="11.9986533"><ele>72.0</ele><time>2026-04-26T08:25:29.024Z</time></trkpt><trkpt lat="44.1567317" lon="11.99889"><ele>72.0</ele><time>2026-04-26T08:25:30.024Z</time></trkpt><trkpt lat="44.1566783" lon="11.9991067"><ele>72.0</ele><time>2026-04-26T08:25:31.025Z</time></trkpt><trkpt lat="44.156625" lon="11.9993033"><ele>72.0</ele><time>2026-04-26T08:25:32.023Z</time></trkpt><trkpt lat="44.1565817" lon="11.99948"><ele>72.0</ele><time>2026-04-26T08:25:33.024Z</time></trkpt><trkpt lat="44.156545" lon="11.9996317"><ele>71.83333333333333</ele><time>2026-04-26T08:25:34.027Z</time></trkpt><trkpt lat="44.1565133" lon="11.9997617"><ele>71.66666666666667</ele><time>2026-04-26T08:25:35.025Z</time></trkpt><trkpt lat="44.1564817" lon="11.9998633"><ele>71.5</ele><time>2026-04-26T08:25:36.022Z</time></trkpt><trkpt lat="44.1564417" lon="11.999935"><ele>71.33333333333334</ele><time>2026-04-26T08:25:37.022Z</time></trkpt><trkpt lat="44.156375" lon="11.999975"><ele>71.16666666666667</ele><time>2026-04-26T08:25:39.024Z</time></trkpt><trkpt lat="44.156275" lon="11.9998733"><ele>71.0</ele><time>2026-04-26T08:25:47.024Z</time></trkpt><trkpt lat="44.1562033" lon="11.9997817"><ele>71.0</ele><time>2026-04-26T08:25:48.025Z</time></trkpt><trkpt lat="44.1561233" lon="11.999685"><ele>71.0</ele><time>2026-04-26T08:25:49.024Z</time></trkpt><trkpt lat="44.1560133" lon="11.9995517"><ele>71.0</ele><time>2026-04-26T08:25:50.023Z</time></trkpt><trkpt lat="44.155905" lon="11.99942"><ele>71.0</ele><time>2026-04-26T08:25:51.025Z</time></trkpt><trkpt lat="44.1557917" lon="11.99928"><ele>71.0</ele><time>2026-04-26T08:25:52.024Z</time></trkpt><trkpt lat="44.1556717" lon="11.999125"><ele>71.0</ele><time>2026-04-26T08:25:53.024Z</time></trkpt><trkpt lat="44.155535" lon="11.9989667"><ele>71.0</ele><time>2026-04-26T08:25:54.025Z</time></trkpt><trkpt lat="44.1554" lon="11.9987933"><ele>71.0</ele><time>2026-04-26T08:25:55.028Z</time></trkpt><trkpt lat="44.1552517" lon="11.9986167"><ele>71.0</ele><time>2026-04-26T08:25:56.024Z</time></trkpt><trkpt lat="44.1550933" lon="11.9984383"><ele>71.0</ele><time>2026-04-26T08:25:57.029Z</time></trkpt><trkpt lat="44.15494" lon="11.9982567"><ele>69.33333333333334</ele><time>2026-04-26T08:25:58.023Z</time></trkpt><trkpt lat="44.1547867" lon="11.9980683"><ele>67.66666666666667</ele><time>2026-04-26T08:25:59.024Z</time></trkpt><trkpt lat="44.15462" lon="11.997885"><ele>66.0</ele><time>2026-04-26T08:26:00.024Z</time></trkpt><trkpt lat="44.1544667" lon="11.9976917"><ele>68.0</ele><time>2026-04-26T08:26:01.024Z</time></trkpt><trkpt lat="44.1542983" lon="11.9974933"><ele>70.0</ele><time>2026-04-26T08:26:02.024Z</time></trkpt><trkpt lat="44.1541367" lon="11.9972867"><ele>72.0</ele><time>2026-04-26T08:26:03.024Z</time></trkpt><trkpt lat="44.153975" lon="11.9970917"><ele>72.0</ele><time>2026-04-26T08:26:04.024Z</time></trkpt><trkpt lat="44.1538183" lon="11.9969"><ele>72.0</ele><time>2026-04-26T08:26:05.022Z</time></trkpt><trkpt lat="44.153665" lon="11.996705"><ele>72.0</ele><time>2026-04-26T08:26:06.023Z</time></trkpt><trkpt lat="44.1535017" lon="11.9965217"><ele>72.0</ele><time>2026-04-26T08:26:07.024Z</time></trkpt><trkpt lat="44.153335" lon="11.996345"><ele>72.0</ele><time>2026-04-26T08:26:08.025Z</time></trkpt><trkpt lat="44.153175" lon="11.9961517"><ele>72.0</ele><time>2026-04-26T08:26:09.024Z</time></trkpt><trkpt lat="44.153" lon="11.9959717"><ele>74.0</ele><time>2026-04-26T08:26:10.028Z</time></trkpt><trkpt lat="44.152815" lon="11.9958133"><ele>76.0</ele><time>2026-04-26T08:26:11.024Z</time></trkpt><trkpt lat="44.1526333" lon="11.9956467"><ele>78.0</ele><time>2026-04-26T08:26:12.027Z</time></trkpt><trkpt lat="44.1524467" lon="11.99548"><ele>77.33333333333333</ele><time>2026-04-26T08:26:13.023Z</time></trkpt><trkpt lat="44.1522633" lon="11.9953067"><ele>76.66666666666666</ele><time>2026-04-26T08:26:14.023Z</time></trkpt><trkpt lat="44.1520617" lon="11.9951667"><ele>76.0</ele><time>2026-04-26T08:26:15.024Z</time></trkpt><trkpt lat="44.15185" lon="11.9950467"><ele>77.0</ele><time>2026-04-26T08:26:16.024Z</time></trkpt><trkpt lat="44.1516533" lon="11.9948967"><ele>78.0</ele><time>2026-04-26T08:26:17.025Z</time></trkpt><trkpt lat="44.1514483" lon="11.994765"><ele>78.0</ele><time>2026-04-26T08:26:18.027Z</time></trkpt><trkpt lat="44.15125" lon="11.9946267"><ele>78.0</ele><time>2026-04-26T08:26:19.025Z</time></trkpt><trkpt lat="44.1510567" lon="11.9944883"><ele>78.0</ele><time>2026-04-26T08:26:20.025Z</time></trkpt><trkpt lat="44.1508517" lon="11.9943717"><ele>77.33333333333333</ele><time>2026-04-26T08:26:21.025Z</time></trkpt><trkpt lat="44.1506583" lon="11.9942467"><ele>76.66666666666666</ele><time>2026-04-26T08:26:22.024Z</time></trkpt><trkpt lat="44.1504883" lon="11.9941017"><ele>76.0</ele><time>2026-04-26T08:26:23.023Z</time></trkpt><trkpt lat="44.15032" lon="11.99398"><ele>76.0</ele><time>2026-04-26T08:26:24.023Z</time></trkpt><trkpt lat="44.150155" lon="11.9938717"><ele>76.0</ele><time>2026-04-26T08:26:25.025Z</time></trkpt><trkpt lat="44.150005" lon="11.993745"><ele>76.0</ele><time>2026-04-26T08:26:26.025Z</time></trkpt><trkpt lat="44.14985" lon="11.9936567"><ele>74.0</ele><time>2026-04-26T08:26:27.025Z</time></trkpt><trkpt lat="44.14971" lon="11.9935533"><ele>72.0</ele><time>2026-04-26T08:26:28.025Z</time></trkpt><trkpt lat="44.1495867" lon="11.9934333"><ele>70.0</ele><time>2026-04-26T08:26:29.021Z</time></trkpt><trkpt lat="44.149445" lon="11.9933483"><ele>70.66666666666666</ele><time>2026-04-26T08:26:30.023Z</time></trkpt><trkpt lat="44.149315" lon="11.9932333"><ele>71.33333333333333</ele><time>2026-04-26T08:26:31.023Z</time></trkpt><trkpt lat="44.1491783" lon="11.9931183"><ele>72.0</ele><time>2026-04-26T08:26:32.023Z</time></trkpt><trkpt lat="44.14904" lon="11.9929867"><ele>72.0</ele><time>2026-04-26T08:26:33.024Z</time></trkpt><trkpt lat="44.148885" lon="11.9928783"><ele>72.0</ele><time>2026-04-26T08:26:34.022Z</time></trkpt><trkpt lat="44.1487233" lon="11.992765"><ele>72.0</ele><time>2026-04-26T08:26:35.023Z</time></trkpt><trkpt lat="44.1485717" lon="11.9926317"><ele>72.0</ele><time>2026-04-26T08:26:36.024Z</time></trkpt><trkpt lat="44.1484233" lon="11.99251"><ele>72.0</ele><time>2026-04-26T08:26:37.029Z</time></trkpt><trkpt lat="44.1482783" lon="11.9923867"><ele>72.0</ele><time>2026-04-26T08:26:38.022Z</time></trkpt><trkpt lat="44.1481317" lon="11.9922617"><ele>73.66666666666667</ele><time>2026-04-26T08:26:39.024Z</time></trkpt><trkpt lat="44.14798" lon="11.9921333"><ele>75.33333333333334</ele><time>2026-04-26T08:26:40.022Z</time></trkpt><trkpt lat="44.1478267" lon="11.9920083"><ele>77.0</ele><time>2026-04-26T08:26:41.022Z</time></trkpt><trkpt lat="44.1476767" lon="11.9918717"><ele>77.0</ele><time>2026-04-26T08:26:42.024Z</time></trkpt><trkpt lat="44.1475383" lon="11.991735"><ele>77.0</ele><time>2026-04-26T08:26:43.022Z</time></trkpt><trkpt lat="44.1474083" lon="11.9916"><ele>77.0</ele><time>2026-04-26T08:26:44.023Z</time></trkpt><trkpt lat="44.14728" lon="11.991465"><ele>77.66666666666667</ele><time>2026-04-26T08:26:45.024Z</time></trkpt><trkpt lat="44.1471567" lon="11.9913133"><ele>78.33333333333333</ele><time>2026-04-26T08:26:46.026Z</time></trkpt><trkpt lat="44.1470083" lon="11.9912083"><ele>79.0</ele><time>2026-04-26T08:26:47.025Z</time></trkpt><trkpt lat="44.1468917" lon="11.9910667"><ele>79.0</ele><time>2026-04-26T08:26:48.024Z</time></trkpt><trkpt lat="44.1467767" lon="11.99094"><ele>79.0</ele><time>2026-04-26T08:26:49.022Z</time></trkpt><trkpt lat="44.1466683" lon="11.9908117"><ele>79.0</ele><time>2026-04-26T08:26:50.026Z</time></trkpt><trkpt lat="44.1465633" lon="11.9906683"><ele>79.0</ele><time>2026-04-26T08:26:51.024Z</time></trkpt><trkpt lat="44.1464733" lon="11.9905083"><ele>77.0</ele><time>2026-04-26T08:26:52.024Z</time></trkpt><trkpt lat="44.1463933" lon="11.9903317"><ele>75.0</ele><time>2026-04-26T08:26:53.025Z</time></trkpt><trkpt lat="44.146325" lon="11.99014"><ele>73.0</ele><time>2026-04-26T08:26:54.024Z</time></trkpt><trkpt lat="44.1462633" lon="11.9899233"><ele>73.0</ele><time>2026-04-26T08:26:55.025Z</time></trkpt><trkpt lat="44.146215" lon="11.9896933"><ele>73.0</ele><time>2026-04-26T08:26:56.026Z</time></trkpt><trkpt lat="44.1461883" lon="11.9894383"><ele>73.0</ele><time>2026-04-26T08:26:57.025Z</time></trkpt><trkpt lat="44.1461317" lon="11.9891933"><ele>74.66666666666666</ele><time>2026-04-26T08:26:58.024Z</time></trkpt><trkpt lat="44.1460817" lon="11.98895"><ele>76.33333333333333</ele><time>2026-04-26T08:26:59.024Z</time></trkpt><trkpt lat="44.14604" lon="11.9887217"><ele>78.0</ele><time>2026-04-26T08:27:00.027Z</time></trkpt><trkpt lat="44.146" lon="11.98851"><ele>78.75</ele><time>2026-04-26T08:27:01.025Z</time></trkpt><trkpt lat="44.1459717" lon="11.9882983"><ele>79.5</ele><time>2026-04-26T08:27:02.026Z</time></trkpt><trkpt lat="44.1458933" lon="11.9881367"><ele>80.25</ele><time>2026-04-26T08:27:03.026Z</time></trkpt><trkpt lat="44.1458117" lon="11.987995"><ele>81.0</ele><time>2026-04-26T08:27:04.026Z</time></trkpt><trkpt lat="44.1457283" lon="11.987875"><ele>80.6</ele><time>2026-04-26T08:27:05.025Z</time></trkpt><trkpt lat="44.145645" lon="11.98778"><ele>80.19999999999999</ele><time>2026-04-26T08:27:06.029Z</time></trkpt><trkpt lat="44.1455517" lon="11.9877033"><ele>79.80000000000001</ele><time>2026-04-26T08:27:07.025Z</time></trkpt><trkpt lat="44.1454433" lon="11.9876433"><ele>79.4</ele><time>2026-04-26T08:27:08.024Z</time></trkpt><trkpt lat="44.14535" lon="11.9875583"><ele>79.0</ele><time>2026-04-26T08:27:09.024Z</time></trkpt><trkpt lat="44.1452483" lon="11.9874817"><ele>79.0</ele><time>2026-04-26T08:27:10.023Z</time></trkpt><trkpt lat="44.1451467" lon="11.9873983"><ele>79.0</ele><time>2026-04-26T08:27:11.026Z</time></trkpt><trkpt lat="44.1450467" lon="11.9873167"><ele>79.0</ele><time>2026-04-26T08:27:12.023Z</time></trkpt><trkpt lat="44.1449567" lon="11.9872217"><ele>79.0</ele><time>2026-04-26T08:27:13.027Z</time></trkpt><trkpt lat="44.1448667" lon="11.987145"><ele>77.8</ele><time>2026-04-26T08:27:14.024Z</time></trkpt><trkpt lat="44.1447733" lon="11.9871417"><ele>76.60000000000001</ele><time>2026-04-26T08:27:15.026Z</time></trkpt><trkpt lat="44.1446883" lon="11.9871933"><ele>75.4</ele><time>2026-04-26T08:27:16.024Z</time></trkpt><trkpt lat="44.1446283" lon="11.987305"><ele>74.2</ele><time>2026-04-26T08:27:17.022Z</time></trkpt><trkpt lat="44.1445783" lon="11.9874617"><ele>73.0</ele><time>2026-04-26T08:27:18.023Z</time></trkpt><trkpt lat="44.1444717" lon="11.9875717"><ele>73.0</ele><time>2026-04-26T08:27:19.024Z</time></trkpt><trkpt lat="44.1444467" lon="11.9877217"><ele>73.0</ele><time>2026-04-26T08:27:20.026Z</time></trkpt><trkpt lat="44.14436" lon="11.9878533"><ele>73.0</ele><time>2026-04-26T08:27:21.025Z</time></trkpt><trkpt lat="44.1442767" lon="11.9879867"><ele>73.0</ele><time>2026-04-26T08:27:22.024Z</time></trkpt><trkpt lat="44.1441933" lon="11.9881"><ele>73.0</ele><time>2026-04-26T08:27:23.023Z</time></trkpt><trkpt lat="44.1441367" lon="11.9882117"><ele>73.0</ele><time>2026-04-26T08:27:24.024Z</time></trkpt><trkpt lat="44.1440733" lon="11.988305"><ele>73.0</ele><time>2026-04-26T08:27:25.027Z</time></trkpt><trkpt lat="44.1440333" lon="11.988405"><ele>73.0</ele><time>2026-04-26T08:27:26.023Z</time></trkpt><trkpt lat="44.1439783" lon="11.9884833"><ele>73.0</ele><time>2026-04-26T08:27:27.023Z</time></trkpt><trkpt lat="44.1439267" lon="11.9885817"><ele>73.0</ele><time>2026-04-26T08:27:28.022Z</time></trkpt><trkpt lat="44.1438967" lon="11.9887367"><ele>73.0</ele><time>2026-04-26T08:27:29.022Z</time></trkpt><trkpt lat="44.14378" lon="11.9888183"><ele>73.0</ele><time>2026-04-26T08:27:30.024Z</time></trkpt><trkpt lat="44.1437133" lon="11.9889783"><ele>73.0</ele><time>2026-04-26T08:27:31.024Z</time></trkpt><trkpt lat="44.1436233" lon="11.9891"><ele>73.0</ele><time>2026-04-26T08:27:32.024Z</time></trkpt><trkpt lat="44.1435217" lon="11.9891917"><ele>72.25</ele><time>2026-04-26T08:27:33.026Z</time></trkpt><trkpt lat="44.14341" lon="11.9892433"><ele>71.5</ele><time>2026-04-26T08:27:34.023Z</time></trkpt><trkpt lat="44.1433217" lon="11.9893467"><ele>70.75</ele><time>2026-04-26T08:27:35.023Z</time></trkpt><trkpt lat="44.1432167" lon="11.989395"><ele>70.0</ele><time>2026-04-26T08:27:36.022Z</time></trkpt><trkpt lat="44.14311" lon="11.9894483"><ele>69.25</ele><time>2026-04-26T08:27:37.022Z</time></trkpt><trkpt lat="44.142995" lon="11.9895233"><ele>68.5</ele><time>2026-04-26T08:27:38.024Z</time></trkpt><trkpt lat="44.1428633" lon="11.9895883"><ele>67.75</ele><time>2026-04-26T08:27:39.025Z</time></trkpt><trkpt lat="44.1427283" lon="11.9896533"><ele>67.0</ele><time>2026-04-26T08:27:40.024Z</time></trkpt><trkpt lat="44.1426083" lon="11.989725"><ele>67.0</ele><time>2026-04-26T08:27:41.023Z</time></trkpt><trkpt lat="44.142495" lon="11.9897783"><ele>67.0</ele><time>2026-04-26T08:27:42.025Z</time></trkpt><trkpt lat="44.1423967" lon="11.98983"><ele>67.0</ele><time>2026-04-26T08:27:43.024Z</time></trkpt><trkpt lat="44.14231" lon="11.9898817"><ele>67.0</ele><time>2026-04-26T08:27:44.024Z</time></trkpt><trkpt lat="44.1422367" lon="11.9899283"><ele>67.0</ele><time>2026-04-26T08:27:45.028Z</time></trkpt><trkpt lat="44.1421617" lon="11.9899483"><ele>67.6</ele><time>2026-04-26T08:27:46.023Z</time></trkpt><trkpt lat="44.1420883" lon="11.98997"><ele>68.2</ele><time>2026-04-26T08:27:47.027Z</time></trkpt><trkpt lat="44.1420183" lon="11.9899967"><ele>68.8</ele><time>2026-04-26T08:27:48.023Z</time></trkpt><trkpt lat="44.1419817" lon="11.99014"><ele>69.4</ele><time>2026-04-26T08:27:50.026Z</time></trkpt><trkpt lat="44.1419967" lon="11.9902833"><ele>70.0</ele><time>2026-04-26T08:27:52.024Z</time></trkpt><trkpt lat="44.1420117" lon="11.9904267"><ele>70.2</ele><time>2026-04-26T08:27:54.022Z</time></trkpt><trkpt lat="44.142045" lon="11.9905717"><ele>70.4</ele><time>2026-04-26T08:27:56.024Z</time></trkpt><trkpt lat="44.1419833" lon="11.9906867"><ele>70.6</ele><time>2026-04-26T08:27:58.025Z</time></trkpt><trkpt lat="44.141925" lon="11.990735"><ele>70.8</ele><time>2026-04-26T08:27:59.024Z</time></trkpt><trkpt lat="44.1418083" lon="11.9908417"><ele>71.0</ele><time>2026-04-26T08:28:01.022Z</time></trkpt><trkpt lat="44.14172" lon="11.9908867"><ele>72.25</ele><time>2026-04-26T08:28:02.024Z</time></trkpt><trkpt lat="44.1416067" lon="11.9909267"><ele>73.5</ele><time>2026-04-26T08:28:03.022Z</time></trkpt><trkpt lat="44.141485" lon="11.99099"><ele>74.75</ele><time>2026-04-26T08:28:04.024Z</time></trkpt><trkpt lat="44.1413383" lon="11.9910367"><ele>76.0</ele><time>2026-04-26T08:28:05.024Z</time></trkpt><trkpt lat="44.141205" lon="11.9911117"><ele>76.25</ele><time>2026-04-26T08:28:06.023Z</time></trkpt><trkpt lat="44.1410617" lon="11.9911433"><ele>76.5</ele><time>2026-04-26T08:28:07.024Z</time></trkpt><trkpt lat="44.1409467" lon="11.9912"><ele>76.75</ele><time>2026-04-26T08:28:08.024Z</time></trkpt><trkpt lat="44.140845" lon="11.9912517"><ele>77.0</ele><time>2026-04-26T08:28:09.024Z</time></trkpt><trkpt lat="44.1407883" lon="11.991325"><ele>77.0</ele><time>2026-04-26T08:28:10.024Z</time></trkpt><trkpt lat="44.14074" lon="11.9914017"><ele>77.0</ele><time>2026-04-26T08:28:11.023Z</time></trkpt><trkpt lat="44.1407217" lon="11.991505"><ele>77.0</ele><time>2026-04-26T08:28:12.024Z</time></trkpt><trkpt lat="44.1407617" lon="11.9916183"><ele>77.0</ele><time>2026-04-26T08:28:13.023Z</time></trkpt><trkpt lat="44.140785" lon="11.991715"><ele>77.0</ele><time>2026-04-26T08:28:14.025Z</time></trkpt><trkpt lat="44.1408083" lon="11.9918383"><ele>77.0</ele><time>2026-04-26T08:28:15.025Z</time></trkpt><trkpt lat="44.1408733" lon="11.9919483"><ele>80.25</ele><time>2026-04-26T08:28:16.026Z</time></trkpt><trkpt lat="44.14092" lon="11.99209"><ele>83.5</ele><time>2026-04-26T08:28:17.024Z</time></trkpt><trkpt lat="44.1409733" lon="11.9922333"><ele>86.75</ele><time>2026-04-26T08:28:18.028Z</time></trkpt><trkpt lat="44.141" lon="11.992395"><ele>90.0</ele><time>2026-04-26T08:28:19.025Z</time></trkpt><trkpt lat="44.1410533" lon="11.9925283"><ele>94.5</ele><time>2026-04-26T08:28:20.024Z</time></trkpt><trkpt lat="44.141135" lon="11.9926333"><ele>99.0</ele><time>2026-04-26T08:28:21.024Z</time></trkpt><trkpt lat="44.1412417" lon="11.9927183"><ele>103.5</ele><time>2026-04-26T08:28:22.023Z</time></trkpt><trkpt lat="44.1413283" lon="11.9928667"><ele>108.0</ele><time>2026-04-26T08:28:23.022Z</time></trkpt><trkpt lat="44.14145" lon="11.9928783"><ele>108.0</ele><time>2026-04-26T08:28:24.023Z</time></trkpt><trkpt lat="44.141555" lon="11.9929317"><ele>108.0</ele><time>2026-04-26T08:28:25.023Z</time></trkpt><trkpt lat="44.1415883" lon="11.9930333"><ele>108.0</ele><time>2026-04-26T08:28:26.024Z</time></trkpt><trkpt lat="44.1416583" lon="11.9930783"><ele>108.0</ele><time>2026-04-26T08:28:27.028Z</time></trkpt><trkpt lat="44.1416783" lon="11.9931683"><ele>108.0</ele><time>2026-04-26T08:28:28.023Z</time></trkpt><trkpt lat="44.1416583" lon="11.9932567"><ele>108.0</ele><time>2026-04-26T08:28:29.023Z</time></trkpt><trkpt lat="44.141585" lon="11.9933567"><ele>108.0</ele><time>2026-04-26T08:28:30.025Z</time></trkpt><trkpt lat="44.1415517" lon="11.99346"><ele>108.00000000000001</ele><time>2026-04-26T08:28:31.026Z</time></trkpt><trkpt lat="44.1414917" lon="11.9935867"><ele>108.00000000000001</ele><time>2026-04-26T08:28:32.027Z</time></trkpt><trkpt lat="44.1414183" lon="11.993725"><ele>108.0</ele><time>2026-04-26T08:28:33.024Z</time></trkpt><trkpt lat="44.1413017" lon="11.9937383"><ele>108.0</ele><time>2026-04-26T08:28:34.023Z</time></trkpt><trkpt lat="44.141195" lon="11.9938317"><ele>111.25</ele><time>2026-04-26T08:28:35.022Z</time></trkpt><trkpt lat="44.14107" lon="11.9938483"><ele>114.5</ele><time>2026-04-26T08:28:36.027Z</time></trkpt><trkpt lat="44.1409483" lon="11.9938583"><ele>117.75</ele><time>2026-04-26T08:28:37.024Z</time></trkpt><trkpt lat="44.1408383" lon="11.9939383"><ele>121.0</ele><time>2026-04-26T08:28:38.024Z</time></trkpt><trkpt lat="44.14073" lon="11.99388"><ele>122.6</ele><time>2026-04-26T08:28:39.026Z</time></trkpt><trkpt lat="44.1406283" lon="11.9938883"><ele>124.19999999999999</ele><time>2026-04-26T08:28:40.024Z</time></trkpt><trkpt lat="44.14054" lon="11.993895"><ele>125.80000000000001</ele><time>2026-04-26T08:28:41.023Z</time></trkpt><trkpt lat="44.1404633" lon="11.99389"><ele>127.4</ele><time>2026-04-26T08:28:42.022Z</time></trkpt><trkpt lat="44.1403817" lon="11.9938633"><ele>129.0</ele><time>2026-04-26T08:28:43.024Z</time></trkpt><trkpt lat="44.1402833" lon="11.993905"><ele>129.0</ele><time>2026-04-26T08:28:45.025Z</time></trkpt><trkpt lat="44.1402567" lon="11.9940133"><ele>129.0</ele><time>2026-04-26T08:28:47.022Z</time></trkpt><trkpt lat="44.1402883" lon="11.9941667"><ele>129.0</ele><time>2026-04-26T08:28:49.023Z</time></trkpt><trkpt lat="44.14034" lon="11.99424"><ele>129.0</ele><time>2026-04-26T08:28:50.024Z</time></trkpt><trkpt lat="44.1403517" lon="11.9943533"><ele>129.0</ele><time>2026-04-26T08:28:51.025Z</time></trkpt><trkpt lat="44.1404133" lon="11.9944617"><ele>130.8</ele><time>2026-04-26T08:28:52.024Z</time></trkpt><trkpt lat="44.140465" lon="11.9945833"><ele>132.60000000000002</ele><time>2026-04-26T08:28:53.023Z</time></trkpt><trkpt lat="44.1404917" lon="11.9947217"><ele>134.4</ele><time>2026-04-26T08:28:54.028Z</time></trkpt><trkpt lat="44.1405467" lon="11.99485"><ele>136.20000000000002</ele><time>2026-04-26T08:28:55.025Z</time></trkpt><trkpt lat="44.1405917" lon="11.9949717"><ele>138.0</ele><time>2026-04-26T08:28:56.023Z</time></trkpt><trkpt lat="44.1405883" lon="11.9950867"><ele>139.66666666666666</ele><time>2026-04-26T08:28:57.024Z</time></trkpt><trkpt lat="44.1406217" lon="11.9951767"><ele>141.33333333333334</ele><time>2026-04-26T08:28:58.024Z</time></trkpt><trkpt lat="44.1406233" lon="11.9952683"><ele>143.0</ele><time>2026-04-26T08:28:59.025Z</time></trkpt><trkpt lat="44.1405767" lon="11.9954083"><ele>144.66666666666669</ele><time>2026-04-26T08:29:01.023Z</time></trkpt><trkpt lat="44.1404783" lon="11.99548"><ele>146.33333333333334</ele><time>2026-04-26T08:29:03.025Z</time></trkpt><trkpt lat="44.1404117" lon="11.9954867"><ele>148.0</ele><time>2026-04-26T08:29:04.024Z</time></trkpt><trkpt lat="44.1403267" lon="11.9954883"><ele>148.0</ele><time>2026-04-26T08:29:05.022Z</time></trkpt><trkpt lat="44.14027" lon="11.9955317"><ele>148.0</ele><time>2026-04-26T08:29:06.024Z</time></trkpt><trkpt lat="44.140205" lon="11.9955483"><ele>148.0</ele><time>2026-04-26T08:29:07.024Z</time></trkpt><trkpt lat="44.1401583" lon="11.99561"><ele>148.0</ele><time>2026-04-26T08:29:08.026Z</time></trkpt><trkpt lat="44.1401333" lon="11.9956967"><ele>148.0</ele><time>2026-04-26T08:29:09.027Z</time></trkpt><trkpt lat="44.1401433" lon="11.9958633"><ele>148.0</ele><time>2026-04-26T08:29:11.024Z</time></trkpt><trkpt lat="44.14015" lon="11.9960067"><ele>148.83333333333334</ele><time>2026-04-26T08:29:13.025Z</time></trkpt><trkpt lat="44.1401317" lon="11.9961083"><ele>149.66666666666669</ele><time>2026-04-26T08:29:14.024Z</time></trkpt><trkpt lat="44.1401033" lon="11.9962"><ele>150.5</ele><time>2026-04-26T08:29:15.025Z</time></trkpt><trkpt lat="44.1400633" lon="11.9962767"><ele>151.33333333333334</ele><time>2026-04-26T08:29:16.024Z</time></trkpt><trkpt lat="44.1400217" lon="11.9963517"><ele>152.16666666666666</ele><time>2026-04-26T08:29:17.024Z</time></trkpt><trkpt lat="44.13997" lon="11.996425"><ele>153.0</ele><time>2026-04-26T08:29:18.024Z</time></trkpt><trkpt lat="44.139895" lon="11.99651"><ele>152.8</ele><time>2026-04-26T08:29:19.024Z</time></trkpt><trkpt lat="44.1398167" lon="11.9965967"><ele>152.60000000000002</ele><time>2026-04-26T08:29:20.028Z</time></trkpt><trkpt lat="44.13974" lon="11.996685"><ele>152.39999999999998</ele><time>2026-04-26T08:29:21.026Z</time></trkpt><trkpt lat="44.1396467" lon="11.9967683"><ele>152.2</ele><time>2026-04-26T08:29:22.025Z</time></trkpt><trkpt lat="44.13956" lon="11.9968433"><ele>152.0</ele><time>2026-04-26T08:29:23.023Z</time></trkpt><trkpt lat="44.1394867" lon="11.9969283"><ele>154.2</ele><time>2026-04-26T08:29:24.023Z</time></trkpt><trkpt lat="44.1394183" lon="11.997025"><ele>156.39999999999998</ele><time>2026-04-26T08:29:25.022Z</time></trkpt><trkpt lat="44.1393233" lon="11.99711"><ele>158.60000000000002</ele><time>2026-04-26T08:29:26.023Z</time></trkpt><trkpt lat="44.1392333" lon="11.9971967"><ele>160.8</ele><time>2026-04-26T08:29:27.024Z</time></trkpt><trkpt lat="44.1391683" lon="11.9972917"><ele>163.0</ele><time>2026-04-26T08:29:28.024Z</time></trkpt><trkpt lat="44.1391367" lon="11.99738"><ele>162.75</ele><time>2026-04-26T08:29:29.027Z</time></trkpt><trkpt lat="44.1390033" lon="11.99748"><ele>162.5</ele><time>2026-04-26T08:29:30.024Z</time></trkpt><trkpt lat="44.138905" lon="11.9975883"><ele>162.25</ele><time>2026-04-26T08:29:31.025Z</time></trkpt><trkpt lat="44.1388267" lon="11.9976733"><ele>162.0</ele><time>2026-04-26T08:29:32.024Z</time></trkpt><trkpt lat="44.1387367" lon="11.997775"><ele>162.0</ele><time>2026-04-26T08:29:33.022Z</time></trkpt><trkpt lat="44.13868" lon="11.997875"><ele>162.0</ele><time>2026-04-26T08:29:34.025Z</time></trkpt><trkpt lat="44.138615" lon="11.9979933"><ele>162.0</ele><time>2026-04-26T08:29:35.025Z</time></trkpt><trkpt lat="44.13858" lon="11.9980967"><ele>162.0</ele><time>2026-04-26T08:29:36.023Z</time></trkpt><trkpt lat="44.1385717" lon="11.99822"><ele>162.0</ele><time>2026-04-26T08:29:37.023Z</time></trkpt><trkpt lat="44.13856" lon="11.9983467"><ele>163.2</ele><time>2026-04-26T08:29:38.028Z</time></trkpt><trkpt lat="44.1385617" lon="11.9984817"><ele>164.39999999999998</ele><time>2026-04-26T08:29:39.023Z</time></trkpt><trkpt lat="44.138585" lon="11.9986233"><ele>165.60000000000002</ele><time>2026-04-26T08:29:40.025Z</time></trkpt><trkpt lat="44.1386533" lon="11.9987733"><ele>166.8</ele><time>2026-04-26T08:29:41.023Z</time></trkpt><trkpt lat="44.1386683" lon="11.9988983"><ele>168.0</ele><time>2026-04-26T08:29:42.026Z</time></trkpt><trkpt lat="44.1386733" lon="11.999065"><ele>169.5</ele><time>2026-04-26T08:29:43.024Z</time></trkpt><trkpt lat="44.1387467" lon="11.9992017"><ele>171.0</ele><time>2026-04-26T08:29:44.023Z</time></trkpt><trkpt lat="44.1387683" lon="11.9993817"><ele>172.5</ele><time>2026-04-26T08:29:45.027Z</time></trkpt><trkpt lat="44.1388117" lon="11.999565"><ele>174.0</ele><time>2026-04-26T08:29:46.024Z</time></trkpt><trkpt lat="44.138745" lon="11.9996917"><ele>174.0</ele><time>2026-04-26T08:29:47.022Z</time></trkpt><trkpt lat="44.1388467" lon="11.99988"><ele>174.0</ele><time>2026-04-26T08:29:48.024Z</time></trkpt><trkpt lat="44.138905" lon="12.0000783"><ele>174.0</ele><time>2026-04-26T08:29:49.024Z</time></trkpt><trkpt lat="44.1389283" lon="12.0002833"><ele>174.0</ele><time>2026-04-26T08:29:50.023Z</time></trkpt><trkpt lat="44.1389633" lon="12.000485"><ele>174.0</ele><time>2026-04-26T08:29:51.022Z</time></trkpt><trkpt lat="44.1390067" lon="12.0006767"><ele>174.0</ele><time>2026-04-26T08:29:52.027Z</time></trkpt><trkpt lat="44.1391267" lon="12.00082"><ele>178.39999999999998</ele><time>2026-04-26T08:29:53.023Z</time></trkpt><trkpt lat="44.1391633" lon="12.0009583"><ele>182.8</ele><time>2026-04-26T08:29:54.023Z</time></trkpt><trkpt lat="44.1391633" lon="12.00109"><ele>187.2</ele><time>2026-04-26T08:29:55.022Z</time></trkpt><trkpt lat="44.1392083" lon="12.0012517"><ele>191.60000000000002</ele><time>2026-04-26T08:29:56.022Z</time></trkpt><trkpt lat="44.1392267" lon="12.0013933"><ele>196.0</ele><time>2026-04-26T08:29:57.026Z</time></trkpt><trkpt lat="44.1392067" lon="12.001535"><ele>195.99999999999997</ele><time>2026-04-26T08:29:58.024Z</time></trkpt><trkpt lat="44.1391767" lon="12.0016267"><ele>196.0</ele><time>2026-04-26T08:29:59.023Z</time></trkpt><trkpt lat="44.1391317" lon="12.0017167"><ele>196.0</ele><time>2026-04-26T08:30:00.022Z</time></trkpt><trkpt lat="44.1390883" lon="12.00183"><ele>196.0</ele><time>2026-04-26T08:30:01.023Z</time></trkpt><trkpt lat="44.1390183" lon="12.00196"><ele>195.99999999999997</ele><time>2026-04-26T08:30:02.024Z</time></trkpt><trkpt lat="44.1389667" lon="12.00204"><ele>196.0</ele><time>2026-04-26T08:30:03.023Z</time></trkpt><trkpt lat="44.1389067" lon="12.0021633"><ele>196.66666666666666</ele><time>2026-04-26T08:30:04.028Z</time></trkpt><trkpt lat="44.1388383" lon="12.0022467"><ele>197.33333333333331</ele><time>2026-04-26T08:30:05.022Z</time></trkpt><trkpt lat="44.13876" lon="12.0023283"><ele>198.0</ele><time>2026-04-26T08:30:06.022Z</time></trkpt><trkpt lat="44.1386817" lon="12.0023683"><ele>198.66666666666669</ele><time>2026-04-26T08:30:07.023Z</time></trkpt><trkpt lat="44.1386033" lon="12.00239"><ele>199.33333333333334</ele><time>2026-04-26T08:30:08.024Z</time></trkpt><trkpt lat="44.13853" lon="12.0024183"><ele>200.0</ele><time>2026-04-26T08:30:09.024Z</time></trkpt><trkpt lat="44.1384383" lon="12.0024833"><ele>202.0</ele><time>2026-04-26T08:30:10.024Z</time></trkpt><trkpt lat="44.13836" lon="12.0025467"><ele>204.0</ele><time>2026-04-26T08:30:11.024Z</time></trkpt><trkpt lat="44.1382567" lon="12.002645"><ele>206.0</ele><time>2026-04-26T08:30:12.023Z</time></trkpt><trkpt lat="44.138155" lon="12.002755"><ele>208.0</ele><time>2026-04-26T08:30:13.023Z</time></trkpt><trkpt lat="44.1380717" lon="12.002835"><ele>210.0</ele><time>2026-04-26T08:30:14.023Z</time></trkpt><trkpt lat="44.1379583" lon="12.0029417"><ele>210.0</ele><time>2026-04-26T08:30:15.023Z</time></trkpt><trkpt lat="44.1378433" lon="12.0030733"><ele>210.0</ele><time>2026-04-26T08:30:16.027Z</time></trkpt><trkpt lat="44.1377333" lon="12.0031733"><ele>210.0</ele><time>2026-04-26T08:30:17.023Z</time></trkpt><trkpt lat="44.1376383" lon="12.0032567"><ele>210.0</ele><time>2026-04-26T08:30:18.023Z</time></trkpt><trkpt lat="44.1375683" lon="12.0032133"><ele>214.33333333333331</ele><time>2026-04-26T08:30:19.025Z</time></trkpt><trkpt lat="44.1374483" lon="12.0033517"><ele>218.66666666666666</ele><time>2026-04-26T08:30:20.022Z</time></trkpt><trkpt lat="44.1372867" lon="12.0035583"><ele>223.0</ele><time>2026-04-26T08:30:21.024Z</time></trkpt><trkpt lat="44.1371633" lon="12.0036933"><ele>223.0</ele><time>2026-04-26T08:30:22.025Z</time></trkpt><trkpt lat="44.1370617" lon="12.0038133"><ele>223.0</ele><time>2026-04-26T08:30:23.025Z</time></trkpt><trkpt lat="44.1369567" lon="12.0039283"><ele>223.0</ele><time>2026-04-26T08:30:24.024Z</time></trkpt><trkpt lat="44.1368283" lon="12.0040367"><ele>223.0</ele><time>2026-04-26T08:30:25.022Z</time></trkpt><trkpt lat="44.1367217" lon="12.0041133"><ele>225.8</ele><time>2026-04-26T08:30:26.022Z</time></trkpt><trkpt lat="44.1366183" lon="12.0041717"><ele>228.60000000000002</ele><time>2026-04-26T08:30:27.024Z</time></trkpt><trkpt lat="44.1365283" lon="12.0042"><ele>231.39999999999998</ele><time>2026-04-26T08:30:28.025Z</time></trkpt><trkpt lat="44.1364467" lon="12.0042517"><ele>234.2</ele><time>2026-04-26T08:30:29.021Z</time></trkpt><trkpt lat="44.1363733" lon="12.0043167"><ele>237.0</ele><time>2026-04-26T08:30:30.025Z</time></trkpt><trkpt lat="44.1363083" lon="12.004365"><ele>238.39999999999998</ele><time>2026-04-26T08:30:31.025Z</time></trkpt><trkpt lat="44.1362367" lon="12.0045067"><ele>239.79999999999998</ele><time>2026-04-26T08:30:33.028Z</time></trkpt><trkpt lat="44.1361367" lon="12.0045767"><ele>241.2</ele><time>2026-04-26T08:30:35.026Z</time></trkpt><trkpt lat="44.136065" lon="12.0045733"><ele>242.6</ele><time>2026-04-26T08:30:36.024Z</time></trkpt><trkpt lat="44.13596" lon="12.0045483"><ele>244.0</ele><time>2026-04-26T08:30:37.024Z</time></trkpt><trkpt lat="44.1358533" lon="12.0045233"><ele>244.0</ele><time>2026-04-26T08:30:38.024Z</time></trkpt><trkpt lat="44.1357333" lon="12.0045233"><ele>244.0</ele><time>2026-04-26T08:30:39.024Z</time></trkpt><trkpt lat="44.1355933" lon="12.004475"><ele>244.0</ele><time>2026-04-26T08:30:40.023Z</time></trkpt><trkpt lat="44.1354483" lon="12.004445"><ele>244.0</ele><time>2026-04-26T08:30:41.023Z</time></trkpt><trkpt lat="44.1353017" lon="12.0044"><ele>244.75</ele><time>2026-04-26T08:30:42.021Z</time></trkpt><trkpt lat="44.13516" lon="12.0043767"><ele>245.5</ele><time>2026-04-26T08:30:43.026Z</time></trkpt><trkpt lat="44.1350183" lon="12.00436"><ele>246.25</ele><time>2026-04-26T08:30:44.021Z</time></trkpt><trkpt lat="44.1348783" lon="12.004315"><ele>247.0</ele><time>2026-04-26T08:30:45.024Z</time></trkpt><trkpt lat="44.1347317" lon="12.004285"><ele>248.33333333333331</ele><time>2026-04-26T08:30:46.025Z</time></trkpt><trkpt lat="44.1345733" lon="12.00425"><ele>249.66666666666669</ele><time>2026-04-26T08:30:47.026Z</time></trkpt><trkpt lat="44.1344083" lon="12.0042483"><ele>251.0</ele><time>2026-04-26T08:30:48.025Z</time></trkpt><trkpt lat="44.1342367" lon="12.0042067"><ele>251.0</ele><time>2026-04-26T08:30:49.026Z</time></trkpt><trkpt lat="44.1340583" lon="12.00418"><ele>251.0</ele><time>2026-04-26T08:30:50.025Z</time></trkpt><trkpt lat="44.13387" lon="12.0041633"><ele>251.0</ele><time>2026-04-26T08:30:51.026Z</time></trkpt><trkpt lat="44.13368" lon="12.004125"><ele>252.0</ele><time>2026-04-26T08:30:52.026Z</time></trkpt><trkpt lat="44.133485" lon="12.004105"><ele>253.0</ele><time>2026-04-26T08:30:53.024Z</time></trkpt><trkpt lat="44.1332867" lon="12.00408"><ele>254.0</ele><time>2026-04-26T08:30:54.025Z</time></trkpt><trkpt lat="44.1330833" lon="12.0040483"><ele>254.0</ele><time>2026-04-26T08:30:55.024Z</time></trkpt><trkpt lat="44.1328783" lon="12.0040267"><ele>254.0</ele><time>2026-04-26T08:30:56.023Z</time></trkpt><trkpt lat="44.1326633" lon="12.0040167"><ele>254.0</ele><time>2026-04-26T08:30:57.026Z</time></trkpt><trkpt lat="44.13244" lon="12.00401"><ele>255.0</ele><time>2026-04-26T08:30:58.024Z</time></trkpt><trkpt lat="44.1322083" lon="12.004"><ele>256.0</ele><time>2026-04-26T08:30:59.023Z</time></trkpt><trkpt lat="44.1319733" lon="12.00399"><ele>256.0</ele><time>2026-04-26T08:31:00.029Z</time></trkpt><trkpt lat="44.131745" lon="12.0039917"><ele>256.0</ele><time>2026-04-26T08:31:01.025Z</time></trkpt><trkpt lat="44.1315367" lon="12.0039933"><ele>256.0</ele><time>2026-04-26T08:31:02.025Z</time></trkpt><trkpt lat="44.1313483" lon="12.0039917"><ele>258.3333333333333</ele><time>2026-04-26T08:31:03.024Z</time></trkpt><trkpt lat="44.131175" lon="12.00397"><ele>260.6666666666667</ele><time>2026-04-26T08:31:04.022Z</time></trkpt><trkpt lat="44.13101" lon="12.003965"><ele>263.0</ele><time>2026-04-26T08:31:05.023Z</time></trkpt><trkpt lat="44.1308467" lon="12.0039717"><ele>265.33333333333337</ele><time>2026-04-26T08:31:06.022Z</time></trkpt><trkpt lat="44.1306867" lon="12.0039717"><ele>267.6666666666667</ele><time>2026-04-26T08:31:07.028Z</time></trkpt><trkpt lat="44.1305283" lon="12.0039317"><ele>270.0</ele><time>2026-04-26T08:31:08.027Z</time></trkpt><trkpt lat="44.130365" lon="12.0038933"><ele>270.0</ele><time>2026-04-26T08:31:09.024Z</time></trkpt><trkpt lat="44.1301967" lon="12.00383"><ele>270.0</ele><time>2026-04-26T08:31:10.024Z</time></trkpt><trkpt lat="44.1300267" lon="12.0037683"><ele>270.0</ele><time>2026-04-26T08:31:11.023Z</time></trkpt><trkpt lat="44.1298633" lon="12.00371"><ele>271.3333333333333</ele><time>2026-04-26T08:31:12.023Z</time></trkpt><trkpt lat="44.1297017" lon="12.003645"><ele>272.66666666666663</ele><time>2026-04-26T08:31:13.026Z</time></trkpt><trkpt lat="44.1295367" lon="12.0035583"><ele>274.0</ele><time>2026-04-26T08:31:14.025Z</time></trkpt><trkpt lat="44.1293683" lon="12.0034533"><ele>274.0</ele><time>2026-04-26T08:31:15.027Z</time></trkpt><trkpt lat="44.12919" lon="12.0033233"><ele>274.0</ele><time>2026-04-26T08:31:16.022Z</time></trkpt><trkpt lat="44.1290067" lon="12.003185"><ele>274.0</ele><time>2026-04-26T08:31:17.023Z</time></trkpt><trkpt lat="44.12883" lon="12.0030483"><ele>279.0</ele><time>2026-04-26T08:31:18.023Z</time></trkpt><trkpt lat="44.1286667" lon="12.0029083"><ele>284.0</ele><time>2026-04-26T08:31:19.026Z</time></trkpt><trkpt lat="44.1285167" lon="12.0027817"><ele>289.0</ele><time>2026-04-26T08:31:20.022Z</time></trkpt><trkpt lat="44.128375" lon="12.0026667"><ele>289.0</ele><time>2026-04-26T08:31:21.026Z</time></trkpt><trkpt lat="44.12824" lon="12.0025883"><ele>289.0</ele><time>2026-04-26T08:31:22.023Z</time></trkpt><trkpt lat="44.128115" lon="12.0025067"><ele>289.0</ele><time>2026-04-26T08:31:23.023Z</time></trkpt><trkpt lat="44.1280067" lon="12.0023917"><ele>289.0</ele><time>2026-04-26T08:31:24.023Z</time></trkpt><trkpt lat="44.1279133" lon="12.0022333"><ele>290.0</ele><time>2026-04-26T08:31:25.022Z</time></trkpt><trkpt lat="44.1278217" lon="12.0020517"><ele>291.0</ele><time>2026-04-26T08:31:26.024Z</time></trkpt><trkpt lat="44.1277283" lon="12.0018533"><ele>292.0</ele><time>2026-04-26T08:31:27.022Z</time></trkpt><trkpt lat="44.12763" lon="12.00166"><ele>291.3333333333333</ele><time>2026-04-26T08:31:28.025Z</time></trkpt><trkpt lat="44.1275183" lon="12.0014683"><ele>290.6666666666667</ele><time>2026-04-26T08:31:29.023Z</time></trkpt><trkpt lat="44.1273917" lon="12.0012817"><ele>290.0</ele><time>2026-04-26T08:31:30.024Z</time></trkpt><trkpt lat="44.127265" lon="12.0010983"><ele>290.0</ele><time>2026-04-26T08:31:31.026Z</time></trkpt><trkpt lat="44.1271517" lon="12.0009183"><ele>290.0</ele><time>2026-04-26T08:31:32.023Z</time></trkpt><trkpt lat="44.127055" lon="12.0007433"><ele>290.0</ele><time>2026-04-26T08:31:33.025Z</time></trkpt><trkpt lat="44.1269667" lon="12.000575"><ele>290.5</ele><time>2026-04-26T08:31:34.026Z</time></trkpt><trkpt lat="44.12688" lon="12.0004133"><ele>291.0</ele><time>2026-04-26T08:31:35.025Z</time></trkpt><trkpt lat="44.1267917" lon="12.0002783"><ele>291.5</ele><time>2026-04-26T08:31:36.021Z</time></trkpt><trkpt lat="44.126695" lon="12.00018"><ele>292.0</ele><time>2026-04-26T08:31:37.022Z</time></trkpt><trkpt lat="44.12658" lon="12.0001067"><ele>293.0</ele><time>2026-04-26T08:31:38.025Z</time></trkpt><trkpt lat="44.126435" lon="12.000055"><ele>294.0</ele><time>2026-04-26T08:31:39.023Z</time></trkpt><trkpt lat="44.1262667" lon="12.000005"><ele>295.0</ele><time>2026-04-26T08:31:40.024Z</time></trkpt><trkpt lat="44.126085" lon="11.9999583"><ele>295.0</ele><time>2026-04-26T08:31:41.023Z</time></trkpt><trkpt lat="44.1259" lon="11.9999233"><ele>295.0</ele><time>2026-04-26T08:31:42.024Z</time></trkpt><trkpt lat="44.1257267" lon="11.9999"><ele>295.0</ele><time>2026-04-26T08:31:43.023Z</time></trkpt><trkpt lat="44.1255667" lon="11.9998733"><ele>294.0</ele><time>2026-04-26T08:31:44.022Z</time></trkpt><trkpt lat="44.12541" lon="11.99984"><ele>293.0</ele><time>2026-04-26T08:31:45.026Z</time></trkpt><trkpt lat="44.1252533" lon="11.9997883"><ele>292.0</ele><time>2026-04-26T08:31:46.024Z</time></trkpt><trkpt lat="44.1250967" lon="11.9997083"><ele>292.0</ele><time>2026-04-26T08:31:47.025Z</time></trkpt><trkpt lat="44.1249383" lon="11.9996033"><ele>292.0</ele><time>2026-04-26T08:31:48.024Z</time></trkpt><trkpt lat="44.1247767" lon="11.9994867"><ele>292.0</ele><time>2026-04-26T08:31:49.024Z</time></trkpt><trkpt lat="44.124605" lon="11.99936"><ele>291.66666666666663</ele><time>2026-04-26T08:31:50.025Z</time></trkpt><trkpt lat="44.1244267" lon="11.9992333"><ele>291.3333333333333</ele><time>2026-04-26T08:31:51.025Z</time></trkpt><trkpt lat="44.1242517" lon="11.9990983"><ele>291.0</ele><time>2026-04-26T08:31:52.024Z</time></trkpt><trkpt lat="44.124085" lon="11.998975"><ele>292.6666666666667</ele><time>2026-04-26T08:31:53.026Z</time></trkpt><trkpt lat="44.1239317" lon="11.998865"><ele>294.33333333333337</ele><time>2026-04-26T08:31:54.022Z</time></trkpt><trkpt lat="44.1237933" lon="11.998765"><ele>296.0</ele><time>2026-04-26T08:31:55.022Z</time></trkpt><trkpt lat="44.1236567" lon="11.9986883"><ele>296.0</ele><time>2026-04-26T08:31:56.022Z</time></trkpt><trkpt lat="44.1235117" lon="11.9986433"><ele>296.0</ele><time>2026-04-26T08:31:57.025Z</time></trkpt><trkpt lat="44.1233567" lon="11.998625"><ele>296.0</ele><time>2026-04-26T08:31:58.025Z</time></trkpt><trkpt lat="44.1232" lon="11.9986217"><ele>298.0</ele><time>2026-04-26T08:31:59.023Z</time></trkpt><trkpt lat="44.123045" lon="11.9986117"><ele>300.0</ele><time>2026-04-26T08:32:00.023Z</time></trkpt><trkpt lat="44.1228933" lon="11.9986"><ele>302.0</ele><time>2026-04-26T08:32:01.023Z</time></trkpt><trkpt lat="44.1227517" lon="11.9985667"><ele>302.0</ele><time>2026-04-26T08:32:02.023Z</time></trkpt><trkpt lat="44.1226233" lon="11.9985033"><ele>302.0</ele><time>2026-04-26T08:32:03.025Z</time></trkpt><trkpt lat="44.1225133" lon="11.9984083"><ele>302.0</ele><time>2026-04-26T08:32:04.026Z</time></trkpt><trkpt lat="44.1224233" lon="11.9982767"><ele>302.0</ele><time>2026-04-26T08:32:05.025Z</time></trkpt><trkpt lat="44.1223633" lon="11.9981117"><ele>307.25</ele><time>2026-04-26T08:32:06.025Z</time></trkpt><trkpt lat="44.12233" lon="11.9979267"><ele>312.5</ele><time>2026-04-26T08:32:07.025Z</time></trkpt><trkpt lat="44.1223267" lon="11.9977367"><ele>317.75</ele><time>2026-04-26T08:32:08.026Z</time></trkpt><trkpt lat="44.1223267" lon="11.9975617"><ele>323.0</ele><time>2026-04-26T08:32:09.025Z</time></trkpt><trkpt lat="44.1223117" lon="11.9974083"><ele>324.2</ele><time>2026-04-26T08:32:10.026Z</time></trkpt><trkpt lat="44.1222767" lon="11.9972883"><ele>325.4</ele><time>2026-04-26T08:32:11.026Z</time></trkpt><trkpt lat="44.122225" lon="11.9971983"><ele>326.59999999999997</ele><time>2026-04-26T08:32:12.024Z</time></trkpt><trkpt lat="44.1221383" lon="11.9971433"><ele>327.79999999999995</ele><time>2026-04-26T08:32:13.023Z</time></trkpt><trkpt lat="44.1220267" lon="11.9971217"><ele>329.0</ele><time>2026-04-26T08:32:14.024Z</time></trkpt><trkpt lat="44.121905" lon="11.9971367"><ele>329.0</ele><time>2026-04-26T08:32:15.024Z</time></trkpt><trkpt lat="44.1217767" lon="11.99717"><ele>329.0</ele><time>2026-04-26T08:32:16.025Z</time></trkpt><trkpt lat="44.1216417" lon="11.99721"><ele>329.0</ele><time>2026-04-26T08:32:17.024Z</time></trkpt><trkpt lat="44.1214983" lon="11.9972517"><ele>329.0</ele><time>2026-04-26T08:32:18.021Z</time></trkpt><trkpt lat="44.1213467" lon="11.9972917"><ele>333.33333333333337</ele><time>2026-04-26T08:32:19.024Z</time></trkpt><trkpt lat="44.1211833" lon="11.997335"><ele>337.6666666666667</ele><time>2026-04-26T08:32:20.023Z</time></trkpt><trkpt lat="44.1210133" lon="11.9973733"><ele>342.0</ele><time>2026-04-26T08:32:21.024Z</time></trkpt><trkpt lat="44.12084" lon="11.9974"><ele>344.3333333333333</ele><time>2026-04-26T08:32:22.023Z</time></trkpt><trkpt lat="44.1206683" lon="11.9974117"><ele>346.66666666666663</ele><time>2026-04-26T08:32:23.023Z</time></trkpt><trkpt lat="44.120495" lon="11.9973983"><ele>349.0</ele><time>2026-04-26T08:32:24.023Z</time></trkpt><trkpt lat="44.1203233" lon="11.99737"><ele>349.0</ele><time>2026-04-26T08:32:25.022Z</time></trkpt><trkpt lat="44.120145" lon="11.997335"><ele>349.0</ele><time>2026-04-26T08:32:26.023Z</time></trkpt><trkpt lat="44.119965" lon="11.9972967"><ele>349.0</ele><time>2026-04-26T08:32:27.022Z</time></trkpt><trkpt lat="44.119785" lon="11.9972583"><ele>350.66666666666663</ele><time>2026-04-26T08:32:28.022Z</time></trkpt><trkpt lat="44.1196133" lon="11.9972283"><ele>352.3333333333333</ele><time>2026-04-26T08:32:29.024Z</time></trkpt><trkpt lat="44.119455" lon="11.9972117"><ele>354.0</ele><time>2026-04-26T08:32:30.022Z</time></trkpt><trkpt lat="44.11931" lon="11.99721"><ele>354.0</ele><time>2026-04-26T08:32:31.023Z</time></trkpt><trkpt lat="44.1191667" lon="11.9972333"><ele>354.0</ele><time>2026-04-26T08:32:32.025Z</time></trkpt><trkpt lat="44.1190267" lon="11.9973"><ele>354.0</ele><time>2026-04-26T08:32:33.024Z</time></trkpt><trkpt lat="44.1188867" lon="11.9974067"><ele>354.3333333333333</ele><time>2026-04-26T08:32:34.025Z</time></trkpt><trkpt lat="44.1187517" lon="11.9975367"><ele>354.66666666666663</ele><time>2026-04-26T08:32:35.025Z</time></trkpt><trkpt lat="44.1186233" lon="11.9976683"><ele>355.0</ele><time>2026-04-26T08:32:36.022Z</time></trkpt><trkpt lat="44.1185017" lon="11.9977867"><ele>355.0</ele><time>2026-04-26T08:32:37.025Z</time></trkpt><trkpt lat="44.1183883" lon="11.997895"><ele>355.0</ele><time>2026-04-26T08:32:38.023Z</time></trkpt><trkpt lat="44.118285" lon="11.99799"><ele>355.0</ele><time>2026-04-26T08:32:39.025Z</time></trkpt><trkpt lat="44.118185" lon="11.9980683"><ele>355.0</ele><time>2026-04-26T08:32:40.025Z</time></trkpt><trkpt lat="44.1180933" lon="11.998125"><ele>355.4</ele><time>2026-04-26T08:32:41.024Z</time></trkpt><trkpt lat="44.1180067" lon="11.9981767"><ele>355.8</ele><time>2026-04-26T08:32:42.025Z</time></trkpt><trkpt lat="44.1179167" lon="11.9982183"><ele>356.20000000000005</ele><time>2026-04-26T08:32:43.024Z</time></trkpt><trkpt lat="44.1178217" lon="11.9982683"><ele>356.6</ele><time>2026-04-26T08:32:44.023Z</time></trkpt><trkpt lat="44.1177183" lon="11.9982917"><ele>357.0</ele><time>2026-04-26T08:32:45.024Z</time></trkpt><trkpt lat="44.1176" lon="11.998285"><ele>357.0</ele><time>2026-04-26T08:32:46.024Z</time></trkpt><trkpt lat="44.117465" lon="11.9982833"><ele>357.0</ele><time>2026-04-26T08:32:47.023Z</time></trkpt><trkpt lat="44.1173133" lon="11.9982817"><ele>357.0</ele><time>2026-04-26T08:32:48.023Z</time></trkpt><trkpt lat="44.11715" lon="11.998285"><ele>356.0</ele><time>2026-04-26T08:32:49.024Z</time></trkpt><trkpt lat="44.1169833" lon="11.9983017"><ele>355.0</ele><time>2026-04-26T08:32:50.024Z</time></trkpt><trkpt lat="44.1168217" lon="11.9983217"><ele>354.0</ele><time>2026-04-26T08:32:51.024Z</time></trkpt><trkpt lat="44.1166617" lon="11.9983233"><ele>354.0</ele><time>2026-04-26T08:32:52.022Z</time></trkpt><trkpt lat="44.1165217" lon="11.99839"><ele>354.0</ele><time>2026-04-26T08:32:53.024Z</time></trkpt><trkpt lat="44.116395" lon="11.99848"><ele>354.0</ele><time>2026-04-26T08:32:54.025Z</time></trkpt><trkpt lat="44.1162717" lon="11.9985983"><ele>354.0</ele><time>2026-04-26T08:32:55.024Z</time></trkpt><trkpt lat="44.11615" lon="11.9987533"><ele>354.0</ele><time>2026-04-26T08:32:56.022Z</time></trkpt><trkpt lat="44.116025" lon="11.9989167"><ele>354.0</ele><time>2026-04-26T08:32:57.025Z</time></trkpt><trkpt lat="44.115895" lon="11.9990617"><ele>354.0</ele><time>2026-04-26T08:32:58.026Z</time></trkpt><trkpt lat="44.115755" lon="11.9991767"><ele>354.3333333333333</ele><time>2026-04-26T08:32:59.024Z</time></trkpt><trkpt lat="44.1156133" lon="11.99927"><ele>354.66666666666663</ele><time>2026-04-26T08:33:00.022Z</time></trkpt><trkpt lat="44.1154783" lon="11.9993667"><ele>355.0</ele><time>2026-04-26T08:33:01.023Z</time></trkpt><trkpt lat="44.1153417" lon="11.9994417"><ele>355.0</ele><time>2026-04-26T08:33:02.023Z</time></trkpt><trkpt lat="44.1152017" lon="11.9994817"><ele>355.0</ele><time>2026-04-26T08:33:03.026Z</time></trkpt><trkpt lat="44.1151033" lon="11.9996117"><ele>355.0</ele><time>2026-04-26T08:33:04.026Z</time></trkpt><trkpt lat="44.1149883" lon="11.9996767"><ele>355.0</ele><time>2026-04-26T08:33:05.022Z</time></trkpt><trkpt lat="44.1148767" lon="11.9997667"><ele>352.75</ele><time>2026-04-26T08:33:06.023Z</time></trkpt><trkpt lat="44.114775" lon="11.9998617"><ele>350.5</ele><time>2026-04-26T08:33:07.025Z</time></trkpt><trkpt lat="44.1147" lon="11.99998"><ele>348.25</ele><time>2026-04-26T08:33:08.023Z</time></trkpt><trkpt lat="44.1146567" lon="12.0001267"><ele>346.0</ele><time>2026-04-26T08:33:09.023Z</time></trkpt><trkpt lat="44.1146467" lon="12.0002867"><ele>346.0</ele><time>2026-04-26T08:33:10.026Z</time></trkpt><trkpt lat="44.114655" lon="12.0004517"><ele>346.0</ele><time>2026-04-26T08:33:11.026Z</time></trkpt><trkpt lat="44.11467" lon="12.0006283"><ele>346.0</ele><time>2026-04-26T08:33:12.022Z</time></trkpt><trkpt lat="44.1147033" lon="12.000805"><ele>346.0</ele><time>2026-04-26T08:33:13.023Z</time></trkpt><trkpt lat="44.1147517" lon="12.0009767"><ele>344.5</ele><time>2026-04-26T08:33:14.024Z</time></trkpt><trkpt lat="44.114765" lon="12.001145"><ele>343.0</ele><time>2026-04-26T08:33:15.022Z</time></trkpt><trkpt lat="44.1148083" lon="12.0013633"><ele>341.5</ele><time>2026-04-26T08:33:16.024Z</time></trkpt><trkpt lat="44.1148233" lon="12.0015717"><ele>340.0</ele><time>2026-04-26T08:33:17.023Z</time></trkpt><trkpt lat="44.11476" lon="12.0017617"><ele>340.0</ele><time>2026-04-26T08:33:18.023Z</time></trkpt><trkpt lat="44.1147017" lon="12.0019533"><ele>340.0</ele><time>2026-04-26T08:33:19.028Z</time></trkpt><trkpt lat="44.1146917" lon="12.0021633"><ele>340.0</ele><time>2026-04-26T08:33:20.022Z</time></trkpt><trkpt lat="44.11464" lon="12.002305"><ele>340.0</ele><time>2026-04-26T08:33:21.025Z</time></trkpt><trkpt lat="44.11466" lon="12.0024867"><ele>340.3333333333333</ele><time>2026-04-26T08:33:22.023Z</time></trkpt><trkpt lat="44.1146683" lon="12.0026467"><ele>340.66666666666663</ele><time>2026-04-26T08:33:23.024Z</time></trkpt><trkpt lat="44.114675" lon="12.002775"><ele>341.0</ele><time>2026-04-26T08:33:24.023Z</time></trkpt><trkpt lat="44.114675" lon="12.002885"><ele>341.3333333333333</ele><time>2026-04-26T08:33:25.025Z</time></trkpt><trkpt lat="44.114675" lon="12.0029733"><ele>341.6666666666667</ele><time>2026-04-26T08:33:26.022Z</time></trkpt><trkpt lat="44.1146717" lon="12.0031017"><ele>342.0</ele><time>2026-04-26T08:33:28.028Z</time></trkpt><trkpt lat="44.1146933" lon="12.0033033"><ele>343.8</ele><time>2026-04-26T08:36:26.022Z</time></trkpt><trkpt lat="44.1147017" lon="12.0034083"><ele>345.6</ele><time>2026-04-26T08:36:27.023Z</time></trkpt><trkpt lat="44.1147067" lon="12.0035417"><ele>347.40000000000003</ele><time>2026-04-26T08:36:28.027Z</time></trkpt><trkpt lat="44.1147183" lon="12.0037133"><ele>349.20000000000005</ele><time>2026-04-26T08:36:29.029Z</time></trkpt><trkpt lat="44.11471" lon="12.003895"><ele>351.0</ele><time>2026-04-26T08:36:30.026Z</time></trkpt><trkpt lat="44.11471" lon="12.0040717"><ele>352.4</ele><time>2026-04-26T08:36:31.024Z</time></trkpt><trkpt lat="44.1147183" lon="12.0042167"><ele>353.8</ele><time>2026-04-26T08:36:32.027Z</time></trkpt><trkpt lat="44.1147217" lon="12.00434"><ele>355.2</ele><time>2026-04-26T08:36:33.024Z</time></trkpt><trkpt lat="44.114695" lon="12.0044283"><ele>356.59999999999997</ele><time>2026-04-26T08:36:34.026Z</time></trkpt><trkpt lat="44.114595" lon="12.0045283"><ele>358.0</ele><time>2026-04-26T08:36:36.025Z</time></trkpt><trkpt lat="44.1145283" lon="12.0045717"><ele>358.0</ele><time>2026-04-26T08:36:37.024Z</time></trkpt><trkpt lat="44.1144567" lon="12.0046167"><ele>358.0</ele><time>2026-04-26T08:36:38.025Z</time></trkpt><trkpt lat="44.11439" lon="12.004715"><ele>358.0</ele><time>2026-04-26T08:36:39.024Z</time></trkpt><trkpt lat="44.1142667" lon="12.0047667"><ele>358.0</ele><time>2026-04-26T08:36:40.027Z</time></trkpt><trkpt lat="44.1141067" lon="12.0048667"><ele>359.3333333333333</ele><time>2026-04-26T08:36:41.025Z</time></trkpt><trkpt lat="44.113945" lon="12.0049667"><ele>360.6666666666667</ele><time>2026-04-26T08:36:42.024Z</time></trkpt><trkpt lat="44.1138033" lon="12.005075"><ele>362.0</ele><time>2026-04-26T08:36:43.024Z</time></trkpt><trkpt lat="44.113675" lon="12.0051583"><ele>362.0</ele><time>2026-04-26T08:36:44.023Z</time></trkpt><trkpt lat="44.1135633" lon="12.0052083"><ele>362.0</ele><time>2026-04-26T08:36:45.026Z</time></trkpt><trkpt lat="44.1134733" lon="12.0052533"><ele>362.0</ele><time>2026-04-26T08:36:46.025Z</time></trkpt><trkpt lat="44.11342" lon="12.0053317"><ele>362.0</ele><time>2026-04-26T08:36:47.024Z</time></trkpt><trkpt lat="44.1133617" lon="12.005415"><ele>362.0</ele><time>2026-04-26T08:36:48.024Z</time></trkpt><trkpt lat="44.1133117" lon="12.0055167"><ele>362.0</ele><time>2026-04-26T08:36:49.025Z</time></trkpt><trkpt lat="44.1133033" lon="12.0056467"><ele>362.0</ele><time>2026-04-26T08:36:50.025Z</time></trkpt><trkpt lat="44.11327" lon="12.0058283"><ele>362.0</ele><time>2026-04-26T08:36:51.023Z</time></trkpt><trkpt lat="44.1132133" lon="12.0060317"><ele>362.0</ele><time>2026-04-26T08:36:52.024Z</time></trkpt><trkpt lat="44.1132333" lon="12.006225"><ele>361.0</ele><time>2026-04-26T08:36:53.023Z</time></trkpt><trkpt lat="44.1131817" lon="12.0064133"><ele>360.0</ele><time>2026-04-26T08:36:54.025Z</time></trkpt><trkpt lat="44.11314" lon="12.0065917"><ele>359.0</ele><time>2026-04-26T08:36:55.025Z</time></trkpt><trkpt lat="44.1131317" lon="12.006765"><ele>358.0</ele><time>2026-04-26T08:36:56.025Z</time></trkpt><trkpt lat="44.1131367" lon="12.0069317"><ele>358.0</ele><time>2026-04-26T08:36:57.024Z</time></trkpt><trkpt lat="44.1131" lon="12.00709"><ele>358.0</ele><time>2026-04-26T08:36:58.024Z</time></trkpt><trkpt lat="44.1130717" lon="12.00724"><ele>358.0</ele><time>2026-04-26T08:36:59.023Z</time></trkpt><trkpt lat="44.113055" lon="12.0073917"><ele>358.0</ele><time>2026-04-26T08:37:00.025Z</time></trkpt><trkpt lat="44.1130233" lon="12.00755"><ele>359.79999999999995</ele><time>2026-04-26T08:37:01.024Z</time></trkpt><trkpt lat="44.11299" lon="12.0077083"><ele>361.6</ele><time>2026-04-26T08:37:02.028Z</time></trkpt><trkpt lat="44.1129467" lon="12.00786"><ele>363.4</ele><time>2026-04-26T08:37:03.023Z</time></trkpt><trkpt lat="44.1128917" lon="12.007985"><ele>365.20000000000005</ele><time>2026-04-26T08:37:04.022Z</time></trkpt><trkpt lat="44.112835" lon="12.0080967"><ele>367.0</ele><time>2026-04-26T08:37:05.022Z</time></trkpt><trkpt lat="44.112755" lon="12.0081717"><ele>367.0</ele><time>2026-04-26T08:37:06.023Z</time></trkpt><trkpt lat="44.1126833" lon="12.0082683"><ele>367.0</ele><time>2026-04-26T08:37:07.023Z</time></trkpt><trkpt lat="44.1125967" lon="12.0083317"><ele>367.0</ele><time>2026-04-26T08:37:08.024Z</time></trkpt><trkpt lat="44.1125167" lon="12.0084083"><ele>367.0</ele><time>2026-04-26T08:37:09.023Z</time></trkpt><trkpt lat="44.1124467" lon="12.0084933"><ele>367.0</ele><time>2026-04-26T08:37:10.03Z</time></trkpt><trkpt lat="44.112375" lon="12.00857"><ele>366.8333333333333</ele><time>2026-04-26T08:37:11.024Z</time></trkpt><trkpt lat="44.1123" lon="12.0086367"><ele>366.66666666666663</ele><time>2026-04-26T08:37:12.023Z</time></trkpt><trkpt lat="44.1122383" lon="12.0087233"><ele>366.5</ele><time>2026-04-26T08:37:13.024Z</time></trkpt><trkpt lat="44.1121667" lon="12.00879"><ele>366.3333333333333</ele><time>2026-04-26T08:37:14.025Z</time></trkpt><trkpt lat="44.1121033" lon="12.0088683"><ele>366.1666666666667</ele><time>2026-04-26T08:37:15.027Z</time></trkpt><trkpt lat="44.112035" lon="12.00895"><ele>366.0</ele><time>2026-04-26T08:37:16.024Z</time></trkpt><trkpt lat="44.1119667" lon="12.009035"><ele>366.0</ele><time>2026-04-26T08:37:17.025Z</time></trkpt><trkpt lat="44.1118933" lon="12.0091117"><ele>366.0</ele><time>2026-04-26T08:37:18.024Z</time></trkpt><trkpt lat="44.111825" lon="12.0091983"><ele>366.0</ele><time>2026-04-26T08:37:19.026Z</time></trkpt><trkpt lat="44.1117617" lon="12.0092983"><ele>366.0</ele><time>2026-04-26T08:37:20.024Z</time></trkpt><trkpt lat="44.1116767" lon="12.0093733"><ele>366.0</ele><time>2026-04-26T08:37:21.025Z</time></trkpt><trkpt lat="44.1116217" lon="12.0094983"><ele>365.8</ele><time>2026-04-26T08:37:22.025Z</time></trkpt><trkpt lat="44.1115183" lon="12.009555"><ele>365.6</ele><time>2026-04-26T08:37:23.024Z</time></trkpt><trkpt lat="44.1114733" lon="12.0096733"><ele>365.4</ele><time>2026-04-26T08:37:24.025Z</time></trkpt><trkpt lat="44.111415" lon="12.009785"><ele>365.2</ele><time>2026-04-26T08:37:25.022Z</time></trkpt><trkpt lat="44.111355" lon="12.0099067"><ele>365.0</ele><time>2026-04-26T08:37:26.025Z</time></trkpt><trkpt lat="44.1113133" lon="12.01006"><ele>365.0</ele><time>2026-04-26T08:37:27.023Z</time></trkpt><trkpt lat="44.1112917" lon="12.0102433"><ele>365.0</ele><time>2026-04-26T08:37:28.023Z</time></trkpt><trkpt lat="44.111245" lon="12.0104183"><ele>365.0</ele><time>2026-04-26T08:37:29.025Z</time></trkpt><trkpt lat="44.1111933" lon="12.0105983"><ele>365.0</ele><time>2026-04-26T08:37:30.026Z</time></trkpt><trkpt lat="44.1111433" lon="12.0107733"><ele>366.25</ele><time>2026-04-26T08:37:31.026Z</time></trkpt><trkpt lat="44.1110683" lon="12.0109183"><ele>367.5</ele><time>2026-04-26T08:37:32.024Z</time></trkpt><trkpt lat="44.1110067" lon="12.0110583"><ele>368.75</ele><time>2026-04-26T08:37:33.023Z</time></trkpt><trkpt lat="44.1109467" lon="12.0111833"><ele>370.0</ele><time>2026-04-26T08:37:34.028Z</time></trkpt><trkpt lat="44.11088" lon="12.0112933"><ele>370.0</ele><time>2026-04-26T08:37:35.024Z</time></trkpt><trkpt lat="44.1108217" lon="12.0113967"><ele>370.0</ele><time>2026-04-26T08:37:36.025Z</time></trkpt><trkpt lat="44.11078" lon="12.0115183"><ele>370.0</ele><time>2026-04-26T08:37:37.023Z</time></trkpt><trkpt lat="44.1107167" lon="12.0116083"><ele>370.0</ele><time>2026-04-26T08:37:38.023Z</time></trkpt><trkpt lat="44.1106817" lon="12.0116967"><ele>370.0</ele><time>2026-04-26T08:37:39.025Z</time></trkpt><trkpt lat="44.1105967" lon="12.01171"><ele>370.0</ele><time>2026-04-26T08:37:40.025Z</time></trkpt><trkpt lat="44.1105483" lon="12.0117833"><ele>368.6</ele><time>2026-04-26T08:37:41.026Z</time></trkpt><trkpt lat="44.1104733" lon="12.01191"><ele>367.2</ele><time>2026-04-26T08:37:43.024Z</time></trkpt><trkpt lat="44.1104" lon="12.012035"><ele>365.79999999999995</ele><time>2026-04-26T08:37:45.023Z</time></trkpt><trkpt lat="44.1103433" lon="12.0121"><ele>364.4</ele><time>2026-04-26T08:37:46.023Z</time></trkpt><trkpt lat="44.110275" lon="12.0121617"><ele>363.0</ele><time>2026-04-26T08:37:47.022Z</time></trkpt><trkpt lat="44.110205" lon="12.0122217"><ele>363.0</ele><time>2026-04-26T08:37:48.023Z</time></trkpt><trkpt lat="44.1101483" lon="12.0123"><ele>363.0</ele><time>2026-04-26T08:37:49.026Z</time></trkpt><trkpt lat="44.1100733" lon="12.0123283"><ele>363.0</ele><time>2026-04-26T08:37:50.023Z</time></trkpt><trkpt lat="44.1099983" lon="12.0123667"><ele>363.0</ele><time>2026-04-26T08:37:51.023Z</time></trkpt><trkpt lat="44.1099133" lon="12.01241"><ele>363.0</ele><time>2026-04-26T08:37:52.024Z</time></trkpt><trkpt lat="44.1098017" lon="12.0124383"><ele>363.0</ele><time>2026-04-26T08:37:53.026Z</time></trkpt><trkpt lat="44.10969" lon="12.012465"><ele>363.25</ele><time>2026-04-26T08:37:54.025Z</time></trkpt><trkpt lat="44.10958" lon="12.01249"><ele>363.5</ele><time>2026-04-26T08:37:55.023Z</time></trkpt><trkpt lat="44.1094633" lon="12.0125"><ele>363.75</ele><time>2026-04-26T08:37:56.023Z</time></trkpt><trkpt lat="44.1093483" lon="12.012525"><ele>364.0</ele><time>2026-04-26T08:37:57.023Z</time></trkpt><trkpt lat="44.1092283" lon="12.0125767"><ele>364.0</ele><time>2026-04-26T08:37:58.026Z</time></trkpt><trkpt lat="44.1091033" lon="12.0125783"><ele>364.0</ele><time>2026-04-26T08:37:59.022Z</time></trkpt><trkpt lat="44.1089683" lon="12.0125517"><ele>364.0</ele><time>2026-04-26T08:38:00.028Z</time></trkpt><trkpt lat="44.1088283" lon="12.01255"><ele>364.0</ele><time>2026-04-26T08:38:01.022Z</time></trkpt><trkpt lat="44.108685" lon="12.0125217"><ele>364.25</ele><time>2026-04-26T08:38:02.022Z</time></trkpt><trkpt lat="44.10855" lon="12.0125033"><ele>364.5</ele><time>2026-04-26T08:38:03.023Z</time></trkpt><trkpt lat="44.1084133" lon="12.01249"><ele>364.75</ele><time>2026-04-26T08:38:04.024Z</time></trkpt><trkpt lat="44.10828" lon="12.012455"><ele>365.0</ele><time>2026-04-26T08:38:05.025Z</time></trkpt><trkpt lat="44.1081483" lon="12.0124317"><ele>363.25</ele><time>2026-04-26T08:38:06.023Z</time></trkpt><trkpt lat="44.1080183" lon="12.0123967"><ele>361.5</ele><time>2026-04-26T08:38:07.022Z</time></trkpt><trkpt lat="44.1078817" lon="12.012345"><ele>359.75</ele><time>2026-04-26T08:38:08.022Z</time></trkpt><trkpt lat="44.10774" lon="12.01236"><ele>358.0</ele><time>2026-04-26T08:38:09.023Z</time></trkpt><trkpt lat="44.10761" lon="12.01229"><ele>358.0</ele><time>2026-04-26T08:38:10.023Z</time></trkpt><trkpt lat="44.10747" lon="12.012285"><ele>358.0</ele><time>2026-04-26T08:38:11.026Z</time></trkpt><trkpt lat="44.107335" lon="12.012255"><ele>358.0</ele><time>2026-04-26T08:38:12.023Z</time></trkpt><trkpt lat="44.1072" lon="12.0122233"><ele>358.0</ele><time>2026-04-26T08:38:13.024Z</time></trkpt><trkpt lat="44.107065" lon="12.0121967"><ele>359.0</ele><time>2026-04-26T08:38:14.023Z</time></trkpt><trkpt lat="44.10693" lon="12.01217"><ele>360.0</ele><time>2026-04-26T08:38:15.022Z</time></trkpt><trkpt lat="44.1068" lon="12.012125"><ele>361.0</ele><time>2026-04-26T08:38:16.024Z</time></trkpt><trkpt lat="44.1066617" lon="12.0121267"><ele>362.0</ele><time>2026-04-26T08:38:17.022Z</time></trkpt><trkpt lat="44.1065283" lon="12.0120783"><ele>363.5</ele><time>2026-04-26T08:38:18.024Z</time></trkpt><trkpt lat="44.1063933" lon="12.01199"><ele>365.0</ele><time>2026-04-26T08:38:19.023Z</time></trkpt><trkpt lat="44.106245" lon="12.01202"><ele>366.5</ele><time>2026-04-26T08:38:20.023Z</time></trkpt><trkpt lat="44.1061133" lon="12.01192"><ele>368.0</ele><time>2026-04-26T08:38:21.022Z</time></trkpt><trkpt lat="44.10599" lon="12.0118133"><ele>368.0</ele><time>2026-04-26T08:38:22.022Z</time></trkpt><trkpt lat="44.1058617" lon="12.01172"><ele>368.0</ele><time>2026-04-26T08:38:23.023Z</time></trkpt><trkpt lat="44.1057367" lon="12.0116133"><ele>368.0</ele><time>2026-04-26T08:38:24.022Z</time></trkpt><trkpt lat="44.1056033" lon="12.0115183"><ele>368.0</ele><time>2026-04-26T08:38:25.024Z</time></trkpt><trkpt lat="44.105465" lon="12.0114083"><ele>366.33333333333337</ele><time>2026-04-26T08:38:26.022Z</time></trkpt><trkpt lat="44.1053267" lon="12.01131"><ele>364.6666666666667</ele><time>2026-04-26T08:38:27.022Z</time></trkpt><trkpt lat="44.105185" lon="12.0112017"><ele>363.0</ele><time>2026-04-26T08:38:28.022Z</time></trkpt><trkpt lat="44.1050417" lon="12.0111083"><ele>362.0</ele><time>2026-04-26T08:38:29.024Z</time></trkpt><trkpt lat="44.1049" lon="12.0110417"><ele>361.0</ele><time>2026-04-26T08:38:30.023Z</time></trkpt><trkpt lat="44.1047817" lon="12.0109283"><ele>360.0</ele><time>2026-04-26T08:38:31.027Z</time></trkpt><trkpt lat="44.10464" lon="12.0108583"><ele>359.0</ele><time>2026-04-26T08:38:32.023Z</time></trkpt><trkpt lat="44.1044933" lon="12.0108133"><ele>356.33333333333337</ele><time>2026-04-26T08:38:33.023Z</time></trkpt><trkpt lat="44.104335" lon="12.0107833"><ele>353.6666666666667</ele><time>2026-04-26T08:38:34.023Z</time></trkpt><trkpt lat="44.1041783" lon="12.010775"><ele>351.0</ele><time>2026-04-26T08:38:35.023Z</time></trkpt><trkpt lat="44.1040283" lon="12.0107767"><ele>351.0</ele><time>2026-04-26T08:38:36.022Z</time></trkpt><trkpt lat="44.1038817" lon="12.0107867"><ele>351.0</ele><time>2026-04-26T08:38:37.022Z</time></trkpt><trkpt lat="44.1037367" lon="12.0107533"><ele>351.0</ele><time>2026-04-26T08:38:38.022Z</time></trkpt><trkpt lat="44.1035983" lon="12.010705"><ele>351.0</ele><time>2026-04-26T08:38:39.023Z</time></trkpt><trkpt lat="44.1034733" lon="12.01062"><ele>351.0</ele><time>2026-04-26T08:38:40.023Z</time></trkpt><trkpt lat="44.10337" lon="12.0105017"><ele>351.0</ele><time>2026-04-26T08:38:41.026Z</time></trkpt><trkpt lat="44.103285" lon="12.0103717"><ele>351.0</ele><time>2026-04-26T08:38:42.023Z</time></trkpt><trkpt lat="44.1032033" lon="12.0102583"><ele>351.0</ele><time>2026-04-26T08:38:43.024Z</time></trkpt><trkpt lat="44.1031033" lon="12.0101683"><ele>350.75</ele><time>2026-04-26T08:38:44.023Z</time></trkpt><trkpt lat="44.10299" lon="12.0101"><ele>350.5</ele><time>2026-04-26T08:38:45.024Z</time></trkpt><trkpt lat="44.10286" lon="12.010045"><ele>350.25</ele><time>2026-04-26T08:38:46.024Z</time></trkpt><trkpt lat="44.1027267" lon="12.0099967"><ele>350.0</ele><time>2026-04-26T08:38:47.022Z</time></trkpt><trkpt lat="44.1025917" lon="12.009945"><ele>349.25</ele><time>2026-04-26T08:38:48.02Z</time></trkpt><trkpt lat="44.1024567" lon="12.009895"><ele>348.5</ele><time>2026-04-26T08:38:49.024Z</time></trkpt><trkpt lat="44.1023167" lon="12.009865"><ele>347.75</ele><time>2026-04-26T08:38:50.026Z</time></trkpt><trkpt lat="44.102185" lon="12.0098233"><ele>347.0</ele><time>2026-04-26T08:38:51.024Z</time></trkpt><trkpt lat="44.1020567" lon="12.009775"><ele>347.0</ele><time>2026-04-26T08:38:52.023Z</time></trkpt><trkpt lat="44.1019217" lon="12.00972"><ele>347.0</ele><time>2026-04-26T08:38:53.025Z</time></trkpt><trkpt lat="44.101775" lon="12.0097133"><ele>347.0</ele><time>2026-04-26T08:38:54.023Z</time></trkpt><trkpt lat="44.101635" lon="12.0096867"><ele>347.0</ele><time>2026-04-26T08:38:55.023Z</time></trkpt><trkpt lat="44.101515" lon="12.009615"><ele>350.6666666666667</ele><time>2026-04-26T08:38:56.023Z</time></trkpt><trkpt lat="44.1014133" lon="12.0095317"><ele>354.3333333333333</ele><time>2026-04-26T08:38:57.023Z</time></trkpt><trkpt lat="44.1013483" lon="12.009415"><ele>358.0</ele><time>2026-04-26T08:38:58.024Z</time></trkpt><trkpt lat="44.1012217" lon="12.009073"><ele>359.75</ele><time>2026-04-26T08:39:01.147Z</time></trkpt><trkpt lat="44.1011846" lon="12.0088658"><ele>361.5</ele><time>2026-04-26T08:39:02.524Z</time></trkpt><trkpt lat="44.1011316" lon="12.0086803"><ele>363.25</ele><time>2026-04-26T08:39:04.023Z</time></trkpt><trkpt lat="44.1010928" lon="12.0085673"><ele>365.0</ele><time>2026-04-26T08:39:05.024Z</time></trkpt><trkpt lat="44.1010442" lon="12.0084426"><ele>365.0</ele><time>2026-04-26T08:39:06.023Z</time></trkpt><trkpt lat="44.1009815" lon="12.0083331"><ele>365.0</ele><time>2026-04-26T08:39:07.023Z</time></trkpt><trkpt lat="44.1009208" lon="12.0082302"><ele>365.0</ele><time>2026-04-26T08:39:08.024Z</time></trkpt><trkpt lat="44.1008495" lon="12.0081325"><ele>365.0</ele><time>2026-04-26T08:39:09.023Z</time></trkpt><trkpt lat="44.1007353" lon="12.0080442"><ele>365.0</ele><time>2026-04-26T08:39:10.023Z</time></trkpt><trkpt lat="44.1006133" lon="12.0079669"><ele>366.5</ele><time>2026-04-26T08:39:11.027Z</time></trkpt><trkpt lat="44.1004835" lon="12.0078904"><ele>368.0</ele><time>2026-04-26T08:39:12.024Z</time></trkpt><trkpt lat="44.1003538" lon="12.0078303"><ele>369.5</ele><time>2026-04-26T08:39:13.026Z</time></trkpt><trkpt lat="44.1002219" lon="12.0077849"><ele>371.0</ele><time>2026-04-26T08:39:14.023Z</time></trkpt><trkpt lat="44.1000893" lon="12.0077453"><ele>371.0</ele><time>2026-04-26T08:39:15.026Z</time></trkpt><trkpt lat="44.0999521" lon="12.0077018"><ele>371.0</ele><time>2026-04-26T08:39:16.024Z</time></trkpt><trkpt lat="44.0998149" lon="12.0076502"><ele>371.0</ele><time>2026-04-26T08:39:17.022Z</time></trkpt><trkpt lat="44.0996881" lon="12.0075943"><ele>371.0</ele><time>2026-04-26T08:39:18.025Z</time></trkpt><trkpt lat="44.0995672" lon="12.0075305"><ele>373.25</ele><time>2026-04-26T08:39:19.024Z</time></trkpt><trkpt lat="44.0994488" lon="12.0074552"><ele>375.5</ele><time>2026-04-26T08:39:20.025Z</time></trkpt><trkpt lat="44.0993339" lon="12.0073635"><ele>377.75</ele><time>2026-04-26T08:39:21.028Z</time></trkpt><trkpt lat="44.0992278" lon="12.007263"><ele>380.0</ele><time>2026-04-26T08:39:22.026Z</time></trkpt><trkpt lat="44.0991277" lon="12.0071551"><ele>377.25</ele><time>2026-04-26T08:39:23.023Z</time></trkpt><trkpt lat="44.0990347" lon="12.0070493"><ele>374.5</ele><time>2026-04-26T08:39:24.028Z</time></trkpt><trkpt lat="44.0989398" lon="12.0069441"><ele>371.75</ele><time>2026-04-26T08:39:25.024Z</time></trkpt><trkpt lat="44.0988395" lon="12.0068428"><ele>369.0</ele><time>2026-04-26T08:39:26.022Z</time></trkpt><trkpt lat="44.0987309" lon="12.0067484"><ele>368.75</ele><time>2026-04-26T08:39:27.024Z</time></trkpt><trkpt lat="44.0986064" lon="12.0066593"><ele>368.5</ele><time>2026-04-26T08:39:28.022Z</time></trkpt><trkpt lat="44.0984683" lon="12.0065763"><ele>368.25</ele><time>2026-04-26T08:39:29.022Z</time></trkpt><trkpt lat="44.0983229" lon="12.0064949"><ele>368.0</ele><time>2026-04-26T08:39:30.028Z</time></trkpt><trkpt lat="44.0981802" lon="12.0064172"><ele>368.0</ele><time>2026-04-26T08:39:31.025Z</time></trkpt><trkpt lat="44.0980422" lon="12.0063416"><ele>368.0</ele><time>2026-04-26T08:39:32.023Z</time></trkpt><trkpt lat="44.0979079" lon="12.0062635"><ele>368.0</ele><time>2026-04-26T08:39:33.023Z</time></trkpt><trkpt lat="44.0977719" lon="12.0061828"><ele>368.0</ele><time>2026-04-26T08:39:34.027Z</time></trkpt><trkpt lat="44.0976377" lon="12.0061076"><ele>368.0</ele><time>2026-04-26T08:39:35.024Z</time></trkpt><trkpt lat="44.0975029" lon="12.0060428"><ele>368.0</ele><time>2026-04-26T08:39:36.025Z</time></trkpt><trkpt lat="44.0973691" lon="12.0059888"><ele>368.0</ele><time>2026-04-26T08:39:37.026Z</time></trkpt><trkpt lat="44.0972302" lon="12.0059404"><ele>368.0</ele><time>2026-04-26T08:39:38.025Z</time></trkpt><trkpt lat="44.0970891" lon="12.0058925"><ele>369.33333333333337</ele><time>2026-04-26T08:39:39.024Z</time></trkpt><trkpt lat="44.0969417" lon="12.0058488"><ele>370.6666666666667</ele><time>2026-04-26T08:39:40.024Z</time></trkpt><trkpt lat="44.0967908" lon="12.0058151"><ele>372.0</ele><time>2026-04-26T08:39:41.022Z</time></trkpt><trkpt lat="44.09664" lon="12.0057798"><ele>375.5</ele><time>2026-04-26T08:39:42.022Z</time></trkpt><trkpt lat="44.096497" lon="12.0057378"><ele>379.0</ele><time>2026-04-26T08:39:43.025Z</time></trkpt><trkpt lat="44.0963654" lon="12.0056888"><ele>382.5</ele><time>2026-04-26T08:39:44.024Z</time></trkpt><trkpt lat="44.0962505" lon="12.0056213"><ele>386.0</ele><time>2026-04-26T08:39:45.026Z</time></trkpt><trkpt lat="44.0961733" lon="12.0055233"><ele>385.99999999999994</ele><time>2026-04-26T08:39:46.026Z</time></trkpt><trkpt lat="44.0961267" lon="12.0054467"><ele>386.0</ele><time>2026-04-26T08:39:47.025Z</time></trkpt><trkpt lat="44.0960767" lon="12.0053283"><ele>386.0</ele><time>2026-04-26T08:39:49.028Z</time></trkpt><trkpt lat="44.0960383" lon="12.0052167"><ele>386.0</ele><time>2026-04-26T08:39:51.025Z</time></trkpt><trkpt lat="44.096005" lon="12.0051083"><ele>385.99999999999994</ele><time>2026-04-26T08:39:53.026Z</time></trkpt><trkpt lat="44.0959717" lon="12.0049767"><ele>386.0</ele><time>2026-04-26T08:39:55.026Z</time></trkpt><trkpt lat="44.0959533" lon="12.0048917"><ele>385.66666666666663</ele><time>2026-04-26T08:39:56.024Z</time></trkpt><trkpt lat="44.0959283" lon="12.004795"><ele>385.3333333333333</ele><time>2026-04-26T08:39:57.026Z</time></trkpt><trkpt lat="44.0958983" lon="12.0046883"><ele>385.0</ele><time>2026-04-26T08:39:58.024Z</time></trkpt><trkpt lat="44.0958667" lon="12.004575"><ele>384.66666666666663</ele><time>2026-04-26T08:39:59.024Z</time></trkpt><trkpt lat="44.0958317" lon="12.0044633"><ele>384.3333333333333</ele><time>2026-04-26T08:40:00.028Z</time></trkpt><trkpt lat="44.0957817" lon="12.00435"><ele>384.0</ele><time>2026-04-26T08:40:01.024Z</time></trkpt><trkpt lat="44.0957233" lon="12.00425"><ele>383.4</ele><time>2026-04-26T08:40:02.022Z</time></trkpt><trkpt lat="44.0956517" lon="12.0041817"><ele>382.79999999999995</ele><time>2026-04-26T08:40:03.027Z</time></trkpt><trkpt lat="44.0955583" lon="12.0041483"><ele>382.20000000000005</ele><time>2026-04-26T08:40:04.024Z</time></trkpt><trkpt lat="44.0954367" lon="12.0041667"><ele>381.6</ele><time>2026-04-26T08:40:05.024Z</time></trkpt><trkpt lat="44.0953033" lon="12.0041983"><ele>381.0</ele><time>2026-04-26T08:40:06.029Z</time></trkpt><trkpt lat="44.09517" lon="12.004235"><ele>383.5</ele><time>2026-04-26T08:40:07.024Z</time></trkpt><trkpt lat="44.095035" lon="12.004265"><ele>386.0</ele><time>2026-04-26T08:40:08.024Z</time></trkpt><trkpt lat="44.0949033" lon="12.0042917"><ele>388.5</ele><time>2026-04-26T08:40:09.025Z</time></trkpt><trkpt lat="44.09478" lon="12.0043067"><ele>391.0</ele><time>2026-04-26T08:40:10.023Z</time></trkpt><trkpt lat="44.09466" lon="12.0042933"><ele>391.75</ele><time>2026-04-26T08:40:11.025Z</time></trkpt><trkpt lat="44.0945333" lon="12.004245"><ele>392.5</ele><time>2026-04-26T08:40:12.023Z</time></trkpt><trkpt lat="44.0944067" lon="12.0041633"><ele>393.25</ele><time>2026-04-26T08:40:13.023Z</time></trkpt><trkpt lat="44.094275" lon="12.0040717"><ele>394.0</ele><time>2026-04-26T08:40:14.023Z</time></trkpt><trkpt lat="44.0941417" lon="12.0039683"><ele>397.0</ele><time>2026-04-26T08:40:15.023Z</time></trkpt><trkpt lat="44.0940117" lon="12.003875"><ele>400.0</ele><time>2026-04-26T08:40:16.023Z</time></trkpt><trkpt lat="44.09389" lon="12.0037933"><ele>403.0</ele><time>2026-04-26T08:40:17.023Z</time></trkpt><trkpt lat="44.0937717" lon="12.003735"><ele>406.0</ele><time>2026-04-26T08:40:18.024Z</time></trkpt><trkpt lat="44.0936567" lon="12.0037067"><ele>406.0</ele><time>2026-04-26T08:40:19.028Z</time></trkpt><trkpt lat="44.0935383" lon="12.0037183"><ele>406.0</ele><time>2026-04-26T08:40:20.024Z</time></trkpt><trkpt lat="44.0934167" lon="12.0037833"><ele>406.0</ele><time>2026-04-26T08:40:21.023Z</time></trkpt><trkpt lat="44.0932967" lon="12.0038867"><ele>406.0</ele><time>2026-04-26T08:40:22.024Z</time></trkpt><trkpt lat="44.0931717" lon="12.0040067"><ele>408.6666666666667</ele><time>2026-04-26T08:40:23.023Z</time></trkpt><trkpt lat="44.0930367" lon="12.004135"><ele>411.33333333333337</ele><time>2026-04-26T08:40:24.024Z</time></trkpt><trkpt lat="44.0928933" lon="12.0042683"><ele>414.0</ele><time>2026-04-26T08:40:25.025Z</time></trkpt><trkpt lat="44.0927467" lon="12.0044033"><ele>414.0</ele><time>2026-04-26T08:40:26.024Z</time></trkpt><trkpt lat="44.0926067" lon="12.0045367"><ele>414.0</ele><time>2026-04-26T08:40:27.025Z</time></trkpt><trkpt lat="44.0924817" lon="12.0046583"><ele>414.0</ele><time>2026-04-26T08:40:28.025Z</time></trkpt><trkpt lat="44.092365" lon="12.0047717"><ele>415.79999999999995</ele><time>2026-04-26T08:40:29.025Z</time></trkpt><trkpt lat="44.0922633" lon="12.0048683"><ele>417.59999999999997</ele><time>2026-04-26T08:40:30.022Z</time></trkpt><trkpt lat="44.092165" lon="12.0049383"><ele>419.4</ele><time>2026-04-26T08:40:31.03Z</time></trkpt><trkpt lat="44.0920683" lon="12.0049667"><ele>421.2</ele><time>2026-04-26T08:40:32.024Z</time></trkpt><trkpt lat="44.0919767" lon="12.0049483"><ele>423.0</ele><time>2026-04-26T08:40:33.024Z</time></trkpt><trkpt lat="44.0918917" lon="12.004895"><ele>423.0</ele><time>2026-04-26T08:40:34.024Z</time></trkpt><trkpt lat="44.0918067" lon="12.00482"><ele>423.0</ele><time>2026-04-26T08:40:35.025Z</time></trkpt><trkpt lat="44.0917283" lon="12.0047367"><ele>423.0</ele><time>2026-04-26T08:40:36.022Z</time></trkpt><trkpt lat="44.0916533" lon="12.004645"><ele>423.0</ele><time>2026-04-26T08:40:37.022Z</time></trkpt><trkpt lat="44.0915767" lon="12.0045467"><ele>423.0</ele><time>2026-04-26T08:40:38.024Z</time></trkpt><trkpt lat="44.0914967" lon="12.0044433"><ele>424.5</ele><time>2026-04-26T08:40:39.022Z</time></trkpt><trkpt lat="44.091415" lon="12.0043233"><ele>426.0</ele><time>2026-04-26T08:40:40.023Z</time></trkpt><trkpt lat="44.0913267" lon="12.0041967"><ele>427.5</ele><time>2026-04-26T08:40:41.022Z</time></trkpt><trkpt lat="44.0912267" lon="12.00407"><ele>429.0</ele><time>2026-04-26T08:40:42.027Z</time></trkpt><trkpt lat="44.091125" lon="12.003955"><ele>429.0</ele><time>2026-04-26T08:40:43.023Z</time></trkpt><trkpt lat="44.0910183" lon="12.00385"><ele>429.0</ele><time>2026-04-26T08:40:44.023Z</time></trkpt><trkpt lat="44.0909183" lon="12.003745"><ele>429.0</ele><time>2026-04-26T08:40:45.024Z</time></trkpt><trkpt lat="44.0908283" lon="12.0036533"><ele>429.0</ele><time>2026-04-26T08:40:46.024Z</time></trkpt><trkpt lat="44.0907467" lon="12.003595"><ele>429.6</ele><time>2026-04-26T08:40:47.022Z</time></trkpt><trkpt lat="44.090665" lon="12.0035733"><ele>430.2</ele><time>2026-04-26T08:40:48.026Z</time></trkpt><trkpt lat="44.0905767" lon="12.0035833"><ele>430.80000000000007</ele><time>2026-04-26T08:40:49.025Z</time></trkpt><trkpt lat="44.0904933" lon="12.003675"><ele>431.40000000000003</ele><time>2026-04-26T08:40:50.024Z</time></trkpt><trkpt lat="44.090425" lon="12.0037817"><ele>432.0</ele><time>2026-04-26T08:40:51.024Z</time></trkpt><trkpt lat="44.0903633" lon="12.003885"><ele>432.0</ele><time>2026-04-26T08:40:52.024Z</time></trkpt><trkpt lat="44.0903017" lon="12.0039833"><ele>432.00000000000006</ele><time>2026-04-26T08:40:53.023Z</time></trkpt><trkpt lat="44.0902283" lon="12.0040667"><ele>432.00000000000006</ele><time>2026-04-26T08:40:54.024Z</time></trkpt><trkpt lat="44.0901433" lon="12.004125"><ele>432.0</ele><time>2026-04-26T08:40:55.024Z</time></trkpt><trkpt lat="44.0900433" lon="12.00415"><ele>432.0</ele><time>2026-04-26T08:40:56.023Z</time></trkpt><trkpt lat="44.0899533" lon="12.0041167"><ele>430.25</ele><time>2026-04-26T08:40:57.024Z</time></trkpt><trkpt lat="44.089855" lon="12.004065"><ele>428.5</ele><time>2026-04-26T08:40:58.022Z</time></trkpt><trkpt lat="44.0897467" lon="12.004"><ele>426.75</ele><time>2026-04-26T08:40:59.023Z</time></trkpt><trkpt lat="44.0896333" lon="12.003925"><ele>425.0</ele><time>2026-04-26T08:41:00.024Z</time></trkpt><trkpt lat="44.0895133" lon="12.0038433"><ele>425.0</ele><time>2026-04-26T08:41:01.025Z</time></trkpt><trkpt lat="44.0893883" lon="12.0037633"><ele>425.0</ele><time>2026-04-26T08:41:02.024Z</time></trkpt><trkpt lat="44.089265" lon="12.00368"><ele>425.0</ele><time>2026-04-26T08:41:03.025Z</time></trkpt><trkpt lat="44.0891483" lon="12.0036017"><ele>425.0</ele><time>2026-04-26T08:41:04.022Z</time></trkpt><trkpt lat="44.0890383" lon="12.003525"><ele>425.2</ele><time>2026-04-26T08:41:05.025Z</time></trkpt><trkpt lat="44.0889333" lon="12.0034733"><ele>425.4</ele><time>2026-04-26T08:41:06.022Z</time></trkpt><trkpt lat="44.0888367" lon="12.0034633"><ele>425.6</ele><time>2026-04-26T08:41:07.027Z</time></trkpt><trkpt lat="44.0887533" lon="12.0034983"><ele>425.8</ele><time>2026-04-26T08:41:08.024Z</time></trkpt><trkpt lat="44.088675" lon="12.003575"><ele>426.0</ele><time>2026-04-26T08:41:09.025Z</time></trkpt><trkpt lat="44.088605" lon="12.00369"><ele>426.0</ele><time>2026-04-26T08:41:10.025Z</time></trkpt><trkpt lat="44.0885267" lon="12.0038167"><ele>426.0</ele><time>2026-04-26T08:41:11.025Z</time></trkpt><trkpt lat="44.0884567" lon="12.0039467"><ele>426.0</ele><time>2026-04-26T08:41:12.022Z</time></trkpt><trkpt lat="44.0883883" lon="12.00406"><ele>426.0</ele><time>2026-04-26T08:41:13.025Z</time></trkpt><trkpt lat="44.0883233" lon="12.004155"><ele>426.0</ele><time>2026-04-26T08:41:14.024Z</time></trkpt><trkpt lat="44.0882533" lon="12.00423"><ele>425.4</ele><time>2026-04-26T08:41:15.025Z</time></trkpt><trkpt lat="44.088175" lon="12.0042883"><ele>424.8</ele><time>2026-04-26T08:41:16.023Z</time></trkpt><trkpt lat="44.08809" lon="12.0042767"><ele>424.2</ele><time>2026-04-26T08:41:17.027Z</time></trkpt><trkpt lat="44.0879967" lon="12.00426"><ele>423.59999999999997</ele><time>2026-04-26T08:41:18.025Z</time></trkpt><trkpt lat="44.0879133" lon="12.004185"><ele>423.0</ele><time>2026-04-26T08:41:19.024Z</time></trkpt><trkpt lat="44.087825" lon="12.004105"><ele>424.79999999999995</ele><time>2026-04-26T08:41:20.023Z</time></trkpt><trkpt lat="44.087735" lon="12.00402"><ele>426.6</ele><time>2026-04-26T08:41:21.029Z</time></trkpt><trkpt lat="44.087645" lon="12.0039383"><ele>428.40000000000003</ele><time>2026-04-26T08:41:22.024Z</time></trkpt><trkpt lat="44.08755" lon="12.0038733"><ele>430.20000000000005</ele><time>2026-04-26T08:41:23.026Z</time></trkpt><trkpt lat="44.0874583" lon="12.0038583"><ele>432.0</ele><time>2026-04-26T08:41:24.022Z</time></trkpt><trkpt lat="44.08737" lon="12.00388"><ele>432.8</ele><time>2026-04-26T08:41:25.024Z</time></trkpt><trkpt lat="44.08728" lon="12.00394"><ele>433.6</ele><time>2026-04-26T08:41:26.023Z</time></trkpt><trkpt lat="44.0871883" lon="12.0040217"><ele>434.40000000000003</ele><time>2026-04-26T08:41:27.024Z</time></trkpt><trkpt lat="44.087095" lon="12.0041067"><ele>435.20000000000005</ele><time>2026-04-26T08:41:28.027Z</time></trkpt><trkpt lat="44.0870033" lon="12.0041867"><ele>436.0</ele><time>2026-04-26T08:41:29.025Z</time></trkpt><trkpt lat="44.08691" lon="12.00426"><ele>433.75</ele><time>2026-04-26T08:41:30.023Z</time></trkpt><trkpt lat="44.0868067" lon="12.00433"><ele>431.5</ele><time>2026-04-26T08:41:31.024Z</time></trkpt><trkpt lat="44.0866967" lon="12.004395"><ele>429.25</ele><time>2026-04-26T08:41:32.024Z</time></trkpt><trkpt lat="44.0865867" lon="12.0044483"><ele>427.0</ele><time>2026-04-26T08:41:33.027Z</time></trkpt><trkpt lat="44.0864817" lon="12.0044967"><ele>425.6</ele><time>2026-04-26T08:41:34.023Z</time></trkpt><trkpt lat="44.08638" lon="12.0045417"><ele>424.20000000000005</ele><time>2026-04-26T08:41:35.023Z</time></trkpt><trkpt lat="44.0862817" lon="12.00459"><ele>422.8</ele><time>2026-04-26T08:41:36.023Z</time></trkpt><trkpt lat="44.0861883" lon="12.0046333"><ele>421.4</ele><time>2026-04-26T08:41:37.027Z</time></trkpt><trkpt lat="44.0860983" lon="12.0046733"><ele>420.0</ele><time>2026-04-26T08:41:38.025Z</time></trkpt><trkpt lat="44.0860083" lon="12.0047117"><ele>420.0</ele><time>2026-04-26T08:41:39.025Z</time></trkpt><trkpt lat="44.0859233" lon="12.00476"><ele>420.0</ele><time>2026-04-26T08:41:40.023Z</time></trkpt><trkpt lat="44.0858517" lon="12.0048267"><ele>420.0</ele><time>2026-04-26T08:41:41.026Z</time></trkpt><trkpt lat="44.0857917" lon="12.0048967"><ele>420.0</ele><time>2026-04-26T08:41:42.023Z</time></trkpt><trkpt lat="44.0857117" lon="12.005"><ele>420.0</ele><time>2026-04-26T08:41:44.024Z</time></trkpt><trkpt lat="44.08564" lon="12.005005"><ele>420.0</ele><time>2026-04-26T08:41:46.027Z</time></trkpt><trkpt lat="44.0855867" lon="12.0049233"><ele>414.6666666666667</ele><time>2026-04-26T08:41:48.024Z</time></trkpt><trkpt lat="44.0855267" lon="12.00483"><ele>409.33333333333337</ele><time>2026-04-26T08:41:50.024Z</time></trkpt><trkpt lat="44.085485" lon="12.0047517"><ele>404.0</ele><time>2026-04-26T08:41:52.024Z</time></trkpt><trkpt lat="44.0854567" lon="12.0046083"><ele>398.6666666666667</ele><time>2026-04-26T08:41:54.024Z</time></trkpt><trkpt lat="44.085455" lon="12.0045017"><ele>393.33333333333337</ele><time>2026-04-26T08:41:55.024Z</time></trkpt><trkpt lat="44.08546" lon="12.0043833"><ele>388.0</ele><time>2026-04-26T08:41:56.025Z</time></trkpt><trkpt lat="44.0854717" lon="12.0042583"><ele>387.0</ele><time>2026-04-26T08:41:57.024Z</time></trkpt><trkpt lat="44.0854783" lon="12.004135"><ele>386.0</ele><time>2026-04-26T08:41:58.025Z</time></trkpt><trkpt lat="44.0854817" lon="12.0040067"><ele>385.0</ele><time>2026-04-26T08:41:59.024Z</time></trkpt><trkpt lat="44.0854783" lon="12.0038683"><ele>384.0</ele><time>2026-04-26T08:42:00.024Z</time></trkpt><trkpt lat="44.0854667" lon="12.0037217"><ele>383.0</ele><time>2026-04-26T08:42:01.024Z</time></trkpt><trkpt lat="44.0854533" lon="12.0035817"><ele>383.0</ele><time>2026-04-26T08:42:02.024Z</time></trkpt><trkpt lat="44.0854333" lon="12.0034567"><ele>383.0</ele><time>2026-04-26T08:42:03.028Z</time></trkpt><trkpt lat="44.08541" lon="12.0033417"><ele>383.0</ele><time>2026-04-26T08:42:04.024Z</time></trkpt><trkpt lat="44.0853933" lon="12.0032267"><ele>383.0</ele><time>2026-04-26T08:42:05.031Z</time></trkpt><trkpt lat="44.0853867" lon="12.0031167"><ele>383.0</ele><time>2026-04-26T08:42:06.025Z</time></trkpt><trkpt lat="44.0853983" lon="12.003015"><ele>383.0</ele><time>2026-04-26T08:42:07.026Z</time></trkpt><trkpt lat="44.08542" lon="12.00292"><ele>382.7142857142857</ele><time>2026-04-26T08:42:08.025Z</time></trkpt><trkpt lat="44.0854467" lon="12.0028317"><ele>382.42857142857144</ele><time>2026-04-26T08:42:09.025Z</time></trkpt><trkpt lat="44.0854683" lon="12.0027467"><ele>382.1428571428571</ele><time>2026-04-26T08:42:10.024Z</time></trkpt><trkpt lat="44.08548" lon="12.0026533"><ele>381.8571428571429</ele><time>2026-04-26T08:42:11.022Z</time></trkpt><trkpt lat="44.0854833" lon="12.0025517"><ele>381.5714285714286</ele><time>2026-04-26T08:42:12.023Z</time></trkpt><trkpt lat="44.0854867" lon="12.0024567"><ele>381.2857142857143</ele><time>2026-04-26T08:42:13.022Z</time></trkpt><trkpt lat="44.0854917" lon="12.00236"><ele>381.0</ele><time>2026-04-26T08:42:14.023Z</time></trkpt><trkpt lat="44.0854933" lon="12.0022583"><ele>382.1666666666667</ele><time>2026-04-26T08:42:15.03Z</time></trkpt><trkpt lat="44.0854933" lon="12.0021517"><ele>383.33333333333337</ele><time>2026-04-26T08:42:16.023Z</time></trkpt><trkpt lat="44.0854883" lon="12.0020383"><ele>384.5</ele><time>2026-04-26T08:42:17.023Z</time></trkpt><trkpt lat="44.0854783" lon="12.00192"><ele>385.6666666666667</ele><time>2026-04-26T08:42:18.025Z</time></trkpt><trkpt lat="44.0854633" lon="12.001805"><ele>386.83333333333337</ele><time>2026-04-26T08:42:19.023Z</time></trkpt><trkpt lat="44.0854417" lon="12.0017"><ele>388.0</ele><time>2026-04-26T08:42:20.026Z</time></trkpt><trkpt lat="44.0854183" lon="12.00161"><ele>389.79999999999995</ele><time>2026-04-26T08:42:21.025Z</time></trkpt><trkpt lat="44.08537" lon="12.0014433"><ele>391.6</ele><time>2026-04-26T08:42:23.026Z</time></trkpt><trkpt lat="44.0853483" lon="12.0013517"><ele>393.4</ele><time>2026-04-26T08:42:24.022Z</time></trkpt><trkpt lat="44.0853283" lon="12.0012617"><ele>395.20000000000005</ele><time>2026-04-26T08:42:25.025Z</time></trkpt><trkpt lat="44.085295" lon="12.0011067"><ele>397.0</ele><time>2026-04-26T08:42:27.025Z</time></trkpt><trkpt lat="44.0852683" lon="12.0009867"><ele>397.00000000000006</ele><time>2026-04-26T08:42:29.026Z</time></trkpt><trkpt lat="44.0852583" lon="12.00086"><ele>397.0</ele><time>2026-04-26T08:42:31.023Z</time></trkpt><trkpt lat="44.0852433" lon="12.0006883"><ele>397.0</ele><time>2026-04-26T08:42:33.024Z</time></trkpt><trkpt lat="44.0852333" lon="12.0006017"><ele>397.0</ele><time>2026-04-26T08:42:34.023Z</time></trkpt><trkpt lat="44.085225" lon="12.0005133"><ele>397.00000000000006</ele><time>2026-04-26T08:42:35.027Z</time></trkpt><trkpt lat="44.085215" lon="12.0004117"><ele>397.0</ele><time>2026-04-26T08:42:36.025Z</time></trkpt><trkpt lat="44.0852083" lon="12.000305"><ele>398.00000000000006</ele><time>2026-04-26T08:42:37.024Z</time></trkpt><trkpt lat="44.0852083" lon="12.0002017"><ele>399.0</ele><time>2026-04-26T08:42:38.024Z</time></trkpt><trkpt lat="44.0852117" lon="12.0000933"><ele>400.0</ele><time>2026-04-26T08:42:39.025Z</time></trkpt><trkpt lat="44.0852133" lon="11.9999917"><ele>401.0</ele><time>2026-04-26T08:42:40.025Z</time></trkpt><trkpt lat="44.0852083" lon="11.99989"><ele>402.00000000000006</ele><time>2026-04-26T08:42:41.023Z</time></trkpt><trkpt lat="44.0852033" lon="11.9998"><ele>403.0</ele><time>2026-04-26T08:42:42.024Z</time></trkpt><trkpt lat="44.0851917" lon="11.999645"><ele>403.00000000000006</ele><time>2026-04-26T08:42:44.024Z</time></trkpt><trkpt lat="44.08518" lon="11.9995"><ele>403.0</ele><time>2026-04-26T08:42:46.023Z</time></trkpt><trkpt lat="44.0851633" lon="11.999335"><ele>403.0</ele><time>2026-04-26T08:42:48.025Z</time></trkpt><trkpt lat="44.0851483" lon="11.9992483"><ele>403.0</ele><time>2026-04-26T08:42:49.026Z</time></trkpt><trkpt lat="44.0851083" lon="11.9991783"><ele>403.00000000000006</ele><time>2026-04-26T08:42:50.025Z</time></trkpt><trkpt lat="44.0850683" lon="11.99911"><ele>403.0</ele><time>2026-04-26T08:42:51.026Z</time></trkpt><trkpt lat="44.0850183" lon="11.999055"><ele>403.4</ele><time>2026-04-26T08:42:52.024Z</time></trkpt><trkpt lat="44.0849567" lon="11.9990183"><ele>403.79999999999995</ele><time>2026-04-26T08:42:53.026Z</time></trkpt><trkpt lat="44.0848483" lon="11.9989667"><ele>404.2</ele><time>2026-04-26T08:42:55.024Z</time></trkpt><trkpt lat="44.0847383" lon="11.998945"><ele>404.6</ele><time>2026-04-26T08:42:57.027Z</time></trkpt><trkpt lat="44.0846617" lon="11.9989233"><ele>405.0</ele><time>2026-04-26T08:42:59.026Z</time></trkpt><trkpt lat="44.08457" lon="11.9988833"><ele>401.1666666666667</ele><time>2026-04-26T08:43:02.022Z</time></trkpt><trkpt lat="44.0844883" lon="11.9988167"><ele>397.3333333333333</ele><time>2026-04-26T08:43:04.024Z</time></trkpt><trkpt lat="44.08438" lon="11.9987167"><ele>393.5</ele><time>2026-04-26T08:43:06.022Z</time></trkpt><trkpt lat="44.0843433" lon="11.9986317"><ele>389.66666666666663</ele><time>2026-04-26T08:43:07.021Z</time></trkpt><trkpt lat="44.084295" lon="11.9985583"><ele>385.8333333333333</ele><time>2026-04-26T08:43:08.023Z</time></trkpt><trkpt lat="44.08424" lon="11.9984867"><ele>382.0</ele><time>2026-04-26T08:43:09.025Z</time></trkpt><trkpt lat="44.0841883" lon="11.998415"><ele>382.0</ele><time>2026-04-26T08:43:10.023Z</time></trkpt><trkpt lat="44.08414" lon="11.9983367"><ele>382.0</ele><time>2026-04-26T08:43:11.025Z</time></trkpt><trkpt lat="44.084105" lon="11.9982467"><ele>382.0</ele><time>2026-04-26T08:43:12.024Z</time></trkpt><trkpt lat="44.0840883" lon="11.99815"><ele>382.0</ele><time>2026-04-26T08:43:13.023Z</time></trkpt><trkpt lat="44.0840367" lon="11.9979967"><ele>382.0</ele><time>2026-04-26T08:43:15.025Z</time></trkpt><trkpt lat="44.0839617" lon="11.9978633"><ele>381.6</ele><time>2026-04-26T08:43:17.025Z</time></trkpt><trkpt lat="44.083885" lon="11.9977433"><ele>381.20000000000005</ele><time>2026-04-26T08:43:19.024Z</time></trkpt><trkpt lat="44.0838217" lon="11.9977333"><ele>380.8</ele><time>2026-04-26T08:43:20.026Z</time></trkpt><trkpt lat="44.0836867" lon="11.9976583"><ele>380.4</ele><time>2026-04-26T08:43:22.025Z</time></trkpt><trkpt lat="44.0835833" lon="11.99762"><ele>380.0</ele><time>2026-04-26T08:43:23.024Z</time></trkpt><trkpt lat="44.0835" lon="11.9975583"><ele>380.0</ele><time>2026-04-26T08:43:24.025Z</time></trkpt><trkpt lat="44.0834267" lon="11.997505"><ele>380.0</ele><time>2026-04-26T08:43:25.024Z</time></trkpt><trkpt lat="44.0833833" lon="11.9974183"><ele>380.0</ele><time>2026-04-26T08:43:26.024Z</time></trkpt><trkpt lat="44.0833167" lon="11.9973583"><ele>380.0</ele><time>2026-04-26T08:43:27.024Z</time></trkpt><trkpt lat="44.0832717" lon="11.9972417"><ele>380.0</ele><time>2026-04-26T08:43:28.025Z</time></trkpt><trkpt lat="44.0831917" lon="11.99716"><ele>380.0</ele><time>2026-04-26T08:43:29.024Z</time></trkpt><trkpt lat="44.083135" lon="11.9970667"><ele>380.1666666666667</ele><time>2026-04-26T08:43:30.026Z</time></trkpt><trkpt lat="44.0830833" lon="11.9970033"><ele>380.33333333333337</ele><time>2026-04-26T08:43:31.025Z</time></trkpt><trkpt lat="44.0830483" lon="11.99693"><ele>380.5</ele><time>2026-04-26T08:43:32.022Z</time></trkpt><trkpt lat="44.08297" lon="11.9968183"><ele>380.6666666666667</ele><time>2026-04-26T08:43:34.022Z</time></trkpt><trkpt lat="44.0829117" lon="11.996685"><ele>380.8333333333333</ele><time>2026-04-26T08:43:36.022Z</time></trkpt><trkpt lat="44.0828733" lon="11.99661"><ele>381.0</ele><time>2026-04-26T08:43:37.023Z</time></trkpt><trkpt lat="44.0828267" lon="11.9965383"><ele>381.0</ele><time>2026-04-26T08:43:38.031Z</time></trkpt><trkpt lat="44.082775" lon="11.9964667"><ele>381.0</ele><time>2026-04-26T08:43:39.025Z</time></trkpt><trkpt lat="44.08272" lon="11.9964167"><ele>381.0</ele><time>2026-04-26T08:43:40.025Z</time></trkpt><trkpt lat="44.08263" lon="11.9963633"><ele>381.0</ele><time>2026-04-26T08:43:42.022Z</time></trkpt><trkpt lat="44.082535" lon="11.9963367"><ele>381.0</ele><time>2026-04-26T08:43:45.024Z</time></trkpt><trkpt lat="44.0824767" lon="11.9962917"><ele>381.0</ele><time>2026-04-26T08:43:47.022Z</time></trkpt><trkpt lat="44.0824167" lon="11.99625"><ele>378.1428571428571</ele><time>2026-04-26T08:43:49.024Z</time></trkpt><trkpt lat="44.0823617" lon="11.9962017"><ele>375.28571428571433</ele><time>2026-04-26T08:43:51.025Z</time></trkpt><trkpt lat="44.082295" lon="11.9961383"><ele>372.42857142857144</ele><time>2026-04-26T08:43:54.022Z</time></trkpt><trkpt lat="44.0822383" lon="11.99608"><ele>369.57142857142856</ele><time>2026-04-26T08:43:56.022Z</time></trkpt><trkpt lat="44.0821867" lon="11.9960133"><ele>366.71428571428567</ele><time>2026-04-26T08:43:58.025Z</time></trkpt><trkpt lat="44.0821317" lon="11.995945"><ele>363.8571428571429</ele><time>2026-04-26T08:44:00.026Z</time></trkpt><trkpt lat="44.0820767" lon="11.99585"><ele>361.0</ele><time>2026-04-26T08:44:02.022Z</time></trkpt><trkpt lat="44.0820167" lon="11.995755"><ele>361.0</ele><time>2026-04-26T08:44:04.029Z</time></trkpt><trkpt lat="44.0819717" lon="11.99568"><ele>361.0</ele><time>2026-04-26T08:44:06.028Z</time></trkpt><trkpt lat="44.0819283" lon="11.99559"><ele>361.0</ele><time>2026-04-26T08:44:09.025Z</time></trkpt><trkpt lat="44.08189" lon="11.995515"><ele>361.0</ele><time>2026-04-26T08:44:11.024Z</time></trkpt><trkpt lat="44.0818233" lon="11.9954017"><ele>361.0</ele><time>2026-04-26T08:44:13.025Z</time></trkpt><trkpt lat="44.0817817" lon="11.9953283"><ele>361.0</ele><time>2026-04-26T08:44:14.024Z</time></trkpt><trkpt lat="44.0817367" lon="11.9952417"><ele>361.0</ele><time>2026-04-26T08:44:15.026Z</time></trkpt><trkpt lat="44.08169" lon="11.995155"><ele>361.0</ele><time>2026-04-26T08:44:16.026Z</time></trkpt><trkpt lat="44.08163" lon="11.995085"><ele>361.0</ele><time>2026-04-26T08:44:17.026Z</time></trkpt><trkpt lat="44.0815817" lon="11.9950017"><ele>361.0</ele><time>2026-04-26T08:44:18.022Z</time></trkpt><trkpt lat="44.081515" lon="11.994945"><ele>361.0</ele><time>2026-04-26T08:44:19.025Z</time></trkpt><trkpt lat="44.081465" lon="11.994875"><ele>361.0</ele><time>2026-04-26T08:44:20.022Z</time></trkpt><trkpt lat="44.0814" lon="11.99483"><ele>358.0</ele><time>2026-04-26T08:44:21.023Z</time></trkpt><trkpt lat="44.081355" lon="11.994765"><ele>355.0</ele><time>2026-04-26T08:44:22.026Z</time></trkpt><trkpt lat="44.0812967" lon="11.9947233"><ele>352.0</ele><time>2026-04-26T08:44:23.023Z</time></trkpt><trkpt lat="44.0812383" lon="11.99467"><ele>349.0</ele><time>2026-04-26T08:44:24.023Z</time></trkpt><trkpt lat="44.0811817" lon="11.994615"><ele>346.0</ele><time>2026-04-26T08:44:25.022Z</time></trkpt><trkpt lat="44.081125" lon="11.9945583"><ele>343.0</ele><time>2026-04-26T08:44:26.023Z</time></trkpt><trkpt lat="44.081065" lon="11.9945"><ele>340.0</ele><time>2026-04-26T08:44:27.027Z</time></trkpt><trkpt lat="44.08101" lon="11.994445"><ele>340.0</ele><time>2026-04-26T08:44:28.022Z</time></trkpt><trkpt lat="44.08096" lon="11.994385"><ele>340.0</ele><time>2026-04-26T08:44:29.024Z</time></trkpt><trkpt lat="44.0809117" lon="11.9943233"><ele>340.0</ele><time>2026-04-26T08:44:30.026Z</time></trkpt><trkpt lat="44.08085" lon="11.9942667"><ele>340.0</ele><time>2026-04-26T08:44:31.023Z</time></trkpt><trkpt lat="44.0807983" lon="11.9941867"><ele>340.0</ele><time>2026-04-26T08:44:32.025Z</time></trkpt><trkpt lat="44.0807417" lon="11.9941183"><ele>340.0</ele><time>2026-04-26T08:44:33.025Z</time></trkpt><trkpt lat="44.0806967" lon="11.9940367"><ele>340.0</ele><time>2026-04-26T08:44:34.024Z</time></trkpt><trkpt lat="44.0806517" lon="11.9939467"><ele>340.4</ele><time>2026-04-26T08:44:35.025Z</time></trkpt><trkpt lat="44.08063" lon="11.993835"><ele>340.8</ele><time>2026-04-26T08:44:36.025Z</time></trkpt><trkpt lat="44.0806233" lon="11.993725"><ele>341.20000000000005</ele><time>2026-04-26T08:44:37.025Z</time></trkpt><trkpt lat="44.08058" lon="11.9936133"><ele>341.6</ele><time>2026-04-26T08:44:38.024Z</time></trkpt><trkpt lat="44.08056" lon="11.9934417"><ele>342.0</ele><time>2026-04-26T08:44:40.024Z</time></trkpt><trkpt lat="44.080525" lon="11.993335"><ele>342.0</ele><time>2026-04-26T08:44:41.023Z</time></trkpt><trkpt lat="44.0804733" lon="11.9932167"><ele>342.0</ele><time>2026-04-26T08:44:42.024Z</time></trkpt><trkpt lat="44.0803983" lon="11.9931167"><ele>342.0</ele><time>2026-04-26T08:44:43.023Z</time></trkpt><trkpt lat="44.08033" lon="11.99302"><ele>342.0</ele><time>2026-04-26T08:44:44.027Z</time></trkpt><trkpt lat="44.0802567" lon="11.992935"><ele>342.0</ele><time>2026-04-26T08:44:45.024Z</time></trkpt><trkpt lat="44.08019" lon="11.9928567"><ele>341.99999999999994</ele><time>2026-04-26T08:44:46.023Z</time></trkpt><trkpt lat="44.0801267" lon="11.9927867"><ele>342.0</ele><time>2026-04-26T08:44:47.023Z</time></trkpt><trkpt lat="44.0800633" lon="11.9927317"><ele>342.0</ele><time>2026-04-26T08:44:48.024Z</time></trkpt><trkpt lat="44.0800067" lon="11.9926783"><ele>342.0</ele><time>2026-04-26T08:44:49.024Z</time></trkpt><trkpt lat="44.0799517" lon="11.9926183"><ele>342.0</ele><time>2026-04-26T08:44:50.025Z</time></trkpt><trkpt lat="44.0798867" lon="11.9925667"><ele>341.99999999999994</ele><time>2026-04-26T08:44:51.023Z</time></trkpt><trkpt lat="44.079835" lon="11.9924983"><ele>342.0</ele><time>2026-04-26T08:44:52.024Z</time></trkpt><trkpt lat="44.0797683" lon="11.99245"><ele>343.3333333333333</ele><time>2026-04-26T08:44:53.023Z</time></trkpt><trkpt lat="44.0797133" lon="11.9923783"><ele>344.6666666666667</ele><time>2026-04-26T08:44:54.022Z</time></trkpt><trkpt lat="44.079645" lon="11.992305"><ele>346.0</ele><time>2026-04-26T08:44:55.025Z</time></trkpt><trkpt lat="44.0795633" lon="11.9922467"><ele>347.33333333333337</ele><time>2026-04-26T08:44:56.023Z</time></trkpt><trkpt lat="44.0794983" lon="11.9921683"><ele>348.6666666666667</ele><time>2026-04-26T08:44:57.023Z</time></trkpt><trkpt lat="44.0794283" lon="11.99211"><ele>350.0</ele><time>2026-04-26T08:44:58.022Z</time></trkpt><trkpt lat="44.0793767" lon="11.9920317"><ele>350.0</ele><time>2026-04-26T08:44:59.022Z</time></trkpt><trkpt lat="44.0793117" lon="11.991975"><ele>350.0</ele><time>2026-04-26T08:45:00.023Z</time></trkpt><trkpt lat="44.0792867" lon="11.9918917"><ele>350.0</ele><time>2026-04-26T08:45:01.023Z</time></trkpt><trkpt lat="44.0792233" lon="11.99182"><ele>350.0</ele><time>2026-04-26T08:45:02.022Z</time></trkpt><trkpt lat="44.079175" lon="11.9917267"><ele>350.0</ele><time>2026-04-26T08:45:03.026Z</time></trkpt><trkpt lat="44.0791217" lon="11.9916417"><ele>350.0</ele><time>2026-04-26T08:45:04.026Z</time></trkpt><trkpt lat="44.07907" lon="11.9915617"><ele>351.14285714285717</ele><time>2026-04-26T08:45:05.022Z</time></trkpt><trkpt lat="44.079015" lon="11.9915083"><ele>352.2857142857143</ele><time>2026-04-26T08:45:06.022Z</time></trkpt><trkpt lat="44.0789483" lon="11.9914633"><ele>353.42857142857144</ele><time>2026-04-26T08:45:07.022Z</time></trkpt><trkpt lat="44.07888" lon="11.9914233"><ele>354.57142857142856</ele><time>2026-04-26T08:45:08.023Z</time></trkpt><trkpt lat="44.0788117" lon="11.9913967"><ele>355.7142857142857</ele><time>2026-04-26T08:45:09.025Z</time></trkpt><trkpt lat="44.0787383" lon="11.9913883"><ele>356.8571428571429</ele><time>2026-04-26T08:45:10.023Z</time></trkpt><trkpt lat="44.0786683" lon="11.991355"><ele>358.0</ele><time>2026-04-26T08:45:11.028Z</time></trkpt><trkpt lat="44.0785867" lon="11.991355"><ele>358.00000000000006</ele><time>2026-04-26T08:45:12.026Z</time></trkpt><trkpt lat="44.078525" lon="11.99133"><ele>358.0</ele><time>2026-04-26T08:45:13.023Z</time></trkpt><trkpt lat="44.078455" lon="11.9913283"><ele>358.0</ele><time>2026-04-26T08:45:14.025Z</time></trkpt><trkpt lat="44.0783833" lon="11.9913367"><ele>358.0</ele><time>2026-04-26T08:45:15.024Z</time></trkpt><trkpt lat="44.0783117" lon="11.9913283"><ele>358.0</ele><time>2026-04-26T08:45:16.022Z</time></trkpt><trkpt lat="44.0782383" lon="11.9913017"><ele>358.00000000000006</ele><time>2026-04-26T08:45:17.023Z</time></trkpt><trkpt lat="44.0781617" lon="11.9912767"><ele>358.0</ele><time>2026-04-26T08:45:18.023Z</time></trkpt><trkpt lat="44.078085" lon="11.9912467"><ele>359.79999999999995</ele><time>2026-04-26T08:45:19.022Z</time></trkpt><trkpt lat="44.0780117" lon="11.9912417"><ele>361.6</ele><time>2026-04-26T08:45:20.023Z</time></trkpt><trkpt lat="44.0779117" lon="11.9911717"><ele>363.4</ele><time>2026-04-26T08:45:22.022Z</time></trkpt><trkpt lat="44.0778717" lon="11.991075"><ele>365.20000000000005</ele><time>2026-04-26T08:45:24.025Z</time></trkpt><trkpt lat="44.0778717" lon="11.9909167"><ele>367.0</ele><time>2026-04-26T08:45:26.031Z</time></trkpt><trkpt lat="44.077865" lon="11.99076"><ele>367.0</ele><time>2026-04-26T08:45:28.026Z</time></trkpt><trkpt lat="44.0778367" lon="11.99062"><ele>367.0</ele><time>2026-04-26T08:45:30.025Z</time></trkpt><trkpt lat="44.0777817" lon="11.9904883"><ele>367.0</ele><time>2026-04-26T08:45:32.035Z</time></trkpt><trkpt lat="44.0777233" lon="11.9903867"><ele>367.0</ele><time>2026-04-26T08:45:34.021Z</time></trkpt><trkpt lat="44.0776633" lon="11.990265"><ele>367.0</ele><time>2026-04-26T08:45:36.024Z</time></trkpt><trkpt lat="44.0776183" lon="11.99018"><ele>367.0</ele><time>2026-04-26T08:45:37.024Z</time></trkpt><trkpt lat="44.0775733" lon="11.9900833"><ele>367.0</ele><time>2026-04-26T08:45:38.024Z</time></trkpt><trkpt lat="44.0775067" lon="11.9899967"><ele>367.0</ele><time>2026-04-26T08:45:39.023Z</time></trkpt><trkpt lat="44.0774617" lon="11.98988"><ele>367.0</ele><time>2026-04-26T08:45:40.022Z</time></trkpt><trkpt lat="44.0774117" lon="11.9897767"><ele>367.0</ele><time>2026-04-26T08:45:41.023Z</time></trkpt><trkpt lat="44.07737" lon="11.9896867"><ele>367.0</ele><time>2026-04-26T08:45:42.022Z</time></trkpt><trkpt lat="44.0773317" lon="11.9896017"><ele>366.40000000000003</ele><time>2026-04-26T08:45:43.022Z</time></trkpt><trkpt lat="44.0772983" lon="11.9895017"><ele>365.8</ele><time>2026-04-26T08:45:44.024Z</time></trkpt><trkpt lat="44.0772467" lon="11.9894"><ele>365.2</ele><time>2026-04-26T08:45:45.023Z</time></trkpt><trkpt lat="44.077205" lon="11.989275"><ele>364.6</ele><time>2026-04-26T08:45:46.025Z</time></trkpt><trkpt lat="44.0771633" lon="11.9891633"><ele>364.0</ele><time>2026-04-26T08:45:47.023Z</time></trkpt><trkpt lat="44.07711" lon="11.9890567"><ele>365.5</ele><time>2026-04-26T08:45:48.025Z</time></trkpt><trkpt lat="44.077045" lon="11.9889633"><ele>367.0</ele><time>2026-04-26T08:45:49.025Z</time></trkpt><trkpt lat="44.0769783" lon="11.98888"><ele>368.5</ele><time>2026-04-26T08:45:50.023Z</time></trkpt><trkpt lat="44.0769367" lon="11.988785"><ele>370.0</ele><time>2026-04-26T08:45:51.026Z</time></trkpt><trkpt lat="44.0768783" lon="11.9887133"><ele>371.5</ele><time>2026-04-26T08:45:52.025Z</time></trkpt><trkpt lat="44.0768083" lon="11.98867"><ele>373.0</ele><time>2026-04-26T08:45:53.025Z</time></trkpt><trkpt lat="44.0767567" lon="11.9886183"><ele>373.0</ele><time>2026-04-26T08:45:54.023Z</time></trkpt><trkpt lat="44.0767" lon="11.9885667"><ele>373.0</ele><time>2026-04-26T08:45:55.024Z</time></trkpt><trkpt lat="44.0765983" lon="11.988555"><ele>373.0</ele><time>2026-04-26T08:45:57.023Z</time></trkpt><trkpt lat="44.0765333" lon="11.9885783"><ele>373.0</ele><time>2026-04-26T08:45:58.022Z</time></trkpt><trkpt lat="44.0764733" lon="11.988635"><ele>373.0</ele><time>2026-04-26T08:45:59.023Z</time></trkpt><trkpt lat="44.07641" lon="11.988695"><ele>373.0</ele><time>2026-04-26T08:46:00.023Z</time></trkpt><trkpt lat="44.0763433" lon="11.988745"><ele>373.16666666666663</ele><time>2026-04-26T08:46:01.025Z</time></trkpt><trkpt lat="44.0763133" lon="11.9888433"><ele>373.3333333333333</ele><time>2026-04-26T08:46:02.024Z</time></trkpt><trkpt lat="44.0762517" lon="11.9889083"><ele>373.5</ele><time>2026-04-26T08:46:03.026Z</time></trkpt><trkpt lat="44.07619" lon="11.9889833"><ele>373.6666666666667</ele><time>2026-04-26T08:46:04.023Z</time></trkpt><trkpt lat="44.0761133" lon="11.9890283"><ele>373.83333333333337</ele><time>2026-04-26T08:46:05.023Z</time></trkpt><trkpt lat="44.07603" lon="11.9890567"><ele>374.0</ele><time>2026-04-26T08:46:06.023Z</time></trkpt><trkpt lat="44.075945" lon="11.98906"><ele>374.0</ele><time>2026-04-26T08:46:07.025Z</time></trkpt><trkpt lat="44.0758583" lon="11.9890367"><ele>374.0</ele><time>2026-04-26T08:46:08.024Z</time></trkpt><trkpt lat="44.075795" lon="11.9889917"><ele>374.0</ele><time>2026-04-26T08:46:09.027Z</time></trkpt><trkpt lat="44.0757017" lon="11.9889717"><ele>374.0</ele><time>2026-04-26T08:46:10.022Z</time></trkpt><trkpt lat="44.0755933" lon="11.9890133"><ele>374.0</ele><time>2026-04-26T08:46:11.022Z</time></trkpt><trkpt lat="44.0755083" lon="11.98906"><ele>375.5</ele><time>2026-04-26T08:46:12.024Z</time></trkpt><trkpt lat="44.0753817" lon="11.989155"><ele>377.0</ele><time>2026-04-26T08:46:14.025Z</time></trkpt><trkpt lat="44.0752867" lon="11.9892333"><ele>378.5</ele><time>2026-04-26T08:46:15.025Z</time></trkpt><trkpt lat="44.0751483" lon="11.9893933"><ele>380.0</ele><time>2026-04-26T08:46:16.023Z</time></trkpt><trkpt lat="44.0750833" lon="11.98942"><ele>380.0</ele><time>2026-04-26T08:46:17.022Z</time></trkpt><trkpt lat="44.0749767" lon="11.989415"><ele>380.0</ele><time>2026-04-26T08:46:19.022Z</time></trkpt><trkpt lat="44.0749" lon="11.9894733"><ele>380.0</ele><time>2026-04-26T08:46:20.025Z</time></trkpt><trkpt lat="44.0748067" lon="11.9895617"><ele>380.0</ele><time>2026-04-26T08:46:22.024Z</time></trkpt><trkpt lat="44.074725" lon="11.9896733"><ele>380.0</ele><time>2026-04-26T08:46:23.024Z</time></trkpt><trkpt lat="44.0746233" lon="11.9898"><ele>380.0</ele><time>2026-04-26T08:46:24.023Z</time></trkpt><trkpt lat="44.074455" lon="11.9899867"><ele>380.0</ele><time>2026-04-26T08:46:25.023Z</time></trkpt><trkpt lat="44.0743183" lon="11.9900983"><ele>380.0</ele><time>2026-04-26T08:46:26.027Z</time></trkpt><trkpt lat="44.0741967" lon="11.9902133"><ele>375.75</ele><time>2026-04-26T08:46:27.024Z</time></trkpt><trkpt lat="44.074135" lon="11.9903617"><ele>371.5</ele><time>2026-04-26T08:46:28.024Z</time></trkpt><trkpt lat="44.0740183" lon="11.990455"><ele>367.25</ele><time>2026-04-26T08:46:29.023Z</time></trkpt><trkpt lat="44.0739283" lon="11.990585"><ele>363.0</ele><time>2026-04-26T08:46:30.021Z</time></trkpt><trkpt lat="44.0738167" lon="11.9906767"><ele>363.0</ele><time>2026-04-26T08:46:31.023Z</time></trkpt><trkpt lat="44.0737167" lon="11.990765"><ele>363.0</ele><time>2026-04-26T08:46:32.023Z</time></trkpt><trkpt lat="44.0735617" lon="11.99083"><ele>363.0</ele><time>2026-04-26T08:46:33.028Z</time></trkpt><trkpt lat="44.073455" lon="11.9908833"><ele>363.0</ele><time>2026-04-26T08:46:34.023Z</time></trkpt><trkpt lat="44.0733617" lon="11.990975"><ele>359.59999999999997</ele><time>2026-04-26T08:46:35.023Z</time></trkpt><trkpt lat="44.0733533" lon="11.9911217"><ele>356.2</ele><time>2026-04-26T08:46:36.023Z</time></trkpt><trkpt lat="44.0732283" lon="11.9911467"><ele>352.8</ele><time>2026-04-26T08:46:37.023Z</time></trkpt><trkpt lat="44.0731417" lon="11.991225"><ele>349.4</ele><time>2026-04-26T08:46:38.023Z</time></trkpt><trkpt lat="44.0730317" lon="11.9912567"><ele>346.0</ele><time>2026-04-26T08:46:39.024Z</time></trkpt><trkpt lat="44.072945" lon="11.991195"><ele>345.3333333333333</ele><time>2026-04-26T08:46:40.027Z</time></trkpt><trkpt lat="44.0728567" lon="11.9911683"><ele>344.66666666666663</ele><time>2026-04-26T08:46:41.025Z</time></trkpt><trkpt lat="44.07277" lon="11.9911283"><ele>344.0</ele><time>2026-04-26T08:46:42.025Z</time></trkpt><trkpt lat="44.0726983" lon="11.9910683"><ele>343.3333333333333</ele><time>2026-04-26T08:46:43.023Z</time></trkpt><trkpt lat="44.0726283" lon="11.9910433"><ele>342.6666666666667</ele><time>2026-04-26T08:46:44.021Z</time></trkpt><trkpt lat="44.0725667" lon="11.9910217"><ele>342.0</ele><time>2026-04-26T08:46:45.028Z</time></trkpt><trkpt lat="44.0725033" lon="11.9909733"><ele>340.85714285714283</ele><time>2026-04-26T08:46:46.026Z</time></trkpt><trkpt lat="44.0724333" lon="11.9909617"><ele>339.7142857142857</ele><time>2026-04-26T08:46:47.024Z</time></trkpt><trkpt lat="44.0723567" lon="11.99096"><ele>338.57142857142856</ele><time>2026-04-26T08:46:48.023Z</time></trkpt><trkpt lat="44.0722883" lon="11.990965"><ele>337.42857142857144</ele><time>2026-04-26T08:46:49.024Z</time></trkpt><trkpt lat="44.0722267" lon="11.9910017"><ele>336.2857142857143</ele><time>2026-04-26T08:46:50.024Z</time></trkpt><trkpt lat="44.07215" lon="11.9910267"><ele>335.1428571428571</ele><time>2026-04-26T08:46:51.025Z</time></trkpt><trkpt lat="44.0720783" lon="11.9910567"><ele>334.0</ele><time>2026-04-26T08:46:52.024Z</time></trkpt><trkpt lat="44.0719533" lon="11.991105"><ele>334.0</ele><time>2026-04-26T08:46:54.023Z</time></trkpt><trkpt lat="44.0718933" lon="11.9911317"><ele>334.0</ele><time>2026-04-26T08:46:55.023Z</time></trkpt><trkpt lat="44.07179" lon="11.9911133"><ele>334.0</ele><time>2026-04-26T08:46:57.024Z</time></trkpt><trkpt lat="44.0717017" lon="11.9910633"><ele>334.0</ele><time>2026-04-26T08:46:59.025Z</time></trkpt><trkpt lat="44.071575" lon="11.9909883"><ele>334.0</ele><time>2026-04-26T08:47:01.025Z</time></trkpt><trkpt lat="44.071505" lon="11.99096"><ele>334.16666666666663</ele><time>2026-04-26T08:47:02.025Z</time></trkpt><trkpt lat="44.071425" lon="11.99095"><ele>334.3333333333333</ele><time>2026-04-26T08:47:03.024Z</time></trkpt><trkpt lat="44.0713417" lon="11.99098"><ele>334.5</ele><time>2026-04-26T08:47:04.024Z</time></trkpt><trkpt lat="44.0712667" lon="11.9910333"><ele>334.6666666666667</ele><time>2026-04-26T08:47:05.026Z</time></trkpt><trkpt lat="44.0711967" lon="11.99111"><ele>334.83333333333337</ele><time>2026-04-26T08:47:06.025Z</time></trkpt><trkpt lat="44.0711283" lon="11.9912233"><ele>335.0</ele><time>2026-04-26T08:47:07.025Z</time></trkpt><trkpt lat="44.0710417" lon="11.9913233"><ele>335.0</ele><time>2026-04-26T08:47:08.026Z</time></trkpt><trkpt lat="44.070965" lon="11.9914133"><ele>335.0</ele><time>2026-04-26T08:47:09.025Z</time></trkpt><trkpt lat="44.0708767" lon="11.9914683"><ele>335.0</ele><time>2026-04-26T08:47:10.022Z</time></trkpt><trkpt lat="44.0707783" lon="11.9915017"><ele>335.0</ele><time>2026-04-26T08:47:11.024Z</time></trkpt><trkpt lat="44.07067" lon="11.9915133"><ele>335.0</ele><time>2026-04-26T08:47:12.025Z</time></trkpt><trkpt lat="44.0705783" lon="11.9916217"><ele>336.4</ele><time>2026-04-26T08:47:13.024Z</time></trkpt><trkpt lat="44.0704683" lon="11.9915983"><ele>337.8</ele><time>2026-04-26T08:47:14.026Z</time></trkpt><trkpt lat="44.0703533" lon="11.9916117"><ele>339.20000000000005</ele><time>2026-04-26T08:47:15.024Z</time></trkpt><trkpt lat="44.0702933" lon="11.9917433"><ele>340.6</ele><time>2026-04-26T08:47:16.022Z</time></trkpt><trkpt lat="44.07019" lon="11.9917217"><ele>342.0</ele><time>2026-04-26T08:47:17.026Z</time></trkpt><trkpt lat="44.0700883" lon="11.99175"><ele>341.8</ele><time>2026-04-26T08:47:18.023Z</time></trkpt><trkpt lat="44.07001" lon="11.9918333"><ele>341.6</ele><time>2026-04-26T08:47:19.03Z</time></trkpt><trkpt lat="44.0699333" lon="11.9919133"><ele>341.40000000000003</ele><time>2026-04-26T08:47:20.025Z</time></trkpt><trkpt lat="44.0698567" lon="11.991985"><ele>341.20000000000005</ele><time>2026-04-26T08:47:21.024Z</time></trkpt><trkpt lat="44.0697883" lon="11.9920817"><ele>341.0</ele><time>2026-04-26T08:47:22.024Z</time></trkpt><trkpt lat="44.0697467" lon="11.9922"><ele>341.0</ele><time>2026-04-26T08:47:23.029Z</time></trkpt><trkpt lat="44.0697183" lon="11.9923333"><ele>341.0</ele><time>2026-04-26T08:47:24.023Z</time></trkpt><trkpt lat="44.0697067" lon="11.99248"><ele>341.0</ele><time>2026-04-26T08:47:25.024Z</time></trkpt><trkpt lat="44.0696617" lon="11.9926117"><ele>341.0</ele><time>2026-04-26T08:47:26.024Z</time></trkpt><trkpt lat="44.06963" lon="11.99274"><ele>341.0</ele><time>2026-04-26T08:47:27.024Z</time></trkpt><trkpt lat="44.0696217" lon="11.9928683"><ele>339.20000000000005</ele><time>2026-04-26T08:47:28.024Z</time></trkpt><trkpt lat="44.0696233" lon="11.993"><ele>337.40000000000003</ele><time>2026-04-26T08:47:29.023Z</time></trkpt><trkpt lat="44.0696167" lon="11.99314"><ele>335.6</ele><time>2026-04-26T08:47:30.023Z</time></trkpt><trkpt lat="44.0696083" lon="11.9932733"><ele>333.8</ele><time>2026-04-26T08:47:31.022Z</time></trkpt><trkpt lat="44.0696067" lon="11.99341"><ele>332.0</ele><time>2026-04-26T08:47:32.022Z</time></trkpt><trkpt lat="44.0696067" lon="11.9935417"><ele>329.40000000000003</ele><time>2026-04-26T08:47:33.024Z</time></trkpt><trkpt lat="44.069605" lon="11.9936767"><ele>326.8</ele><time>2026-04-26T08:47:34.024Z</time></trkpt><trkpt lat="44.0695917" lon="11.99381"><ele>324.2</ele><time>2026-04-26T08:47:35.024Z</time></trkpt><trkpt lat="44.069585" lon="11.993945"><ele>321.6</ele><time>2026-04-26T08:47:36.023Z</time></trkpt><trkpt lat="44.069585" lon="11.994085"><ele>319.0</ele><time>2026-04-26T08:47:37.024Z</time></trkpt><trkpt lat="44.069575" lon="11.9942283"><ele>316.4</ele><time>2026-04-26T08:47:38.024Z</time></trkpt><trkpt lat="44.0695717" lon="11.9943717"><ele>313.79999999999995</ele><time>2026-04-26T08:47:39.025Z</time></trkpt><trkpt lat="44.0695633" lon="11.9945167"><ele>311.20000000000005</ele><time>2026-04-26T08:47:40.025Z</time></trkpt><trkpt lat="44.0695883" lon="11.9946583"><ele>308.6</ele><time>2026-04-26T08:47:41.023Z</time></trkpt><trkpt lat="44.0696183" lon="11.9947983"><ele>306.0</ele><time>2026-04-26T08:47:42.028Z</time></trkpt><trkpt lat="44.0696567" lon="11.99493"><ele>304.1666666666667</ele><time>2026-04-26T08:47:43.024Z</time></trkpt><trkpt lat="44.069705" lon="11.995045"><ele>302.3333333333333</ele><time>2026-04-26T08:47:44.022Z</time></trkpt><trkpt lat="44.0697467" lon="11.9951567"><ele>300.5</ele><time>2026-04-26T08:47:45.025Z</time></trkpt><trkpt lat="44.0697933" lon="11.9952483"><ele>298.66666666666663</ele><time>2026-04-26T08:47:46.024Z</time></trkpt><trkpt lat="44.0698283" lon="11.9953267"><ele>296.8333333333333</ele><time>2026-04-26T08:47:47.028Z</time></trkpt><trkpt lat="44.0698333" lon="11.995475"><ele>295.0</ele><time>2026-04-26T08:47:49.026Z</time></trkpt><trkpt lat="44.0697833" lon="11.9956"><ele>295.0</ele><time>2026-04-26T08:47:51.025Z</time></trkpt><trkpt lat="44.069725" lon="11.9956483"><ele>295.0</ele><time>2026-04-26T08:47:52.027Z</time></trkpt><trkpt lat="44.0696633" lon="11.9956833"><ele>295.0</ele><time>2026-04-26T08:47:53.029Z</time></trkpt><trkpt lat="44.0695867" lon="11.9956783"><ele>295.0</ele><time>2026-04-26T08:47:54.025Z</time></trkpt><trkpt lat="44.0695067" lon="11.9956367"><ele>295.0</ele><time>2026-04-26T08:47:55.025Z</time></trkpt><trkpt lat="44.069435" lon="11.99558"><ele>295.0</ele><time>2026-04-26T08:47:56.024Z</time></trkpt><trkpt lat="44.06938" lon="11.9954833"><ele>295.0</ele><time>2026-04-26T08:47:57.025Z</time></trkpt><trkpt lat="44.0693083" lon="11.9953967"><ele>295.0</ele><time>2026-04-26T08:47:58.024Z</time></trkpt><trkpt lat="44.0692483" lon="11.99531"><ele>295.0</ele><time>2026-04-26T08:47:59.023Z</time></trkpt><trkpt lat="44.06915" lon="11.9953067"><ele>295.0</ele><time>2026-04-26T08:48:00.025Z</time></trkpt><trkpt lat="44.06907" lon="11.995275"><ele>295.0</ele><time>2026-04-26T08:48:01.023Z</time></trkpt><trkpt lat="44.0689717" lon="11.9952733"><ele>294.0</ele><time>2026-04-26T08:48:02.029Z</time></trkpt><trkpt lat="44.0688633" lon="11.9952133"><ele>293.0</ele><time>2026-04-26T08:48:03.023Z</time></trkpt><trkpt lat="44.06874" lon="11.995205"><ele>292.0</ele><time>2026-04-26T08:48:04.021Z</time></trkpt><trkpt lat="44.0686333" lon="11.9952167"><ele>291.0</ele><time>2026-04-26T08:48:05.024Z</time></trkpt><trkpt lat="44.068545" lon="11.9952417"><ele>290.0</ele><time>2026-04-26T08:48:06.024Z</time></trkpt><trkpt lat="44.068465" lon="11.9952867"><ele>290.0</ele><time>2026-04-26T08:48:07.025Z</time></trkpt><trkpt lat="44.0683983" lon="11.995325"><ele>290.0</ele><time>2026-04-26T08:48:08.023Z</time></trkpt><trkpt lat="44.0683317" lon="11.99534"><ele>290.0</ele><time>2026-04-26T08:48:09.025Z</time></trkpt><trkpt lat="44.0682383" lon="11.9954133"><ele>290.0</ele><time>2026-04-26T08:48:11.023Z</time></trkpt><trkpt lat="44.0682117" lon="11.9955483"><ele>290.0</ele><time>2026-04-26T08:48:13.023Z</time></trkpt><trkpt lat="44.0682733" lon="11.9956817"><ele>290.0</ele><time>2026-04-26T08:48:15.026Z</time></trkpt><trkpt lat="44.0683683" lon="11.99572"><ele>290.0</ele><time>2026-04-26T08:48:16.025Z</time></trkpt><trkpt lat="44.0684467" lon="11.99578"><ele>290.0</ele><time>2026-04-26T08:48:17.024Z</time></trkpt><trkpt lat="44.068525" lon="11.9958383"><ele>290.0</ele><time>2026-04-26T08:48:18.025Z</time></trkpt><trkpt lat="44.068605" lon="11.9958983"><ele>290.0</ele><time>2026-04-26T08:48:19.023Z</time></trkpt><trkpt lat="44.068675" lon="11.99598"><ele>288.33333333333337</ele><time>2026-04-26T08:48:20.022Z</time></trkpt><trkpt lat="44.0687633" lon="11.9960117"><ele>286.6666666666667</ele><time>2026-04-26T08:48:21.025Z</time></trkpt><trkpt lat="44.0688183" lon="11.9961083"><ele>285.0</ele><time>2026-04-26T08:48:22.022Z</time></trkpt><trkpt lat="44.0688783" lon="11.9961933"><ele>283.3333333333333</ele><time>2026-04-26T08:48:23.028Z</time></trkpt><trkpt lat="44.0689217" lon="11.9962867"><ele>281.66666666666663</ele><time>2026-04-26T08:48:24.021Z</time></trkpt><trkpt lat="44.0689467" lon="11.9963867"><ele>280.0</ele><time>2026-04-26T08:48:25.025Z</time></trkpt><trkpt lat="44.0689533" lon="11.996505"><ele>280.0</ele><time>2026-04-26T08:48:26.024Z</time></trkpt><trkpt lat="44.068945" lon="11.9966383"><ele>280.0</ele><time>2026-04-26T08:48:27.024Z</time></trkpt><trkpt lat="44.0689367" lon="11.996785"><ele>280.0</ele><time>2026-04-26T08:48:28.024Z</time></trkpt><trkpt lat="44.068935" lon="11.9969267"><ele>280.0</ele><time>2026-04-26T08:48:29.024Z</time></trkpt><trkpt lat="44.068895" lon="11.9970267"><ele>280.0</ele><time>2026-04-26T08:48:30.024Z</time></trkpt><trkpt lat="44.0688917" lon="11.9971617"><ele>279.0</ele><time>2026-04-26T08:48:31.025Z</time></trkpt><trkpt lat="44.068895" lon="11.9972933"><ele>278.0</ele><time>2026-04-26T08:48:32.024Z</time></trkpt><trkpt lat="44.0689083" lon="11.99744"><ele>277.0</ele><time>2026-04-26T08:48:33.025Z</time></trkpt><trkpt lat="44.0689183" lon="11.9975683"><ele>276.0</ele><time>2026-04-26T08:48:34.024Z</time></trkpt><trkpt lat="44.068925" lon="11.9976817"><ele>275.0</ele><time>2026-04-26T08:48:35.023Z</time></trkpt><trkpt lat="44.068915" lon="11.9977733"><ele>274.0</ele><time>2026-04-26T08:48:36.022Z</time></trkpt><trkpt lat="44.0689067" lon="11.997865"><ele>273.2</ele><time>2026-04-26T08:48:37.023Z</time></trkpt><trkpt lat="44.0689283" lon="11.9979733"><ele>272.4</ele><time>2026-04-26T08:48:38.023Z</time></trkpt><trkpt lat="44.0690017" lon="11.99808"><ele>271.6</ele><time>2026-04-26T08:48:39.026Z</time></trkpt><trkpt lat="44.06907" lon="11.9981967"><ele>270.8</ele><time>2026-04-26T08:48:40.025Z</time></trkpt><trkpt lat="44.0691383" lon="11.99831"><ele>270.0</ele><time>2026-04-26T08:48:41.023Z</time></trkpt><trkpt lat="44.069205" lon="11.99844"><ele>266.8</ele><time>2026-04-26T08:48:42.027Z</time></trkpt><trkpt lat="44.06929" lon="11.9985267"><ele>263.6</ele><time>2026-04-26T08:48:43.022Z</time></trkpt><trkpt lat="44.06937" lon="11.9986183"><ele>260.4</ele><time>2026-04-26T08:48:44.021Z</time></trkpt><trkpt lat="44.0694283" lon="11.99873"><ele>257.2</ele><time>2026-04-26T08:48:45.025Z</time></trkpt><trkpt lat="44.0694667" lon="11.9988617"><ele>254.0</ele><time>2026-04-26T08:48:46.022Z</time></trkpt><trkpt lat="44.069545" lon="11.9988883"><ele>254.0</ele><time>2026-04-26T08:48:47.026Z</time></trkpt><trkpt lat="44.0696167" lon="11.998945"><ele>253.99999999999997</ele><time>2026-04-26T08:48:48.021Z</time></trkpt><trkpt lat="44.0697117" lon="11.998975"><ele>253.99999999999997</ele><time>2026-04-26T08:48:49.025Z</time></trkpt><trkpt lat="44.069835" lon="11.9990033"><ele>254.0</ele><time>2026-04-26T08:48:50.027Z</time></trkpt><trkpt lat="44.0699533" lon="11.999015"><ele>254.0</ele><time>2026-04-26T08:48:51.026Z</time></trkpt><trkpt lat="44.07002" lon="11.9989317"><ele>254.39999999999998</ele><time>2026-04-26T08:48:52.027Z</time></trkpt><trkpt lat="44.0701383" lon="11.9989017"><ele>254.79999999999998</ele><time>2026-04-26T08:48:53.025Z</time></trkpt><trkpt lat="44.0702667" lon="11.9989417"><ele>255.20000000000002</ele><time>2026-04-26T08:48:54.027Z</time></trkpt><trkpt lat="44.070345" lon="11.998905"><ele>255.60000000000002</ele><time>2026-04-26T08:48:55.025Z</time></trkpt><trkpt lat="44.0704233" lon="11.9988867"><ele>256.0</ele><time>2026-04-26T08:48:56.026Z</time></trkpt><trkpt lat="44.070495" lon="11.9989333"><ele>256.0</ele><time>2026-04-26T08:48:57.024Z</time></trkpt><trkpt lat="44.0705617" lon="11.99895"><ele>256.0</ele><time>2026-04-26T08:48:58.023Z</time></trkpt><trkpt lat="44.070635" lon="11.99907"><ele>256.0</ele><time>2026-04-26T08:49:00.024Z</time></trkpt><trkpt lat="44.07063" lon="11.9992467"><ele>256.0</ele><time>2026-04-26T08:49:02.022Z</time></trkpt><trkpt lat="44.0705983" lon="11.99935"><ele>256.0</ele><time>2026-04-26T08:49:03.024Z</time></trkpt><trkpt lat="44.0705633" lon="11.9994683"><ele>253.60000000000002</ele><time>2026-04-26T08:49:04.023Z</time></trkpt><trkpt lat="44.070515" lon="11.9995733"><ele>251.20000000000002</ele><time>2026-04-26T08:49:05.023Z</time></trkpt><trkpt lat="44.0704583" lon="11.9996683"><ele>248.79999999999998</ele><time>2026-04-26T08:49:06.025Z</time></trkpt><trkpt lat="44.070405" lon="11.9997667"><ele>246.39999999999998</ele><time>2026-04-26T08:49:07.025Z</time></trkpt><trkpt lat="44.0703333" lon="11.9998533"><ele>244.0</ele><time>2026-04-26T08:49:08.025Z</time></trkpt><trkpt lat="44.070255" lon="11.9999817"><ele>244.0</ele><time>2026-04-26T08:49:09.026Z</time></trkpt><trkpt lat="44.0701617" lon="12.0000967"><ele>243.99999999999997</ele><time>2026-04-26T08:49:10.025Z</time></trkpt><trkpt lat="44.0700667" lon="12.000155"><ele>243.99999999999997</ele><time>2026-04-26T08:49:11.024Z</time></trkpt><trkpt lat="44.07" lon="12.0002767"><ele>244.0</ele><time>2026-04-26T08:49:12.025Z</time></trkpt><trkpt lat="44.06993" lon="12.000355"><ele>244.0</ele><time>2026-04-26T08:49:13.024Z</time></trkpt><trkpt lat="44.06986" lon="12.000405"><ele>243.99999999999997</ele><time>2026-04-26T08:49:14.022Z</time></trkpt><trkpt lat="44.06981" lon="12.0004833"><ele>244.0</ele><time>2026-04-26T08:49:15.023Z</time></trkpt><trkpt lat="44.0697583" lon="12.0005617"><ele>244.0</ele><time>2026-04-26T08:49:16.023Z</time></trkpt><trkpt lat="44.069725" lon="12.0006667"><ele>244.0</ele><time>2026-04-26T08:49:17.021Z</time></trkpt><trkpt lat="44.0697083" lon="12.0007817"><ele>243.99999999999997</ele><time>2026-04-26T08:49:18.025Z</time></trkpt><trkpt lat="44.069705" lon="12.0008967"><ele>244.0</ele><time>2026-04-26T08:49:19.024Z</time></trkpt><trkpt lat="44.0697417" lon="12.0010283"><ele>241.79999999999998</ele><time>2026-04-26T08:49:20.026Z</time></trkpt><trkpt lat="44.0697783" lon="12.0011533"><ele>239.59999999999997</ele><time>2026-04-26T08:49:21.026Z</time></trkpt><trkpt lat="44.0698417" lon="12.0012817"><ele>237.4</ele><time>2026-04-26T08:49:22.024Z</time></trkpt><trkpt lat="44.0699" lon="12.0014"><ele>235.2</ele><time>2026-04-26T08:49:23.023Z</time></trkpt><trkpt lat="44.0699633" lon="12.0015083"><ele>233.0</ele><time>2026-04-26T08:49:24.024Z</time></trkpt><trkpt lat="44.0700417" lon="12.0016133"><ele>230.60000000000002</ele><time>2026-04-26T08:49:25.027Z</time></trkpt><trkpt lat="44.0701117" lon="12.0017217"><ele>228.20000000000002</ele><time>2026-04-26T08:49:26.024Z</time></trkpt><trkpt lat="44.0701583" lon="12.00184"><ele>225.8</ele><time>2026-04-26T08:49:27.023Z</time></trkpt><trkpt lat="44.07023" lon="12.0019417"><ele>223.4</ele><time>2026-04-26T08:49:28.023Z</time></trkpt><trkpt lat="44.0702983" lon="12.002065"><ele>221.0</ele><time>2026-04-26T08:49:29.022Z</time></trkpt><trkpt lat="44.0703733" lon="12.0022017"><ele>221.0</ele><time>2026-04-26T08:49:30.024Z</time></trkpt><trkpt lat="44.0704317" lon="12.0023483"><ele>221.0</ele><time>2026-04-26T08:49:31.023Z</time></trkpt><trkpt lat="44.0704967" lon="12.0024833"><ele>221.0</ele><time>2026-04-26T08:49:32.023Z</time></trkpt><trkpt lat="44.0705617" lon="12.0026083"><ele>221.0</ele><time>2026-04-26T08:49:33.026Z</time></trkpt><trkpt lat="44.070615" lon="12.0027333"><ele>218.8</ele><time>2026-04-26T08:49:34.025Z</time></trkpt><trkpt lat="44.07069" lon="12.00284"><ele>216.60000000000002</ele><time>2026-04-26T08:49:35.027Z</time></trkpt><trkpt lat="44.0707583" lon="12.002945"><ele>214.4</ele><time>2026-04-26T08:49:36.026Z</time></trkpt><trkpt lat="44.0708017" lon="12.0030567"><ele>212.2</ele><time>2026-04-26T08:49:37.024Z</time></trkpt><trkpt lat="44.070855" lon="12.0031683"><ele>210.0</ele><time>2026-04-26T08:49:38.026Z</time></trkpt><trkpt lat="44.0709067" lon="12.0032933"><ele>208.4</ele><time>2026-04-26T08:49:39.03Z</time></trkpt><trkpt lat="44.0709467" lon="12.0034317"><ele>206.8</ele><time>2026-04-26T08:49:40.026Z</time></trkpt><trkpt lat="44.07098" lon="12.003575"><ele>205.2</ele><time>2026-04-26T08:49:41.025Z</time></trkpt><trkpt lat="44.07101" lon="12.0037183"><ele>203.6</ele><time>2026-04-26T08:49:42.025Z</time></trkpt><trkpt lat="44.0710617" lon="12.00386"><ele>202.0</ele><time>2026-04-26T08:49:43.023Z</time></trkpt><trkpt lat="44.0710917" lon="12.0039967"><ele>202.0</ele><time>2026-04-26T08:49:44.026Z</time></trkpt><trkpt lat="44.0711133" lon="12.0041367"><ele>202.0</ele><time>2026-04-26T08:49:45.026Z</time></trkpt><trkpt lat="44.07112" lon="12.0042867"><ele>202.0</ele><time>2026-04-26T08:49:46.024Z</time></trkpt><trkpt lat="44.0711483" lon="12.00443"><ele>202.0</ele><time>2026-04-26T08:49:47.023Z</time></trkpt><trkpt lat="44.0711483" lon="12.004595"><ele>202.0</ele><time>2026-04-26T08:49:48.022Z</time></trkpt><trkpt lat="44.0711817" lon="12.0047433"><ele>200.0</ele><time>2026-04-26T08:49:49.026Z</time></trkpt><trkpt lat="44.071205" lon="12.0049033"><ele>198.0</ele><time>2026-04-26T08:49:50.023Z</time></trkpt><trkpt lat="44.0712433" lon="12.0050367"><ele>196.0</ele><time>2026-04-26T08:49:51.023Z</time></trkpt><trkpt lat="44.07128" lon="12.0051633"><ele>194.0</ele><time>2026-04-26T08:49:52.023Z</time></trkpt><trkpt lat="44.07131" lon="12.0052883"><ele>192.0</ele><time>2026-04-26T08:49:53.024Z</time></trkpt><trkpt lat="44.071335" lon="12.0054167"><ele>190.16666666666666</ele><time>2026-04-26T08:49:54.023Z</time></trkpt><trkpt lat="44.0713767" lon="12.00551"><ele>188.33333333333334</ele><time>2026-04-26T08:49:55.023Z</time></trkpt><trkpt lat="44.071405" lon="12.0056017"><ele>186.5</ele><time>2026-04-26T08:49:56.025Z</time></trkpt><trkpt lat="44.0714267" lon="12.00569"><ele>184.66666666666669</ele><time>2026-04-26T08:49:57.026Z</time></trkpt><trkpt lat="44.0714233" lon="12.005825"><ele>182.83333333333334</ele><time>2026-04-26T08:49:59.024Z</time></trkpt><trkpt lat="44.0713633" lon="12.0058683"><ele>181.0</ele><time>2026-04-26T08:50:00.023Z</time></trkpt><trkpt lat="44.071225" lon="12.0059217"><ele>180.8</ele><time>2026-04-26T08:50:02.025Z</time></trkpt><trkpt lat="44.0711449" lon="12.0059225"><ele>180.60000000000002</ele><time>2026-04-26T08:50:03.025Z</time></trkpt><trkpt lat="44.0710533" lon="12.0059221"><ele>180.4</ele><time>2026-04-26T08:50:04.022Z</time></trkpt><trkpt lat="44.070954" lon="12.0059111"><ele>180.2</ele><time>2026-04-26T08:50:05.025Z</time></trkpt><trkpt lat="44.0708594" lon="12.0058928"><ele>180.0</ele><time>2026-04-26T08:50:06.023Z</time></trkpt><trkpt lat="44.0707657" lon="12.0058642"><ele>180.0</ele><time>2026-04-26T08:50:07.022Z</time></trkpt><trkpt lat="44.0706722" lon="12.0058544"><ele>180.0</ele><time>2026-04-26T08:50:08.025Z</time></trkpt><trkpt lat="44.0705878" lon="12.0058768"><ele>180.0</ele><time>2026-04-26T08:50:09.028Z</time></trkpt><trkpt lat="44.0705034" lon="12.0059175"><ele>180.0</ele><time>2026-04-26T08:50:10.025Z</time></trkpt><trkpt lat="44.0704081" lon="12.0059612"><ele>180.0</ele><time>2026-04-26T08:50:11.025Z</time></trkpt><trkpt lat="44.0703114" lon="12.0060051"><ele>180.0</ele><time>2026-04-26T08:50:12.023Z</time></trkpt><trkpt lat="44.0702274" lon="12.0060554"><ele>180.0</ele><time>2026-04-26T08:50:13.025Z</time></trkpt><trkpt lat="44.0701627" lon="12.006106"><ele>180.0</ele><time>2026-04-26T08:50:14.024Z</time></trkpt><trkpt lat="44.0701132" lon="12.0062293"><ele>180.0</ele><time>2026-04-26T08:50:16.024Z</time></trkpt><trkpt lat="44.0701229" lon="12.0063759"><ele>180.0</ele><time>2026-04-26T08:50:18.025Z</time></trkpt><trkpt lat="44.0702111" lon="12.0064767"><ele>180.0</ele><time>2026-04-26T08:50:20.024Z</time></trkpt><trkpt lat="44.0702869" lon="12.0065034"><ele>180.0</ele><time>2026-04-26T08:50:21.025Z</time></trkpt><trkpt lat="44.0703479" lon="12.0065603"><ele>180.0</ele><time>2026-04-26T08:50:22.024Z</time></trkpt><trkpt lat="44.0704001" lon="12.006646"><ele>180.0</ele><time>2026-04-26T08:50:23.024Z</time></trkpt><trkpt lat="44.0704489" lon="12.0067488"><ele>180.0</ele><time>2026-04-26T08:50:24.025Z</time></trkpt><trkpt lat="44.0704868" lon="12.0068526"><ele>180.0</ele><time>2026-04-26T08:50:25.024Z</time></trkpt><trkpt lat="44.0705089" lon="12.0069418"><ele>181.0</ele><time>2026-04-26T08:50:26.024Z</time></trkpt><trkpt lat="44.0705104" lon="12.0071212"><ele>182.0</ele><time>2026-04-26T08:50:28.028Z</time></trkpt><trkpt lat="44.0704977" lon="12.0072215"><ele>183.0</ele><time>2026-04-26T08:50:29.025Z</time></trkpt><trkpt lat="44.0704771" lon="12.0073297"><ele>184.0</ele><time>2026-04-26T08:50:30.024Z</time></trkpt><trkpt lat="44.0704381" lon="12.0074526"><ele>185.0</ele><time>2026-04-26T08:50:31.024Z</time></trkpt><trkpt lat="44.0703942" lon="12.0075927"><ele>186.75</ele><time>2026-04-26T08:50:32.024Z</time></trkpt><trkpt lat="44.0703431" lon="12.007757"><ele>188.5</ele><time>2026-04-26T08:50:33.024Z</time></trkpt><trkpt lat="44.0702885" lon="12.0079311"><ele>190.25</ele><time>2026-04-26T08:50:34.024Z</time></trkpt><trkpt lat="44.0702364" lon="12.0080942"><ele>192.0</ele><time>2026-04-26T08:50:35.025Z</time></trkpt><trkpt lat="44.0701883" lon="12.008225"><ele>192.33333333333334</ele><time>2026-04-26T08:50:36.025Z</time></trkpt><trkpt lat="44.07014" lon="12.0083283"><ele>192.66666666666669</ele><time>2026-04-26T08:50:37.029Z</time></trkpt><trkpt lat="44.070095" lon="12.0084217"><ele>193.0</ele><time>2026-04-26T08:50:38.025Z</time></trkpt><trkpt lat="44.0700533" lon="12.0085133"><ele>193.33333333333334</ele><time>2026-04-26T08:50:39.024Z</time></trkpt><trkpt lat="44.0700167" lon="12.008605"><ele>193.66666666666669</ele><time>2026-04-26T08:50:40.024Z</time></trkpt><trkpt lat="44.0699833" lon="12.0086967"><ele>194.0</ele><time>2026-04-26T08:50:41.023Z</time></trkpt><trkpt lat="44.069955" lon="12.0087883"><ele>196.33333333333334</ele><time>2026-04-26T08:50:42.024Z</time></trkpt><trkpt lat="44.06993" lon="12.0088867"><ele>198.66666666666669</ele><time>2026-04-26T08:50:43.025Z</time></trkpt><trkpt lat="44.06991" lon="12.0089967"><ele>201.0</ele><time>2026-04-26T08:50:44.024Z</time></trkpt><trkpt lat="44.06989" lon="12.009115"><ele>203.33333333333331</ele><time>2026-04-26T08:50:45.023Z</time></trkpt><trkpt lat="44.0698667" lon="12.0092367"><ele>205.66666666666666</ele><time>2026-04-26T08:50:46.023Z</time></trkpt><trkpt lat="44.06984" lon="12.0093583"><ele>208.0</ele><time>2026-04-26T08:50:47.023Z</time></trkpt><trkpt lat="44.0698067" lon="12.00947"><ele>208.16666666666666</ele><time>2026-04-26T08:50:48.023Z</time></trkpt><trkpt lat="44.0697683" lon="12.009585"><ele>208.33333333333331</ele><time>2026-04-26T08:50:49.025Z</time></trkpt><trkpt lat="44.0697217" lon="12.0096983"><ele>208.5</ele><time>2026-04-26T08:50:50.023Z</time></trkpt><trkpt lat="44.0696717" lon="12.0098067"><ele>208.66666666666669</ele><time>2026-04-26T08:50:51.023Z</time></trkpt><trkpt lat="44.0696267" lon="12.009905"><ele>208.83333333333334</ele><time>2026-04-26T08:50:52.023Z</time></trkpt><trkpt lat="44.0695817" lon="12.0099817"><ele>209.0</ele><time>2026-04-26T08:50:53.023Z</time></trkpt><trkpt lat="44.0695317" lon="12.0100383"><ele>209.0</ele><time>2026-04-26T08:50:54.027Z</time></trkpt><trkpt lat="44.06943" lon="12.0100817"><ele>209.0</ele><time>2026-04-26T08:50:56.022Z</time></trkpt><trkpt lat="44.0693033" lon="12.0100417"><ele>209.0</ele><time>2026-04-26T08:50:58.024Z</time></trkpt><trkpt lat="44.0692333" lon="12.0100117"><ele>209.0</ele><time>2026-04-26T08:50:59.024Z</time></trkpt><trkpt lat="44.06915" lon="12.0099833"><ele>209.0</ele><time>2026-04-26T08:51:00.025Z</time></trkpt><trkpt lat="44.069065" lon="12.0099717"><ele>212.39999999999998</ele><time>2026-04-26T08:51:01.028Z</time></trkpt><trkpt lat="44.0689883" lon="12.0099783"><ele>215.8</ele><time>2026-04-26T08:51:02.024Z</time></trkpt><trkpt lat="44.0689183" lon="12.0100383"><ele>219.20000000000002</ele><time>2026-04-26T08:51:03.023Z</time></trkpt><trkpt lat="44.0688483" lon="12.0101233"><ele>222.60000000000002</ele><time>2026-04-26T08:51:04.024Z</time></trkpt><trkpt lat="44.0687733" lon="12.0102367"><ele>226.0</ele><time>2026-04-26T08:51:05.023Z</time></trkpt><trkpt lat="44.0686917" lon="12.0103683"><ele>226.0</ele><time>2026-04-26T08:51:06.026Z</time></trkpt><trkpt lat="44.0686083" lon="12.0104967"><ele>226.0</ele><time>2026-04-26T08:51:07.024Z</time></trkpt><trkpt lat="44.06853" lon="12.010615"><ele>226.0</ele><time>2026-04-26T08:51:08.024Z</time></trkpt><trkpt lat="44.0684583" lon="12.0107217"><ele>226.0</ele><time>2026-04-26T08:51:09.024Z</time></trkpt><trkpt lat="44.0683874" lon="12.0108312"><ele>224.75</ele><time>2026-04-26T08:51:10.024Z</time></trkpt><trkpt lat="44.0683161" lon="12.0109472"><ele>223.5</ele><time>2026-04-26T08:51:11.023Z</time></trkpt><trkpt lat="44.0682525" lon="12.0110802"><ele>222.25</ele><time>2026-04-26T08:51:12.023Z</time></trkpt><trkpt lat="44.0681972" lon="12.011238"><ele>221.0</ele><time>2026-04-26T08:51:13.022Z</time></trkpt><trkpt lat="44.0681491" lon="12.011436"><ele>224.66666666666669</ele><time>2026-04-26T08:51:14.024Z</time></trkpt><trkpt lat="44.0681065" lon="12.0116546"><ele>228.33333333333331</ele><time>2026-04-26T08:51:15.024Z</time></trkpt><trkpt lat="44.0680676" lon="12.0118699"><ele>232.0</ele><time>2026-04-26T08:51:16.023Z</time></trkpt><trkpt lat="44.0680333" lon="12.0120663"><ele>232.0</ele><time>2026-04-26T08:51:17.024Z</time></trkpt><trkpt lat="44.0680039" lon="12.0122362"><ele>232.0</ele><time>2026-04-26T08:51:18.024Z</time></trkpt><trkpt lat="44.0679751" lon="12.0123893"><ele>232.0</ele><time>2026-04-26T08:51:19.024Z</time></trkpt><trkpt lat="44.0679433" lon="12.0125394"><ele>232.0</ele><time>2026-04-26T08:51:20.024Z</time></trkpt><trkpt lat="44.0679056" lon="12.0126886"><ele>231.39999999999998</ele><time>2026-04-26T08:51:21.024Z</time></trkpt><trkpt lat="44.0678578" lon="12.0128258"><ele>230.79999999999998</ele><time>2026-04-26T08:51:22.024Z</time></trkpt><trkpt lat="44.0678028" lon="12.012937"><ele>230.2</ele><time>2026-04-26T08:51:23.023Z</time></trkpt><trkpt lat="44.067741" lon="12.0130409"><ele>229.6</ele><time>2026-04-26T08:51:24.024Z</time></trkpt><trkpt lat="44.0676784" lon="12.0131546"><ele>229.0</ele><time>2026-04-26T08:51:25.024Z</time></trkpt><trkpt lat="44.0676089" lon="12.0132727"><ele>228.0</ele><time>2026-04-26T08:51:26.024Z</time></trkpt><trkpt lat="44.067531" lon="12.0133953"><ele>227.0</ele><time>2026-04-26T08:51:27.023Z</time></trkpt><trkpt lat="44.067445" lon="12.0135343"><ele>226.0</ele><time>2026-04-26T08:51:28.024Z</time></trkpt><trkpt lat="44.06735" lon="12.0136864"><ele>225.0</ele><time>2026-04-26T08:51:29.027Z</time></trkpt><trkpt lat="44.0672484" lon="12.0138431"><ele>227.0</ele><time>2026-04-26T08:51:30.024Z</time></trkpt><trkpt lat="44.0671497" lon="12.0140013"><ele>229.0</ele><time>2026-04-26T08:51:31.025Z</time></trkpt><trkpt lat="44.0670564" lon="12.0141523"><ele>231.0</ele><time>2026-04-26T08:51:32.025Z</time></trkpt><trkpt lat="44.0669737" lon="12.014288"><ele>233.0</ele><time>2026-04-26T08:51:33.024Z</time></trkpt><trkpt lat="44.0669042" lon="12.0144004"><ele>233.2</ele><time>2026-04-26T08:51:34.024Z</time></trkpt><trkpt lat="44.0668407" lon="12.0145032"><ele>233.4</ele><time>2026-04-26T08:51:35.022Z</time></trkpt><trkpt lat="44.0667784" lon="12.0146059"><ele>233.59999999999997</ele><time>2026-04-26T08:51:36.024Z</time></trkpt><trkpt lat="44.0667147" lon="12.0147125"><ele>233.79999999999998</ele><time>2026-04-26T08:51:37.024Z</time></trkpt><trkpt lat="44.0666613" lon="12.0148113"><ele>234.0</ele><time>2026-04-26T08:51:38.027Z</time></trkpt><trkpt lat="44.0666202" lon="12.0148922"><ele>233.79999999999998</ele><time>2026-04-26T08:51:39.024Z</time></trkpt><trkpt lat="44.0665702" lon="12.0150177"><ele>233.59999999999997</ele><time>2026-04-26T08:51:41.023Z</time></trkpt><trkpt lat="44.0665813" lon="12.0151532"><ele>233.4</ele><time>2026-04-26T08:51:43.031Z</time></trkpt><trkpt lat="44.0666582" lon="12.0152924"><ele>233.2</ele><time>2026-04-26T08:51:45.023Z</time></trkpt><trkpt lat="44.0667267" lon="12.0153813"><ele>233.0</ele><time>2026-04-26T08:51:46.022Z</time></trkpt><trkpt lat="44.0668" lon="12.0154839"><ele>233.0</ele><time>2026-04-26T08:51:47.024Z</time></trkpt><trkpt lat="44.0668845" lon="12.0156024"><ele>233.0</ele><time>2026-04-26T08:51:48.022Z</time></trkpt><trkpt lat="44.06698" lon="12.0157265"><ele>233.0</ele><time>2026-04-26T08:51:49.023Z</time></trkpt><trkpt lat="44.0670869" lon="12.0158417"><ele>233.0</ele><time>2026-04-26T08:51:50.024Z</time></trkpt><trkpt lat="44.0671986" lon="12.0159354"><ele>230.0</ele><time>2026-04-26T08:51:51.025Z</time></trkpt><trkpt lat="44.0673024" lon="12.0160244"><ele>227.0</ele><time>2026-04-26T08:51:52.024Z</time></trkpt><trkpt lat="44.0673992" lon="12.0161149"><ele>224.0</ele><time>2026-04-26T08:51:53.022Z</time></trkpt><trkpt lat="44.067486" lon="12.0162186"><ele>221.0</ele><time>2026-04-26T08:51:54.023Z</time></trkpt><trkpt lat="44.0675722" lon="12.0163351"><ele>221.0</ele><time>2026-04-26T08:51:55.024Z</time></trkpt><trkpt lat="44.0676543" lon="12.016463"><ele>221.0</ele><time>2026-04-26T08:51:56.023Z</time></trkpt><trkpt lat="44.0677243" lon="12.0166026"><ele>221.0</ele><time>2026-04-26T08:51:57.024Z</time></trkpt><trkpt lat="44.0677786" lon="12.0167537"><ele>221.0</ele><time>2026-04-26T08:51:58.023Z</time></trkpt><trkpt lat="44.067817" lon="12.0169141"><ele>219.5</ele><time>2026-04-26T08:51:59.023Z</time></trkpt><trkpt lat="44.0678409" lon="12.0170799"><ele>218.0</ele><time>2026-04-26T08:52:00.024Z</time></trkpt><trkpt lat="44.0678571" lon="12.0172518"><ele>216.5</ele><time>2026-04-26T08:52:01.023Z</time></trkpt><trkpt lat="44.0678763" lon="12.0174194"><ele>215.0</ele><time>2026-04-26T08:52:02.027Z</time></trkpt><trkpt lat="44.0678986" lon="12.0175725"><ele>212.50000000000003</ele><time>2026-04-26T08:52:03.024Z</time></trkpt><trkpt lat="44.0679315" lon="12.0177021"><ele>210.0</ele><time>2026-04-26T08:52:04.023Z</time></trkpt><trkpt lat="44.0679816" lon="12.0177955"><ele>207.5</ele><time>2026-04-26T08:52:05.023Z</time></trkpt><trkpt lat="44.068038" lon="12.0178645"><ele>205.0</ele><time>2026-04-26T08:52:06.024Z</time></trkpt><trkpt lat="44.0681016" lon="12.0179155"><ele>202.50000000000003</ele><time>2026-04-26T08:52:07.024Z</time></trkpt><trkpt lat="44.0681634" lon="12.017954"><ele>200.0</ele><time>2026-04-26T08:52:08.025Z</time></trkpt><trkpt lat="44.0682193" lon="12.018004"><ele>200.0</ele><time>2026-04-26T08:52:09.023Z</time></trkpt><trkpt lat="44.0681538" lon="12.0181291"><ele>200.0</ele><time>2026-04-26T08:52:12.024Z</time></trkpt><trkpt lat="44.068073" lon="12.0181681"><ele>200.0</ele><time>2026-04-26T08:52:13.023Z</time></trkpt><trkpt lat="44.0679821" lon="12.0181833"><ele>200.0</ele><time>2026-04-26T08:52:14.024Z</time></trkpt><trkpt lat="44.0678875" lon="12.0181837"><ele>200.0</ele><time>2026-04-26T08:52:15.024Z</time></trkpt><trkpt lat="44.0677952" lon="12.0181541"><ele>200.0</ele><time>2026-04-26T08:52:16.024Z</time></trkpt><trkpt lat="44.0676783" lon="12.0180683"><ele>200.0</ele><time>2026-04-26T08:52:17.023Z</time></trkpt><trkpt lat="44.0675667" lon="12.017985"><ele>200.0</ele><time>2026-04-26T08:52:18.027Z</time></trkpt><trkpt lat="44.0674533" lon="12.0179183"><ele>200.0</ele><time>2026-04-26T08:52:19.022Z</time></trkpt><trkpt lat="44.067335" lon="12.0178467"><ele>196.75</ele><time>2026-04-26T08:52:20.025Z</time></trkpt><trkpt lat="44.0672133" lon="12.01779"><ele>193.5</ele><time>2026-04-26T08:52:21.026Z</time></trkpt><trkpt lat="44.067085" lon="12.0177417"><ele>190.25</ele><time>2026-04-26T08:52:22.022Z</time></trkpt><trkpt lat="44.0669667" lon="12.0177067"><ele>187.0</ele><time>2026-04-26T08:52:23.024Z</time></trkpt><trkpt lat="44.0668583" lon="12.0176833"><ele>187.0</ele><time>2026-04-26T08:52:24.023Z</time></trkpt><trkpt lat="44.0667517" lon="12.0176617"><ele>187.0</ele><time>2026-04-26T08:52:25.025Z</time></trkpt><trkpt lat="44.0666417" lon="12.017645"><ele>187.0</ele><time>2026-04-26T08:52:26.025Z</time></trkpt><trkpt lat="44.0665233" lon="12.0176317"><ele>187.0</ele><time>2026-04-26T08:52:27.024Z</time></trkpt><trkpt lat="44.0664017" lon="12.017615"><ele>184.75</ele><time>2026-04-26T08:52:28.023Z</time></trkpt><trkpt lat="44.0662783" lon="12.01759"><ele>182.5</ele><time>2026-04-26T08:52:29.022Z</time></trkpt><trkpt lat="44.0661517" lon="12.0175667"><ele>180.25</ele><time>2026-04-26T08:52:30.023Z</time></trkpt><trkpt lat="44.06603" lon="12.0175517"><ele>178.0</ele><time>2026-04-26T08:52:31.025Z</time></trkpt><trkpt lat="44.0659117" lon="12.01755"><ele>178.0</ele><time>2026-04-26T08:52:32.024Z</time></trkpt><trkpt lat="44.0658" lon="12.017565"><ele>178.0</ele><time>2026-04-26T08:52:33.023Z</time></trkpt><trkpt lat="44.0656967" lon="12.0175983"><ele>178.0</ele><time>2026-04-26T08:52:34.026Z</time></trkpt><trkpt lat="44.065615" lon="12.0176583"><ele>178.0</ele><time>2026-04-26T08:52:35.023Z</time></trkpt><trkpt lat="44.06556" lon="12.01775"><ele>178.0</ele><time>2026-04-26T08:52:36.023Z</time></trkpt><trkpt lat="44.0655233" lon="12.017865"><ele>177.0</ele><time>2026-04-26T08:52:37.025Z</time></trkpt><trkpt lat="44.0655017" lon="12.0179967"><ele>176.0</ele><time>2026-04-26T08:52:38.024Z</time></trkpt><trkpt lat="44.06547" lon="12.0181233"><ele>175.0</ele><time>2026-04-26T08:52:39.025Z</time></trkpt><trkpt lat="44.0654067" lon="12.01823"><ele>174.0</ele><time>2026-04-26T08:52:40.022Z</time></trkpt><trkpt lat="44.065325" lon="12.0183117"><ele>173.0</ele><time>2026-04-26T08:52:41.022Z</time></trkpt><trkpt lat="44.06524" lon="12.0183767"><ele>171.16666666666666</ele><time>2026-04-26T08:52:42.024Z</time></trkpt><trkpt lat="44.0651617" lon="12.01844"><ele>169.33333333333331</ele><time>2026-04-26T08:52:43.022Z</time></trkpt><trkpt lat="44.0650967" lon="12.01851"><ele>167.5</ele><time>2026-04-26T08:52:44.021Z</time></trkpt><trkpt lat="44.0650533" lon="12.0185883"><ele>165.66666666666666</ele><time>2026-04-26T08:52:45.026Z</time></trkpt><trkpt lat="44.0650333" lon="12.018675"><ele>163.83333333333334</ele><time>2026-04-26T08:52:46.024Z</time></trkpt><trkpt lat="44.0650367" lon="12.018765"><ele>162.0</ele><time>2026-04-26T08:52:47.023Z</time></trkpt><trkpt lat="44.0650667" lon="12.0188617"><ele>162.0</ele><time>2026-04-26T08:52:48.023Z</time></trkpt><trkpt lat="44.0651317" lon="12.0189683"><ele>162.0</ele><time>2026-04-26T08:52:49.023Z</time></trkpt><trkpt lat="44.0652217" lon="12.0190767"><ele>162.0</ele><time>2026-04-26T08:52:50.025Z</time></trkpt><trkpt lat="44.065325" lon="12.0191767"><ele>162.0</ele><time>2026-04-26T08:52:51.026Z</time></trkpt><trkpt lat="44.06542" lon="12.019275"><ele>160.5</ele><time>2026-04-26T08:52:52.025Z</time></trkpt><trkpt lat="44.0655167" lon="12.0193717"><ele>159.0</ele><time>2026-04-26T08:52:53.024Z</time></trkpt><trkpt lat="44.06562" lon="12.0194717"><ele>157.5</ele><time>2026-04-26T08:52:54.027Z</time></trkpt><trkpt lat="44.06573" lon="12.0195783"><ele>156.0</ele><time>2026-04-26T08:52:55.022Z</time></trkpt><trkpt lat="44.0658417" lon="12.0196867"><ele>156.0</ele><time>2026-04-26T08:52:56.024Z</time></trkpt><trkpt lat="44.0659483" lon="12.0197983"><ele>156.0</ele><time>2026-04-26T08:52:57.025Z</time></trkpt><trkpt lat="44.0660483" lon="12.01991"><ele>156.0</ele><time>2026-04-26T08:52:58.024Z</time></trkpt><trkpt lat="44.0661417" lon="12.0200233"><ele>156.0</ele><time>2026-04-26T08:52:59.025Z</time></trkpt><trkpt lat="44.0662283" lon="12.0201367"><ele>154.33333333333334</ele><time>2026-04-26T08:53:00.024Z</time></trkpt><trkpt lat="44.0663017" lon="12.0202383"><ele>152.66666666666666</ele><time>2026-04-26T08:53:01.024Z</time></trkpt><trkpt lat="44.0663633" lon="12.02033"><ele>151.0</ele><time>2026-04-26T08:53:02.024Z</time></trkpt><trkpt lat="44.0664217" lon="12.020425"><ele>149.33333333333331</ele><time>2026-04-26T08:53:03.024Z</time></trkpt><trkpt lat="44.0664617" lon="12.0205083"><ele>147.66666666666666</ele><time>2026-04-26T08:53:04.026Z</time></trkpt><trkpt lat="44.0664883" lon="12.02062"><ele>146.0</ele><time>2026-04-26T08:53:05.024Z</time></trkpt><trkpt lat="44.0664483" lon="12.0207317"><ele>143.4</ele><time>2026-04-26T08:53:06.022Z</time></trkpt><trkpt lat="44.0664033" lon="12.02083"><ele>140.8</ele><time>2026-04-26T08:53:07.023Z</time></trkpt><trkpt lat="44.0663333" lon="12.0209"><ele>138.20000000000002</ele><time>2026-04-26T08:53:08.026Z</time></trkpt><trkpt lat="44.0662467" lon="12.0209367"><ele>135.6</ele><time>2026-04-26T08:53:09.022Z</time></trkpt><trkpt lat="44.0661333" lon="12.0209533"><ele>133.0</ele><time>2026-04-26T08:53:10.024Z</time></trkpt><trkpt lat="44.06601" lon="12.0209617"><ele>133.0</ele><time>2026-04-26T08:53:11.023Z</time></trkpt><trkpt lat="44.0658867" lon="12.0209817"><ele>133.0</ele><time>2026-04-26T08:53:12.023Z</time></trkpt><trkpt lat="44.065765" lon="12.0209983"><ele>133.0</ele><time>2026-04-26T08:53:13.022Z</time></trkpt><trkpt lat="44.065645" lon="12.0210117"><ele>133.0</ele><time>2026-04-26T08:53:14.026Z</time></trkpt><trkpt lat="44.06553" lon="12.0210183"><ele>132.25</ele><time>2026-04-26T08:53:15.021Z</time></trkpt><trkpt lat="44.0654083" lon="12.0210133"><ele>131.5</ele><time>2026-04-26T08:53:16.02Z</time></trkpt><trkpt lat="44.0652883" lon="12.0209967"><ele>130.75</ele><time>2026-04-26T08:53:17.025Z</time></trkpt><trkpt lat="44.065175" lon="12.0209733"><ele>130.0</ele><time>2026-04-26T08:53:18.025Z</time></trkpt><trkpt lat="44.06507" lon="12.0209483"><ele>130.0</ele><time>2026-04-26T08:53:19.023Z</time></trkpt><trkpt lat="44.0649733" lon="12.0209267"><ele>130.0</ele><time>2026-04-26T08:53:20.023Z</time></trkpt><trkpt lat="44.0648783" lon="12.0208983"><ele>130.0</ele><time>2026-04-26T08:53:21.024Z</time></trkpt><trkpt lat="44.0647783" lon="12.0208633"><ele>130.0</ele><time>2026-04-26T08:53:22.023Z</time></trkpt><trkpt lat="44.0646767" lon="12.02083"><ele>130.0</ele><time>2026-04-26T08:53:23.023Z</time></trkpt><trkpt lat="44.06457" lon="12.0207917"><ele>130.2</ele><time>2026-04-26T08:53:24.027Z</time></trkpt><trkpt lat="44.06446" lon="12.0207533"><ele>130.4</ele><time>2026-04-26T08:53:25.023Z</time></trkpt><trkpt lat="44.064345" lon="12.0207183"><ele>130.6</ele><time>2026-04-26T08:53:26.025Z</time></trkpt><trkpt lat="44.0642383" lon="12.0206767"><ele>130.8</ele><time>2026-04-26T08:53:27.024Z</time></trkpt><trkpt lat="44.0641433" lon="12.0206533"><ele>131.0</ele><time>2026-04-26T08:53:28.025Z</time></trkpt><trkpt lat="44.064055" lon="12.0206267"><ele>129.66666666666666</ele><time>2026-04-26T08:53:29.024Z</time></trkpt><trkpt lat="44.06397" lon="12.0206"><ele>128.33333333333331</ele><time>2026-04-26T08:53:30.024Z</time></trkpt><trkpt lat="44.0638833" lon="12.0205633"><ele>127.0</ele><time>2026-04-26T08:53:31.022Z</time></trkpt><trkpt lat="44.0637967" lon="12.0205617"><ele>125.66666666666666</ele><time>2026-04-26T08:53:32.023Z</time></trkpt><trkpt lat="44.0637233" lon="12.0205067"><ele>124.33333333333333</ele><time>2026-04-26T08:53:33.026Z</time></trkpt><trkpt lat="44.063635" lon="12.020525"><ele>123.0</ele><time>2026-04-26T08:53:34.026Z</time></trkpt><trkpt lat="44.0635517" lon="12.0205017"><ele>123.0</ele><time>2026-04-26T08:53:35.023Z</time></trkpt><trkpt lat="44.0634733" lon="12.0204717"><ele>123.0</ele><time>2026-04-26T08:53:36.021Z</time></trkpt><trkpt lat="44.0633983" lon="12.0204433"><ele>123.0</ele><time>2026-04-26T08:53:37.024Z</time></trkpt><trkpt lat="44.063325" lon="12.0204"><ele>123.0</ele><time>2026-04-26T08:53:38.023Z</time></trkpt><trkpt lat="44.0632517" lon="12.0203817"><ele>123.0</ele><time>2026-04-26T08:53:39.027Z</time></trkpt><trkpt lat="44.0631783" lon="12.0204283"><ele>123.0</ele><time>2026-04-26T08:53:40.021Z</time></trkpt><trkpt lat="44.0631133" lon="12.0204467"><ele>121.83333333333333</ele><time>2026-04-26T08:53:41.022Z</time></trkpt><trkpt lat="44.0630533" lon="12.0205067"><ele>120.66666666666666</ele><time>2026-04-26T08:53:42.023Z</time></trkpt><trkpt lat="44.063" lon="12.0205833"><ele>119.5</ele><time>2026-04-26T08:53:43.022Z</time></trkpt><trkpt lat="44.062955" lon="12.0206733"><ele>118.33333333333333</ele><time>2026-04-26T08:53:44.021Z</time></trkpt><trkpt lat="44.0629067" lon="12.0207533"><ele>117.16666666666666</ele><time>2026-04-26T08:53:45.022Z</time></trkpt><trkpt lat="44.0628683" lon="12.02084"><ele>116.0</ele><time>2026-04-26T08:53:46.025Z</time></trkpt><trkpt lat="44.0628183" lon="12.0209183"><ele>115.2857142857143</ele><time>2026-04-26T08:53:47.025Z</time></trkpt><trkpt lat="44.0627883" lon="12.0210083"><ele>114.57142857142858</ele><time>2026-04-26T08:53:48.025Z</time></trkpt><trkpt lat="44.0627583" lon="12.0210983"><ele>113.85714285714286</ele><time>2026-04-26T08:53:49.025Z</time></trkpt><trkpt lat="44.0627183" lon="12.0211817"><ele>113.14285714285715</ele><time>2026-04-26T08:53:50.023Z</time></trkpt><trkpt lat="44.0626667" lon="12.0212383"><ele>112.42857142857144</ele><time>2026-04-26T08:53:51.025Z</time></trkpt><trkpt lat="44.06261" lon="12.021295"><ele>111.71428571428571</ele><time>2026-04-26T08:53:52.028Z</time></trkpt><trkpt lat="44.0625417" lon="12.02133"><ele>111.0</ele><time>2026-04-26T08:53:53.024Z</time></trkpt><trkpt lat="44.0624717" lon="12.02131"><ele>110.57142857142857</ele><time>2026-04-26T08:53:54.03Z</time></trkpt><trkpt lat="44.0624033" lon="12.02126"><ele>110.14285714285715</ele><time>2026-04-26T08:53:55.024Z</time></trkpt><trkpt lat="44.0623383" lon="12.0212483"><ele>109.71428571428572</ele><time>2026-04-26T08:53:56.024Z</time></trkpt><trkpt lat="44.0622883" lon="12.0211883"><ele>109.28571428571428</ele><time>2026-04-26T08:53:57.025Z</time></trkpt><trkpt lat="44.0622383" lon="12.02112"><ele>108.85714285714286</ele><time>2026-04-26T08:53:58.024Z</time></trkpt><trkpt lat="44.0621733" lon="12.0210633"><ele>108.42857142857143</ele><time>2026-04-26T08:53:59.028Z</time></trkpt><trkpt lat="44.0621133" lon="12.0210067"><ele>108.0</ele><time>2026-04-26T08:54:00.024Z</time></trkpt><trkpt lat="44.0620417" lon="12.02094"><ele>108.0</ele><time>2026-04-26T08:54:02.025Z</time></trkpt><trkpt lat="44.061985" lon="12.0208983"><ele>108.0</ele><time>2026-04-26T08:54:12.025Z</time></trkpt><trkpt lat="44.0619283" lon="12.020845"><ele>108.0</ele><time>2026-04-26T08:54:14.024Z</time></trkpt><trkpt lat="44.0618667" lon="12.0207717"><ele>108.0</ele><time>2026-04-26T08:54:17.023Z</time></trkpt><trkpt lat="44.061825" lon="12.0207033"><ele>108.0</ele><time>2026-04-26T08:54:19.025Z</time></trkpt><trkpt lat="44.0617733" lon="12.0206183"><ele>108.0</ele><time>2026-04-26T08:54:21.024Z</time></trkpt><trkpt lat="44.06172" lon="12.02053"><ele>108.0</ele><time>2026-04-26T08:54:23.024Z</time></trkpt><trkpt lat="44.0616733" lon="12.0204617"><ele>107.0</ele><time>2026-04-26T08:54:25.025Z</time></trkpt><trkpt lat="44.0616117" lon="12.0203667"><ele>106.00000000000001</ele><time>2026-04-26T08:54:28.023Z</time></trkpt><trkpt lat="44.0615367" lon="12.0203133"><ele>105.0</ele><time>2026-04-26T08:54:30.023Z</time></trkpt><trkpt lat="44.0614283" lon="12.0203317"><ele>104.0</ele><time>2026-04-26T08:54:32.023Z</time></trkpt><trkpt lat="44.06135" lon="12.020455"><ele>103.0</ele><time>2026-04-26T08:54:34.025Z</time></trkpt><trkpt lat="44.0612983" lon="12.0205117"><ele>103.0</ele><time>2026-04-26T08:54:35.024Z</time></trkpt><trkpt lat="44.0612367" lon="12.0205817"><ele>103.0</ele><time>2026-04-26T08:54:36.024Z</time></trkpt><trkpt lat="44.061165" lon="12.0206733"><ele>103.0</ele><time>2026-04-26T08:54:37.024Z</time></trkpt><trkpt lat="44.06109" lon="12.020795"><ele>103.0</ele><time>2026-04-26T08:54:38.023Z</time></trkpt><trkpt lat="44.0610117" lon="12.0209317"><ele>103.0</ele><time>2026-04-26T08:54:39.024Z</time></trkpt><trkpt lat="44.060945" lon="12.02108"><ele>102.75</ele><time>2026-04-26T08:54:40.025Z</time></trkpt><trkpt lat="44.060895" lon="12.0212333"><ele>102.5</ele><time>2026-04-26T08:54:41.024Z</time></trkpt><trkpt lat="44.060885" lon="12.0214017"><ele>102.25</ele><time>2026-04-26T08:54:42.024Z</time></trkpt><trkpt lat="44.06093" lon="12.02158"><ele>102.0</ele><time>2026-04-26T08:54:43.024Z</time></trkpt><trkpt lat="44.0609417" lon="12.02174"><ele>101.6</ele><time>2026-04-26T08:54:44.025Z</time></trkpt><trkpt lat="44.0609417" lon="12.0219033"><ele>101.19999999999999</ele><time>2026-04-26T08:54:45.024Z</time></trkpt><trkpt lat="44.06098" lon="12.0220367"><ele>100.8</ele><time>2026-04-26T08:54:46.024Z</time></trkpt><trkpt lat="44.0609983" lon="12.0221667"><ele>100.4</ele><time>2026-04-26T08:54:47.022Z</time></trkpt><trkpt lat="44.060995" lon="12.02228"><ele>100.0</ele><time>2026-04-26T08:54:48.024Z</time></trkpt><trkpt lat="44.06099" lon="12.0223867"><ele>100.00000000000001</ele><time>2026-04-26T08:54:49.024Z</time></trkpt><trkpt lat="44.060965" lon="12.02248"><ele>100.0</ele><time>2026-04-26T08:54:50.025Z</time></trkpt><trkpt lat="44.0609483" lon="12.0225817"><ele>100.0</ele><time>2026-04-26T08:54:51.027Z</time></trkpt><trkpt lat="44.0609183" lon="12.0226817"><ele>100.0</ele><time>2026-04-26T08:54:52.029Z</time></trkpt><trkpt lat="44.0608817" lon="12.0227733"><ele>100.0</ele><time>2026-04-26T08:54:53.024Z</time></trkpt><trkpt lat="44.060845" lon="12.0228617"><ele>100.00000000000001</ele><time>2026-04-26T08:54:54.024Z</time></trkpt><trkpt lat="44.0608217" lon="12.022955"><ele>100.0</ele><time>2026-04-26T08:54:55.023Z</time></trkpt><trkpt lat="44.0607967" lon="12.0230467"><ele>100.00000000000001</ele><time>2026-04-26T08:54:56.024Z</time></trkpt><trkpt lat="44.060755" lon="12.0231283"><ele>100.0</ele><time>2026-04-26T08:54:57.024Z</time></trkpt><trkpt lat="44.060725" lon="12.02323"><ele>100.0</ele><time>2026-04-26T08:54:58.024Z</time></trkpt><trkpt lat="44.0606983" lon="12.0233467"><ele>100.0</ele><time>2026-04-26T08:54:59.023Z</time></trkpt><trkpt lat="44.06067" lon="12.0234683"><ele>100.00000000000001</ele><time>2026-04-26T08:55:00.025Z</time></trkpt><trkpt lat="44.0606267" lon="12.023585"><ele>100.0</ele><time>2026-04-26T08:55:01.024Z</time></trkpt><trkpt lat="44.0605817" lon="12.023705"><ele>100.00000000000001</ele><time>2026-04-26T08:55:02.024Z</time></trkpt><trkpt lat="44.0605483" lon="12.0238383"><ele>100.0</ele><time>2026-04-26T08:55:03.024Z</time></trkpt><trkpt lat="44.060485" lon="12.0239283"><ele>100.0</ele><time>2026-04-26T08:55:04.025Z</time></trkpt><trkpt lat="44.060415" lon="12.0240033"><ele>100.0</ele><time>2026-04-26T08:55:05.023Z</time></trkpt><trkpt lat="44.060345" lon="12.024065"><ele>100.00000000000001</ele><time>2026-04-26T08:55:06.026Z</time></trkpt><trkpt lat="44.060275" lon="12.0240817"><ele>100.0</ele><time>2026-04-26T08:55:07.026Z</time></trkpt><trkpt lat="44.06021" lon="12.0240983"><ele>100.00000000000001</ele><time>2026-04-26T08:55:08.024Z</time></trkpt><trkpt lat="44.0601167" lon="12.024125"><ele>100.0</ele><time>2026-04-26T08:55:10.024Z</time></trkpt><trkpt lat="44.0600567" lon="12.0241517"><ele>100.0</ele><time>2026-04-26T08:55:12.028Z</time></trkpt><trkpt lat="44.0600017" lon="12.024205"><ele>100.0</ele><time>2026-04-26T08:55:15.024Z</time></trkpt><trkpt lat="44.06" lon="12.0242933"><ele>100.00000000000001</ele><time>2026-04-26T08:55:18.024Z</time></trkpt><trkpt lat="44.0601117" lon="12.0244367"><ele>100.0</ele><time>2026-04-26T08:55:26.026Z</time></trkpt><trkpt lat="44.06021" lon="12.0245033"><ele>101.5</ele><time>2026-04-26T08:55:27.024Z</time></trkpt><trkpt lat="44.0603117" lon="12.024605"><ele>103.0</ele><time>2026-04-26T08:55:28.027Z</time></trkpt><trkpt lat="44.0604433" lon="12.024635"><ele>104.5</ele><time>2026-04-26T08:55:29.026Z</time></trkpt><trkpt lat="44.060605" lon="12.0247217"><ele>106.0</ele><time>2026-04-26T08:55:30.025Z</time></trkpt><trkpt lat="44.0607667" lon="12.0248333"><ele>107.66666666666667</ele><time>2026-04-26T08:55:31.026Z</time></trkpt><trkpt lat="44.0609267" lon="12.0249833"><ele>109.33333333333334</ele><time>2026-04-26T08:55:32.024Z</time></trkpt><trkpt lat="44.0611033" lon="12.0250883"><ele>111.0</ele><time>2026-04-26T08:55:33.025Z</time></trkpt><trkpt lat="44.06128" lon="12.0252017"><ele>111.0</ele><time>2026-04-26T08:55:34.025Z</time></trkpt><trkpt lat="44.061455" lon="12.02533"><ele>111.0</ele><time>2026-04-26T08:55:35.026Z</time></trkpt><trkpt lat="44.06163" lon="12.0254517"><ele>111.0</ele><time>2026-04-26T08:55:36.023Z</time></trkpt><trkpt lat="44.0617983" lon="12.0255717"><ele>110.33333333333334</ele><time>2026-04-26T08:55:37.024Z</time></trkpt><trkpt lat="44.06197" lon="12.02567"><ele>109.66666666666667</ele><time>2026-04-26T08:55:38.026Z</time></trkpt><trkpt lat="44.0621317" lon="12.0257883"><ele>109.0</ele><time>2026-04-26T08:55:39.027Z</time></trkpt><trkpt lat="44.062295" lon="12.0258933"><ele>110.33333333333334</ele><time>2026-04-26T08:55:40.024Z</time></trkpt><trkpt lat="44.062465" lon="12.0259983"><ele>111.66666666666666</ele><time>2026-04-26T08:55:41.024Z</time></trkpt><trkpt lat="44.062635" lon="12.02611"><ele>113.0</ele><time>2026-04-26T08:55:42.025Z</time></trkpt><trkpt lat="44.0628" lon="12.0262467"><ele>113.0</ele><time>2026-04-26T08:55:43.026Z</time></trkpt><trkpt lat="44.0629683" lon="12.0263533"><ele>113.0</ele><time>2026-04-26T08:55:44.026Z</time></trkpt><trkpt lat="44.0631317" lon="12.02647"><ele>113.0</ele><time>2026-04-26T08:55:45.024Z</time></trkpt><trkpt lat="44.0633" lon="12.0265617"><ele>113.66666666666666</ele><time>2026-04-26T08:55:46.024Z</time></trkpt><trkpt lat="44.0634733" lon="12.0266417"><ele>114.33333333333334</ele><time>2026-04-26T08:55:47.025Z</time></trkpt><trkpt lat="44.0636367" lon="12.0267517"><ele>115.0</ele><time>2026-04-26T08:55:48.023Z</time></trkpt><trkpt lat="44.0637967" lon="12.0268333"><ele>115.0</ele><time>2026-04-26T08:55:49.029Z</time></trkpt><trkpt lat="44.063945" lon="12.0269083"><ele>115.0</ele><time>2026-04-26T08:55:50.023Z</time></trkpt><trkpt lat="44.0640933" lon="12.0269817"><ele>115.0</ele><time>2026-04-26T08:55:51.027Z</time></trkpt><trkpt lat="44.0642483" lon="12.0270483"><ele>114.66666666666667</ele><time>2026-04-26T08:55:52.023Z</time></trkpt><trkpt lat="44.064405" lon="12.0271217"><ele>114.33333333333334</ele><time>2026-04-26T08:55:53.025Z</time></trkpt><trkpt lat="44.0645633" lon="12.0272067"><ele>114.0</ele><time>2026-04-26T08:55:54.023Z</time></trkpt><trkpt lat="44.0647317" lon="12.0272833"><ele>114.0</ele><time>2026-04-26T08:55:55.024Z</time></trkpt><trkpt lat="44.0649067" lon="12.0273617"><ele>114.0</ele><time>2026-04-26T08:55:56.025Z</time></trkpt><trkpt lat="44.0650767" lon="12.0274483"><ele>114.0</ele><time>2026-04-26T08:55:57.027Z</time></trkpt><trkpt lat="44.065245" lon="12.0275417"><ele>114.0</ele><time>2026-04-26T08:55:58.024Z</time></trkpt><trkpt lat="44.0654067" lon="12.02764"><ele>114.0</ele><time>2026-04-26T08:55:59.023Z</time></trkpt><trkpt lat="44.0655683" lon="12.0277183"><ele>114.0</ele><time>2026-04-26T08:56:00.024Z</time></trkpt><trkpt lat="44.065725" lon="12.0277917"><ele>113.33333333333334</ele><time>2026-04-26T08:56:01.026Z</time></trkpt><trkpt lat="44.0658767" lon="12.0278633"><ele>112.66666666666667</ele><time>2026-04-26T08:56:02.023Z</time></trkpt><trkpt lat="44.066025" lon="12.0279483"><ele>112.0</ele><time>2026-04-26T08:56:03.026Z</time></trkpt><trkpt lat="44.0661767" lon="12.028035"><ele>112.0</ele><time>2026-04-26T08:56:04.023Z</time></trkpt><trkpt lat="44.0663283" lon="12.0281183"><ele>112.0</ele><time>2026-04-26T08:56:05.025Z</time></trkpt><trkpt lat="44.0664783" lon="12.0282133"><ele>112.0</ele><time>2026-04-26T08:56:06.025Z</time></trkpt><trkpt lat="44.0666267" lon="12.028305"><ele>112.66666666666667</ele><time>2026-04-26T08:56:07.022Z</time></trkpt><trkpt lat="44.0667633" lon="12.02841"><ele>113.33333333333334</ele><time>2026-04-26T08:56:08.025Z</time></trkpt><trkpt lat="44.0669117" lon="12.0284933"><ele>114.0</ele><time>2026-04-26T08:56:09.025Z</time></trkpt><trkpt lat="44.0670483" lon="12.02861"><ele>114.0</ele><time>2026-04-26T08:56:10.022Z</time></trkpt><trkpt lat="44.0671883" lon="12.02872"><ele>114.0</ele><time>2026-04-26T08:56:11.025Z</time></trkpt><trkpt lat="44.06733" lon="12.0288333"><ele>114.0</ele><time>2026-04-26T08:56:12.026Z</time></trkpt><trkpt lat="44.0674733" lon="12.0289517"><ele>114.33333333333334</ele><time>2026-04-26T08:56:13.026Z</time></trkpt><trkpt lat="44.0676217" lon="12.0290683"><ele>114.66666666666667</ele><time>2026-04-26T08:56:14.029Z</time></trkpt><trkpt lat="44.0677817" lon="12.0291717"><ele>115.0</ele><time>2026-04-26T08:56:15.026Z</time></trkpt><trkpt lat="44.0679383" lon="12.0292867"><ele>115.0</ele><time>2026-04-26T08:56:16.027Z</time></trkpt><trkpt lat="44.068095" lon="12.0294"><ele>115.0</ele><time>2026-04-26T08:56:17.024Z</time></trkpt><trkpt lat="44.0682467" lon="12.0295167"><ele>115.0</ele><time>2026-04-26T08:56:18.025Z</time></trkpt><trkpt lat="44.0684" lon="12.029615"><ele>114.33333333333334</ele><time>2026-04-26T08:56:19.029Z</time></trkpt><trkpt lat="44.06854" lon="12.0297383"><ele>113.66666666666666</ele><time>2026-04-26T08:56:20.025Z</time></trkpt><trkpt lat="44.0686817" lon="12.029835"><ele>113.0</ele><time>2026-04-26T08:56:21.026Z</time></trkpt><trkpt lat="44.0688217" lon="12.0299217"><ele>113.66666666666666</ele><time>2026-04-26T08:56:22.026Z</time></trkpt><trkpt lat="44.068955" lon="12.03001"><ele>114.33333333333334</ele><time>2026-04-26T08:56:23.022Z</time></trkpt><trkpt lat="44.0690883" lon="12.0301083"><ele>115.0</ele><time>2026-04-26T08:56:24.024Z</time></trkpt><trkpt lat="44.069225" lon="12.0302"><ele>115.0</ele><time>2026-04-26T08:56:25.024Z</time></trkpt><trkpt lat="44.069365" lon="12.030285"><ele>115.0</ele><time>2026-04-26T08:56:26.023Z</time></trkpt><trkpt lat="44.069505" lon="12.0303667"><ele>115.0</ele><time>2026-04-26T08:56:27.026Z</time></trkpt><trkpt lat="44.0696267" lon="12.0304783"><ele>115.0</ele><time>2026-04-26T08:56:28.022Z</time></trkpt><trkpt lat="44.0697583" lon="12.0305617"><ele>115.0</ele><time>2026-04-26T08:56:29.024Z</time></trkpt><trkpt lat="44.0698883" lon="12.0306517"><ele>115.0</ele><time>2026-04-26T08:56:30.025Z</time></trkpt><trkpt lat="44.0700167" lon="12.0307583"><ele>115.0</ele><time>2026-04-26T08:56:31.023Z</time></trkpt><trkpt lat="44.0701483" lon="12.030855"><ele>115.0</ele><time>2026-04-26T08:56:32.024Z</time></trkpt><trkpt lat="44.07028" lon="12.0309533"><ele>115.0</ele><time>2026-04-26T08:56:33.025Z</time></trkpt><trkpt lat="44.0704167" lon="12.0310433"><ele>115.0</ele><time>2026-04-26T08:56:34.023Z</time></trkpt><trkpt lat="44.070555" lon="12.031135"><ele>115.0</ele><time>2026-04-26T08:56:35.023Z</time></trkpt><trkpt lat="44.0706983" lon="12.031225"><ele>115.0</ele><time>2026-04-26T08:56:36.024Z</time></trkpt><trkpt lat="44.0708433" lon="12.03132"><ele>115.0</ele><time>2026-04-26T08:56:37.025Z</time></trkpt><trkpt lat="44.0709933" lon="12.0314083"><ele>115.33333333333334</ele><time>2026-04-26T08:56:38.025Z</time></trkpt><trkpt lat="44.07114" lon="12.0315033"><ele>115.66666666666666</ele><time>2026-04-26T08:56:39.024Z</time></trkpt><trkpt lat="44.071295" lon="12.0315867"><ele>116.0</ele><time>2026-04-26T08:56:40.028Z</time></trkpt><trkpt lat="44.0714483" lon="12.0316583"><ele>116.0</ele><time>2026-04-26T08:56:41.023Z</time></trkpt><trkpt lat="44.0715883" lon="12.03174"><ele>116.0</ele><time>2026-04-26T08:56:42.024Z</time></trkpt><trkpt lat="44.07172" lon="12.0318183"><ele>116.0</ele><time>2026-04-26T08:56:43.025Z</time></trkpt><trkpt lat="44.0718483" lon="12.0318883"><ele>116.0</ele><time>2026-04-26T08:56:44.021Z</time></trkpt><trkpt lat="44.0719783" lon="12.031945"><ele>115.25</ele><time>2026-04-26T08:56:45.025Z</time></trkpt><trkpt lat="44.072105" lon="12.032"><ele>114.5</ele><time>2026-04-26T08:56:46.023Z</time></trkpt><trkpt lat="44.07223" lon="12.03206"><ele>113.75</ele><time>2026-04-26T08:56:47.024Z</time></trkpt><trkpt lat="44.072355" lon="12.0321317"><ele>113.0</ele><time>2026-04-26T08:56:48.027Z</time></trkpt><trkpt lat="44.07249" lon="12.0321783"><ele>110.33333333333333</ele><time>2026-04-26T08:56:49.026Z</time></trkpt><trkpt lat="44.072635" lon="12.03222"><ele>107.66666666666666</ele><time>2026-04-26T08:56:50.025Z</time></trkpt><trkpt lat="44.0727867" lon="12.03226"><ele>105.0</ele><time>2026-04-26T08:56:51.022Z</time></trkpt><trkpt lat="44.0729317" lon="12.03231"><ele>105.0</ele><time>2026-04-26T08:56:52.022Z</time></trkpt><trkpt lat="44.0730817" lon="12.032355"><ele>105.0</ele><time>2026-04-26T08:56:53.026Z</time></trkpt><trkpt lat="44.0732333" lon="12.03241"><ele>105.0</ele><time>2026-04-26T08:56:54.022Z</time></trkpt><trkpt lat="44.073395" lon="12.0324217"><ele>99.66666666666667</ele><time>2026-04-26T08:56:55.024Z</time></trkpt><trkpt lat="44.0735483" lon="12.0324733"><ele>94.33333333333334</ele><time>2026-04-26T08:56:56.023Z</time></trkpt><trkpt lat="44.073715" lon="12.0324917"><ele>89.0</ele><time>2026-04-26T08:56:57.026Z</time></trkpt><trkpt lat="44.073885" lon="12.03252"><ele>89.0</ele><time>2026-04-26T08:56:58.026Z</time></trkpt><trkpt lat="44.074065" lon="12.0325383"><ele>89.0</ele><time>2026-04-26T08:56:59.024Z</time></trkpt><trkpt lat="44.074255" lon="12.0325383"><ele>89.0</ele><time>2026-04-26T08:57:00.024Z</time></trkpt><trkpt lat="44.0744483" lon="12.032565"><ele>90.33333333333334</ele><time>2026-04-26T08:57:01.024Z</time></trkpt><trkpt lat="44.0746483" lon="12.032615"><ele>91.66666666666667</ele><time>2026-04-26T08:57:02.023Z</time></trkpt><trkpt lat="44.0748583" lon="12.03262"><ele>93.0</ele><time>2026-04-26T08:57:03.022Z</time></trkpt><trkpt lat="44.07507" lon="12.03265"><ele>95.33333333333334</ele><time>2026-04-26T08:57:04.023Z</time></trkpt><trkpt lat="44.0752867" lon="12.0326817"><ele>97.66666666666667</ele><time>2026-04-26T08:57:05.023Z</time></trkpt><trkpt lat="44.07551" lon="12.0327017"><ele>100.0</ele><time>2026-04-26T08:57:06.028Z</time></trkpt><trkpt lat="44.0757333" lon="12.0327233"><ele>100.0</ele><time>2026-04-26T08:57:07.023Z</time></trkpt><trkpt lat="44.07596" lon="12.0327717"><ele>100.0</ele><time>2026-04-26T08:57:08.022Z</time></trkpt><trkpt lat="44.0761867" lon="12.0328017"><ele>100.0</ele><time>2026-04-26T08:57:09.023Z</time></trkpt><trkpt lat="44.0764133" lon="12.0328283"><ele>100.0</ele><time>2026-04-26T08:57:10.024Z</time></trkpt><trkpt lat="44.076635" lon="12.0328517"><ele>100.66666666666667</ele><time>2026-04-26T08:57:11.023Z</time></trkpt><trkpt lat="44.0768467" lon="12.032885"><ele>101.33333333333334</ele><time>2026-04-26T08:57:12.022Z</time></trkpt><trkpt lat="44.0770433" lon="12.0329683"><ele>102.0</ele><time>2026-04-26T08:57:13.023Z</time></trkpt><trkpt lat="44.07724" lon="12.0330433"><ele>102.0</ele><time>2026-04-26T08:57:14.023Z</time></trkpt><trkpt lat="44.0774333" lon="12.0331233"><ele>102.0</ele><time>2026-04-26T08:57:15.025Z</time></trkpt><trkpt lat="44.0776233" lon="12.0332133"><ele>102.0</ele><time>2026-04-26T08:57:16.023Z</time></trkpt><trkpt lat="44.0778133" lon="12.0333067"><ele>102.33333333333334</ele><time>2026-04-26T08:57:17.022Z</time></trkpt><trkpt lat="44.0780083" lon="12.033385"><ele>102.66666666666667</ele><time>2026-04-26T08:57:18.024Z</time></trkpt><trkpt lat="44.0781883" lon="12.033495"><ele>103.0</ele><time>2026-04-26T08:57:19.024Z</time></trkpt><trkpt lat="44.0783617" lon="12.0336167"><ele>103.0</ele><time>2026-04-26T08:57:20.025Z</time></trkpt><trkpt lat="44.07852" lon="12.0337317"><ele>103.0</ele><time>2026-04-26T08:57:21.022Z</time></trkpt><trkpt lat="44.07867" lon="12.033855"><ele>103.0</ele><time>2026-04-26T08:57:22.024Z</time></trkpt><trkpt lat="44.078825" lon="12.0339767"><ele>103.0</ele><time>2026-04-26T08:57:23.021Z</time></trkpt><trkpt lat="44.0789617" lon="12.03412"><ele>103.0</ele><time>2026-04-26T08:57:24.022Z</time></trkpt><trkpt lat="44.0790883" lon="12.03426"><ele>103.0</ele><time>2026-04-26T08:57:25.023Z</time></trkpt><trkpt lat="44.0792067" lon="12.0343867"><ele>103.5</ele><time>2026-04-26T08:57:26.021Z</time></trkpt><trkpt lat="44.0793267" lon="12.0344933"><ele>104.0</ele><time>2026-04-26T08:57:27.027Z</time></trkpt><trkpt lat="44.0794267" lon="12.0346183"><ele>104.5</ele><time>2026-04-26T08:57:28.024Z</time></trkpt><trkpt lat="44.07952" lon="12.0347317"><ele>105.0</ele><time>2026-04-26T08:57:29.022Z</time></trkpt><trkpt lat="44.079615" lon="12.03482"><ele>105.0</ele><time>2026-04-26T08:57:30.025Z</time></trkpt><trkpt lat="44.0795833" lon="12.03496"><ele>105.0</ele><time>2026-04-26T08:57:31.023Z</time></trkpt><trkpt lat="44.07965" lon="12.035035"><ele>105.0</ele><time>2026-04-26T08:57:32.023Z</time></trkpt><trkpt lat="44.0797017" lon="12.03513"><ele>105.0</ele><time>2026-04-26T08:57:33.023Z</time></trkpt><trkpt lat="44.0797" lon="12.0352783"><ele>105.0</ele><time>2026-04-26T08:57:34.023Z</time></trkpt><trkpt lat="44.0796667" lon="12.03542"><ele>104.8</ele><time>2026-04-26T08:57:35.022Z</time></trkpt><trkpt lat="44.0796183" lon="12.0355433"><ele>104.6</ele><time>2026-04-26T08:57:36.024Z</time></trkpt><trkpt lat="44.0795683" lon="12.035655"><ele>104.4</ele><time>2026-04-26T08:57:37.024Z</time></trkpt><trkpt lat="44.07953" lon="12.0357883"><ele>104.2</ele><time>2026-04-26T08:57:38.024Z</time></trkpt><trkpt lat="44.079475" lon="12.0358983"><ele>104.0</ele><time>2026-04-26T08:57:39.025Z</time></trkpt><trkpt lat="44.0794067" lon="12.0359917"><ele>103.83333333333333</ele><time>2026-04-26T08:57:40.023Z</time></trkpt><trkpt lat="44.0793767" lon="12.0360817"><ele>103.66666666666666</ele><time>2026-04-26T08:57:41.027Z</time></trkpt><trkpt lat="44.0793183" lon="12.0362117"><ele>103.5</ele><time>2026-04-26T08:57:43.024Z</time></trkpt><trkpt lat="44.07926" lon="12.036325"><ele>103.33333333333334</ele><time>2026-04-26T08:57:45.026Z</time></trkpt><trkpt lat="44.07922" lon="12.0364"><ele>103.16666666666667</ele><time>2026-04-26T08:57:46.029Z</time></trkpt><trkpt lat="44.079185" lon="12.036505"><ele>103.0</ele><time>2026-04-26T08:57:47.025Z</time></trkpt><trkpt lat="44.0791283" lon="12.0366133"><ele>102.16666666666667</ele><time>2026-04-26T08:57:48.024Z</time></trkpt><trkpt lat="44.0790783" lon="12.0367283"><ele>101.33333333333334</ele><time>2026-04-26T08:57:49.025Z</time></trkpt><trkpt lat="44.0790383" lon="12.0368333"><ele>100.5</ele><time>2026-04-26T08:57:50.025Z</time></trkpt><trkpt lat="44.079" lon="12.0369283"><ele>99.66666666666666</ele><time>2026-04-26T08:57:51.026Z</time></trkpt><trkpt lat="44.078955" lon="12.037015"><ele>98.83333333333333</ele><time>2026-04-26T08:57:52.025Z</time></trkpt><trkpt lat="44.0789333" lon="12.0371167"><ele>98.0</ele><time>2026-04-26T08:57:53.024Z</time></trkpt><trkpt lat="44.0788867" lon="12.03719"><ele>98.0</ele><time>2026-04-26T08:57:54.026Z</time></trkpt><trkpt lat="44.0788383" lon="12.0373167"><ele>98.0</ele><time>2026-04-26T08:57:56.022Z</time></trkpt><trkpt lat="44.078745" lon="12.0373317"><ele>98.0</ele><time>2026-04-26T08:57:58.024Z</time></trkpt><trkpt lat="44.0786817" lon="12.0373267"><ele>98.0</ele><time>2026-04-26T08:57:59.025Z</time></trkpt><trkpt lat="44.0785917" lon="12.0372083"><ele>98.0</ele><time>2026-04-26T08:58:00.025Z</time></trkpt><trkpt lat="44.0784783" lon="12.0371267"><ele>98.0</ele><time>2026-04-26T08:58:01.025Z</time></trkpt><trkpt lat="44.0783883" lon="12.0370033"><ele>98.0</ele><time>2026-04-26T08:58:02.029Z</time></trkpt><trkpt lat="44.078275" lon="12.03698"><ele>98.0</ele><time>2026-04-26T08:58:03.024Z</time></trkpt><trkpt lat="44.0782267" lon="12.036855"><ele>98.0</ele><time>2026-04-26T08:58:04.024Z</time></trkpt><trkpt lat="44.0781933" lon="12.0367317"><ele>98.0</ele><time>2026-04-26T08:58:05.023Z</time></trkpt><trkpt lat="44.0781283" lon="12.03666"><ele>96.25</ele><time>2026-04-26T08:58:06.023Z</time></trkpt><trkpt lat="44.07808" lon="12.0365083"><ele>94.5</ele><time>2026-04-26T08:58:07.022Z</time></trkpt><trkpt lat="44.0780383" lon="12.0363133"><ele>92.75</ele><time>2026-04-26T08:58:08.025Z</time></trkpt><trkpt lat="44.077955" lon="12.036135"><ele>91.0</ele><time>2026-04-26T08:58:09.027Z</time></trkpt><trkpt lat="44.0779667" lon="12.0359033"><ele>91.66666666666666</ele><time>2026-04-26T08:58:10.025Z</time></trkpt><trkpt lat="44.0778717" lon="12.035695"><ele>92.33333333333333</ele><time>2026-04-26T08:58:11.024Z</time></trkpt><trkpt lat="44.07777" lon="12.0355233"><ele>93.0</ele><time>2026-04-26T08:58:12.024Z</time></trkpt><trkpt lat="44.077685" lon="12.0353283"><ele>93.0</ele><time>2026-04-26T08:58:13.025Z</time></trkpt><trkpt lat="44.0776283" lon="12.0351217"><ele>93.0</ele><time>2026-04-26T08:58:14.023Z</time></trkpt><trkpt lat="44.0775917" lon="12.03491"><ele>93.0</ele><time>2026-04-26T08:58:15.025Z</time></trkpt><trkpt lat="44.0775433" lon="12.03472"><ele>93.0</ele><time>2026-04-26T08:58:16.025Z</time></trkpt><trkpt lat="44.0774917" lon="12.0345383"><ele>93.0</ele><time>2026-04-26T08:58:17.023Z</time></trkpt><trkpt lat="44.0774417" lon="12.03436"><ele>93.0</ele><time>2026-04-26T08:58:18.023Z</time></trkpt><trkpt lat="44.07739" lon="12.0341817"><ele>93.0</ele><time>2026-04-26T08:58:19.025Z</time></trkpt><trkpt lat="44.077315" lon="12.03403"><ele>93.0</ele><time>2026-04-26T08:58:20.031Z</time></trkpt><trkpt lat="44.0772017" lon="12.0339267"><ele>93.0</ele><time>2026-04-26T08:58:21.025Z</time></trkpt><trkpt lat="44.077065" lon="12.0338333"><ele>93.0</ele><time>2026-04-26T08:58:22.024Z</time></trkpt><trkpt lat="44.0769033" lon="12.0337733"><ele>93.0</ele><time>2026-04-26T08:58:23.024Z</time></trkpt><trkpt lat="44.0767167" lon="12.033755"><ele>93.0</ele><time>2026-04-26T08:58:24.025Z</time></trkpt><trkpt lat="44.0765217" lon="12.0337083"><ele>93.0</ele><time>2026-04-26T08:58:25.025Z</time></trkpt><trkpt lat="44.0763217" lon="12.033675"><ele>92.33333333333333</ele><time>2026-04-26T08:58:26.025Z</time></trkpt><trkpt lat="44.0761167" lon="12.0336883"><ele>91.66666666666666</ele><time>2026-04-26T08:58:27.027Z</time></trkpt><trkpt lat="44.0759067" lon="12.0336417"><ele>91.0</ele><time>2026-04-26T08:58:28.024Z</time></trkpt><trkpt lat="44.0756967" lon="12.033605"><ele>91.0</ele><time>2026-04-26T08:58:29.023Z</time></trkpt><trkpt lat="44.0754817" lon="12.03356"><ele>91.0</ele><time>2026-04-26T08:58:30.023Z</time></trkpt><trkpt lat="44.075265" lon="12.0335383"><ele>91.0</ele><time>2026-04-26T08:58:31.023Z</time></trkpt><trkpt lat="44.0750533" lon="12.0335083"><ele>90.0</ele><time>2026-04-26T08:58:32.024Z</time></trkpt><trkpt lat="44.0748533" lon="12.0334817"><ele>89.0</ele><time>2026-04-26T08:58:33.024Z</time></trkpt><trkpt lat="44.0746717" lon="12.0334583"><ele>88.0</ele><time>2026-04-26T08:58:34.024Z</time></trkpt><trkpt lat="44.0745" lon="12.0334367"><ele>88.0</ele><time>2026-04-26T08:58:35.022Z</time></trkpt><trkpt lat="44.0743383" lon="12.033385"><ele>88.0</ele><time>2026-04-26T08:58:36.023Z</time></trkpt><trkpt lat="44.07419" lon="12.0334033"><ele>88.0</ele><time>2026-04-26T08:58:37.022Z</time></trkpt><trkpt lat="44.074035" lon="12.0333817"><ele>88.0</ele><time>2026-04-26T08:58:38.024Z</time></trkpt><trkpt lat="44.0738733" lon="12.03334"><ele>88.0</ele><time>2026-04-26T08:58:39.024Z</time></trkpt><trkpt lat="44.0737117" lon="12.033325"><ele>88.0</ele><time>2026-04-26T08:58:40.022Z</time></trkpt><trkpt lat="44.0735567" lon="12.0333033"><ele>88.25</ele><time>2026-04-26T08:58:41.021Z</time></trkpt><trkpt lat="44.07341" lon="12.0332817"><ele>88.5</ele><time>2026-04-26T08:58:42.021Z</time></trkpt><trkpt lat="44.0732767" lon="12.0332483"><ele>88.75</ele><time>2026-04-26T08:58:43.025Z</time></trkpt><trkpt lat="44.0731633" lon="12.0331933"><ele>89.0</ele><time>2026-04-26T08:58:44.023Z</time></trkpt><trkpt lat="44.07307" lon="12.033105"><ele>92.2</ele><time>2026-04-26T08:58:45.021Z</time></trkpt><trkpt lat="44.07299" lon="12.032985"><ele>95.4</ele><time>2026-04-26T08:58:46.022Z</time></trkpt><trkpt lat="44.0729283" lon="12.0328483"><ele>98.6</ele><time>2026-04-26T08:58:47.024Z</time></trkpt><trkpt lat="44.0728817" lon="12.0327117"><ele>101.8</ele><time>2026-04-26T08:58:48.028Z</time></trkpt><trkpt lat="44.0728467" lon="12.0325883"><ele>105.0</ele><time>2026-04-26T08:58:49.024Z</time></trkpt><trkpt lat="44.0728267" lon="12.0324867"><ele>105.0</ele><time>2026-04-26T08:58:50.023Z</time></trkpt><trkpt lat="44.072795" lon="12.03236"><ele>105.0</ele><time>2026-04-26T08:58:52.022Z</time></trkpt><trkpt lat="44.07273" lon="12.0323617"><ele>105.0</ele><time>2026-04-26T08:58:55.023Z</time></trkpt><trkpt lat="44.0727083" lon="12.03248"><ele>105.0</ele><time>2026-04-26T08:58:56.024Z</time></trkpt><trkpt lat="44.0727567" lon="12.0327017"><ele>105.0</ele><time>2026-04-26T08:58:57.026Z</time></trkpt><trkpt lat="44.0728" lon="12.032905"><ele>105.0</ele><time>2026-04-26T08:58:58.023Z</time></trkpt><trkpt lat="44.072785" lon="12.0331167"><ele>105.0</ele><time>2026-04-26T08:58:59.022Z</time></trkpt><trkpt lat="44.0728533" lon="12.0332583"><ele>105.0</ele><time>2026-04-26T08:59:00.023Z</time></trkpt><trkpt lat="44.0729" lon="12.0334117"><ele>105.0</ele><time>2026-04-26T08:59:01.021Z</time></trkpt><trkpt lat="44.0729783" lon="12.0335583"><ele>102.75</ele><time>2026-04-26T08:59:02.025Z</time></trkpt><trkpt lat="44.0730717" lon="12.0336933"><ele>100.5</ele><time>2026-04-26T08:59:03.024Z</time></trkpt><trkpt lat="44.0730267" lon="12.0338183"><ele>98.25</ele><time>2026-04-26T08:59:04.022Z</time></trkpt><trkpt lat="44.0731367" lon="12.033975"><ele>96.0</ele><time>2026-04-26T08:59:05.026Z</time></trkpt><trkpt lat="44.0732167" lon="12.0341867"><ele>93.0</ele><time>2026-04-26T08:59:06.021Z</time></trkpt><trkpt lat="44.0732217" lon="12.03442"><ele>90.0</ele><time>2026-04-26T08:59:07.024Z</time></trkpt><trkpt lat="44.0732" lon="12.0346667"><ele>87.0</ele><time>2026-04-26T08:59:08.022Z</time></trkpt><trkpt lat="44.0732317" lon="12.0349583"><ele>86.66666666666667</ele><time>2026-04-26T08:59:09.025Z</time></trkpt><trkpt lat="44.0732083" lon="12.0351683"><ele>86.33333333333334</ele><time>2026-04-26T08:59:10.028Z</time></trkpt><trkpt lat="44.0733033" lon="12.0353317"><ele>86.0</ele><time>2026-04-26T08:59:11.022Z</time></trkpt><trkpt lat="44.0733333" lon="12.0355717"><ele>85.66666666666667</ele><time>2026-04-26T08:59:12.023Z</time></trkpt><trkpt lat="44.073355" lon="12.0358283"><ele>85.33333333333333</ele><time>2026-04-26T08:59:13.022Z</time></trkpt><trkpt lat="44.0734183" lon="12.0360833"><ele>85.0</ele><time>2026-04-26T08:59:14.025Z</time></trkpt><trkpt lat="44.073505" lon="12.0363483"><ele>85.0</ele><time>2026-04-26T08:59:15.024Z</time></trkpt><trkpt lat="44.0735917" lon="12.03662"><ele>85.0</ele><time>2026-04-26T08:59:16.026Z</time></trkpt><trkpt lat="44.0736717" lon="12.0368983"><ele>85.0</ele><time>2026-04-26T08:59:17.023Z</time></trkpt><trkpt lat="44.0737583" lon="12.0371783"><ele>84.66666666666666</ele><time>2026-04-26T08:59:18.023Z</time></trkpt><trkpt lat="44.0738433" lon="12.0374517"><ele>84.33333333333333</ele><time>2026-04-26T08:59:19.023Z</time></trkpt><trkpt lat="44.0739433" lon="12.0377083"><ele>84.0</ele><time>2026-04-26T08:59:20.023Z</time></trkpt><trkpt lat="44.0740117" lon="12.0379667"><ele>83.66666666666667</ele><time>2026-04-26T08:59:21.027Z</time></trkpt><trkpt lat="44.0740867" lon="12.0382217"><ele>83.33333333333334</ele><time>2026-04-26T08:59:22.024Z</time></trkpt><trkpt lat="44.07416" lon="12.0384733"><ele>83.0</ele><time>2026-04-26T08:59:23.023Z</time></trkpt><trkpt lat="44.0742333" lon="12.0387217"><ele>83.0</ele><time>2026-04-26T08:59:24.024Z</time></trkpt><trkpt lat="44.0743017" lon="12.0389567"><ele>83.0</ele><time>2026-04-26T08:59:25.025Z</time></trkpt><trkpt lat="44.074375" lon="12.039175"><ele>83.0</ele><time>2026-04-26T08:59:26.023Z</time></trkpt><trkpt lat="44.0744317" lon="12.0393783"><ele>84.0</ele><time>2026-04-26T08:59:27.024Z</time></trkpt><trkpt lat="44.0744817" lon="12.0395667"><ele>85.0</ele><time>2026-04-26T08:59:28.023Z</time></trkpt><trkpt lat="44.0745217" lon="12.0397283"><ele>86.0</ele><time>2026-04-26T08:59:29.024Z</time></trkpt><trkpt lat="44.07456" lon="12.039865"><ele>87.0</ele><time>2026-04-26T08:59:30.024Z</time></trkpt><trkpt lat="44.0746083" lon="12.03997"><ele>87.0</ele><time>2026-04-26T08:59:31.025Z</time></trkpt><trkpt lat="44.0746517" lon="12.0400717"><ele>87.0</ele><time>2026-04-26T08:59:32.023Z</time></trkpt><trkpt lat="44.0746967" lon="12.0401683"><ele>87.0</ele><time>2026-04-26T08:59:33.025Z</time></trkpt><trkpt lat="44.07474" lon="12.040235"><ele>87.0</ele><time>2026-04-26T08:59:34.024Z</time></trkpt><trkpt lat="44.0748" lon="12.04028"><ele>87.0</ele><time>2026-04-26T08:59:35.023Z</time></trkpt><trkpt lat="44.0748683" lon="12.040295"><ele>87.0</ele><time>2026-04-26T08:59:36.023Z</time></trkpt><trkpt lat="44.07494" lon="12.0403083"><ele>87.0</ele><time>2026-04-26T08:59:37.026Z</time></trkpt><trkpt lat="44.0750033" lon="12.040325"><ele>87.0</ele><time>2026-04-26T08:59:38.024Z</time></trkpt><trkpt lat="44.0750683" lon="12.0403367"><ele>87.0</ele><time>2026-04-26T08:59:39.024Z</time></trkpt><trkpt lat="44.0751717" lon="12.0404417"><ele>87.0</ele><time>2026-04-26T08:59:41.021Z</time></trkpt><trkpt lat="44.0752583" lon="12.0405"><ele>87.0</ele><time>2026-04-26T08:59:42.025Z</time></trkpt><trkpt lat="44.0753117" lon="12.04056"><ele>87.0</ele><time>2026-04-26T08:59:43.022Z</time></trkpt><trkpt lat="44.0753783" lon="12.0406217"><ele>87.0</ele><time>2026-04-26T08:59:44.023Z</time></trkpt><trkpt lat="44.07544" lon="12.0407017"><ele>88.57142857142857</ele><time>2026-04-26T08:59:45.023Z</time></trkpt><trkpt lat="44.0754717" lon="12.0408"><ele>90.14285714285714</ele><time>2026-04-26T08:59:46.025Z</time></trkpt><trkpt lat="44.0755083" lon="12.0408933"><ele>91.71428571428572</ele><time>2026-04-26T08:59:47.023Z</time></trkpt><trkpt lat="44.075535" lon="12.0409883"><ele>93.28571428571428</ele><time>2026-04-26T08:59:48.023Z</time></trkpt><trkpt lat="44.07554" lon="12.0410783"><ele>94.85714285714286</ele><time>2026-04-26T08:59:49.025Z</time></trkpt><trkpt lat="44.07551" lon="12.04116"><ele>96.42857142857143</ele><time>2026-04-26T08:59:50.023Z</time></trkpt><trkpt lat="44.0755033" lon="12.0412517"><ele>98.0</ele><time>2026-04-26T08:59:51.025Z</time></trkpt><trkpt lat="44.07545" lon="12.0414333"><ele>98.0</ele><time>2026-04-26T08:59:53.024Z</time></trkpt><trkpt lat="44.0754317" lon="12.0415617"><ele>98.0</ele><time>2026-04-26T08:59:54.022Z</time></trkpt><trkpt lat="44.0753417" lon="12.0416267"><ele>98.0</ele><time>2026-04-26T08:59:56.023Z</time></trkpt><trkpt lat="44.0752133" lon="12.0416067"><ele>98.0</ele><time>2026-04-26T08:59:58.029Z</time></trkpt><trkpt lat="44.0751583" lon="12.0416617"><ele>98.0</ele><time>2026-04-26T08:59:59.025Z</time></trkpt><trkpt lat="44.0750567" lon="12.04174"><ele>98.99999999999999</ele><time>2026-04-26T09:00:01.023Z</time></trkpt><trkpt lat="44.0750167" lon="12.041815"><ele>100.0</ele><time>2026-04-26T09:00:02.021Z</time></trkpt><trkpt lat="44.074985" lon="12.0419083"><ele>101.0</ele><time>2026-04-26T09:00:03.023Z</time></trkpt><trkpt lat="44.0749517" lon="12.0420183"><ele>102.0</ele><time>2026-04-26T09:00:04.023Z</time></trkpt><trkpt lat="44.0748917" lon="12.0419617"><ele>102.99999999999999</ele><time>2026-04-26T09:00:05.025Z</time></trkpt><trkpt lat="44.0749067" lon="12.0421583"><ele>104.0</ele><time>2026-04-26T09:00:06.024Z</time></trkpt><trkpt lat="44.0748667" lon="12.0423"><ele>103.99999999999999</ele><time>2026-04-26T09:00:08.025Z</time></trkpt><trkpt lat="44.0748267" lon="12.0423783"><ele>104.0</ele><time>2026-04-26T09:00:09.025Z</time></trkpt><trkpt lat="44.0747817" lon="12.0424617"><ele>104.0</ele><time>2026-04-26T09:00:10.025Z</time></trkpt><trkpt lat="44.0747367" lon="12.04254"><ele>104.0</ele><time>2026-04-26T09:00:11.023Z</time></trkpt><trkpt lat="44.0747083" lon="12.0426483"><ele>103.99999999999999</ele><time>2026-04-26T09:00:12.023Z</time></trkpt><trkpt lat="44.07467" lon="12.0427667"><ele>104.0</ele><time>2026-04-26T09:00:13.024Z</time></trkpt><trkpt lat="44.07462" lon="12.0428767"><ele>107.2</ele><time>2026-04-26T09:00:14.023Z</time></trkpt><trkpt lat="44.0745583" lon="12.042955"><ele>110.4</ele><time>2026-04-26T09:00:15.024Z</time></trkpt><trkpt lat="44.0745267" lon="12.0430867"><ele>113.6</ele><time>2026-04-26T09:00:16.024Z</time></trkpt><trkpt lat="44.0744617" lon="12.0432083"><ele>116.8</ele><time>2026-04-26T09:00:17.023Z</time></trkpt><trkpt lat="44.0745183" lon="12.043295"><ele>120.0</ele><time>2026-04-26T09:00:18.022Z</time></trkpt><trkpt lat="44.0744367" lon="12.0434533"><ele>122.5</ele><time>2026-04-26T09:00:19.024Z</time></trkpt><trkpt lat="44.0743667" lon="12.0435817"><ele>125.0</ele><time>2026-04-26T09:00:20.022Z</time></trkpt><trkpt lat="44.0743117" lon="12.0437283"><ele>127.5</ele><time>2026-04-26T09:00:21.025Z</time></trkpt><trkpt lat="44.0742583" lon="12.0438967"><ele>130.0</ele><time>2026-04-26T09:00:22.026Z</time></trkpt><trkpt lat="44.074245" lon="12.0440617"><ele>131.5</ele><time>2026-04-26T09:00:23.024Z</time></trkpt><trkpt lat="44.0742017" lon="12.0441717"><ele>133.0</ele><time>2026-04-26T09:00:24.026Z</time></trkpt><trkpt lat="44.07421" lon="12.0443433"><ele>134.5</ele><time>2026-04-26T09:00:25.022Z</time></trkpt><trkpt lat="44.07414" lon="12.0444817"><ele>136.0</ele><time>2026-04-26T09:00:26.022Z</time></trkpt><trkpt lat="44.07415" lon="12.0446417"><ele>136.0</ele><time>2026-04-26T09:00:27.022Z</time></trkpt><trkpt lat="44.0741083" lon="12.0447967"><ele>136.0</ele><time>2026-04-26T09:00:28.022Z</time></trkpt><trkpt lat="44.0740617" lon="12.0449683"><ele>136.0</ele><time>2026-04-26T09:00:29.025Z</time></trkpt><trkpt lat="44.0740167" lon="12.04509"><ele>136.0</ele><time>2026-04-26T09:00:30.025Z</time></trkpt><trkpt lat="44.0739883" lon="12.0452317"><ele>137.0</ele><time>2026-04-26T09:00:31.025Z</time></trkpt><trkpt lat="44.07398" lon="12.04539"><ele>138.0</ele><time>2026-04-26T09:00:32.024Z</time></trkpt><trkpt lat="44.073975" lon="12.0455467"><ele>139.0</ele><time>2026-04-26T09:00:33.026Z</time></trkpt><trkpt lat="44.0739783" lon="12.0457067"><ele>140.0</ele><time>2026-04-26T09:00:34.024Z</time></trkpt><trkpt lat="44.0739617" lon="12.0458567"><ele>141.8</ele><time>2026-04-26T09:00:35.023Z</time></trkpt><trkpt lat="44.0739433" lon="12.0459967"><ele>143.6</ele><time>2026-04-26T09:00:36.022Z</time></trkpt><trkpt lat="44.0739083" lon="12.0461433"><ele>145.4</ele><time>2026-04-26T09:00:37.022Z</time></trkpt><trkpt lat="44.0738783" lon="12.0462783"><ele>147.2</ele><time>2026-04-26T09:00:38.024Z</time></trkpt><trkpt lat="44.0738233" lon="12.04641"><ele>149.0</ele><time>2026-04-26T09:00:39.026Z</time></trkpt><trkpt lat="44.0737683" lon="12.0465333"><ele>150.0</ele><time>2026-04-26T09:00:40.027Z</time></trkpt><trkpt lat="44.0737017" lon="12.0466483"><ele>151.0</ele><time>2026-04-26T09:00:41.024Z</time></trkpt><trkpt lat="44.0736217" lon="12.0467617"><ele>152.0</ele><time>2026-04-26T09:00:42.023Z</time></trkpt><trkpt lat="44.073555" lon="12.0468717"><ele>153.0</ele><time>2026-04-26T09:00:43.021Z</time></trkpt><trkpt lat="44.07348" lon="12.046985"><ele>154.0</ele><time>2026-04-26T09:00:44.022Z</time></trkpt><trkpt lat="44.0734233" lon="12.0470767"><ele>154.0</ele><time>2026-04-26T09:00:45.022Z</time></trkpt><trkpt lat="44.07338" lon="12.0471717"><ele>154.0</ele><time>2026-04-26T09:00:46.022Z</time></trkpt><trkpt lat="44.0733333" lon="12.0472433"><ele>154.0</ele><time>2026-04-26T09:00:47.022Z</time></trkpt><trkpt lat="44.0732967" lon="12.0473267"><ele>154.0</ele><time>2026-04-26T09:00:48.021Z</time></trkpt><trkpt lat="44.073275" lon="12.04741"><ele>154.0</ele><time>2026-04-26T09:00:49.022Z</time></trkpt><trkpt lat="44.0732333" lon="12.0475283"><ele>154.0</ele><time>2026-04-26T09:00:51.024Z</time></trkpt><trkpt lat="44.073185" lon="12.0476367"><ele>152.16666666666669</ele><time>2026-04-26T09:00:53.021Z</time></trkpt><trkpt lat="44.0731283" lon="12.0477917"><ele>150.33333333333334</ele><time>2026-04-26T09:00:55.022Z</time></trkpt><trkpt lat="44.0730917" lon="12.0478833"><ele>148.5</ele><time>2026-04-26T09:00:56.022Z</time></trkpt><trkpt lat="44.0730583" lon="12.0479767"><ele>146.66666666666666</ele><time>2026-04-26T09:00:57.022Z</time></trkpt><trkpt lat="44.073025" lon="12.0480783"><ele>144.83333333333331</ele><time>2026-04-26T09:00:58.023Z</time></trkpt><trkpt lat="44.0729867" lon="12.0481783"><ele>143.0</ele><time>2026-04-26T09:00:59.022Z</time></trkpt><trkpt lat="44.0729633" lon="12.048285"><ele>145.5</ele><time>2026-04-26T09:01:00.029Z</time></trkpt><trkpt lat="44.07292" lon="12.04839"><ele>148.0</ele><time>2026-04-26T09:01:01.026Z</time></trkpt><trkpt lat="44.0728917" lon="12.0485"><ele>150.5</ele><time>2026-04-26T09:01:02.024Z</time></trkpt><trkpt lat="44.072865" lon="12.048615"><ele>153.0</ele><time>2026-04-26T09:01:03.024Z</time></trkpt><trkpt lat="44.072835" lon="12.048725"><ele>155.5</ele><time>2026-04-26T09:01:04.026Z</time></trkpt><trkpt lat="44.0728217" lon="12.0488333"><ele>158.0</ele><time>2026-04-26T09:01:05.025Z</time></trkpt><trkpt lat="44.07277" lon="12.04895"><ele>158.0</ele><time>2026-04-26T09:01:06.022Z</time></trkpt><trkpt lat="44.0727083" lon="12.0490717"><ele>158.0</ele><time>2026-04-26T09:01:07.025Z</time></trkpt><trkpt lat="44.07266" lon="12.0491967"><ele>158.0</ele><time>2026-04-26T09:01:08.022Z</time></trkpt><trkpt lat="44.0726217" lon="12.0493133"><ele>158.0</ele><time>2026-04-26T09:01:09.024Z</time></trkpt><trkpt lat="44.072625" lon="12.049425"><ele>158.0</ele><time>2026-04-26T09:01:10.024Z</time></trkpt><trkpt lat="44.07262" lon="12.0495317"><ele>160.8</ele><time>2026-04-26T09:01:11.022Z</time></trkpt><trkpt lat="44.0726567" lon="12.049625"><ele>163.60000000000002</ele><time>2026-04-26T09:01:12.027Z</time></trkpt><trkpt lat="44.0726933" lon="12.04973"><ele>166.39999999999998</ele><time>2026-04-26T09:01:13.024Z</time></trkpt><trkpt lat="44.07275" lon="12.0498333"><ele>169.2</ele><time>2026-04-26T09:01:14.024Z</time></trkpt><trkpt lat="44.0728333" lon="12.0499233"><ele>172.0</ele><time>2026-04-26T09:01:15.023Z</time></trkpt><trkpt lat="44.0729067" lon="12.0500717"><ele>175.0</ele><time>2026-04-26T09:01:16.022Z</time></trkpt><trkpt lat="44.073" lon="12.050205"><ele>178.0</ele><time>2026-04-26T09:01:17.027Z</time></trkpt><trkpt lat="44.07308" lon="12.050365"><ele>181.0</ele><time>2026-04-26T09:01:18.024Z</time></trkpt><trkpt lat="44.0731683" lon="12.0505083"><ele>184.0</ele><time>2026-04-26T09:01:19.023Z</time></trkpt><trkpt lat="44.07324" lon="12.0506667"><ele>186.25</ele><time>2026-04-26T09:01:20.023Z</time></trkpt><trkpt lat="44.073295" lon="12.0508517"><ele>188.5</ele><time>2026-04-26T09:01:21.025Z</time></trkpt><trkpt lat="44.0733467" lon="12.0510333"><ele>190.75</ele><time>2026-04-26T09:01:22.027Z</time></trkpt><trkpt lat="44.0734117" lon="12.051175"><ele>193.0</ele><time>2026-04-26T09:01:23.025Z</time></trkpt><trkpt lat="44.07344" lon="12.05131"><ele>192.99999999999997</ele><time>2026-04-26T09:01:24.023Z</time></trkpt><trkpt lat="44.0734667" lon="12.0514217"><ele>193.0</ele><time>2026-04-26T09:01:25.024Z</time></trkpt><trkpt lat="44.0734783" lon="12.0515217"><ele>193.0</ele><time>2026-04-26T09:01:26.023Z</time></trkpt><trkpt lat="44.0734667" lon="12.0516133"><ele>193.0</ele><time>2026-04-26T09:01:27.026Z</time></trkpt><trkpt lat="44.0734467" lon="12.0517"><ele>192.99999999999997</ele><time>2026-04-26T09:01:28.022Z</time></trkpt><trkpt lat="44.073365" lon="12.0517983"><ele>193.0</ele><time>2026-04-26T09:01:29.023Z</time></trkpt><trkpt lat="44.073325" lon="12.0518767"><ele>195.0</ele><time>2026-04-26T09:01:30.022Z</time></trkpt><trkpt lat="44.0732633" lon="12.051975"><ele>197.0</ele><time>2026-04-26T09:01:31.024Z</time></trkpt><trkpt lat="44.0732117" lon="12.0520617"><ele>199.0</ele><time>2026-04-26T09:01:32.026Z</time></trkpt><trkpt lat="44.0731567" lon="12.052165"><ele>201.0</ele><time>2026-04-26T09:01:33.025Z</time></trkpt><trkpt lat="44.07306" lon="12.05225"><ele>203.0</ele><time>2026-04-26T09:01:34.025Z</time></trkpt><trkpt lat="44.0729733" lon="12.0523433"><ele>203.0</ele><time>2026-04-26T09:01:35.024Z</time></trkpt><trkpt lat="44.0729" lon="12.0524467"><ele>203.0</ele><time>2026-04-26T09:01:36.025Z</time></trkpt><trkpt lat="44.0728167" lon="12.0525417"><ele>203.0</ele><time>2026-04-26T09:01:37.025Z</time></trkpt><trkpt lat="44.0727583" lon="12.05264"><ele>203.0</ele><time>2026-04-26T09:01:38.024Z</time></trkpt><trkpt lat="44.07273" lon="12.0527617"><ele>203.0</ele><time>2026-04-26T09:01:39.028Z</time></trkpt><trkpt lat="44.07265" lon="12.0528833"><ele>204.5</ele><time>2026-04-26T09:01:40.027Z</time></trkpt><trkpt lat="44.07257" lon="12.053025"><ele>206.0</ele><time>2026-04-26T09:01:41.024Z</time></trkpt><trkpt lat="44.072475" lon="12.0531867"><ele>207.5</ele><time>2026-04-26T09:01:42.022Z</time></trkpt><trkpt lat="44.0724633" lon="12.0532767"><ele>209.0</ele><time>2026-04-26T09:01:43.023Z</time></trkpt><trkpt lat="44.0723417" lon="12.0533983"><ele>212.0</ele><time>2026-04-26T09:01:44.025Z</time></trkpt><trkpt lat="44.0722217" lon="12.0535567"><ele>215.0</ele><time>2026-04-26T09:01:45.026Z</time></trkpt><trkpt lat="44.07213" lon="12.0537133"><ele>218.0</ele><time>2026-04-26T09:01:46.023Z</time></trkpt><trkpt lat="44.0720517" lon="12.0538217"><ele>221.0</ele><time>2026-04-26T09:01:47.021Z</time></trkpt><trkpt lat="44.07206" lon="12.0539183"><ele>221.0</ele><time>2026-04-26T09:01:48.023Z</time></trkpt><trkpt lat="44.07193" lon="12.0540967"><ele>221.0</ele><time>2026-04-26T09:01:49.026Z</time></trkpt><trkpt lat="44.0718433" lon="12.0542667"><ele>221.0</ele><time>2026-04-26T09:01:50.025Z</time></trkpt><trkpt lat="44.07177" lon="12.0544217"><ele>221.25</ele><time>2026-04-26T09:01:51.023Z</time></trkpt><trkpt lat="44.071705" lon="12.0546033"><ele>221.5</ele><time>2026-04-26T09:01:52.029Z</time></trkpt><trkpt lat="44.0716083" lon="12.0547183"><ele>221.75</ele><time>2026-04-26T09:01:53.023Z</time></trkpt><trkpt lat="44.0715567" lon="12.0548967"><ele>222.0</ele><time>2026-04-26T09:01:54.024Z</time></trkpt><trkpt lat="44.0715017" lon="12.0550717"><ele>225.25</ele><time>2026-04-26T09:01:55.023Z</time></trkpt><trkpt lat="44.0714217" lon="12.055215"><ele>228.5</ele><time>2026-04-26T09:01:56.024Z</time></trkpt><trkpt lat="44.07136" lon="12.0553767"><ele>231.75</ele><time>2026-04-26T09:01:57.023Z</time></trkpt><trkpt lat="44.0712833" lon="12.05551"><ele>235.0</ele><time>2026-04-26T09:01:58.026Z</time></trkpt><trkpt lat="44.0712117" lon="12.055645"><ele>235.0</ele><time>2026-04-26T09:01:59.023Z</time></trkpt><trkpt lat="44.071155" lon="12.0557617"><ele>235.0</ele><time>2026-04-26T09:02:00.025Z</time></trkpt><trkpt lat="44.0711017" lon="12.055865"><ele>235.0</ele><time>2026-04-26T09:02:01.026Z</time></trkpt><trkpt lat="44.0710317" lon="12.05596"><ele>235.0</ele><time>2026-04-26T09:02:02.025Z</time></trkpt><trkpt lat="44.0710167" lon="12.0560667"><ele>235.0</ele><time>2026-04-26T09:02:03.025Z</time></trkpt><trkpt lat="44.070985" lon="12.0562017"><ele>237.0</ele><time>2026-04-26T09:02:04.024Z</time></trkpt><trkpt lat="44.070965" lon="12.0563183"><ele>239.0</ele><time>2026-04-26T09:02:05.025Z</time></trkpt><trkpt lat="44.07096" lon="12.0564567"><ele>241.0</ele><time>2026-04-26T09:02:06.025Z</time></trkpt><trkpt lat="44.070955" lon="12.0566067"><ele>243.0</ele><time>2026-04-26T09:02:07.023Z</time></trkpt><trkpt lat="44.070925" lon="12.0567333"><ele>245.0</ele><time>2026-04-26T09:02:08.024Z</time></trkpt><trkpt lat="44.0709033" lon="12.0568567"><ele>246.50000000000003</ele><time>2026-04-26T09:02:09.025Z</time></trkpt><trkpt lat="44.07088" lon="12.0569567"><ele>248.0</ele><time>2026-04-26T09:02:10.023Z</time></trkpt><trkpt lat="44.07085" lon="12.0570867"><ele>249.5</ele><time>2026-04-26T09:02:12.024Z</time></trkpt><trkpt lat="44.070815" lon="12.0572467"><ele>251.0</ele><time>2026-04-26T09:02:51.025Z</time></trkpt><trkpt lat="44.0707733" lon="12.057315"><ele>252.50000000000003</ele><time>2026-04-26T09:02:53.024Z</time></trkpt><trkpt lat="44.0707233" lon="12.0573933"><ele>254.0</ele><time>2026-04-26T09:02:55.026Z</time></trkpt><trkpt lat="44.07069" lon="12.0575"><ele>256.1666666666667</ele><time>2026-04-26T09:02:57.025Z</time></trkpt><trkpt lat="44.0706833" lon="12.0576233"><ele>258.33333333333337</ele><time>2026-04-26T09:02:59.025Z</time></trkpt><trkpt lat="44.0706817" lon="12.05777"><ele>260.5</ele><time>2026-04-26T09:03:01.021Z</time></trkpt><trkpt lat="44.0706867" lon="12.0579417"><ele>262.6666666666667</ele><time>2026-04-26T09:03:03.024Z</time></trkpt><trkpt lat="44.0707" lon="12.05803"><ele>264.8333333333333</ele><time>2026-04-26T09:03:04.023Z</time></trkpt><trkpt lat="44.0706867" lon="12.0581183"><ele>267.0</ele><time>2026-04-26T09:03:05.027Z</time></trkpt><trkpt lat="44.0707017" lon="12.058295"><ele>269.0</ele><time>2026-04-26T09:03:07.025Z</time></trkpt><trkpt lat="44.07067" lon="12.05842"><ele>271.0</ele><time>2026-04-26T09:03:09.023Z</time></trkpt><trkpt lat="44.0706633" lon="12.0585317"><ele>273.0</ele><time>2026-04-26T09:03:10.028Z</time></trkpt><trkpt lat="44.070625" lon="12.0587283"><ele>275.0</ele><time>2026-04-26T09:03:12.022Z</time></trkpt><trkpt lat="44.0705933" lon="12.0588433"><ele>277.0</ele><time>2026-04-26T09:03:14.022Z</time></trkpt><trkpt lat="44.0705533" lon="12.0590083"><ele>278.4</ele><time>2026-04-26T09:03:16.026Z</time></trkpt><trkpt lat="44.07052" lon="12.05917"><ele>279.79999999999995</ele><time>2026-04-26T09:03:18.025Z</time></trkpt><trkpt lat="44.07048" lon="12.0592883"><ele>281.2</ele><time>2026-04-26T09:03:20.023Z</time></trkpt><trkpt lat="44.0704367" lon="12.05941"><ele>282.59999999999997</ele><time>2026-04-26T09:03:22.029Z</time></trkpt><trkpt lat="44.0703833" lon="12.059545"><ele>284.0</ele><time>2026-04-26T09:03:24.023Z</time></trkpt><trkpt lat="44.0703183" lon="12.0596767"><ele>284.0</ele><time>2026-04-26T09:03:26.024Z</time></trkpt><trkpt lat="44.0702483" lon="12.0597883"><ele>284.0</ele><time>2026-04-26T09:03:28.023Z</time></trkpt><trkpt lat="44.070165" lon="12.059895"><ele>284.0</ele><time>2026-04-26T09:03:30.024Z</time></trkpt><trkpt lat="44.07012" lon="12.0599567"><ele>284.0</ele><time>2026-04-26T09:03:31.023Z</time></trkpt><trkpt lat="44.0700717" lon="12.060025"><ele>284.0</ele><time>2026-04-26T09:03:32.024Z</time></trkpt><trkpt lat="44.07001" lon="12.06007"><ele>284.0</ele><time>2026-04-26T09:03:33.025Z</time></trkpt><trkpt lat="44.069945" lon="12.060115"><ele>286.2</ele><time>2026-04-26T09:03:34.023Z</time></trkpt><trkpt lat="44.06989" lon="12.06017"><ele>288.4</ele><time>2026-04-26T09:03:35.025Z</time></trkpt><trkpt lat="44.069805" lon="12.0602733"><ele>290.6</ele><time>2026-04-26T09:03:37.021Z</time></trkpt><trkpt lat="44.0697817" lon="12.0604083"><ele>292.8</ele><time>2026-04-26T09:03:39.023Z</time></trkpt><trkpt lat="44.069785" lon="12.0605583"><ele>295.0</ele><time>2026-04-26T09:03:41.023Z</time></trkpt><trkpt lat="44.069755" lon="12.0607117"><ele>296.4</ele><time>2026-04-26T09:03:43.023Z</time></trkpt><trkpt lat="44.0697217" lon="12.0608667"><ele>297.8</ele><time>2026-04-26T09:03:45.024Z</time></trkpt><trkpt lat="44.0696733" lon="12.0610183"><ele>299.2</ele><time>2026-04-26T09:03:47.022Z</time></trkpt><trkpt lat="44.0696333" lon="12.06109"><ele>300.6</ele><time>2026-04-26T09:03:49.023Z</time></trkpt><trkpt lat="44.0696383" lon="12.0612"><ele>302.0</ele><time>2026-04-26T09:09:26.021Z</time></trkpt><trkpt lat="44.069605" lon="12.0613033"><ele>302.0</ele><time>2026-04-26T09:09:33.023Z</time></trkpt><trkpt lat="44.069555" lon="12.0614033"><ele>302.0</ele><time>2026-04-26T09:09:35.024Z</time></trkpt><trkpt lat="44.0695" lon="12.06149"><ele>302.0</ele><time>2026-04-26T09:09:37.022Z</time></trkpt><trkpt lat="44.069435" lon="12.0615783"><ele>302.0</ele><time>2026-04-26T09:09:39.024Z</time></trkpt><trkpt lat="44.06937" lon="12.061675"><ele>302.0</ele><time>2026-04-26T09:09:42.022Z</time></trkpt><trkpt lat="44.0693267" lon="12.0617467"><ele>302.0</ele><time>2026-04-26T09:09:44.023Z</time></trkpt><trkpt lat="44.0692783" lon="12.0618067"><ele>302.5</ele><time>2026-04-26T09:09:46.025Z</time></trkpt><trkpt lat="44.0692083" lon="12.0618367"><ele>303.0</ele><time>2026-04-26T09:09:48.024Z</time></trkpt><trkpt lat="44.0691317" lon="12.0618467"><ele>303.5</ele><time>2026-04-26T09:09:50.025Z</time></trkpt><trkpt lat="44.0690617" lon="12.061835"><ele>304.0</ele><time>2026-04-26T09:09:56.026Z</time></trkpt><trkpt lat="44.0690233" lon="12.0619367"><ele>304.5</ele><time>2026-04-26T09:16:23.023Z</time></trkpt><trkpt lat="44.0690033" lon="12.0620533"><ele>305.0</ele><time>2026-04-26T09:16:25.023Z</time></trkpt><trkpt lat="44.0689667" lon="12.06216"><ele>305.0</ele><time>2026-04-26T09:16:27.024Z</time></trkpt><trkpt lat="44.0689433" lon="12.0622733"><ele>305.0</ele><time>2026-04-26T09:16:29.023Z</time></trkpt><trkpt lat="44.0689567" lon="12.0624417"><ele>305.0</ele><time>2026-04-26T09:16:31.022Z</time></trkpt><trkpt lat="44.0689883" lon="12.0625333"><ele>305.0</ele><time>2026-04-26T09:16:32.025Z</time></trkpt><trkpt lat="44.0690133" lon="12.0626283"><ele>305.0</ele><time>2026-04-26T09:16:33.025Z</time></trkpt><trkpt lat="44.0690483" lon="12.0627233"><ele>305.0</ele><time>2026-04-26T09:16:34.023Z</time></trkpt><trkpt lat="44.069075" lon="12.0628167"><ele>305.5</ele><time>2026-04-26T09:16:35.022Z</time></trkpt><trkpt lat="44.06909" lon="12.062915"><ele>306.0</ele><time>2026-04-26T09:16:36.023Z</time></trkpt><trkpt lat="44.0691117" lon="12.0630117"><ele>306.5</ele><time>2026-04-26T09:16:37.025Z</time></trkpt><trkpt lat="44.0690867" lon="12.0630933"><ele>307.0</ele><time>2026-04-26T09:16:38.021Z</time></trkpt><trkpt lat="44.0691067" lon="12.063185"><ele>307.5</ele><time>2026-04-26T09:16:39.021Z</time></trkpt><trkpt lat="44.0691133" lon="12.0632767"><ele>308.0</ele><time>2026-04-26T09:16:40.022Z</time></trkpt><trkpt lat="44.069115" lon="12.0634317"><ele>309.33333333333337</ele><time>2026-04-26T09:16:42.022Z</time></trkpt><trkpt lat="44.069145" lon="12.06359"><ele>310.6666666666667</ele><time>2026-04-26T09:16:44.023Z</time></trkpt><trkpt lat="44.0691233" lon="12.0637433"><ele>312.0</ele><time>2026-04-26T09:16:46.022Z</time></trkpt><trkpt lat="44.0691133" lon="12.06383"><ele>313.3333333333333</ele><time>2026-04-26T09:16:47.022Z</time></trkpt><trkpt lat="44.069095" lon="12.0639183"><ele>314.66666666666663</ele><time>2026-04-26T09:16:48.024Z</time></trkpt><trkpt lat="44.0690867" lon="12.06402"><ele>316.0</ele><time>2026-04-26T09:16:49.024Z</time></trkpt><trkpt lat="44.0690667" lon="12.064115"><ele>318.16666666666663</ele><time>2026-04-26T09:16:50.022Z</time></trkpt><trkpt lat="44.0690567" lon="12.0642133"><ele>320.3333333333333</ele><time>2026-04-26T09:16:51.023Z</time></trkpt><trkpt lat="44.0690333" lon="12.0643067"><ele>322.5</ele><time>2026-04-26T09:16:52.024Z</time></trkpt><trkpt lat="44.069025" lon="12.0644117"><ele>324.6666666666667</ele><time>2026-04-26T09:16:53.024Z</time></trkpt><trkpt lat="44.0689967" lon="12.064515"><ele>326.83333333333337</ele><time>2026-04-26T09:16:54.028Z</time></trkpt><trkpt lat="44.0689717" lon="12.0646217"><ele>329.0</ele><time>2026-04-26T09:16:55.023Z</time></trkpt><trkpt lat="44.06895" lon="12.0647333"><ele>329.0</ele><time>2026-04-26T09:16:56.024Z</time></trkpt><trkpt lat="44.0689233" lon="12.064845"><ele>329.0</ele><time>2026-04-26T09:16:57.024Z</time></trkpt><trkpt lat="44.0689067" lon="12.06496"><ele>329.0</ele><time>2026-04-26T09:16:58.022Z</time></trkpt><trkpt lat="44.0688833" lon="12.0650733"><ele>329.0</ele><time>2026-04-26T09:16:59.023Z</time></trkpt><trkpt lat="44.0688733" lon="12.0651883"><ele>329.0</ele><time>2026-04-26T09:17:00.022Z</time></trkpt><trkpt lat="44.0688483" lon="12.0652967"><ele>329.0</ele><time>2026-04-26T09:17:01.023Z</time></trkpt><trkpt lat="44.0688333" lon="12.065405"><ele>330.1666666666667</ele><time>2026-04-26T09:17:02.021Z</time></trkpt><trkpt lat="44.0688067" lon="12.0655083"><ele>331.33333333333337</ele><time>2026-04-26T09:17:03.024Z</time></trkpt><trkpt lat="44.0688017" lon="12.0656367"><ele>332.5</ele><time>2026-04-26T09:17:04.021Z</time></trkpt><trkpt lat="44.0687617" lon="12.0657383"><ele>333.6666666666667</ele><time>2026-04-26T09:17:05.024Z</time></trkpt><trkpt lat="44.0687583" lon="12.0658617"><ele>334.8333333333333</ele><time>2026-04-26T09:17:06.024Z</time></trkpt><trkpt lat="44.0687183" lon="12.0659833"><ele>336.0</ele><time>2026-04-26T09:17:07.023Z</time></trkpt><trkpt lat="44.0686817" lon="12.0660917"><ele>336.5</ele><time>2026-04-26T09:17:08.021Z</time></trkpt><trkpt lat="44.06866" lon="12.0661883"><ele>337.0</ele><time>2026-04-26T09:17:09.022Z</time></trkpt><trkpt lat="44.0686283" lon="12.0663283"><ele>337.5</ele><time>2026-04-26T09:17:11.022Z</time></trkpt><trkpt lat="44.0685917" lon="12.0664283"><ele>338.0</ele><time>2026-04-26T09:17:14.022Z</time></trkpt><trkpt lat="44.0685783" lon="12.06654"><ele>338.5</ele><time>2026-04-26T09:17:52.023Z</time></trkpt><trkpt lat="44.0686567" lon="12.0665967"><ele>339.0</ele><time>2026-04-26T09:17:54.024Z</time></trkpt><trkpt lat="44.06874" lon="12.06665"><ele>338.0</ele><time>2026-04-26T09:17:56.024Z</time></trkpt><trkpt lat="44.0688067" lon="12.0666867"><ele>337.0</ele><time>2026-04-26T09:17:58.023Z</time></trkpt><trkpt lat="44.0688567" lon="12.066745"><ele>336.0</ele><time>2026-04-26T09:18:00.024Z</time></trkpt><trkpt lat="44.068845" lon="12.0668467"><ele>335.0</ele><time>2026-04-26T09:18:02.024Z</time></trkpt><trkpt lat="44.0687917" lon="12.0669233"><ele>334.0</ele><time>2026-04-26T09:18:04.022Z</time></trkpt><trkpt lat="44.0686817" lon="12.067005"><ele>333.0</ele><time>2026-04-26T09:18:06.023Z</time></trkpt><trkpt lat="44.0686217" lon="12.0670517"><ele>333.0</ele><time>2026-04-26T09:18:07.023Z</time></trkpt><trkpt lat="44.068575" lon="12.0671167"><ele>333.0</ele><time>2026-04-26T09:18:08.022Z</time></trkpt><trkpt lat="44.068545" lon="12.067195"><ele>333.0</ele><time>2026-04-26T09:18:09.025Z</time></trkpt><trkpt lat="44.068525" lon="12.06728"><ele>333.0</ele><time>2026-04-26T09:18:10.026Z</time></trkpt><trkpt lat="44.0685133" lon="12.067375"><ele>333.0</ele><time>2026-04-26T09:18:11.021Z</time></trkpt><trkpt lat="44.0684933" lon="12.0674683"><ele>333.0</ele><time>2026-04-26T09:18:12.023Z</time></trkpt><trkpt lat="44.068485" lon="12.0675667"><ele>333.0</ele><time>2026-04-26T09:18:13.024Z</time></trkpt><trkpt lat="44.0684717" lon="12.0676633"><ele>331.7142857142857</ele><time>2026-04-26T09:18:14.022Z</time></trkpt><trkpt lat="44.0684683" lon="12.0677683"><ele>330.4285714285714</ele><time>2026-04-26T09:18:15.025Z</time></trkpt><trkpt lat="44.0684383" lon="12.0678533"><ele>329.1428571428571</ele><time>2026-04-26T09:18:16.022Z</time></trkpt><trkpt lat="44.0684283" lon="12.0679533"><ele>327.8571428571429</ele><time>2026-04-26T09:18:17.021Z</time></trkpt><trkpt lat="44.0684" lon="12.068045"><ele>326.57142857142856</ele><time>2026-04-26T09:18:18.022Z</time></trkpt><trkpt lat="44.0683933" lon="12.0681383"><ele>325.2857142857143</ele><time>2026-04-26T09:18:19.022Z</time></trkpt><trkpt lat="44.0683683" lon="12.0682283"><ele>324.0</ele><time>2026-04-26T09:18:20.021Z</time></trkpt><trkpt lat="44.0683717" lon="12.0683267"><ele>323.3333333333333</ele><time>2026-04-26T09:18:21.024Z</time></trkpt><trkpt lat="44.0683567" lon="12.06843"><ele>322.6666666666667</ele><time>2026-04-26T09:18:22.023Z</time></trkpt><trkpt lat="44.06834" lon="12.0685417"><ele>322.0</ele><time>2026-04-26T09:18:23.022Z</time></trkpt><trkpt lat="44.06833" lon="12.0686683"><ele>321.33333333333337</ele><time>2026-04-26T09:18:24.022Z</time></trkpt><trkpt lat="44.0682983" lon="12.06879"><ele>320.6666666666667</ele><time>2026-04-26T09:18:25.022Z</time></trkpt><trkpt lat="44.0682683" lon="12.068915"><ele>320.0</ele><time>2026-04-26T09:18:26.027Z</time></trkpt><trkpt lat="44.068245" lon="12.069035"><ele>316.6666666666667</ele><time>2026-04-26T09:18:27.023Z</time></trkpt><trkpt lat="44.068225" lon="12.0691533"><ele>313.33333333333337</ele><time>2026-04-26T09:18:28.024Z</time></trkpt><trkpt lat="44.0681983" lon="12.0692633"><ele>310.0</ele><time>2026-04-26T09:18:29.022Z</time></trkpt><trkpt lat="44.0681783" lon="12.0693733"><ele>306.6666666666667</ele><time>2026-04-26T09:18:30.024Z</time></trkpt><trkpt lat="44.068155" lon="12.0694783"><ele>303.3333333333333</ele><time>2026-04-26T09:18:31.022Z</time></trkpt><trkpt lat="44.0681267" lon="12.069575"><ele>300.0</ele><time>2026-04-26T09:18:32.021Z</time></trkpt><trkpt lat="44.0681067" lon="12.0696783"><ele>300.0</ele><time>2026-04-26T09:18:33.024Z</time></trkpt><trkpt lat="44.068075" lon="12.069785"><ele>300.0</ele><time>2026-04-26T09:18:34.022Z</time></trkpt><trkpt lat="44.068045" lon="12.0698983"><ele>300.0</ele><time>2026-04-26T09:18:35.024Z</time></trkpt><trkpt lat="44.0680167" lon="12.070015"><ele>300.0</ele><time>2026-04-26T09:18:36.022Z</time></trkpt><trkpt lat="44.068005" lon="12.0701367"><ele>300.0</ele><time>2026-04-26T09:18:37.022Z</time></trkpt><trkpt lat="44.0679967" lon="12.0702667"><ele>300.0</ele><time>2026-04-26T09:18:38.023Z</time></trkpt><trkpt lat="44.06795" lon="12.0703633"><ele>300.2</ele><time>2026-04-26T09:18:39.025Z</time></trkpt><trkpt lat="44.06792" lon="12.0704817"><ele>300.4</ele><time>2026-04-26T09:18:40.023Z</time></trkpt><trkpt lat="44.0679017" lon="12.0706083"><ele>300.6</ele><time>2026-04-26T09:18:41.024Z</time></trkpt><trkpt lat="44.06788" lon="12.0707383"><ele>300.8</ele><time>2026-04-26T09:18:42.022Z</time></trkpt><trkpt lat="44.0678633" lon="12.070865"><ele>301.0</ele><time>2026-04-26T09:18:43.024Z</time></trkpt><trkpt lat="44.0678433" lon="12.0709883"><ele>301.3333333333333</ele><time>2026-04-26T09:18:44.021Z</time></trkpt><trkpt lat="44.0678233" lon="12.071105"><ele>301.66666666666663</ele><time>2026-04-26T09:18:45.022Z</time></trkpt><trkpt lat="44.0678033" lon="12.0712183"><ele>302.0</ele><time>2026-04-26T09:18:46.022Z</time></trkpt><trkpt lat="44.067785" lon="12.0713283"><ele>302.3333333333333</ele><time>2026-04-26T09:18:47.024Z</time></trkpt><trkpt lat="44.067765" lon="12.0714383"><ele>302.6666666666667</ele><time>2026-04-26T09:18:48.023Z</time></trkpt><trkpt lat="44.067745" lon="12.0715483"><ele>303.0</ele><time>2026-04-26T09:18:49.025Z</time></trkpt><trkpt lat="44.067725" lon="12.0716567"><ele>303.0</ele><time>2026-04-26T09:18:50.022Z</time></trkpt><trkpt lat="44.067705" lon="12.0717683"><ele>303.0</ele><time>2026-04-26T09:18:51.026Z</time></trkpt><trkpt lat="44.0676817" lon="12.071885"><ele>303.0</ele><time>2026-04-26T09:18:52.023Z</time></trkpt><trkpt lat="44.0676533" lon="12.0720133"><ele>303.0</ele><time>2026-04-26T09:18:53.024Z</time></trkpt><trkpt lat="44.067625" lon="12.07215"><ele>303.0</ele><time>2026-04-26T09:18:54.024Z</time></trkpt><trkpt lat="44.0675983" lon="12.0722833"><ele>303.0</ele><time>2026-04-26T09:18:55.024Z</time></trkpt><trkpt lat="44.0675733" lon="12.07242"><ele>303.0</ele><time>2026-04-26T09:18:56.023Z</time></trkpt><trkpt lat="44.06755" lon="12.0725583"><ele>303.0</ele><time>2026-04-26T09:18:57.024Z</time></trkpt><trkpt lat="44.0675283" lon="12.0726983"><ele>303.0</ele><time>2026-04-26T09:18:58.021Z</time></trkpt><trkpt lat="44.067505" lon="12.07283"><ele>303.0</ele><time>2026-04-26T09:18:59.021Z</time></trkpt><trkpt lat="44.0674817" lon="12.0729583"><ele>303.0</ele><time>2026-04-26T09:19:00.024Z</time></trkpt><trkpt lat="44.0674583" lon="12.0730883"><ele>303.0</ele><time>2026-04-26T09:19:01.02Z</time></trkpt><trkpt lat="44.0674333" lon="12.0732183"><ele>303.0</ele><time>2026-04-26T09:19:02.022Z</time></trkpt><trkpt lat="44.0674133" lon="12.0733483"><ele>303.0</ele><time>2026-04-26T09:19:03.022Z</time></trkpt><trkpt lat="44.0673983" lon="12.07348"><ele>303.0</ele><time>2026-04-26T09:19:04.021Z</time></trkpt><trkpt lat="44.0673883" lon="12.0736133"><ele>300.8</ele><time>2026-04-26T09:19:05.021Z</time></trkpt><trkpt lat="44.0673767" lon="12.0737483"><ele>298.6</ele><time>2026-04-26T09:19:06.023Z</time></trkpt><trkpt lat="44.067365" lon="12.0738833"><ele>296.4</ele><time>2026-04-26T09:19:07.025Z</time></trkpt><trkpt lat="44.0673517" lon="12.07402"><ele>294.2</ele><time>2026-04-26T09:19:08.029Z</time></trkpt><trkpt lat="44.0673417" lon="12.0741567"><ele>292.0</ele><time>2026-04-26T09:19:09.024Z</time></trkpt><trkpt lat="44.0673367" lon="12.0742983"><ele>292.0</ele><time>2026-04-26T09:19:10.023Z</time></trkpt><trkpt lat="44.067335" lon="12.0744383"><ele>292.0</ele><time>2026-04-26T09:19:11.023Z</time></trkpt><trkpt lat="44.0673367" lon="12.0745783"><ele>292.0</ele><time>2026-04-26T09:19:12.021Z</time></trkpt><trkpt lat="44.0673467" lon="12.074715"><ele>292.0</ele><time>2026-04-26T09:19:13.023Z</time></trkpt><trkpt lat="44.0673583" lon="12.0748517"><ele>292.0</ele><time>2026-04-26T09:19:14.025Z</time></trkpt><trkpt lat="44.0673633" lon="12.0749833"><ele>292.66666666666663</ele><time>2026-04-26T09:19:15.022Z</time></trkpt><trkpt lat="44.0673667" lon="12.0751133"><ele>293.3333333333333</ele><time>2026-04-26T09:19:16.021Z</time></trkpt><trkpt lat="44.067365" lon="12.0752367"><ele>294.0</ele><time>2026-04-26T09:19:17.022Z</time></trkpt><trkpt lat="44.0673533" lon="12.0753533"><ele>294.6666666666667</ele><time>2026-04-26T09:19:18.021Z</time></trkpt><trkpt lat="44.0673667" lon="12.0754683"><ele>295.33333333333337</ele><time>2026-04-26T09:19:19.022Z</time></trkpt><trkpt lat="44.067345" lon="12.075575"><ele>296.0</ele><time>2026-04-26T09:19:20.024Z</time></trkpt><trkpt lat="44.06737" lon="12.075685"><ele>296.83333333333337</ele><time>2026-04-26T09:19:21.021Z</time></trkpt><trkpt lat="44.0673883" lon="12.0757883"><ele>297.6666666666667</ele><time>2026-04-26T09:19:22.021Z</time></trkpt><trkpt lat="44.0674133" lon="12.0758833"><ele>298.5</ele><time>2026-04-26T09:19:23.022Z</time></trkpt><trkpt lat="44.067425" lon="12.07604"><ele>299.3333333333333</ele><time>2026-04-26T09:19:25.023Z</time></trkpt><trkpt lat="44.0673483" lon="12.076125"><ele>300.16666666666663</ele><time>2026-04-26T09:19:27.022Z</time></trkpt><trkpt lat="44.0672833" lon="12.0761383"><ele>301.0</ele><time>2026-04-26T09:19:28.025Z</time></trkpt><trkpt lat="44.06721" lon="12.076145"><ele>301.0</ele><time>2026-04-26T09:19:29.023Z</time></trkpt><trkpt lat="44.06714" lon="12.0761333"><ele>301.0</ele><time>2026-04-26T09:19:30.023Z</time></trkpt><trkpt lat="44.067075" lon="12.076115"><ele>301.0</ele><time>2026-04-26T09:19:31.022Z</time></trkpt><trkpt lat="44.0669617" lon="12.076045"><ele>301.0</ele><time>2026-04-26T09:19:33.023Z</time></trkpt><trkpt lat="44.0669183" lon="12.07596"><ele>301.0</ele><time>2026-04-26T09:19:34.021Z</time></trkpt><trkpt lat="44.0668733" lon="12.0758917"><ele>301.0</ele><time>2026-04-26T09:19:35.022Z</time></trkpt><trkpt lat="44.066835" lon="12.0758083"><ele>300.2857142857143</ele><time>2026-04-26T09:19:36.022Z</time></trkpt><trkpt lat="44.0667917" lon="12.0757267"><ele>299.57142857142856</ele><time>2026-04-26T09:19:37.022Z</time></trkpt><trkpt lat="44.06675" lon="12.0756333"><ele>298.8571428571429</ele><time>2026-04-26T09:19:38.024Z</time></trkpt><trkpt lat="44.0666967" lon="12.0755567"><ele>298.1428571428571</ele><time>2026-04-26T09:19:39.022Z</time></trkpt><trkpt lat="44.0666583" lon="12.07547"><ele>297.42857142857144</ele><time>2026-04-26T09:19:40.022Z</time></trkpt><trkpt lat="44.0666117" lon="12.0754033"><ele>296.7142857142857</ele><time>2026-04-26T09:19:41.023Z</time></trkpt><trkpt lat="44.06658" lon="12.075325"><ele>296.0</ele><time>2026-04-26T09:19:42.021Z</time></trkpt><trkpt lat="44.0665367" lon="12.07526"><ele>293.6666666666667</ele><time>2026-04-26T09:19:43.023Z</time></trkpt><trkpt lat="44.0664933" lon="12.0751917"><ele>291.33333333333337</ele><time>2026-04-26T09:19:44.024Z</time></trkpt><trkpt lat="44.0663867" lon="12.0751083"><ele>289.0</ele><time>2026-04-26T09:19:46.022Z</time></trkpt><trkpt lat="44.0663233" lon="12.0751117"><ele>286.6666666666667</ele><time>2026-04-26T09:19:47.024Z</time></trkpt><trkpt lat="44.0662633" lon="12.0751383"><ele>284.3333333333333</ele><time>2026-04-26T09:19:48.021Z</time></trkpt><trkpt lat="44.0662017" lon="12.0751817"><ele>282.0</ele><time>2026-04-26T09:19:49.022Z</time></trkpt><trkpt lat="44.066135" lon="12.0752283"><ele>282.0</ele><time>2026-04-26T09:19:50.021Z</time></trkpt><trkpt lat="44.06606" lon="12.075295"><ele>282.0</ele><time>2026-04-26T09:19:51.022Z</time></trkpt><trkpt lat="44.06598" lon="12.0753633"><ele>282.0</ele><time>2026-04-26T09:19:52.021Z</time></trkpt><trkpt lat="44.0659067" lon="12.0754583"><ele>282.0</ele><time>2026-04-26T09:19:53.023Z</time></trkpt><trkpt lat="44.0658267" lon="12.0755167"><ele>282.0</ele><time>2026-04-26T09:19:54.02Z</time></trkpt><trkpt lat="44.0657517" lon="12.0755883"><ele>280.3333333333333</ele><time>2026-04-26T09:19:55.022Z</time></trkpt><trkpt lat="44.0656767" lon="12.0756583"><ele>278.6666666666667</ele><time>2026-04-26T09:19:56.022Z</time></trkpt><trkpt lat="44.0656" lon="12.0757333"><ele>277.0</ele><time>2026-04-26T09:19:57.024Z</time></trkpt><trkpt lat="44.0655167" lon="12.0757633"><ele>275.33333333333337</ele><time>2026-04-26T09:19:58.021Z</time></trkpt><trkpt lat="44.0654517" lon="12.0758517"><ele>273.6666666666667</ele><time>2026-04-26T09:19:59.024Z</time></trkpt><trkpt lat="44.06538" lon="12.0758933"><ele>272.0</ele><time>2026-04-26T09:20:00.022Z</time></trkpt><trkpt lat="44.0653067" lon="12.0759233"><ele>271.99999999999994</ele><time>2026-04-26T09:20:01.021Z</time></trkpt><trkpt lat="44.0652317" lon="12.0759533"><ele>272.0</ele><time>2026-04-26T09:20:02.023Z</time></trkpt><trkpt lat="44.065155" lon="12.0759483"><ele>272.0</ele><time>2026-04-26T09:20:03.022Z</time></trkpt><trkpt lat="44.0650783" lon="12.0759533"><ele>272.0</ele><time>2026-04-26T09:20:04.021Z</time></trkpt><trkpt lat="44.0650067" lon="12.0759517"><ele>272.0</ele><time>2026-04-26T09:20:05.022Z</time></trkpt><trkpt lat="44.064935" lon="12.0759433"><ele>271.99999999999994</ele><time>2026-04-26T09:20:06.021Z</time></trkpt><trkpt lat="44.064865" lon="12.0759617"><ele>272.0</ele><time>2026-04-26T09:20:07.022Z</time></trkpt><trkpt lat="44.064795" lon="12.0759817"><ele>269.83333333333337</ele><time>2026-04-26T09:20:08.021Z</time></trkpt><trkpt lat="44.0647317" lon="12.0760183"><ele>267.6666666666667</ele><time>2026-04-26T09:20:09.023Z</time></trkpt><trkpt lat="44.0646767" lon="12.076085"><ele>265.5</ele><time>2026-04-26T09:20:10.023Z</time></trkpt><trkpt lat="44.06462" lon="12.0761683"><ele>263.3333333333333</ele><time>2026-04-26T09:20:11.021Z</time></trkpt><trkpt lat="44.064565" lon="12.0762717"><ele>261.16666666666663</ele><time>2026-04-26T09:20:12.025Z</time></trkpt><trkpt lat="44.0645133" lon="12.07639"><ele>259.0</ele><time>2026-04-26T09:20:13.022Z</time></trkpt><trkpt lat="44.064465" lon="12.0765083"><ele>259.59999999999997</ele><time>2026-04-26T09:20:14.023Z</time></trkpt><trkpt lat="44.064435" lon="12.07664"><ele>260.2</ele><time>2026-04-26T09:20:15.021Z</time></trkpt><trkpt lat="44.0643817" lon="12.0767567"><ele>260.79999999999995</ele><time>2026-04-26T09:20:16.022Z</time></trkpt><trkpt lat="44.0643383" lon="12.0768733"><ele>261.4</ele><time>2026-04-26T09:20:17.023Z</time></trkpt><trkpt lat="44.0642933" lon="12.0769867"><ele>262.0</ele><time>2026-04-26T09:20:18.021Z</time></trkpt><trkpt lat="44.0642517" lon="12.0771"><ele>262.0</ele><time>2026-04-26T09:20:19.026Z</time></trkpt><trkpt lat="44.0642167" lon="12.0772167"><ele>262.0</ele><time>2026-04-26T09:20:20.022Z</time></trkpt><trkpt lat="44.0641717" lon="12.077315"><ele>262.0</ele><time>2026-04-26T09:20:21.023Z</time></trkpt><trkpt lat="44.0641233" lon="12.0774083"><ele>262.0</ele><time>2026-04-26T09:20:22.021Z</time></trkpt><trkpt lat="44.0640783" lon="12.0775033"><ele>262.0</ele><time>2026-04-26T09:20:23.022Z</time></trkpt><trkpt lat="44.064035" lon="12.0776"><ele>262.0</ele><time>2026-04-26T09:20:24.021Z</time></trkpt><trkpt lat="44.0639917" lon="12.0776983"><ele>260.5</ele><time>2026-04-26T09:20:25.022Z</time></trkpt><trkpt lat="44.0639417" lon="12.0777883"><ele>259.0</ele><time>2026-04-26T09:20:26.021Z</time></trkpt><trkpt lat="44.063885" lon="12.077865"><ele>257.5</ele><time>2026-04-26T09:20:27.022Z</time></trkpt><trkpt lat="44.06382" lon="12.077925"><ele>256.0</ele><time>2026-04-26T09:20:28.025Z</time></trkpt><trkpt lat="44.0637417" lon="12.0779717"><ele>254.49999999999997</ele><time>2026-04-26T09:20:29.021Z</time></trkpt><trkpt lat="44.0636567" lon="12.0780217"><ele>253.0</ele><time>2026-04-26T09:20:30.023Z</time></trkpt><trkpt lat="44.0635817" lon="12.0781067"><ele>253.0</ele><time>2026-04-26T09:20:31.022Z</time></trkpt><trkpt lat="44.0634833" lon="12.0781133"><ele>253.0</ele><time>2026-04-26T09:20:32.022Z</time></trkpt><trkpt lat="44.0633917" lon="12.0781283"><ele>253.0</ele><time>2026-04-26T09:20:33.023Z</time></trkpt><trkpt lat="44.063305" lon="12.078155"><ele>253.0</ele><time>2026-04-26T09:20:34.022Z</time></trkpt><trkpt lat="44.0632217" lon="12.0781883"><ele>253.0</ele><time>2026-04-26T09:20:35.023Z</time></trkpt><trkpt lat="44.0631333" lon="12.07821"><ele>253.16666666666666</ele><time>2026-04-26T09:20:36.024Z</time></trkpt><trkpt lat="44.06305" lon="12.0782467"><ele>253.33333333333331</ele><time>2026-04-26T09:20:37.022Z</time></trkpt><trkpt lat="44.0629667" lon="12.0782717"><ele>253.5</ele><time>2026-04-26T09:20:38.021Z</time></trkpt><trkpt lat="44.06288" lon="12.0782767"><ele>253.66666666666669</ele><time>2026-04-26T09:20:39.023Z</time></trkpt><trkpt lat="44.0628033" lon="12.0783017"><ele>253.83333333333334</ele><time>2026-04-26T09:20:40.022Z</time></trkpt><trkpt lat="44.062725" lon="12.0783167"><ele>254.0</ele><time>2026-04-26T09:20:41.022Z</time></trkpt><trkpt lat="44.06265" lon="12.0783383"><ele>254.00000000000003</ele><time>2026-04-26T09:20:42.024Z</time></trkpt><trkpt lat="44.0625817" lon="12.07837"><ele>254.0</ele><time>2026-04-26T09:20:43.022Z</time></trkpt><trkpt lat="44.0625167" lon="12.0784183"><ele>254.0</ele><time>2026-04-26T09:20:44.023Z</time></trkpt><trkpt lat="44.0624517" lon="12.0784683"><ele>254.0</ele><time>2026-04-26T09:20:45.023Z</time></trkpt><trkpt lat="44.0623933" lon="12.0785433"><ele>254.00000000000003</ele><time>2026-04-26T09:20:46.022Z</time></trkpt><trkpt lat="44.0623267" lon="12.078605"><ele>254.0</ele><time>2026-04-26T09:20:47.023Z</time></trkpt><trkpt lat="44.0622767" lon="12.0786967"><ele>251.83333333333334</ele><time>2026-04-26T09:20:48.023Z</time></trkpt><trkpt lat="44.0622183" lon="12.0787833"><ele>249.66666666666669</ele><time>2026-04-26T09:20:49.022Z</time></trkpt><trkpt lat="44.062165" lon="12.078875"><ele>247.5</ele><time>2026-04-26T09:20:50.024Z</time></trkpt><trkpt lat="44.06211" lon="12.0789667"><ele>245.33333333333331</ele><time>2026-04-26T09:20:51.022Z</time></trkpt><trkpt lat="44.062055" lon="12.07906"><ele>243.16666666666666</ele><time>2026-04-26T09:20:52.022Z</time></trkpt><trkpt lat="44.0619967" lon="12.0791583"><ele>241.0</ele><time>2026-04-26T09:20:53.022Z</time></trkpt><trkpt lat="44.0619383" lon="12.0792667"><ele>240.99999999999997</ele><time>2026-04-26T09:20:54.022Z</time></trkpt><trkpt lat="44.061875" lon="12.079375"><ele>241.0</ele><time>2026-04-26T09:20:55.024Z</time></trkpt><trkpt lat="44.0618133" lon="12.0794733"><ele>241.0</ele><time>2026-04-26T09:20:56.022Z</time></trkpt><trkpt lat="44.0617683" lon="12.0795767"><ele>241.0</ele><time>2026-04-26T09:20:57.022Z</time></trkpt><trkpt lat="44.0617117" lon="12.0796533"><ele>240.99999999999997</ele><time>2026-04-26T09:20:58.023Z</time></trkpt><trkpt lat="44.0616633" lon="12.079735"><ele>241.0</ele><time>2026-04-26T09:20:59.025Z</time></trkpt><trkpt lat="44.0616083" lon="12.0798017"><ele>239.85714285714286</ele><time>2026-04-26T09:21:00.022Z</time></trkpt><trkpt lat="44.0615483" lon="12.0798533"><ele>238.71428571428572</ele><time>2026-04-26T09:21:01.024Z</time></trkpt><trkpt lat="44.06149" lon="12.0799067"><ele>237.57142857142858</ele><time>2026-04-26T09:21:02.022Z</time></trkpt><trkpt lat="44.061425" lon="12.07995"><ele>236.42857142857144</ele><time>2026-04-26T09:21:03.021Z</time></trkpt><trkpt lat="44.061355" lon="12.07999"><ele>235.28571428571428</ele><time>2026-04-26T09:21:04.022Z</time></trkpt><trkpt lat="44.061295" lon="12.0800433"><ele>234.14285714285717</ele><time>2026-04-26T09:21:05.024Z</time></trkpt><trkpt lat="44.0612317" lon="12.080085"><ele>233.0</ele><time>2026-04-26T09:21:06.024Z</time></trkpt><trkpt lat="44.0611767" lon="12.080135"><ele>233.0</ele><time>2026-04-26T09:21:07.022Z</time></trkpt><trkpt lat="44.0611167" lon="12.0801717"><ele>233.0</ele><time>2026-04-26T09:21:08.021Z</time></trkpt><trkpt lat="44.0610617" lon="12.0802283"><ele>233.0</ele><time>2026-04-26T09:21:09.022Z</time></trkpt><trkpt lat="44.0610167" lon="12.0802967"><ele>233.0</ele><time>2026-04-26T09:21:10.022Z</time></trkpt><trkpt lat="44.060965" lon="12.0803667"><ele>233.0</ele><time>2026-04-26T09:21:11.021Z</time></trkpt><trkpt lat="44.0609267" lon="12.0804617"><ele>233.0</ele><time>2026-04-26T09:21:12.022Z</time></trkpt><trkpt lat="44.06088" lon="12.0805433"><ele>233.0</ele><time>2026-04-26T09:21:13.026Z</time></trkpt><trkpt lat="44.0608383" lon="12.08063"><ele>233.0</ele><time>2026-04-26T09:21:14.022Z</time></trkpt><trkpt lat="44.06081" lon="12.0807267"><ele>233.0</ele><time>2026-04-26T09:21:15.023Z</time></trkpt><trkpt lat="44.0607867" lon="12.0808317"><ele>233.0</ele><time>2026-04-26T09:21:16.021Z</time></trkpt><trkpt lat="44.0607533" lon="12.0809267"><ele>233.0</ele><time>2026-04-26T09:21:17.024Z</time></trkpt><trkpt lat="44.0607217" lon="12.081015"><ele>233.0</ele><time>2026-04-26T09:21:18.024Z</time></trkpt><trkpt lat="44.0606817" lon="12.0811"><ele>233.0</ele><time>2026-04-26T09:21:19.024Z</time></trkpt><trkpt lat="44.0606417" lon="12.08118"><ele>233.0</ele><time>2026-04-26T09:21:20.022Z</time></trkpt><trkpt lat="44.0605867" lon="12.08124"><ele>230.33333333333334</ele><time>2026-04-26T09:21:21.023Z</time></trkpt><trkpt lat="44.060535" lon="12.081305"><ele>227.66666666666669</ele><time>2026-04-26T09:21:22.022Z</time></trkpt><trkpt lat="44.06047" lon="12.0813467"><ele>225.0</ele><time>2026-04-26T09:21:23.025Z</time></trkpt><trkpt lat="44.0603967" lon="12.0813867"><ele>222.33333333333331</ele><time>2026-04-26T09:21:24.024Z</time></trkpt><trkpt lat="44.0603167" lon="12.081415"><ele>219.66666666666666</ele><time>2026-04-26T09:21:25.023Z</time></trkpt><trkpt lat="44.0602367" lon="12.08143"><ele>217.0</ele><time>2026-04-26T09:21:26.025Z</time></trkpt><trkpt lat="44.0601667" lon="12.0814817"><ele>216.99999999999997</ele><time>2026-04-26T09:21:27.023Z</time></trkpt><trkpt lat="44.0600883" lon="12.0815"><ele>217.0</ele><time>2026-04-26T09:21:28.023Z</time></trkpt><trkpt lat="44.0600133" lon="12.0815183"><ele>217.0</ele><time>2026-04-26T09:21:29.024Z</time></trkpt><trkpt lat="44.05994" lon="12.0815567"><ele>217.0</ele><time>2026-04-26T09:21:30.022Z</time></trkpt><trkpt lat="44.0598683" lon="12.08161"><ele>216.99999999999997</ele><time>2026-04-26T09:21:31.022Z</time></trkpt><trkpt lat="44.0597967" lon="12.0816833"><ele>217.0</ele><time>2026-04-26T09:21:32.022Z</time></trkpt><trkpt lat="44.0597183" lon="12.0817617"><ele>215.39999999999998</ele><time>2026-04-26T09:21:33.023Z</time></trkpt><trkpt lat="44.059625" lon="12.08179"><ele>213.79999999999998</ele><time>2026-04-26T09:21:34.027Z</time></trkpt><trkpt lat="44.0595383" lon="12.081835"><ele>212.2</ele><time>2026-04-26T09:21:35.022Z</time></trkpt><trkpt lat="44.0594517" lon="12.081875"><ele>210.6</ele><time>2026-04-26T09:21:36.023Z</time></trkpt><trkpt lat="44.05938" lon="12.08194"><ele>209.0</ele><time>2026-04-26T09:21:37.024Z</time></trkpt><trkpt lat="44.059305" lon="12.08201"><ele>209.00000000000003</ele><time>2026-04-26T09:21:38.022Z</time></trkpt><trkpt lat="44.059235" lon="12.0820867"><ele>209.0</ele><time>2026-04-26T09:21:39.022Z</time></trkpt><trkpt lat="44.05916" lon="12.0821417"><ele>209.0</ele><time>2026-04-26T09:21:40.022Z</time></trkpt><trkpt lat="44.0590917" lon="12.0821983"><ele>209.0</ele><time>2026-04-26T09:21:41.022Z</time></trkpt><trkpt lat="44.0590333" lon="12.082275"><ele>209.00000000000003</ele><time>2026-04-26T09:21:42.021Z</time></trkpt><trkpt lat="44.05898" lon="12.0823417"><ele>209.0</ele><time>2026-04-26T09:21:43.024Z</time></trkpt><trkpt lat="44.0589167" lon="12.0825017"><ele>206.0</ele><time>2026-04-26T09:21:45.022Z</time></trkpt><trkpt lat="44.058845" lon="12.0826133"><ele>203.0</ele><time>2026-04-26T09:21:47.023Z</time></trkpt><trkpt lat="44.0587483" lon="12.0826233"><ele>200.0</ele><time>2026-04-26T09:21:49.024Z</time></trkpt><trkpt lat="44.0586717" lon="12.082525"><ele>197.0</ele><time>2026-04-26T09:21:51.023Z</time></trkpt><trkpt lat="44.0586417" lon="12.0823733"><ele>194.0</ele><time>2026-04-26T09:21:53.026Z</time></trkpt><trkpt lat="44.0586533" lon="12.0822233"><ele>193.39999999999998</ele><time>2026-04-26T09:21:55.023Z</time></trkpt><trkpt lat="44.05866" lon="12.0821167"><ele>192.8</ele><time>2026-04-26T09:21:57.023Z</time></trkpt><trkpt lat="44.0586167" lon="12.0820467"><ele>192.2</ele><time>2026-04-26T09:21:59.022Z</time></trkpt><trkpt lat="44.0585233" lon="12.0820933"><ele>191.60000000000002</ele><time>2026-04-26T09:22:01.023Z</time></trkpt><trkpt lat="44.0584517" lon="12.0821867"><ele>191.0</ele><time>2026-04-26T09:22:03.023Z</time></trkpt><trkpt lat="44.058385" lon="12.08233"><ele>191.0</ele><time>2026-04-26T09:22:05.023Z</time></trkpt><trkpt lat="44.05835" lon="12.0824133"><ele>191.0</ele><time>2026-04-26T09:22:06.024Z</time></trkpt><trkpt lat="44.0583333" lon="12.0825067"><ele>191.0</ele><time>2026-04-26T09:22:07.024Z</time></trkpt><trkpt lat="44.0582983" lon="12.0825917"><ele>191.0</ele><time>2026-04-26T09:22:08.024Z</time></trkpt><trkpt lat="44.05826" lon="12.08267"><ele>191.0</ele><time>2026-04-26T09:22:09.024Z</time></trkpt><trkpt lat="44.0582033" lon="12.0827417"><ele>191.0</ele><time>2026-04-26T09:22:10.022Z</time></trkpt><trkpt lat="44.0581383" lon="12.082805"><ele>191.0</ele><time>2026-04-26T09:22:11.023Z</time></trkpt><trkpt lat="44.0580667" lon="12.0828317"><ele>188.66666666666666</ele><time>2026-04-26T09:22:12.023Z</time></trkpt><trkpt lat="44.0580017" lon="12.08287"><ele>186.33333333333331</ele><time>2026-04-26T09:22:13.025Z</time></trkpt><trkpt lat="44.0579367" lon="12.0829083"><ele>184.0</ele><time>2026-04-26T09:22:14.024Z</time></trkpt><trkpt lat="44.05787" lon="12.0829433"><ele>181.66666666666666</ele><time>2026-04-26T09:22:15.023Z</time></trkpt><trkpt lat="44.0578017" lon="12.0830017"><ele>179.33333333333334</ele><time>2026-04-26T09:22:16.105Z</time></trkpt><trkpt lat="44.05773" lon="12.08304"><ele>177.0</ele><time>2026-04-26T09:22:17.025Z</time></trkpt><trkpt lat="44.0576567" lon="12.0831067"><ele>177.0</ele><time>2026-04-26T09:22:18.022Z</time></trkpt><trkpt lat="44.05766" lon="12.0832267"><ele>177.0</ele><time>2026-04-26T09:22:19.028Z</time></trkpt><trkpt lat="44.05764" lon="12.0833917"><ele>177.0</ele><time>2026-04-26T09:22:21.023Z</time></trkpt><trkpt lat="44.0576433" lon="12.0834983"><ele>177.0</ele><time>2026-04-26T09:22:22.023Z</time></trkpt><trkpt lat="44.0576333" lon="12.0836233"><ele>177.0</ele><time>2026-04-26T09:22:23.027Z</time></trkpt><trkpt lat="44.0576417" lon="12.0837133"><ele>177.0</ele><time>2026-04-26T09:22:24.024Z</time></trkpt><trkpt lat="44.0576483" lon="12.0838067"><ele>177.33333333333334</ele><time>2026-04-26T09:22:25.027Z</time></trkpt><trkpt lat="44.0576367" lon="12.083925"><ele>177.66666666666666</ele><time>2026-04-26T09:22:26.025Z</time></trkpt><trkpt lat="44.05761" lon="12.0840467"><ele>178.0</ele><time>2026-04-26T09:22:27.024Z</time></trkpt><trkpt lat="44.0576017" lon="12.0841633"><ele>178.33333333333331</ele><time>2026-04-26T09:22:28.024Z</time></trkpt><trkpt lat="44.0575867" lon="12.0842767"><ele>178.66666666666666</ele><time>2026-04-26T09:22:29.024Z</time></trkpt><trkpt lat="44.0576083" lon="12.0843733"><ele>179.0</ele><time>2026-04-26T09:22:30.021Z</time></trkpt><trkpt lat="44.05758" lon="12.0844733"><ele>177.83333333333331</ele><time>2026-04-26T09:22:31.023Z</time></trkpt><trkpt lat="44.0576117" lon="12.084565"><ele>176.66666666666666</ele><time>2026-04-26T09:22:32.024Z</time></trkpt><trkpt lat="44.0576283" lon="12.0846783"><ele>175.5</ele><time>2026-04-26T09:22:33.023Z</time></trkpt><trkpt lat="44.057615" lon="12.08479"><ele>174.33333333333334</ele><time>2026-04-26T09:22:34.022Z</time></trkpt><trkpt lat="44.05762" lon="12.0848983"><ele>173.16666666666669</ele><time>2026-04-26T09:22:35.022Z</time></trkpt><trkpt lat="44.05761" lon="12.085005"><ele>172.0</ele><time>2026-04-26T09:22:36.024Z</time></trkpt><trkpt lat="44.0575917" lon="12.08512"><ele>170.5</ele><time>2026-04-26T09:22:37.023Z</time></trkpt><trkpt lat="44.0575483" lon="12.08521"><ele>169.0</ele><time>2026-04-26T09:22:38.029Z</time></trkpt><trkpt lat="44.0575617" lon="12.0853067"><ele>167.5</ele><time>2026-04-26T09:22:39.023Z</time></trkpt><trkpt lat="44.0575183" lon="12.0854417"><ele>166.0</ele><time>2026-04-26T09:22:40.023Z</time></trkpt><trkpt lat="44.0575433" lon="12.0855233"><ele>164.5</ele><time>2026-04-26T09:22:41.021Z</time></trkpt><trkpt lat="44.0575567" lon="12.0856283"><ele>163.0</ele><time>2026-04-26T09:22:42.023Z</time></trkpt><trkpt lat="44.0576083" lon="12.0856883"><ele>160.0</ele><time>2026-04-26T09:22:43.023Z</time></trkpt><trkpt lat="44.0577167" lon="12.0857817"><ele>157.0</ele><time>2026-04-26T09:22:45.023Z</time></trkpt><trkpt lat="44.057815" lon="12.085855"><ele>154.0</ele><time>2026-04-26T09:22:47.022Z</time></trkpt><trkpt lat="44.0578733" lon="12.0859617"><ele>151.0</ele><time>2026-04-26T09:22:49.025Z</time></trkpt><trkpt lat="44.0578417" lon="12.0861283"><ele>151.0</ele><time>2026-04-26T09:22:51.025Z</time></trkpt><trkpt lat="44.057795" lon="12.086195"><ele>151.0</ele><time>2026-04-26T09:22:52.023Z</time></trkpt><trkpt lat="44.0577167" lon="12.0862133"><ele>151.0</ele><time>2026-04-26T09:22:53.023Z</time></trkpt><trkpt lat="44.0576283" lon="12.0862267"><ele>151.0</ele><time>2026-04-26T09:22:54.023Z</time></trkpt><trkpt lat="44.057535" lon="12.086275"><ele>151.0</ele><time>2026-04-26T09:22:55.024Z</time></trkpt><trkpt lat="44.0574383" lon="12.08629"><ele>151.0</ele><time>2026-04-26T09:22:56.024Z</time></trkpt><trkpt lat="44.05734" lon="12.086335"><ele>148.4</ele><time>2026-04-26T09:22:57.023Z</time></trkpt><trkpt lat="44.0572417" lon="12.086355"><ele>145.8</ele><time>2026-04-26T09:22:58.024Z</time></trkpt><trkpt lat="44.057135" lon="12.0864117"><ele>143.20000000000002</ele><time>2026-04-26T09:22:59.024Z</time></trkpt><trkpt lat="44.0570367" lon="12.0864967"><ele>140.6</ele><time>2026-04-26T09:23:00.026Z</time></trkpt><trkpt lat="44.0569467" lon="12.0865483"><ele>138.0</ele><time>2026-04-26T09:23:01.026Z</time></trkpt><trkpt lat="44.05686" lon="12.0865917"><ele>136.0</ele><time>2026-04-26T09:23:02.024Z</time></trkpt><trkpt lat="44.056765" lon="12.0866167"><ele>134.0</ele><time>2026-04-26T09:23:03.029Z</time></trkpt><trkpt lat="44.0566733" lon="12.0866317"><ele>132.0</ele><time>2026-04-26T09:23:04.023Z</time></trkpt><trkpt lat="44.05659" lon="12.0866517"><ele>130.0</ele><time>2026-04-26T09:23:05.024Z</time></trkpt><trkpt lat="44.05651" lon="12.086635"><ele>128.0</ele><time>2026-04-26T09:23:06.024Z</time></trkpt><trkpt lat="44.0564283" lon="12.0866083"><ele>126.0</ele><time>2026-04-26T09:23:07.023Z</time></trkpt><trkpt lat="44.056355" lon="12.0865683"><ele>125.8</ele><time>2026-04-26T09:23:08.024Z</time></trkpt><trkpt lat="44.0562967" lon="12.0865267"><ele>125.6</ele><time>2026-04-26T09:23:09.024Z</time></trkpt><trkpt lat="44.0562433" lon="12.0864783"><ele>125.4</ele><time>2026-04-26T09:23:10.024Z</time></trkpt><trkpt lat="44.05614" lon="12.086435"><ele>125.2</ele><time>2026-04-26T09:23:12.024Z</time></trkpt><trkpt lat="44.0560583" lon="12.086525"><ele>125.0</ele><time>2026-04-26T09:23:14.021Z</time></trkpt><trkpt lat="44.0560383" lon="12.086675"><ele>124.14285714285714</ele><time>2026-04-26T09:23:16.023Z</time></trkpt><trkpt lat="44.05604" lon="12.0867683"><ele>123.28571428571429</ele><time>2026-04-26T09:23:17.022Z</time></trkpt><trkpt lat="44.056045" lon="12.086865"><ele>122.42857142857143</ele><time>2026-04-26T09:23:18.023Z</time></trkpt><trkpt lat="44.05605" lon="12.08698"><ele>121.57142857142857</ele><time>2026-04-26T09:23:19.024Z</time></trkpt><trkpt lat="44.056035" lon="12.0870833"><ele>120.71428571428572</ele><time>2026-04-26T09:23:20.023Z</time></trkpt><trkpt lat="44.056005" lon="12.0871783"><ele>119.85714285714286</ele><time>2026-04-26T09:23:21.024Z</time></trkpt><trkpt lat="44.055955" lon="12.0872583"><ele>119.0</ele><time>2026-04-26T09:23:22.025Z</time></trkpt><trkpt lat="44.055885" lon="12.0873233"><ele>119.0</ele><time>2026-04-26T09:23:23.026Z</time></trkpt><trkpt lat="44.0558" lon="12.0873917"><ele>119.0</ele><time>2026-04-26T09:23:24.025Z</time></trkpt><trkpt lat="44.0557" lon="12.0874617"><ele>119.0</ele><time>2026-04-26T09:23:25.024Z</time></trkpt><trkpt lat="44.0555967" lon="12.087545"><ele>119.0</ele><time>2026-04-26T09:23:26.021Z</time></trkpt><trkpt lat="44.055495" lon="12.0876233"><ele>119.0</ele><time>2026-04-26T09:23:27.024Z</time></trkpt><trkpt lat="44.05541" lon="12.0877067"><ele>119.16666666666666</ele><time>2026-04-26T09:23:28.024Z</time></trkpt><trkpt lat="44.0553383" lon="12.0877967"><ele>119.33333333333333</ele><time>2026-04-26T09:23:29.025Z</time></trkpt><trkpt lat="44.0552783" lon="12.08787"><ele>119.5</ele><time>2026-04-26T09:23:30.024Z</time></trkpt><trkpt lat="44.05523" lon="12.087935"><ele>119.66666666666666</ele><time>2026-04-26T09:23:31.021Z</time></trkpt><trkpt lat="44.0551817" lon="12.0879917"><ele>119.83333333333333</ele><time>2026-04-26T09:23:33.023Z</time></trkpt><trkpt lat="44.0552233" lon="12.0881183"><ele>120.0</ele><time>2026-04-26T09:23:43.024Z</time></trkpt><trkpt lat="44.055305" lon="12.08825"><ele>120.6</ele><time>2026-04-26T09:23:45.023Z</time></trkpt><trkpt lat="44.0553967" lon="12.08834"><ele>121.2</ele><time>2026-04-26T09:23:46.021Z</time></trkpt><trkpt lat="44.0554917" lon="12.08845"><ele>121.80000000000001</ele><time>2026-04-26T09:23:47.021Z</time></trkpt><trkpt lat="44.0555817" lon="12.0885233"><ele>122.4</ele><time>2026-04-26T09:23:48.022Z</time></trkpt><trkpt lat="44.05568" lon="12.0885633"><ele>123.0</ele><time>2026-04-26T09:23:49.026Z</time></trkpt><trkpt lat="44.0557617" lon="12.0885367"><ele>122.16666666666667</ele><time>2026-04-26T09:23:50.022Z</time></trkpt><trkpt lat="44.0558417" lon="12.0885167"><ele>121.33333333333334</ele><time>2026-04-26T09:23:51.022Z</time></trkpt><trkpt lat="44.0559133" lon="12.08849"><ele>120.5</ele><time>2026-04-26T09:23:52.022Z</time></trkpt><trkpt lat="44.05598" lon="12.0884633"><ele>119.66666666666667</ele><time>2026-04-26T09:23:53.021Z</time></trkpt><trkpt lat="44.0560667" lon="12.0883783"><ele>118.83333333333334</ele><time>2026-04-26T09:23:55.023Z</time></trkpt><trkpt lat="44.0561483" lon="12.0883833"><ele>118.0</ele><time>2026-04-26T09:23:57.023Z</time></trkpt><trkpt lat="44.0561917" lon="12.0884567"><ele>118.00000000000001</ele><time>2026-04-26T09:23:59.023Z</time></trkpt><trkpt lat="44.0561883" lon="12.08856"><ele>118.0</ele><time>2026-04-26T09:24:01.022Z</time></trkpt><trkpt lat="44.0561633" lon="12.0887133"><ele>118.0</ele><time>2026-04-26T09:24:03.023Z</time></trkpt><trkpt lat="44.0561133" lon="12.0888017"><ele>118.0</ele><time>2026-04-26T09:24:04.023Z</time></trkpt><trkpt lat="44.0560983" lon="12.0888883"><ele>118.00000000000001</ele><time>2026-04-26T09:24:05.023Z</time></trkpt><trkpt lat="44.0560767" lon="12.0889817"><ele>118.0</ele><time>2026-04-26T09:24:06.023Z</time></trkpt><trkpt lat="44.05605" lon="12.0890767"><ele>119.16666666666667</ele><time>2026-04-26T09:24:07.023Z</time></trkpt><trkpt lat="44.0560333" lon="12.0891633"><ele>120.33333333333334</ele><time>2026-04-26T09:24:08.023Z</time></trkpt><trkpt lat="44.056015" lon="12.0892617"><ele>121.5</ele><time>2026-04-26T09:24:09.023Z</time></trkpt><trkpt lat="44.0559767" lon="12.0893683"><ele>122.66666666666666</ele><time>2026-04-26T09:24:10.023Z</time></trkpt><trkpt lat="44.0559117" lon="12.0894817"><ele>123.83333333333333</ele><time>2026-04-26T09:24:11.023Z</time></trkpt><trkpt lat="44.0558867" lon="12.0895867"><ele>125.0</ele><time>2026-04-26T09:24:12.024Z</time></trkpt><trkpt lat="44.0558617" lon="12.0896867"><ele>124.83333333333333</ele><time>2026-04-26T09:24:13.023Z</time></trkpt><trkpt lat="44.0557567" lon="12.08974"><ele>124.66666666666666</ele><time>2026-04-26T09:24:14.021Z</time></trkpt><trkpt lat="44.05574" lon="12.0898283"><ele>124.5</ele><time>2026-04-26T09:24:15.025Z</time></trkpt><trkpt lat="44.0557233" lon="12.0899233"><ele>124.33333333333334</ele><time>2026-04-26T09:24:16.023Z</time></trkpt><trkpt lat="44.0556767" lon="12.090015"><ele>124.16666666666667</ele><time>2026-04-26T09:24:17.022Z</time></trkpt><trkpt lat="44.055615" lon="12.0900917"><ele>124.0</ele><time>2026-04-26T09:24:18.024Z</time></trkpt><trkpt lat="44.0555617" lon="12.0901667"><ele>125.80000000000001</ele><time>2026-04-26T09:24:19.023Z</time></trkpt><trkpt lat="44.0555017" lon="12.0902433"><ele>127.60000000000001</ele><time>2026-04-26T09:24:20.022Z</time></trkpt><trkpt lat="44.0553867" lon="12.0902233"><ele>129.4</ele><time>2026-04-26T09:24:21.022Z</time></trkpt><trkpt lat="44.055285" lon="12.09036"><ele>131.20000000000002</ele><time>2026-04-26T09:24:23.023Z</time></trkpt><trkpt lat="44.05524" lon="12.0904683"><ele>133.0</ele><time>2026-04-26T09:24:24.023Z</time></trkpt><trkpt lat="44.0551783" lon="12.0905617"><ele>133.0</ele><time>2026-04-26T09:24:25.023Z</time></trkpt><trkpt lat="44.0551633" lon="12.0906983"><ele>133.0</ele><time>2026-04-26T09:24:26.022Z</time></trkpt><trkpt lat="44.055125" lon="12.090835"><ele>133.0</ele><time>2026-04-26T09:24:27.022Z</time></trkpt><trkpt lat="44.0550733" lon="12.090975"><ele>133.0</ele><time>2026-04-26T09:24:28.022Z</time></trkpt><trkpt lat="44.0550083" lon="12.0911117"><ele>133.0</ele><time>2026-04-26T09:24:29.023Z</time></trkpt><trkpt lat="44.0549617" lon="12.0912533"><ele>133.4</ele><time>2026-04-26T09:24:30.023Z</time></trkpt><trkpt lat="44.0549017" lon="12.09139"><ele>133.8</ele><time>2026-04-26T09:24:31.025Z</time></trkpt><trkpt lat="44.054835" lon="12.0915133"><ele>134.2</ele><time>2026-04-26T09:24:32.021Z</time></trkpt><trkpt lat="44.0547733" lon="12.0916217"><ele>134.6</ele><time>2026-04-26T09:24:33.023Z</time></trkpt><trkpt lat="44.054715" lon="12.0917117"><ele>135.0</ele><time>2026-04-26T09:24:34.023Z</time></trkpt><trkpt lat="44.0546783" lon="12.0918067"><ele>136.8</ele><time>2026-04-26T09:24:35.023Z</time></trkpt><trkpt lat="44.0546117" lon="12.0918983"><ele>138.6</ele><time>2026-04-26T09:24:37.023Z</time></trkpt><trkpt lat="44.05463" lon="12.092"><ele>140.4</ele><time>2026-04-26T09:24:40.022Z</time></trkpt><trkpt lat="44.0546983" lon="12.0920533"><ele>142.2</ele><time>2026-04-26T09:24:43.023Z</time></trkpt><trkpt lat="44.054785" lon="12.0920767"><ele>144.0</ele><time>2026-04-26T09:24:45.022Z</time></trkpt><trkpt lat="44.0549" lon="12.0921067"><ele>145.66666666666666</ele><time>2026-04-26T09:24:47.022Z</time></trkpt><trkpt lat="44.0549767" lon="12.09212"><ele>147.33333333333334</ele><time>2026-04-26T09:24:48.024Z</time></trkpt><trkpt lat="44.055085" lon="12.09211"><ele>149.0</ele><time>2026-04-26T09:24:49.023Z</time></trkpt><trkpt lat="44.0551717" lon="12.0921"><ele>150.66666666666669</ele><time>2026-04-26T09:24:50.021Z</time></trkpt><trkpt lat="44.0552367" lon="12.0921083"><ele>152.33333333333334</ele><time>2026-04-26T09:24:51.023Z</time></trkpt><trkpt lat="44.0553133" lon="12.0920733"><ele>154.0</ele><time>2026-04-26T09:24:52.023Z</time></trkpt><trkpt lat="44.0554383" lon="12.0920133"><ele>154.0</ele><time>2026-04-26T09:24:54.025Z</time></trkpt><trkpt lat="44.055505" lon="12.0919567"><ele>154.0</ele><time>2026-04-26T09:24:55.023Z</time></trkpt><trkpt lat="44.055585" lon="12.0918633"><ele>154.0</ele><time>2026-04-26T09:24:56.023Z</time></trkpt><trkpt lat="44.05567" lon="12.09176"><ele>154.0</ele><time>2026-04-26T09:24:57.023Z</time></trkpt><trkpt lat="44.055745" lon="12.0917083"><ele>154.0</ele><time>2026-04-26T09:24:58.024Z</time></trkpt><trkpt lat="44.055835" lon="12.0916117"><ele>154.33333333333334</ele><time>2026-04-26T09:24:59.024Z</time></trkpt><trkpt lat="44.0559267" lon="12.0915717"><ele>154.66666666666669</ele><time>2026-04-26T09:25:00.024Z</time></trkpt><trkpt lat="44.0559967" lon="12.0915767"><ele>155.0</ele><time>2026-04-26T09:25:01.026Z</time></trkpt><trkpt lat="44.056065" lon="12.091595"><ele>155.33333333333334</ele><time>2026-04-26T09:25:02.023Z</time></trkpt><trkpt lat="44.0561333" lon="12.0916317"><ele>155.66666666666666</ele><time>2026-04-26T09:25:03.023Z</time></trkpt><trkpt lat="44.0562067" lon="12.0916583"><ele>156.0</ele><time>2026-04-26T09:25:04.024Z</time></trkpt><trkpt lat="44.0563267" lon="12.0917317"><ele>158.83333333333334</ele><time>2026-04-26T09:25:06.024Z</time></trkpt><trkpt lat="44.0563783" lon="12.0917883"><ele>161.66666666666666</ele><time>2026-04-26T09:25:07.02Z</time></trkpt><trkpt lat="44.05639" lon="12.0919417"><ele>164.5</ele><time>2026-04-26T09:25:09.023Z</time></trkpt><trkpt lat="44.0563817" lon="12.092035"><ele>167.33333333333331</ele><time>2026-04-26T09:25:10.021Z</time></trkpt><trkpt lat="44.0563517" lon="12.092145"><ele>170.16666666666666</ele><time>2026-04-26T09:25:11.025Z</time></trkpt><trkpt lat="44.056325" lon="12.092255"><ele>173.0</ele><time>2026-04-26T09:25:12.023Z</time></trkpt><trkpt lat="44.0563133" lon="12.09238"><ele>175.4</ele><time>2026-04-26T09:25:13.022Z</time></trkpt><trkpt lat="44.0562933" lon="12.0925133"><ele>177.8</ele><time>2026-04-26T09:25:14.021Z</time></trkpt><trkpt lat="44.05625" lon="12.09266"><ele>180.2</ele><time>2026-04-26T09:25:15.025Z</time></trkpt><trkpt lat="44.05624" lon="12.09281"><ele>182.6</ele><time>2026-04-26T09:25:16.027Z</time></trkpt><trkpt lat="44.0562267" lon="12.09296"><ele>185.0</ele><time>2026-04-26T09:25:17.024Z</time></trkpt><trkpt lat="44.0561783" lon="12.0930883"><ele>185.0</ele><time>2026-04-26T09:25:18.024Z</time></trkpt><trkpt lat="44.0561433" lon="12.0932083"><ele>185.0</ele><time>2026-04-26T09:25:19.024Z</time></trkpt><trkpt lat="44.0561" lon="12.09332"><ele>185.0</ele><time>2026-04-26T09:25:20.025Z</time></trkpt><trkpt lat="44.0560583" lon="12.093425"><ele>185.0</ele><time>2026-04-26T09:25:21.026Z</time></trkpt><trkpt lat="44.056015" lon="12.0935183"><ele>185.0</ele><time>2026-04-26T09:25:22.023Z</time></trkpt><trkpt lat="44.05598" lon="12.093605"><ele>185.0</ele><time>2026-04-26T09:25:23.023Z</time></trkpt><trkpt lat="44.0559767" lon="12.09375"><ele>186.83333333333331</ele><time>2026-04-26T09:25:25.023Z</time></trkpt><trkpt lat="44.0560733" lon="12.0938283"><ele>188.66666666666666</ele><time>2026-04-26T09:25:27.023Z</time></trkpt><trkpt lat="44.056135" lon="12.0938733"><ele>190.5</ele><time>2026-04-26T09:25:28.022Z</time></trkpt><trkpt lat="44.05621" lon="12.0939133"><ele>192.33333333333331</ele><time>2026-04-26T09:25:29.024Z</time></trkpt><trkpt lat="44.0562917" lon="12.09395"><ele>194.16666666666666</ele><time>2026-04-26T09:25:30.024Z</time></trkpt><trkpt lat="44.056375" lon="12.09398"><ele>196.0</ele><time>2026-04-26T09:25:31.024Z</time></trkpt><trkpt lat="44.0564617" lon="12.09399"><ele>196.0</ele><time>2026-04-26T09:25:32.024Z</time></trkpt><trkpt lat="44.0565533" lon="12.0939833"><ele>196.0</ele><time>2026-04-26T09:25:33.025Z</time></trkpt><trkpt lat="44.0566517" lon="12.0939567"><ele>196.0</ele><time>2026-04-26T09:25:34.025Z</time></trkpt><trkpt lat="44.0567533" lon="12.0939267"><ele>196.0</ele><time>2026-04-26T09:25:35.024Z</time></trkpt><trkpt lat="44.056855" lon="12.093895"><ele>196.0</ele><time>2026-04-26T09:25:36.023Z</time></trkpt><trkpt lat="44.0569567" lon="12.0938567"><ele>198.8</ele><time>2026-04-26T09:25:37.025Z</time></trkpt><trkpt lat="44.05705" lon="12.0938133"><ele>201.60000000000002</ele><time>2026-04-26T09:25:38.022Z</time></trkpt><trkpt lat="44.0571417" lon="12.093775"><ele>204.4</ele><time>2026-04-26T09:25:39.025Z</time></trkpt><trkpt lat="44.0572283" lon="12.0937433"><ele>207.2</ele><time>2026-04-26T09:25:40.023Z</time></trkpt><trkpt lat="44.0573183" lon="12.0937083"><ele>210.0</ele><time>2026-04-26T09:25:41.023Z</time></trkpt><trkpt lat="44.0574067" lon="12.0936733"><ele>212.66666666666666</ele><time>2026-04-26T09:25:42.022Z</time></trkpt><trkpt lat="44.0574967" lon="12.093635"><ele>215.33333333333331</ele><time>2026-04-26T09:25:43.022Z</time></trkpt><trkpt lat="44.05758" lon="12.093595"><ele>218.0</ele><time>2026-04-26T09:25:44.023Z</time></trkpt><trkpt lat="44.05766" lon="12.0935533"><ele>220.66666666666666</ele><time>2026-04-26T09:25:45.022Z</time></trkpt><trkpt lat="44.0577367" lon="12.0935117"><ele>223.33333333333331</ele><time>2026-04-26T09:25:46.023Z</time></trkpt><trkpt lat="44.0578167" lon="12.0934783"><ele>226.0</ele><time>2026-04-26T09:25:47.023Z</time></trkpt><trkpt lat="44.0578883" lon="12.0934583"><ele>226.0</ele><time>2026-04-26T09:25:48.022Z</time></trkpt><trkpt lat="44.0579517" lon="12.0934633"><ele>226.0</ele><time>2026-04-26T09:25:49.024Z</time></trkpt><trkpt lat="44.0580167" lon="12.0934917"><ele>226.0</ele><time>2026-04-26T09:25:50.022Z</time></trkpt><trkpt lat="44.05808" lon="12.0935333"><ele>226.0</ele><time>2026-04-26T09:25:51.024Z</time></trkpt><trkpt lat="44.058145" lon="12.0935833"><ele>226.0</ele><time>2026-04-26T09:25:52.023Z</time></trkpt><trkpt lat="44.0582033" lon="12.0936467"><ele>226.0</ele><time>2026-04-26T09:25:53.025Z</time></trkpt><trkpt lat="44.0582583" lon="12.0937117"><ele>226.0</ele><time>2026-04-26T09:25:54.024Z</time></trkpt><trkpt lat="44.0583067" lon="12.0937767"><ele>226.42857142857144</ele><time>2026-04-26T09:25:55.024Z</time></trkpt><trkpt lat="44.0583467" lon="12.09385"><ele>226.85714285714283</ele><time>2026-04-26T09:25:56.022Z</time></trkpt><trkpt lat="44.05838" lon="12.09393"><ele>227.28571428571428</ele><time>2026-04-26T09:25:57.024Z</time></trkpt><trkpt lat="44.0584033" lon="12.0940233"><ele>227.71428571428572</ele><time>2026-04-26T09:25:58.023Z</time></trkpt><trkpt lat="44.0584267" lon="12.0941183"><ele>228.14285714285717</ele><time>2026-04-26T09:25:59.023Z</time></trkpt><trkpt lat="44.0584633" lon="12.09422"><ele>228.57142857142856</ele><time>2026-04-26T09:26:00.024Z</time></trkpt><trkpt lat="44.0585033" lon="12.0943233"><ele>229.0</ele><time>2026-04-26T09:26:01.025Z</time></trkpt><trkpt lat="44.05854" lon="12.094435"><ele>232.16666666666666</ele><time>2026-04-26T09:26:02.025Z</time></trkpt><trkpt lat="44.0585667" lon="12.09454"><ele>235.33333333333331</ele><time>2026-04-26T09:26:03.026Z</time></trkpt><trkpt lat="44.0585817" lon="12.0946383"><ele>238.5</ele><time>2026-04-26T09:26:04.024Z</time></trkpt><trkpt lat="44.0585817" lon="12.094735"><ele>241.66666666666669</ele><time>2026-04-26T09:26:05.024Z</time></trkpt><trkpt lat="44.0585667" lon="12.0948233"><ele>244.83333333333334</ele><time>2026-04-26T09:26:06.024Z</time></trkpt><trkpt lat="44.0585067" lon="12.09497"><ele>248.0</ele><time>2026-04-26T09:26:08.024Z</time></trkpt><trkpt lat="44.05843" lon="12.0951083"><ele>249.66666666666669</ele><time>2026-04-26T09:26:10.025Z</time></trkpt><trkpt lat="44.0583817" lon="12.09518"><ele>251.33333333333334</ele><time>2026-04-26T09:26:11.024Z</time></trkpt><trkpt lat="44.05834" lon="12.0952967"><ele>253.0</ele><time>2026-04-26T09:26:12.025Z</time></trkpt><trkpt lat="44.05831" lon="12.0954033"><ele>254.66666666666669</ele><time>2026-04-26T09:26:13.024Z</time></trkpt><trkpt lat="44.0583017" lon="12.0955017"><ele>256.3333333333333</ele><time>2026-04-26T09:26:14.021Z</time></trkpt><trkpt lat="44.0583083" lon="12.0956233"><ele>258.0</ele><time>2026-04-26T09:26:15.022Z</time></trkpt><trkpt lat="44.058305" lon="12.0957667"><ele>259.4</ele><time>2026-04-26T09:26:16.022Z</time></trkpt><trkpt lat="44.0583083" lon="12.095915"><ele>260.8</ele><time>2026-04-26T09:26:17.022Z</time></trkpt><trkpt lat="44.05835" lon="12.0960483"><ele>262.2</ele><time>2026-04-26T09:26:18.025Z</time></trkpt><trkpt lat="44.0583667" lon="12.0961983"><ele>263.6</ele><time>2026-04-26T09:26:19.024Z</time></trkpt><trkpt lat="44.058375" lon="12.0963367"><ele>265.0</ele><time>2026-04-26T09:26:20.023Z</time></trkpt><trkpt lat="44.0583633" lon="12.096455"><ele>265.0</ele><time>2026-04-26T09:26:21.024Z</time></trkpt><trkpt lat="44.0583783" lon="12.0965533"><ele>265.0</ele><time>2026-04-26T09:26:22.023Z</time></trkpt><trkpt lat="44.0583967" lon="12.0966483"><ele>265.0</ele><time>2026-04-26T09:26:23.023Z</time></trkpt><trkpt lat="44.058415" lon="12.096735"><ele>265.0</ele><time>2026-04-26T09:26:24.023Z</time></trkpt><trkpt lat="44.05847" lon="12.0968567"><ele>265.0</ele><time>2026-04-26T09:26:26.022Z</time></trkpt><trkpt lat="44.05856" lon="12.0969367"><ele>265.0</ele><time>2026-04-26T09:26:28.023Z</time></trkpt><trkpt lat="44.0586617" lon="12.0970217"><ele>267.5</ele><time>2026-04-26T09:26:30.022Z</time></trkpt><trkpt lat="44.0587133" lon="12.0970883"><ele>270.0</ele><time>2026-04-26T09:26:31.022Z</time></trkpt><trkpt lat="44.0587683" lon="12.0971533"><ele>272.5</ele><time>2026-04-26T09:26:32.023Z</time></trkpt><trkpt lat="44.05881" lon="12.097245"><ele>275.0</ele><time>2026-04-26T09:26:33.025Z</time></trkpt><trkpt lat="44.0588817" lon="12.0973167"><ele>277.5</ele><time>2026-04-26T09:26:34.025Z</time></trkpt><trkpt lat="44.0589633" lon="12.097375"><ele>280.0</ele><time>2026-04-26T09:26:35.022Z</time></trkpt><trkpt lat="44.0590483" lon="12.0974333"><ele>284.0</ele><time>2026-04-26T09:26:36.022Z</time></trkpt><trkpt lat="44.0591233" lon="12.0974883"><ele>288.0</ele><time>2026-04-26T09:26:37.024Z</time></trkpt><trkpt lat="44.0592133" lon="12.0975417"><ele>292.0</ele><time>2026-04-26T09:26:38.021Z</time></trkpt><trkpt lat="44.0593133" lon="12.0975783"><ele>296.0</ele><time>2026-04-26T09:26:39.023Z</time></trkpt><trkpt lat="44.0594017" lon="12.0976317"><ele>300.0</ele><time>2026-04-26T09:26:40.023Z</time></trkpt><trkpt lat="44.0594817" lon="12.0976833"><ele>300.0</ele><time>2026-04-26T09:26:41.1Z</time></trkpt><trkpt lat="44.0595567" lon="12.0977317"><ele>300.0</ele><time>2026-04-26T09:26:42.024Z</time></trkpt><trkpt lat="44.059655" lon="12.0978017"><ele>300.0</ele><time>2026-04-26T09:26:44.022Z</time></trkpt><trkpt lat="44.0596783" lon="12.0978983"><ele>300.0</ele><time>2026-04-26T09:26:47.024Z</time></trkpt><trkpt lat="44.059615" lon="12.0979217"><ele>300.0</ele><time>2026-04-26T09:26:50.024Z</time></trkpt><trkpt lat="44.059505" lon="12.0978833"><ele>300.0</ele><time>2026-04-26T09:26:52.022Z</time></trkpt><trkpt lat="44.0594117" lon="12.0978783"><ele>300.0</ele><time>2026-04-26T09:26:53.025Z</time></trkpt><trkpt lat="44.05931" lon="12.0979017"><ele>300.0</ele><time>2026-04-26T09:26:54.024Z</time></trkpt><trkpt lat="44.0592383" lon="12.097995"><ele>300.0</ele><time>2026-04-26T09:26:55.023Z</time></trkpt><trkpt lat="44.059205" lon="12.09812"><ele>300.0</ele><time>2026-04-26T09:26:56.022Z</time></trkpt><trkpt lat="44.0591867" lon="12.0982733"><ele>300.0</ele><time>2026-04-26T09:26:57.026Z</time></trkpt><trkpt lat="44.0591683" lon="12.0984383"><ele>299.5</ele><time>2026-04-26T09:26:58.023Z</time></trkpt><trkpt lat="44.0591433" lon="12.0986133"><ele>299.0</ele><time>2026-04-26T09:26:59.022Z</time></trkpt><trkpt lat="44.0591167" lon="12.098785"><ele>298.5</ele><time>2026-04-26T09:27:00.021Z</time></trkpt><trkpt lat="44.0591067" lon="12.098955"><ele>298.0</ele><time>2026-04-26T09:27:01.024Z</time></trkpt><trkpt lat="44.05911" lon="12.0991333"><ele>304.25</ele><time>2026-04-26T09:27:02.025Z</time></trkpt><trkpt lat="44.0591267" lon="12.09932"><ele>310.5</ele><time>2026-04-26T09:27:03.023Z</time></trkpt><trkpt lat="44.0591533" lon="12.09952"><ele>316.75</ele><time>2026-04-26T09:27:04.022Z</time></trkpt><trkpt lat="44.05918" lon="12.0997367"><ele>323.0</ele><time>2026-04-26T09:27:05.024Z</time></trkpt><trkpt lat="44.0592" lon="12.0999583"><ele>325.0</ele><time>2026-04-26T09:27:06.022Z</time></trkpt><trkpt lat="44.05921" lon="12.100185"><ele>327.0</ele><time>2026-04-26T09:27:07.026Z</time></trkpt><trkpt lat="44.0592133" lon="12.1004167"><ele>329.0</ele><time>2026-04-26T09:27:08.024Z</time></trkpt><trkpt lat="44.059215" lon="12.100655"><ele>332.6666666666667</ele><time>2026-04-26T09:27:09.024Z</time></trkpt><trkpt lat="44.05921" lon="12.1009"><ele>336.3333333333333</ele><time>2026-04-26T09:27:10.024Z</time></trkpt><trkpt lat="44.0592017" lon="12.1011367"><ele>340.0</ele><time>2026-04-26T09:27:11.024Z</time></trkpt><trkpt lat="44.0592033" lon="12.1013517"><ele>340.0</ele><time>2026-04-26T09:27:12.022Z</time></trkpt><trkpt lat="44.0592133" lon="12.1015567"><ele>340.0</ele><time>2026-04-26T09:27:13.024Z</time></trkpt><trkpt lat="44.05924" lon="12.10175"><ele>340.0</ele><time>2026-04-26T09:27:14.021Z</time></trkpt><trkpt lat="44.059265" lon="12.10195"><ele>340.0</ele><time>2026-04-26T09:27:15.024Z</time></trkpt><trkpt lat="44.059295" lon="12.1021533"><ele>342.0</ele><time>2026-04-26T09:27:16.023Z</time></trkpt><trkpt lat="44.059315" lon="12.1023633"><ele>344.0</ele><time>2026-04-26T09:27:17.021Z</time></trkpt><trkpt lat="44.05933" lon="12.10258"><ele>346.0</ele><time>2026-04-26T09:27:18.022Z</time></trkpt><trkpt lat="44.0593417" lon="12.1027967"><ele>346.75</ele><time>2026-04-26T09:27:19.024Z</time></trkpt><trkpt lat="44.0593417" lon="12.103"><ele>347.5</ele><time>2026-04-26T09:27:20.022Z</time></trkpt><trkpt lat="44.059325" lon="12.1031933"><ele>348.25</ele><time>2026-04-26T09:27:21.024Z</time></trkpt><trkpt lat="44.0592883" lon="12.1033883"><ele>349.0</ele><time>2026-04-26T09:27:22.024Z</time></trkpt><trkpt lat="44.05924" lon="12.10359"><ele>348.66666666666663</ele><time>2026-04-26T09:27:23.025Z</time></trkpt><trkpt lat="44.059185" lon="12.1037933"><ele>348.3333333333333</ele><time>2026-04-26T09:27:24.023Z</time></trkpt><trkpt lat="44.0591283" lon="12.10399"><ele>348.0</ele><time>2026-04-26T09:27:25.023Z</time></trkpt><trkpt lat="44.0590667" lon="12.1041833"><ele>348.0</ele><time>2026-04-26T09:27:26.024Z</time></trkpt><trkpt lat="44.0589867" lon="12.1043583"><ele>348.0</ele><time>2026-04-26T09:27:27.023Z</time></trkpt><trkpt lat="44.0588983" lon="12.104515"><ele>348.0</ele><time>2026-04-26T09:27:28.023Z</time></trkpt><trkpt lat="44.0588167" lon="12.1046583"><ele>348.0</ele><time>2026-04-26T09:27:29.024Z</time></trkpt><trkpt lat="44.0587517" lon="12.104805"><ele>349.59999999999997</ele><time>2026-04-26T09:27:30.022Z</time></trkpt><trkpt lat="44.0586983" lon="12.10495"><ele>351.2</ele><time>2026-04-26T09:27:31.027Z</time></trkpt><trkpt lat="44.0586683" lon="12.10509"><ele>352.8</ele><time>2026-04-26T09:27:32.024Z</time></trkpt><trkpt lat="44.0586633" lon="12.10523"><ele>354.4</ele><time>2026-04-26T09:27:33.024Z</time></trkpt><trkpt lat="44.058685" lon="12.1053667"><ele>356.0</ele><time>2026-04-26T09:27:34.024Z</time></trkpt><trkpt lat="44.0587367" lon="12.1055083"><ele>356.0</ele><time>2026-04-26T09:27:35.023Z</time></trkpt><trkpt lat="44.05881" lon="12.1056483"><ele>356.0</ele><time>2026-04-26T09:27:36.023Z</time></trkpt><trkpt lat="44.0588967" lon="12.105785"><ele>356.0</ele><time>2026-04-26T09:27:37.023Z</time></trkpt><trkpt lat="44.058975" lon="12.105925"><ele>356.0</ele><time>2026-04-26T09:27:38.022Z</time></trkpt><trkpt lat="44.0590333" lon="12.1060783"><ele>356.5</ele><time>2026-04-26T09:27:39.025Z</time></trkpt><trkpt lat="44.0590617" lon="12.10624"><ele>357.0</ele><time>2026-04-26T09:27:40.021Z</time></trkpt><trkpt lat="44.059085" lon="12.1063917"><ele>357.5</ele><time>2026-04-26T09:27:41.022Z</time></trkpt><trkpt lat="44.0591233" lon="12.1065383"><ele>358.0</ele><time>2026-04-26T09:27:42.023Z</time></trkpt><trkpt lat="44.059185" lon="12.10669"><ele>361.5</ele><time>2026-04-26T09:27:43.025Z</time></trkpt><trkpt lat="44.05926" lon="12.10685"><ele>365.0</ele><time>2026-04-26T09:27:44.03Z</time></trkpt><trkpt lat="44.059345" lon="12.1070067"><ele>368.5</ele><time>2026-04-26T09:27:45.026Z</time></trkpt><trkpt lat="44.0594467" lon="12.10714"><ele>372.0</ele><time>2026-04-26T09:27:46.024Z</time></trkpt><trkpt lat="44.0595433" lon="12.107245"><ele>372.0</ele><time>2026-04-26T09:27:47.024Z</time></trkpt><trkpt lat="44.0596233" lon="12.10734"><ele>372.0</ele><time>2026-04-26T09:27:48.022Z</time></trkpt><trkpt lat="44.0596833" lon="12.1074533"><ele>372.0</ele><time>2026-04-26T09:27:49.025Z</time></trkpt><trkpt lat="44.0597167" lon="12.1075917"><ele>372.0</ele><time>2026-04-26T09:27:50.025Z</time></trkpt><trkpt lat="44.0597267" lon="12.1077383"><ele>372.0</ele><time>2026-04-26T09:27:51.024Z</time></trkpt><trkpt lat="44.0597217" lon="12.1079"><ele>375.75</ele><time>2026-04-26T09:27:52.025Z</time></trkpt><trkpt lat="44.0597183" lon="12.1080717"><ele>379.5</ele><time>2026-04-26T09:27:53.023Z</time></trkpt><trkpt lat="44.0597217" lon="12.1082567"><ele>383.25</ele><time>2026-04-26T09:27:54.028Z</time></trkpt><trkpt lat="44.0597317" lon="12.1084433"><ele>387.0</ele><time>2026-04-26T09:27:55.024Z</time></trkpt><trkpt lat="44.0597483" lon="12.108615"><ele>388.20000000000005</ele><time>2026-04-26T09:27:56.027Z</time></trkpt><trkpt lat="44.0597767" lon="12.1087667"><ele>389.4</ele><time>2026-04-26T09:27:57.024Z</time></trkpt><trkpt lat="44.05983" lon="12.1088917"><ele>390.6</ele><time>2026-04-26T09:27:58.026Z</time></trkpt><trkpt lat="44.0599083" lon="12.1090033"><ele>391.79999999999995</ele><time>2026-04-26T09:27:59.023Z</time></trkpt><trkpt lat="44.0599983" lon="12.10911"><ele>393.0</ele><time>2026-04-26T09:28:00.026Z</time></trkpt><trkpt lat="44.0600733" lon="12.1092317"><ele>393.59999999999997</ele><time>2026-04-26T09:28:01.023Z</time></trkpt><trkpt lat="44.060125" lon="12.109365"><ele>394.2</ele><time>2026-04-26T09:28:02.024Z</time></trkpt><trkpt lat="44.0601467" lon="12.10951"><ele>394.8</ele><time>2026-04-26T09:28:03.026Z</time></trkpt><trkpt lat="44.060135" lon="12.10965"><ele>395.4</ele><time>2026-04-26T09:28:04.024Z</time></trkpt><trkpt lat="44.0600833" lon="12.10978"><ele>396.0</ele><time>2026-04-26T09:28:05.025Z</time></trkpt><trkpt lat="44.0600017" lon="12.1099067"><ele>398.66666666666663</ele><time>2026-04-26T09:28:06.029Z</time></trkpt><trkpt lat="44.0598917" lon="12.1100317"><ele>401.3333333333333</ele><time>2026-04-26T09:28:07.024Z</time></trkpt><trkpt lat="44.05976" lon="12.110155"><ele>404.0</ele><time>2026-04-26T09:28:08.025Z</time></trkpt><trkpt lat="44.0596217" lon="12.110275"><ele>404.0</ele><time>2026-04-26T09:28:09.023Z</time></trkpt><trkpt lat="44.0594783" lon="12.110405"><ele>404.0</ele><time>2026-04-26T09:28:10.024Z</time></trkpt><trkpt lat="44.059345" lon="12.1105367"><ele>404.0</ele><time>2026-04-26T09:28:11.025Z</time></trkpt><trkpt lat="44.05923" lon="12.1106617"><ele>402.0</ele><time>2026-04-26T09:28:12.024Z</time></trkpt><trkpt lat="44.0591333" lon="12.1107817"><ele>400.0</ele><time>2026-04-26T09:28:13.025Z</time></trkpt><trkpt lat="44.0590533" lon="12.1108967"><ele>398.0</ele><time>2026-04-26T09:28:14.022Z</time></trkpt><trkpt lat="44.0589967" lon="12.111005"><ele>396.0</ele><time>2026-04-26T09:28:15.024Z</time></trkpt><trkpt lat="44.0589617" lon="12.111115"><ele>394.0</ele><time>2026-04-26T09:28:16.023Z</time></trkpt><trkpt lat="44.0589517" lon="12.1112233"><ele>394.0</ele><time>2026-04-26T09:28:17.023Z</time></trkpt><trkpt lat="44.058965" lon="12.11133"><ele>394.0</ele><time>2026-04-26T09:28:18.024Z</time></trkpt><trkpt lat="44.05901" lon="12.1114333"><ele>394.0</ele><time>2026-04-26T09:28:19.023Z</time></trkpt><trkpt lat="44.0590967" lon="12.1115183"><ele>394.0</ele><time>2026-04-26T09:28:20.022Z</time></trkpt><trkpt lat="44.0591983" lon="12.1115917"><ele>394.0</ele><time>2026-04-26T09:28:21.023Z</time></trkpt><trkpt lat="44.0593017" lon="12.111665"><ele>401.0</ele><time>2026-04-26T09:28:22.022Z</time></trkpt><trkpt lat="44.05942" lon="12.11175"><ele>408.0</ele><time>2026-04-26T09:28:23.023Z</time></trkpt><trkpt lat="44.0595467" lon="12.11186"><ele>415.0</ele><time>2026-04-26T09:28:24.023Z</time></trkpt><trkpt lat="44.05967" lon="12.1119833"><ele>422.0</ele><time>2026-04-26T09:28:25.026Z</time></trkpt><trkpt lat="44.0597933" lon="12.1121083"><ele>422.0</ele><time>2026-04-26T09:28:26.023Z</time></trkpt><trkpt lat="44.0599067" lon="12.1122417"><ele>422.0</ele><time>2026-04-26T09:28:27.026Z</time></trkpt><trkpt lat="44.0600083" lon="12.112375"><ele>422.0</ele><time>2026-04-26T09:28:28.024Z</time></trkpt><trkpt lat="44.060085" lon="12.1125083"><ele>422.0</ele><time>2026-04-26T09:28:29.022Z</time></trkpt><trkpt lat="44.060135" lon="12.1126383"><ele>424.20000000000005</ele><time>2026-04-26T09:28:30.022Z</time></trkpt><trkpt lat="44.0601483" lon="12.1127717"><ele>426.4</ele><time>2026-04-26T09:28:31.023Z</time></trkpt><trkpt lat="44.060125" lon="12.11289"><ele>428.59999999999997</ele><time>2026-04-26T09:28:32.024Z</time></trkpt><trkpt lat="44.06008" lon="12.1130183"><ele>430.79999999999995</ele><time>2026-04-26T09:28:33.022Z</time></trkpt><trkpt lat="44.0600433" lon="12.1131533"><ele>433.0</ele><time>2026-04-26T09:28:34.023Z</time></trkpt><trkpt lat="44.0600317" lon="12.1132983"><ele>434.5</ele><time>2026-04-26T09:28:35.022Z</time></trkpt><trkpt lat="44.060055" lon="12.11344"><ele>436.0</ele><time>2026-04-26T09:28:36.022Z</time></trkpt><trkpt lat="44.060105" lon="12.113575"><ele>437.5</ele><time>2026-04-26T09:28:37.023Z</time></trkpt><trkpt lat="44.0601817" lon="12.1136967"><ele>439.0</ele><time>2026-04-26T09:28:38.027Z</time></trkpt><trkpt lat="44.0602767" lon="12.1138"><ele>439.0</ele><time>2026-04-26T09:28:39.027Z</time></trkpt><trkpt lat="44.06037" lon="12.1139033"><ele>439.0</ele><time>2026-04-26T09:28:40.025Z</time></trkpt><trkpt lat="44.0604617" lon="12.11401"><ele>439.0</ele><time>2026-04-26T09:28:41.025Z</time></trkpt><trkpt lat="44.060545" lon="12.1141183"><ele>439.0</ele><time>2026-04-26T09:28:42.02Z</time></trkpt><trkpt lat="44.0606117" lon="12.1142233"><ele>440.4</ele><time>2026-04-26T09:28:43.023Z</time></trkpt><trkpt lat="44.06065" lon="12.1143133"><ele>441.79999999999995</ele><time>2026-04-26T09:28:44.024Z</time></trkpt><trkpt lat="44.0606783" lon="12.1144533"><ele>443.20000000000005</ele><time>2026-04-26T09:28:46.021Z</time></trkpt><trkpt lat="44.0605517" lon="12.1144833"><ele>444.6</ele><time>2026-04-26T09:28:48.021Z</time></trkpt><trkpt lat="44.0604667" lon="12.1144983"><ele>446.0</ele><time>2026-04-26T09:28:49.025Z</time></trkpt><trkpt lat="44.0603717" lon="12.1145183"><ele>446.0</ele><time>2026-04-26T09:28:50.024Z</time></trkpt><trkpt lat="44.06027" lon="12.11455"><ele>446.0</ele><time>2026-04-26T09:28:51.024Z</time></trkpt><trkpt lat="44.0601667" lon="12.1145817"><ele>446.0</ele><time>2026-04-26T09:28:52.026Z</time></trkpt><trkpt lat="44.06005" lon="12.1146133"><ele>446.0</ele><time>2026-04-26T09:28:53.024Z</time></trkpt><trkpt lat="44.0599267" lon="12.11464"><ele>444.75</ele><time>2026-04-26T09:28:54.022Z</time></trkpt><trkpt lat="44.0597983" lon="12.11467"><ele>443.5</ele><time>2026-04-26T09:28:55.024Z</time></trkpt><trkpt lat="44.0596783" lon="12.1147083"><ele>442.25</ele><time>2026-04-26T09:28:56.023Z</time></trkpt><trkpt lat="44.05957" lon="12.11476"><ele>441.0</ele><time>2026-04-26T09:28:57.025Z</time></trkpt><trkpt lat="44.05947" lon="12.1148167"><ele>441.0</ele><time>2026-04-26T09:28:58.025Z</time></trkpt><trkpt lat="44.059375" lon="12.1148733"><ele>441.0</ele><time>2026-04-26T09:28:59.023Z</time></trkpt><trkpt lat="44.05929" lon="12.1149233"><ele>441.0</ele><time>2026-04-26T09:29:00.024Z</time></trkpt><trkpt lat="44.0592083" lon="12.1149633"><ele>441.0</ele><time>2026-04-26T09:29:01.021Z</time></trkpt><trkpt lat="44.0591233" lon="12.1149967"><ele>441.0</ele><time>2026-04-26T09:29:02.022Z</time></trkpt><trkpt lat="44.059035" lon="12.115035"><ele>441.25</ele><time>2026-04-26T09:29:03.027Z</time></trkpt><trkpt lat="44.0589367" lon="12.115085"><ele>441.5</ele><time>2026-04-26T09:29:04.023Z</time></trkpt><trkpt lat="44.05883" lon="12.1151517"><ele>441.75</ele><time>2026-04-26T09:29:05.025Z</time></trkpt><trkpt lat="44.0587183" lon="12.1152283"><ele>442.0</ele><time>2026-04-26T09:29:06.025Z</time></trkpt><trkpt lat="44.0586" lon="12.115315"><ele>442.0</ele><time>2026-04-26T09:29:07.025Z</time></trkpt><trkpt lat="44.05848" lon="12.1154017"><ele>442.0</ele><time>2026-04-26T09:29:08.024Z</time></trkpt><trkpt lat="44.0583617" lon="12.1154817"><ele>442.0</ele><time>2026-04-26T09:29:09.025Z</time></trkpt><trkpt lat="44.0582483" lon="12.1155567"><ele>442.0</ele><time>2026-04-26T09:29:10.023Z</time></trkpt><trkpt lat="44.0581417" lon="12.115635"><ele>440.5</ele><time>2026-04-26T09:29:11.024Z</time></trkpt><trkpt lat="44.0580333" lon="12.1157317"><ele>439.0</ele><time>2026-04-26T09:29:12.024Z</time></trkpt><trkpt lat="44.0579283" lon="12.1158433"><ele>437.5</ele><time>2026-04-26T09:29:13.025Z</time></trkpt><trkpt lat="44.0578167" lon="12.115955"><ele>436.0</ele><time>2026-04-26T09:29:14.024Z</time></trkpt><trkpt lat="44.0576967" lon="12.1160617"><ele>436.0</ele><time>2026-04-26T09:29:15.021Z</time></trkpt><trkpt lat="44.05758" lon="12.1161533"><ele>436.0</ele><time>2026-04-26T09:29:16.021Z</time></trkpt><trkpt lat="44.0574717" lon="12.116235"><ele>436.0</ele><time>2026-04-26T09:29:17.023Z</time></trkpt><trkpt lat="44.0573783" lon="12.1163117"><ele>436.0</ele><time>2026-04-26T09:29:18.025Z</time></trkpt><trkpt lat="44.0573" lon="12.1163933"><ele>433.6</ele><time>2026-04-26T09:29:19.023Z</time></trkpt><trkpt lat="44.0572417" lon="12.1164917"><ele>431.20000000000005</ele><time>2026-04-26T09:29:20.024Z</time></trkpt><trkpt lat="44.057205" lon="12.1166033"><ele>428.79999999999995</ele><time>2026-04-26T09:29:21.023Z</time></trkpt><trkpt lat="44.0571883" lon="12.1167233"><ele>426.4</ele><time>2026-04-26T09:29:22.023Z</time></trkpt><trkpt lat="44.057185" lon="12.1168583"><ele>424.0</ele><time>2026-04-26T09:29:23.023Z</time></trkpt><trkpt lat="44.0571883" lon="12.1170067"><ele>424.0</ele><time>2026-04-26T09:29:24.024Z</time></trkpt><trkpt lat="44.057185" lon="12.117165"><ele>424.0</ele><time>2026-04-26T09:29:25.024Z</time></trkpt><trkpt lat="44.0571717" lon="12.11733"><ele>424.0</ele><time>2026-04-26T09:29:26.022Z</time></trkpt><trkpt lat="44.057135" lon="12.1174933"><ele>424.0</ele><time>2026-04-26T09:29:27.021Z</time></trkpt><trkpt lat="44.0570733" lon="12.117645"><ele>423.75</ele><time>2026-04-26T09:29:28.02Z</time></trkpt><trkpt lat="44.0569917" lon="12.11778"><ele>423.5</ele><time>2026-04-26T09:29:29.022Z</time></trkpt><trkpt lat="44.0569" lon="12.1179083"><ele>423.25</ele><time>2026-04-26T09:29:30.022Z</time></trkpt><trkpt lat="44.0568017" lon="12.1180367"><ele>423.0</ele><time>2026-04-26T09:29:31.023Z</time></trkpt><trkpt lat="44.0566967" lon="12.1181633"><ele>422.5</ele><time>2026-04-26T09:29:32.023Z</time></trkpt><trkpt lat="44.0565933" lon="12.1182867"><ele>422.0</ele><time>2026-04-26T09:29:33.021Z</time></trkpt><trkpt lat="44.05649" lon="12.1184167"><ele>421.5</ele><time>2026-04-26T09:29:34.02Z</time></trkpt><trkpt lat="44.05639" lon="12.1185467"><ele>421.0</ele><time>2026-04-26T09:29:35.022Z</time></trkpt><trkpt lat="44.0562867" lon="12.1186717"><ele>421.0</ele><time>2026-04-26T09:29:36.023Z</time></trkpt><trkpt lat="44.0561667" lon="12.1187867"><ele>421.0</ele><time>2026-04-26T09:29:37.023Z</time></trkpt><trkpt lat="44.05603" lon="12.11888"><ele>421.0</ele><time>2026-04-26T09:29:38.023Z</time></trkpt><trkpt lat="44.055875" lon="12.1189383"><ele>419.6666666666667</ele><time>2026-04-26T09:29:39.023Z</time></trkpt><trkpt lat="44.0557083" lon="12.1189717"><ele>418.33333333333337</ele><time>2026-04-26T09:29:40.02Z</time></trkpt><trkpt lat="44.0555433" lon="12.1190133"><ele>417.0</ele><time>2026-04-26T09:29:41.021Z</time></trkpt><trkpt lat="44.0553783" lon="12.1190767"><ele>420.33333333333337</ele><time>2026-04-26T09:29:42.021Z</time></trkpt><trkpt lat="44.0552167" lon="12.1191567"><ele>423.6666666666667</ele><time>2026-04-26T09:29:43.021Z</time></trkpt><trkpt lat="44.0550617" lon="12.1192317"><ele>427.0</ele><time>2026-04-26T09:29:44.023Z</time></trkpt><trkpt lat="44.0549133" lon="12.1192833"><ele>427.0</ele><time>2026-04-26T09:29:45.023Z</time></trkpt><trkpt lat="44.05478" lon="12.119315"><ele>427.00000000000006</ele><time>2026-04-26T09:29:46.024Z</time></trkpt><trkpt lat="44.0546633" lon="12.1193367"><ele>427.00000000000006</ele><time>2026-04-26T09:29:47.022Z</time></trkpt><trkpt lat="44.0545633" lon="12.1193633"><ele>427.0</ele><time>2026-04-26T09:29:48.024Z</time></trkpt><trkpt lat="44.0544817" lon="12.119415"><ele>427.0</ele><time>2026-04-26T09:29:49.024Z</time></trkpt><trkpt lat="44.05441" lon="12.1195117"><ele>427.0</ele><time>2026-04-26T09:29:50.023Z</time></trkpt><trkpt lat="44.0543467" lon="12.1196467"><ele>427.0</ele><time>2026-04-26T09:29:51.023Z</time></trkpt><trkpt lat="44.054285" lon="12.1198067"><ele>427.0</ele><time>2026-04-26T09:29:52.022Z</time></trkpt><trkpt lat="44.0542183" lon="12.119985"><ele>427.0</ele><time>2026-04-26T09:29:53.023Z</time></trkpt><trkpt lat="44.0541383" lon="12.1201683"><ele>427.33333333333337</ele><time>2026-04-26T09:29:54.023Z</time></trkpt><trkpt lat="44.0540483" lon="12.1203583"><ele>427.66666666666663</ele><time>2026-04-26T09:29:55.021Z</time></trkpt><trkpt lat="44.053955" lon="12.1205583"><ele>428.0</ele><time>2026-04-26T09:29:56.021Z</time></trkpt><trkpt lat="44.0538583" lon="12.12076"><ele>428.0</ele><time>2026-04-26T09:29:57.023Z</time></trkpt><trkpt lat="44.0537667" lon="12.1209583"><ele>428.0</ele><time>2026-04-26T09:29:58.023Z</time></trkpt><trkpt lat="44.0536883" lon="12.1211483"><ele>428.0</ele><time>2026-04-26T09:29:59.024Z</time></trkpt><trkpt lat="44.0536167" lon="12.12133"><ele>428.0</ele><time>2026-04-26T09:30:00.023Z</time></trkpt><trkpt lat="44.0535317" lon="12.121505"><ele>428.0</ele><time>2026-04-26T09:30:01.022Z</time></trkpt><trkpt lat="44.0534267" lon="12.1216567"><ele>428.0</ele><time>2026-04-26T09:30:02.025Z</time></trkpt><trkpt lat="44.0533067" lon="12.1217917"><ele>428.66666666666663</ele><time>2026-04-26T09:30:03.025Z</time></trkpt><trkpt lat="44.0531917" lon="12.1219367"><ele>429.33333333333337</ele><time>2026-04-26T09:30:04.023Z</time></trkpt><trkpt lat="44.0530867" lon="12.12211"><ele>430.0</ele><time>2026-04-26T09:30:05.024Z</time></trkpt><trkpt lat="44.0529917" lon="12.12231"><ele>430.33333333333337</ele><time>2026-04-26T09:30:06.024Z</time></trkpt><trkpt lat="44.0529017" lon="12.1225267"><ele>430.66666666666663</ele><time>2026-04-26T09:30:07.024Z</time></trkpt><trkpt lat="44.0528133" lon="12.122745"><ele>431.0</ele><time>2026-04-26T09:30:08.024Z</time></trkpt><trkpt lat="44.05273" lon="12.1229533"><ele>431.0</ele><time>2026-04-26T09:30:09.024Z</time></trkpt><trkpt lat="44.0526533" lon="12.1231583"><ele>431.0</ele><time>2026-04-26T09:30:10.023Z</time></trkpt><trkpt lat="44.052585" lon="12.123365"><ele>431.0</ele><time>2026-04-26T09:30:11.024Z</time></trkpt><trkpt lat="44.0525283" lon="12.12358"><ele>429.3333333333333</ele><time>2026-04-26T09:30:12.022Z</time></trkpt><trkpt lat="44.05248" lon="12.1237967"><ele>427.66666666666663</ele><time>2026-04-26T09:30:13.021Z</time></trkpt><trkpt lat="44.0524417" lon="12.1240033"><ele>426.0</ele><time>2026-04-26T09:30:14.021Z</time></trkpt><trkpt lat="44.0524017" lon="12.1242"><ele>425.0</ele><time>2026-04-26T09:30:15.025Z</time></trkpt><trkpt lat="44.0523567" lon="12.1243817"><ele>424.0</ele><time>2026-04-26T09:30:16.022Z</time></trkpt><trkpt lat="44.0522983" lon="12.1245383"><ele>423.0</ele><time>2026-04-26T09:30:17.024Z</time></trkpt><trkpt lat="44.0522283" lon="12.1246567"><ele>422.0</ele><time>2026-04-26T09:30:18.021Z</time></trkpt><trkpt lat="44.0521333" lon="12.1247433"><ele>422.0</ele><time>2026-04-26T09:30:19.022Z</time></trkpt><trkpt lat="44.052015" lon="12.12481"><ele>422.0</ele><time>2026-04-26T09:30:20.021Z</time></trkpt><trkpt lat="44.0518883" lon="12.1248867"><ele>422.0</ele><time>2026-04-26T09:30:21.023Z</time></trkpt><trkpt lat="44.0517633" lon="12.1249767"><ele>422.0</ele><time>2026-04-26T09:30:22.021Z</time></trkpt><trkpt lat="44.0516433" lon="12.1250617"><ele>418.25</ele><time>2026-04-26T09:30:23.021Z</time></trkpt><trkpt lat="44.0515167" lon="12.1251333"><ele>414.5</ele><time>2026-04-26T09:30:24.03Z</time></trkpt><trkpt lat="44.0513817" lon="12.1251967"><ele>410.75</ele><time>2026-04-26T09:30:25.022Z</time></trkpt><trkpt lat="44.0512383" lon="12.1252783"><ele>407.0</ele><time>2026-04-26T09:30:26.021Z</time></trkpt><trkpt lat="44.0511033" lon="12.12539"><ele>407.0</ele><time>2026-04-26T09:30:27.023Z</time></trkpt><trkpt lat="44.0509733" lon="12.1255333"><ele>407.0</ele><time>2026-04-26T09:30:28.022Z</time></trkpt><trkpt lat="44.0508517" lon="12.1256983"><ele>407.0</ele><time>2026-04-26T09:30:29.026Z</time></trkpt><trkpt lat="44.0507217" lon="12.1258583"><ele>404.66666666666663</ele><time>2026-04-26T09:30:30.023Z</time></trkpt><trkpt lat="44.0505733" lon="12.1259967"><ele>402.33333333333337</ele><time>2026-04-26T09:30:31.025Z</time></trkpt><trkpt lat="44.050415" lon="12.126105"><ele>400.0</ele><time>2026-04-26T09:30:32.023Z</time></trkpt><trkpt lat="44.0502633" lon="12.126195"><ele>400.0</ele><time>2026-04-26T09:30:33.024Z</time></trkpt><trkpt lat="44.0501267" lon="12.12627"><ele>400.0</ele><time>2026-04-26T09:30:34.024Z</time></trkpt><trkpt lat="44.0500017" lon="12.1263417"><ele>400.0</ele><time>2026-04-26T09:30:35.023Z</time></trkpt><trkpt lat="44.0498933" lon="12.1264283"><ele>400.0</ele><time>2026-04-26T09:30:36.024Z</time></trkpt><trkpt lat="44.049795" lon="12.1265383"><ele>397.75</ele><time>2026-04-26T09:30:37.025Z</time></trkpt><trkpt lat="44.0496983" lon="12.12667"><ele>395.5</ele><time>2026-04-26T09:30:38.024Z</time></trkpt><trkpt lat="44.0496083" lon="12.126825"><ele>393.25</ele><time>2026-04-26T09:30:39.023Z</time></trkpt><trkpt lat="44.0495233" lon="12.1269883"><ele>391.0</ele><time>2026-04-26T09:30:40.022Z</time></trkpt><trkpt lat="44.0494233" lon="12.127145"><ele>391.0</ele><time>2026-04-26T09:30:41.022Z</time></trkpt><trkpt lat="44.0493" lon="12.1272833"><ele>391.0</ele><time>2026-04-26T09:30:42.022Z</time></trkpt><trkpt lat="44.04917" lon="12.127415"><ele>391.0</ele><time>2026-04-26T09:30:43.024Z</time></trkpt><trkpt lat="44.0490467" lon="12.1275633"><ele>389.33333333333337</ele><time>2026-04-26T09:30:44.023Z</time></trkpt><trkpt lat="44.0489267" lon="12.1277283"><ele>387.66666666666663</ele><time>2026-04-26T09:30:45.022Z</time></trkpt><trkpt lat="44.0488067" lon="12.1279033"><ele>386.0</ele><time>2026-04-26T09:30:46.024Z</time></trkpt><trkpt lat="44.0486817" lon="12.1280783"><ele>387.66666666666663</ele><time>2026-04-26T09:30:47.022Z</time></trkpt><trkpt lat="44.0485533" lon="12.1282333"><ele>389.33333333333337</ele><time>2026-04-26T09:30:48.022Z</time></trkpt><trkpt lat="44.0484267" lon="12.1283783"><ele>391.0</ele><time>2026-04-26T09:30:49.022Z</time></trkpt><trkpt lat="44.04832" lon="12.1285283"><ele>390.75</ele><time>2026-04-26T09:30:50.022Z</time></trkpt><trkpt lat="44.0482383" lon="12.1286883"><ele>390.5</ele><time>2026-04-26T09:30:51.023Z</time></trkpt><trkpt lat="44.0481667" lon="12.1288533"><ele>390.25</ele><time>2026-04-26T09:30:52.021Z</time></trkpt><trkpt lat="44.0480917" lon="12.12902"><ele>390.0</ele><time>2026-04-26T09:30:53.023Z</time></trkpt><trkpt lat="44.04801" lon="12.12919"><ele>390.0</ele><time>2026-04-26T09:30:54.022Z</time></trkpt><trkpt lat="44.047915" lon="12.1293617"><ele>390.0</ele><time>2026-04-26T09:30:55.022Z</time></trkpt><trkpt lat="44.04781" lon="12.1295317"><ele>390.0</ele><time>2026-04-26T09:30:56.021Z</time></trkpt><trkpt lat="44.0476917" lon="12.1296967"><ele>390.0</ele><time>2026-04-26T09:30:57.025Z</time></trkpt><trkpt lat="44.047565" lon="12.1298517"><ele>390.0</ele><time>2026-04-26T09:30:58.023Z</time></trkpt><trkpt lat="44.0474317" lon="12.129995"><ele>390.0</ele><time>2026-04-26T09:30:59.023Z</time></trkpt><trkpt lat="44.0472983" lon="12.13012"><ele>386.25</ele><time>2026-04-26T09:31:00.023Z</time></trkpt><trkpt lat="44.04717" lon="12.13023"><ele>382.5</ele><time>2026-04-26T09:31:01.022Z</time></trkpt><trkpt lat="44.0470517" lon="12.1303333"><ele>378.75</ele><time>2026-04-26T09:31:02.022Z</time></trkpt><trkpt lat="44.0469433" lon="12.13044"><ele>375.0</ele><time>2026-04-26T09:31:03.021Z</time></trkpt><trkpt lat="44.0468433" lon="12.1305533"><ele>375.0</ele><time>2026-04-26T09:31:04.023Z</time></trkpt><trkpt lat="44.046755" lon="12.1306733"><ele>375.0</ele><time>2026-04-26T09:31:05.024Z</time></trkpt><trkpt lat="44.0466817" lon="12.1308117"><ele>375.0</ele><time>2026-04-26T09:31:06.028Z</time></trkpt><trkpt lat="44.0466333" lon="12.1309667"><ele>375.0</ele><time>2026-04-26T09:31:07.022Z</time></trkpt><trkpt lat="44.0466083" lon="12.1311383"><ele>371.25</ele><time>2026-04-26T09:31:08.026Z</time></trkpt><trkpt lat="44.046595" lon="12.13132"><ele>367.5</ele><time>2026-04-26T09:31:09.024Z</time></trkpt><trkpt lat="44.046565" lon="12.131505"><ele>363.75</ele><time>2026-04-26T09:31:10.024Z</time></trkpt><trkpt lat="44.0465083" lon="12.1316717"><ele>360.0</ele><time>2026-04-26T09:31:11.024Z</time></trkpt><trkpt lat="44.0464267" lon="12.1318083"><ele>360.0</ele><time>2026-04-26T09:31:12.022Z</time></trkpt><trkpt lat="44.0463283" lon="12.1319233"><ele>360.0</ele><time>2026-04-26T09:31:13.022Z</time></trkpt><trkpt lat="44.0462217" lon="12.1320267"><ele>360.0</ele><time>2026-04-26T09:31:14.024Z</time></trkpt><trkpt lat="44.0461317" lon="12.1321517"><ele>360.0</ele><time>2026-04-26T09:31:15.025Z</time></trkpt><trkpt lat="44.0460667" lon="12.1323033"><ele>361.0</ele><time>2026-04-26T09:31:16.025Z</time></trkpt><trkpt lat="44.0460217" lon="12.1324717"><ele>362.0</ele><time>2026-04-26T09:31:17.024Z</time></trkpt><trkpt lat="44.0459983" lon="12.1326417"><ele>363.0</ele><time>2026-04-26T09:31:18.025Z</time></trkpt><trkpt lat="44.0459783" lon="12.13281"><ele>364.0</ele><time>2026-04-26T09:31:19.024Z</time></trkpt><trkpt lat="44.0459483" lon="12.1329783"><ele>364.0</ele><time>2026-04-26T09:31:20.023Z</time></trkpt><trkpt lat="44.04589" lon="12.1331333"><ele>364.0</ele><time>2026-04-26T09:31:21.025Z</time></trkpt><trkpt lat="44.0458717" lon="12.1332617"><ele>364.0</ele><time>2026-04-26T09:31:22.025Z</time></trkpt><trkpt lat="44.0458017" lon="12.133425"><ele>364.0</ele><time>2026-04-26T09:31:23.023Z</time></trkpt><trkpt lat="44.0456883" lon="12.1335633"><ele>362.25</ele><time>2026-04-26T09:31:24.024Z</time></trkpt><trkpt lat="44.0455883" lon="12.1337117"><ele>360.5</ele><time>2026-04-26T09:31:25.024Z</time></trkpt><trkpt lat="44.0455017" lon="12.13386"><ele>358.75</ele><time>2026-04-26T09:31:26.023Z</time></trkpt><trkpt lat="44.0454117" lon="12.1339983"><ele>357.0</ele><time>2026-04-26T09:31:27.024Z</time></trkpt><trkpt lat="44.045325" lon="12.13415"><ele>357.0</ele><time>2026-04-26T09:31:28.025Z</time></trkpt><trkpt lat="44.0452383" lon="12.1343133"><ele>357.0</ele><time>2026-04-26T09:31:29.023Z</time></trkpt><trkpt lat="44.0451883" lon="12.1344933"><ele>357.0</ele><time>2026-04-26T09:31:30.025Z</time></trkpt><trkpt lat="44.045165" lon="12.1346733"><ele>357.0</ele><time>2026-04-26T09:31:31.025Z</time></trkpt><trkpt lat="44.0450883" lon="12.13486"><ele>357.75</ele><time>2026-04-26T09:31:32.022Z</time></trkpt><trkpt lat="44.04502" lon="12.1350467"><ele>358.5</ele><time>2026-04-26T09:31:33.025Z</time></trkpt><trkpt lat="44.04496" lon="12.1352133"><ele>359.25</ele><time>2026-04-26T09:31:34.023Z</time></trkpt><trkpt lat="44.0449067" lon="12.1353583"><ele>360.0</ele><time>2026-04-26T09:31:35.023Z</time></trkpt><trkpt lat="44.04482" lon="12.135485"><ele>358.2</ele><time>2026-04-26T09:31:36.022Z</time></trkpt><trkpt lat="44.04473" lon="12.135595"><ele>356.4</ele><time>2026-04-26T09:31:37.025Z</time></trkpt><trkpt lat="44.0446633" lon="12.1356933"><ele>354.6</ele><time>2026-04-26T09:31:38.023Z</time></trkpt><trkpt lat="44.044605" lon="12.1357867"><ele>352.8</ele><time>2026-04-26T09:31:39.024Z</time></trkpt><trkpt lat="44.0445367" lon="12.1359"><ele>351.0</ele><time>2026-04-26T09:31:41.023Z</time></trkpt><trkpt lat="44.0444817" lon="12.13596"><ele>351.0</ele><time>2026-04-26T09:31:56.022Z</time></trkpt><trkpt lat="44.0445317" lon="12.13606"><ele>351.0</ele><time>2026-04-26T09:32:08.022Z</time></trkpt><trkpt lat="44.0446067" lon="12.13612"><ele>351.0</ele><time>2026-04-26T09:32:10.023Z</time></trkpt><trkpt lat="44.0447" lon="12.136165"><ele>351.0</ele><time>2026-04-26T09:32:12.024Z</time></trkpt><trkpt lat="44.0448067" lon="12.1362183"><ele>351.0</ele><time>2026-04-26T09:32:14.023Z</time></trkpt><trkpt lat="44.0448467" lon="12.1362917"><ele>351.0</ele><time>2026-04-26T09:32:15.024Z</time></trkpt><trkpt lat="44.0449233" lon="12.1363867"><ele>351.0</ele><time>2026-04-26T09:32:17.022Z</time></trkpt><trkpt lat="44.044985" lon="12.1364483"><ele>351.0</ele><time>2026-04-26T09:32:19.024Z</time></trkpt><trkpt lat="44.0450417" lon="12.1364883"><ele>351.0</ele><time>2026-04-26T09:32:21.023Z</time></trkpt><trkpt lat="44.045105" lon="12.1365"><ele>351.0</ele><time>2026-04-26T09:32:23.022Z</time></trkpt><trkpt lat="44.04518" lon="12.1365"><ele>351.0</ele><time>2026-04-26T09:32:25.024Z</time></trkpt><trkpt lat="44.0452683" lon="12.136505"><ele>351.3333333333333</ele><time>2026-04-26T09:32:27.026Z</time></trkpt><trkpt lat="44.0453567" lon="12.1365267"><ele>351.6666666666667</ele><time>2026-04-26T09:32:29.026Z</time></trkpt><trkpt lat="44.0454467" lon="12.1365383"><ele>352.0</ele><time>2026-04-26T09:32:31.025Z</time></trkpt><trkpt lat="44.0455233" lon="12.1365817"><ele>352.33333333333337</ele><time>2026-04-26T09:32:33.024Z</time></trkpt><trkpt lat="44.045585" lon="12.13663"><ele>352.6666666666667</ele><time>2026-04-26T09:32:35.024Z</time></trkpt><trkpt lat="44.0456383" lon="12.13671"><ele>353.0</ele><time>2026-04-26T09:32:37.022Z</time></trkpt><trkpt lat="44.0456817" lon="12.1367783"><ele>350.83333333333337</ele><time>2026-04-26T09:32:39.024Z</time></trkpt><trkpt lat="44.0457317" lon="12.1368483"><ele>348.6666666666667</ele><time>2026-04-26T09:32:43.022Z</time></trkpt><trkpt lat="44.0457017" lon="12.1367683"><ele>346.5</ele><time>2026-04-26T09:33:41.026Z</time></trkpt><trkpt lat="44.0456467" lon="12.1366933"><ele>344.3333333333333</ele><time>2026-04-26T09:33:45.025Z</time></trkpt><trkpt lat="44.0455583" lon="12.1366267"><ele>342.16666666666663</ele><time>2026-04-26T09:33:48.023Z</time></trkpt><trkpt lat="44.0454833" lon="12.136585"><ele>340.0</ele><time>2026-04-26T09:33:50.023Z</time></trkpt><trkpt lat="44.04541" lon="12.1365633"><ele>340.0</ele><time>2026-04-26T09:33:52.023Z</time></trkpt><trkpt lat="44.045335" lon="12.1365517"><ele>340.0</ele><time>2026-04-26T09:33:54.024Z</time></trkpt><trkpt lat="44.04525" lon="12.1365517"><ele>340.0</ele><time>2026-04-26T09:33:56.022Z</time></trkpt><trkpt lat="44.04516" lon="12.1365533"><ele>340.0</ele><time>2026-04-26T09:33:58.021Z</time></trkpt><trkpt lat="44.0450733" lon="12.1365433"><ele>340.0</ele><time>2026-04-26T09:34:00.022Z</time></trkpt><trkpt lat="44.0449833" lon="12.1364933"><ele>340.0</ele><time>2026-04-26T09:34:02.022Z</time></trkpt><trkpt lat="44.0448633" lon="12.1364"><ele>342.2</ele><time>2026-04-26T09:34:04.022Z</time></trkpt><trkpt lat="44.0448133" lon="12.1362967"><ele>344.4</ele><time>2026-04-26T09:34:06.021Z</time></trkpt><trkpt lat="44.0447633" lon="12.1361917"><ele>346.6</ele><time>2026-04-26T09:34:08.024Z</time></trkpt><trkpt lat="44.0446483" lon="12.136155"><ele>348.8</ele><time>2026-04-26T09:34:10.023Z</time></trkpt><trkpt lat="44.044565" lon="12.13607"><ele>351.0</ele><time>2026-04-26T09:34:12.022Z</time></trkpt><trkpt lat="44.0445033" lon="12.1360167"><ele>351.0</ele><time>2026-04-26T09:34:14.022Z</time></trkpt><trkpt lat="44.0444317" lon="12.13607"><ele>351.0</ele><time>2026-04-26T09:34:16.024Z</time></trkpt><trkpt lat="44.044375" lon="12.1361367"><ele>351.0</ele><time>2026-04-26T09:34:18.022Z</time></trkpt><trkpt lat="44.0442967" lon="12.1362933"><ele>351.0</ele><time>2026-04-26T09:34:30.023Z</time></trkpt><trkpt lat="44.0442183" lon="12.13641"><ele>351.0</ele><time>2026-04-26T09:34:31.025Z</time></trkpt><trkpt lat="44.0441017" lon="12.1365467"><ele>350.75</ele><time>2026-04-26T09:34:32.025Z</time></trkpt><trkpt lat="44.0439883" lon="12.1366883"><ele>350.5</ele><time>2026-04-26T09:34:33.027Z</time></trkpt><trkpt lat="44.0438933" lon="12.1368317"><ele>350.25</ele><time>2026-04-26T09:34:34.024Z</time></trkpt><trkpt lat="44.0437917" lon="12.1369533"><ele>350.0</ele><time>2026-04-26T09:34:35.025Z</time></trkpt><trkpt lat="44.0437" lon="12.1370983"><ele>350.0</ele><time>2026-04-26T09:34:36.025Z</time></trkpt><trkpt lat="44.043665" lon="12.1372917"><ele>350.0</ele><time>2026-04-26T09:34:37.024Z</time></trkpt><trkpt lat="44.0436417" lon="12.1375017"><ele>350.0</ele><time>2026-04-26T09:34:38.025Z</time></trkpt><trkpt lat="44.043605" lon="12.1376917"><ele>350.0</ele><time>2026-04-26T09:34:39.025Z</time></trkpt><trkpt lat="44.0435533" lon="12.1378683"><ele>349.75</ele><time>2026-04-26T09:34:40.026Z</time></trkpt><trkpt lat="44.043475" lon="12.1380317"><ele>349.5</ele><time>2026-04-26T09:34:41.024Z</time></trkpt><trkpt lat="44.04338" lon="12.138195"><ele>349.25</ele><time>2026-04-26T09:34:42.025Z</time></trkpt><trkpt lat="44.0432917" lon="12.1383667"><ele>349.0</ele><time>2026-04-26T09:34:43.024Z</time></trkpt><trkpt lat="44.0432017" lon="12.1385233"><ele>349.0</ele><time>2026-04-26T09:34:44.023Z</time></trkpt><trkpt lat="44.0431183" lon="12.13867"><ele>349.0</ele><time>2026-04-26T09:34:45.024Z</time></trkpt><trkpt lat="44.0430483" lon="12.13882"><ele>349.0</ele><time>2026-04-26T09:34:46.024Z</time></trkpt><trkpt lat="44.0429783" lon="12.1389567"><ele>349.0</ele><time>2026-04-26T09:34:47.024Z</time></trkpt><trkpt lat="44.0429183" lon="12.139095"><ele>348.5</ele><time>2026-04-26T09:34:48.023Z</time></trkpt><trkpt lat="44.0428867" lon="12.1392583"><ele>348.0</ele><time>2026-04-26T09:34:49.025Z</time></trkpt><trkpt lat="44.0428433" lon="12.139415"><ele>347.5</ele><time>2026-04-26T09:34:50.023Z</time></trkpt><trkpt lat="44.042795" lon="12.13958"><ele>347.0</ele><time>2026-04-26T09:34:51.026Z</time></trkpt><trkpt lat="44.04272" lon="12.1397417"><ele>347.5</ele><time>2026-04-26T09:34:52.024Z</time></trkpt><trkpt lat="44.042665" lon="12.139925"><ele>348.0</ele><time>2026-04-26T09:34:53.024Z</time></trkpt><trkpt lat="44.0426167" lon="12.1401167"><ele>348.5</ele><time>2026-04-26T09:34:54.024Z</time></trkpt><trkpt lat="44.042565" lon="12.140295"><ele>349.0</ele><time>2026-04-26T09:34:55.024Z</time></trkpt><trkpt lat="44.0425283" lon="12.1404883"><ele>349.0</ele><time>2026-04-26T09:34:56.026Z</time></trkpt><trkpt lat="44.0424683" lon="12.1406583"><ele>349.0</ele><time>2026-04-26T09:34:57.024Z</time></trkpt><trkpt lat="44.0424133" lon="12.1408433"><ele>349.0</ele><time>2026-04-26T09:34:58.022Z</time></trkpt><trkpt lat="44.042335" lon="12.1410217"><ele>349.0</ele><time>2026-04-26T09:34:59.024Z</time></trkpt><trkpt lat="44.0422633" lon="12.1412017"><ele>345.5</ele><time>2026-04-26T09:35:00.022Z</time></trkpt><trkpt lat="44.0422017" lon="12.14138"><ele>342.0</ele><time>2026-04-26T09:35:01.024Z</time></trkpt><trkpt lat="44.0421483" lon="12.141555"><ele>338.5</ele><time>2026-04-26T09:35:02.025Z</time></trkpt><trkpt lat="44.04209" lon="12.1417267"><ele>335.0</ele><time>2026-04-26T09:35:03.025Z</time></trkpt><trkpt lat="44.0420233" lon="12.1419"><ele>335.0</ele><time>2026-04-26T09:35:04.021Z</time></trkpt><trkpt lat="44.0419367" lon="12.14206"><ele>335.0</ele><time>2026-04-26T09:35:05.022Z</time></trkpt><trkpt lat="44.0418417" lon="12.1421983"><ele>335.0</ele><time>2026-04-26T09:35:06.023Z</time></trkpt><trkpt lat="44.0417367" lon="12.1423217"><ele>335.0</ele><time>2026-04-26T09:35:07.022Z</time></trkpt><trkpt lat="44.041645" lon="12.1424417"><ele>331.8</ele><time>2026-04-26T09:35:08.023Z</time></trkpt><trkpt lat="44.0415683" lon="12.1425733"><ele>328.6</ele><time>2026-04-26T09:35:09.023Z</time></trkpt><trkpt lat="44.0415083" lon="12.1427167"><ele>325.4</ele><time>2026-04-26T09:35:10.022Z</time></trkpt><trkpt lat="44.0414733" lon="12.142855"><ele>322.2</ele><time>2026-04-26T09:35:11.027Z</time></trkpt><trkpt lat="44.0414733" lon="12.1429883"><ele>319.0</ele><time>2026-04-26T09:35:12.022Z</time></trkpt><trkpt lat="44.0414933" lon="12.1431117"><ele>317.8</ele><time>2026-04-26T09:35:13.022Z</time></trkpt><trkpt lat="44.04152" lon="12.1432283"><ele>316.59999999999997</ele><time>2026-04-26T09:35:14.022Z</time></trkpt><trkpt lat="44.04158" lon="12.1433417"><ele>315.4</ele><time>2026-04-26T09:35:15.023Z</time></trkpt><trkpt lat="44.04167" lon="12.1434367"><ele>314.2</ele><time>2026-04-26T09:35:16.022Z</time></trkpt><trkpt lat="44.0417767" lon="12.14356"><ele>313.0</ele><time>2026-04-26T09:35:17.022Z</time></trkpt><trkpt lat="44.041905" lon="12.1435583"><ele>316.25</ele><time>2026-04-26T09:35:18.024Z</time></trkpt><trkpt lat="44.0420167" lon="12.14364"><ele>319.5</ele><time>2026-04-26T09:35:19.024Z</time></trkpt><trkpt lat="44.04212" lon="12.1437233"><ele>322.75</ele><time>2026-04-26T09:35:20.024Z</time></trkpt><trkpt lat="44.0422183" lon="12.1438067"><ele>326.0</ele><time>2026-04-26T09:35:21.023Z</time></trkpt><trkpt lat="44.0422817" lon="12.143935"><ele>324.0</ele><time>2026-04-26T09:35:22.025Z</time></trkpt><trkpt lat="44.0423217" lon="12.144085"><ele>322.0</ele><time>2026-04-26T09:35:23.023Z</time></trkpt><trkpt lat="44.0423767" lon="12.14421"><ele>320.0</ele><time>2026-04-26T09:35:24.024Z</time></trkpt><trkpt lat="44.042435" lon="12.144305"><ele>318.0</ele><time>2026-04-26T09:35:25.021Z</time></trkpt><trkpt lat="44.0425117" lon="12.1443683"><ele>316.0</ele><time>2026-04-26T09:35:26.024Z</time></trkpt><trkpt lat="44.042595" lon="12.1443833"><ele>315.5</ele><time>2026-04-26T09:35:27.024Z</time></trkpt><trkpt lat="44.0426767" lon="12.1443167"><ele>315.0</ele><time>2026-04-26T09:35:28.024Z</time></trkpt><trkpt lat="44.0427933" lon="12.1442383"><ele>314.5</ele><time>2026-04-26T09:35:29.023Z</time></trkpt><trkpt lat="44.0428867" lon="12.14414"><ele>314.0</ele><time>2026-04-26T09:35:30.025Z</time></trkpt><trkpt lat="44.0429483" lon="12.1440133"><ele>313.8</ele><time>2026-04-26T09:35:31.022Z</time></trkpt><trkpt lat="44.0430317" lon="12.1439067"><ele>313.59999999999997</ele><time>2026-04-26T09:35:32.026Z</time></trkpt><trkpt lat="44.0431283" lon="12.1438367"><ele>313.4</ele><time>2026-04-26T09:35:33.023Z</time></trkpt><trkpt lat="44.0432367" lon="12.1438"><ele>313.2</ele><time>2026-04-26T09:35:34.024Z</time></trkpt><trkpt lat="44.0433467" lon="12.1438267"><ele>313.0</ele><time>2026-04-26T09:35:35.025Z</time></trkpt><trkpt lat="44.0434517" lon="12.1439167"><ele>310.25</ele><time>2026-04-26T09:35:36.021Z</time></trkpt><trkpt lat="44.0435633" lon="12.1440667"><ele>307.5</ele><time>2026-04-26T09:35:37.022Z</time></trkpt><trkpt lat="44.0437033" lon="12.1441167"><ele>304.75</ele><time>2026-04-26T09:35:38.021Z</time></trkpt><trkpt lat="44.04378" lon="12.1442333"><ele>302.0</ele><time>2026-04-26T09:35:39.024Z</time></trkpt><trkpt lat="44.0438883" lon="12.1443383"><ele>302.0</ele><time>2026-04-26T09:35:40.022Z</time></trkpt><trkpt lat="44.0439833" lon="12.1444367"><ele>302.0</ele><time>2026-04-26T09:35:41.021Z</time></trkpt><trkpt lat="44.0440483" lon="12.1445267"><ele>302.0</ele><time>2026-04-26T09:35:42.021Z</time></trkpt><trkpt lat="44.0440883" lon="12.1446117"><ele>302.0</ele><time>2026-04-26T09:35:43.022Z</time></trkpt><trkpt lat="44.0441167" lon="12.1446983"><ele>302.0</ele><time>2026-04-26T09:35:44.022Z</time></trkpt><trkpt lat="44.044055" lon="12.144765"><ele>302.0</ele><time>2026-04-26T09:35:45.022Z</time></trkpt><trkpt lat="44.04399" lon="12.1448233"><ele>299.25</ele><time>2026-04-26T09:35:46.023Z</time></trkpt><trkpt lat="44.0439" lon="12.144895"><ele>296.5</ele><time>2026-04-26T09:35:47.022Z</time></trkpt><trkpt lat="44.0437867" lon="12.1449883"><ele>293.75</ele><time>2026-04-26T09:35:48.024Z</time></trkpt><trkpt lat="44.0436883" lon="12.1450883"><ele>291.0</ele><time>2026-04-26T09:35:49.021Z</time></trkpt><trkpt lat="44.043605" lon="12.1451867"><ele>291.0</ele><time>2026-04-26T09:35:50.022Z</time></trkpt><trkpt lat="44.04355" lon="12.1452867"><ele>291.0</ele><time>2026-04-26T09:35:51.021Z</time></trkpt><trkpt lat="44.0435217" lon="12.1453867"><ele>291.0</ele><time>2026-04-26T09:35:52.021Z</time></trkpt><trkpt lat="44.0435183" lon="12.1454867"><ele>291.0</ele><time>2026-04-26T09:35:53.026Z</time></trkpt><trkpt lat="44.0435667" lon="12.1455467"><ele>291.0</ele><time>2026-04-26T09:35:54.023Z</time></trkpt><trkpt lat="44.04363" lon="12.1455783"><ele>291.0</ele><time>2026-04-26T09:35:55.021Z</time></trkpt><trkpt lat="44.04371" lon="12.145595"><ele>291.0</ele><time>2026-04-26T09:35:56.021Z</time></trkpt><trkpt lat="44.0438083" lon="12.1456133"><ele>291.0</ele><time>2026-04-26T09:35:57.025Z</time></trkpt><trkpt lat="44.043915" lon="12.1456617"><ele>291.0</ele><time>2026-04-26T09:35:58.024Z</time></trkpt><trkpt lat="44.0440267" lon="12.14573"><ele>291.0</ele><time>2026-04-26T09:35:59.024Z</time></trkpt><trkpt lat="44.0441383" lon="12.1458133"><ele>287.5</ele><time>2026-04-26T09:36:00.021Z</time></trkpt><trkpt lat="44.0442417" lon="12.1459033"><ele>284.0</ele><time>2026-04-26T09:36:01.021Z</time></trkpt><trkpt lat="44.04434" lon="12.1460033"><ele>280.5</ele><time>2026-04-26T09:36:02.023Z</time></trkpt><trkpt lat="44.0444283" lon="12.1461217"><ele>277.0</ele><time>2026-04-26T09:36:03.026Z</time></trkpt><trkpt lat="44.0445" lon="12.1462583"><ele>277.0</ele><time>2026-04-26T09:36:04.023Z</time></trkpt><trkpt lat="44.04455" lon="12.146415"><ele>277.0</ele><time>2026-04-26T09:36:05.023Z</time></trkpt><trkpt lat="44.0445717" lon="12.146575"><ele>277.0</ele><time>2026-04-26T09:36:06.025Z</time></trkpt><trkpt lat="44.0445483" lon="12.1467217"><ele>277.0</ele><time>2026-04-26T09:36:07.024Z</time></trkpt><trkpt lat="44.04449" lon="12.1468617"><ele>275.25</ele><time>2026-04-26T09:36:08.021Z</time></trkpt><trkpt lat="44.0444" lon="12.1469983"><ele>273.5</ele><time>2026-04-26T09:36:09.022Z</time></trkpt><trkpt lat="44.0442883" lon="12.1471333"><ele>271.75</ele><time>2026-04-26T09:36:10.021Z</time></trkpt><trkpt lat="44.04417" lon="12.1472767"><ele>270.0</ele><time>2026-04-26T09:36:11.024Z</time></trkpt><trkpt lat="44.0440567" lon="12.147415"><ele>268.0</ele><time>2026-04-26T09:36:12.024Z</time></trkpt><trkpt lat="44.0439467" lon="12.1475533"><ele>266.0</ele><time>2026-04-26T09:36:13.028Z</time></trkpt><trkpt lat="44.043835" lon="12.1476783"><ele>264.0</ele><time>2026-04-26T09:36:14.021Z</time></trkpt><trkpt lat="44.0437317" lon="12.1477883"><ele>262.0</ele><time>2026-04-26T09:36:15.024Z</time></trkpt><trkpt lat="44.0436267" lon="12.147885"><ele>262.0</ele><time>2026-04-26T09:36:16.024Z</time></trkpt><trkpt lat="44.0435217" lon="12.1479583"><ele>262.0</ele><time>2026-04-26T09:36:17.021Z</time></trkpt><trkpt lat="44.0434217" lon="12.1480033"><ele>262.0</ele><time>2026-04-26T09:36:18.023Z</time></trkpt><trkpt lat="44.0433267" lon="12.1480383"><ele>262.0</ele><time>2026-04-26T09:36:19.024Z</time></trkpt><trkpt lat="44.0432467" lon="12.1480833"><ele>262.0</ele><time>2026-04-26T09:36:20.023Z</time></trkpt><trkpt lat="44.0431867" lon="12.14815"><ele>262.2</ele><time>2026-04-26T09:36:21.024Z</time></trkpt><trkpt lat="44.0431533" lon="12.1482367"><ele>262.4</ele><time>2026-04-26T09:36:22.022Z</time></trkpt><trkpt lat="44.043185" lon="12.14836"><ele>262.6</ele><time>2026-04-26T09:36:23.024Z</time></trkpt><trkpt lat="44.0432667" lon="12.1484767"><ele>262.8</ele><time>2026-04-26T09:36:24.024Z</time></trkpt><trkpt lat="44.0433067" lon="12.1485933"><ele>263.0</ele><time>2026-04-26T09:36:25.022Z</time></trkpt><trkpt lat="44.043365" lon="12.148715"><ele>261.0</ele><time>2026-04-26T09:36:26.022Z</time></trkpt><trkpt lat="44.0434167" lon="12.14885"><ele>259.0</ele><time>2026-04-26T09:36:27.024Z</time></trkpt><trkpt lat="44.0434383" lon="12.1489883"><ele>257.0</ele><time>2026-04-26T09:36:28.023Z</time></trkpt><trkpt lat="44.043415" lon="12.1491383"><ele>255.0</ele><time>2026-04-26T09:36:29.021Z</time></trkpt><trkpt lat="44.0433317" lon="12.1492833"><ele>254.66666666666669</ele><time>2026-04-26T09:36:30.024Z</time></trkpt><trkpt lat="44.0432233" lon="12.1494517"><ele>254.33333333333334</ele><time>2026-04-26T09:36:31.022Z</time></trkpt><trkpt lat="44.043255" lon="12.1496733"><ele>254.0</ele><time>2026-04-26T09:36:32.024Z</time></trkpt><trkpt lat="44.0431817" lon="12.1498383"><ele>252.33333333333334</ele><time>2026-04-26T09:36:33.026Z</time></trkpt><trkpt lat="44.0431283" lon="12.1499783"><ele>250.66666666666669</ele><time>2026-04-26T09:36:34.022Z</time></trkpt><trkpt lat="44.0430833" lon="12.1500917"><ele>249.0</ele><time>2026-04-26T09:36:35.022Z</time></trkpt><trkpt lat="44.043055" lon="12.150195"><ele>247.33333333333331</ele><time>2026-04-26T09:36:36.023Z</time></trkpt><trkpt lat="44.0430883" lon="12.1502933"><ele>245.66666666666666</ele><time>2026-04-26T09:36:37.023Z</time></trkpt><trkpt lat="44.043065" lon="12.1504033"><ele>244.0</ele><time>2026-04-26T09:36:38.023Z</time></trkpt><trkpt lat="44.043035" lon="12.15052"><ele>244.0</ele><time>2026-04-26T09:36:39.026Z</time></trkpt><trkpt lat="44.0430267" lon="12.1506483"><ele>243.99999999999997</ele><time>2026-04-26T09:36:40.022Z</time></trkpt><trkpt lat="44.043015" lon="12.1507883"><ele>243.99999999999997</ele><time>2026-04-26T09:36:41.023Z</time></trkpt><trkpt lat="44.0429967" lon="12.1509367"><ele>244.0</ele><time>2026-04-26T09:36:42.024Z</time></trkpt><trkpt lat="44.0429733" lon="12.1510983"><ele>244.0</ele><time>2026-04-26T09:36:43.021Z</time></trkpt><trkpt lat="44.042965" lon="12.1512733"><ele>242.25</ele><time>2026-04-26T09:36:44.023Z</time></trkpt><trkpt lat="44.0429533" lon="12.1514683"><ele>240.5</ele><time>2026-04-26T09:36:45.023Z</time></trkpt><trkpt lat="44.0429417" lon="12.15167"><ele>238.75</ele><time>2026-04-26T09:36:46.023Z</time></trkpt><trkpt lat="44.0429333" lon="12.15188"><ele>237.0</ele><time>2026-04-26T09:36:47.024Z</time></trkpt><trkpt lat="44.0429033" lon="12.1520733"><ele>235.33333333333331</ele><time>2026-04-26T09:36:48.024Z</time></trkpt><trkpt lat="44.0428633" lon="12.152275"><ele>233.66666666666666</ele><time>2026-04-26T09:36:49.025Z</time></trkpt><trkpt lat="44.0428" lon="12.15249"><ele>232.0</ele><time>2026-04-26T09:36:50.023Z</time></trkpt><trkpt lat="44.0427683" lon="12.1527183"><ele>230.0</ele><time>2026-04-26T09:36:51.026Z</time></trkpt><trkpt lat="44.04274" lon="12.15295"><ele>228.0</ele><time>2026-04-26T09:36:52.023Z</time></trkpt><trkpt lat="44.0426983" lon="12.1531767"><ele>226.0</ele><time>2026-04-26T09:36:53.022Z</time></trkpt><trkpt lat="44.0426683" lon="12.1533983"><ele>224.0</ele><time>2026-04-26T09:36:54.022Z</time></trkpt><trkpt lat="44.0426217" lon="12.1536133"><ele>222.0</ele><time>2026-04-26T09:36:55.022Z</time></trkpt><trkpt lat="44.0425683" lon="12.1538117"><ele>220.0</ele><time>2026-04-26T09:36:56.026Z</time></trkpt><trkpt lat="44.042525" lon="12.1539917"><ele>221.25</ele><time>2026-04-26T09:36:57.025Z</time></trkpt><trkpt lat="44.0424783" lon="12.154155"><ele>222.5</ele><time>2026-04-26T09:36:58.024Z</time></trkpt><trkpt lat="44.0424383" lon="12.1543083"><ele>223.75</ele><time>2026-04-26T09:36:59.023Z</time></trkpt><trkpt lat="44.0424067" lon="12.15445"><ele>225.0</ele><time>2026-04-26T09:37:00.026Z</time></trkpt><trkpt lat="44.0423983" lon="12.1545967"><ele>224.0</ele><time>2026-04-26T09:37:01.025Z</time></trkpt><trkpt lat="44.0424183" lon="12.1547267"><ele>223.0</ele><time>2026-04-26T09:37:02.025Z</time></trkpt><trkpt lat="44.04246" lon="12.1548367"><ele>222.0</ele><time>2026-04-26T09:37:03.024Z</time></trkpt><trkpt lat="44.0425183" lon="12.1549233"><ele>221.0</ele><time>2026-04-26T09:37:04.025Z</time></trkpt><trkpt lat="44.0426033" lon="12.1550067"><ele>220.0</ele><time>2026-04-26T09:37:05.024Z</time></trkpt><trkpt lat="44.0427017" lon="12.1550583"><ele>220.0</ele><time>2026-04-26T09:37:06.022Z</time></trkpt><trkpt lat="44.0428283" lon="12.15509"><ele>220.0</ele><time>2026-04-26T09:37:07.024Z</time></trkpt><trkpt lat="44.04296" lon="12.1551017"><ele>220.0</ele><time>2026-04-26T09:37:08.026Z</time></trkpt><trkpt lat="44.0430683" lon="12.1551733"><ele>220.0</ele><time>2026-04-26T09:37:09.025Z</time></trkpt><trkpt lat="44.04319" lon="12.1552117"><ele>219.4</ele><time>2026-04-26T09:37:10.026Z</time></trkpt><trkpt lat="44.0433" lon="12.1552783"><ele>218.8</ele><time>2026-04-26T09:37:11.024Z</time></trkpt><trkpt lat="44.043385" lon="12.1553817"><ele>218.2</ele><time>2026-04-26T09:37:12.024Z</time></trkpt><trkpt lat="44.0434283" lon="12.1555167"><ele>217.6</ele><time>2026-04-26T09:37:13.023Z</time></trkpt><trkpt lat="44.0434367" lon="12.1556517"><ele>217.0</ele><time>2026-04-26T09:37:14.022Z</time></trkpt><trkpt lat="44.0433983" lon="12.155765"><ele>216.99999999999997</ele><time>2026-04-26T09:37:15.021Z</time></trkpt><trkpt lat="44.0433183" lon="12.1558267"><ele>217.0</ele><time>2026-04-26T09:37:16.023Z</time></trkpt><trkpt lat="44.0432683" lon="12.1558933"><ele>217.0</ele><time>2026-04-26T09:37:17.022Z</time></trkpt><trkpt lat="44.04324" lon="12.15601"><ele>217.0</ele><time>2026-04-26T09:37:19.023Z</time></trkpt><trkpt lat="44.0433433" lon="12.1560183"><ele>216.99999999999997</ele><time>2026-04-26T09:37:21.027Z</time></trkpt><trkpt lat="44.0434183" lon="12.155965"><ele>217.0</ele><time>2026-04-26T09:37:22.024Z</time></trkpt><trkpt lat="44.043495" lon="12.1558833"><ele>216.99999999999997</ele><time>2026-04-26T09:37:23.024Z</time></trkpt><trkpt lat="44.043575" lon="12.1558233"><ele>217.0</ele><time>2026-04-26T09:37:24.022Z</time></trkpt><trkpt lat="44.04366" lon="12.1557833"><ele>217.0</ele><time>2026-04-26T09:37:25.023Z</time></trkpt><trkpt lat="44.04374" lon="12.1557717"><ele>217.0</ele><time>2026-04-26T09:37:26.025Z</time></trkpt><trkpt lat="44.0437767" lon="12.155905"><ele>216.99999999999997</ele><time>2026-04-26T09:37:28.023Z</time></trkpt><trkpt lat="44.0437217" lon="12.1559833"><ele>217.0</ele><time>2026-04-26T09:37:29.024Z</time></trkpt><trkpt lat="44.0436433" lon="12.1560633"><ele>217.0</ele><time>2026-04-26T09:37:30.026Z</time></trkpt><trkpt lat="44.0435267" lon="12.1561583"><ele>217.0</ele><time>2026-04-26T09:37:31.023Z</time></trkpt><trkpt lat="44.0433833" lon="12.1563067"><ele>217.0</ele><time>2026-04-26T09:37:32.022Z</time></trkpt><trkpt lat="44.0432533" lon="12.1564717"><ele>212.0</ele><time>2026-04-26T09:37:33.025Z</time></trkpt><trkpt lat="44.0431367" lon="12.1566417"><ele>207.0</ele><time>2026-04-26T09:37:34.023Z</time></trkpt><trkpt lat="44.0430317" lon="12.156795"><ele>202.0</ele><time>2026-04-26T09:37:35.023Z</time></trkpt><trkpt lat="44.0429317" lon="12.15692"><ele>202.0</ele><time>2026-04-26T09:37:36.024Z</time></trkpt><trkpt lat="44.0428317" lon="12.1570017"><ele>202.0</ele><time>2026-04-26T09:37:37.024Z</time></trkpt><trkpt lat="44.0427317" lon="12.15704"><ele>202.0</ele><time>2026-04-26T09:37:38.023Z</time></trkpt><trkpt lat="44.0426317" lon="12.1570317"><ele>202.0</ele><time>2026-04-26T09:37:39.024Z</time></trkpt><trkpt lat="44.04254" lon="12.1570083"><ele>202.0</ele><time>2026-04-26T09:37:40.026Z</time></trkpt><trkpt lat="44.0424617" lon="12.1569967"><ele>201.99999999999997</ele><time>2026-04-26T09:37:41.025Z</time></trkpt><trkpt lat="44.0423733" lon="12.157055"><ele>202.0</ele><time>2026-04-26T09:37:43.022Z</time></trkpt><trkpt lat="44.0423983" lon="12.157145"><ele>202.0</ele><time>2026-04-26T09:37:44.023Z</time></trkpt><trkpt lat="44.0424383" lon="12.1572267"><ele>202.0</ele><time>2026-04-26T09:37:45.022Z</time></trkpt><trkpt lat="44.042505" lon="12.1573017"><ele>201.99999999999997</ele><time>2026-04-26T09:37:46.024Z</time></trkpt><trkpt lat="44.0425983" lon="12.1573883"><ele>202.0</ele><time>2026-04-26T09:37:47.023Z</time></trkpt><trkpt lat="44.0426983" lon="12.1574967"><ele>199.6</ele><time>2026-04-26T09:37:48.022Z</time></trkpt><trkpt lat="44.042795" lon="12.1576033"><ele>197.2</ele><time>2026-04-26T09:37:49.022Z</time></trkpt><trkpt lat="44.0428833" lon="12.15769"><ele>194.8</ele><time>2026-04-26T09:37:50.027Z</time></trkpt><trkpt lat="44.0429783" lon="12.157735"><ele>192.4</ele><time>2026-04-26T09:37:51.023Z</time></trkpt><trkpt lat="44.0430683" lon="12.1577533"><ele>190.0</ele><time>2026-04-26T09:37:52.023Z</time></trkpt><trkpt lat="44.0431483" lon="12.157775"><ele>190.0</ele><time>2026-04-26T09:37:53.024Z</time></trkpt><trkpt lat="44.04323" lon="12.1578133"><ele>190.0</ele><time>2026-04-26T09:37:54.025Z</time></trkpt><trkpt lat="44.0432867" lon="12.1578817"><ele>190.0</ele><time>2026-04-26T09:37:55.026Z</time></trkpt><trkpt lat="44.0432833" lon="12.1580067"><ele>190.0</ele><time>2026-04-26T09:37:56.026Z</time></trkpt><trkpt lat="44.0432617" lon="12.1581333"><ele>190.0</ele><time>2026-04-26T09:37:57.022Z</time></trkpt><trkpt lat="44.0432067" lon="12.158255"><ele>190.0</ele><time>2026-04-26T09:37:58.024Z</time></trkpt><trkpt lat="44.0431233" lon="12.1583617"><ele>187.83333333333334</ele><time>2026-04-26T09:37:59.024Z</time></trkpt><trkpt lat="44.043025" lon="12.1584"><ele>185.66666666666669</ele><time>2026-04-26T09:38:00.023Z</time></trkpt><trkpt lat="44.0429233" lon="12.1583433"><ele>183.5</ele><time>2026-04-26T09:38:01.023Z</time></trkpt><trkpt lat="44.0428467" lon="12.1582867"><ele>181.33333333333334</ele><time>2026-04-26T09:38:02.024Z</time></trkpt><trkpt lat="44.0427783" lon="12.1582433"><ele>179.16666666666666</ele><time>2026-04-26T09:38:03.024Z</time></trkpt><trkpt lat="44.0427117" lon="12.15823"><ele>177.0</ele><time>2026-04-26T09:38:04.023Z</time></trkpt><trkpt lat="44.04265" lon="12.1583017"><ele>177.0</ele><time>2026-04-26T09:38:05.025Z</time></trkpt><trkpt lat="44.0426" lon="12.1584283"><ele>177.0</ele><time>2026-04-26T09:38:06.024Z</time></trkpt><trkpt lat="44.042575" lon="12.1585967"><ele>177.0</ele><time>2026-04-26T09:38:07.024Z</time></trkpt><trkpt lat="44.0425783" lon="12.1587933"><ele>177.0</ele><time>2026-04-26T09:38:08.024Z</time></trkpt><trkpt lat="44.0426" lon="12.159005"><ele>173.75</ele><time>2026-04-26T09:38:09.022Z</time></trkpt><trkpt lat="44.0426233" lon="12.1592117"><ele>170.5</ele><time>2026-04-26T09:38:10.024Z</time></trkpt><trkpt lat="44.0426467" lon="12.1593883"><ele>167.25</ele><time>2026-04-26T09:38:11.023Z</time></trkpt><trkpt lat="44.042685" lon="12.1595367"><ele>164.0</ele><time>2026-04-26T09:38:12.023Z</time></trkpt><trkpt lat="44.0427533" lon="12.1596567"><ele>164.0</ele><time>2026-04-26T09:38:13.024Z</time></trkpt><trkpt lat="44.0428417" lon="12.15974"><ele>164.0</ele><time>2026-04-26T09:38:14.021Z</time></trkpt><trkpt lat="44.0429367" lon="12.1597883"><ele>164.0</ele><time>2026-04-26T09:38:15.023Z</time></trkpt><trkpt lat="44.0430267" lon="12.1598367"><ele>164.0</ele><time>2026-04-26T09:38:16.027Z</time></trkpt><trkpt lat="44.0431" lon="12.1599"><ele>164.0</ele><time>2026-04-26T09:38:17.023Z</time></trkpt><trkpt lat="44.0431533" lon="12.1599717"><ele>161.5</ele><time>2026-04-26T09:38:18.024Z</time></trkpt><trkpt lat="44.043145" lon="12.1600667"><ele>159.0</ele><time>2026-04-26T09:38:19.029Z</time></trkpt><trkpt lat="44.0430467" lon="12.1601767"><ele>156.5</ele><time>2026-04-26T09:38:21.023Z</time></trkpt><trkpt lat="44.0429733" lon="12.16021"><ele>154.0</ele><time>2026-04-26T09:38:22.024Z</time></trkpt><trkpt lat="44.042915" lon="12.1602583"><ele>151.5</ele><time>2026-04-26T09:38:23.022Z</time></trkpt><trkpt lat="44.0429033" lon="12.16039"><ele>149.0</ele><time>2026-04-26T09:38:25.023Z</time></trkpt><trkpt lat="44.0430183" lon="12.160435"><ele>149.0</ele><time>2026-04-26T09:38:27.024Z</time></trkpt><trkpt lat="44.0430933" lon="12.1604267"><ele>149.0</ele><time>2026-04-26T09:38:28.024Z</time></trkpt><trkpt lat="44.0431667" lon="12.160435"><ele>149.0</ele><time>2026-04-26T09:38:29.024Z</time></trkpt><trkpt lat="44.0432333" lon="12.1604667"><ele>149.0</ele><time>2026-04-26T09:38:30.024Z</time></trkpt><trkpt lat="44.0431717" lon="12.1606067"><ele>149.0</ele><time>2026-04-26T09:38:32.026Z</time></trkpt><trkpt lat="44.04309" lon="12.1606767"><ele>149.0</ele><time>2026-04-26T09:38:33.023Z</time></trkpt><trkpt lat="44.0429967" lon="12.160755"><ele>146.6</ele><time>2026-04-26T09:38:34.022Z</time></trkpt><trkpt lat="44.0428983" lon="12.1608417"><ele>144.2</ele><time>2026-04-26T09:38:35.024Z</time></trkpt><trkpt lat="44.042805" lon="12.160925"><ele>141.79999999999998</ele><time>2026-04-26T09:38:36.022Z</time></trkpt><trkpt lat="44.0427283" lon="12.1610167"><ele>139.4</ele><time>2026-04-26T09:38:37.029Z</time></trkpt><trkpt lat="44.0426717" lon="12.1611167"><ele>137.0</ele><time>2026-04-26T09:38:38.022Z</time></trkpt><trkpt lat="44.0426367" lon="12.161225"><ele>137.0</ele><time>2026-04-26T09:38:39.024Z</time></trkpt><trkpt lat="44.0426283" lon="12.16132"><ele>137.0</ele><time>2026-04-26T09:38:40.025Z</time></trkpt><trkpt lat="44.0427317" lon="12.1613317"><ele>137.0</ele><time>2026-04-26T09:38:42.024Z</time></trkpt><trkpt lat="44.0428067" lon="12.1612883"><ele>137.0</ele><time>2026-04-26T09:38:43.024Z</time></trkpt><trkpt lat="44.042915" lon="12.1612217"><ele>137.0</ele><time>2026-04-26T09:38:44.024Z</time></trkpt><trkpt lat="44.04303" lon="12.1611683"><ele>137.0</ele><time>2026-04-26T09:38:45.026Z</time></trkpt><trkpt lat="44.0431367" lon="12.1611233"><ele>137.0</ele><time>2026-04-26T09:38:46.024Z</time></trkpt><trkpt lat="44.0432233" lon="12.1611"><ele>137.0</ele><time>2026-04-26T09:38:47.024Z</time></trkpt><trkpt lat="44.043305" lon="12.1610733"><ele>137.0</ele><time>2026-04-26T09:38:48.024Z</time></trkpt><trkpt lat="44.0433733" lon="12.1612067"><ele>137.0</ele><time>2026-04-26T09:38:50.023Z</time></trkpt><trkpt lat="44.04334" lon="12.1612883"><ele>137.0</ele><time>2026-04-26T09:38:51.022Z</time></trkpt><trkpt lat="44.0432617" lon="12.1613717"><ele>137.0</ele><time>2026-04-26T09:38:52.023Z</time></trkpt><trkpt lat="44.0432633" lon="12.1614867"><ele>137.0</ele><time>2026-04-26T09:38:54.023Z</time></trkpt><trkpt lat="44.0433517" lon="12.16158"><ele>137.0</ele><time>2026-04-26T09:38:56.024Z</time></trkpt><trkpt lat="44.04344" lon="12.1615533"><ele>137.0</ele><time>2026-04-26T09:38:57.023Z</time></trkpt><trkpt lat="44.0435083" lon="12.1615767"><ele>135.66666666666666</ele><time>2026-04-26T09:38:58.022Z</time></trkpt><trkpt lat="44.04357" lon="12.16162"><ele>134.33333333333331</ele><time>2026-04-26T09:38:59.023Z</time></trkpt><trkpt lat="44.0436033" lon="12.1617017"><ele>133.0</ele><time>2026-04-26T09:39:00.024Z</time></trkpt><trkpt lat="44.0435817" lon="12.161795"><ele>131.66666666666666</ele><time>2026-04-26T09:39:01.023Z</time></trkpt><trkpt lat="44.0434983" lon="12.1618917"><ele>130.33333333333334</ele><time>2026-04-26T09:39:02.025Z</time></trkpt><trkpt lat="44.0434967" lon="12.162045"><ele>129.0</ele><time>2026-04-26T09:39:04.023Z</time></trkpt><trkpt lat="44.04354" lon="12.1621267"><ele>129.0</ele><time>2026-04-26T09:39:05.023Z</time></trkpt><trkpt lat="44.0436333" lon="12.1621733"><ele>129.0</ele><time>2026-04-26T09:39:06.023Z</time></trkpt><trkpt lat="44.0437383" lon="12.1622267"><ele>129.0</ele><time>2026-04-26T09:39:07.025Z</time></trkpt><trkpt lat="44.043795" lon="12.1623233"><ele>129.0</ele><time>2026-04-26T09:39:08.025Z</time></trkpt><trkpt lat="44.043855" lon="12.1624267"><ele>129.0</ele><time>2026-04-26T09:39:09.021Z</time></trkpt><trkpt lat="44.04388" lon="12.16256"><ele>125.5</ele><time>2026-04-26T09:39:10.024Z</time></trkpt><trkpt lat="44.0438717" lon="12.1627167"><ele>122.0</ele><time>2026-04-26T09:39:11.024Z</time></trkpt><trkpt lat="44.04386" lon="12.162885"><ele>118.5</ele><time>2026-04-26T09:39:12.021Z</time></trkpt><trkpt lat="44.0438267" lon="12.1630367"><ele>115.0</ele><time>2026-04-26T09:39:13.021Z</time></trkpt><trkpt lat="44.0437633" lon="12.1631567"><ele>113.2</ele><time>2026-04-26T09:39:14.022Z</time></trkpt><trkpt lat="44.0437533" lon="12.1632883"><ele>111.4</ele><time>2026-04-26T09:39:15.022Z</time></trkpt><trkpt lat="44.0437567" lon="12.1634233"><ele>109.6</ele><time>2026-04-26T09:39:16.022Z</time></trkpt><trkpt lat="44.043775" lon="12.16356"><ele>107.8</ele><time>2026-04-26T09:39:17.022Z</time></trkpt><trkpt lat="44.0438233" lon="12.1636783"><ele>106.0</ele><time>2026-04-26T09:39:18.022Z</time></trkpt><trkpt lat="44.0439067" lon="12.1637433"><ele>106.00000000000001</ele><time>2026-04-26T09:39:19.022Z</time></trkpt><trkpt lat="44.0440033" lon="12.1637267"><ele>106.0</ele><time>2026-04-26T09:39:20.024Z</time></trkpt><trkpt lat="44.0440867" lon="12.163745"><ele>106.0</ele><time>2026-04-26T09:39:21.023Z</time></trkpt><trkpt lat="44.044165" lon="12.1637817"><ele>106.0</ele><time>2026-04-26T09:39:22.023Z</time></trkpt><trkpt lat="44.0442283" lon="12.16381"><ele>106.00000000000001</ele><time>2026-04-26T09:39:23.022Z</time></trkpt><trkpt lat="44.044265" lon="12.1638917"><ele>106.0</ele><time>2026-04-26T09:39:24.024Z</time></trkpt><trkpt lat="44.04426" lon="12.1639933"><ele>104.19999999999999</ele><time>2026-04-26T09:39:25.027Z</time></trkpt><trkpt lat="44.0442217" lon="12.16409"><ele>102.39999999999999</ele><time>2026-04-26T09:39:26.023Z</time></trkpt><trkpt lat="44.0441783" lon="12.1642017"><ele>100.6</ele><time>2026-04-26T09:39:27.024Z</time></trkpt><trkpt lat="44.0441117" lon="12.1643117"><ele>98.8</ele><time>2026-04-26T09:39:28.023Z</time></trkpt><trkpt lat="44.0440333" lon="12.1643967"><ele>97.0</ele><time>2026-04-26T09:39:29.023Z</time></trkpt><trkpt lat="44.043965" lon="12.1644783"><ele>97.0</ele><time>2026-04-26T09:39:30.023Z</time></trkpt><trkpt lat="44.0439533" lon="12.1645717"><ele>97.0</ele><time>2026-04-26T09:39:31.021Z</time></trkpt><trkpt lat="44.0439783" lon="12.164675"><ele>97.0</ele><time>2026-04-26T09:39:33.023Z</time></trkpt><trkpt lat="44.0440883" lon="12.1646583"><ele>97.0</ele><time>2026-04-26T09:39:35.022Z</time></trkpt><trkpt lat="44.04422" lon="12.164595"><ele>97.0</ele><time>2026-04-26T09:39:37.024Z</time></trkpt><trkpt lat="44.0443" lon="12.1645533"><ele>97.0</ele><time>2026-04-26T09:39:38.025Z</time></trkpt><trkpt lat="44.0443883" lon="12.1645617"><ele>97.0</ele><time>2026-04-26T09:39:39.025Z</time></trkpt><trkpt lat="44.0444767" lon="12.1646133"><ele>97.0</ele><time>2026-04-26T09:39:40.022Z</time></trkpt><trkpt lat="44.0445433" lon="12.1646783"><ele>97.0</ele><time>2026-04-26T09:39:41.023Z</time></trkpt><trkpt lat="44.044575" lon="12.16479"><ele>97.0</ele><time>2026-04-26T09:39:43.023Z</time></trkpt><trkpt lat="44.0444967" lon="12.164905"><ele>95.66666666666667</ele><time>2026-04-26T09:39:45.028Z</time></trkpt><trkpt lat="44.04445" lon="12.1649717"><ele>94.33333333333334</ele><time>2026-04-26T09:39:46.022Z</time></trkpt><trkpt lat="44.0443883" lon="12.1650133"><ele>93.0</ele><time>2026-04-26T09:39:47.022Z</time></trkpt><trkpt lat="44.0443133" lon="12.1651033"><ele>91.66666666666667</ele><time>2026-04-26T09:39:49.023Z</time></trkpt><trkpt lat="44.0442517" lon="12.1651433"><ele>90.33333333333334</ele><time>2026-04-26T09:39:52.024Z</time></trkpt><trkpt lat="44.0442417" lon="12.16523"><ele>89.0</ele><time>2026-04-26T09:40:08.024Z</time></trkpt><trkpt lat="44.044305" lon="12.1653317"><ele>89.0</ele><time>2026-04-26T09:40:10.024Z</time></trkpt><trkpt lat="44.0443517" lon="12.1653967"><ele>89.0</ele><time>2026-04-26T09:40:11.027Z</time></trkpt><trkpt lat="44.0444333" lon="12.1654983"><ele>89.0</ele><time>2026-04-26T09:40:12.024Z</time></trkpt><trkpt lat="44.0445367" lon="12.1655667"><ele>89.0</ele><time>2026-04-26T09:40:13.021Z</time></trkpt><trkpt lat="44.0446533" lon="12.1656483"><ele>89.0</ele><time>2026-04-26T09:40:14.025Z</time></trkpt><trkpt lat="44.0447633" lon="12.1657467"><ele>88.5</ele><time>2026-04-26T09:40:15.025Z</time></trkpt><trkpt lat="44.044875" lon="12.1658383"><ele>88.0</ele><time>2026-04-26T09:40:16.022Z</time></trkpt><trkpt lat="44.0449417" lon="12.16595"><ele>87.5</ele><time>2026-04-26T09:40:17.022Z</time></trkpt><trkpt lat="44.0450383" lon="12.1660583"><ele>87.0</ele><time>2026-04-26T09:40:18.023Z</time></trkpt><trkpt lat="44.0451083" lon="12.1662"><ele>87.0</ele><time>2026-04-26T09:40:19.028Z</time></trkpt><trkpt lat="44.0451333" lon="12.1663633"><ele>87.0</ele><time>2026-04-26T09:40:20.024Z</time></trkpt><trkpt lat="44.04514" lon="12.1665217"><ele>87.0</ele><time>2026-04-26T09:40:21.022Z</time></trkpt><trkpt lat="44.0451267" lon="12.1666783"><ele>87.0</ele><time>2026-04-26T09:40:22.024Z</time></trkpt><trkpt lat="44.0451633" lon="12.1667917"><ele>87.0</ele><time>2026-04-26T09:40:23.025Z</time></trkpt><trkpt lat="44.0451983" lon="12.1669017"><ele>86.83333333333333</ele><time>2026-04-26T09:40:24.026Z</time></trkpt><trkpt lat="44.0451783" lon="12.1670033"><ele>86.66666666666667</ele><time>2026-04-26T09:40:25.023Z</time></trkpt><trkpt lat="44.04522" lon="12.16712"><ele>86.5</ele><time>2026-04-26T09:40:27.024Z</time></trkpt><trkpt lat="44.0452933" lon="12.1672067"><ele>86.33333333333334</ele><time>2026-04-26T09:40:29.023Z</time></trkpt><trkpt lat="44.0453667" lon="12.167235"><ele>86.16666666666667</ele><time>2026-04-26T09:40:30.024Z</time></trkpt><trkpt lat="44.04545" lon="12.1672583"><ele>86.0</ele><time>2026-04-26T09:40:31.024Z</time></trkpt><trkpt lat="44.0455917" lon="12.1672933"><ele>86.0</ele><time>2026-04-26T09:40:32.023Z</time></trkpt><trkpt lat="44.0457467" lon="12.16734"><ele>86.0</ele><time>2026-04-26T09:40:33.026Z</time></trkpt><trkpt lat="44.045905" lon="12.1673683"><ele>86.0</ele><time>2026-04-26T09:40:34.023Z</time></trkpt><trkpt lat="44.0460767" lon="12.1674133"><ele>84.0</ele><time>2026-04-26T09:40:35.025Z</time></trkpt><trkpt lat="44.0462633" lon="12.167395"><ele>82.0</ele><time>2026-04-26T09:40:36.022Z</time></trkpt><trkpt lat="44.0464467" lon="12.1674367"><ele>80.0</ele><time>2026-04-26T09:40:37.023Z</time></trkpt><trkpt lat="44.046625" lon="12.16749"><ele>81.66666666666667</ele><time>2026-04-26T09:40:38.025Z</time></trkpt><trkpt lat="44.0467983" lon="12.167575"><ele>83.33333333333333</ele><time>2026-04-26T09:40:39.023Z</time></trkpt><trkpt lat="44.0469517" lon="12.1677067"><ele>85.0</ele><time>2026-04-26T09:40:40.024Z</time></trkpt><trkpt lat="44.0470933" lon="12.167875"><ele>85.0</ele><time>2026-04-26T09:40:41.024Z</time></trkpt><trkpt lat="44.0472517" lon="12.1680533"><ele>85.0</ele><time>2026-04-26T09:40:42.024Z</time></trkpt><trkpt lat="44.04737" lon="12.1682783"><ele>85.0</ele><time>2026-04-26T09:40:43.023Z</time></trkpt><trkpt lat="44.047485" lon="12.16851"><ele>85.66666666666666</ele><time>2026-04-26T09:40:44.025Z</time></trkpt><trkpt lat="44.0475833" lon="12.1687517"><ele>86.33333333333333</ele><time>2026-04-26T09:40:45.024Z</time></trkpt><trkpt lat="44.0476767" lon="12.169"><ele>87.0</ele><time>2026-04-26T09:40:46.024Z</time></trkpt><trkpt lat="44.0477567" lon="12.1692483"><ele>84.33333333333333</ele><time>2026-04-26T09:40:47.024Z</time></trkpt><trkpt lat="44.0478417" lon="12.1694917"><ele>81.66666666666666</ele><time>2026-04-26T09:40:48.022Z</time></trkpt><trkpt lat="44.0479283" lon="12.16974"><ele>79.0</ele><time>2026-04-26T09:40:49.024Z</time></trkpt><trkpt lat="44.048015" lon="12.169985"><ele>78.0</ele><time>2026-04-26T09:40:50.025Z</time></trkpt><trkpt lat="44.048105" lon="12.1702267"><ele>77.0</ele><time>2026-04-26T09:40:51.024Z</time></trkpt><trkpt lat="44.0481917" lon="12.1704617"><ele>76.0</ele><time>2026-04-26T09:40:52.025Z</time></trkpt><trkpt lat="44.0482717" lon="12.1707"><ele>78.0</ele><time>2026-04-26T09:40:53.025Z</time></trkpt><trkpt lat="44.0483367" lon="12.1709467"><ele>80.0</ele><time>2026-04-26T09:40:54.025Z</time></trkpt><trkpt lat="44.0483817" lon="12.17119"><ele>82.0</ele><time>2026-04-26T09:40:55.025Z</time></trkpt><trkpt lat="44.0484083" lon="12.171435"><ele>81.33333333333333</ele><time>2026-04-26T09:40:56.025Z</time></trkpt><trkpt lat="44.0484333" lon="12.1716767"><ele>80.66666666666667</ele><time>2026-04-26T09:40:57.024Z</time></trkpt><trkpt lat="44.04847" lon="12.1719083"><ele>80.0</ele><time>2026-04-26T09:40:58.025Z</time></trkpt><trkpt lat="44.048525" lon="12.1721233"><ele>80.0</ele><time>2026-04-26T09:40:59.022Z</time></trkpt><trkpt lat="44.0486017" lon="12.17231"><ele>80.0</ele><time>2026-04-26T09:41:00.024Z</time></trkpt><trkpt lat="44.0486933" lon="12.172465"><ele>80.0</ele><time>2026-04-26T09:41:01.025Z</time></trkpt><trkpt lat="44.0487917" lon="12.172595"><ele>80.0</ele><time>2026-04-26T09:41:02.025Z</time></trkpt><trkpt lat="44.0488867" lon="12.1727033"><ele>80.0</ele><time>2026-04-26T09:41:03.025Z</time></trkpt><trkpt lat="44.0489717" lon="12.17279"><ele>80.0</ele><time>2026-04-26T09:41:04.024Z</time></trkpt><trkpt lat="44.0490417" lon="12.1728733"><ele>80.0</ele><time>2026-04-26T09:41:05.025Z</time></trkpt><trkpt lat="44.0490917" lon="12.1729617"><ele>80.0</ele><time>2026-04-26T09:41:06.024Z</time></trkpt><trkpt lat="44.049135" lon="12.17305"><ele>80.0</ele><time>2026-04-26T09:41:07.022Z</time></trkpt><trkpt lat="44.0491183" lon="12.1731817"><ele>79.8</ele><time>2026-04-26T09:41:08.022Z</time></trkpt><trkpt lat="44.049095" lon="12.1733183"><ele>79.6</ele><time>2026-04-26T09:41:09.024Z</time></trkpt><trkpt lat="44.0490567" lon="12.1734683"><ele>79.4</ele><time>2026-04-26T09:41:10.023Z</time></trkpt><trkpt lat="44.0490183" lon="12.173615"><ele>79.2</ele><time>2026-04-26T09:41:11.022Z</time></trkpt><trkpt lat="44.04897" lon="12.1737517"><ele>79.0</ele><time>2026-04-26T09:41:12.023Z</time></trkpt><trkpt lat="44.0489483" lon="12.1739017"><ele>77.75</ele><time>2026-04-26T09:41:13.025Z</time></trkpt><trkpt lat="44.0489033" lon="12.1740483"><ele>76.5</ele><time>2026-04-26T09:41:14.024Z</time></trkpt><trkpt lat="44.04887" lon="12.1742083"><ele>75.25</ele><time>2026-04-26T09:41:15.024Z</time></trkpt><trkpt lat="44.0488283" lon="12.1743733"><ele>74.0</ele><time>2026-04-26T09:41:16.025Z</time></trkpt><trkpt lat="44.0487917" lon="12.1745317"><ele>74.0</ele><time>2026-04-26T09:41:17.023Z</time></trkpt><trkpt lat="44.0487417" lon="12.174665"><ele>74.0</ele><time>2026-04-26T09:41:18.025Z</time></trkpt><trkpt lat="44.0487133" lon="12.1747917"><ele>74.0</ele><time>2026-04-26T09:41:19.026Z</time></trkpt><trkpt lat="44.0487383" lon="12.174895"><ele>74.0</ele><time>2026-04-26T09:41:20.027Z</time></trkpt><trkpt lat="44.0487733" lon="12.1749883"><ele>74.0</ele><time>2026-04-26T09:41:21.026Z</time></trkpt><trkpt lat="44.048855" lon="12.1750517"><ele>73.5</ele><time>2026-04-26T09:41:22.024Z</time></trkpt><trkpt lat="44.0489433" lon="12.1751117"><ele>73.0</ele><time>2026-04-26T09:41:23.024Z</time></trkpt><trkpt lat="44.0490383" lon="12.1751933"><ele>72.5</ele><time>2026-04-26T09:41:24.024Z</time></trkpt><trkpt lat="44.04917" lon="12.1752467"><ele>72.0</ele><time>2026-04-26T09:41:25.024Z</time></trkpt><trkpt lat="44.0493233" lon="12.175255"><ele>72.0</ele><time>2026-04-26T09:41:26.024Z</time></trkpt><trkpt lat="44.0494817" lon="12.1752417"><ele>72.0</ele><time>2026-04-26T09:41:27.023Z</time></trkpt><trkpt lat="44.04963" lon="12.1752917"><ele>72.0</ele><time>2026-04-26T09:41:28.024Z</time></trkpt><trkpt lat="44.0497967" lon="12.1752767"><ele>72.0</ele><time>2026-04-26T09:41:29.024Z</time></trkpt><trkpt lat="44.049945" lon="12.1752767"><ele>72.0</ele><time>2026-04-26T09:41:30.025Z</time></trkpt><trkpt lat="44.0500817" lon="12.1752967"><ele>72.0</ele><time>2026-04-26T09:41:31.026Z</time></trkpt><trkpt lat="44.0502117" lon="12.1753183"><ele>72.0</ele><time>2026-04-26T09:41:32.026Z</time></trkpt><trkpt lat="44.0503233" lon="12.1753883"><ele>72.0</ele><time>2026-04-26T09:41:33.028Z</time></trkpt><trkpt lat="44.0504433" lon="12.1754533"><ele>72.0</ele><time>2026-04-26T09:41:34.024Z</time></trkpt><trkpt lat="44.0505733" lon="12.17545"><ele>72.0</ele><time>2026-04-26T09:41:35.025Z</time></trkpt><trkpt lat="44.05066" lon="12.1755467"><ele>72.0</ele><time>2026-04-26T09:41:36.024Z</time></trkpt><trkpt lat="44.050795" lon="12.1755917"><ele>72.2</ele><time>2026-04-26T09:41:37.023Z</time></trkpt><trkpt lat="44.0509133" lon="12.1756633"><ele>72.4</ele><time>2026-04-26T09:41:38.025Z</time></trkpt><trkpt lat="44.0510267" lon="12.1757183"><ele>72.6</ele><time>2026-04-26T09:41:39.026Z</time></trkpt><trkpt lat="44.0511233" lon="12.1757683"><ele>72.8</ele><time>2026-04-26T09:41:40.026Z</time></trkpt><trkpt lat="44.0511983" lon="12.1758183"><ele>73.0</ele><time>2026-04-26T09:41:41.024Z</time></trkpt><trkpt lat="44.0512583" lon="12.1758667"><ele>72.6</ele><time>2026-04-26T09:41:42.026Z</time></trkpt><trkpt lat="44.0513167" lon="12.175985"><ele>72.19999999999999</ele><time>2026-04-26T09:41:44.022Z</time></trkpt><trkpt lat="44.0512917" lon="12.1761067"><ele>71.8</ele><time>2026-04-26T09:41:46.023Z</time></trkpt><trkpt lat="44.0512267" lon="12.1761983"><ele>71.39999999999999</ele><time>2026-04-26T09:41:47.023Z</time></trkpt><trkpt lat="44.051165" lon="12.1763017"><ele>71.0</ele><time>2026-04-26T09:41:48.024Z</time></trkpt><trkpt lat="44.0510933" lon="12.176435"><ele>70.75</ele><time>2026-04-26T09:41:49.022Z</time></trkpt><trkpt lat="44.0510267" lon="12.1766083"><ele>70.5</ele><time>2026-04-26T09:41:50.023Z</time></trkpt><trkpt lat="44.0509617" lon="12.17679"><ele>70.25</ele><time>2026-04-26T09:41:51.023Z</time></trkpt><trkpt lat="44.0509083" lon="12.1769567"><ele>70.0</ele><time>2026-04-26T09:41:52.024Z</time></trkpt><trkpt lat="44.0508533" lon="12.1771033"><ele>70.0</ele><time>2026-04-26T09:41:53.022Z</time></trkpt><trkpt lat="44.0507867" lon="12.1772367"><ele>70.0</ele><time>2026-04-26T09:41:54.028Z</time></trkpt><trkpt lat="44.0506983" lon="12.1773483"><ele>70.0</ele><time>2026-04-26T09:41:55.024Z</time></trkpt><trkpt lat="44.0505867" lon="12.17744"><ele>70.0</ele><time>2026-04-26T09:41:56.025Z</time></trkpt><trkpt lat="44.0504733" lon="12.1775183"><ele>70.8</ele><time>2026-04-26T09:41:57.024Z</time></trkpt><trkpt lat="44.0503717" lon="12.1775867"><ele>71.6</ele><time>2026-04-26T09:41:58.024Z</time></trkpt><trkpt lat="44.0502817" lon="12.1776433"><ele>72.4</ele><time>2026-04-26T09:41:59.022Z</time></trkpt><trkpt lat="44.0502017" lon="12.1776867"><ele>73.2</ele><time>2026-04-26T09:42:00.024Z</time></trkpt><trkpt lat="44.0501317" lon="12.1777367"><ele>74.0</ele><time>2026-04-26T09:42:01.022Z</time></trkpt><trkpt lat="44.0500583" lon="12.1777867"><ele>74.0</ele><time>2026-04-26T09:42:02.025Z</time></trkpt><trkpt lat="44.0499733" lon="12.1778283"><ele>74.0</ele><time>2026-04-26T09:42:03.026Z</time></trkpt><trkpt lat="44.0498617" lon="12.1778783"><ele>74.0</ele><time>2026-04-26T09:42:04.022Z</time></trkpt><trkpt lat="44.0497383" lon="12.177935"><ele>74.0</ele><time>2026-04-26T09:42:05.028Z</time></trkpt><trkpt lat="44.0496067" lon="12.177995"><ele>74.25</ele><time>2026-04-26T09:42:06.022Z</time></trkpt><trkpt lat="44.049475" lon="12.17806"><ele>74.5</ele><time>2026-04-26T09:42:07.024Z</time></trkpt><trkpt lat="44.0493567" lon="12.1781117"><ele>74.75</ele><time>2026-04-26T09:42:08.023Z</time></trkpt><trkpt lat="44.04924" lon="12.1781633"><ele>75.0</ele><time>2026-04-26T09:42:09.023Z</time></trkpt><trkpt lat="44.0491233" lon="12.1782133"><ele>76.25</ele><time>2026-04-26T09:42:10.023Z</time></trkpt><trkpt lat="44.049005" lon="12.178265"><ele>77.5</ele><time>2026-04-26T09:42:11.023Z</time></trkpt><trkpt lat="44.0488783" lon="12.1783267"><ele>78.75</ele><time>2026-04-26T09:42:12.023Z</time></trkpt><trkpt lat="44.04874" lon="12.1783917"><ele>80.0</ele><time>2026-04-26T09:42:13.023Z</time></trkpt><trkpt lat="44.0486083" lon="12.178455"><ele>80.0</ele><time>2026-04-26T09:42:14.023Z</time></trkpt><trkpt lat="44.0484883" lon="12.1785183"><ele>80.0</ele><time>2026-04-26T09:42:15.022Z</time></trkpt><trkpt lat="44.048375" lon="12.1785817"><ele>80.0</ele><time>2026-04-26T09:42:16.026Z</time></trkpt><trkpt lat="44.0482533" lon="12.17865"><ele>80.0</ele><time>2026-04-26T09:42:17.021Z</time></trkpt><trkpt lat="44.0481167" lon="12.17873"><ele>81.33333333333334</ele><time>2026-04-26T09:42:18.022Z</time></trkpt><trkpt lat="44.047965" lon="12.1788183"><ele>82.66666666666667</ele><time>2026-04-26T09:42:19.024Z</time></trkpt><trkpt lat="44.0478133" lon="12.1788967"><ele>84.0</ele><time>2026-04-26T09:42:20.023Z</time></trkpt><trkpt lat="44.0476617" lon="12.17894"><ele>84.0</ele><time>2026-04-26T09:42:21.022Z</time></trkpt><trkpt lat="44.047525" lon="12.1789533"><ele>84.0</ele><time>2026-04-26T09:42:22.025Z</time></trkpt><trkpt lat="44.0474017" lon="12.178925"><ele>84.0</ele><time>2026-04-26T09:42:23.021Z</time></trkpt><trkpt lat="44.0472917" lon="12.178855"><ele>84.0</ele><time>2026-04-26T09:42:24.023Z</time></trkpt><trkpt lat="44.0472" lon="12.17874"><ele>87.4</ele><time>2026-04-26T09:42:25.024Z</time></trkpt><trkpt lat="44.0471233" lon="12.1786067"><ele>90.80000000000001</ele><time>2026-04-26T09:42:26.023Z</time></trkpt><trkpt lat="44.0470717" lon="12.1784883"><ele>94.19999999999999</ele><time>2026-04-26T09:42:27.024Z</time></trkpt><trkpt lat="44.0470233" lon="12.1784067"><ele>97.6</ele><time>2026-04-26T09:42:28.024Z</time></trkpt><trkpt lat="44.0469467" lon="12.1783417"><ele>101.0</ele><time>2026-04-26T09:42:30.022Z</time></trkpt><trkpt lat="44.046895" lon="12.17841"><ele>101.0</ele><time>2026-04-26T09:42:31.023Z</time></trkpt><trkpt lat="44.04686" lon="12.1784983"><ele>101.0</ele><time>2026-04-26T09:42:32.025Z</time></trkpt><trkpt lat="44.04684" lon="12.1786217"><ele>101.0</ele><time>2026-04-26T09:42:33.027Z</time></trkpt><trkpt lat="44.0468383" lon="12.1787733"><ele>101.0</ele><time>2026-04-26T09:42:34.024Z</time></trkpt><trkpt lat="44.0468533" lon="12.1789567"><ele>101.0</ele><time>2026-04-26T09:42:35.022Z</time></trkpt><trkpt lat="44.0468533" lon="12.1791267"><ele>100.6</ele><time>2026-04-26T09:42:36.022Z</time></trkpt><trkpt lat="44.04684" lon="12.17928"><ele>100.19999999999999</ele><time>2026-04-26T09:42:37.024Z</time></trkpt><trkpt lat="44.0468067" lon="12.1794133"><ele>99.80000000000001</ele><time>2026-04-26T09:42:38.024Z</time></trkpt><trkpt lat="44.0467567" lon="12.1795317"><ele>99.4</ele><time>2026-04-26T09:42:39.024Z</time></trkpt><trkpt lat="44.04669" lon="12.1796283"><ele>99.0</ele><time>2026-04-26T09:42:40.027Z</time></trkpt><trkpt lat="44.04662" lon="12.1797017"><ele>99.2</ele><time>2026-04-26T09:42:41.024Z</time></trkpt><trkpt lat="44.046545" lon="12.1797567"><ele>99.4</ele><time>2026-04-26T09:42:42.024Z</time></trkpt><trkpt lat="44.0464817" lon="12.1797967"><ele>99.6</ele><time>2026-04-26T09:42:43.025Z</time></trkpt><trkpt lat="44.0464217" lon="12.179915"><ele>99.8</ele><time>2026-04-26T09:42:45.025Z</time></trkpt><trkpt lat="44.046425" lon="12.1801183"><ele>100.0</ele><time>2026-04-26T09:42:47.024Z</time></trkpt><trkpt lat="44.046455" lon="12.180275"><ele>100.0</ele><time>2026-04-26T09:42:48.022Z</time></trkpt><trkpt lat="44.0464817" lon="12.1804317"><ele>100.0</ele><time>2026-04-26T09:42:49.026Z</time></trkpt><trkpt lat="44.046505" lon="12.1806067"><ele>100.0</ele><time>2026-04-26T09:42:50.022Z</time></trkpt><trkpt lat="44.0465333" lon="12.1807933"><ele>100.0</ele><time>2026-04-26T09:42:51.024Z</time></trkpt><trkpt lat="44.04656" lon="12.1809917"><ele>99.0</ele><time>2026-04-26T09:42:52.023Z</time></trkpt><trkpt lat="44.04658" lon="12.1811817"><ele>98.0</ele><time>2026-04-26T09:42:53.023Z</time></trkpt><trkpt lat="44.0465933" lon="12.1813767"><ele>97.0</ele><time>2026-04-26T09:42:54.023Z</time></trkpt><trkpt lat="44.0466117" lon="12.1815833"><ele>96.0</ele><time>2026-04-26T09:42:55.024Z</time></trkpt><trkpt lat="44.0466433" lon="12.1818"><ele>94.33333333333333</ele><time>2026-04-26T09:42:56.024Z</time></trkpt><trkpt lat="44.0466767" lon="12.182025"><ele>92.66666666666666</ele><time>2026-04-26T09:42:57.024Z</time></trkpt><trkpt lat="44.0467067" lon="12.1822617"><ele>91.0</ele><time>2026-04-26T09:42:58.023Z</time></trkpt><trkpt lat="44.0467383" lon="12.1825"><ele>89.33333333333333</ele><time>2026-04-26T09:42:59.025Z</time></trkpt><trkpt lat="44.0467667" lon="12.1827333"><ele>87.66666666666667</ele><time>2026-04-26T09:43:00.023Z</time></trkpt><trkpt lat="44.046795" lon="12.182955"><ele>86.0</ele><time>2026-04-26T09:43:01.026Z</time></trkpt><trkpt lat="44.0468217" lon="12.1831617"><ele>85.66666666666667</ele><time>2026-04-26T09:43:02.025Z</time></trkpt><trkpt lat="44.046845" lon="12.183375"><ele>85.33333333333333</ele><time>2026-04-26T09:43:03.023Z</time></trkpt><trkpt lat="44.0468633" lon="12.1836"><ele>85.0</ele><time>2026-04-26T09:43:04.023Z</time></trkpt><trkpt lat="44.0468767" lon="12.1838417"><ele>84.0</ele><time>2026-04-26T09:43:05.024Z</time></trkpt><trkpt lat="44.0468917" lon="12.1840817"><ele>83.0</ele><time>2026-04-26T09:43:06.024Z</time></trkpt><trkpt lat="44.0469033" lon="12.1843167"><ele>82.0</ele><time>2026-04-26T09:43:07.023Z</time></trkpt><trkpt lat="44.0469083" lon="12.1845433"><ele>82.0</ele><time>2026-04-26T09:43:08.024Z</time></trkpt><trkpt lat="44.0469167" lon="12.1847733"><ele>82.0</ele><time>2026-04-26T09:43:09.024Z</time></trkpt><trkpt lat="44.0469233" lon="12.1850167"><ele>82.0</ele><time>2026-04-26T09:43:10.024Z</time></trkpt><trkpt lat="44.0469217" lon="12.1852633"><ele>81.33333333333333</ele><time>2026-04-26T09:43:11.025Z</time></trkpt><trkpt lat="44.046915" lon="12.1855"><ele>80.66666666666667</ele><time>2026-04-26T09:43:12.023Z</time></trkpt><trkpt lat="44.0469067" lon="12.1857183"><ele>80.0</ele><time>2026-04-26T09:43:13.025Z</time></trkpt><trkpt lat="44.04689" lon="12.18591"><ele>79.75</ele><time>2026-04-26T09:43:14.022Z</time></trkpt><trkpt lat="44.04686" lon="12.18608"><ele>79.5</ele><time>2026-04-26T09:43:15.023Z</time></trkpt><trkpt lat="44.0468133" lon="12.1862283"><ele>79.25</ele><time>2026-04-26T09:43:16.022Z</time></trkpt><trkpt lat="44.0467517" lon="12.1863583"><ele>79.0</ele><time>2026-04-26T09:43:17.023Z</time></trkpt><trkpt lat="44.0466867" lon="12.18648"><ele>78.0</ele><time>2026-04-26T09:43:18.024Z</time></trkpt><trkpt lat="44.0466233" lon="12.186595"><ele>77.0</ele><time>2026-04-26T09:43:19.023Z</time></trkpt><trkpt lat="44.0465717" lon="12.1867117"><ele>76.0</ele><time>2026-04-26T09:43:20.022Z</time></trkpt><trkpt lat="44.0465483" lon="12.18684"><ele>75.0</ele><time>2026-04-26T09:43:21.023Z</time></trkpt><trkpt lat="44.0465533" lon="12.1869883"><ele>74.0</ele><time>2026-04-26T09:43:22.023Z</time></trkpt><trkpt lat="44.0465633" lon="12.1871483"><ele>74.0</ele><time>2026-04-26T09:43:23.022Z</time></trkpt><trkpt lat="44.0465533" lon="12.18731"><ele>74.0</ele><time>2026-04-26T09:43:24.025Z</time></trkpt><trkpt lat="44.0465167" lon="12.1874733"><ele>74.0</ele><time>2026-04-26T09:43:25.024Z</time></trkpt><trkpt lat="44.0464483" lon="12.1876383"><ele>74.0</ele><time>2026-04-26T09:43:26.022Z</time></trkpt><trkpt lat="44.0463567" lon="12.1878183"><ele>72.0</ele><time>2026-04-26T09:43:27.026Z</time></trkpt><trkpt lat="44.046255" lon="12.18802"><ele>70.0</ele><time>2026-04-26T09:43:28.021Z</time></trkpt><trkpt lat="44.0461433" lon="12.1882433"><ele>68.0</ele><time>2026-04-26T09:43:29.024Z</time></trkpt><trkpt lat="44.0460283" lon="12.1884783"><ele>68.0</ele><time>2026-04-26T09:43:30.023Z</time></trkpt><trkpt lat="44.0459117" lon="12.1887183"><ele>68.0</ele><time>2026-04-26T09:43:31.024Z</time></trkpt><trkpt lat="44.045795" lon="12.1889533"><ele>68.0</ele><time>2026-04-26T09:43:32.026Z</time></trkpt><trkpt lat="44.0456783" lon="12.1891833"><ele>68.0</ele><time>2026-04-26T09:43:33.026Z</time></trkpt><trkpt lat="44.0455683" lon="12.1894167"><ele>68.0</ele><time>2026-04-26T09:43:34.025Z</time></trkpt><trkpt lat="44.0454567" lon="12.1896383"><ele>68.0</ele><time>2026-04-26T09:43:35.026Z</time></trkpt><trkpt lat="44.0453483" lon="12.1898517"><ele>70.0</ele><time>2026-04-26T09:43:36.024Z</time></trkpt><trkpt lat="44.0452383" lon="12.1900417"><ele>72.0</ele><time>2026-04-26T09:43:37.026Z</time></trkpt><trkpt lat="44.0451217" lon="12.190195"><ele>74.0</ele><time>2026-04-26T09:43:38.026Z</time></trkpt><trkpt lat="44.0449883" lon="12.1903067"><ele>75.0</ele><time>2026-04-26T09:43:39.024Z</time></trkpt><trkpt lat="44.0448467" lon="12.1903683"><ele>76.0</ele><time>2026-04-26T09:43:40.024Z</time></trkpt><trkpt lat="44.044695" lon="12.1903917"><ele>77.0</ele><time>2026-04-26T09:43:41.023Z</time></trkpt><trkpt lat="44.0445333" lon="12.1903733"><ele>77.0</ele><time>2026-04-26T09:43:42.023Z</time></trkpt><trkpt lat="44.04437" lon="12.1903183"><ele>77.0</ele><time>2026-04-26T09:43:43.023Z</time></trkpt><trkpt lat="44.0442133" lon="12.1902417"><ele>77.0</ele><time>2026-04-26T09:43:44.024Z</time></trkpt><trkpt lat="44.0440517" lon="12.1901567"><ele>78.0</ele><time>2026-04-26T09:43:45.024Z</time></trkpt><trkpt lat="44.0438867" lon="12.190075"><ele>79.0</ele><time>2026-04-26T09:43:46.025Z</time></trkpt><trkpt lat="44.0437183" lon="12.189995"><ele>80.0</ele><time>2026-04-26T09:43:47.024Z</time></trkpt><trkpt lat="44.0435433" lon="12.1899383"><ele>80.0</ele><time>2026-04-26T09:43:48.024Z</time></trkpt><trkpt lat="44.0433633" lon="12.18991"><ele>80.0</ele><time>2026-04-26T09:43:49.023Z</time></trkpt><trkpt lat="44.04319" lon="12.1899067"><ele>80.0</ele><time>2026-04-26T09:43:50.025Z</time></trkpt><trkpt lat="44.0430283" lon="12.1898917"><ele>80.75</ele><time>2026-04-26T09:43:51.023Z</time></trkpt><trkpt lat="44.042885" lon="12.189845"><ele>81.5</ele><time>2026-04-26T09:43:52.024Z</time></trkpt><trkpt lat="44.04276" lon="12.189785"><ele>82.25</ele><time>2026-04-26T09:43:53.023Z</time></trkpt><trkpt lat="44.0426417" lon="12.1897333"><ele>83.0</ele><time>2026-04-26T09:43:54.025Z</time></trkpt><trkpt lat="44.042525" lon="12.1897183"><ele>83.5</ele><time>2026-04-26T09:43:55.023Z</time></trkpt><trkpt lat="44.042405" lon="12.18975"><ele>84.0</ele><time>2026-04-26T09:43:56.022Z</time></trkpt><trkpt lat="44.042285" lon="12.189835"><ele>84.5</ele><time>2026-04-26T09:43:57.024Z</time></trkpt><trkpt lat="44.0421617" lon="12.1899433"><ele>85.0</ele><time>2026-04-26T09:43:58.022Z</time></trkpt><trkpt lat="44.0420217" lon="12.1900383"><ele>85.0</ele><time>2026-04-26T09:43:59.022Z</time></trkpt><trkpt lat="44.04187" lon="12.1900833"><ele>85.0</ele><time>2026-04-26T09:44:00.024Z</time></trkpt><trkpt lat="44.0417067" lon="12.190085"><ele>85.0</ele><time>2026-04-26T09:44:01.021Z</time></trkpt><trkpt lat="44.0415517" lon="12.1900733"><ele>84.25</ele><time>2026-04-26T09:44:02.024Z</time></trkpt><trkpt lat="44.0414067" lon="12.190085"><ele>83.5</ele><time>2026-04-26T09:44:03.024Z</time></trkpt><trkpt lat="44.0412633" lon="12.1901333"><ele>82.75</ele><time>2026-04-26T09:44:04.025Z</time></trkpt><trkpt lat="44.0411317" lon="12.1902267"><ele>82.0</ele><time>2026-04-26T09:44:05.023Z</time></trkpt><trkpt lat="44.04101" lon="12.1903583"><ele>82.0</ele><time>2026-04-26T09:44:06.025Z</time></trkpt><trkpt lat="44.0408983" lon="12.190515"><ele>82.0</ele><time>2026-04-26T09:44:07.023Z</time></trkpt><trkpt lat="44.040785" lon="12.190665"><ele>82.0</ele><time>2026-04-26T09:44:08.024Z</time></trkpt><trkpt lat="44.04066" lon="12.1907833"><ele>85.66666666666666</ele><time>2026-04-26T09:44:09.024Z</time></trkpt><trkpt lat="44.0405117" lon="12.19086"><ele>89.33333333333333</ele><time>2026-04-26T09:44:10.025Z</time></trkpt><trkpt lat="44.0403517" lon="12.1908983"><ele>93.0</ele><time>2026-04-26T09:44:11.023Z</time></trkpt><trkpt lat="44.0401867" lon="12.190905"><ele>93.0</ele><time>2026-04-26T09:44:12.02Z</time></trkpt><trkpt lat="44.0400333" lon="12.190875"><ele>93.0</ele><time>2026-04-26T09:44:13.024Z</time></trkpt><trkpt lat="44.0398967" lon="12.1908167"><ele>93.0</ele><time>2026-04-26T09:44:14.022Z</time></trkpt><trkpt lat="44.0397767" lon="12.19075"><ele>93.0</ele><time>2026-04-26T09:44:15.022Z</time></trkpt><trkpt lat="44.0396667" lon="12.190705"><ele>92.2</ele><time>2026-04-26T09:44:16.023Z</time></trkpt><trkpt lat="44.0395683" lon="12.1906983"><ele>91.4</ele><time>2026-04-26T09:44:17.022Z</time></trkpt><trkpt lat="44.03948" lon="12.19073"><ele>90.60000000000001</ele><time>2026-04-26T09:44:18.022Z</time></trkpt><trkpt lat="44.0393933" lon="12.1908033"><ele>89.80000000000001</ele><time>2026-04-26T09:44:19.023Z</time></trkpt><trkpt lat="44.039315" lon="12.190915"><ele>89.0</ele><time>2026-04-26T09:44:20.02Z</time></trkpt><trkpt lat="44.0392567" lon="12.1910567"><ele>89.0</ele><time>2026-04-26T09:44:21.022Z</time></trkpt><trkpt lat="44.0392167" lon="12.19121"><ele>89.0</ele><time>2026-04-26T09:44:22.022Z</time></trkpt><trkpt lat="44.0391883" lon="12.191365"><ele>89.0</ele><time>2026-04-26T09:44:23.026Z</time></trkpt><trkpt lat="44.0391583" lon="12.191525"><ele>89.0</ele><time>2026-04-26T09:44:24.023Z</time></trkpt><trkpt lat="44.03911" lon="12.1916867"><ele>87.5</ele><time>2026-04-26T09:44:25.021Z</time></trkpt><trkpt lat="44.039025" lon="12.19184"><ele>86.0</ele><time>2026-04-26T09:44:26.023Z</time></trkpt><trkpt lat="44.0389083" lon="12.1919717"><ele>84.5</ele><time>2026-04-26T09:44:27.022Z</time></trkpt><trkpt lat="44.03877" lon="12.1920783"><ele>83.0</ele><time>2026-04-26T09:44:28.023Z</time></trkpt><trkpt lat="44.0386317" lon="12.1921717"><ele>83.0</ele><time>2026-04-26T09:44:29.02Z</time></trkpt><trkpt lat="44.0385033" lon="12.1922717"><ele>83.0</ele><time>2026-04-26T09:44:30.022Z</time></trkpt><trkpt lat="44.0383967" lon="12.192395"><ele>83.0</ele><time>2026-04-26T09:44:31.029Z</time></trkpt><trkpt lat="44.0383067" lon="12.1925517"><ele>83.0</ele><time>2026-04-26T09:44:32.024Z</time></trkpt><trkpt lat="44.038245" lon="12.1927333"><ele>83.0</ele><time>2026-04-26T09:44:33.023Z</time></trkpt><trkpt lat="44.0382183" lon="12.192935"><ele>83.0</ele><time>2026-04-26T09:44:34.022Z</time></trkpt><trkpt lat="44.0382117" lon="12.19313"><ele>83.0</ele><time>2026-04-26T09:44:35.024Z</time></trkpt><trkpt lat="44.0382133" lon="12.1932933"><ele>83.0</ele><time>2026-04-26T09:44:36.023Z</time></trkpt><trkpt lat="44.0382217" lon="12.1934267"><ele>83.2</ele><time>2026-04-26T09:44:37.025Z</time></trkpt><trkpt lat="44.0382317" lon="12.193535"><ele>83.4</ele><time>2026-04-26T09:44:38.023Z</time></trkpt><trkpt lat="44.0382533" lon="12.19367"><ele>83.60000000000001</ele><time>2026-04-26T09:44:40.02Z</time></trkpt><trkpt lat="44.03831" lon="12.1937283"><ele>83.80000000000001</ele><time>2026-04-26T09:44:42.022Z</time></trkpt><trkpt lat="44.03841" lon="12.1937333"><ele>84.0</ele><time>2026-04-26T09:44:44.027Z</time></trkpt><trkpt lat="44.0385117" lon="12.1937533"><ele>86.0</ele><time>2026-04-26T09:44:46.023Z</time></trkpt><trkpt lat="44.03859" lon="12.193775"><ele>88.0</ele><time>2026-04-26T09:44:48.022Z</time></trkpt><trkpt lat="44.0386533" lon="12.1937633"><ele>90.0</ele><time>2026-04-26T09:44:50.025Z</time></trkpt><trkpt lat="44.0386867" lon="12.19366"><ele>92.0</ele><time>2026-04-26T09:44:52.024Z</time></trkpt><trkpt lat="44.0387267" lon="12.1935283"><ele>94.0</ele><time>2026-04-26T09:44:54.025Z</time></trkpt><trkpt lat="44.0388017" lon="12.1934133"><ele>96.0</ele><time>2026-04-26T09:44:56.027Z</time></trkpt><trkpt lat="44.03888" lon="12.193365"><ele>96.0</ele><time>2026-04-26T09:44:58.024Z</time></trkpt><trkpt lat="44.0389683" lon="12.1934033"><ele>96.0</ele><time>2026-04-26T09:45:00.024Z</time></trkpt><trkpt lat="44.03907" lon="12.193475"><ele>96.0</ele><time>2026-04-26T09:45:02.022Z</time></trkpt><trkpt lat="44.0391233" lon="12.1935267"><ele>96.0</ele><time>2026-04-26T09:45:03.025Z</time></trkpt><trkpt lat="44.0391783" lon="12.1935767"><ele>96.0</ele><time>2026-04-26T09:45:04.022Z</time></trkpt><trkpt lat="44.0392383" lon="12.1936217"><ele>96.0</ele><time>2026-04-26T09:45:05.026Z</time></trkpt><trkpt lat="44.0393033" lon="12.1936717"><ele>97.83333333333333</ele><time>2026-04-26T09:45:06.026Z</time></trkpt><trkpt lat="44.0393683" lon="12.1937283"><ele>99.66666666666666</ele><time>2026-04-26T09:45:07.023Z</time></trkpt><trkpt lat="44.039435" lon="12.1937767"><ele>101.5</ele><time>2026-04-26T09:45:08.021Z</time></trkpt><trkpt lat="44.0395017" lon="12.1938317"><ele>103.33333333333333</ele><time>2026-04-26T09:45:09.023Z</time></trkpt><trkpt lat="44.0395717" lon="12.1938917"><ele>105.16666666666666</ele><time>2026-04-26T09:45:10.021Z</time></trkpt><trkpt lat="44.0396417" lon="12.193955"><ele>107.0</ele><time>2026-04-26T09:45:11.022Z</time></trkpt><trkpt lat="44.0397133" lon="12.1940283"><ele>107.39999999999999</ele><time>2026-04-26T09:45:12.022Z</time></trkpt><trkpt lat="44.039785" lon="12.1941017"><ele>107.79999999999998</ele><time>2026-04-26T09:45:13.023Z</time></trkpt><trkpt lat="44.0398583" lon="12.194185"><ele>108.2</ele><time>2026-04-26T09:45:14.021Z</time></trkpt><trkpt lat="44.0399317" lon="12.1942633"><ele>108.6</ele><time>2026-04-26T09:45:15.023Z</time></trkpt><trkpt lat="44.0400033" lon="12.194345"><ele>109.0</ele><time>2026-04-26T09:45:16.022Z</time></trkpt><trkpt lat="44.040075" lon="12.1944233"><ele>111.2</ele><time>2026-04-26T09:45:17.022Z</time></trkpt><trkpt lat="44.040155" lon="12.1945017"><ele>113.4</ele><time>2026-04-26T09:45:18.021Z</time></trkpt><trkpt lat="44.04024" lon="12.194585"><ele>115.6</ele><time>2026-04-26T09:45:19.024Z</time></trkpt><trkpt lat="44.040315" lon="12.1946633"><ele>117.8</ele><time>2026-04-26T09:45:20.022Z</time></trkpt><trkpt lat="44.040385" lon="12.1947383"><ele>120.0</ele><time>2026-04-26T09:45:21.024Z</time></trkpt><trkpt lat="44.04045" lon="12.1948017"><ele>121.0</ele><time>2026-04-26T09:45:22.024Z</time></trkpt><trkpt lat="44.0405033" lon="12.1948617"><ele>122.0</ele><time>2026-04-26T09:45:23.023Z</time></trkpt><trkpt lat="44.0405783" lon="12.1949817"><ele>123.0</ele><time>2026-04-26T09:45:25.022Z</time></trkpt><trkpt lat="44.0406" lon="12.19512"><ele>124.0</ele><time>2026-04-26T09:45:27.024Z</time></trkpt><trkpt lat="44.0405733" lon="12.1952983"><ele>125.0</ele><time>2026-04-26T09:45:29.021Z</time></trkpt><trkpt lat="44.0405567" lon="12.195405"><ele>125.0</ele><time>2026-04-26T09:45:30.022Z</time></trkpt><trkpt lat="44.04054" lon="12.1955167"><ele>125.0</ele><time>2026-04-26T09:45:31.023Z</time></trkpt><trkpt lat="44.040525" lon="12.1956167"><ele>125.0</ele><time>2026-04-26T09:45:32.023Z</time></trkpt><trkpt lat="44.0404867" lon="12.195755"><ele>125.0</ele><time>2026-04-26T09:45:34.024Z</time></trkpt><trkpt lat="44.04042" lon="12.195845"><ele>125.0</ele><time>2026-04-26T09:45:36.022Z</time></trkpt><trkpt lat="44.0403267" lon="12.1959317"><ele>127.16666666666666</ele><time>2026-04-26T09:45:38.023Z</time></trkpt><trkpt lat="44.0402233" lon="12.1960333"><ele>129.33333333333331</ele><time>2026-04-26T09:45:40.024Z</time></trkpt><trkpt lat="44.0401667" lon="12.196095"><ele>131.5</ele><time>2026-04-26T09:45:41.025Z</time></trkpt><trkpt lat="44.0401083" lon="12.1961567"><ele>133.66666666666666</ele><time>2026-04-26T09:45:42.023Z</time></trkpt><trkpt lat="44.04006" lon="12.196215"><ele>135.83333333333334</ele><time>2026-04-26T09:45:43.023Z</time></trkpt><trkpt lat="44.0400067" lon="12.1963367"><ele>138.0</ele><time>2026-04-26T09:45:45.024Z</time></trkpt><trkpt lat="44.0399967" lon="12.1964883"><ele>140.6</ele><time>2026-04-26T09:45:47.025Z</time></trkpt><trkpt lat="44.0400283" lon="12.1966233"><ele>143.20000000000002</ele><time>2026-04-26T09:45:49.024Z</time></trkpt><trkpt lat="44.0401" lon="12.1967067"><ele>145.8</ele><time>2026-04-26T09:45:51.024Z</time></trkpt><trkpt lat="44.0401833" lon="12.1967617"><ele>148.4</ele><time>2026-04-26T09:45:53.023Z</time></trkpt><trkpt lat="44.0402867" lon="12.1968"><ele>151.0</ele><time>2026-04-26T09:45:55.021Z</time></trkpt><trkpt lat="44.04041" lon="12.19683"><ele>151.0</ele><time>2026-04-26T09:45:57.023Z</time></trkpt><trkpt lat="44.040475" lon="12.19684"><ele>151.0</ele><time>2026-04-26T09:45:58.027Z</time></trkpt><trkpt lat="44.04054" lon="12.1968533"><ele>151.0</ele><time>2026-04-26T09:45:59.022Z</time></trkpt><trkpt lat="44.0406033" lon="12.196865"><ele>151.0</ele><time>2026-04-26T09:46:00.023Z</time></trkpt><trkpt lat="44.0406683" lon="12.1968767"><ele>151.0</ele><time>2026-04-26T09:46:01.024Z</time></trkpt><trkpt lat="44.0407883" lon="12.19691"><ele>151.0</ele><time>2026-04-26T09:46:03.023Z</time></trkpt><trkpt lat="44.0409017" lon="12.19697"><ele>152.8</ele><time>2026-04-26T09:46:05.024Z</time></trkpt><trkpt lat="44.0409967" lon="12.1970867"><ele>154.6</ele><time>2026-04-26T09:46:07.022Z</time></trkpt><trkpt lat="44.0410333" lon="12.1971583"><ele>156.4</ele><time>2026-04-26T09:46:08.023Z</time></trkpt><trkpt lat="44.04107" lon="12.1973033"><ele>158.2</ele><time>2026-04-26T09:46:10.024Z</time></trkpt><trkpt lat="44.0410767" lon="12.197455"><ele>160.0</ele><time>2026-04-26T09:46:12.028Z</time></trkpt><trkpt lat="44.04106" lon="12.197585"><ele>162.5</ele><time>2026-04-26T09:46:14.024Z</time></trkpt><trkpt lat="44.041035" lon="12.1976983"><ele>165.0</ele><time>2026-04-26T09:46:16.024Z</time></trkpt><trkpt lat="44.0409967" lon="12.1978033"><ele>167.5</ele><time>2026-04-26T09:46:18.023Z</time></trkpt><trkpt lat="44.0409467" lon="12.1978883"><ele>170.0</ele><time>2026-04-26T09:46:20.023Z</time></trkpt><trkpt lat="44.040905" lon="12.1979733"><ele>172.5</ele><time>2026-04-26T09:46:22.022Z</time></trkpt><trkpt lat="44.0408617" lon="12.1980483"><ele>175.0</ele><time>2026-04-26T09:46:24.023Z</time></trkpt><trkpt lat="44.0408133" lon="12.19812"><ele>174.5</ele><time>2026-04-26T09:46:26.024Z</time></trkpt><trkpt lat="44.0407833" lon="12.198205"><ele>174.0</ele><time>2026-04-26T09:46:28.024Z</time></trkpt><trkpt lat="44.040745" lon="12.198315"><ele>173.5</ele><time>2026-04-26T09:46:31.023Z</time></trkpt><trkpt lat="44.0407733" lon="12.1983933"><ele>173.0</ele><time>2026-04-26T09:46:45.025Z</time></trkpt><trkpt lat="44.04087" lon="12.1985"><ele>172.5</ele><time>2026-04-26T09:46:47.023Z</time></trkpt><trkpt lat="44.0409333" lon="12.19856"><ele>172.0</ele><time>2026-04-26T09:46:48.024Z</time></trkpt><trkpt lat="44.0409933" lon="12.198625"><ele>174.83333333333334</ele><time>2026-04-26T09:46:49.025Z</time></trkpt><trkpt lat="44.041045" lon="12.1986967"><ele>177.66666666666669</ele><time>2026-04-26T09:46:50.021Z</time></trkpt><trkpt lat="44.0410783" lon="12.1987817"><ele>180.5</ele><time>2026-04-26T09:46:51.024Z</time></trkpt><trkpt lat="44.041095" lon="12.19888"><ele>183.33333333333334</ele><time>2026-04-26T09:46:52.023Z</time></trkpt><trkpt lat="44.0411067" lon="12.1989967"><ele>186.16666666666666</ele><time>2026-04-26T09:46:53.024Z</time></trkpt><trkpt lat="44.0411217" lon="12.1991117"><ele>189.0</ele><time>2026-04-26T09:46:54.023Z</time></trkpt><trkpt lat="44.04113" lon="12.1992417"><ele>190.0</ele><time>2026-04-26T09:46:55.025Z</time></trkpt><trkpt lat="44.0411283" lon="12.1993717"><ele>191.0</ele><time>2026-04-26T09:46:56.023Z</time></trkpt><trkpt lat="44.0411267" lon="12.1994983"><ele>192.0</ele><time>2026-04-26T09:46:57.023Z</time></trkpt><trkpt lat="44.04113" lon="12.19963"><ele>193.0</ele><time>2026-04-26T09:46:58.024Z</time></trkpt><trkpt lat="44.0411383" lon="12.19975"><ele>194.0</ele><time>2026-04-26T09:46:59.024Z</time></trkpt><trkpt lat="44.0411433" lon="12.1998783"><ele>195.16666666666669</ele><time>2026-04-26T09:47:00.022Z</time></trkpt><trkpt lat="44.0411417" lon="12.1999983"><ele>196.33333333333334</ele><time>2026-04-26T09:47:01.024Z</time></trkpt><trkpt lat="44.0411433" lon="12.20011"><ele>197.5</ele><time>2026-04-26T09:47:02.022Z</time></trkpt><trkpt lat="44.0411417" lon="12.2002167"><ele>198.66666666666669</ele><time>2026-04-26T09:47:03.024Z</time></trkpt><trkpt lat="44.04114" lon="12.2003167"><ele>199.83333333333334</ele><time>2026-04-26T09:47:04.024Z</time></trkpt><trkpt lat="44.0411267" lon="12.20047"><ele>201.0</ele><time>2026-04-26T09:47:06.023Z</time></trkpt><trkpt lat="44.0410483" lon="12.200575"><ele>201.0</ele><time>2026-04-26T09:47:08.024Z</time></trkpt><trkpt lat="44.0409833" lon="12.2005967"><ele>201.0</ele><time>2026-04-26T09:47:09.024Z</time></trkpt><trkpt lat="44.0409183" lon="12.2006133"><ele>201.0</ele><time>2026-04-26T09:47:10.025Z</time></trkpt><trkpt lat="44.040845" lon="12.20063"><ele>201.0</ele><time>2026-04-26T09:47:11.024Z</time></trkpt><trkpt lat="44.0407733" lon="12.2006483"><ele>201.0</ele><time>2026-04-26T09:47:12.023Z</time></trkpt><trkpt lat="44.0407033" lon="12.2006667"><ele>201.0</ele><time>2026-04-26T09:47:13.027Z</time></trkpt><trkpt lat="44.04063" lon="12.2006817"><ele>201.0</ele><time>2026-04-26T09:47:14.023Z</time></trkpt><trkpt lat="44.0405567" lon="12.2006933"><ele>201.0</ele><time>2026-04-26T09:47:15.025Z</time></trkpt><trkpt lat="44.0404833" lon="12.200705"><ele>201.0</ele><time>2026-04-26T09:47:16.021Z</time></trkpt><trkpt lat="44.040405" lon="12.2007167"><ele>201.0</ele><time>2026-04-26T09:47:17.023Z</time></trkpt><trkpt lat="44.0403233" lon="12.2007233"><ele>201.0</ele><time>2026-04-26T09:47:18.025Z</time></trkpt><trkpt lat="44.04024" lon="12.2007167"><ele>201.0</ele><time>2026-04-26T09:47:19.025Z</time></trkpt><trkpt lat="44.0401617" lon="12.2007017"><ele>201.0</ele><time>2026-04-26T09:47:20.026Z</time></trkpt><trkpt lat="44.040085" lon="12.2006817"><ele>201.0</ele><time>2026-04-26T09:47:21.024Z</time></trkpt><trkpt lat="44.0400067" lon="12.2006717"><ele>201.0</ele><time>2026-04-26T09:47:22.026Z</time></trkpt><trkpt lat="44.0399267" lon="12.200675"><ele>201.0</ele><time>2026-04-26T09:47:23.023Z</time></trkpt><trkpt lat="44.03984" lon="12.2006867"><ele>201.0</ele><time>2026-04-26T09:47:24.023Z</time></trkpt><trkpt lat="44.0397583" lon="12.2006933"><ele>201.0</ele><time>2026-04-26T09:47:25.026Z</time></trkpt><trkpt lat="44.039685" lon="12.2006933"><ele>201.0</ele><time>2026-04-26T09:47:26.026Z</time></trkpt><trkpt lat="44.0396117" lon="12.2006933"><ele>201.33333333333334</ele><time>2026-04-26T09:47:27.027Z</time></trkpt><trkpt lat="44.0395417" lon="12.2006917"><ele>201.66666666666669</ele><time>2026-04-26T09:47:28.023Z</time></trkpt><trkpt lat="44.0394483" lon="12.2006733"><ele>202.0</ele><time>2026-04-26T09:47:30.022Z</time></trkpt><trkpt lat="44.039545" lon="12.2006867"><ele>202.33333333333334</ele><time>2026-04-26T09:48:19.025Z</time></trkpt><trkpt lat="44.03965" lon="12.200685"><ele>202.66666666666669</ele><time>2026-04-26T09:48:21.023Z</time></trkpt><trkpt lat="44.0397167" lon="12.2006817"><ele>203.0</ele><time>2026-04-26T09:48:22.024Z</time></trkpt><trkpt lat="44.039785" lon="12.2006783"><ele>203.00000000000003</ele><time>2026-04-26T09:48:23.024Z</time></trkpt><trkpt lat="44.0398517" lon="12.20067"><ele>203.0</ele><time>2026-04-26T09:48:24.023Z</time></trkpt><trkpt lat="44.0399317" lon="12.2006617"><ele>203.0</ele><time>2026-04-26T09:48:25.024Z</time></trkpt><trkpt lat="44.0400183" lon="12.20066"><ele>203.0</ele><time>2026-04-26T09:48:26.023Z</time></trkpt><trkpt lat="44.0401067" lon="12.2006717"><ele>203.00000000000003</ele><time>2026-04-26T09:48:27.03Z</time></trkpt><trkpt lat="44.0401883" lon="12.200695"><ele>203.0</ele><time>2026-04-26T09:48:28.023Z</time></trkpt><trkpt lat="44.0402683" lon="12.2007117"><ele>202.66666666666669</ele><time>2026-04-26T09:48:29.022Z</time></trkpt><trkpt lat="44.04035" lon="12.2007183"><ele>202.33333333333334</ele><time>2026-04-26T09:48:30.022Z</time></trkpt><trkpt lat="44.0404283" lon="12.2007083"><ele>202.0</ele><time>2026-04-26T09:48:31.022Z</time></trkpt><trkpt lat="44.0405033" lon="12.20069"><ele>201.66666666666669</ele><time>2026-04-26T09:48:32.025Z</time></trkpt><trkpt lat="44.04057" lon="12.2006767"><ele>201.33333333333334</ele><time>2026-04-26T09:48:33.025Z</time></trkpt><trkpt lat="44.04065" lon="12.20065"><ele>201.0</ele><time>2026-04-26T09:53:03.023Z</time></trkpt><trkpt lat="44.04074" lon="12.200635"><ele>201.0</ele><time>2026-04-26T09:53:14.023Z</time></trkpt><trkpt lat="44.0408283" lon="12.2006233"><ele>201.0</ele><time>2026-04-26T09:54:10.025Z</time></trkpt><trkpt lat="44.0409433" lon="12.2005967"><ele>201.0</ele><time>2026-04-26T09:54:12.022Z</time></trkpt><trkpt lat="44.0410217" lon="12.20057"><ele>201.0</ele><time>2026-04-26T09:54:14.022Z</time></trkpt><trkpt lat="44.0410667" lon="12.2005033"><ele>201.0</ele><time>2026-04-26T09:54:16.023Z</time></trkpt><trkpt lat="44.041095" lon="12.200375"><ele>201.0</ele><time>2026-04-26T09:54:18.024Z</time></trkpt><trkpt lat="44.0411017" lon="12.2002017"><ele>201.0</ele><time>2026-04-26T09:54:20.025Z</time></trkpt><trkpt lat="44.0411033" lon="12.20011"><ele>201.0</ele><time>2026-04-26T09:54:21.024Z</time></trkpt><trkpt lat="44.0411133" lon="12.2000217"><ele>201.0</ele><time>2026-04-26T09:54:22.026Z</time></trkpt><trkpt lat="44.0411133" lon="12.1999217"><ele>201.0</ele><time>2026-04-26T09:54:23.023Z</time></trkpt><trkpt lat="44.0411133" lon="12.199825"><ele>201.0</ele><time>2026-04-26T09:54:24.025Z</time></trkpt><trkpt lat="44.0411117" lon="12.1997283"><ele>201.0</ele><time>2026-04-26T09:54:25.026Z</time></trkpt><trkpt lat="44.0411067" lon="12.1996317"><ele>201.0</ele><time>2026-04-26T09:54:26.026Z</time></trkpt><trkpt lat="44.0411033" lon="12.199535"><ele>199.60000000000002</ele><time>2026-04-26T09:54:27.022Z</time></trkpt><trkpt lat="44.0410983" lon="12.199445"><ele>198.2</ele><time>2026-04-26T09:54:28.023Z</time></trkpt><trkpt lat="44.0411" lon="12.1992817"><ele>196.8</ele><time>2026-04-26T09:54:30.024Z</time></trkpt><trkpt lat="44.04109" lon="12.19913"><ele>195.39999999999998</ele><time>2026-04-26T09:54:32.024Z</time></trkpt><trkpt lat="44.0410817" lon="12.1989883"><ele>194.0</ele><time>2026-04-26T09:54:34.023Z</time></trkpt><trkpt lat="44.0410717" lon="12.1988417"><ele>193.0</ele><time>2026-04-26T09:54:36.022Z</time></trkpt><trkpt lat="44.0410467" lon="12.1987383"><ele>192.0</ele><time>2026-04-26T09:54:39.026Z</time></trkpt><trkpt lat="44.0409833" lon="12.198655"><ele>191.0</ele><time>2026-04-26T09:54:42.022Z</time></trkpt><trkpt lat="44.0409067" lon="12.1986"><ele>190.0</ele><time>2026-04-26T09:54:44.021Z</time></trkpt><trkpt lat="44.0408317" lon="12.1985017"><ele>189.0</ele><time>2026-04-26T09:54:46.022Z</time></trkpt><trkpt lat="44.0407867" lon="12.1983783"><ele>189.0</ele><time>2026-04-26T09:54:48.023Z</time></trkpt><trkpt lat="44.0408017" lon="12.198255"><ele>189.0</ele><time>2026-04-26T09:54:50.022Z</time></trkpt><trkpt lat="44.0408567" lon="12.1981233"><ele>189.0</ele><time>2026-04-26T09:54:52.025Z</time></trkpt><trkpt lat="44.0409183" lon="12.1980917"><ele>189.0</ele><time>2026-04-26T09:54:53.024Z</time></trkpt><trkpt lat="44.04098" lon="12.1979433"><ele>189.0</ele><time>2026-04-26T09:54:55.025Z</time></trkpt><trkpt lat="44.041015" lon="12.19787"><ele>186.2</ele><time>2026-04-26T09:54:56.032Z</time></trkpt><trkpt lat="44.0410683" lon="12.19771"><ele>183.39999999999998</ele><time>2026-04-26T09:54:58.022Z</time></trkpt><trkpt lat="44.0410967" lon="12.1975483"><ele>180.6</ele><time>2026-04-26T09:55:00.023Z</time></trkpt><trkpt lat="44.0411017" lon="12.1974067"><ele>177.8</ele><time>2026-04-26T09:55:02.025Z</time></trkpt><trkpt lat="44.041095" lon="12.1972717"><ele>175.0</ele><time>2026-04-26T09:55:04.022Z</time></trkpt><trkpt lat="44.0410533" lon="12.1971583"><ele>172.0</ele><time>2026-04-26T09:55:06.024Z</time></trkpt><trkpt lat="44.0409917" lon="12.1970733"><ele>169.0</ele><time>2026-04-26T09:55:08.022Z</time></trkpt><trkpt lat="44.0409183" lon="12.1970083"><ele>166.0</ele><time>2026-04-26T09:55:10.025Z</time></trkpt><trkpt lat="44.0408167" lon="12.1969567"><ele>163.0</ele><time>2026-04-26T09:55:12.025Z</time></trkpt><trkpt lat="44.0406917" lon="12.1969233"><ele>160.0</ele><time>2026-04-26T09:55:14.024Z</time></trkpt><trkpt lat="44.0406233" lon="12.1969117"><ele>158.2</ele><time>2026-04-26T09:55:15.027Z</time></trkpt><trkpt lat="44.0405583" lon="12.1969"><ele>156.4</ele><time>2026-04-26T09:55:16.024Z</time></trkpt><trkpt lat="44.0404467" lon="12.1968717"><ele>154.6</ele><time>2026-04-26T09:55:18.024Z</time></trkpt><trkpt lat="44.0403417" lon="12.1968583"><ele>152.8</ele><time>2026-04-26T09:55:20.022Z</time></trkpt><trkpt lat="44.0402433" lon="12.1968283"><ele>151.0</ele><time>2026-04-26T09:55:22.023Z</time></trkpt><trkpt lat="44.0401367" lon="12.19676"><ele>151.0</ele><time>2026-04-26T09:55:24.025Z</time></trkpt><trkpt lat="44.04005" lon="12.1966583"><ele>151.0</ele><time>2026-04-26T09:55:26.025Z</time></trkpt><trkpt lat="44.0400083" lon="12.196545"><ele>151.0</ele><time>2026-04-26T09:55:28.024Z</time></trkpt><trkpt lat="44.0400033" lon="12.1964033"><ele>151.0</ele><time>2026-04-26T09:55:30.023Z</time></trkpt><trkpt lat="44.040035" lon="12.1962533"><ele>151.0</ele><time>2026-04-26T09:55:32.024Z</time></trkpt><trkpt lat="44.040125" lon="12.19614"><ele>148.4</ele><time>2026-04-26T09:55:34.023Z</time></trkpt><trkpt lat="44.04021" lon="12.1960467"><ele>145.8</ele><time>2026-04-26T09:55:36.023Z</time></trkpt><trkpt lat="44.0402883" lon="12.1959367"><ele>143.20000000000002</ele><time>2026-04-26T09:55:38.023Z</time></trkpt><trkpt lat="44.0403883" lon="12.1958817"><ele>140.6</ele><time>2026-04-26T09:55:40.025Z</time></trkpt><trkpt lat="44.0404433" lon="12.1957333"><ele>138.0</ele><time>2026-04-26T09:55:42.022Z</time></trkpt><trkpt lat="44.0404867" lon="12.1956667"><ele>135.83333333333334</ele><time>2026-04-26T09:55:43.022Z</time></trkpt><trkpt lat="44.0405133" lon="12.195585"><ele>133.66666666666666</ele><time>2026-04-26T09:55:44.024Z</time></trkpt><trkpt lat="44.0405217" lon="12.195485"><ele>131.5</ele><time>2026-04-26T09:55:45.024Z</time></trkpt><trkpt lat="44.0405467" lon="12.1953983"><ele>129.33333333333331</ele><time>2026-04-26T09:55:46.021Z</time></trkpt><trkpt lat="44.04057" lon="12.1952483"><ele>127.16666666666666</ele><time>2026-04-26T09:55:48.024Z</time></trkpt><trkpt lat="44.0405833" lon="12.1951283"><ele>125.0</ele><time>2026-04-26T09:55:50.023Z</time></trkpt><trkpt lat="44.0405717" lon="12.1950167"><ele>125.0</ele><time>2026-04-26T09:55:52.022Z</time></trkpt><trkpt lat="44.0405217" lon="12.1949267"><ele>125.0</ele><time>2026-04-26T09:55:54.021Z</time></trkpt><trkpt lat="44.0404517" lon="12.1948333"><ele>125.0</ele><time>2026-04-26T09:55:56.023Z</time></trkpt><trkpt lat="44.0403983" lon="12.1947817"><ele>125.0</ele><time>2026-04-26T09:55:57.022Z</time></trkpt><trkpt lat="44.040345" lon="12.19473"><ele>125.0</ele><time>2026-04-26T09:55:58.022Z</time></trkpt><trkpt lat="44.040295" lon="12.1946767"><ele>125.0</ele><time>2026-04-26T09:55:59.024Z</time></trkpt><trkpt lat="44.0402433" lon="12.1946267"><ele>125.0</ele><time>2026-04-26T09:56:00.023Z</time></trkpt><trkpt lat="44.0401417" lon="12.1945333"><ele>124.16666666666666</ele><time>2026-04-26T09:56:02.023Z</time></trkpt><trkpt lat="44.0400433" lon="12.1944217"><ele>123.33333333333333</ele><time>2026-04-26T09:56:04.025Z</time></trkpt><trkpt lat="44.0399883" lon="12.19436"><ele>122.5</ele><time>2026-04-26T09:56:05.022Z</time></trkpt><trkpt lat="44.0399367" lon="12.1942933"><ele>121.66666666666666</ele><time>2026-04-26T09:56:06.023Z</time></trkpt><trkpt lat="44.0398867" lon="12.194225"><ele>120.83333333333333</ele><time>2026-04-26T09:56:07.024Z</time></trkpt><trkpt lat="44.0398333" lon="12.194155"><ele>120.0</ele><time>2026-04-26T09:56:08.023Z</time></trkpt><trkpt lat="44.0397833" lon="12.1940867"><ele>118.42857142857143</ele><time>2026-04-26T09:56:09.023Z</time></trkpt><trkpt lat="44.0397267" lon="12.19402"><ele>116.85714285714285</ele><time>2026-04-26T09:56:10.022Z</time></trkpt><trkpt lat="44.03968" lon="12.1939433"><ele>115.28571428571428</ele><time>2026-04-26T09:56:11.023Z</time></trkpt><trkpt lat="44.0396217" lon="12.1938817"><ele>113.71428571428572</ele><time>2026-04-26T09:56:12.023Z</time></trkpt><trkpt lat="44.0395617" lon="12.193825"><ele>112.14285714285714</ele><time>2026-04-26T09:56:13.025Z</time></trkpt><trkpt lat="44.0395" lon="12.19378"><ele>110.57142857142857</ele><time>2026-04-26T09:56:14.023Z</time></trkpt><trkpt lat="44.0394433" lon="12.193725"><ele>109.0</ele><time>2026-04-26T09:56:15.022Z</time></trkpt><trkpt lat="44.0393817" lon="12.19367"><ele>108.66666666666667</ele><time>2026-04-26T09:56:16.023Z</time></trkpt><trkpt lat="44.0393033" lon="12.1936317"><ele>108.33333333333334</ele><time>2026-04-26T09:56:17.024Z</time></trkpt><trkpt lat="44.0392383" lon="12.1935967"><ele>108.0</ele><time>2026-04-26T09:56:18.023Z</time></trkpt><trkpt lat="44.0391817" lon="12.1935483"><ele>107.66666666666666</ele><time>2026-04-26T09:56:19.023Z</time></trkpt><trkpt lat="44.0390867" lon="12.1934417"><ele>107.33333333333333</ele><time>2026-04-26T09:56:21.025Z</time></trkpt><trkpt lat="44.0390117" lon="12.1933683"><ele>107.0</ele><time>2026-04-26T09:56:23.021Z</time></trkpt><trkpt lat="44.0389367" lon="12.1933467"><ele>105.42857142857143</ele><time>2026-04-26T09:56:25.025Z</time></trkpt><trkpt lat="44.03887" lon="12.1933733"><ele>103.85714285714286</ele><time>2026-04-26T09:56:27.022Z</time></trkpt><trkpt lat="44.0388183" lon="12.1934417"><ele>102.28571428571428</ele><time>2026-04-26T09:56:29.022Z</time></trkpt><trkpt lat="44.03878" lon="12.1935333"><ele>100.71428571428572</ele><time>2026-04-26T09:56:31.025Z</time></trkpt><trkpt lat="44.0387433" lon="12.1936433"><ele>99.14285714285714</ele><time>2026-04-26T09:56:33.025Z</time></trkpt><trkpt lat="44.0387017" lon="12.1937367"><ele>97.57142857142857</ele><time>2026-04-26T09:56:35.025Z</time></trkpt><trkpt lat="44.0386433" lon="12.19377"><ele>96.0</ele><time>2026-04-26T09:56:37.026Z</time></trkpt><trkpt lat="44.038575" lon="12.193745"><ele>96.0</ele><time>2026-04-26T09:56:39.026Z</time></trkpt><trkpt lat="44.0384967" lon="12.1937067"><ele>96.0</ele><time>2026-04-26T09:56:41.026Z</time></trkpt><trkpt lat="44.038415" lon="12.193695"><ele>96.0</ele><time>2026-04-26T09:56:43.021Z</time></trkpt><trkpt lat="44.0383467" lon="12.1937033"><ele>96.0</ele><time>2026-04-26T09:56:45.023Z</time></trkpt><trkpt lat="44.0382517" lon="12.1937233"><ele>96.0</ele><time>2026-04-26T09:56:48.025Z</time></trkpt><trkpt lat="44.038215" lon="12.193795"><ele>96.0</ele><time>2026-04-26T09:56:50.023Z</time></trkpt><trkpt lat="44.038165" lon="12.193945"><ele>94.6</ele><time>2026-04-26T10:06:06.021Z</time></trkpt><trkpt lat="44.0381033" lon="12.1940433"><ele>93.19999999999999</ele><time>2026-04-26T10:06:08.022Z</time></trkpt><trkpt lat="44.038045" lon="12.19412"><ele>91.80000000000001</ele><time>2026-04-26T10:06:09.029Z</time></trkpt><trkpt lat="44.0379733" lon="12.1942017"><ele>90.4</ele><time>2026-04-26T10:06:10.024Z</time></trkpt><trkpt lat="44.0378983" lon="12.194265"><ele>89.0</ele><time>2026-04-26T10:06:11.025Z</time></trkpt><trkpt lat="44.03779" lon="12.1943267"><ele>89.0</ele><time>2026-04-26T10:06:12.021Z</time></trkpt><trkpt lat="44.0376983" lon="12.1944167"><ele>89.0</ele><time>2026-04-26T10:06:13.025Z</time></trkpt><trkpt lat="44.0375833" lon="12.1945133"><ele>89.0</ele><time>2026-04-26T10:06:14.024Z</time></trkpt><trkpt lat="44.0374783" lon="12.194645"><ele>89.0</ele><time>2026-04-26T10:06:15.024Z</time></trkpt><trkpt lat="44.0373867" lon="12.1947983"><ele>89.0</ele><time>2026-04-26T10:06:16.022Z</time></trkpt><trkpt lat="44.03729" lon="12.1949683"><ele>89.0</ele><time>2026-04-26T10:06:17.022Z</time></trkpt><trkpt lat="44.0371783" lon="12.1951267"><ele>89.0</ele><time>2026-04-26T10:06:18.022Z</time></trkpt><trkpt lat="44.037095" lon="12.1953183"><ele>89.0</ele><time>2026-04-26T10:06:19.023Z</time></trkpt><trkpt lat="44.0370083" lon="12.19552"><ele>89.0</ele><time>2026-04-26T10:06:20.022Z</time></trkpt><trkpt lat="44.036905" lon="12.1957083"><ele>89.0</ele><time>2026-04-26T10:06:21.024Z</time></trkpt><trkpt lat="44.03679" lon="12.1958483"><ele>91.0</ele><time>2026-04-26T10:06:22.023Z</time></trkpt><trkpt lat="44.036675" lon="12.1959667"><ele>93.0</ele><time>2026-04-26T10:06:23.024Z</time></trkpt><trkpt lat="44.0365533" lon="12.196045"><ele>95.0</ele><time>2026-04-26T10:06:24.023Z</time></trkpt><trkpt lat="44.036405" lon="12.196065"><ele>97.0</ele><time>2026-04-26T10:06:25.024Z</time></trkpt><trkpt lat="44.0362417" lon="12.1960417"><ele>97.0</ele><time>2026-04-26T10:06:26.023Z</time></trkpt><trkpt lat="44.0360867" lon="12.19593"><ele>97.0</ele><time>2026-04-26T10:06:27.022Z</time></trkpt><trkpt lat="44.0358967" lon="12.1959133"><ele>97.0</ele><time>2026-04-26T10:06:28.023Z</time></trkpt><trkpt lat="44.035695" lon="12.1958683"><ele>98.66666666666667</ele><time>2026-04-26T10:06:29.025Z</time></trkpt><trkpt lat="44.03549" lon="12.195825"><ele>100.33333333333334</ele><time>2026-04-26T10:06:30.024Z</time></trkpt><trkpt lat="44.0352867" lon="12.1957383"><ele>102.0</ele><time>2026-04-26T10:06:31.024Z</time></trkpt><trkpt lat="44.03509" lon="12.1956717"><ele>96.66666666666667</ele><time>2026-04-26T10:06:32.024Z</time></trkpt><trkpt lat="44.0349067" lon="12.1956133"><ele>91.33333333333334</ele><time>2026-04-26T10:06:33.025Z</time></trkpt><trkpt lat="44.0347433" lon="12.1955633"><ele>86.0</ele><time>2026-04-26T10:06:34.027Z</time></trkpt><trkpt lat="44.0346133" lon="12.195615"><ele>86.0</ele><time>2026-04-26T10:06:35.024Z</time></trkpt><trkpt lat="44.034495" lon="12.19567"><ele>86.0</ele><time>2026-04-26T10:06:36.025Z</time></trkpt><trkpt lat="44.0343917" lon="12.1957633"><ele>86.0</ele><time>2026-04-26T10:06:37.026Z</time></trkpt><trkpt lat="44.0343183" lon="12.19589"><ele>86.0</ele><time>2026-04-26T10:06:38.025Z</time></trkpt><trkpt lat="44.0342683" lon="12.1960517"><ele>85.0</ele><time>2026-04-26T10:06:39.025Z</time></trkpt><trkpt lat="44.0342267" lon="12.19624"><ele>84.0</ele><time>2026-04-26T10:06:40.025Z</time></trkpt><trkpt lat="44.0341833" lon="12.19644"><ele>83.0</ele><time>2026-04-26T10:06:41.026Z</time></trkpt><trkpt lat="44.0341217" lon="12.1966233"><ele>82.0</ele><time>2026-04-26T10:06:42.026Z</time></trkpt><trkpt lat="44.0340267" lon="12.196775"><ele>82.0</ele><time>2026-04-26T10:06:43.024Z</time></trkpt><trkpt lat="44.033905" lon="12.1969083"><ele>82.0</ele><time>2026-04-26T10:06:44.023Z</time></trkpt><trkpt lat="44.033775" lon="12.197045"><ele>82.0</ele><time>2026-04-26T10:06:45.026Z</time></trkpt><trkpt lat="44.0336467" lon="12.1972067"><ele>86.33333333333333</ele><time>2026-04-26T10:06:46.024Z</time></trkpt><trkpt lat="44.0335317" lon="12.197385"><ele>90.66666666666667</ele><time>2026-04-26T10:06:47.026Z</time></trkpt><trkpt lat="44.033435" lon="12.1975683"><ele>95.0</ele><time>2026-04-26T10:06:48.025Z</time></trkpt><trkpt lat="44.03336" lon="12.1977583"><ele>95.0</ele><time>2026-04-26T10:06:49.02Z</time></trkpt><trkpt lat="44.0333083" lon="12.19795"><ele>95.0</ele><time>2026-04-26T10:06:50.021Z</time></trkpt><trkpt lat="44.03328" lon="12.1981517"><ele>95.0</ele><time>2026-04-26T10:06:51.024Z</time></trkpt><trkpt lat="44.0332817" lon="12.1983567"><ele>95.0</ele><time>2026-04-26T10:06:52.025Z</time></trkpt><trkpt lat="44.03332" lon="12.198565"><ele>95.75</ele><time>2026-04-26T10:06:53.022Z</time></trkpt><trkpt lat="44.0333833" lon="12.198765"><ele>96.5</ele><time>2026-04-26T10:06:54.022Z</time></trkpt><trkpt lat="44.03344" lon="12.198955"><ele>97.25</ele><time>2026-04-26T10:06:55.024Z</time></trkpt><trkpt lat="44.0334733" lon="12.199135"><ele>98.0</ele><time>2026-04-26T10:06:56.024Z</time></trkpt><trkpt lat="44.03347" lon="12.1993017"><ele>98.0</ele><time>2026-04-26T10:06:57.022Z</time></trkpt><trkpt lat="44.0334283" lon="12.199445"><ele>98.0</ele><time>2026-04-26T10:06:58.023Z</time></trkpt><trkpt lat="44.0333533" lon="12.1995517"><ele>98.0</ele><time>2026-04-26T10:06:59.024Z</time></trkpt><trkpt lat="44.0332517" lon="12.1996267"><ele>98.0</ele><time>2026-04-26T10:07:00.022Z</time></trkpt><trkpt lat="44.0331283" lon="12.1996533"><ele>96.25</ele><time>2026-04-26T10:07:01.023Z</time></trkpt><trkpt lat="44.032985" lon="12.1996333"><ele>94.5</ele><time>2026-04-26T10:07:02.022Z</time></trkpt><trkpt lat="44.0328433" lon="12.1996133"><ele>92.75</ele><time>2026-04-26T10:07:03.023Z</time></trkpt><trkpt lat="44.0327017" lon="12.1996333"><ele>91.0</ele><time>2026-04-26T10:07:04.023Z</time></trkpt><trkpt lat="44.0325683" lon="12.1997117"><ele>92.66666666666666</ele><time>2026-04-26T10:07:05.023Z</time></trkpt><trkpt lat="44.0324383" lon="12.199815"><ele>94.33333333333333</ele><time>2026-04-26T10:07:06.022Z</time></trkpt><trkpt lat="44.0322983" lon="12.1999017"><ele>96.0</ele><time>2026-04-26T10:07:07.026Z</time></trkpt><trkpt lat="44.0321417" lon="12.19994"><ele>96.0</ele><time>2026-04-26T10:07:08.023Z</time></trkpt><trkpt lat="44.03198" lon="12.199945"><ele>96.0</ele><time>2026-04-26T10:07:09.021Z</time></trkpt><trkpt lat="44.031825" lon="12.199945"><ele>96.0</ele><time>2026-04-26T10:07:10.022Z</time></trkpt><trkpt lat="44.0316817" lon="12.1999733"><ele>92.0</ele><time>2026-04-26T10:07:11.023Z</time></trkpt><trkpt lat="44.0315467" lon="12.2000383"><ele>88.0</ele><time>2026-04-26T10:07:12.022Z</time></trkpt><trkpt lat="44.03141" lon="12.2001467"><ele>84.0</ele><time>2026-04-26T10:07:13.024Z</time></trkpt><trkpt lat="44.0312717" lon="12.2002883"><ele>84.0</ele><time>2026-04-26T10:07:14.023Z</time></trkpt><trkpt lat="44.031135" lon="12.20044"><ele>84.0</ele><time>2026-04-26T10:07:15.021Z</time></trkpt><trkpt lat="44.0309967" lon="12.20059"><ele>84.0</ele><time>2026-04-26T10:07:16.021Z</time></trkpt><trkpt lat="44.03085" lon="12.200725"><ele>86.0</ele><time>2026-04-26T10:07:17.023Z</time></trkpt><trkpt lat="44.0306983" lon="12.2008383"><ele>88.0</ele><time>2026-04-26T10:07:18.022Z</time></trkpt><trkpt lat="44.0305367" lon="12.2009333"><ele>90.0</ele><time>2026-04-26T10:07:19.022Z</time></trkpt><trkpt lat="44.0303617" lon="12.201015"><ele>90.0</ele><time>2026-04-26T10:07:20.023Z</time></trkpt><trkpt lat="44.0301783" lon="12.2010967"><ele>90.0</ele><time>2026-04-26T10:07:21.024Z</time></trkpt><trkpt lat="44.0299917" lon="12.2011883"><ele>90.0</ele><time>2026-04-26T10:07:22.022Z</time></trkpt><trkpt lat="44.0298017" lon="12.2012933"><ele>91.66666666666667</ele><time>2026-04-26T10:07:23.023Z</time></trkpt><trkpt lat="44.0296133" lon="12.2013917"><ele>93.33333333333334</ele><time>2026-04-26T10:07:24.023Z</time></trkpt><trkpt lat="44.029435" lon="12.20148"><ele>95.0</ele><time>2026-04-26T10:07:25.023Z</time></trkpt><trkpt lat="44.0292617" lon="12.20155"><ele>92.5</ele><time>2026-04-26T10:07:26.022Z</time></trkpt><trkpt lat="44.029105" lon="12.2016117"><ele>90.0</ele><time>2026-04-26T10:07:27.023Z</time></trkpt><trkpt lat="44.0289683" lon="12.20168"><ele>87.5</ele><time>2026-04-26T10:07:28.025Z</time></trkpt><trkpt lat="44.0288467" lon="12.2017783"><ele>85.0</ele><time>2026-04-26T10:07:29.021Z</time></trkpt><trkpt lat="44.028745" lon="12.2019117"><ele>85.0</ele><time>2026-04-26T10:07:30.022Z</time></trkpt><trkpt lat="44.02866" lon="12.20208"><ele>85.0</ele><time>2026-04-26T10:07:31.024Z</time></trkpt><trkpt lat="44.0285967" lon="12.2022617"><ele>85.0</ele><time>2026-04-26T10:07:32.022Z</time></trkpt><trkpt lat="44.0285617" lon="12.202455"><ele>85.0</ele><time>2026-04-26T10:07:33.023Z</time></trkpt><trkpt lat="44.0285633" lon="12.2026417"><ele>86.0</ele><time>2026-04-26T10:07:34.023Z</time></trkpt><trkpt lat="44.0286033" lon="12.2028183"><ele>87.0</ele><time>2026-04-26T10:07:35.023Z</time></trkpt><trkpt lat="44.0286717" lon="12.2029783"><ele>88.0</ele><time>2026-04-26T10:07:36.026Z</time></trkpt><trkpt lat="44.0287467" lon="12.2031283"><ele>89.0</ele><time>2026-04-26T10:07:37.021Z</time></trkpt><trkpt lat="44.028805" lon="12.2032733"><ele>89.6</ele><time>2026-04-26T10:07:38.023Z</time></trkpt><trkpt lat="44.0288217" lon="12.20342"><ele>90.2</ele><time>2026-04-26T10:07:39.023Z</time></trkpt><trkpt lat="44.0288133" lon="12.203555"><ele>90.8</ele><time>2026-04-26T10:07:40.022Z</time></trkpt><trkpt lat="44.0287667" lon="12.2036783"><ele>91.39999999999999</ele><time>2026-04-26T10:07:41.027Z</time></trkpt><trkpt lat="44.0286767" lon="12.2037633"><ele>92.0</ele><time>2026-04-26T10:07:42.023Z</time></trkpt><trkpt lat="44.0285583" lon="12.2038267"><ele>92.0</ele><time>2026-04-26T10:07:43.022Z</time></trkpt><trkpt lat="44.0284217" lon="12.203875"><ele>92.0</ele><time>2026-04-26T10:07:44.021Z</time></trkpt><trkpt lat="44.0282767" lon="12.20393"><ele>92.0</ele><time>2026-04-26T10:07:45.023Z</time></trkpt><trkpt lat="44.0281283" lon="12.2040167"><ele>92.0</ele><time>2026-04-26T10:07:46.023Z</time></trkpt><trkpt lat="44.0279767" lon="12.20414"><ele>92.0</ele><time>2026-04-26T10:07:47.022Z</time></trkpt><trkpt lat="44.0278333" lon="12.2042983"><ele>92.0</ele><time>2026-04-26T10:07:48.021Z</time></trkpt><trkpt lat="44.027695" lon="12.204485"><ele>92.0</ele><time>2026-04-26T10:07:49.023Z</time></trkpt><trkpt lat="44.0275583" lon="12.20467"><ele>92.0</ele><time>2026-04-26T10:07:50.022Z</time></trkpt><trkpt lat="44.02742" lon="12.2048383"><ele>92.0</ele><time>2026-04-26T10:07:51.022Z</time></trkpt><trkpt lat="44.027275" lon="12.204975"><ele>91.33333333333334</ele><time>2026-04-26T10:07:52.024Z</time></trkpt><trkpt lat="44.0271133" lon="12.2050717"><ele>90.66666666666667</ele><time>2026-04-26T10:07:53.026Z</time></trkpt><trkpt lat="44.0269433" lon="12.205125"><ele>90.0</ele><time>2026-04-26T10:07:54.022Z</time></trkpt><trkpt lat="44.0267683" lon="12.2051417"><ele>90.33333333333333</ele><time>2026-04-26T10:07:55.021Z</time></trkpt><trkpt lat="44.0265983" lon="12.205135"><ele>90.66666666666666</ele><time>2026-04-26T10:07:56.022Z</time></trkpt><trkpt lat="44.02643" lon="12.2051267"><ele>91.0</ele><time>2026-04-26T10:07:57.023Z</time></trkpt><trkpt lat="44.0262633" lon="12.205115"><ele>91.0</ele><time>2026-04-26T10:07:58.025Z</time></trkpt><trkpt lat="44.0260967" lon="12.2051017"><ele>91.0</ele><time>2026-04-26T10:07:59.023Z</time></trkpt><trkpt lat="44.0259283" lon="12.2050917"><ele>91.0</ele><time>2026-04-26T10:08:00.023Z</time></trkpt><trkpt lat="44.0257683" lon="12.2050733"><ele>91.0</ele><time>2026-04-26T10:08:01.021Z</time></trkpt><trkpt lat="44.025615" lon="12.2050533"><ele>91.0</ele><time>2026-04-26T10:08:02.022Z</time></trkpt><trkpt lat="44.0254633" lon="12.2050367"><ele>91.0</ele><time>2026-04-26T10:08:03.027Z</time></trkpt><trkpt lat="44.0253183" lon="12.20502"><ele>91.0</ele><time>2026-04-26T10:08:04.023Z</time></trkpt><trkpt lat="44.02518" lon="12.2050067"><ele>91.0</ele><time>2026-04-26T10:08:05.021Z</time></trkpt><trkpt lat="44.0250533" lon="12.2049917"><ele>91.0</ele><time>2026-04-26T10:08:06.022Z</time></trkpt><trkpt lat="44.0249317" lon="12.204975"><ele>91.0</ele><time>2026-04-26T10:08:07.024Z</time></trkpt><trkpt lat="44.0248133" lon="12.204955"><ele>91.0</ele><time>2026-04-26T10:08:08.022Z</time></trkpt><trkpt lat="44.0246917" lon="12.2049433"><ele>91.0</ele><time>2026-04-26T10:08:09.024Z</time></trkpt><trkpt lat="44.0245617" lon="12.204925"><ele>91.0</ele><time>2026-04-26T10:08:10.023Z</time></trkpt><trkpt lat="44.0244267" lon="12.2049067"><ele>91.0</ele><time>2026-04-26T10:08:11.022Z</time></trkpt><trkpt lat="44.0242917" lon="12.20488"><ele>91.0</ele><time>2026-04-26T10:08:12.022Z</time></trkpt><trkpt lat="44.0241533" lon="12.20486"><ele>91.0</ele><time>2026-04-26T10:08:13.025Z</time></trkpt><trkpt lat="44.0240117" lon="12.2048467"><ele>91.0</ele><time>2026-04-26T10:08:14.023Z</time></trkpt><trkpt lat="44.0238783" lon="12.20483"><ele>91.0</ele><time>2026-04-26T10:08:15.022Z</time></trkpt><trkpt lat="44.0237433" lon="12.204815"><ele>91.0</ele><time>2026-04-26T10:08:16.023Z</time></trkpt><trkpt lat="44.0236083" lon="12.2047983"><ele>91.0</ele><time>2026-04-26T10:08:17.022Z</time></trkpt><trkpt lat="44.02347" lon="12.20478"><ele>91.0</ele><time>2026-04-26T10:08:18.027Z</time></trkpt><trkpt lat="44.0233267" lon="12.204765"><ele>91.0</ele><time>2026-04-26T10:08:19.021Z</time></trkpt><trkpt lat="44.0231783" lon="12.2047517"><ele>91.0</ele><time>2026-04-26T10:08:20.021Z</time></trkpt><trkpt lat="44.02303" lon="12.2047367"><ele>91.0</ele><time>2026-04-26T10:08:21.023Z</time></trkpt><trkpt lat="44.0228883" lon="12.2047233"><ele>91.0</ele><time>2026-04-26T10:08:22.023Z</time></trkpt><trkpt lat="44.02275" lon="12.2047067"><ele>91.0</ele><time>2026-04-26T10:08:23.023Z</time></trkpt><trkpt lat="44.022625" lon="12.2046933"><ele>91.0</ele><time>2026-04-26T10:08:24.023Z</time></trkpt><trkpt lat="44.0225017" lon="12.20468"><ele>91.0</ele><time>2026-04-26T10:08:25.022Z</time></trkpt><trkpt lat="44.0223833" lon="12.2046667"><ele>91.0</ele><time>2026-04-26T10:08:26.023Z</time></trkpt><trkpt lat="44.0222833" lon="12.2046567"><ele>91.0</ele><time>2026-04-26T10:08:27.021Z</time></trkpt><trkpt lat="44.0221967" lon="12.20465"><ele>91.0</ele><time>2026-04-26T10:08:28.023Z</time></trkpt><trkpt lat="44.02212" lon="12.2046417"><ele>91.0</ele><time>2026-04-26T10:08:29.022Z</time></trkpt><trkpt lat="44.02201" lon="12.2046217"><ele>91.0</ele><time>2026-04-26T10:08:31.024Z</time></trkpt><trkpt lat="44.0219417" lon="12.20459"><ele>91.0</ele><time>2026-04-26T10:08:33.024Z</time></trkpt><trkpt lat="44.0218733" lon="12.2044367"><ele>91.0</ele><time>2026-04-26T10:13:24.026Z</time></trkpt><trkpt lat="44.0218167" lon="12.2045217"><ele>91.0</ele><time>2026-04-26T10:13:47.022Z</time></trkpt><trkpt lat="44.021755" lon="12.2045417"><ele>91.0</ele><time>2026-04-26T10:13:48.023Z</time></trkpt><trkpt lat="44.02168" lon="12.2045417"><ele>91.0</ele><time>2026-04-26T10:13:49.03Z</time></trkpt><trkpt lat="44.0215967" lon="12.204545"><ele>91.0</ele><time>2026-04-26T10:13:50.022Z</time></trkpt><trkpt lat="44.0215033" lon="12.2045517"><ele>91.0</ele><time>2026-04-26T10:13:51.026Z</time></trkpt><trkpt lat="44.0214" lon="12.2045617"><ele>91.0</ele><time>2026-04-26T10:13:52.022Z</time></trkpt><trkpt lat="44.0212983" lon="12.2045567"><ele>91.0</ele><time>2026-04-26T10:13:53.023Z</time></trkpt><trkpt lat="44.0211917" lon="12.2045483"><ele>91.0</ele><time>2026-04-26T10:13:54.024Z</time></trkpt><trkpt lat="44.02108" lon="12.2045367"><ele>91.0</ele><time>2026-04-26T10:13:55.024Z</time></trkpt><trkpt lat="44.0209717" lon="12.2045233"><ele>91.0</ele><time>2026-04-26T10:13:56.023Z</time></trkpt><trkpt lat="44.02086" lon="12.2045133"><ele>91.0</ele><time>2026-04-26T10:13:57.024Z</time></trkpt><trkpt lat="44.0207517" lon="12.2045067"><ele>90.8</ele><time>2026-04-26T10:13:58.024Z</time></trkpt><trkpt lat="44.0206467" lon="12.204505"><ele>90.6</ele><time>2026-04-26T10:13:59.023Z</time></trkpt><trkpt lat="44.02054" lon="12.2045033"><ele>90.4</ele><time>2026-04-26T10:14:00.023Z</time></trkpt><trkpt lat="44.0204333" lon="12.2045"><ele>90.2</ele><time>2026-04-26T10:14:01.021Z</time></trkpt><trkpt lat="44.0203233" lon="12.2045"><ele>90.0</ele><time>2026-04-26T10:14:02.024Z</time></trkpt><trkpt lat="44.02021" lon="12.2045017"><ele>90.0</ele><time>2026-04-26T10:14:03.024Z</time></trkpt><trkpt lat="44.0200983" lon="12.20451"><ele>90.0</ele><time>2026-04-26T10:14:04.023Z</time></trkpt><trkpt lat="44.0199833" lon="12.2045283"><ele>90.0</ele><time>2026-04-26T10:14:05.023Z</time></trkpt><trkpt lat="44.0198567" lon="12.204555"><ele>90.0</ele><time>2026-04-26T10:14:06.026Z</time></trkpt><trkpt lat="44.0197117" lon="12.2045867"><ele>89.0</ele><time>2026-04-26T10:14:07.027Z</time></trkpt><trkpt lat="44.0195533" lon="12.2046217"><ele>88.0</ele><time>2026-04-26T10:14:08.025Z</time></trkpt><trkpt lat="44.0193783" lon="12.2046583"><ele>87.0</ele><time>2026-04-26T10:14:09.024Z</time></trkpt><trkpt lat="44.0191933" lon="12.204695"><ele>87.0</ele><time>2026-04-26T10:14:10.027Z</time></trkpt><trkpt lat="44.019" lon="12.2047283"><ele>87.0</ele><time>2026-04-26T10:14:11.026Z</time></trkpt><trkpt lat="44.018805" lon="12.2047667"><ele>87.0</ele><time>2026-04-26T10:14:12.024Z</time></trkpt><trkpt lat="44.01861" lon="12.2048017"><ele>86.66666666666667</ele><time>2026-04-26T10:14:13.024Z</time></trkpt><trkpt lat="44.018415" lon="12.2048367"><ele>86.33333333333334</ele><time>2026-04-26T10:14:14.024Z</time></trkpt><trkpt lat="44.0182267" lon="12.2048683"><ele>86.0</ele><time>2026-04-26T10:14:15.025Z</time></trkpt><trkpt lat="44.018055" lon="12.2049033"><ele>86.0</ele><time>2026-04-26T10:14:16.024Z</time></trkpt><trkpt lat="44.0178933" lon="12.2049367"><ele>86.0</ele><time>2026-04-26T10:14:17.021Z</time></trkpt><trkpt lat="44.0177433" lon="12.2049633"><ele>86.0</ele><time>2026-04-26T10:14:18.024Z</time></trkpt><trkpt lat="44.01759" lon="12.2049967"><ele>86.0</ele><time>2026-04-26T10:14:19.022Z</time></trkpt><trkpt lat="44.017435" lon="12.20503"><ele>86.0</ele><time>2026-04-26T10:14:20.025Z</time></trkpt><trkpt lat="44.0172767" lon="12.205065"><ele>86.0</ele><time>2026-04-26T10:14:21.024Z</time></trkpt><trkpt lat="44.0171133" lon="12.2050967"><ele>86.0</ele><time>2026-04-26T10:14:22.024Z</time></trkpt><trkpt lat="44.016945" lon="12.20513"><ele>86.0</ele><time>2026-04-26T10:14:23.022Z</time></trkpt><trkpt lat="44.016775" lon="12.2051633"><ele>86.0</ele><time>2026-04-26T10:14:24.027Z</time></trkpt><trkpt lat="44.016605" lon="12.2051967"><ele>86.0</ele><time>2026-04-26T10:14:25.024Z</time></trkpt><trkpt lat="44.0164417" lon="12.2052317"><ele>86.0</ele><time>2026-04-26T10:14:26.022Z</time></trkpt><trkpt lat="44.0162833" lon="12.205265"><ele>86.0</ele><time>2026-04-26T10:14:27.026Z</time></trkpt><trkpt lat="44.0161267" lon="12.2052983"><ele>86.0</ele><time>2026-04-26T10:14:28.022Z</time></trkpt><trkpt lat="44.0159733" lon="12.20533"><ele>86.0</ele><time>2026-04-26T10:14:29.023Z</time></trkpt><trkpt lat="44.0158267" lon="12.2053633"><ele>86.0</ele><time>2026-04-26T10:14:30.023Z</time></trkpt><trkpt lat="44.015685" lon="12.2053933"><ele>86.0</ele><time>2026-04-26T10:14:31.025Z</time></trkpt><trkpt lat="44.015555" lon="12.20542"><ele>86.0</ele><time>2026-04-26T10:14:32.024Z</time></trkpt><trkpt lat="44.01544" lon="12.205435"><ele>86.0</ele><time>2026-04-26T10:14:33.024Z</time></trkpt><trkpt lat="44.015335" lon="12.2054317"><ele>86.0</ele><time>2026-04-26T10:14:34.022Z</time></trkpt><trkpt lat="44.0152467" lon="12.2054083"><ele>86.0</ele><time>2026-04-26T10:14:35.024Z</time></trkpt><trkpt lat="44.0151717" lon="12.2053617"><ele>86.0</ele><time>2026-04-26T10:14:36.024Z</time></trkpt><trkpt lat="44.0151083" lon="12.2053033"><ele>86.0</ele><time>2026-04-26T10:14:37.021Z</time></trkpt><trkpt lat="44.015055" lon="12.2052517"><ele>86.0</ele><time>2026-04-26T10:14:38.023Z</time></trkpt><trkpt lat="44.0149583" lon="12.2051983"><ele>86.0</ele><time>2026-04-26T10:14:40.023Z</time></trkpt><trkpt lat="44.0148633" lon="12.20523"><ele>86.0</ele><time>2026-04-26T10:14:42.023Z</time></trkpt><trkpt lat="44.0147783" lon="12.2053133"><ele>86.0</ele><time>2026-04-26T10:14:44.029Z</time></trkpt><trkpt lat="44.0147267" lon="12.20537"><ele>86.0</ele><time>2026-04-26T10:14:45.023Z</time></trkpt><trkpt lat="44.0146667" lon="12.2054283"><ele>86.19999999999999</ele><time>2026-04-26T10:14:46.025Z</time></trkpt><trkpt lat="44.0145967" lon="12.2054767"><ele>86.39999999999999</ele><time>2026-04-26T10:14:47.022Z</time></trkpt><trkpt lat="44.0145133" lon="12.2055067"><ele>86.6</ele><time>2026-04-26T10:14:48.023Z</time></trkpt><trkpt lat="44.0144283" lon="12.2055167"><ele>86.8</ele><time>2026-04-26T10:14:49.025Z</time></trkpt><trkpt lat="44.01432" lon="12.2055167"><ele>87.0</ele><time>2026-04-26T10:14:50.025Z</time></trkpt><trkpt lat="44.014205" lon="12.2055"><ele>87.0</ele><time>2026-04-26T10:14:51.024Z</time></trkpt><trkpt lat="44.0141033" lon="12.2054783"><ele>87.0</ele><time>2026-04-26T10:14:52.024Z</time></trkpt><trkpt lat="44.0140083" lon="12.2054517"><ele>87.0</ele><time>2026-04-26T10:14:53.022Z</time></trkpt><trkpt lat="44.0139133" lon="12.2054183"><ele>87.0</ele><time>2026-04-26T10:14:54.024Z</time></trkpt><trkpt lat="44.0138117" lon="12.205385"><ele>87.0</ele><time>2026-04-26T10:14:55.022Z</time></trkpt><trkpt lat="44.013705" lon="12.2053417"><ele>87.0</ele><time>2026-04-26T10:14:56.023Z</time></trkpt><trkpt lat="44.013585" lon="12.2052867"><ele>87.0</ele><time>2026-04-26T10:14:57.023Z</time></trkpt><trkpt lat="44.0134517" lon="12.205225"><ele>87.0</ele><time>2026-04-26T10:14:58.024Z</time></trkpt><trkpt lat="44.0133067" lon="12.205165"><ele>87.0</ele><time>2026-04-26T10:14:59.024Z</time></trkpt><trkpt lat="44.0131533" lon="12.205095"><ele>87.33333333333333</ele><time>2026-04-26T10:15:00.023Z</time></trkpt><trkpt lat="44.0130033" lon="12.205015"><ele>87.66666666666666</ele><time>2026-04-26T10:15:01.024Z</time></trkpt><trkpt lat="44.0128583" lon="12.204945"><ele>88.0</ele><time>2026-04-26T10:15:02.024Z</time></trkpt><trkpt lat="44.0127233" lon="12.2048883"><ele>88.0</ele><time>2026-04-26T10:15:03.023Z</time></trkpt><trkpt lat="44.0125917" lon="12.204835"><ele>88.0</ele><time>2026-04-26T10:15:04.024Z</time></trkpt><trkpt lat="44.0124667" lon="12.2047817"><ele>88.0</ele><time>2026-04-26T10:15:05.027Z</time></trkpt><trkpt lat="44.0123367" lon="12.20473"><ele>88.0</ele><time>2026-04-26T10:15:06.025Z</time></trkpt><trkpt lat="44.0122067" lon="12.2046683"><ele>88.25</ele><time>2026-04-26T10:15:07.022Z</time></trkpt><trkpt lat="44.0120717" lon="12.2046083"><ele>88.5</ele><time>2026-04-26T10:15:08.024Z</time></trkpt><trkpt lat="44.0119367" lon="12.20455"><ele>88.75</ele><time>2026-04-26T10:15:09.024Z</time></trkpt><trkpt lat="44.011805" lon="12.2044967"><ele>89.0</ele><time>2026-04-26T10:15:10.023Z</time></trkpt><trkpt lat="44.0116767" lon="12.2044433"><ele>90.0</ele><time>2026-04-26T10:15:11.023Z</time></trkpt><trkpt lat="44.0115567" lon="12.20439"><ele>91.0</ele><time>2026-04-26T10:15:12.026Z</time></trkpt><trkpt lat="44.01144" lon="12.2043367"><ele>92.0</ele><time>2026-04-26T10:15:13.022Z</time></trkpt><trkpt lat="44.011335" lon="12.2042583"><ele>93.0</ele><time>2026-04-26T10:15:14.024Z</time></trkpt><trkpt lat="44.0112517" lon="12.204155"><ele>93.0</ele><time>2026-04-26T10:15:15.024Z</time></trkpt><trkpt lat="44.0111883" lon="12.2040383"><ele>93.0</ele><time>2026-04-26T10:15:16.025Z</time></trkpt><trkpt lat="44.01115" lon="12.2039"><ele>93.0</ele><time>2026-04-26T10:15:17.024Z</time></trkpt><trkpt lat="44.01113" lon="12.2037417"><ele>93.0</ele><time>2026-04-26T10:15:18.024Z</time></trkpt><trkpt lat="44.0111333" lon="12.203585"><ele>93.0</ele><time>2026-04-26T10:15:19.024Z</time></trkpt><trkpt lat="44.01116" lon="12.20344"><ele>92.33333333333333</ele><time>2026-04-26T10:15:20.024Z</time></trkpt><trkpt lat="44.0111833" lon="12.20333"><ele>91.66666666666667</ele><time>2026-04-26T10:15:21.025Z</time></trkpt><trkpt lat="44.0112017" lon="12.2032433"><ele>91.0</ele><time>2026-04-26T10:15:22.023Z</time></trkpt><trkpt lat="44.01122" lon="12.2031183"><ele>90.33333333333334</ele><time>2026-04-26T10:15:24.024Z</time></trkpt><trkpt lat="44.0112117" lon="12.2030117"><ele>89.66666666666667</ele><time>2026-04-26T10:15:27.025Z</time></trkpt><trkpt lat="44.0111833" lon="12.20314"><ele>89.0</ele><time>2026-04-26T10:15:32.025Z</time></trkpt><trkpt lat="44.0111617" lon="12.2032917"><ele>89.0</ele><time>2026-04-26T10:15:34.025Z</time></trkpt><trkpt lat="44.011145" lon="12.2033967"><ele>89.0</ele><time>2026-04-26T10:15:35.027Z</time></trkpt><trkpt lat="44.011125" lon="12.2035083"><ele>89.0</ele><time>2026-04-26T10:15:36.023Z</time></trkpt><trkpt lat="44.0110983" lon="12.20363"><ele>89.0</ele><time>2026-04-26T10:15:37.025Z</time></trkpt><trkpt lat="44.0110867" lon="12.2037617"><ele>89.0</ele><time>2026-04-26T10:15:38.024Z</time></trkpt><trkpt lat="44.0110733" lon="12.2039"><ele>89.0</ele><time>2026-04-26T10:15:39.024Z</time></trkpt><trkpt lat="44.0110983" lon="12.204015"><ele>89.66666666666667</ele><time>2026-04-26T10:15:40.026Z</time></trkpt><trkpt lat="44.01114" lon="12.2041167"><ele>90.33333333333334</ele><time>2026-04-26T10:15:41.024Z</time></trkpt><trkpt lat="44.0111517" lon="12.2042083"><ele>91.0</ele><time>2026-04-26T10:15:42.024Z</time></trkpt><trkpt lat="44.011155" lon="12.20434"><ele>91.66666666666667</ele><time>2026-04-26T10:15:44.025Z</time></trkpt><trkpt lat="44.0110817" lon="12.2044317"><ele>92.33333333333333</ele><time>2026-04-26T10:15:46.024Z</time></trkpt><trkpt lat="44.0110133" lon="12.2044333"><ele>93.0</ele><time>2026-04-26T10:15:47.024Z</time></trkpt><trkpt lat="44.0109383" lon="12.204425"><ele>95.5</ele><time>2026-04-26T10:15:48.025Z</time></trkpt><trkpt lat="44.0108233" lon="12.2043283"><ele>98.0</ele><time>2026-04-26T10:15:49.025Z</time></trkpt><trkpt lat="44.010715" lon="12.2042433"><ele>100.5</ele><time>2026-04-26T10:15:50.026Z</time></trkpt><trkpt lat="44.0106083" lon="12.2041733"><ele>103.0</ele><time>2026-04-26T10:15:51.024Z</time></trkpt><trkpt lat="44.0104967" lon="12.2041083"><ele>103.0</ele><time>2026-04-26T10:15:52.025Z</time></trkpt><trkpt lat="44.0103783" lon="12.20406"><ele>103.0</ele><time>2026-04-26T10:15:53.024Z</time></trkpt><trkpt lat="44.0102583" lon="12.204035"><ele>103.0</ele><time>2026-04-26T10:15:54.023Z</time></trkpt><trkpt lat="44.0101333" lon="12.20404"><ele>103.0</ele><time>2026-04-26T10:15:55.025Z</time></trkpt><trkpt lat="44.0100067" lon="12.2040683"><ele>103.4</ele><time>2026-04-26T10:15:56.025Z</time></trkpt><trkpt lat="44.009875" lon="12.2040967"><ele>103.80000000000001</ele><time>2026-04-26T10:15:57.025Z</time></trkpt><trkpt lat="44.0097583" lon="12.2041333"><ele>104.2</ele><time>2026-04-26T10:15:58.026Z</time></trkpt><trkpt lat="44.0096567" lon="12.2041567"><ele>104.6</ele><time>2026-04-26T10:15:59.023Z</time></trkpt><trkpt lat="44.0095683" lon="12.20418"><ele>105.0</ele><time>2026-04-26T10:16:00.023Z</time></trkpt><trkpt lat="44.00948" lon="12.204185"><ele>105.0</ele><time>2026-04-26T10:16:01.024Z</time></trkpt><trkpt lat="44.0093917" lon="12.2041733"><ele>105.0</ele><time>2026-04-26T10:16:02.024Z</time></trkpt><trkpt lat="44.009305" lon="12.2041283"><ele>105.0</ele><time>2026-04-26T10:16:03.025Z</time></trkpt><trkpt lat="44.0092167" lon="12.2040667"><ele>105.0</ele><time>2026-04-26T10:16:04.024Z</time></trkpt><trkpt lat="44.0091367" lon="12.204"><ele>105.0</ele><time>2026-04-26T10:16:05.024Z</time></trkpt><trkpt lat="44.0090583" lon="12.203935"><ele>102.0</ele><time>2026-04-26T10:16:06.023Z</time></trkpt><trkpt lat="44.0089817" lon="12.203885"><ele>99.0</ele><time>2026-04-26T10:16:07.025Z</time></trkpt><trkpt lat="44.0089" lon="12.20385"><ele>96.0</ele><time>2026-04-26T10:16:08.024Z</time></trkpt><trkpt lat="44.0088117" lon="12.203845"><ele>93.0</ele><time>2026-04-26T10:16:09.024Z</time></trkpt><trkpt lat="44.0087167" lon="12.20386"><ele>90.0</ele><time>2026-04-26T10:16:10.024Z</time></trkpt><trkpt lat="44.0086033" lon="12.2039267"><ele>90.0</ele><time>2026-04-26T10:16:11.024Z</time></trkpt><trkpt lat="44.00849" lon="12.203985"><ele>90.0</ele><time>2026-04-26T10:16:12.024Z</time></trkpt><trkpt lat="44.0083817" lon="12.2040333"><ele>90.0</ele><time>2026-04-26T10:16:13.023Z</time></trkpt><trkpt lat="44.0082783" lon="12.20408"><ele>90.0</ele><time>2026-04-26T10:16:14.024Z</time></trkpt><trkpt lat="44.008175" lon="12.2041267"><ele>90.25</ele><time>2026-04-26T10:16:15.025Z</time></trkpt><trkpt lat="44.0080633" lon="12.2041533"><ele>90.5</ele><time>2026-04-26T10:16:16.022Z</time></trkpt><trkpt lat="44.0079433" lon="12.2041767"><ele>90.75</ele><time>2026-04-26T10:16:17.027Z</time></trkpt><trkpt lat="44.007825" lon="12.2041883"><ele>91.0</ele><time>2026-04-26T10:16:18.024Z</time></trkpt><trkpt lat="44.007705" lon="12.2042083"><ele>91.0</ele><time>2026-04-26T10:16:19.023Z</time></trkpt><trkpt lat="44.0075867" lon="12.20425"><ele>91.0</ele><time>2026-04-26T10:16:20.023Z</time></trkpt><trkpt lat="44.007465" lon="12.2043133"><ele>91.0</ele><time>2026-04-26T10:16:21.024Z</time></trkpt><trkpt lat="44.00735" lon="12.2043983"><ele>91.0</ele><time>2026-04-26T10:16:22.024Z</time></trkpt><trkpt lat="44.0072267" lon="12.2044867"><ele>90.75</ele><time>2026-04-26T10:16:23.023Z</time></trkpt><trkpt lat="44.0071083" lon="12.2045833"><ele>90.5</ele><time>2026-04-26T10:16:24.024Z</time></trkpt><trkpt lat="44.006985" lon="12.2046667"><ele>90.25</ele><time>2026-04-26T10:16:25.026Z</time></trkpt><trkpt lat="44.0068567" lon="12.2047283"><ele>90.0</ele><time>2026-04-26T10:16:26.022Z</time></trkpt><trkpt lat="44.0067267" lon="12.2047633"><ele>90.0</ele><time>2026-04-26T10:16:27.024Z</time></trkpt><trkpt lat="44.0065933" lon="12.2047767"><ele>90.0</ele><time>2026-04-26T10:16:28.024Z</time></trkpt><trkpt lat="44.00645" lon="12.20477"><ele>90.0</ele><time>2026-04-26T10:16:29.023Z</time></trkpt><trkpt lat="44.0063033" lon="12.2047533"><ele>90.0</ele><time>2026-04-26T10:16:30.024Z</time></trkpt><trkpt lat="44.0061467" lon="12.2047333"><ele>90.0</ele><time>2026-04-26T10:16:31.021Z</time></trkpt><trkpt lat="44.0059833" lon="12.2047083"><ele>90.0</ele><time>2026-04-26T10:16:32.024Z</time></trkpt><trkpt lat="44.0058167" lon="12.204685"><ele>90.0</ele><time>2026-04-26T10:16:33.024Z</time></trkpt><trkpt lat="44.00565" lon="12.2046633"><ele>90.66666666666667</ele><time>2026-04-26T10:16:34.023Z</time></trkpt><trkpt lat="44.0054883" lon="12.2046417"><ele>91.33333333333334</ele><time>2026-04-26T10:16:35.025Z</time></trkpt><trkpt lat="44.0053267" lon="12.2046333"><ele>92.0</ele><time>2026-04-26T10:16:36.024Z</time></trkpt><trkpt lat="44.0051633" lon="12.2046517"><ele>92.0</ele><time>2026-04-26T10:16:37.026Z</time></trkpt><trkpt lat="44.0049967" lon="12.2046917"><ele>92.0</ele><time>2026-04-26T10:16:38.025Z</time></trkpt><trkpt lat="44.0048317" lon="12.2047483"><ele>92.0</ele><time>2026-04-26T10:16:39.027Z</time></trkpt><trkpt lat="44.004665" lon="12.20481"><ele>92.0</ele><time>2026-04-26T10:16:40.024Z</time></trkpt><trkpt lat="44.0045" lon="12.2048767"><ele>92.0</ele><time>2026-04-26T10:16:41.025Z</time></trkpt><trkpt lat="44.0043367" lon="12.204955"><ele>92.0</ele><time>2026-04-26T10:16:42.024Z</time></trkpt><trkpt lat="44.0041833" lon="12.2050433"><ele>92.25</ele><time>2026-04-26T10:16:43.023Z</time></trkpt><trkpt lat="44.0040467" lon="12.2051367"><ele>92.5</ele><time>2026-04-26T10:16:44.023Z</time></trkpt><trkpt lat="44.0039283" lon="12.2052217"><ele>92.75</ele><time>2026-04-26T10:16:45.025Z</time></trkpt><trkpt lat="44.0038217" lon="12.2053017"><ele>93.0</ele><time>2026-04-26T10:16:46.024Z</time></trkpt><trkpt lat="44.0037267" lon="12.2053767"><ele>93.0</ele><time>2026-04-26T10:16:47.024Z</time></trkpt><trkpt lat="44.0036383" lon="12.2054417"><ele>93.0</ele><time>2026-04-26T10:16:48.024Z</time></trkpt><trkpt lat="44.0035567" lon="12.2054917"><ele>93.0</ele><time>2026-04-26T10:16:49.023Z</time></trkpt><trkpt lat="44.0034717" lon="12.2055283"><ele>93.0</ele><time>2026-04-26T10:16:50.023Z</time></trkpt><trkpt lat="44.0033917" lon="12.2055417"><ele>93.0</ele><time>2026-04-26T10:16:51.023Z</time></trkpt><trkpt lat="44.0032917" lon="12.2055333"><ele>93.75</ele><time>2026-04-26T10:16:52.031Z</time></trkpt><trkpt lat="44.003185" lon="12.2055117"><ele>94.5</ele><time>2026-04-26T10:16:53.025Z</time></trkpt><trkpt lat="44.0030633" lon="12.2054817"><ele>95.25</ele><time>2026-04-26T10:16:54.023Z</time></trkpt><trkpt lat="44.00292" lon="12.2054417"><ele>96.0</ele><time>2026-04-26T10:16:55.025Z</time></trkpt><trkpt lat="44.0027617" lon="12.2054033"><ele>96.0</ele><time>2026-04-26T10:16:56.023Z</time></trkpt><trkpt lat="44.0026083" lon="12.205355"><ele>96.0</ele><time>2026-04-26T10:16:57.023Z</time></trkpt><trkpt lat="44.0024567" lon="12.20532"><ele>96.0</ele><time>2026-04-26T10:16:58.022Z</time></trkpt><trkpt lat="44.0023133" lon="12.2052867"><ele>97.75</ele><time>2026-04-26T10:16:59.023Z</time></trkpt><trkpt lat="44.0021683" lon="12.2052583"><ele>99.5</ele><time>2026-04-26T10:17:00.026Z</time></trkpt><trkpt lat="44.0020233" lon="12.2052417"><ele>101.25</ele><time>2026-04-26T10:17:01.022Z</time></trkpt><trkpt lat="44.00187" lon="12.20524"><ele>103.0</ele><time>2026-04-26T10:17:02.027Z</time></trkpt><trkpt lat="44.0017217" lon="12.20524"><ele>105.25</ele><time>2026-04-26T10:17:03.025Z</time></trkpt><trkpt lat="44.0015783" lon="12.2052367"><ele>107.5</ele><time>2026-04-26T10:17:04.023Z</time></trkpt><trkpt lat="44.0014433" lon="12.2052317"><ele>109.75</ele><time>2026-04-26T10:17:05.023Z</time></trkpt><trkpt lat="44.00132" lon="12.2052083"><ele>112.0</ele><time>2026-04-26T10:17:06.023Z</time></trkpt><trkpt lat="44.0012033" lon="12.2051583"><ele>112.0</ele><time>2026-04-26T10:17:07.027Z</time></trkpt><trkpt lat="44.0010983" lon="12.2050967"><ele>111.99999999999999</ele><time>2026-04-26T10:17:08.023Z</time></trkpt><trkpt lat="44.001005" lon="12.2050433"><ele>111.99999999999999</ele><time>2026-04-26T10:17:09.024Z</time></trkpt><trkpt lat="44.0009133" lon="12.2050067"><ele>112.0</ele><time>2026-04-26T10:17:10.024Z</time></trkpt><trkpt lat="44.0008183" lon="12.2049883"><ele>112.0</ele><time>2026-04-26T10:17:11.023Z</time></trkpt><trkpt lat="44.0007167" lon="12.2049817"><ele>113.19999999999999</ele><time>2026-04-26T10:17:12.026Z</time></trkpt><trkpt lat="44.00061" lon="12.2049883"><ele>114.39999999999999</ele><time>2026-04-26T10:17:13.023Z</time></trkpt><trkpt lat="44.0004983" lon="12.205"><ele>115.60000000000001</ele><time>2026-04-26T10:17:14.023Z</time></trkpt><trkpt lat="44.00039" lon="12.2050083"><ele>116.80000000000001</ele><time>2026-04-26T10:17:15.023Z</time></trkpt><trkpt lat="44.00028" lon="12.205015"><ele>118.0</ele><time>2026-04-26T10:17:16.021Z</time></trkpt><trkpt lat="44.000175" lon="12.2050267"><ele>118.00000000000001</ele><time>2026-04-26T10:17:17.024Z</time></trkpt><trkpt lat="44.0000817" lon="12.2050417"><ele>118.0</ele><time>2026-04-26T10:17:18.025Z</time></trkpt><trkpt lat="43.9999967" lon="12.20507"><ele>118.0</ele><time>2026-04-26T10:17:19.024Z</time></trkpt><trkpt lat="43.9999183" lon="12.2051117"><ele>118.0</ele><time>2026-04-26T10:17:20.026Z</time></trkpt><trkpt lat="43.9998567" lon="12.20517"><ele>118.00000000000001</ele><time>2026-04-26T10:17:21.026Z</time></trkpt><trkpt lat="43.9998183" lon="12.20525"><ele>118.0</ele><time>2026-04-26T10:17:22.024Z</time></trkpt><trkpt lat="43.9997933" lon="12.20534"><ele>118.0</ele><time>2026-04-26T10:17:23.024Z</time></trkpt><trkpt lat="43.99979" lon="12.20545"><ele>118.00000000000001</ele><time>2026-04-26T10:17:24.025Z</time></trkpt><trkpt lat="43.9997917" lon="12.2055817"><ele>118.00000000000001</ele><time>2026-04-26T10:17:25.022Z</time></trkpt><trkpt lat="43.999795" lon="12.2057333"><ele>118.0</ele><time>2026-04-26T10:17:26.021Z</time></trkpt><trkpt lat="43.9998033" lon="12.2059"><ele>118.0</ele><time>2026-04-26T10:17:27.021Z</time></trkpt><trkpt lat="43.999805" lon="12.20607"><ele>119.4</ele><time>2026-04-26T10:17:28.026Z</time></trkpt><trkpt lat="43.9998067" lon="12.2062333"><ele>120.80000000000001</ele><time>2026-04-26T10:17:29.023Z</time></trkpt><trkpt lat="43.9998067" lon="12.2063883"><ele>122.2</ele><time>2026-04-26T10:17:30.024Z</time></trkpt><trkpt lat="43.99981" lon="12.2065283"><ele>123.6</ele><time>2026-04-26T10:17:31.023Z</time></trkpt><trkpt lat="43.99981" lon="12.2066617"><ele>125.0</ele><time>2026-04-26T10:17:32.024Z</time></trkpt><trkpt lat="43.9998067" lon="12.2067867"><ele>125.99999999999999</ele><time>2026-04-26T10:17:33.023Z</time></trkpt><trkpt lat="43.9998033" lon="12.2069067"><ele>127.0</ele><time>2026-04-26T10:17:34.023Z</time></trkpt><trkpt lat="43.9998" lon="12.20702"><ele>128.0</ele><time>2026-04-26T10:17:35.023Z</time></trkpt><trkpt lat="43.9997933" lon="12.2071283"><ele>129.0</ele><time>2026-04-26T10:17:36.023Z</time></trkpt><trkpt lat="43.9997767" lon="12.2072317"><ele>130.0</ele><time>2026-04-26T10:17:37.022Z</time></trkpt><trkpt lat="43.9997483" lon="12.20732"><ele>131.0</ele><time>2026-04-26T10:17:38.028Z</time></trkpt><trkpt lat="43.9996517" lon="12.20744"><ele>132.66666666666666</ele><time>2026-04-26T10:17:40.023Z</time></trkpt><trkpt lat="43.999585" lon="12.20747"><ele>134.33333333333331</ele><time>2026-04-26T10:17:41.023Z</time></trkpt><trkpt lat="43.99951" lon="12.2074733"><ele>136.0</ele><time>2026-04-26T10:17:42.023Z</time></trkpt><trkpt lat="43.9994317" lon="12.2074567"><ele>137.66666666666666</ele><time>2026-04-26T10:17:43.022Z</time></trkpt><trkpt lat="43.999345" lon="12.2074317"><ele>139.33333333333334</ele><time>2026-04-26T10:17:44.023Z</time></trkpt><trkpt lat="43.9992467" lon="12.2074133"><ele>141.0</ele><time>2026-04-26T10:17:45.027Z</time></trkpt><trkpt lat="43.9991517" lon="12.2074033"><ele>142.6</ele><time>2026-04-26T10:17:46.021Z</time></trkpt><trkpt lat="43.99905" lon="12.2073983"><ele>144.2</ele><time>2026-04-26T10:17:47.023Z</time></trkpt><trkpt lat="43.99894" lon="12.207405"><ele>145.8</ele><time>2026-04-26T10:17:48.025Z</time></trkpt><trkpt lat="43.9988233" lon="12.2074183"><ele>147.4</ele><time>2026-04-26T10:17:49.025Z</time></trkpt><trkpt lat="43.9987083" lon="12.207435"><ele>149.0</ele><time>2026-04-26T10:17:50.024Z</time></trkpt><trkpt lat="43.9985867" lon="12.20745"><ele>149.0</ele><time>2026-04-26T10:17:51.024Z</time></trkpt><trkpt lat="43.998465" lon="12.2074533"><ele>149.0</ele><time>2026-04-26T10:17:52.024Z</time></trkpt><trkpt lat="43.9983483" lon="12.2074433"><ele>149.0</ele><time>2026-04-26T10:17:53.023Z</time></trkpt><trkpt lat="43.9982467" lon="12.2074117"><ele>149.0</ele><time>2026-04-26T10:17:54.023Z</time></trkpt><trkpt lat="43.9981567" lon="12.2073717"><ele>149.0</ele><time>2026-04-26T10:17:55.028Z</time></trkpt><trkpt lat="43.9980733" lon="12.2073433"><ele>148.16666666666666</ele><time>2026-04-26T10:17:56.024Z</time></trkpt><trkpt lat="43.9980067" lon="12.2073267"><ele>147.33333333333331</ele><time>2026-04-26T10:17:57.023Z</time></trkpt><trkpt lat="43.9978967" lon="12.2073433"><ele>146.5</ele><time>2026-04-26T10:17:59.023Z</time></trkpt><trkpt lat="43.9978567" lon="12.207445"><ele>145.66666666666666</ele><time>2026-04-26T10:18:01.025Z</time></trkpt><trkpt lat="43.9979133" lon="12.2075717"><ele>144.83333333333334</ele><time>2026-04-26T10:18:03.024Z</time></trkpt><trkpt lat="43.9979667" lon="12.207655"><ele>144.0</ele><time>2026-04-26T10:18:04.024Z</time></trkpt><trkpt lat="43.9980317" lon="12.2077467"><ele>147.0</ele><time>2026-04-26T10:18:05.024Z</time></trkpt><trkpt lat="43.9980967" lon="12.2078583"><ele>150.0</ele><time>2026-04-26T10:18:06.027Z</time></trkpt><trkpt lat="43.9981617" lon="12.2079833"><ele>153.0</ele><time>2026-04-26T10:18:07.024Z</time></trkpt><trkpt lat="43.99822" lon="12.2081183"><ele>156.0</ele><time>2026-04-26T10:18:08.023Z</time></trkpt><trkpt lat="43.99827" lon="12.2082617"><ele>159.0</ele><time>2026-04-26T10:18:09.025Z</time></trkpt><trkpt lat="43.99832" lon="12.2084133"><ele>159.5</ele><time>2026-04-26T10:18:10.025Z</time></trkpt><trkpt lat="43.9983817" lon="12.2085583"><ele>160.0</ele><time>2026-04-26T10:18:11.028Z</time></trkpt><trkpt lat="43.9984433" lon="12.2086867"><ele>160.5</ele><time>2026-04-26T10:18:12.023Z</time></trkpt><trkpt lat="43.998515" lon="12.2088017"><ele>161.0</ele><time>2026-04-26T10:18:13.023Z</time></trkpt><trkpt lat="43.9986033" lon="12.2088933"><ele>161.0</ele><time>2026-04-26T10:18:14.024Z</time></trkpt><trkpt lat="43.9987" lon="12.2089867"><ele>161.0</ele><time>2026-04-26T10:18:15.025Z</time></trkpt><trkpt lat="43.998795" lon="12.2090817"><ele>161.0</ele><time>2026-04-26T10:18:16.023Z</time></trkpt><trkpt lat="43.9988733" lon="12.2091717"><ele>161.0</ele><time>2026-04-26T10:18:17.023Z</time></trkpt><trkpt lat="43.9989383" lon="12.2092633"><ele>161.0</ele><time>2026-04-26T10:18:18.022Z</time></trkpt><trkpt lat="43.998995" lon="12.2093467"><ele>163.33333333333331</ele><time>2026-04-26T10:18:19.024Z</time></trkpt><trkpt lat="43.999035" lon="12.2094267"><ele>165.66666666666666</ele><time>2026-04-26T10:18:20.023Z</time></trkpt><trkpt lat="43.99906" lon="12.2095133"><ele>168.0</ele><time>2026-04-26T10:18:21.025Z</time></trkpt><trkpt lat="43.99901" lon="12.209625"><ele>170.33333333333334</ele><time>2026-04-26T10:18:23.023Z</time></trkpt><trkpt lat="43.9989067" lon="12.2096333"><ele>172.66666666666669</ele><time>2026-04-26T10:18:25.025Z</time></trkpt><trkpt lat="43.9988333" lon="12.20959"><ele>175.0</ele><time>2026-04-26T10:18:26.022Z</time></trkpt><trkpt lat="43.9987417" lon="12.2095383"><ele>175.0</ele><time>2026-04-26T10:18:27.025Z</time></trkpt><trkpt lat="43.998645" lon="12.2095033"><ele>175.0</ele><time>2026-04-26T10:18:28.022Z</time></trkpt><trkpt lat="43.9985383" lon="12.2094767"><ele>175.0</ele><time>2026-04-26T10:18:29.023Z</time></trkpt><trkpt lat="43.998425" lon="12.209455"><ele>175.0</ele><time>2026-04-26T10:18:30.024Z</time></trkpt><trkpt lat="43.99831" lon="12.2094417"><ele>175.0</ele><time>2026-04-26T10:18:31.025Z</time></trkpt><trkpt lat="43.9982017" lon="12.209425"><ele>177.5</ele><time>2026-04-26T10:18:32.022Z</time></trkpt><trkpt lat="43.9981033" lon="12.2094067"><ele>180.0</ele><time>2026-04-26T10:18:33.027Z</time></trkpt><trkpt lat="43.998025" lon="12.2093867"><ele>182.5</ele><time>2026-04-26T10:18:34.024Z</time></trkpt><trkpt lat="43.997955" lon="12.2093883"><ele>185.0</ele><time>2026-04-26T10:18:35.022Z</time></trkpt><trkpt lat="43.997885" lon="12.2094483"><ele>187.5</ele><time>2026-04-26T10:18:37.024Z</time></trkpt><trkpt lat="43.9978917" lon="12.2095733"><ele>190.0</ele><time>2026-04-26T10:18:39.028Z</time></trkpt><trkpt lat="43.9979367" lon="12.2096367"><ele>190.0</ele><time>2026-04-26T10:18:40.023Z</time></trkpt><trkpt lat="43.99803" lon="12.2096967"><ele>190.0</ele><time>2026-04-26T10:18:41.022Z</time></trkpt><trkpt lat="43.9981283" lon="12.2097417"><ele>190.0</ele><time>2026-04-26T10:18:42.025Z</time></trkpt><trkpt lat="43.9982367" lon="12.2097667"><ele>190.0</ele><time>2026-04-26T10:18:43.025Z</time></trkpt><trkpt lat="43.99834" lon="12.209785"><ele>190.0</ele><time>2026-04-26T10:18:44.023Z</time></trkpt><trkpt lat="43.998425" lon="12.2098117"><ele>188.33333333333334</ele><time>2026-04-26T10:18:45.026Z</time></trkpt><trkpt lat="43.9984933" lon="12.20985"><ele>186.66666666666669</ele><time>2026-04-26T10:18:46.024Z</time></trkpt><trkpt lat="43.99855" lon="12.209905"><ele>185.0</ele><time>2026-04-26T10:18:47.024Z</time></trkpt><trkpt lat="43.9985633" lon="12.2100367"><ele>183.33333333333334</ele><time>2026-04-26T10:18:49.025Z</time></trkpt><trkpt lat="43.9984733" lon="12.210135"><ele>181.66666666666666</ele><time>2026-04-26T10:18:51.024Z</time></trkpt><trkpt lat="43.9984033" lon="12.2101833"><ele>180.0</ele><time>2026-04-26T10:18:52.023Z</time></trkpt><trkpt lat="43.9983267" lon="12.210225"><ele>186.6</ele><time>2026-04-26T10:18:53.024Z</time></trkpt><trkpt lat="43.9982183" lon="12.2102567"><ele>193.2</ele><time>2026-04-26T10:18:54.022Z</time></trkpt><trkpt lat="43.9981" lon="12.210275"><ele>199.8</ele><time>2026-04-26T10:18:55.027Z</time></trkpt><trkpt lat="43.9979917" lon="12.2102717"><ele>206.4</ele><time>2026-04-26T10:18:56.024Z</time></trkpt><trkpt lat="43.9978967" lon="12.2102417"><ele>213.0</ele><time>2026-04-26T10:18:57.023Z</time></trkpt><trkpt lat="43.99781" lon="12.2101917"><ele>213.0</ele><time>2026-04-26T10:18:58.024Z</time></trkpt><trkpt lat="43.9977317" lon="12.2101333"><ele>213.0</ele><time>2026-04-26T10:18:59.027Z</time></trkpt><trkpt lat="43.9976567" lon="12.2100783"><ele>213.0</ele><time>2026-04-26T10:19:00.026Z</time></trkpt><trkpt lat="43.9975783" lon="12.210045"><ele>213.0</ele><time>2026-04-26T10:19:01.024Z</time></trkpt><trkpt lat="43.9975083" lon="12.2100333"><ele>213.0</ele><time>2026-04-26T10:19:02.024Z</time></trkpt><trkpt lat="43.9974233" lon="12.2100983"><ele>213.0</ele><time>2026-04-26T10:19:04.025Z</time></trkpt><trkpt lat="43.9974217" lon="12.210245"><ele>213.0</ele><time>2026-04-26T10:19:06.024Z</time></trkpt><trkpt lat="43.997455" lon="12.2103383"><ele>213.0</ele><time>2026-04-26T10:19:07.024Z</time></trkpt><trkpt lat="43.9975033" lon="12.2104433"><ele>213.0</ele><time>2026-04-26T10:19:08.024Z</time></trkpt><trkpt lat="43.9975617" lon="12.2105567"><ele>213.0</ele><time>2026-04-26T10:19:09.024Z</time></trkpt><trkpt lat="43.997605" lon="12.2106683"><ele>213.0</ele><time>2026-04-26T10:19:10.024Z</time></trkpt><trkpt lat="43.9976367" lon="12.210775"><ele>213.0</ele><time>2026-04-26T10:19:11.025Z</time></trkpt><trkpt lat="43.9975967" lon="12.2109067"><ele>215.8</ele><time>2026-04-26T10:19:13.024Z</time></trkpt><trkpt lat="43.9974917" lon="12.210925"><ele>218.60000000000002</ele><time>2026-04-26T10:19:15.024Z</time></trkpt><trkpt lat="43.9974133" lon="12.2108417"><ele>221.39999999999998</ele><time>2026-04-26T10:19:16.024Z</time></trkpt><trkpt lat="43.99734" lon="12.2107517"><ele>224.2</ele><time>2026-04-26T10:19:17.025Z</time></trkpt><trkpt lat="43.9972617" lon="12.2106567"><ele>227.0</ele><time>2026-04-26T10:19:18.023Z</time></trkpt><trkpt lat="43.9971817" lon="12.21058"><ele>227.0</ele><time>2026-04-26T10:19:19.022Z</time></trkpt><trkpt lat="43.9970933" lon="12.2105283"><ele>227.0</ele><time>2026-04-26T10:19:20.022Z</time></trkpt><trkpt lat="43.997" lon="12.2105033"><ele>227.0</ele><time>2026-04-26T10:19:21.023Z</time></trkpt><trkpt lat="43.9969167" lon="12.21053"><ele>227.0</ele><time>2026-04-26T10:19:22.025Z</time></trkpt><trkpt lat="43.996825" lon="12.210575"><ele>227.0</ele><time>2026-04-26T10:19:23.023Z</time></trkpt><trkpt lat="43.9967283" lon="12.210615"><ele>231.75</ele><time>2026-04-26T10:19:24.022Z</time></trkpt><trkpt lat="43.996625" lon="12.21064"><ele>236.5</ele><time>2026-04-26T10:19:25.025Z</time></trkpt><trkpt lat="43.996515" lon="12.21065"><ele>241.25</ele><time>2026-04-26T10:19:26.025Z</time></trkpt><trkpt lat="43.9963917" lon="12.2106533"><ele>246.0</ele><time>2026-04-26T10:19:27.028Z</time></trkpt><trkpt lat="43.9962583" lon="12.2106483"><ele>246.0</ele><time>2026-04-26T10:19:28.024Z</time></trkpt><trkpt lat="43.9961117" lon="12.21064"><ele>246.0</ele><time>2026-04-26T10:19:29.023Z</time></trkpt><trkpt lat="43.9959567" lon="12.2106317"><ele>246.0</ele><time>2026-04-26T10:19:30.022Z</time></trkpt><trkpt lat="43.9957983" lon="12.2106267"><ele>246.33333333333331</ele><time>2026-04-26T10:19:31.023Z</time></trkpt><trkpt lat="43.9956417" lon="12.2106217"><ele>246.66666666666666</ele><time>2026-04-26T10:19:32.022Z</time></trkpt><trkpt lat="43.9954917" lon="12.2106133"><ele>247.0</ele><time>2026-04-26T10:19:33.024Z</time></trkpt><trkpt lat="43.9953467" lon="12.210605"><ele>247.0</ele><time>2026-04-26T10:19:34.025Z</time></trkpt><trkpt lat="43.9952033" lon="12.2106"><ele>247.0</ele><time>2026-04-26T10:19:35.024Z</time></trkpt><trkpt lat="43.99506" lon="12.2105983"><ele>247.0</ele><time>2026-04-26T10:19:36.021Z</time></trkpt><trkpt lat="43.994925" lon="12.210605"><ele>247.0</ele><time>2026-04-26T10:19:37.023Z</time></trkpt><trkpt lat="43.9948067" lon="12.2106267"><ele>246.5</ele><time>2026-04-26T10:19:38.024Z</time></trkpt><trkpt lat="43.994695" lon="12.21068"><ele>246.0</ele><time>2026-04-26T10:19:39.026Z</time></trkpt><trkpt lat="43.99459" lon="12.2107617"><ele>245.5</ele><time>2026-04-26T10:19:40.023Z</time></trkpt><trkpt lat="43.9944933" lon="12.2108717"><ele>245.0</ele><time>2026-04-26T10:19:41.023Z</time></trkpt><trkpt lat="43.9943933" lon="12.2110033"><ele>245.0</ele><time>2026-04-26T10:19:42.024Z</time></trkpt><trkpt lat="43.9942917" lon="12.21114"><ele>245.0</ele><time>2026-04-26T10:19:43.031Z</time></trkpt><trkpt lat="43.9941917" lon="12.211275"><ele>245.0</ele><time>2026-04-26T10:19:44.023Z</time></trkpt><trkpt lat="43.994095" lon="12.2114033"><ele>245.0</ele><time>2026-04-26T10:19:45.024Z</time></trkpt><trkpt lat="43.9940067" lon="12.211525"><ele>245.75</ele><time>2026-04-26T10:19:46.023Z</time></trkpt><trkpt lat="43.993925" lon="12.2116467"><ele>246.5</ele><time>2026-04-26T10:19:47.026Z</time></trkpt><trkpt lat="43.9938567" lon="12.2117833"><ele>247.25</ele><time>2026-04-26T10:19:48.026Z</time></trkpt><trkpt lat="43.9938017" lon="12.211935"><ele>248.0</ele><time>2026-04-26T10:19:49.025Z</time></trkpt><trkpt lat="43.9937533" lon="12.21211"><ele>248.0</ele><time>2026-04-26T10:19:50.023Z</time></trkpt><trkpt lat="43.99371" lon="12.2122983"><ele>248.0</ele><time>2026-04-26T10:19:51.024Z</time></trkpt><trkpt lat="43.9936683" lon="12.2125033"><ele>248.0</ele><time>2026-04-26T10:19:52.023Z</time></trkpt><trkpt lat="43.9936217" lon="12.212715"><ele>248.25</ele><time>2026-04-26T10:19:53.024Z</time></trkpt><trkpt lat="43.9935767" lon="12.212915"><ele>248.5</ele><time>2026-04-26T10:19:54.024Z</time></trkpt><trkpt lat="43.993535" lon="12.2130983"><ele>248.75</ele><time>2026-04-26T10:19:55.023Z</time></trkpt><trkpt lat="43.9934917" lon="12.2132833"><ele>249.0</ele><time>2026-04-26T10:19:56.022Z</time></trkpt><trkpt lat="43.9934517" lon="12.2134633"><ele>248.5</ele><time>2026-04-26T10:19:57.028Z</time></trkpt><trkpt lat="43.99341" lon="12.21365"><ele>248.0</ele><time>2026-04-26T10:19:58.024Z</time></trkpt><trkpt lat="43.9933717" lon="12.2138467"><ele>247.5</ele><time>2026-04-26T10:19:59.024Z</time></trkpt><trkpt lat="43.99333" lon="12.2140633"><ele>247.0</ele><time>2026-04-26T10:20:00.025Z</time></trkpt><trkpt lat="43.993285" lon="12.214285"><ele>248.0</ele><time>2026-04-26T10:20:01.023Z</time></trkpt><trkpt lat="43.9932383" lon="12.21451"><ele>249.0</ele><time>2026-04-26T10:20:02.027Z</time></trkpt><trkpt lat="43.9931917" lon="12.21473"><ele>250.0</ele><time>2026-04-26T10:20:03.024Z</time></trkpt><trkpt lat="43.9931467" lon="12.2149467"><ele>250.0</ele><time>2026-04-26T10:20:04.025Z</time></trkpt><trkpt lat="43.993105" lon="12.2151567"><ele>250.0</ele><time>2026-04-26T10:20:05.023Z</time></trkpt><trkpt lat="43.9930633" lon="12.2153583"><ele>250.0</ele><time>2026-04-26T10:20:06.023Z</time></trkpt><trkpt lat="43.99302" lon="12.2155467"><ele>248.75</ele><time>2026-04-26T10:20:07.025Z</time></trkpt><trkpt lat="43.9929717" lon="12.2157217"><ele>247.5</ele><time>2026-04-26T10:20:08.025Z</time></trkpt><trkpt lat="43.9929133" lon="12.2158917"><ele>246.25</ele><time>2026-04-26T10:20:09.025Z</time></trkpt><trkpt lat="43.99284" lon="12.2160533"><ele>245.0</ele><time>2026-04-26T10:20:10.024Z</time></trkpt><trkpt lat="43.99275" lon="12.21621"><ele>245.0</ele><time>2026-04-26T10:20:11.025Z</time></trkpt><trkpt lat="43.9926467" lon="12.2163533"><ele>245.0</ele><time>2026-04-26T10:20:12.024Z</time></trkpt><trkpt lat="43.9925333" lon="12.2164767"><ele>245.0</ele><time>2026-04-26T10:20:13.028Z</time></trkpt><trkpt lat="43.99241" lon="12.216585"><ele>245.0</ele><time>2026-04-26T10:20:14.023Z</time></trkpt><trkpt lat="43.9922767" lon="12.2166817"><ele>247.25</ele><time>2026-04-26T10:20:15.026Z</time></trkpt><trkpt lat="43.99214" lon="12.2167683"><ele>249.5</ele><time>2026-04-26T10:20:16.025Z</time></trkpt><trkpt lat="43.9920083" lon="12.2168483"><ele>251.75</ele><time>2026-04-26T10:20:17.022Z</time></trkpt><trkpt lat="43.9918883" lon="12.2169383"><ele>254.0</ele><time>2026-04-26T10:20:18.025Z</time></trkpt><trkpt lat="43.99178" lon="12.2170483"><ele>254.0</ele><time>2026-04-26T10:20:19.023Z</time></trkpt><trkpt lat="43.991685" lon="12.2171867"><ele>254.0</ele><time>2026-04-26T10:20:20.023Z</time></trkpt><trkpt lat="43.9915983" lon="12.21735"><ele>254.0</ele><time>2026-04-26T10:20:21.023Z</time></trkpt><trkpt lat="43.9915117" lon="12.2175283"><ele>254.0</ele><time>2026-04-26T10:20:22.023Z</time></trkpt><trkpt lat="43.9914217" lon="12.21772"><ele>256.6666666666667</ele><time>2026-04-26T10:20:23.025Z</time></trkpt><trkpt lat="43.9913267" lon="12.2179167"><ele>259.3333333333333</ele><time>2026-04-26T10:20:24.023Z</time></trkpt><trkpt lat="43.99123" lon="12.2181183"><ele>262.0</ele><time>2026-04-26T10:20:25.023Z</time></trkpt><trkpt lat="43.9911283" lon="12.218325"><ele>262.0</ele><time>2026-04-26T10:20:26.022Z</time></trkpt><trkpt lat="43.9910283" lon="12.2185267"><ele>262.0</ele><time>2026-04-26T10:20:27.024Z</time></trkpt><trkpt lat="43.9909417" lon="12.2187083"><ele>262.0</ele><time>2026-04-26T10:20:28.023Z</time></trkpt><trkpt lat="43.99086" lon="12.2188883"><ele>267.3333333333333</ele><time>2026-04-26T10:20:29.023Z</time></trkpt><trkpt lat="43.99078" lon="12.219075"><ele>272.6666666666667</ele><time>2026-04-26T10:20:30.022Z</time></trkpt><trkpt lat="43.9906967" lon="12.2192567"><ele>278.0</ele><time>2026-04-26T10:20:31.029Z</time></trkpt><trkpt lat="43.9906067" lon="12.2194367"><ele>278.0</ele><time>2026-04-26T10:20:32.024Z</time></trkpt><trkpt lat="43.9905183" lon="12.21961"><ele>278.0</ele><time>2026-04-26T10:20:33.023Z</time></trkpt><trkpt lat="43.9904317" lon="12.219765"><ele>278.0</ele><time>2026-04-26T10:20:34.023Z</time></trkpt><trkpt lat="43.9903533" lon="12.2198983"><ele>278.0</ele><time>2026-04-26T10:20:35.023Z</time></trkpt><trkpt lat="43.9902767" lon="12.2200267"><ele>278.75</ele><time>2026-04-26T10:20:36.027Z</time></trkpt><trkpt lat="43.9901917" lon="12.22015"><ele>279.5</ele><time>2026-04-26T10:20:37.025Z</time></trkpt><trkpt lat="43.9900983" lon="12.2202633"><ele>280.25</ele><time>2026-04-26T10:20:38.023Z</time></trkpt><trkpt lat="43.99" lon="12.220365"><ele>281.0</ele><time>2026-04-26T10:20:39.025Z</time></trkpt><trkpt lat="43.9898983" lon="12.220455"><ele>283.75</ele><time>2026-04-26T10:20:40.024Z</time></trkpt><trkpt lat="43.9897917" lon="12.2205367"><ele>286.5</ele><time>2026-04-26T10:20:41.023Z</time></trkpt><trkpt lat="43.9896817" lon="12.2206117"><ele>289.25</ele><time>2026-04-26T10:20:42.024Z</time></trkpt><trkpt lat="43.9895667" lon="12.2206817"><ele>292.0</ele><time>2026-04-26T10:20:43.024Z</time></trkpt><trkpt lat="43.98945" lon="12.2207483"><ele>293.75</ele><time>2026-04-26T10:20:44.022Z</time></trkpt><trkpt lat="43.9893333" lon="12.220815"><ele>295.5</ele><time>2026-04-26T10:20:45.023Z</time></trkpt><trkpt lat="43.98922" lon="12.2208817"><ele>297.25</ele><time>2026-04-26T10:20:46.025Z</time></trkpt><trkpt lat="43.9891033" lon="12.2209517"><ele>299.0</ele><time>2026-04-26T10:20:47.022Z</time></trkpt><trkpt lat="43.988995" lon="12.2210267"><ele>300.25</ele><time>2026-04-26T10:20:48.023Z</time></trkpt><trkpt lat="43.9888967" lon="12.22111"><ele>301.5</ele><time>2026-04-26T10:20:49.023Z</time></trkpt><trkpt lat="43.9888017" lon="12.2212083"><ele>302.75</ele><time>2026-04-26T10:20:50.025Z</time></trkpt><trkpt lat="43.9887183" lon="12.2213217"><ele>304.0</ele><time>2026-04-26T10:20:51.023Z</time></trkpt><trkpt lat="43.988645" lon="12.22144"><ele>305.2</ele><time>2026-04-26T10:20:52.023Z</time></trkpt><trkpt lat="43.988595" lon="12.2215467"><ele>306.4</ele><time>2026-04-26T10:20:53.024Z</time></trkpt><trkpt lat="43.9885517" lon="12.2216667"><ele>307.6</ele><time>2026-04-26T10:20:54.023Z</time></trkpt><trkpt lat="43.9885117" lon="12.2218067"><ele>308.8</ele><time>2026-04-26T10:20:55.022Z</time></trkpt><trkpt lat="43.9884733" lon="12.221965"><ele>310.0</ele><time>2026-04-26T10:20:56.027Z</time></trkpt><trkpt lat="43.9884317" lon="12.22214"><ele>308.5</ele><time>2026-04-26T10:20:57.026Z</time></trkpt><trkpt lat="43.9883883" lon="12.22233"><ele>307.0</ele><time>2026-04-26T10:20:58.023Z</time></trkpt><trkpt lat="43.9883517" lon="12.2225167"><ele>305.5</ele><time>2026-04-26T10:20:59.022Z</time></trkpt><trkpt lat="43.9883167" lon="12.2227067"><ele>304.0</ele><time>2026-04-26T10:21:00.024Z</time></trkpt><trkpt lat="43.9882833" lon="12.2229"><ele>304.0</ele><time>2026-04-26T10:21:01.025Z</time></trkpt><trkpt lat="43.9882517" lon="12.2231083"><ele>304.0</ele><time>2026-04-26T10:21:02.022Z</time></trkpt><trkpt lat="43.988225" lon="12.2233267"><ele>304.0</ele><time>2026-04-26T10:21:03.023Z</time></trkpt><trkpt lat="43.9882" lon="12.2235433"><ele>301.66666666666663</ele><time>2026-04-26T10:21:04.022Z</time></trkpt><trkpt lat="43.988165" lon="12.2237583"><ele>299.3333333333333</ele><time>2026-04-26T10:21:05.021Z</time></trkpt><trkpt lat="43.9881233" lon="12.2239617"><ele>297.0</ele><time>2026-04-26T10:21:06.024Z</time></trkpt><trkpt lat="43.9880717" lon="12.22416"><ele>295.0</ele><time>2026-04-26T10:21:07.022Z</time></trkpt><trkpt lat="43.98801" lon="12.2243567"><ele>293.0</ele><time>2026-04-26T10:21:08.023Z</time></trkpt><trkpt lat="43.987935" lon="12.224555"><ele>291.0</ele><time>2026-04-26T10:21:09.024Z</time></trkpt><trkpt lat="43.9878367" lon="12.22475"><ele>292.6666666666667</ele><time>2026-04-26T10:21:10.023Z</time></trkpt><trkpt lat="43.9877167" lon="12.22494"><ele>294.33333333333337</ele><time>2026-04-26T10:21:11.023Z</time></trkpt><trkpt lat="43.9875817" lon="12.2251283"><ele>296.0</ele><time>2026-04-26T10:21:12.024Z</time></trkpt><trkpt lat="43.9874367" lon="12.225315"><ele>296.0</ele><time>2026-04-26T10:21:13.024Z</time></trkpt><trkpt lat="43.987285" lon="12.2255017"><ele>296.0</ele><time>2026-04-26T10:21:14.024Z</time></trkpt><trkpt lat="43.987135" lon="12.2256933"><ele>296.0</ele><time>2026-04-26T10:21:15.024Z</time></trkpt><trkpt lat="43.986985" lon="12.2258867"><ele>295.6666666666667</ele><time>2026-04-26T10:21:16.023Z</time></trkpt><trkpt lat="43.9868383" lon="12.226075"><ele>295.3333333333333</ele><time>2026-04-26T10:21:17.023Z</time></trkpt><trkpt lat="43.9867033" lon="12.2262533"><ele>295.0</ele><time>2026-04-26T10:21:18.023Z</time></trkpt><trkpt lat="43.9865733" lon="12.2264333"><ele>297.0</ele><time>2026-04-26T10:21:19.027Z</time></trkpt><trkpt lat="43.9864517" lon="12.2266267"><ele>299.0</ele><time>2026-04-26T10:21:20.024Z</time></trkpt><trkpt lat="43.9863367" lon="12.226835"><ele>301.0</ele><time>2026-04-26T10:21:21.027Z</time></trkpt><trkpt lat="43.9862267" lon="12.2270567"><ele>301.0</ele><time>2026-04-26T10:21:22.024Z</time></trkpt><trkpt lat="43.98612" lon="12.227285"><ele>301.0</ele><time>2026-04-26T10:21:23.024Z</time></trkpt><trkpt lat="43.986015" lon="12.2275167"><ele>301.0</ele><time>2026-04-26T10:21:24.025Z</time></trkpt><trkpt lat="43.9859117" lon="12.2277467"><ele>304.66666666666663</ele><time>2026-04-26T10:21:25.024Z</time></trkpt><trkpt lat="43.9858133" lon="12.227975"><ele>308.3333333333333</ele><time>2026-04-26T10:21:26.024Z</time></trkpt><trkpt lat="43.985715" lon="12.2281983"><ele>312.0</ele><time>2026-04-26T10:21:27.027Z</time></trkpt><trkpt lat="43.985615" lon="12.2284067"><ele>312.0</ele><time>2026-04-26T10:21:28.024Z</time></trkpt><trkpt lat="43.9855183" lon="12.2286"><ele>312.0</ele><time>2026-04-26T10:21:29.025Z</time></trkpt><trkpt lat="43.9854317" lon="12.228785"><ele>312.0</ele><time>2026-04-26T10:21:30.024Z</time></trkpt><trkpt lat="43.9853583" lon="12.2289717"><ele>311.0</ele><time>2026-04-26T10:21:31.023Z</time></trkpt><trkpt lat="43.9853" lon="12.22917"><ele>310.0</ele><time>2026-04-26T10:21:32.023Z</time></trkpt><trkpt lat="43.9852617" lon="12.22938"><ele>309.0</ele><time>2026-04-26T10:21:33.024Z</time></trkpt><trkpt lat="43.9852367" lon="12.229595"><ele>309.0</ele><time>2026-04-26T10:21:34.023Z</time></trkpt><trkpt lat="43.9852183" lon="12.22981"><ele>309.0</ele><time>2026-04-26T10:21:35.023Z</time></trkpt><trkpt lat="43.9852033" lon="12.230025"><ele>309.0</ele><time>2026-04-26T10:21:36.024Z</time></trkpt><trkpt lat="43.985185" lon="12.230245"><ele>309.0</ele><time>2026-04-26T10:21:37.025Z</time></trkpt><trkpt lat="43.985165" lon="12.2304667"><ele>309.0</ele><time>2026-04-26T10:21:38.026Z</time></trkpt><trkpt lat="43.985135" lon="12.2306833"><ele>309.0</ele><time>2026-04-26T10:21:39.021Z</time></trkpt><trkpt lat="43.9850967" lon="12.2308817"><ele>309.75</ele><time>2026-04-26T10:21:40.023Z</time></trkpt><trkpt lat="43.9850467" lon="12.2310633"><ele>310.5</ele><time>2026-04-26T10:21:41.023Z</time></trkpt><trkpt lat="43.984985" lon="12.2312317"><ele>311.25</ele><time>2026-04-26T10:21:42.021Z</time></trkpt><trkpt lat="43.9849" lon="12.2313883"><ele>312.0</ele><time>2026-04-26T10:21:43.026Z</time></trkpt><trkpt lat="43.9847983" lon="12.2315317"><ele>322.6666666666667</ele><time>2026-04-26T10:21:44.025Z</time></trkpt><trkpt lat="43.9846733" lon="12.2316667"><ele>333.33333333333337</ele><time>2026-04-26T10:21:45.024Z</time></trkpt><trkpt lat="43.98454" lon="12.2317767"><ele>344.0</ele><time>2026-04-26T10:21:46.023Z</time></trkpt><trkpt lat="43.9843983" lon="12.2318683"><ele>344.0</ele><time>2026-04-26T10:21:47.024Z</time></trkpt><trkpt lat="43.9842467" lon="12.2319467"><ele>344.0</ele><time>2026-04-26T10:21:48.024Z</time></trkpt><trkpt lat="43.9840983" lon="12.2320167"><ele>344.0</ele><time>2026-04-26T10:21:49.024Z</time></trkpt><trkpt lat="43.9839617" lon="12.2321017"><ele>346.6666666666667</ele><time>2026-04-26T10:21:50.024Z</time></trkpt><trkpt lat="43.9838417" lon="12.2322183"><ele>349.3333333333333</ele><time>2026-04-26T10:21:51.026Z</time></trkpt><trkpt lat="43.9837417" lon="12.2323717"><ele>352.0</ele><time>2026-04-26T10:21:52.025Z</time></trkpt><trkpt lat="43.9836517" lon="12.2325567"><ele>352.0</ele><time>2026-04-26T10:21:53.023Z</time></trkpt><trkpt lat="43.9835583" lon="12.232755"><ele>352.0</ele><time>2026-04-26T10:21:54.029Z</time></trkpt><trkpt lat="43.9834733" lon="12.2329533"><ele>352.0</ele><time>2026-04-26T10:21:55.027Z</time></trkpt><trkpt lat="43.9833967" lon="12.233135"><ele>356.75</ele><time>2026-04-26T10:21:56.025Z</time></trkpt><trkpt lat="43.9833183" lon="12.2332967"><ele>361.5</ele><time>2026-04-26T10:21:57.026Z</time></trkpt><trkpt lat="43.98324" lon="12.2334283"><ele>366.25</ele><time>2026-04-26T10:21:58.025Z</time></trkpt><trkpt lat="43.983155" lon="12.2335067"><ele>371.0</ele><time>2026-04-26T10:21:59.025Z</time></trkpt><trkpt lat="43.983055" lon="12.2335517"><ele>371.0</ele><time>2026-04-26T10:22:00.023Z</time></trkpt><trkpt lat="43.9829433" lon="12.2335667"><ele>371.0</ele><time>2026-04-26T10:22:01.025Z</time></trkpt><trkpt lat="43.9828233" lon="12.2334967"><ele>371.0</ele><time>2026-04-26T10:22:02.026Z</time></trkpt><trkpt lat="43.9827033" lon="12.233375"><ele>371.0</ele><time>2026-04-26T10:22:03.025Z</time></trkpt><trkpt lat="43.9825733" lon="12.233255"><ele>370.75</ele><time>2026-04-26T10:22:04.025Z</time></trkpt><trkpt lat="43.9824383" lon="12.2331467"><ele>370.5</ele><time>2026-04-26T10:22:05.022Z</time></trkpt><trkpt lat="43.9823117" lon="12.2330533"><ele>370.25</ele><time>2026-04-26T10:22:06.023Z</time></trkpt><trkpt lat="43.9821767" lon="12.232995"><ele>370.0</ele><time>2026-04-26T10:22:07.025Z</time></trkpt><trkpt lat="43.982025" lon="12.2329683"><ele>371.66666666666663</ele><time>2026-04-26T10:22:08.023Z</time></trkpt><trkpt lat="43.9818583" lon="12.2329783"><ele>373.3333333333333</ele><time>2026-04-26T10:22:09.022Z</time></trkpt><trkpt lat="43.9816883" lon="12.232995"><ele>375.0</ele><time>2026-04-26T10:22:10.023Z</time></trkpt><trkpt lat="43.98152" lon="12.233005"><ele>375.0</ele><time>2026-04-26T10:22:11.026Z</time></trkpt><trkpt lat="43.981365" lon="12.2330133"><ele>375.0</ele><time>2026-04-26T10:22:12.023Z</time></trkpt><trkpt lat="43.9812167" lon="12.2330267"><ele>375.0</ele><time>2026-04-26T10:22:13.025Z</time></trkpt><trkpt lat="43.9810767" lon="12.2330617"><ele>375.0</ele><time>2026-04-26T10:22:14.022Z</time></trkpt><trkpt lat="43.980945" lon="12.2331233"><ele>372.25</ele><time>2026-04-26T10:22:15.024Z</time></trkpt><trkpt lat="43.9808267" lon="12.2332167"><ele>369.5</ele><time>2026-04-26T10:22:16.024Z</time></trkpt><trkpt lat="43.9807233" lon="12.23333"><ele>366.75</ele><time>2026-04-26T10:22:17.021Z</time></trkpt><trkpt lat="43.9806383" lon="12.2334617"><ele>364.0</ele><time>2026-04-26T10:22:18.024Z</time></trkpt><trkpt lat="43.9805767" lon="12.2336117"><ele>364.0</ele><time>2026-04-26T10:22:19.024Z</time></trkpt><trkpt lat="43.9805467" lon="12.23377"><ele>364.0</ele><time>2026-04-26T10:22:20.024Z</time></trkpt><trkpt lat="43.9805383" lon="12.2339433"><ele>364.0</ele><time>2026-04-26T10:22:21.024Z</time></trkpt><trkpt lat="43.980555" lon="12.2341217"><ele>364.0</ele><time>2026-04-26T10:22:22.023Z</time></trkpt><trkpt lat="43.9805833" lon="12.2343033"><ele>364.5</ele><time>2026-04-26T10:22:23.024Z</time></trkpt><trkpt lat="43.9806133" lon="12.234495"><ele>365.0</ele><time>2026-04-26T10:22:24.024Z</time></trkpt><trkpt lat="43.9806383" lon="12.2346917"><ele>365.5</ele><time>2026-04-26T10:22:25.022Z</time></trkpt><trkpt lat="43.9806433" lon="12.2348917"><ele>366.0</ele><time>2026-04-26T10:22:26.022Z</time></trkpt><trkpt lat="43.98063" lon="12.23509"><ele>366.0</ele><time>2026-04-26T10:22:27.021Z</time></trkpt><trkpt lat="43.9806083" lon="12.23528"><ele>366.0</ele><time>2026-04-26T10:22:28.025Z</time></trkpt><trkpt lat="43.9806017" lon="12.2354667"><ele>366.0</ele><time>2026-04-26T10:22:29.023Z</time></trkpt><trkpt lat="43.9806267" lon="12.235645"><ele>366.0</ele><time>2026-04-26T10:22:30.023Z</time></trkpt><trkpt lat="43.980685" lon="12.23581"><ele>368.25</ele><time>2026-04-26T10:22:31.025Z</time></trkpt><trkpt lat="43.98077" lon="12.2359633"><ele>370.5</ele><time>2026-04-26T10:22:32.024Z</time></trkpt><trkpt lat="43.9808783" lon="12.2360983"><ele>372.75</ele><time>2026-04-26T10:22:33.026Z</time></trkpt><trkpt lat="43.9810017" lon="12.236215"><ele>375.0</ele><time>2026-04-26T10:22:34.021Z</time></trkpt><trkpt lat="43.9811333" lon="12.2363267"><ele>374.25</ele><time>2026-04-26T10:22:35.022Z</time></trkpt><trkpt lat="43.9812583" lon="12.2364383"><ele>373.5</ele><time>2026-04-26T10:22:36.025Z</time></trkpt><trkpt lat="43.9813667" lon="12.23656"><ele>372.75</ele><time>2026-04-26T10:22:37.024Z</time></trkpt><trkpt lat="43.98145" lon="12.2366833"><ele>372.0</ele><time>2026-04-26T10:22:38.025Z</time></trkpt><trkpt lat="43.9815083" lon="12.2368017"><ele>372.0</ele><time>2026-04-26T10:22:39.025Z</time></trkpt><trkpt lat="43.9815267" lon="12.2369133"><ele>372.0</ele><time>2026-04-26T10:22:40.023Z</time></trkpt><trkpt lat="43.9815333" lon="12.2370267"><ele>372.0</ele><time>2026-04-26T10:22:41.023Z</time></trkpt><trkpt lat="43.9815217" lon="12.2371333"><ele>372.0</ele><time>2026-04-26T10:22:42.024Z</time></trkpt><trkpt lat="43.9814817" lon="12.237245"><ele>372.0</ele><time>2026-04-26T10:22:43.026Z</time></trkpt><trkpt lat="43.9814033" lon="12.2373533"><ele>372.0</ele><time>2026-04-26T10:22:44.025Z</time></trkpt><trkpt lat="43.9812583" lon="12.2374567"><ele>372.0</ele><time>2026-04-26T10:22:45.023Z</time></trkpt><trkpt lat="43.9811167" lon="12.2375717"><ele>372.0</ele><time>2026-04-26T10:22:46.024Z</time></trkpt><trkpt lat="43.9809683" lon="12.2376867"><ele>372.0</ele><time>2026-04-26T10:22:47.025Z</time></trkpt><trkpt lat="43.9808067" lon="12.2377983"><ele>377.0</ele><time>2026-04-26T10:22:48.023Z</time></trkpt><trkpt lat="43.9806533" lon="12.23791"><ele>382.0</ele><time>2026-04-26T10:22:49.022Z</time></trkpt><trkpt lat="43.9805067" lon="12.2380383"><ele>387.0</ele><time>2026-04-26T10:22:50.028Z</time></trkpt><trkpt lat="43.980375" lon="12.238175"><ele>387.0</ele><time>2026-04-26T10:22:51.026Z</time></trkpt><trkpt lat="43.980255" lon="12.2383083"><ele>387.0</ele><time>2026-04-26T10:22:52.024Z</time></trkpt><trkpt lat="43.9801483" lon="12.23844"><ele>387.0</ele><time>2026-04-26T10:22:53.023Z</time></trkpt><trkpt lat="43.9800583" lon="12.238575"><ele>387.0</ele><time>2026-04-26T10:22:54.022Z</time></trkpt><trkpt lat="43.979995" lon="12.23872"><ele>387.25</ele><time>2026-04-26T10:22:55.024Z</time></trkpt><trkpt lat="43.9799583" lon="12.23888"><ele>387.5</ele><time>2026-04-26T10:22:56.024Z</time></trkpt><trkpt lat="43.9799433" lon="12.2390667"><ele>387.75</ele><time>2026-04-26T10:22:57.026Z</time></trkpt><trkpt lat="43.9799333" lon="12.2392683"><ele>388.0</ele><time>2026-04-26T10:22:58.023Z</time></trkpt><trkpt lat="43.9799217" lon="12.2394833"><ele>388.0</ele><time>2026-04-26T10:22:59.022Z</time></trkpt><trkpt lat="43.9799083" lon="12.2397033"><ele>388.0</ele><time>2026-04-26T10:23:00.023Z</time></trkpt><trkpt lat="43.9798917" lon="12.23993"><ele>388.0</ele><time>2026-04-26T10:23:01.022Z</time></trkpt><trkpt lat="43.9798683" lon="12.2401467"><ele>389.0</ele><time>2026-04-26T10:23:02.024Z</time></trkpt><trkpt lat="43.9798333" lon="12.24035"><ele>390.0</ele><time>2026-04-26T10:23:03.028Z</time></trkpt><trkpt lat="43.97979" lon="12.24055"><ele>391.0</ele><time>2026-04-26T10:23:04.029Z</time></trkpt><trkpt lat="43.979745" lon="12.24076"><ele>392.33333333333337</ele><time>2026-04-26T10:23:05.027Z</time></trkpt><trkpt lat="43.9797" lon="12.2409783"><ele>393.66666666666663</ele><time>2026-04-26T10:23:06.024Z</time></trkpt><trkpt lat="43.9796517" lon="12.2411983"><ele>395.0</ele><time>2026-04-26T10:23:07.027Z</time></trkpt><trkpt lat="43.9796033" lon="12.2414117"><ele>394.3333333333333</ele><time>2026-04-26T10:23:08.025Z</time></trkpt><trkpt lat="43.9795483" lon="12.2416167"><ele>393.66666666666663</ele><time>2026-04-26T10:23:09.026Z</time></trkpt><trkpt lat="43.9794867" lon="12.2418133"><ele>393.0</ele><time>2026-04-26T10:23:10.025Z</time></trkpt><trkpt lat="43.979415" lon="12.2420033"><ele>393.0</ele><time>2026-04-26T10:23:11.022Z</time></trkpt><trkpt lat="43.97933" lon="12.242185"><ele>393.0</ele><time>2026-04-26T10:23:12.023Z</time></trkpt><trkpt lat="43.979245" lon="12.2423767"><ele>393.0</ele><time>2026-04-26T10:23:13.025Z</time></trkpt><trkpt lat="43.979165" lon="12.2425633"><ele>396.0</ele><time>2026-04-26T10:23:14.025Z</time></trkpt><trkpt lat="43.9790967" lon="12.2427517"><ele>399.0</ele><time>2026-04-26T10:23:15.027Z</time></trkpt><trkpt lat="43.97905" lon="12.242955"><ele>402.0</ele><time>2026-04-26T10:23:16.024Z</time></trkpt><trkpt lat="43.97902" lon="12.24317"><ele>402.75</ele><time>2026-04-26T10:23:17.023Z</time></trkpt><trkpt lat="43.97901" lon="12.2433817"><ele>403.5</ele><time>2026-04-26T10:23:18.024Z</time></trkpt><trkpt lat="43.9790233" lon="12.24358"><ele>404.25</ele><time>2026-04-26T10:23:19.025Z</time></trkpt><trkpt lat="43.9790633" lon="12.24376"><ele>405.0</ele><time>2026-04-26T10:23:20.023Z</time></trkpt><trkpt lat="43.9791267" lon="12.2439333"><ele>395.3333333333333</ele><time>2026-04-26T10:23:21.026Z</time></trkpt><trkpt lat="43.9792017" lon="12.24412"><ele>385.66666666666663</ele><time>2026-04-26T10:23:22.024Z</time></trkpt><trkpt lat="43.979265" lon="12.2443217"><ele>376.0</ele><time>2026-04-26T10:23:23.026Z</time></trkpt><trkpt lat="43.979325" lon="12.2445383"><ele>376.0</ele><time>2026-04-26T10:23:24.025Z</time></trkpt><trkpt lat="43.9793933" lon="12.2447567"><ele>376.0</ele><time>2026-04-26T10:23:25.025Z</time></trkpt><trkpt lat="43.9794733" lon="12.2449617"><ele>376.0</ele><time>2026-04-26T10:23:26.024Z</time></trkpt><trkpt lat="43.9795633" lon="12.2451433"><ele>381.25</ele><time>2026-04-26T10:23:27.025Z</time></trkpt><trkpt lat="43.9796567" lon="12.2453067"><ele>386.5</ele><time>2026-04-26T10:23:28.026Z</time></trkpt><trkpt lat="43.979745" lon="12.2454467"><ele>391.75</ele><time>2026-04-26T10:23:29.025Z</time></trkpt><trkpt lat="43.9798267" lon="12.2455783"><ele>397.0</ele><time>2026-04-26T10:23:30.024Z</time></trkpt><trkpt lat="43.97989" lon="12.245715"><ele>401.0</ele><time>2026-04-26T10:23:31.024Z</time></trkpt><trkpt lat="43.9799533" lon="12.2458633"><ele>405.0</ele><time>2026-04-26T10:23:32.024Z</time></trkpt><trkpt lat="43.9800033" lon="12.246035"><ele>409.0</ele><time>2026-04-26T10:23:33.027Z</time></trkpt><trkpt lat="43.9800433" lon="12.246205"><ele>413.0</ele><time>2026-04-26T10:23:34.026Z</time></trkpt><trkpt lat="43.9800667" lon="12.24637"><ele>408.79999999999995</ele><time>2026-04-26T10:23:35.023Z</time></trkpt><trkpt lat="43.98008" lon="12.2465217"><ele>404.6</ele><time>2026-04-26T10:23:36.024Z</time></trkpt><trkpt lat="43.9800917" lon="12.2466633"><ele>400.4</ele><time>2026-04-26T10:23:37.025Z</time></trkpt><trkpt lat="43.980095" lon="12.2467867"><ele>396.20000000000005</ele><time>2026-04-26T10:23:38.024Z</time></trkpt><trkpt lat="43.98009" lon="12.2468883"><ele>392.0</ele><time>2026-04-26T10:23:39.025Z</time></trkpt><trkpt lat="43.9800333" lon="12.2470217"><ele>397.0</ele><time>2026-04-26T10:23:41.023Z</time></trkpt><trkpt lat="43.9799233" lon="12.2470583"><ele>402.0</ele><time>2026-04-26T10:23:43.024Z</time></trkpt><trkpt lat="43.9798533" lon="12.247045"><ele>407.0</ele><time>2026-04-26T10:23:44.025Z</time></trkpt><trkpt lat="43.9797567" lon="12.2469433"><ele>412.0</ele><time>2026-04-26T10:23:45.025Z</time></trkpt><trkpt lat="43.9796683" lon="12.2468467"><ele>417.0</ele><time>2026-04-26T10:23:46.024Z</time></trkpt><trkpt lat="43.9795733" lon="12.2466917"><ele>417.0</ele><time>2026-04-26T10:23:47.026Z</time></trkpt><trkpt lat="43.9794867" lon="12.2465617"><ele>417.0</ele><time>2026-04-26T10:23:48.025Z</time></trkpt><trkpt lat="43.9793967" lon="12.2464383"><ele>417.0</ele><time>2026-04-26T10:23:49.027Z</time></trkpt><trkpt lat="43.9793183" lon="12.2463217"><ele>417.0</ele><time>2026-04-26T10:23:50.025Z</time></trkpt><trkpt lat="43.9792267" lon="12.2462117"><ele>419.75</ele><time>2026-04-26T10:23:51.025Z</time></trkpt><trkpt lat="43.97913" lon="12.2460917"><ele>422.5</ele><time>2026-04-26T10:23:52.025Z</time></trkpt><trkpt lat="43.9790417" lon="12.2459633"><ele>425.25</ele><time>2026-04-26T10:23:53.026Z</time></trkpt><trkpt lat="43.97894" lon="12.2458183"><ele>428.0</ele><time>2026-04-26T10:23:54.025Z</time></trkpt><trkpt lat="43.9788283" lon="12.2456633"><ele>428.25</ele><time>2026-04-26T10:23:55.025Z</time></trkpt><trkpt lat="43.9787183" lon="12.2455133"><ele>428.5</ele><time>2026-04-26T10:23:56.025Z</time></trkpt><trkpt lat="43.9786017" lon="12.2453717"><ele>428.75</ele><time>2026-04-26T10:23:57.025Z</time></trkpt><trkpt lat="43.978495" lon="12.2452467"><ele>429.0</ele><time>2026-04-26T10:23:58.024Z</time></trkpt><trkpt lat="43.97839" lon="12.24514"><ele>429.75</ele><time>2026-04-26T10:23:59.024Z</time></trkpt><trkpt lat="43.97828" lon="12.2450517"><ele>430.5</ele><time>2026-04-26T10:24:00.022Z</time></trkpt><trkpt lat="43.9781617" lon="12.2449717"><ele>431.25</ele><time>2026-04-26T10:24:01.023Z</time></trkpt><trkpt lat="43.9780283" lon="12.2449017"><ele>432.0</ele><time>2026-04-26T10:24:02.022Z</time></trkpt><trkpt lat="43.9778867" lon="12.2448417"><ele>431.33333333333337</ele><time>2026-04-26T10:24:03.025Z</time></trkpt><trkpt lat="43.97774" lon="12.244795"><ele>430.6666666666667</ele><time>2026-04-26T10:24:04.027Z</time></trkpt><trkpt lat="43.9775867" lon="12.2447783"><ele>430.0</ele><time>2026-04-26T10:24:05.025Z</time></trkpt><trkpt lat="43.977425" lon="12.2447933"><ele>431.6666666666667</ele><time>2026-04-26T10:24:06.022Z</time></trkpt><trkpt lat="43.9772583" lon="12.24483"><ele>433.33333333333337</ele><time>2026-04-26T10:24:07.025Z</time></trkpt><trkpt lat="43.9770867" lon="12.24488"><ele>435.0</ele><time>2026-04-26T10:24:08.024Z</time></trkpt><trkpt lat="43.9769083" lon="12.24493"><ele>435.0</ele><time>2026-04-26T10:24:09.026Z</time></trkpt><trkpt lat="43.9767233" lon="12.2449817"><ele>435.0</ele><time>2026-04-26T10:24:10.029Z</time></trkpt><trkpt lat="43.9765383" lon="12.2450367"><ele>435.0</ele><time>2026-04-26T10:24:11.024Z</time></trkpt><trkpt lat="43.9763533" lon="12.2451033"><ele>436.0</ele><time>2026-04-26T10:24:12.026Z</time></trkpt><trkpt lat="43.97617" lon="12.2451683"><ele>437.0</ele><time>2026-04-26T10:24:13.024Z</time></trkpt><trkpt lat="43.9759917" lon="12.2452233"><ele>438.0</ele><time>2026-04-26T10:24:14.025Z</time></trkpt><trkpt lat="43.9758217" lon="12.2452783"><ele>440.0</ele><time>2026-04-26T10:24:15.027Z</time></trkpt><trkpt lat="43.9756617" lon="12.2453383"><ele>442.0</ele><time>2026-04-26T10:24:16.024Z</time></trkpt><trkpt lat="43.9755183" lon="12.24541"><ele>444.0</ele><time>2026-04-26T10:24:17.022Z</time></trkpt><trkpt lat="43.9753917" lon="12.2455083"><ele>443.66666666666663</ele><time>2026-04-26T10:24:18.024Z</time></trkpt><trkpt lat="43.975275" lon="12.24564"><ele>443.3333333333333</ele><time>2026-04-26T10:24:19.024Z</time></trkpt><trkpt lat="43.975165" lon="12.245805"><ele>443.0</ele><time>2026-04-26T10:24:20.025Z</time></trkpt><trkpt lat="43.9750583" lon="12.2459883"><ele>443.66666666666663</ele><time>2026-04-26T10:24:21.026Z</time></trkpt><trkpt lat="43.9749467" lon="12.2461817"><ele>444.33333333333337</ele><time>2026-04-26T10:24:22.024Z</time></trkpt><trkpt lat="43.974825" lon="12.2463767"><ele>445.0</ele><time>2026-04-26T10:24:23.025Z</time></trkpt><trkpt lat="43.9746983" lon="12.2465617"><ele>445.6666666666667</ele><time>2026-04-26T10:24:24.025Z</time></trkpt><trkpt lat="43.97457" lon="12.2467433"><ele>446.33333333333337</ele><time>2026-04-26T10:24:25.025Z</time></trkpt><trkpt lat="43.9744417" lon="12.2469283"><ele>447.0</ele><time>2026-04-26T10:24:26.025Z</time></trkpt><trkpt lat="43.9743067" lon="12.2470967"><ele>450.0</ele><time>2026-04-26T10:24:27.029Z</time></trkpt><trkpt lat="43.9741767" lon="12.2472567"><ele>453.0</ele><time>2026-04-26T10:24:28.021Z</time></trkpt><trkpt lat="43.9740567" lon="12.2473933"><ele>456.0</ele><time>2026-04-26T10:24:29.022Z</time></trkpt><trkpt lat="43.97395" lon="12.2475017"><ele>456.8</ele><time>2026-04-26T10:24:30.024Z</time></trkpt><trkpt lat="43.9738483" lon="12.2475733"><ele>457.6</ele><time>2026-04-26T10:24:31.025Z</time></trkpt><trkpt lat="43.97375" lon="12.2476033"><ele>458.4</ele><time>2026-04-26T10:24:32.028Z</time></trkpt><trkpt lat="43.9736483" lon="12.2475933"><ele>459.2</ele><time>2026-04-26T10:24:33.026Z</time></trkpt><trkpt lat="43.9735417" lon="12.2475433"><ele>460.0</ele><time>2026-04-26T10:24:34.026Z</time></trkpt><trkpt lat="43.9734317" lon="12.2474633"><ele>462.75</ele><time>2026-04-26T10:24:35.024Z</time></trkpt><trkpt lat="43.97332" lon="12.2473567"><ele>465.5</ele><time>2026-04-26T10:24:36.027Z</time></trkpt><trkpt lat="43.9732167" lon="12.2472167"><ele>468.25</ele><time>2026-04-26T10:24:37.023Z</time></trkpt><trkpt lat="43.9731233" lon="12.2470567"><ele>471.0</ele><time>2026-04-26T10:24:38.026Z</time></trkpt><trkpt lat="43.9730467" lon="12.2468783"><ele>471.0</ele><time>2026-04-26T10:24:39.025Z</time></trkpt><trkpt lat="43.9729767" lon="12.2467083"><ele>471.0</ele><time>2026-04-26T10:24:40.023Z</time></trkpt><trkpt lat="43.9729133" lon="12.246565"><ele>471.0</ele><time>2026-04-26T10:24:41.024Z</time></trkpt><trkpt lat="43.9728517" lon="12.2464417"><ele>471.0</ele><time>2026-04-26T10:24:42.024Z</time></trkpt><trkpt lat="43.972785" lon="12.2463667"><ele>471.0</ele><time>2026-04-26T10:24:43.026Z</time></trkpt><trkpt lat="43.9727083" lon="12.2463183"><ele>471.0</ele><time>2026-04-26T10:24:44.024Z</time></trkpt><trkpt lat="43.9726317" lon="12.24631"><ele>471.0</ele><time>2026-04-26T10:24:45.025Z</time></trkpt><trkpt lat="43.9725633" lon="12.24636"><ele>471.0</ele><time>2026-04-26T10:24:46.024Z</time></trkpt><trkpt lat="43.9725233" lon="12.24647"><ele>471.0</ele><time>2026-04-26T10:24:47.025Z</time></trkpt><trkpt lat="43.97249" lon="12.2465933"><ele>471.0</ele><time>2026-04-26T10:24:48.023Z</time></trkpt><trkpt lat="43.9724683" lon="12.2467667"><ele>474.8</ele><time>2026-04-26T10:24:49.025Z</time></trkpt><trkpt lat="43.9724433" lon="12.246945"><ele>478.6</ele><time>2026-04-26T10:24:50.025Z</time></trkpt><trkpt lat="43.97239" lon="12.2470717"><ele>482.4</ele><time>2026-04-26T10:24:51.026Z</time></trkpt><trkpt lat="43.972315" lon="12.2471517"><ele>486.2</ele><time>2026-04-26T10:24:52.025Z</time></trkpt><trkpt lat="43.9722433" lon="12.24719"><ele>490.0</ele><time>2026-04-26T10:24:53.024Z</time></trkpt><trkpt lat="43.972175" lon="12.2471717"><ele>490.0</ele><time>2026-04-26T10:24:54.028Z</time></trkpt><trkpt lat="43.9721167" lon="12.2471333"><ele>490.0</ele><time>2026-04-26T10:24:55.024Z</time></trkpt><trkpt lat="43.9720767" lon="12.2470017"><ele>490.0</ele><time>2026-04-26T10:24:56.023Z</time></trkpt><trkpt lat="43.9720617" lon="12.2468467"><ele>490.0</ele><time>2026-04-26T10:24:57.025Z</time></trkpt><trkpt lat="43.9720433" lon="12.2466867"><ele>490.0</ele><time>2026-04-26T10:24:58.022Z</time></trkpt><trkpt lat="43.972015" lon="12.2465583"><ele>490.0</ele><time>2026-04-26T10:24:59.029Z</time></trkpt><trkpt lat="43.971975" lon="12.24646"><ele>490.0</ele><time>2026-04-26T10:25:00.023Z</time></trkpt><trkpt lat="43.9718617" lon="12.246435"><ele>490.0</ele><time>2026-04-26T10:25:02.025Z</time></trkpt><trkpt lat="43.9717967" lon="12.2465183"><ele>490.0</ele><time>2026-04-26T10:25:03.025Z</time></trkpt><trkpt lat="43.9717267" lon="12.2466317"><ele>490.0</ele><time>2026-04-26T10:25:04.024Z</time></trkpt><trkpt lat="43.9716667" lon="12.2467883"><ele>494.0</ele><time>2026-04-26T10:25:05.024Z</time></trkpt><trkpt lat="43.9716083" lon="12.2469733"><ele>498.0</ele><time>2026-04-26T10:25:06.025Z</time></trkpt><trkpt lat="43.9715467" lon="12.2471517"><ele>502.0</ele><time>2026-04-26T10:25:07.024Z</time></trkpt><trkpt lat="43.9714767" lon="12.2473117"><ele>506.0</ele><time>2026-04-26T10:25:08.027Z</time></trkpt><trkpt lat="43.971405" lon="12.2474333"><ele>505.99999999999994</ele><time>2026-04-26T10:25:09.024Z</time></trkpt><trkpt lat="43.97133" lon="12.247505"><ele>506.0</ele><time>2026-04-26T10:25:10.025Z</time></trkpt><trkpt lat="43.9712483" lon="12.2475367"><ele>506.0</ele><time>2026-04-26T10:25:11.023Z</time></trkpt><trkpt lat="43.9711783" lon="12.2475033"><ele>506.0</ele><time>2026-04-26T10:25:12.023Z</time></trkpt><trkpt lat="43.97112" lon="12.2474417"><ele>505.99999999999994</ele><time>2026-04-26T10:25:13.024Z</time></trkpt><trkpt lat="43.97111" lon="12.2473067"><ele>506.0</ele><time>2026-04-26T10:25:14.024Z</time></trkpt><trkpt lat="43.971125" lon="12.24714"><ele>506.0</ele><time>2026-04-26T10:25:15.027Z</time></trkpt><trkpt lat="43.9711533" lon="12.246975"><ele>506.0</ele><time>2026-04-26T10:25:16.024Z</time></trkpt><trkpt lat="43.9711733" lon="12.246825"><ele>506.0</ele><time>2026-04-26T10:25:17.024Z</time></trkpt><trkpt lat="43.9711633" lon="12.2467"><ele>506.0</ele><time>2026-04-26T10:25:18.025Z</time></trkpt><trkpt lat="43.9711483" lon="12.2466033"><ele>506.0</ele><time>2026-04-26T10:25:19.024Z</time></trkpt><trkpt lat="43.9710667" lon="12.2465133"><ele>506.0</ele><time>2026-04-26T10:25:21.023Z</time></trkpt><trkpt lat="43.97098" lon="12.246615"><ele>506.0</ele><time>2026-04-26T10:25:22.025Z</time></trkpt><trkpt lat="43.9709217" lon="12.2467117"><ele>506.0</ele><time>2026-04-26T10:25:23.026Z</time></trkpt><trkpt lat="43.9708683" lon="12.246865"><ele>506.0</ele><time>2026-04-26T10:25:24.023Z</time></trkpt><trkpt lat="43.9708067" lon="12.2470417"><ele>510.25</ele><time>2026-04-26T10:25:25.025Z</time></trkpt><trkpt lat="43.9707417" lon="12.2472183"><ele>514.5</ele><time>2026-04-26T10:25:26.025Z</time></trkpt><trkpt lat="43.97068" lon="12.2473633"><ele>518.75</ele><time>2026-04-26T10:25:27.024Z</time></trkpt><trkpt lat="43.970615" lon="12.2474817"><ele>523.0</ele><time>2026-04-26T10:25:28.024Z</time></trkpt><trkpt lat="43.97055" lon="12.2475617"><ele>523.0</ele><time>2026-04-26T10:25:29.024Z</time></trkpt><trkpt lat="43.9704833" lon="12.24757"><ele>523.0</ele><time>2026-04-26T10:25:30.024Z</time></trkpt><trkpt lat="43.97042" lon="12.2475483"><ele>523.0</ele><time>2026-04-26T10:25:31.026Z</time></trkpt><trkpt lat="43.9704033" lon="12.247455"><ele>523.0</ele><time>2026-04-26T10:25:32.024Z</time></trkpt><trkpt lat="43.9703983" lon="12.24734"><ele>523.0</ele><time>2026-04-26T10:25:33.103Z</time></trkpt><trkpt lat="43.9704133" lon="12.2472067"><ele>523.0</ele><time>2026-04-26T10:25:34.025Z</time></trkpt><trkpt lat="43.9704267" lon="12.24708"><ele>523.0</ele><time>2026-04-26T10:25:35.023Z</time></trkpt><trkpt lat="43.970425" lon="12.2469717"><ele>523.0</ele><time>2026-04-26T10:25:36.024Z</time></trkpt><trkpt lat="43.9704017" lon="12.2468717"><ele>523.0</ele><time>2026-04-26T10:25:37.024Z</time></trkpt><trkpt lat="43.970325" lon="12.246835"><ele>523.0</ele><time>2026-04-26T10:25:38.026Z</time></trkpt><trkpt lat="43.9702417" lon="12.24681"><ele>523.0</ele><time>2026-04-26T10:25:39.025Z</time></trkpt><trkpt lat="43.9701367" lon="12.2468117"><ele>523.0</ele><time>2026-04-26T10:25:40.026Z</time></trkpt><trkpt lat="43.9699733" lon="12.2468667"><ele>527.3333333333334</ele><time>2026-04-26T10:25:41.024Z</time></trkpt><trkpt lat="43.9698133" lon="12.2469183"><ele>531.6666666666666</ele><time>2026-04-26T10:25:42.027Z</time></trkpt><trkpt lat="43.96965" lon="12.2469567"><ele>536.0</ele><time>2026-04-26T10:25:43.023Z</time></trkpt><trkpt lat="43.9695083" lon="12.24701"><ele>536.0</ele><time>2026-04-26T10:25:44.024Z</time></trkpt><trkpt lat="43.9693767" lon="12.247045"><ele>536.0</ele><time>2026-04-26T10:25:45.026Z</time></trkpt><trkpt lat="43.969245" lon="12.24707"><ele>536.0</ele><time>2026-04-26T10:25:46.024Z</time></trkpt><trkpt lat="43.9691183" lon="12.2470767"><ele>536.0</ele><time>2026-04-26T10:25:47.025Z</time></trkpt><trkpt lat="43.96901" lon="12.2470567"><ele>540.0</ele><time>2026-04-26T10:25:48.027Z</time></trkpt><trkpt lat="43.9689217" lon="12.2469967"><ele>544.0</ele><time>2026-04-26T10:25:49.025Z</time></trkpt><trkpt lat="43.968855" lon="12.2468883"><ele>548.0</ele><time>2026-04-26T10:25:50.024Z</time></trkpt><trkpt lat="43.968805" lon="12.24674"><ele>552.0</ele><time>2026-04-26T10:25:51.025Z</time></trkpt><trkpt lat="43.9687583" lon="12.2465533"><ele>551.0</ele><time>2026-04-26T10:25:52.025Z</time></trkpt><trkpt lat="43.9687067" lon="12.2463483"><ele>550.0</ele><time>2026-04-26T10:25:53.022Z</time></trkpt><trkpt lat="43.968655" lon="12.2461467"><ele>549.0</ele><time>2026-04-26T10:25:54.025Z</time></trkpt><trkpt lat="43.9686033" lon="12.2459717"><ele>548.0</ele><time>2026-04-26T10:25:55.024Z</time></trkpt><trkpt lat="43.96854" lon="12.2458367"><ele>548.0</ele><time>2026-04-26T10:25:56.024Z</time></trkpt><trkpt lat="43.968465" lon="12.2457483"><ele>548.0</ele><time>2026-04-26T10:25:57.025Z</time></trkpt><trkpt lat="43.9683783" lon="12.2457083"><ele>548.0</ele><time>2026-04-26T10:25:58.026Z</time></trkpt><trkpt lat="43.96828" lon="12.2456983"><ele>548.0</ele><time>2026-04-26T10:25:59.025Z</time></trkpt><trkpt lat="43.96817" lon="12.2457567"><ele>548.0</ele><time>2026-04-26T10:26:00.023Z</time></trkpt><trkpt lat="43.9680633" lon="12.2458217"><ele>550.75</ele><time>2026-04-26T10:26:01.024Z</time></trkpt><trkpt lat="43.96795" lon="12.2458517"><ele>553.5</ele><time>2026-04-26T10:26:02.022Z</time></trkpt><trkpt lat="43.96783" lon="12.2458333"><ele>556.25</ele><time>2026-04-26T10:26:03.026Z</time></trkpt><trkpt lat="43.96772" lon="12.245775"><ele>559.0</ele><time>2026-04-26T10:26:04.027Z</time></trkpt><trkpt lat="43.9676233" lon="12.245705"><ele>559.0</ele><time>2026-04-26T10:26:05.026Z</time></trkpt><trkpt lat="43.9675317" lon="12.24566"><ele>559.0</ele><time>2026-04-26T10:26:06.028Z</time></trkpt><trkpt lat="43.967445" lon="12.2456483"><ele>559.0</ele><time>2026-04-26T10:26:07.023Z</time></trkpt><trkpt lat="43.9673567" lon="12.2456667"><ele>559.0</ele><time>2026-04-26T10:26:08.028Z</time></trkpt><trkpt lat="43.9672583" lon="12.2456983"><ele>559.0</ele><time>2026-04-26T10:26:09.024Z</time></trkpt><trkpt lat="43.9671467" lon="12.2457283"><ele>558.75</ele><time>2026-04-26T10:26:10.024Z</time></trkpt><trkpt lat="43.9670233" lon="12.245755"><ele>558.5</ele><time>2026-04-26T10:26:11.023Z</time></trkpt><trkpt lat="43.9668867" lon="12.2457833"><ele>558.25</ele><time>2026-04-26T10:26:12.023Z</time></trkpt><trkpt lat="43.9667383" lon="12.2458133"><ele>558.0</ele><time>2026-04-26T10:26:13.024Z</time></trkpt><trkpt lat="43.9665867" lon="12.2458417"><ele>560.0</ele><time>2026-04-26T10:26:14.023Z</time></trkpt><trkpt lat="43.9664267" lon="12.2458683"><ele>562.0</ele><time>2026-04-26T10:26:15.024Z</time></trkpt><trkpt lat="43.9662733" lon="12.2458867"><ele>564.0</ele><time>2026-04-26T10:26:16.023Z</time></trkpt><trkpt lat="43.9661317" lon="12.2458883"><ele>564.0</ele><time>2026-04-26T10:26:17.025Z</time></trkpt><trkpt lat="43.9659967" lon="12.245865"><ele>564.0</ele><time>2026-04-26T10:26:18.028Z</time></trkpt><trkpt lat="43.965865" lon="12.2458117"><ele>564.0</ele><time>2026-04-26T10:26:19.023Z</time></trkpt><trkpt lat="43.9657383" lon="12.2457217"><ele>564.0</ele><time>2026-04-26T10:26:20.027Z</time></trkpt><trkpt lat="43.9656133" lon="12.2456117"><ele>568.3333333333334</ele><time>2026-04-26T10:26:21.024Z</time></trkpt><trkpt lat="43.9654817" lon="12.2455133"><ele>572.6666666666667</ele><time>2026-04-26T10:26:22.023Z</time></trkpt><trkpt lat="43.96534" lon="12.2454483"><ele>577.0</ele><time>2026-04-26T10:26:23.025Z</time></trkpt><trkpt lat="43.965185" lon="12.2454167"><ele>577.0</ele><time>2026-04-26T10:26:24.022Z</time></trkpt><trkpt lat="43.9650333" lon="12.24541"><ele>577.0</ele><time>2026-04-26T10:26:25.027Z</time></trkpt><trkpt lat="43.9648917" lon="12.2454017"><ele>577.0</ele><time>2026-04-26T10:26:26.025Z</time></trkpt><trkpt lat="43.96476" lon="12.245365"><ele>577.0</ele><time>2026-04-26T10:26:27.024Z</time></trkpt><trkpt lat="43.96464" lon="12.2452783"><ele>576.0</ele><time>2026-04-26T10:26:28.025Z</time></trkpt><trkpt lat="43.9645317" lon="12.2451517"><ele>575.0</ele><time>2026-04-26T10:26:29.024Z</time></trkpt><trkpt lat="43.96444" lon="12.2449817"><ele>574.0</ele><time>2026-04-26T10:26:30.024Z</time></trkpt><trkpt lat="43.9643483" lon="12.2447867"><ele>572.6666666666667</ele><time>2026-04-26T10:26:31.026Z</time></trkpt><trkpt lat="43.9642517" lon="12.2445917"><ele>571.3333333333334</ele><time>2026-04-26T10:26:32.024Z</time></trkpt><trkpt lat="43.9641467" lon="12.2444117"><ele>570.0</ele><time>2026-04-26T10:26:33.023Z</time></trkpt><trkpt lat="43.964045" lon="12.24424"><ele>570.0</ele><time>2026-04-26T10:26:34.025Z</time></trkpt><trkpt lat="43.96395" lon="12.244065"><ele>570.0</ele><time>2026-04-26T10:26:35.024Z</time></trkpt><trkpt lat="43.9638717" lon="12.243875"><ele>570.0</ele><time>2026-04-26T10:26:36.023Z</time></trkpt><trkpt lat="43.963805" lon="12.243675"><ele>572.25</ele><time>2026-04-26T10:26:37.024Z</time></trkpt><trkpt lat="43.96374" lon="12.2434783"><ele>574.5</ele><time>2026-04-26T10:26:38.023Z</time></trkpt><trkpt lat="43.96366" lon="12.2433067"><ele>576.75</ele><time>2026-04-26T10:26:39.024Z</time></trkpt><trkpt lat="43.9635917" lon="12.2431567"><ele>579.0</ele><time>2026-04-26T10:26:40.024Z</time></trkpt><trkpt lat="43.9635433" lon="12.2430083"><ele>579.0</ele><time>2026-04-26T10:26:41.024Z</time></trkpt><trkpt lat="43.963525" lon="12.2428533"><ele>579.0</ele><time>2026-04-26T10:26:42.026Z</time></trkpt><trkpt lat="43.963535" lon="12.242705"><ele>579.0</ele><time>2026-04-26T10:26:43.024Z</time></trkpt><trkpt lat="43.963585" lon="12.2425683"><ele>579.0</ele><time>2026-04-26T10:26:44.024Z</time></trkpt><trkpt lat="43.96365" lon="12.2424183"><ele>576.0</ele><time>2026-04-26T10:26:45.024Z</time></trkpt><trkpt lat="43.9637" lon="12.2422433"><ele>573.0</ele><time>2026-04-26T10:26:46.023Z</time></trkpt><trkpt lat="43.9637383" lon="12.2420333"><ele>570.0</ele><time>2026-04-26T10:26:47.022Z</time></trkpt><trkpt lat="43.9637767" lon="12.2418117"><ele>570.0</ele><time>2026-04-26T10:26:48.024Z</time></trkpt><trkpt lat="43.963815" lon="12.2415833"><ele>570.0</ele><time>2026-04-26T10:26:49.024Z</time></trkpt><trkpt lat="43.9638717" lon="12.2413633"><ele>570.0</ele><time>2026-04-26T10:26:50.021Z</time></trkpt><trkpt lat="43.9639367" lon="12.24115"><ele>568.3333333333334</ele><time>2026-04-26T10:26:51.023Z</time></trkpt><trkpt lat="43.964" lon="12.240945"><ele>566.6666666666667</ele><time>2026-04-26T10:26:52.023Z</time></trkpt><trkpt lat="43.9640617" lon="12.24075"><ele>565.0</ele><time>2026-04-26T10:26:53.022Z</time></trkpt><trkpt lat="43.9641183" lon="12.2405667"><ele>565.75</ele><time>2026-04-26T10:26:54.023Z</time></trkpt><trkpt lat="43.9641733" lon="12.2403967"><ele>566.5</ele><time>2026-04-26T10:26:55.024Z</time></trkpt><trkpt lat="43.9642167" lon="12.2402333"><ele>567.25</ele><time>2026-04-26T10:26:56.028Z</time></trkpt><trkpt lat="43.9642367" lon="12.2400617"><ele>568.0</ele><time>2026-04-26T10:26:57.025Z</time></trkpt><trkpt lat="43.9642267" lon="12.23988"><ele>564.5</ele><time>2026-04-26T10:26:58.025Z</time></trkpt><trkpt lat="43.9641867" lon="12.2397067"><ele>561.0</ele><time>2026-04-26T10:26:59.023Z</time></trkpt><trkpt lat="43.9641333" lon="12.2395483"><ele>557.5</ele><time>2026-04-26T10:27:00.025Z</time></trkpt><trkpt lat="43.96409" lon="12.2394"><ele>554.0</ele><time>2026-04-26T10:27:01.025Z</time></trkpt><trkpt lat="43.96407" lon="12.2392567"><ele>554.0</ele><time>2026-04-26T10:27:02.024Z</time></trkpt><trkpt lat="43.9640883" lon="12.239125"><ele>554.0</ele><time>2026-04-26T10:27:03.025Z</time></trkpt><trkpt lat="43.9641417" lon="12.23902"><ele>554.0</ele><time>2026-04-26T10:27:04.025Z</time></trkpt><trkpt lat="43.96423" lon="12.2389367"><ele>554.0</ele><time>2026-04-26T10:27:05.025Z</time></trkpt><trkpt lat="43.9643533" lon="12.238875"><ele>554.0</ele><time>2026-04-26T10:27:06.023Z</time></trkpt><trkpt lat="43.9644917" lon="12.2388033"><ele>551.6666666666666</ele><time>2026-04-26T10:27:07.023Z</time></trkpt><trkpt lat="43.9646367" lon="12.2386933"><ele>549.3333333333334</ele><time>2026-04-26T10:27:08.029Z</time></trkpt><trkpt lat="43.9647783" lon="12.238565"><ele>547.0</ele><time>2026-04-26T10:27:09.025Z</time></trkpt><trkpt lat="43.9649183" lon="12.238445"><ele>547.3333333333334</ele><time>2026-04-26T10:27:10.024Z</time></trkpt><trkpt lat="43.9650667" lon="12.2383517"><ele>547.6666666666666</ele><time>2026-04-26T10:27:11.022Z</time></trkpt><trkpt lat="43.9652183" lon="12.2382933"><ele>548.0</ele><time>2026-04-26T10:27:12.024Z</time></trkpt><trkpt lat="43.9653683" lon="12.2382433"><ele>548.0</ele><time>2026-04-26T10:27:13.025Z</time></trkpt><trkpt lat="43.9655067" lon="12.2381933"><ele>548.0</ele><time>2026-04-26T10:27:14.024Z</time></trkpt><trkpt lat="43.9656283" lon="12.2381283"><ele>548.0</ele><time>2026-04-26T10:27:15.024Z</time></trkpt><trkpt lat="43.9657317" lon="12.2380383"><ele>548.0</ele><time>2026-04-26T10:27:16.022Z</time></trkpt><trkpt lat="43.9658133" lon="12.2379283"><ele>546.1999999999999</ele><time>2026-04-26T10:27:17.022Z</time></trkpt><trkpt lat="43.9658617" lon="12.237805"><ele>544.4</ele><time>2026-04-26T10:27:18.022Z</time></trkpt><trkpt lat="43.9658767" lon="12.2376783"><ele>542.5999999999999</ele><time>2026-04-26T10:27:19.025Z</time></trkpt><trkpt lat="43.96585" lon="12.237555"><ele>540.8</ele><time>2026-04-26T10:27:20.025Z</time></trkpt><trkpt lat="43.965775" lon="12.237445"><ele>539.0</ele><time>2026-04-26T10:27:21.025Z</time></trkpt><trkpt lat="43.9656667" lon="12.2373633"><ele>535.0</ele><time>2026-04-26T10:27:22.023Z</time></trkpt><trkpt lat="43.96555" lon="12.23728"><ele>531.0</ele><time>2026-04-26T10:27:23.023Z</time></trkpt><trkpt lat="43.96544" lon="12.2371883"><ele>527.0</ele><time>2026-04-26T10:27:24.027Z</time></trkpt><trkpt lat="43.96534" lon="12.2370783"><ele>523.0</ele><time>2026-04-26T10:27:25.024Z</time></trkpt><trkpt lat="43.9652783" lon="12.2369417"><ele>523.0</ele><time>2026-04-26T10:27:26.025Z</time></trkpt><trkpt lat="43.9652267" lon="12.23678"><ele>523.0</ele><time>2026-04-26T10:27:27.024Z</time></trkpt><trkpt lat="43.9652133" lon="12.23659"><ele>523.0</ele><time>2026-04-26T10:27:28.028Z</time></trkpt><trkpt lat="43.965225" lon="12.23638"><ele>523.0</ele><time>2026-04-26T10:27:29.022Z</time></trkpt><trkpt lat="43.9652117" lon="12.2361733"><ele>523.3333333333334</ele><time>2026-04-26T10:27:30.025Z</time></trkpt><trkpt lat="43.965175" lon="12.2359717"><ele>523.6666666666666</ele><time>2026-04-26T10:27:31.026Z</time></trkpt><trkpt lat="43.9651267" lon="12.235765"><ele>524.0</ele><time>2026-04-26T10:27:32.024Z</time></trkpt><trkpt lat="43.9650117" lon="12.2356133"><ele>524.0</ele><time>2026-04-26T10:27:33.024Z</time></trkpt><trkpt lat="43.9648833" lon="12.2354883"><ele>524.0</ele><time>2026-04-26T10:27:34.026Z</time></trkpt><trkpt lat="43.964785" lon="12.2353233"><ele>524.0</ele><time>2026-04-26T10:27:35.024Z</time></trkpt><trkpt lat="43.964705" lon="12.2351383"><ele>524.0</ele><time>2026-04-26T10:27:36.022Z</time></trkpt><trkpt lat="43.964625" lon="12.234945"><ele>524.0</ele><time>2026-04-26T10:27:37.023Z</time></trkpt><trkpt lat="43.96458" lon="12.23473"><ele>524.0</ele><time>2026-04-26T10:27:38.024Z</time></trkpt><trkpt lat="43.96455" lon="12.2345067"><ele>524.0</ele><time>2026-04-26T10:27:39.025Z</time></trkpt><trkpt lat="43.96451" lon="12.23427"><ele>524.0</ele><time>2026-04-26T10:27:40.026Z</time></trkpt><trkpt lat="43.96449" lon="12.2340133"><ele>524.0</ele><time>2026-04-26T10:27:41.024Z</time></trkpt><trkpt lat="43.9644517" lon="12.23377"><ele>525.3333333333333</ele><time>2026-04-26T10:27:42.024Z</time></trkpt><trkpt lat="43.9643917" lon="12.2335417"><ele>526.6666666666666</ele><time>2026-04-26T10:27:43.023Z</time></trkpt><trkpt lat="43.964325" lon="12.233315"><ele>528.0</ele><time>2026-04-26T10:27:44.023Z</time></trkpt><trkpt lat="43.9642483" lon="12.2331033"><ele>529.3333333333334</ele><time>2026-04-26T10:27:45.024Z</time></trkpt><trkpt lat="43.9641533" lon="12.2329067"><ele>530.6666666666667</ele><time>2026-04-26T10:27:46.025Z</time></trkpt><trkpt lat="43.964035" lon="12.2327317"><ele>532.0</ele><time>2026-04-26T10:27:47.023Z</time></trkpt><trkpt lat="43.963895" lon="12.2325917"><ele>532.0</ele><time>2026-04-26T10:27:48.025Z</time></trkpt><trkpt lat="43.9637483" lon="12.2324767"><ele>532.0</ele><time>2026-04-26T10:27:49.023Z</time></trkpt><trkpt lat="43.96361" lon="12.2323483"><ele>532.0</ele><time>2026-04-26T10:27:50.024Z</time></trkpt><trkpt lat="43.9634833" lon="12.2321967"><ele>532.6666666666667</ele><time>2026-04-26T10:27:51.025Z</time></trkpt><trkpt lat="43.96336" lon="12.2320383"><ele>533.3333333333334</ele><time>2026-04-26T10:27:52.024Z</time></trkpt><trkpt lat="43.963235" lon="12.2318717"><ele>534.0</ele><time>2026-04-26T10:27:53.024Z</time></trkpt><trkpt lat="43.9631133" lon="12.231715"><ele>534.0</ele><time>2026-04-26T10:27:54.025Z</time></trkpt><trkpt lat="43.9629883" lon="12.2315717"><ele>534.0</ele><time>2026-04-26T10:27:55.025Z</time></trkpt><trkpt lat="43.9628767" lon="12.23142"><ele>534.0</ele><time>2026-04-26T10:27:56.026Z</time></trkpt><trkpt lat="43.96276" lon="12.231275"><ele>533.3333333333334</ele><time>2026-04-26T10:27:57.026Z</time></trkpt><trkpt lat="43.9626383" lon="12.2311333"><ele>532.6666666666667</ele><time>2026-04-26T10:27:58.023Z</time></trkpt><trkpt lat="43.9625183" lon="12.23098"><ele>532.0</ele><time>2026-04-26T10:27:59.021Z</time></trkpt><trkpt lat="43.9623867" lon="12.23083"><ele>532.0</ele><time>2026-04-26T10:28:00.022Z</time></trkpt><trkpt lat="43.962275" lon="12.230655"><ele>532.0</ele><time>2026-04-26T10:28:01.025Z</time></trkpt><trkpt lat="43.9621517" lon="12.230505"><ele>532.0</ele><time>2026-04-26T10:28:02.024Z</time></trkpt><trkpt lat="43.9620433" lon="12.2303567"><ele>530.75</ele><time>2026-04-26T10:28:03.023Z</time></trkpt><trkpt lat="43.9619383" lon="12.2302233"><ele>529.5</ele><time>2026-04-26T10:28:04.025Z</time></trkpt><trkpt lat="43.9618467" lon="12.2300767"><ele>528.25</ele><time>2026-04-26T10:28:05.024Z</time></trkpt><trkpt lat="43.9617433" lon="12.2299733"><ele>527.0</ele><time>2026-04-26T10:28:06.026Z</time></trkpt><trkpt lat="43.9616433" lon="12.2298833"><ele>527.0</ele><time>2026-04-26T10:28:07.028Z</time></trkpt><trkpt lat="43.9615317" lon="12.22982"><ele>527.0</ele><time>2026-04-26T10:28:08.023Z</time></trkpt><trkpt lat="43.961405" lon="12.2297967"><ele>527.0</ele><time>2026-04-26T10:28:09.022Z</time></trkpt><trkpt lat="43.96127" lon="12.2298183"><ele>527.0</ele><time>2026-04-26T10:28:10.024Z</time></trkpt><trkpt lat="43.9611333" lon="12.2298583"><ele>527.0</ele><time>2026-04-26T10:28:11.023Z</time></trkpt><trkpt lat="43.9610033" lon="12.2299067"><ele>527.0</ele><time>2026-04-26T10:28:12.024Z</time></trkpt><trkpt lat="43.96088" lon="12.2299517"><ele>527.0</ele><time>2026-04-26T10:28:13.024Z</time></trkpt><trkpt lat="43.96077" lon="12.2299933"><ele>527.0</ele><time>2026-04-26T10:28:14.023Z</time></trkpt><trkpt lat="43.96067" lon="12.2300367"><ele>526.4</ele><time>2026-04-26T10:28:15.025Z</time></trkpt><trkpt lat="43.9605717" lon="12.230085"><ele>525.8000000000001</ele><time>2026-04-26T10:28:16.023Z</time></trkpt><trkpt lat="43.960475" lon="12.23015"><ele>525.2</ele><time>2026-04-26T10:28:17.024Z</time></trkpt><trkpt lat="43.9603767" lon="12.230225"><ele>524.6</ele><time>2026-04-26T10:28:18.024Z</time></trkpt><trkpt lat="43.9602817" lon="12.2302967"><ele>524.0</ele><time>2026-04-26T10:28:19.024Z</time></trkpt><trkpt lat="43.9601883" lon="12.2303717"><ele>524.0</ele><time>2026-04-26T10:28:20.024Z</time></trkpt><trkpt lat="43.9601017" lon="12.2304367"><ele>524.0</ele><time>2026-04-26T10:28:21.027Z</time></trkpt><trkpt lat="43.9600117" lon="12.2304983"><ele>524.0</ele><time>2026-04-26T10:28:22.025Z</time></trkpt><trkpt lat="43.959915" lon="12.2305717"><ele>524.0</ele><time>2026-04-26T10:28:23.024Z</time></trkpt><trkpt lat="43.9598133" lon="12.2306167"><ele>524.0</ele><time>2026-04-26T10:28:24.025Z</time></trkpt><trkpt lat="43.959695" lon="12.230645"><ele>524.2</ele><time>2026-04-26T10:28:25.024Z</time></trkpt><trkpt lat="43.9595817" lon="12.2306683"><ele>524.4</ele><time>2026-04-26T10:28:26.024Z</time></trkpt><trkpt lat="43.9594933" lon="12.230645"><ele>524.6</ele><time>2026-04-26T10:28:27.027Z</time></trkpt><trkpt lat="43.959435" lon="12.2305617"><ele>524.8</ele><time>2026-04-26T10:28:28.024Z</time></trkpt><trkpt lat="43.959355" lon="12.230495"><ele>525.0</ele><time>2026-04-26T10:28:29.024Z</time></trkpt><trkpt lat="43.9592167" lon="12.2304317"><ele>522.25</ele><time>2026-04-26T10:28:30.022Z</time></trkpt><trkpt lat="43.959085" lon="12.2303517"><ele>519.5</ele><time>2026-04-26T10:28:31.023Z</time></trkpt><trkpt lat="43.958965" lon="12.2302683"><ele>516.75</ele><time>2026-04-26T10:28:32.024Z</time></trkpt><trkpt lat="43.95885" lon="12.2301833"><ele>514.0</ele><time>2026-04-26T10:28:33.023Z</time></trkpt><trkpt lat="43.9587367" lon="12.2300717"><ele>514.0</ele><time>2026-04-26T10:28:34.024Z</time></trkpt><trkpt lat="43.9585883" lon="12.2299617"><ele>514.0</ele><time>2026-04-26T10:28:35.023Z</time></trkpt><trkpt lat="43.95843" lon="12.2299767"><ele>514.0</ele><time>2026-04-26T10:28:36.023Z</time></trkpt><trkpt lat="43.95826" lon="12.22998"><ele>512.0</ele><time>2026-04-26T10:28:37.022Z</time></trkpt><trkpt lat="43.9581" lon="12.2299267"><ele>510.0</ele><time>2026-04-26T10:28:38.022Z</time></trkpt><trkpt lat="43.9579383" lon="12.22997"><ele>508.0</ele><time>2026-04-26T10:28:39.026Z</time></trkpt><trkpt lat="43.95778" lon="12.2299233"><ele>508.0</ele><time>2026-04-26T10:28:40.025Z</time></trkpt><trkpt lat="43.9576233" lon="12.2298633"><ele>508.0</ele><time>2026-04-26T10:28:41.022Z</time></trkpt><trkpt lat="43.95746" lon="12.2298583"><ele>508.0</ele><time>2026-04-26T10:28:42.021Z</time></trkpt><trkpt lat="43.9573167" lon="12.2298183"><ele>508.0</ele><time>2026-04-26T10:28:43.023Z</time></trkpt><trkpt lat="43.957185" lon="12.2297867"><ele>508.0</ele><time>2026-04-26T10:28:44.023Z</time></trkpt><trkpt lat="43.95706" lon="12.2297617"><ele>508.0</ele><time>2026-04-26T10:28:45.022Z</time></trkpt><trkpt lat="43.9569433" lon="12.2297483"><ele>508.0</ele><time>2026-04-26T10:28:46.023Z</time></trkpt><trkpt lat="43.9568233" lon="12.2297417"><ele>508.0</ele><time>2026-04-26T10:28:47.028Z</time></trkpt><trkpt lat="43.9567033" lon="12.229745"><ele>508.0</ele><time>2026-04-26T10:28:48.022Z</time></trkpt><trkpt lat="43.95658" lon="12.22976"><ele>508.0</ele><time>2026-04-26T10:28:49.024Z</time></trkpt><trkpt lat="43.9564567" lon="12.22979"><ele>508.0</ele><time>2026-04-26T10:28:50.024Z</time></trkpt><trkpt lat="43.956335" lon="12.22984"><ele>506.75</ele><time>2026-04-26T10:28:51.023Z</time></trkpt><trkpt lat="43.9562117" lon="12.229915"><ele>505.5</ele><time>2026-04-26T10:28:52.031Z</time></trkpt><trkpt lat="43.956085" lon="12.2300033"><ele>504.25</ele><time>2026-04-26T10:28:53.023Z</time></trkpt><trkpt lat="43.9559617" lon="12.2301117"><ele>503.0</ele><time>2026-04-26T10:28:54.024Z</time></trkpt><trkpt lat="43.9558417" lon="12.2302383"><ele>504.0</ele><time>2026-04-26T10:28:55.025Z</time></trkpt><trkpt lat="43.9557367" lon="12.2303717"><ele>505.0</ele><time>2026-04-26T10:28:56.024Z</time></trkpt><trkpt lat="43.95564" lon="12.2305"><ele>506.0</ele><time>2026-04-26T10:28:57.026Z</time></trkpt><trkpt lat="43.95555" lon="12.23061"><ele>507.0</ele><time>2026-04-26T10:28:58.025Z</time></trkpt><trkpt lat="43.9554567" lon="12.2306983"><ele>507.0</ele><time>2026-04-26T10:28:59.024Z</time></trkpt><trkpt lat="43.9553567" lon="12.2307617"><ele>507.00000000000006</ele><time>2026-04-26T10:29:00.026Z</time></trkpt><trkpt lat="43.9552567" lon="12.230795"><ele>507.00000000000006</ele><time>2026-04-26T10:29:01.024Z</time></trkpt><trkpt lat="43.9551583" lon="12.2307883"><ele>507.0</ele><time>2026-04-26T10:29:02.022Z</time></trkpt><trkpt lat="43.9550733" lon="12.2307317"><ele>507.0</ele><time>2026-04-26T10:29:03.024Z</time></trkpt><trkpt lat="43.955" lon="12.2306617"><ele>509.3333333333333</ele><time>2026-04-26T10:29:04.023Z</time></trkpt><trkpt lat="43.9549383" lon="12.2305883"><ele>511.66666666666663</ele><time>2026-04-26T10:29:05.025Z</time></trkpt><trkpt lat="43.9548883" lon="12.2305117"><ele>514.0</ele><time>2026-04-26T10:29:06.023Z</time></trkpt><trkpt lat="43.9548467" lon="12.2304417"><ele>516.3333333333333</ele><time>2026-04-26T10:29:07.024Z</time></trkpt><trkpt lat="43.9547867" lon="12.2303467"><ele>518.6666666666666</ele><time>2026-04-26T10:29:09.023Z</time></trkpt><trkpt lat="43.954735" lon="12.23028"><ele>521.0</ele><time>2026-04-26T10:29:12.025Z</time></trkpt><trkpt lat="43.95466" lon="12.23017"><ele>521.0</ele><time>2026-04-26T10:29:15.024Z</time></trkpt><trkpt lat="43.9546117" lon="12.23011"><ele>521.0</ele><time>2026-04-26T10:29:16.026Z</time></trkpt><trkpt lat="43.9545517" lon="12.2300317"><ele>521.0</ele><time>2026-04-26T10:29:17.023Z</time></trkpt><trkpt lat="43.9544933" lon="12.2299317"><ele>521.0</ele><time>2026-04-26T10:29:18.024Z</time></trkpt><trkpt lat="43.954425" lon="12.22985"><ele>521.0</ele><time>2026-04-26T10:29:19.024Z</time></trkpt><trkpt lat="43.95435" lon="12.2297617"><ele>521.0</ele><time>2026-04-26T10:29:20.024Z</time></trkpt><trkpt lat="43.9542717" lon="12.2296567"><ele>517.75</ele><time>2026-04-26T10:29:21.024Z</time></trkpt><trkpt lat="43.9541967" lon="12.2295367"><ele>514.5</ele><time>2026-04-26T10:29:22.024Z</time></trkpt><trkpt lat="43.9540917" lon="12.2294617"><ele>511.25</ele><time>2026-04-26T10:29:23.026Z</time></trkpt><trkpt lat="43.9539517" lon="12.2293917"><ele>508.0</ele><time>2026-04-26T10:29:24.025Z</time></trkpt><trkpt lat="43.9538083" lon="12.22933"><ele>508.0</ele><time>2026-04-26T10:29:25.022Z</time></trkpt><trkpt lat="43.9536833" lon="12.2292083"><ele>508.0</ele><time>2026-04-26T10:29:26.022Z</time></trkpt><trkpt lat="43.953535" lon="12.22914"><ele>508.0</ele><time>2026-04-26T10:29:27.024Z</time></trkpt><trkpt lat="43.9533867" lon="12.22909"><ele>505.33333333333337</ele><time>2026-04-26T10:29:28.028Z</time></trkpt><trkpt lat="43.953235" lon="12.2290367"><ele>502.66666666666663</ele><time>2026-04-26T10:29:29.024Z</time></trkpt><trkpt lat="43.9531017" lon="12.22895"><ele>500.0</ele><time>2026-04-26T10:29:30.024Z</time></trkpt><trkpt lat="43.952955" lon="12.22888"><ele>499.66666666666663</ele><time>2026-04-26T10:29:31.025Z</time></trkpt><trkpt lat="43.9528033" lon="12.2288133"><ele>499.33333333333337</ele><time>2026-04-26T10:29:32.023Z</time></trkpt><trkpt lat="43.9526783" lon="12.2286917"><ele>499.0</ele><time>2026-04-26T10:29:33.025Z</time></trkpt><trkpt lat="43.9525333" lon="12.22861"><ele>499.0</ele><time>2026-04-26T10:29:34.022Z</time></trkpt><trkpt lat="43.952375" lon="12.2285983"><ele>499.0</ele><time>2026-04-26T10:29:35.026Z</time></trkpt><trkpt lat="43.95221" lon="12.228545"><ele>499.0</ele><time>2026-04-26T10:29:36.024Z</time></trkpt><trkpt lat="43.95204" lon="12.2285233"><ele>499.0</ele><time>2026-04-26T10:29:37.023Z</time></trkpt><trkpt lat="43.9518633" lon="12.2285217"><ele>499.0</ele><time>2026-04-26T10:29:38.021Z</time></trkpt><trkpt lat="43.9516717" lon="12.2284817"><ele>499.0</ele><time>2026-04-26T10:29:39.024Z</time></trkpt><trkpt lat="43.9514883" lon="12.2284933"><ele>499.0</ele><time>2026-04-26T10:29:40.023Z</time></trkpt><trkpt lat="43.9513117" lon="12.2285067"><ele>499.0</ele><time>2026-04-26T10:29:41.025Z</time></trkpt><trkpt lat="43.9511367" lon="12.2285033"><ele>499.0</ele><time>2026-04-26T10:29:42.024Z</time></trkpt><trkpt lat="43.9509717" lon="12.2285317"><ele>498.33333333333337</ele><time>2026-04-26T10:29:43.026Z</time></trkpt><trkpt lat="43.9508083" lon="12.2285783"><ele>497.66666666666663</ele><time>2026-04-26T10:29:44.025Z</time></trkpt><trkpt lat="43.9506433" lon="12.2286267"><ele>497.0</ele><time>2026-04-26T10:29:45.023Z</time></trkpt><trkpt lat="43.9504767" lon="12.228675"><ele>497.0</ele><time>2026-04-26T10:29:46.025Z</time></trkpt><trkpt lat="43.9503067" lon="12.2287167"><ele>497.0</ele><time>2026-04-26T10:29:47.025Z</time></trkpt><trkpt lat="43.9501383" lon="12.2287"><ele>497.0</ele><time>2026-04-26T10:29:48.022Z</time></trkpt><trkpt lat="43.9499717" lon="12.22865"><ele>499.66666666666663</ele><time>2026-04-26T10:29:49.025Z</time></trkpt><trkpt lat="43.9498117" lon="12.2285767"><ele>502.33333333333337</ele><time>2026-04-26T10:29:50.024Z</time></trkpt><trkpt lat="43.9496533" lon="12.228495"><ele>505.0</ele><time>2026-04-26T10:29:51.025Z</time></trkpt><trkpt lat="43.949505" lon="12.2284117"><ele>505.0</ele><time>2026-04-26T10:29:52.029Z</time></trkpt><trkpt lat="43.9493633" lon="12.2283283"><ele>505.0</ele><time>2026-04-26T10:29:53.024Z</time></trkpt><trkpt lat="43.9492233" lon="12.228235"><ele>505.0</ele><time>2026-04-26T10:29:54.024Z</time></trkpt><trkpt lat="43.9490883" lon="12.2281183"><ele>505.5</ele><time>2026-04-26T10:29:55.027Z</time></trkpt><trkpt lat="43.948975" lon="12.22798"><ele>506.0</ele><time>2026-04-26T10:29:56.024Z</time></trkpt><trkpt lat="43.9488633" lon="12.227845"><ele>506.5</ele><time>2026-04-26T10:29:57.024Z</time></trkpt><trkpt lat="43.9487433" lon="12.2277233"><ele>507.0</ele><time>2026-04-26T10:29:58.028Z</time></trkpt><trkpt lat="43.9486067" lon="12.22763"><ele>507.0</ele><time>2026-04-26T10:29:59.026Z</time></trkpt><trkpt lat="43.9484567" lon="12.227565"><ele>507.0</ele><time>2026-04-26T10:30:00.025Z</time></trkpt><trkpt lat="43.9483083" lon="12.2275417"><ele>507.0</ele><time>2026-04-26T10:30:01.026Z</time></trkpt><trkpt lat="43.94816" lon="12.2275633"><ele>508.0</ele><time>2026-04-26T10:30:02.025Z</time></trkpt><trkpt lat="43.9480167" lon="12.2276333"><ele>509.0</ele><time>2026-04-26T10:30:03.026Z</time></trkpt><trkpt lat="43.94788" lon="12.2277467"><ele>510.0</ele><time>2026-04-26T10:30:04.028Z</time></trkpt><trkpt lat="43.94775" lon="12.2278767"><ele>510.0</ele><time>2026-04-26T10:30:05.022Z</time></trkpt><trkpt lat="43.9476133" lon="12.2279883"><ele>510.0</ele><time>2026-04-26T10:30:06.025Z</time></trkpt><trkpt lat="43.9474633" lon="12.2280717"><ele>510.0</ele><time>2026-04-26T10:30:07.025Z</time></trkpt><trkpt lat="43.947305" lon="12.2281317"><ele>508.66666666666663</ele><time>2026-04-26T10:30:08.027Z</time></trkpt><trkpt lat="43.94714" lon="12.228185"><ele>507.3333333333333</ele><time>2026-04-26T10:30:09.033Z</time></trkpt><trkpt lat="43.9469683" lon="12.2282233"><ele>506.0</ele><time>2026-04-26T10:30:10.024Z</time></trkpt><trkpt lat="43.94679" lon="12.2282533"><ele>510.0</ele><time>2026-04-26T10:30:11.024Z</time></trkpt><trkpt lat="43.9466133" lon="12.2282817"><ele>514.0</ele><time>2026-04-26T10:30:12.023Z</time></trkpt><trkpt lat="43.9464417" lon="12.22833"><ele>518.0</ele><time>2026-04-26T10:30:13.026Z</time></trkpt><trkpt lat="43.94628" lon="12.2283983"><ele>518.0</ele><time>2026-04-26T10:30:14.03Z</time></trkpt><trkpt lat="43.946135" lon="12.2284733"><ele>518.0</ele><time>2026-04-26T10:30:15.023Z</time></trkpt><trkpt lat="43.9460067" lon="12.2285383"><ele>518.0</ele><time>2026-04-26T10:30:16.029Z</time></trkpt><trkpt lat="43.94588" lon="12.2285733"><ele>518.0</ele><time>2026-04-26T10:30:17.023Z</time></trkpt><trkpt lat="43.94575" lon="12.2285733"><ele>520.6666666666666</ele><time>2026-04-26T10:30:18.024Z</time></trkpt><trkpt lat="43.94561" lon="12.228535"><ele>523.3333333333334</ele><time>2026-04-26T10:30:19.023Z</time></trkpt><trkpt lat="43.9454617" lon="12.2284717"><ele>526.0</ele><time>2026-04-26T10:30:20.024Z</time></trkpt><trkpt lat="43.9453083" lon="12.2283983"><ele>526.0</ele><time>2026-04-26T10:30:21.029Z</time></trkpt><trkpt lat="43.9451583" lon="12.2283183"><ele>526.0</ele><time>2026-04-26T10:30:22.03Z</time></trkpt><trkpt lat="43.94502" lon="12.2282317"><ele>526.0</ele><time>2026-04-26T10:30:23.024Z</time></trkpt><trkpt lat="43.9448917" lon="12.2281"><ele>526.0</ele><time>2026-04-26T10:30:24.026Z</time></trkpt><trkpt lat="43.9447583" lon="12.22802"><ele>526.0</ele><time>2026-04-26T10:30:25.023Z</time></trkpt><trkpt lat="43.944635" lon="12.2279283"><ele>526.0</ele><time>2026-04-26T10:30:26.028Z</time></trkpt><trkpt lat="43.9445183" lon="12.22784"><ele>526.0</ele><time>2026-04-26T10:30:27.024Z</time></trkpt><trkpt lat="43.9444067" lon="12.2277267"><ele>526.0</ele><time>2026-04-26T10:30:28.022Z</time></trkpt><trkpt lat="43.944285" lon="12.2276967"><ele>526.0</ele><time>2026-04-26T10:30:29.022Z</time></trkpt><trkpt lat="43.9441567" lon="12.2276967"><ele>526.0</ele><time>2026-04-26T10:30:30.024Z</time></trkpt><trkpt lat="43.9440233" lon="12.227735"><ele>526.0</ele><time>2026-04-26T10:30:31.023Z</time></trkpt><trkpt lat="43.9438833" lon="12.2278067"><ele>521.6666666666667</ele><time>2026-04-26T10:30:32.024Z</time></trkpt><trkpt lat="43.94373" lon="12.2278817"><ele>517.3333333333334</ele><time>2026-04-26T10:30:33.024Z</time></trkpt><trkpt lat="43.943565" lon="12.2279433"><ele>513.0</ele><time>2026-04-26T10:30:34.024Z</time></trkpt><trkpt lat="43.943395" lon="12.22798"><ele>509.0</ele><time>2026-04-26T10:30:35.023Z</time></trkpt><trkpt lat="43.9432317" lon="12.227985"><ele>505.0</ele><time>2026-04-26T10:30:36.023Z</time></trkpt><trkpt lat="43.943075" lon="12.2279617"><ele>501.0</ele><time>2026-04-26T10:30:37.024Z</time></trkpt><trkpt lat="43.9429217" lon="12.2279083"><ele>501.0</ele><time>2026-04-26T10:30:38.027Z</time></trkpt><trkpt lat="43.9427717" lon="12.22783"><ele>501.0</ele><time>2026-04-26T10:30:39.024Z</time></trkpt><trkpt lat="43.9426367" lon="12.2277317"><ele>501.0</ele><time>2026-04-26T10:30:40.027Z</time></trkpt><trkpt lat="43.9425117" lon="12.22763"><ele>502.5</ele><time>2026-04-26T10:30:41.024Z</time></trkpt><trkpt lat="43.9423833" lon="12.2275533"><ele>504.0</ele><time>2026-04-26T10:30:42.024Z</time></trkpt><trkpt lat="43.9422783" lon="12.2274583"><ele>505.5</ele><time>2026-04-26T10:30:43.024Z</time></trkpt><trkpt lat="43.9421983" lon="12.22731"><ele>507.0</ele><time>2026-04-26T10:30:44.023Z</time></trkpt><trkpt lat="43.9421" lon="12.227155"><ele>506.25</ele><time>2026-04-26T10:30:45.025Z</time></trkpt><trkpt lat="43.9419883" lon="12.2270767"><ele>505.5</ele><time>2026-04-26T10:30:46.024Z</time></trkpt><trkpt lat="43.9418633" lon="12.226985"><ele>504.75</ele><time>2026-04-26T10:30:47.022Z</time></trkpt><trkpt lat="43.9417417" lon="12.226885"><ele>504.0</ele><time>2026-04-26T10:30:48.024Z</time></trkpt><trkpt lat="43.9416267" lon="12.2267767"><ele>504.0</ele><time>2026-04-26T10:30:49.026Z</time></trkpt><trkpt lat="43.941525" lon="12.2266533"><ele>504.0</ele><time>2026-04-26T10:30:50.025Z</time></trkpt><trkpt lat="43.9414467" lon="12.2265067"><ele>504.0</ele><time>2026-04-26T10:30:51.025Z</time></trkpt><trkpt lat="43.9413983" lon="12.2263383"><ele>504.0</ele><time>2026-04-26T10:30:52.022Z</time></trkpt><trkpt lat="43.9413767" lon="12.226155"><ele>500.0</ele><time>2026-04-26T10:30:53.027Z</time></trkpt><trkpt lat="43.9413683" lon="12.2259717"><ele>496.0</ele><time>2026-04-26T10:30:54.023Z</time></trkpt><trkpt lat="43.9413383" lon="12.2257917"><ele>492.0</ele><time>2026-04-26T10:30:55.023Z</time></trkpt><trkpt lat="43.9412717" lon="12.2256333"><ele>488.0</ele><time>2026-04-26T10:30:56.025Z</time></trkpt><trkpt lat="43.9411817" lon="12.2254983"><ele>483.75</ele><time>2026-04-26T10:30:57.025Z</time></trkpt><trkpt lat="43.9410933" lon="12.2253467"><ele>479.5</ele><time>2026-04-26T10:30:58.024Z</time></trkpt><trkpt lat="43.9410217" lon="12.2251833"><ele>475.25</ele><time>2026-04-26T10:30:59.025Z</time></trkpt><trkpt lat="43.940965" lon="12.2250017"><ele>471.0</ele><time>2026-04-26T10:31:00.032Z</time></trkpt><trkpt lat="43.9409267" lon="12.2248133"><ele>469.75</ele><time>2026-04-26T10:31:01.026Z</time></trkpt><trkpt lat="43.9409017" lon="12.2246133"><ele>468.5</ele><time>2026-04-26T10:31:02.026Z</time></trkpt><trkpt lat="43.9408867" lon="12.2244117"><ele>467.25</ele><time>2026-04-26T10:31:03.025Z</time></trkpt><trkpt lat="43.9408917" lon="12.2242133"><ele>466.0</ele><time>2026-04-26T10:31:04.025Z</time></trkpt><trkpt lat="43.9409167" lon="12.2240133"><ele>465.0</ele><time>2026-04-26T10:31:05.027Z</time></trkpt><trkpt lat="43.9409733" lon="12.22383"><ele>464.0</ele><time>2026-04-26T10:31:06.027Z</time></trkpt><trkpt lat="43.9410567" lon="12.2236617"><ele>463.0</ele><time>2026-04-26T10:31:07.027Z</time></trkpt><trkpt lat="43.941155" lon="12.2234967"><ele>462.0</ele><time>2026-04-26T10:31:08.024Z</time></trkpt><trkpt lat="43.94126" lon="12.223325"><ele>462.0</ele><time>2026-04-26T10:31:09.029Z</time></trkpt><trkpt lat="43.9413583" lon="12.22315"><ele>462.0</ele><time>2026-04-26T10:31:10.024Z</time></trkpt><trkpt lat="43.9414483" lon="12.22297"><ele>462.0</ele><time>2026-04-26T10:31:11.024Z</time></trkpt><trkpt lat="43.9415267" lon="12.2227817"><ele>459.66666666666663</ele><time>2026-04-26T10:31:12.025Z</time></trkpt><trkpt lat="43.941595" lon="12.2225833"><ele>457.3333333333333</ele><time>2026-04-26T10:31:13.028Z</time></trkpt><trkpt lat="43.9416733" lon="12.222395"><ele>455.0</ele><time>2026-04-26T10:31:14.023Z</time></trkpt><trkpt lat="43.9417683" lon="12.2222233"><ele>449.66666666666663</ele><time>2026-04-26T10:31:15.023Z</time></trkpt><trkpt lat="43.9418617" lon="12.22205"><ele>444.33333333333337</ele><time>2026-04-26T10:31:16.024Z</time></trkpt><trkpt lat="43.9419367" lon="12.221855"><ele>439.0</ele><time>2026-04-26T10:31:17.026Z</time></trkpt><trkpt lat="43.9419833" lon="12.2216383"><ele>437.0</ele><time>2026-04-26T10:31:18.028Z</time></trkpt><trkpt lat="43.9420017" lon="12.221415"><ele>435.0</ele><time>2026-04-26T10:31:19.024Z</time></trkpt><trkpt lat="43.941995" lon="12.2212083"><ele>433.0</ele><time>2026-04-26T10:31:20.026Z</time></trkpt><trkpt lat="43.9419867" lon="12.2210167"><ele>431.0</ele><time>2026-04-26T10:31:21.022Z</time></trkpt><trkpt lat="43.941995" lon="12.2208333"><ele>431.0</ele><time>2026-04-26T10:31:22.021Z</time></trkpt><trkpt lat="43.9420383" lon="12.22066"><ele>431.0</ele><time>2026-04-26T10:31:23.026Z</time></trkpt><trkpt lat="43.94209" lon="12.2204933"><ele>431.0</ele><time>2026-04-26T10:31:24.028Z</time></trkpt><trkpt lat="43.94215" lon="12.220355"><ele>431.0</ele><time>2026-04-26T10:31:25.023Z</time></trkpt><trkpt lat="43.94222" lon="12.220255"><ele>428.6</ele><time>2026-04-26T10:31:26.025Z</time></trkpt><trkpt lat="43.9423067" lon="12.2202017"><ele>426.20000000000005</ele><time>2026-04-26T10:31:27.022Z</time></trkpt><trkpt lat="43.9424067" lon="12.2202"><ele>423.79999999999995</ele><time>2026-04-26T10:31:28.024Z</time></trkpt><trkpt lat="43.9424933" lon="12.2202567"><ele>421.4</ele><time>2026-04-26T10:31:29.023Z</time></trkpt><trkpt lat="43.9425633" lon="12.2203233"><ele>419.0</ele><time>2026-04-26T10:31:30.025Z</time></trkpt><trkpt lat="43.9426283" lon="12.220375"><ele>418.99999999999994</ele><time>2026-04-26T10:31:31.022Z</time></trkpt><trkpt lat="43.9426933" lon="12.220305"><ele>419.0</ele><time>2026-04-26T10:31:33.026Z</time></trkpt><trkpt lat="43.9426733" lon="12.22022"><ele>419.0</ele><time>2026-04-26T10:31:34.022Z</time></trkpt><trkpt lat="43.94263" lon="12.2201383"><ele>419.0</ele><time>2026-04-26T10:31:35.024Z</time></trkpt><trkpt lat="43.9425667" lon="12.220065"><ele>418.99999999999994</ele><time>2026-04-26T10:31:36.023Z</time></trkpt><trkpt lat="43.9424917" lon="12.2199967"><ele>419.0</ele><time>2026-04-26T10:31:37.024Z</time></trkpt><trkpt lat="43.9424367" lon="12.2199233"><ele>418.99999999999994</ele><time>2026-04-26T10:31:38.028Z</time></trkpt><trkpt lat="43.9423933" lon="12.2198417"><ele>419.0</ele><time>2026-04-26T10:31:39.025Z</time></trkpt><trkpt lat="43.94246" lon="12.2197817"><ele>419.0</ele><time>2026-04-26T10:31:41.024Z</time></trkpt><trkpt lat="43.942525" lon="12.21981"><ele>419.0</ele><time>2026-04-26T10:31:42.03Z</time></trkpt><trkpt lat="43.9426117" lon="12.2199183"><ele>418.99999999999994</ele><time>2026-04-26T10:31:43.024Z</time></trkpt><trkpt lat="43.9426783" lon="12.219955"><ele>419.0</ele><time>2026-04-26T10:31:44.024Z</time></trkpt><trkpt lat="43.9427417" lon="12.2199533"><ele>416.99999999999994</ele><time>2026-04-26T10:31:45.023Z</time></trkpt><trkpt lat="43.9427967" lon="12.2199067"><ele>415.0</ele><time>2026-04-26T10:31:46.023Z</time></trkpt><trkpt lat="43.9428133" lon="12.2198067"><ele>413.0</ele><time>2026-04-26T10:31:47.027Z</time></trkpt><trkpt lat="43.9427667" lon="12.2196617"><ele>411.0</ele><time>2026-04-26T10:31:48.024Z</time></trkpt><trkpt lat="43.9427617" lon="12.2195517"><ele>408.99999999999994</ele><time>2026-04-26T10:31:49.026Z</time></trkpt><trkpt lat="43.9427833" lon="12.2194383"><ele>407.0</ele><time>2026-04-26T10:31:50.024Z</time></trkpt><trkpt lat="43.9428267" lon="12.2193383"><ele>405.0</ele><time>2026-04-26T10:31:51.024Z</time></trkpt><trkpt lat="43.9429083" lon="12.2192767"><ele>403.0</ele><time>2026-04-26T10:31:52.024Z</time></trkpt><trkpt lat="43.94302" lon="12.2192883"><ele>401.0</ele><time>2026-04-26T10:31:53.027Z</time></trkpt><trkpt lat="43.943135" lon="12.2193167"><ele>399.0</ele><time>2026-04-26T10:31:54.026Z</time></trkpt><trkpt lat="43.9432067" lon="12.2192567"><ele>397.0</ele><time>2026-04-26T10:31:55.026Z</time></trkpt><trkpt lat="43.943285" lon="12.21922"><ele>397.0</ele><time>2026-04-26T10:31:56.022Z</time></trkpt><trkpt lat="43.9433333" lon="12.2191283"><ele>397.0</ele><time>2026-04-26T10:31:57.025Z</time></trkpt><trkpt lat="43.9433367" lon="12.2190133"><ele>397.0</ele><time>2026-04-26T10:31:58.025Z</time></trkpt><trkpt lat="43.9433" lon="12.2189"><ele>397.0</ele><time>2026-04-26T10:31:59.023Z</time></trkpt><trkpt lat="43.9432033" lon="12.2188267"><ele>397.0</ele><time>2026-04-26T10:32:00.025Z</time></trkpt><trkpt lat="43.9430817" lon="12.218785"><ele>394.25</ele><time>2026-04-26T10:32:01.025Z</time></trkpt><trkpt lat="43.942965" lon="12.2187017"><ele>391.5</ele><time>2026-04-26T10:32:02.026Z</time></trkpt><trkpt lat="43.9428433" lon="12.2186183"><ele>388.75</ele><time>2026-04-26T10:32:03.023Z</time></trkpt><trkpt lat="43.9427333" lon="12.218505"><ele>386.0</ele><time>2026-04-26T10:32:04.026Z</time></trkpt><trkpt lat="43.94264" lon="12.2183383"><ele>386.66666666666663</ele><time>2026-04-26T10:32:05.022Z</time></trkpt><trkpt lat="43.9425667" lon="12.2181367"><ele>387.33333333333337</ele><time>2026-04-26T10:32:06.024Z</time></trkpt><trkpt lat="43.9425067" lon="12.2179233"><ele>388.0</ele><time>2026-04-26T10:32:07.026Z</time></trkpt><trkpt lat="43.94244" lon="12.2177167"><ele>388.0</ele><time>2026-04-26T10:32:08.024Z</time></trkpt><trkpt lat="43.9424067" lon="12.217515"><ele>388.0</ele><time>2026-04-26T10:32:09.024Z</time></trkpt><trkpt lat="43.942395" lon="12.2173183"><ele>388.0</ele><time>2026-04-26T10:32:10.026Z</time></trkpt><trkpt lat="43.9424167" lon="12.2171233"><ele>388.0</ele><time>2026-04-26T10:32:11.023Z</time></trkpt><trkpt lat="43.9424583" lon="12.2169233"><ele>387.25</ele><time>2026-04-26T10:32:12.023Z</time></trkpt><trkpt lat="43.9424917" lon="12.2167183"><ele>386.5</ele><time>2026-04-26T10:32:13.026Z</time></trkpt><trkpt lat="43.942525" lon="12.21653"><ele>385.75</ele><time>2026-04-26T10:32:14.023Z</time></trkpt><trkpt lat="43.9425533" lon="12.2163517"><ele>385.0</ele><time>2026-04-26T10:32:15.029Z</time></trkpt><trkpt lat="43.94262" lon="12.2161967"><ele>382.25</ele><time>2026-04-26T10:32:16.024Z</time></trkpt><trkpt lat="43.9427117" lon="12.216065"><ele>379.5</ele><time>2026-04-26T10:32:17.024Z</time></trkpt><trkpt lat="43.9428267" lon="12.215955"><ele>376.75</ele><time>2026-04-26T10:32:18.025Z</time></trkpt><trkpt lat="43.94294" lon="12.215845"><ele>374.0</ele><time>2026-04-26T10:32:19.024Z</time></trkpt><trkpt lat="43.9430333" lon="12.2157233"><ele>371.75</ele><time>2026-04-26T10:32:20.024Z</time></trkpt><trkpt lat="43.9431183" lon="12.21561"><ele>369.5</ele><time>2026-04-26T10:32:21.024Z</time></trkpt><trkpt lat="43.9432117" lon="12.2155317"><ele>367.25</ele><time>2026-04-26T10:32:22.023Z</time></trkpt><trkpt lat="43.9433217" lon="12.2154967"><ele>365.0</ele><time>2026-04-26T10:32:23.024Z</time></trkpt><trkpt lat="43.9434367" lon="12.21553"><ele>365.0</ele><time>2026-04-26T10:32:24.024Z</time></trkpt><trkpt lat="43.943555" lon="12.2155917"><ele>365.0</ele><time>2026-04-26T10:32:25.029Z</time></trkpt><trkpt lat="43.94366" lon="12.2156467"><ele>365.0</ele><time>2026-04-26T10:32:26.023Z</time></trkpt><trkpt lat="43.943765" lon="12.21568"><ele>365.0</ele><time>2026-04-26T10:32:27.025Z</time></trkpt><trkpt lat="43.9438683" lon="12.215675"><ele>365.0</ele><time>2026-04-26T10:32:28.024Z</time></trkpt><trkpt lat="43.9439683" lon="12.2156567"><ele>365.0</ele><time>2026-04-26T10:32:29.023Z</time></trkpt><trkpt lat="43.9440667" lon="12.21561"><ele>365.0</ele><time>2026-04-26T10:32:30.026Z</time></trkpt><trkpt lat="43.9441617" lon="12.215555"><ele>365.0</ele><time>2026-04-26T10:32:31.027Z</time></trkpt><trkpt lat="43.944255" lon="12.2154917"><ele>365.0</ele><time>2026-04-26T10:32:32.026Z</time></trkpt><trkpt lat="43.9443417" lon="12.2154183"><ele>363.6666666666667</ele><time>2026-04-26T10:32:33.025Z</time></trkpt><trkpt lat="43.9444167" lon="12.2153233"><ele>362.33333333333337</ele><time>2026-04-26T10:32:34.024Z</time></trkpt><trkpt lat="43.9444533" lon="12.2152017"><ele>361.0</ele><time>2026-04-26T10:32:35.025Z</time></trkpt><trkpt lat="43.9444817" lon="12.2150983"><ele>359.6666666666667</ele><time>2026-04-26T10:32:36.023Z</time></trkpt><trkpt lat="43.9445117" lon="12.2150167"><ele>358.3333333333333</ele><time>2026-04-26T10:32:37.025Z</time></trkpt><trkpt lat="43.9444983" lon="12.2148717"><ele>357.0</ele><time>2026-04-26T10:32:39.024Z</time></trkpt><trkpt lat="43.9444217" lon="12.2147833"><ele>356.40000000000003</ele><time>2026-04-26T10:32:41.024Z</time></trkpt><trkpt lat="43.944365" lon="12.2147317"><ele>355.8</ele><time>2026-04-26T10:32:42.029Z</time></trkpt><trkpt lat="43.9442867" lon="12.214675"><ele>355.2</ele><time>2026-04-26T10:32:43.025Z</time></trkpt><trkpt lat="43.9441933" lon="12.21463"><ele>354.6</ele><time>2026-04-26T10:32:44.027Z</time></trkpt><trkpt lat="43.9441" lon="12.2145767"><ele>354.0</ele><time>2026-04-26T10:32:45.025Z</time></trkpt><trkpt lat="43.9439983" lon="12.2145317"><ele>354.0</ele><time>2026-04-26T10:32:46.024Z</time></trkpt><trkpt lat="43.9439083" lon="12.2144817"><ele>354.0</ele><time>2026-04-26T10:32:47.031Z</time></trkpt><trkpt lat="43.9438167" lon="12.2144383"><ele>354.0</ele><time>2026-04-26T10:32:48.024Z</time></trkpt><trkpt lat="43.9437283" lon="12.2143883"><ele>354.0</ele><time>2026-04-26T10:32:49.025Z</time></trkpt><trkpt lat="43.943635" lon="12.2143333"><ele>354.0</ele><time>2026-04-26T10:32:50.024Z</time></trkpt><trkpt lat="43.94356" lon="12.21424"><ele>354.0</ele><time>2026-04-26T10:32:51.024Z</time></trkpt><trkpt lat="43.9434833" lon="12.214115"><ele>354.0</ele><time>2026-04-26T10:32:52.024Z</time></trkpt><trkpt lat="43.9433733" lon="12.2140533"><ele>354.0</ele><time>2026-04-26T10:32:53.025Z</time></trkpt><trkpt lat="43.9433183" lon="12.2139517"><ele>354.0</ele><time>2026-04-26T10:32:54.026Z</time></trkpt><trkpt lat="43.9432217" lon="12.2138717"><ele>354.0</ele><time>2026-04-26T10:32:55.024Z</time></trkpt><trkpt lat="43.9431383" lon="12.2137783"><ele>352.75</ele><time>2026-04-26T10:32:56.024Z</time></trkpt><trkpt lat="43.9430817" lon="12.2136333"><ele>351.5</ele><time>2026-04-26T10:32:57.024Z</time></trkpt><trkpt lat="43.9430233" lon="12.2134783"><ele>350.25</ele><time>2026-04-26T10:32:58.024Z</time></trkpt><trkpt lat="43.942935" lon="12.213355"><ele>349.0</ele><time>2026-04-26T10:32:59.023Z</time></trkpt><trkpt lat="43.9428433" lon="12.213215"><ele>350.0</ele><time>2026-04-26T10:33:00.028Z</time></trkpt><trkpt lat="43.9427517" lon="12.21309"><ele>351.0</ele><time>2026-04-26T10:33:01.025Z</time></trkpt><trkpt lat="43.942675" lon="12.2129683"><ele>352.0</ele><time>2026-04-26T10:33:02.024Z</time></trkpt><trkpt lat="43.9426033" lon="12.2128883"><ele>353.0</ele><time>2026-04-26T10:33:03.025Z</time></trkpt><trkpt lat="43.94252" lon="12.2128583"><ele>354.0</ele><time>2026-04-26T10:33:04.024Z</time></trkpt><trkpt lat="43.942435" lon="12.212845"><ele>354.0</ele><time>2026-04-26T10:33:05.023Z</time></trkpt><trkpt lat="43.942355" lon="12.2128833"><ele>354.0</ele><time>2026-04-26T10:33:06.023Z</time></trkpt><trkpt lat="43.9422417" lon="12.2128433"><ele>354.0</ele><time>2026-04-26T10:33:07.029Z</time></trkpt><trkpt lat="43.942145" lon="12.212905"><ele>354.0</ele><time>2026-04-26T10:33:08.023Z</time></trkpt><trkpt lat="43.94204" lon="12.2129683"><ele>354.0</ele><time>2026-04-26T10:33:09.024Z</time></trkpt><trkpt lat="43.9419667" lon="12.2129383"><ele>354.0</ele><time>2026-04-26T10:33:10.023Z</time></trkpt><trkpt lat="43.9418833" lon="12.2129933"><ele>354.0</ele><time>2026-04-26T10:33:11.021Z</time></trkpt><trkpt lat="43.9418" lon="12.2130017"><ele>354.0</ele><time>2026-04-26T10:33:12.025Z</time></trkpt><trkpt lat="43.9417167" lon="12.2130233"><ele>354.0</ele><time>2026-04-26T10:33:13.022Z</time></trkpt><trkpt lat="43.9416483" lon="12.2130183"><ele>354.0</ele><time>2026-04-26T10:33:14.027Z</time></trkpt><trkpt lat="43.9415817" lon="12.2129783"><ele>354.0</ele><time>2026-04-26T10:33:15.024Z</time></trkpt><trkpt lat="43.9415417" lon="12.2129017"><ele>356.79999999999995</ele><time>2026-04-26T10:33:16.025Z</time></trkpt><trkpt lat="43.941495" lon="12.2128167"><ele>359.59999999999997</ele><time>2026-04-26T10:33:17.023Z</time></trkpt><trkpt lat="43.9414267" lon="12.212725"><ele>362.4</ele><time>2026-04-26T10:33:18.025Z</time></trkpt><trkpt lat="43.9413933" lon="12.2126083"><ele>365.2</ele><time>2026-04-26T10:33:19.027Z</time></trkpt><trkpt lat="43.9412917" lon="12.21258"><ele>368.0</ele><time>2026-04-26T10:33:20.026Z</time></trkpt><trkpt lat="43.9412217" lon="12.21247"><ele>368.0</ele><time>2026-04-26T10:33:21.026Z</time></trkpt><trkpt lat="43.9411083" lon="12.212395"><ele>368.0</ele><time>2026-04-26T10:33:22.025Z</time></trkpt><trkpt lat="43.9409683" lon="12.2123183"><ele>368.0</ele><time>2026-04-26T10:33:23.022Z</time></trkpt><trkpt lat="43.9408733" lon="12.2122117"><ele>368.0</ele><time>2026-04-26T10:33:24.029Z</time></trkpt><trkpt lat="43.940775" lon="12.21212"><ele>370.75</ele><time>2026-04-26T10:33:25.025Z</time></trkpt><trkpt lat="43.9406917" lon="12.212015"><ele>373.5</ele><time>2026-04-26T10:33:26.023Z</time></trkpt><trkpt lat="43.9406717" lon="12.21186"><ele>376.25</ele><time>2026-04-26T10:33:27.024Z</time></trkpt><trkpt lat="43.9406067" lon="12.2116817"><ele>379.0</ele><time>2026-04-26T10:33:28.022Z</time></trkpt><trkpt lat="43.9404917" lon="12.2115433"><ele>377.25</ele><time>2026-04-26T10:33:29.026Z</time></trkpt><trkpt lat="43.940425" lon="12.2113617"><ele>375.5</ele><time>2026-04-26T10:33:30.025Z</time></trkpt><trkpt lat="43.9403633" lon="12.211175"><ele>373.75</ele><time>2026-04-26T10:33:31.025Z</time></trkpt><trkpt lat="43.9402867" lon="12.2109917"><ele>372.0</ele><time>2026-04-26T10:33:32.022Z</time></trkpt><trkpt lat="43.9402117" lon="12.2108083"><ele>372.25</ele><time>2026-04-26T10:33:33.024Z</time></trkpt><trkpt lat="43.9401433" lon="12.2106217"><ele>372.5</ele><time>2026-04-26T10:33:34.025Z</time></trkpt><trkpt lat="43.94009" lon="12.2104333"><ele>372.75</ele><time>2026-04-26T10:33:35.026Z</time></trkpt><trkpt lat="43.940045" lon="12.210265"><ele>373.0</ele><time>2026-04-26T10:33:36.025Z</time></trkpt><trkpt lat="43.940015" lon="12.2101"><ele>374.25</ele><time>2026-04-26T10:33:37.025Z</time></trkpt><trkpt lat="43.94001" lon="12.2099283"><ele>375.5</ele><time>2026-04-26T10:33:38.027Z</time></trkpt><trkpt lat="43.940035" lon="12.2097583"><ele>376.75</ele><time>2026-04-26T10:33:39.022Z</time></trkpt><trkpt lat="43.940095" lon="12.2095917"><ele>378.0</ele><time>2026-04-26T10:33:40.025Z</time></trkpt><trkpt lat="43.9400783" lon="12.2094433"><ele>378.0</ele><time>2026-04-26T10:33:41.024Z</time></trkpt><trkpt lat="43.9400817" lon="12.2092867"><ele>378.0</ele><time>2026-04-26T10:33:42.029Z</time></trkpt><trkpt lat="43.9401383" lon="12.2091717"><ele>378.0</ele><time>2026-04-26T10:33:43.025Z</time></trkpt><trkpt lat="43.9401433" lon="12.2090633"><ele>378.0</ele><time>2026-04-26T10:33:44.025Z</time></trkpt><trkpt lat="43.9401567" lon="12.208965"><ele>378.0</ele><time>2026-04-26T10:33:45.027Z</time></trkpt><trkpt lat="43.94017" lon="12.208875"><ele>378.0</ele><time>2026-04-26T10:33:46.026Z</time></trkpt><trkpt lat="43.9401733" lon="12.208735"><ele>379.0</ele><time>2026-04-26T10:33:48.026Z</time></trkpt><trkpt lat="43.94019" lon="12.2086467"><ele>380.0</ele><time>2026-04-26T10:33:51.024Z</time></trkpt><trkpt lat="43.9401733" lon="12.208525"><ele>381.0</ele><time>2026-04-26T10:34:11.026Z</time></trkpt><trkpt lat="43.9401717" lon="12.2083833"><ele>382.0</ele><time>2026-04-26T10:34:13.026Z</time></trkpt><trkpt lat="43.940165" lon="12.2082917"><ele>383.0</ele><time>2026-04-26T10:34:14.024Z</time></trkpt><trkpt lat="43.9401367" lon="12.2081717"><ele>384.0</ele><time>2026-04-26T10:34:16.024Z</time></trkpt><trkpt lat="43.9400667" lon="12.208185"><ele>387.2</ele><time>2026-04-26T10:34:18.025Z</time></trkpt><trkpt lat="43.9399467" lon="12.20832"><ele>390.4</ele><time>2026-04-26T10:34:20.024Z</time></trkpt><trkpt lat="43.9399133" lon="12.2084133"><ele>393.6</ele><time>2026-04-26T10:34:21.023Z</time></trkpt><trkpt lat="43.9398967" lon="12.2085367"><ele>396.8</ele><time>2026-04-26T10:34:22.024Z</time></trkpt><trkpt lat="43.9398567" lon="12.2086717"><ele>400.0</ele><time>2026-04-26T10:34:23.024Z</time></trkpt><trkpt lat="43.9398933" lon="12.2087683"><ele>400.0</ele><time>2026-04-26T10:34:25.024Z</time></trkpt><trkpt lat="43.939835" lon="12.208865"><ele>400.0</ele><time>2026-04-26T10:34:26.025Z</time></trkpt><trkpt lat="43.9398033" lon="12.2089517"><ele>400.0</ele><time>2026-04-26T10:34:27.025Z</time></trkpt><trkpt lat="43.9397033" lon="12.2089867"><ele>400.0</ele><time>2026-04-26T10:34:29.029Z</time></trkpt><trkpt lat="43.9395467" lon="12.2090233"><ele>400.0</ele><time>2026-04-26T10:34:31.024Z</time></trkpt><trkpt lat="43.9394533" lon="12.20905"><ele>400.6</ele><time>2026-04-26T10:34:32.025Z</time></trkpt><trkpt lat="43.9393683" lon="12.20907"><ele>401.2</ele><time>2026-04-26T10:34:33.025Z</time></trkpt><trkpt lat="43.939285" lon="12.20909"><ele>401.79999999999995</ele><time>2026-04-26T10:34:34.024Z</time></trkpt><trkpt lat="43.9392283" lon="12.2091617"><ele>402.4</ele><time>2026-04-26T10:34:35.024Z</time></trkpt><trkpt lat="43.9391383" lon="12.2093183"><ele>403.0</ele><time>2026-04-26T10:34:37.026Z</time></trkpt><trkpt lat="43.9390467" lon="12.209435"><ele>407.25</ele><time>2026-04-26T10:34:40.024Z</time></trkpt><trkpt lat="43.9389833" lon="12.20952"><ele>411.5</ele><time>2026-04-26T10:34:41.025Z</time></trkpt><trkpt lat="43.9389117" lon="12.2095783"><ele>415.75</ele><time>2026-04-26T10:34:42.025Z</time></trkpt><trkpt lat="43.93868" lon="12.20976"><ele>420.0</ele><time>2026-04-26T10:34:45.025Z</time></trkpt><trkpt lat="43.9385883" lon="12.209855"><ele>420.0</ele><time>2026-04-26T10:34:46.023Z</time></trkpt><trkpt lat="43.9385133" lon="12.2099383"><ele>420.0</ele><time>2026-04-26T10:34:48.024Z</time></trkpt><trkpt lat="43.93846" lon="12.21006"><ele>420.0</ele><time>2026-04-26T10:34:49.025Z</time></trkpt><trkpt lat="43.938395" lon="12.2102283"><ele>420.0</ele><time>2026-04-26T10:34:50.023Z</time></trkpt><trkpt lat="43.938375" lon="12.2103283"><ele>420.0</ele><time>2026-04-26T10:34:51.024Z</time></trkpt><trkpt lat="43.9383717" lon="12.2104367"><ele>425.6</ele><time>2026-04-26T10:34:52.024Z</time></trkpt><trkpt lat="43.9383617" lon="12.2105767"><ele>431.2</ele><time>2026-04-26T10:34:53.025Z</time></trkpt><trkpt lat="43.93835" lon="12.2107033"><ele>436.79999999999995</ele><time>2026-04-26T10:34:54.023Z</time></trkpt><trkpt lat="43.93832" lon="12.210845"><ele>442.4</ele><time>2026-04-26T10:34:55.026Z</time></trkpt><trkpt lat="43.93831" lon="12.2109333"><ele>448.0</ele><time>2026-04-26T10:34:56.025Z</time></trkpt><trkpt lat="43.9381567" lon="12.2112683"><ele>450.75</ele><time>2026-04-26T10:35:01.024Z</time></trkpt><trkpt lat="43.938025" lon="12.2114883"><ele>453.5</ele><time>2026-04-26T10:35:02.026Z</time></trkpt><trkpt lat="43.9379667" lon="12.2115667"><ele>456.25</ele><time>2026-04-26T10:35:03.024Z</time></trkpt><trkpt lat="43.9379083" lon="12.2116417"><ele>459.0</ele><time>2026-04-26T10:35:04.026Z</time></trkpt><trkpt lat="43.9378567" lon="12.2117867"><ele>460.6</ele><time>2026-04-26T10:35:05.025Z</time></trkpt><trkpt lat="43.93781" lon="12.211855"><ele>462.2</ele><time>2026-04-26T10:35:06.023Z</time></trkpt><trkpt lat="43.9377383" lon="12.2119117"><ele>463.80000000000007</ele><time>2026-04-26T10:35:08.025Z</time></trkpt><trkpt lat="43.93772" lon="12.212005"><ele>465.40000000000003</ele><time>2026-04-26T10:35:09.026Z</time></trkpt><trkpt lat="43.9376867" lon="12.212185"><ele>467.0</ele><time>2026-04-26T10:35:10.029Z</time></trkpt><trkpt lat="43.937655" lon="12.21233"><ele>467.0</ele><time>2026-04-26T10:35:11.023Z</time></trkpt><trkpt lat="43.937635" lon="12.2124717"><ele>467.0</ele><time>2026-04-26T10:35:12.025Z</time></trkpt><trkpt lat="43.9375867" lon="12.212685"><ele>467.0</ele><time>2026-04-26T10:35:13.025Z</time></trkpt><trkpt lat="43.9375567" lon="12.2128533"><ele>467.0</ele><time>2026-04-26T10:35:14.024Z</time></trkpt><trkpt lat="43.93751" lon="12.212935"><ele>471.6</ele><time>2026-04-26T10:35:15.027Z</time></trkpt><trkpt lat="43.937405" lon="12.2130017"><ele>476.20000000000005</ele><time>2026-04-26T10:35:17.025Z</time></trkpt><trkpt lat="43.9373483" lon="12.213085"><ele>480.8</ele><time>2026-04-26T10:35:18.024Z</time></trkpt><trkpt lat="43.9372883" lon="12.2131933"><ele>485.4</ele><time>2026-04-26T10:35:19.024Z</time></trkpt><trkpt lat="43.9372333" lon="12.2133817"><ele>490.0</ele><time>2026-04-26T10:35:20.03Z</time></trkpt><trkpt lat="43.93718" lon="12.2135667"><ele>491.0</ele><time>2026-04-26T10:35:21.027Z</time></trkpt><trkpt lat="43.93714" lon="12.2137633"><ele>492.0</ele><time>2026-04-26T10:35:22.023Z</time></trkpt><trkpt lat="43.9370733" lon="12.2138817"><ele>493.0</ele><time>2026-04-26T10:35:23.025Z</time></trkpt><trkpt lat="43.93701" lon="12.2139017"><ele>494.0</ele><time>2026-04-26T10:35:24.025Z</time></trkpt><trkpt lat="43.9369517" lon="12.21398"><ele>495.0</ele><time>2026-04-26T10:35:25.026Z</time></trkpt><trkpt lat="43.9368767" lon="12.2141183"><ele>498.6</ele><time>2026-04-26T10:35:26.025Z</time></trkpt><trkpt lat="43.9367933" lon="12.214205"><ele>502.2</ele><time>2026-04-26T10:35:27.029Z</time></trkpt><trkpt lat="43.9367167" lon="12.2142267"><ele>505.79999999999995</ele><time>2026-04-26T10:35:28.024Z</time></trkpt><trkpt lat="43.9366417" lon="12.2142917"><ele>509.4</ele><time>2026-04-26T10:35:29.025Z</time></trkpt><trkpt lat="43.93658" lon="12.2143883"><ele>513.0</ele><time>2026-04-26T10:35:30.025Z</time></trkpt><trkpt lat="43.9365" lon="12.2144567"><ele>514.6</ele><time>2026-04-26T10:35:31.025Z</time></trkpt><trkpt lat="43.936405" lon="12.2145067"><ele>516.1999999999999</ele><time>2026-04-26T10:35:32.032Z</time></trkpt><trkpt lat="43.9363183" lon="12.214605"><ele>517.8</ele><time>2026-04-26T10:35:33.024Z</time></trkpt><trkpt lat="43.9362683" lon="12.2147383"><ele>519.4</ele><time>2026-04-26T10:35:34.026Z</time></trkpt><trkpt lat="43.9362117" lon="12.21488"><ele>521.0</ele><time>2026-04-26T10:35:35.025Z</time></trkpt><trkpt lat="43.936145" lon="12.2150133"><ele>522.2</ele><time>2026-04-26T10:35:36.028Z</time></trkpt><trkpt lat="43.9360433" lon="12.2150233"><ele>523.4000000000001</ele><time>2026-04-26T10:35:37.025Z</time></trkpt><trkpt lat="43.9359583" lon="12.2151483"><ele>524.6</ele><time>2026-04-26T10:35:38.026Z</time></trkpt><trkpt lat="43.9358917" lon="12.2152833"><ele>525.8000000000001</ele><time>2026-04-26T10:35:39.026Z</time></trkpt><trkpt lat="43.9358867" lon="12.2154233"><ele>527.0</ele><time>2026-04-26T10:35:40.025Z</time></trkpt><trkpt lat="43.9357833" lon="12.2153033"><ele>527.0</ele><time>2026-04-26T10:35:41.028Z</time></trkpt><trkpt lat="43.9357183" lon="12.2154233"><ele>527.0</ele><time>2026-04-26T10:35:42.025Z</time></trkpt><trkpt lat="43.9356783" lon="12.2155583"><ele>527.0</ele><time>2026-04-26T10:35:43.025Z</time></trkpt><trkpt lat="43.9356283" lon="12.2156983"><ele>527.0</ele><time>2026-04-26T10:35:44.025Z</time></trkpt><trkpt lat="43.935575" lon="12.2158333"><ele>527.0</ele><time>2026-04-26T10:35:45.025Z</time></trkpt><trkpt lat="43.9355883" lon="12.215955"><ele>530.5</ele><time>2026-04-26T10:35:46.025Z</time></trkpt><trkpt lat="43.9355917" lon="12.21606"><ele>534.0</ele><time>2026-04-26T10:35:47.024Z</time></trkpt><trkpt lat="43.935545" lon="12.2161767"><ele>537.5</ele><time>2026-04-26T10:35:48.025Z</time></trkpt><trkpt lat="43.9354767" lon="12.2162683"><ele>541.0</ele><time>2026-04-26T10:35:49.026Z</time></trkpt><trkpt lat="43.9354167" lon="12.2163367"><ele>544.5</ele><time>2026-04-26T10:35:50.027Z</time></trkpt><trkpt lat="43.9353483" lon="12.2163667"><ele>548.0</ele><time>2026-04-26T10:35:51.024Z</time></trkpt><trkpt lat="43.93524" lon="12.2163133"><ele>548.0</ele><time>2026-04-26T10:35:52.024Z</time></trkpt><trkpt lat="43.9351133" lon="12.216335"><ele>548.0</ele><time>2026-04-26T10:35:54.023Z</time></trkpt><trkpt lat="43.935015" lon="12.2163983"><ele>548.0</ele><time>2026-04-26T10:35:55.024Z</time></trkpt><trkpt lat="43.93495" lon="12.216435"><ele>548.0</ele><time>2026-04-26T10:35:57.025Z</time></trkpt><trkpt lat="43.9349817" lon="12.2165383"><ele>548.0</ele><time>2026-04-26T10:36:00.024Z</time></trkpt><trkpt lat="43.9350683" lon="12.2165917"><ele>547.1999999999999</ele><time>2026-04-26T10:36:03.025Z</time></trkpt><trkpt lat="43.9351567" lon="12.2166633"><ele>546.4</ele><time>2026-04-26T10:36:05.026Z</time></trkpt><trkpt lat="43.93517" lon="12.216775"><ele>545.5999999999999</ele><time>2026-04-26T10:36:07.024Z</time></trkpt><trkpt lat="43.9350733" lon="12.216825"><ele>544.8</ele><time>2026-04-26T10:36:09.025Z</time></trkpt><trkpt lat="43.9350083" lon="12.2168983"><ele>544.0</ele><time>2026-04-26T10:36:11.027Z</time></trkpt><trkpt lat="43.9349467" lon="12.2169767"><ele>544.0</ele><time>2026-04-26T10:36:12.026Z</time></trkpt><trkpt lat="43.934865" lon="12.21709"><ele>544.0</ele><time>2026-04-26T10:36:13.031Z</time></trkpt><trkpt lat="43.9348117" lon="12.2172333"><ele>544.0</ele><time>2026-04-26T10:36:14.027Z</time></trkpt><trkpt lat="43.9347617" lon="12.2173967"><ele>544.0</ele><time>2026-04-26T10:36:15.026Z</time></trkpt><trkpt lat="43.9347017" lon="12.217565"><ele>547.2</ele><time>2026-04-26T10:36:16.025Z</time></trkpt><trkpt lat="43.93464" lon="12.21776"><ele>550.4</ele><time>2026-04-26T10:36:17.025Z</time></trkpt><trkpt lat="43.9346367" lon="12.2178833"><ele>553.6</ele><time>2026-04-26T10:36:18.027Z</time></trkpt><trkpt lat="43.934595" lon="12.2180017"><ele>556.8</ele><time>2026-04-26T10:36:19.026Z</time></trkpt><trkpt lat="43.9346" lon="12.218125"><ele>560.0</ele><time>2026-04-26T10:36:20.026Z</time></trkpt><trkpt lat="43.9346867" lon="12.218245"><ele>563.0</ele><time>2026-04-26T10:36:21.024Z</time></trkpt><trkpt lat="43.93467" lon="12.2183467"><ele>566.0</ele><time>2026-04-26T10:36:22.023Z</time></trkpt><trkpt lat="43.9347133" lon="12.2184433"><ele>569.0</ele><time>2026-04-26T10:36:23.024Z</time></trkpt><trkpt lat="43.9347217" lon="12.2186033"><ele>572.0</ele><time>2026-04-26T10:36:24.024Z</time></trkpt><trkpt lat="43.9347667" lon="12.218725"><ele>575.0</ele><time>2026-04-26T10:36:25.022Z</time></trkpt><trkpt lat="43.9348133" lon="12.2188617"><ele>575.0</ele><time>2026-04-26T10:36:26.025Z</time></trkpt><trkpt lat="43.9349" lon="12.218975"><ele>575.0</ele><time>2026-04-26T10:36:27.025Z</time></trkpt><trkpt lat="43.9349017" lon="12.2191183"><ele>575.0</ele><time>2026-04-26T10:36:28.023Z</time></trkpt><trkpt lat="43.9349683" lon="12.2192317"><ele>575.0</ele><time>2026-04-26T10:36:29.023Z</time></trkpt><trkpt lat="43.9350067" lon="12.2193317"><ele>575.0</ele><time>2026-04-26T10:36:30.022Z</time></trkpt><trkpt lat="43.9350233" lon="12.2194217"><ele>577.4</ele><time>2026-04-26T10:36:31.024Z</time></trkpt><trkpt lat="43.9349817" lon="12.2195617"><ele>579.8</ele><time>2026-04-26T10:36:33.024Z</time></trkpt><trkpt lat="43.934955" lon="12.2196467"><ele>582.2</ele><time>2026-04-26T10:36:35.024Z</time></trkpt><trkpt lat="43.93485" lon="12.219645"><ele>584.6</ele><time>2026-04-26T10:36:37.024Z</time></trkpt><trkpt lat="43.9347583" lon="12.2195533"><ele>587.0</ele><time>2026-04-26T10:36:38.024Z</time></trkpt><trkpt lat="43.9346783" lon="12.2195333"><ele>587.0</ele><time>2026-04-26T10:36:39.03Z</time></trkpt><trkpt lat="43.9345667" lon="12.21947"><ele>587.0</ele><time>2026-04-26T10:36:41.027Z</time></trkpt><trkpt lat="43.9344967" lon="12.2194667"><ele>587.0</ele><time>2026-04-26T10:36:43.026Z</time></trkpt><trkpt lat="43.9344083" lon="12.2195367"><ele>587.0</ele><time>2026-04-26T10:37:51.023Z</time></trkpt><trkpt lat="43.9343367" lon="12.21962"><ele>587.0</ele><time>2026-04-26T10:37:53.025Z</time></trkpt><trkpt lat="43.93428" lon="12.2197183"><ele>587.5</ele><time>2026-04-26T10:37:54.023Z</time></trkpt><trkpt lat="43.93423" lon="12.2198567"><ele>588.0</ele><time>2026-04-26T10:37:55.026Z</time></trkpt><trkpt lat="43.9341733" lon="12.2200067"><ele>588.5</ele><time>2026-04-26T10:37:56.023Z</time></trkpt><trkpt lat="43.9340883" lon="12.2201483"><ele>589.0</ele><time>2026-04-26T10:37:57.025Z</time></trkpt><trkpt lat="43.9340667" lon="12.2203167"><ele>589.25</ele><time>2026-04-26T10:37:58.026Z</time></trkpt><trkpt lat="43.9340317" lon="12.220495"><ele>589.5</ele><time>2026-04-26T10:37:59.03Z</time></trkpt><trkpt lat="43.9340533" lon="12.2207033"><ele>589.75</ele><time>2026-04-26T10:38:00.024Z</time></trkpt><trkpt lat="43.9340467" lon="12.2208733"><ele>590.0</ele><time>2026-04-26T10:38:01.029Z</time></trkpt><trkpt lat="43.9340367" lon="12.2210183"><ele>591.2</ele><time>2026-04-26T10:38:02.025Z</time></trkpt><trkpt lat="43.934025" lon="12.2211517"><ele>592.4</ele><time>2026-04-26T10:38:03.026Z</time></trkpt><trkpt lat="43.9339783" lon="12.2212733"><ele>593.6</ele><time>2026-04-26T10:38:04.024Z</time></trkpt><trkpt lat="43.9339" lon="12.2213617"><ele>594.8</ele><time>2026-04-26T10:38:05.022Z</time></trkpt><trkpt lat="43.93379" lon="12.221395"><ele>596.0</ele><time>2026-04-26T10:38:06.024Z</time></trkpt><trkpt lat="43.9336367" lon="12.2214333"><ele>594.6666666666666</ele><time>2026-04-26T10:38:07.025Z</time></trkpt><trkpt lat="43.9334867" lon="12.2215267"><ele>593.3333333333334</ele><time>2026-04-26T10:38:08.024Z</time></trkpt><trkpt lat="43.93333" lon="12.2216"><ele>592.0</ele><time>2026-04-26T10:38:09.025Z</time></trkpt><trkpt lat="43.9331933" lon="12.2217083"><ele>595.75</ele><time>2026-04-26T10:38:10.024Z</time></trkpt><trkpt lat="43.9330833" lon="12.221855"><ele>599.5</ele><time>2026-04-26T10:38:11.027Z</time></trkpt><trkpt lat="43.9330167" lon="12.2220267"><ele>603.25</ele><time>2026-04-26T10:38:12.024Z</time></trkpt><trkpt lat="43.93295" lon="12.22217"><ele>607.0</ele><time>2026-04-26T10:38:13.024Z</time></trkpt><trkpt lat="43.9328717" lon="12.222275"><ele>605.25</ele><time>2026-04-26T10:38:14.033Z</time></trkpt><trkpt lat="43.9327683" lon="12.2223417"><ele>603.5</ele><time>2026-04-26T10:38:15.027Z</time></trkpt><trkpt lat="43.9326383" lon="12.22238"><ele>601.75</ele><time>2026-04-26T10:38:16.026Z</time></trkpt><trkpt lat="43.932485" lon="12.2223967"><ele>600.0</ele><time>2026-04-26T10:38:17.027Z</time></trkpt><trkpt lat="43.9323217" lon="12.2224183"><ele>600.0</ele><time>2026-04-26T10:38:18.026Z</time></trkpt><trkpt lat="43.9321483" lon="12.2224567"><ele>600.0</ele><time>2026-04-26T10:38:19.026Z</time></trkpt><trkpt lat="43.9319817" lon="12.2225067"><ele>600.0</ele><time>2026-04-26T10:38:20.022Z</time></trkpt><trkpt lat="43.9318283" lon="12.22255"><ele>603.3333333333334</ele><time>2026-04-26T10:38:21.024Z</time></trkpt><trkpt lat="43.9316783" lon="12.2225733"><ele>606.6666666666667</ele><time>2026-04-26T10:38:22.026Z</time></trkpt><trkpt lat="43.9315267" lon="12.22257"><ele>610.0</ele><time>2026-04-26T10:38:23.025Z</time></trkpt><trkpt lat="43.931375" lon="12.222535"><ele>610.0</ele><time>2026-04-26T10:38:24.025Z</time></trkpt><trkpt lat="43.9312333" lon="12.22246"><ele>610.0</ele><time>2026-04-26T10:38:25.024Z</time></trkpt><trkpt lat="43.9310967" lon="12.2223533"><ele>610.0</ele><time>2026-04-26T10:38:26.025Z</time></trkpt><trkpt lat="43.9309767" lon="12.222225"><ele>611.0</ele><time>2026-04-26T10:38:27.026Z</time></trkpt><trkpt lat="43.9308617" lon="12.2220867"><ele>612.0</ele><time>2026-04-26T10:38:28.026Z</time></trkpt><trkpt lat="43.930745" lon="12.2219317"><ele>613.0</ele><time>2026-04-26T10:38:29.025Z</time></trkpt><trkpt lat="43.9306333" lon="12.22175"><ele>613.0</ele><time>2026-04-26T10:38:30.024Z</time></trkpt><trkpt lat="43.93052" lon="12.22156"><ele>613.0</ele><time>2026-04-26T10:38:31.026Z</time></trkpt><trkpt lat="43.930405" lon="12.2213667"><ele>613.0</ele><time>2026-04-26T10:38:32.024Z</time></trkpt><trkpt lat="43.9302733" lon="12.2211867"><ele>611.3333333333334</ele><time>2026-04-26T10:38:33.025Z</time></trkpt><trkpt lat="43.9301383" lon="12.2210167"><ele>609.6666666666666</ele><time>2026-04-26T10:38:34.024Z</time></trkpt><trkpt lat="43.9300083" lon="12.2208617"><ele>608.0</ele><time>2026-04-26T10:38:35.023Z</time></trkpt><trkpt lat="43.92988" lon="12.2207217"><ele>607.5</ele><time>2026-04-26T10:38:36.026Z</time></trkpt><trkpt lat="43.9297533" lon="12.2206083"><ele>607.0</ele><time>2026-04-26T10:38:37.026Z</time></trkpt><trkpt lat="43.929625" lon="12.2205383"><ele>606.5</ele><time>2026-04-26T10:38:38.023Z</time></trkpt><trkpt lat="43.9294917" lon="12.2205267"><ele>606.0</ele><time>2026-04-26T10:38:39.025Z</time></trkpt><trkpt lat="43.9293467" lon="12.220555"><ele>605.0</ele><time>2026-04-26T10:38:40.022Z</time></trkpt><trkpt lat="43.9291867" lon="12.220605"><ele>604.0</ele><time>2026-04-26T10:38:41.024Z</time></trkpt><trkpt lat="43.9290283" lon="12.2206617"><ele>603.0</ele><time>2026-04-26T10:38:42.024Z</time></trkpt><trkpt lat="43.9288767" lon="12.2207083"><ele>603.25</ele><time>2026-04-26T10:38:43.022Z</time></trkpt><trkpt lat="43.9287333" lon="12.2207533"><ele>603.5</ele><time>2026-04-26T10:38:44.024Z</time></trkpt><trkpt lat="43.9286" lon="12.2208183"><ele>603.75</ele><time>2026-04-26T10:38:45.024Z</time></trkpt><trkpt lat="43.9284733" lon="12.2209183"><ele>604.0</ele><time>2026-04-26T10:38:46.025Z</time></trkpt><trkpt lat="43.9283583" lon="12.2210567"><ele>604.0</ele><time>2026-04-26T10:38:47.024Z</time></trkpt><trkpt lat="43.9282383" lon="12.2212"><ele>604.0</ele><time>2026-04-26T10:38:48.026Z</time></trkpt><trkpt lat="43.9281133" lon="12.22133"><ele>604.0</ele><time>2026-04-26T10:38:49.024Z</time></trkpt><trkpt lat="43.92799" lon="12.2214467"><ele>605.25</ele><time>2026-04-26T10:38:50.023Z</time></trkpt><trkpt lat="43.9278717" lon="12.221565"><ele>606.5</ele><time>2026-04-26T10:38:51.025Z</time></trkpt><trkpt lat="43.927765" lon="12.2217"><ele>607.75</ele><time>2026-04-26T10:38:52.023Z</time></trkpt><trkpt lat="43.9276733" lon="12.2218717"><ele>609.0</ele><time>2026-04-26T10:38:53.024Z</time></trkpt><trkpt lat="43.9275917" lon="12.2220483"><ele>608.25</ele><time>2026-04-26T10:38:54.026Z</time></trkpt><trkpt lat="43.927505" lon="12.2222167"><ele>607.5</ele><time>2026-04-26T10:38:55.026Z</time></trkpt><trkpt lat="43.9274033" lon="12.2223517"><ele>606.75</ele><time>2026-04-26T10:38:56.025Z</time></trkpt><trkpt lat="43.9272883" lon="12.2224617"><ele>606.0</ele><time>2026-04-26T10:38:57.023Z</time></trkpt><trkpt lat="43.9271567" lon="12.2225483"><ele>606.0</ele><time>2026-04-26T10:38:58.025Z</time></trkpt><trkpt lat="43.9270133" lon="12.2226067"><ele>606.0</ele><time>2026-04-26T10:38:59.025Z</time></trkpt><trkpt lat="43.926855" lon="12.2226233"><ele>606.0</ele><time>2026-04-26T10:39:00.028Z</time></trkpt><trkpt lat="43.92669" lon="12.2226033"><ele>604.3333333333334</ele><time>2026-04-26T10:39:01.028Z</time></trkpt><trkpt lat="43.9265317" lon="12.222535"><ele>602.6666666666667</ele><time>2026-04-26T10:39:02.024Z</time></trkpt><trkpt lat="43.9263783" lon="12.2224183"><ele>601.0</ele><time>2026-04-26T10:39:03.025Z</time></trkpt><trkpt lat="43.9262383" lon="12.2222833"><ele>594.0</ele><time>2026-04-26T10:39:04.024Z</time></trkpt><trkpt lat="43.9260967" lon="12.22217"><ele>587.0</ele><time>2026-04-26T10:39:05.025Z</time></trkpt><trkpt lat="43.92595" lon="12.2220833"><ele>580.0</ele><time>2026-04-26T10:39:06.025Z</time></trkpt><trkpt lat="43.9257967" lon="12.2220267"><ele>579.0</ele><time>2026-04-26T10:39:07.025Z</time></trkpt><trkpt lat="43.9256417" lon="12.2219917"><ele>578.0</ele><time>2026-04-26T10:39:08.025Z</time></trkpt><trkpt lat="43.9254883" lon="12.2219483"><ele>577.0</ele><time>2026-04-26T10:39:09.027Z</time></trkpt><trkpt lat="43.9253517" lon="12.221885"><ele>577.0</ele><time>2026-04-26T10:39:10.025Z</time></trkpt><trkpt lat="43.9252233" lon="12.221815"><ele>577.0</ele><time>2026-04-26T10:39:11.024Z</time></trkpt><trkpt lat="43.9251017" lon="12.22174"><ele>577.0</ele><time>2026-04-26T10:39:12.03Z</time></trkpt><trkpt lat="43.924985" lon="12.2216883"><ele>577.0</ele><time>2026-04-26T10:39:13.024Z</time></trkpt><trkpt lat="43.9248717" lon="12.2216467"><ele>577.6</ele><time>2026-04-26T10:39:14.025Z</time></trkpt><trkpt lat="43.9247567" lon="12.2216433"><ele>578.2</ele><time>2026-04-26T10:39:15.025Z</time></trkpt><trkpt lat="43.9246483" lon="12.2216817"><ele>578.8</ele><time>2026-04-26T10:39:16.031Z</time></trkpt><trkpt lat="43.92456" lon="12.2217383"><ele>579.4</ele><time>2026-04-26T10:39:17.024Z</time></trkpt><trkpt lat="43.9245" lon="12.2217967"><ele>580.0</ele><time>2026-04-26T10:39:18.025Z</time></trkpt><trkpt lat="43.9244267" lon="12.221875"><ele>580.0</ele><time>2026-04-26T10:39:20.024Z</time></trkpt><trkpt lat="43.9243817" lon="12.2217767"><ele>580.0</ele><time>2026-04-26T10:39:23.025Z</time></trkpt><trkpt lat="43.9244483" lon="12.221645"><ele>580.0</ele><time>2026-04-26T10:39:25.024Z</time></trkpt><trkpt lat="43.9245017" lon="12.2215783"><ele>580.0</ele><time>2026-04-26T10:39:26.024Z</time></trkpt><trkpt lat="43.9245633" lon="12.2215133"><ele>580.0</ele><time>2026-04-26T10:39:27.024Z</time></trkpt><trkpt lat="43.9246333" lon="12.221445"><ele>580.0</ele><time>2026-04-26T10:39:28.024Z</time></trkpt><trkpt lat="43.9247117" lon="12.2213733"><ele>576.4</ele><time>2026-04-26T10:39:29.025Z</time></trkpt><trkpt lat="43.924805" lon="12.2212967"><ele>572.8</ele><time>2026-04-26T10:39:30.023Z</time></trkpt><trkpt lat="43.9249" lon="12.2212267"><ele>569.2</ele><time>2026-04-26T10:39:31.026Z</time></trkpt><trkpt lat="43.9249983" lon="12.2211667"><ele>565.6</ele><time>2026-04-26T10:39:32.023Z</time></trkpt><trkpt lat="43.9250983" lon="12.22113"><ele>562.0</ele><time>2026-04-26T10:39:33.023Z</time></trkpt><trkpt lat="43.9252033" lon="12.2211067"><ele>561.0</ele><time>2026-04-26T10:39:34.028Z</time></trkpt><trkpt lat="43.9253083" lon="12.22113"><ele>560.0</ele><time>2026-04-26T10:39:35.023Z</time></trkpt><trkpt lat="43.9254167" lon="12.221185"><ele>559.0</ele><time>2026-04-26T10:39:36.024Z</time></trkpt><trkpt lat="43.9255117" lon="12.2212667"><ele>558.0</ele><time>2026-04-26T10:39:37.024Z</time></trkpt><trkpt lat="43.925595" lon="12.221345"><ele>557.0</ele><time>2026-04-26T10:39:38.024Z</time></trkpt><trkpt lat="43.9256717" lon="12.2214067"><ele>557.0</ele><time>2026-04-26T10:39:39.027Z</time></trkpt><trkpt lat="43.9257417" lon="12.2214517"><ele>557.0</ele><time>2026-04-26T10:39:40.024Z</time></trkpt><trkpt lat="43.9258167" lon="12.2214"><ele>557.0</ele><time>2026-04-26T10:39:42.023Z</time></trkpt><trkpt lat="43.9257817" lon="12.221285"><ele>557.0</ele><time>2026-04-26T10:39:44.026Z</time></trkpt><trkpt lat="43.92572" lon="12.22123"><ele>557.0</ele><time>2026-04-26T10:39:45.025Z</time></trkpt><trkpt lat="43.9256483" lon="12.2211583"><ele>557.0</ele><time>2026-04-26T10:39:46.027Z</time></trkpt><trkpt lat="43.92557" lon="12.2210667"><ele>557.0</ele><time>2026-04-26T10:39:47.022Z</time></trkpt><trkpt lat="43.9254833" lon="12.2209333"><ele>557.0</ele><time>2026-04-26T10:39:48.024Z</time></trkpt><trkpt lat="43.925395" lon="12.2208133"><ele>557.0</ele><time>2026-04-26T10:39:49.022Z</time></trkpt><trkpt lat="43.925305" lon="12.22071"><ele>557.0</ele><time>2026-04-26T10:39:50.028Z</time></trkpt><trkpt lat="43.925195" lon="12.2206233"><ele>556.25</ele><time>2026-04-26T10:39:51.024Z</time></trkpt><trkpt lat="43.9250767" lon="12.22056"><ele>555.5</ele><time>2026-04-26T10:39:52.022Z</time></trkpt><trkpt lat="43.9249483" lon="12.2205"><ele>554.75</ele><time>2026-04-26T10:39:53.023Z</time></trkpt><trkpt lat="43.9248267" lon="12.2204433"><ele>554.0</ele><time>2026-04-26T10:39:54.029Z</time></trkpt><trkpt lat="43.9247117" lon="12.2203817"><ele>554.0</ele><time>2026-04-26T10:39:55.022Z</time></trkpt><trkpt lat="43.924605" lon="12.22033"><ele>554.0</ele><time>2026-04-26T10:39:56.024Z</time></trkpt><trkpt lat="43.9244983" lon="12.2202983"><ele>554.0</ele><time>2026-04-26T10:39:57.024Z</time></trkpt><trkpt lat="43.92439" lon="12.2203017"><ele>554.0</ele><time>2026-04-26T10:39:58.021Z</time></trkpt><trkpt lat="43.9242717" lon="12.2203383"><ele>553.75</ele><time>2026-04-26T10:39:59.021Z</time></trkpt><trkpt lat="43.9241483" lon="12.2204117"><ele>553.5</ele><time>2026-04-26T10:40:00.026Z</time></trkpt><trkpt lat="43.924025" lon="12.220525"><ele>553.25</ele><time>2026-04-26T10:40:01.022Z</time></trkpt><trkpt lat="43.92389" lon="12.2206517"><ele>553.0</ele><time>2026-04-26T10:40:02.026Z</time></trkpt><trkpt lat="43.923745" lon="12.2208017"><ele>553.0</ele><time>2026-04-26T10:40:03.024Z</time></trkpt><trkpt lat="43.9235883" lon="12.2209533"><ele>553.0</ele><time>2026-04-26T10:40:04.025Z</time></trkpt><trkpt lat="43.9234333" lon="12.2211033"><ele>553.0</ele><time>2026-04-26T10:40:05.024Z</time></trkpt><trkpt lat="43.9232817" lon="12.2212517"><ele>550.6666666666667</ele><time>2026-04-26T10:40:06.025Z</time></trkpt><trkpt lat="43.9231333" lon="12.2213917"><ele>548.3333333333334</ele><time>2026-04-26T10:40:07.023Z</time></trkpt><trkpt lat="43.9229867" lon="12.2215333"><ele>546.0</ele><time>2026-04-26T10:40:08.024Z</time></trkpt><trkpt lat="43.9228467" lon="12.2216817"><ele>546.0</ele><time>2026-04-26T10:40:09.027Z</time></trkpt><trkpt lat="43.922705" lon="12.2218267"><ele>546.0</ele><time>2026-04-26T10:40:10.027Z</time></trkpt><trkpt lat="43.9225633" lon="12.22197"><ele>546.0</ele><time>2026-04-26T10:40:11.025Z</time></trkpt><trkpt lat="43.9224217" lon="12.2221117"><ele>540.0</ele><time>2026-04-26T10:40:12.027Z</time></trkpt><trkpt lat="43.92228" lon="12.2222483"><ele>534.0</ele><time>2026-04-26T10:40:13.025Z</time></trkpt><trkpt lat="43.9221367" lon="12.22237"><ele>528.0</ele><time>2026-04-26T10:40:14.027Z</time></trkpt><trkpt lat="43.92199" lon="12.2224633"><ele>528.0</ele><time>2026-04-26T10:40:15.026Z</time></trkpt><trkpt lat="43.921845" lon="12.22253"><ele>528.0</ele><time>2026-04-26T10:40:16.023Z</time></trkpt><trkpt lat="43.9217133" lon="12.2225617"><ele>528.0</ele><time>2026-04-26T10:40:17.023Z</time></trkpt><trkpt lat="43.9215967" lon="12.22256"><ele>528.0</ele><time>2026-04-26T10:40:18.022Z</time></trkpt><trkpt lat="43.9215033" lon="12.2225217"><ele>526.0</ele><time>2026-04-26T10:40:19.021Z</time></trkpt><trkpt lat="43.9214283" lon="12.2224483"><ele>524.0</ele><time>2026-04-26T10:40:20.026Z</time></trkpt><trkpt lat="43.9213867" lon="12.222345"><ele>522.0</ele><time>2026-04-26T10:40:21.024Z</time></trkpt><trkpt lat="43.921375" lon="12.2222"><ele>520.0</ele><time>2026-04-26T10:40:22.024Z</time></trkpt><trkpt lat="43.9213883" lon="12.2220283"><ele>518.0</ele><time>2026-04-26T10:40:23.024Z</time></trkpt><trkpt lat="43.921415" lon="12.2218667"><ele>516.6</ele><time>2026-04-26T10:40:24.023Z</time></trkpt><trkpt lat="43.9214583" lon="12.221725"><ele>515.1999999999999</ele><time>2026-04-26T10:40:25.025Z</time></trkpt><trkpt lat="43.9215217" lon="12.2216083"><ele>513.8</ele><time>2026-04-26T10:40:26.024Z</time></trkpt><trkpt lat="43.9216" lon="12.221525"><ele>512.4</ele><time>2026-04-26T10:40:27.024Z</time></trkpt><trkpt lat="43.9217017" lon="12.2214783"><ele>511.0</ele><time>2026-04-26T10:40:28.024Z</time></trkpt><trkpt lat="43.9218233" lon="12.2214383"><ele>511.0</ele><time>2026-04-26T10:40:29.025Z</time></trkpt><trkpt lat="43.9219467" lon="12.22138"><ele>511.0</ele><time>2026-04-26T10:40:30.025Z</time></trkpt><trkpt lat="43.9220633" lon="12.2212983"><ele>511.0</ele><time>2026-04-26T10:40:31.023Z</time></trkpt><trkpt lat="43.9221567" lon="12.2211917"><ele>511.0</ele><time>2026-04-26T10:40:32.024Z</time></trkpt><trkpt lat="43.9222233" lon="12.2210683"><ele>511.00000000000006</ele><time>2026-04-26T10:40:33.025Z</time></trkpt><trkpt lat="43.9222617" lon="12.2209383"><ele>511.0</ele><time>2026-04-26T10:40:34.023Z</time></trkpt><trkpt lat="43.9222833" lon="12.2208183"><ele>511.0</ele><time>2026-04-26T10:40:35.024Z</time></trkpt><trkpt lat="43.9222917" lon="12.22071"><ele>511.0</ele><time>2026-04-26T10:40:36.024Z</time></trkpt><trkpt lat="43.92229" lon="12.220605"><ele>511.00000000000006</ele><time>2026-04-26T10:40:37.024Z</time></trkpt><trkpt lat="43.9222717" lon="12.2205033"><ele>511.0</ele><time>2026-04-26T10:40:38.026Z</time></trkpt><trkpt lat="43.9222367" lon="12.2204117"><ele>509.25</ele><time>2026-04-26T10:40:39.024Z</time></trkpt><trkpt lat="43.9221417" lon="12.2203783"><ele>507.5</ele><time>2026-04-26T10:40:40.024Z</time></trkpt><trkpt lat="43.9220167" lon="12.2203783"><ele>505.75</ele><time>2026-04-26T10:40:41.023Z</time></trkpt><trkpt lat="43.92187" lon="12.2204133"><ele>504.0</ele><time>2026-04-26T10:40:42.025Z</time></trkpt><trkpt lat="43.9217267" lon="12.22046"><ele>499.33333333333337</ele><time>2026-04-26T10:40:43.024Z</time></trkpt><trkpt lat="43.921575" lon="12.22051"><ele>494.6666666666667</ele><time>2026-04-26T10:40:44.024Z</time></trkpt><trkpt lat="43.9214233" lon="12.2205667"><ele>490.0</ele><time>2026-04-26T10:40:45.022Z</time></trkpt><trkpt lat="43.9212783" lon="12.220625"><ele>491.5</ele><time>2026-04-26T10:40:46.024Z</time></trkpt><trkpt lat="43.921145" lon="12.2206867"><ele>493.0</ele><time>2026-04-26T10:40:47.024Z</time></trkpt><trkpt lat="43.9210267" lon="12.220745"><ele>494.5</ele><time>2026-04-26T10:40:48.024Z</time></trkpt><trkpt lat="43.9209133" lon="12.2207967"><ele>496.0</ele><time>2026-04-26T10:40:49.023Z</time></trkpt><trkpt lat="43.92081" lon="12.2207967"><ele>492.8</ele><time>2026-04-26T10:40:50.025Z</time></trkpt><trkpt lat="43.92072" lon="12.2207467"><ele>489.6</ele><time>2026-04-26T10:40:51.024Z</time></trkpt><trkpt lat="43.9206417" lon="12.220655"><ele>486.4</ele><time>2026-04-26T10:40:52.028Z</time></trkpt><trkpt lat="43.9205967" lon="12.2205217"><ele>483.2</ele><time>2026-04-26T10:40:53.024Z</time></trkpt><trkpt lat="43.920575" lon="12.2203633"><ele>480.0</ele><time>2026-04-26T10:40:54.025Z</time></trkpt><trkpt lat="43.920585" lon="12.2201767"><ele>478.33333333333337</ele><time>2026-04-26T10:40:55.022Z</time></trkpt><trkpt lat="43.920625" lon="12.2199667"><ele>476.6666666666667</ele><time>2026-04-26T10:40:56.025Z</time></trkpt><trkpt lat="43.9206117" lon="12.2197417"><ele>475.0</ele><time>2026-04-26T10:40:57.025Z</time></trkpt><trkpt lat="43.9206367" lon="12.21953"><ele>473.75</ele><time>2026-04-26T10:40:58.023Z</time></trkpt><trkpt lat="43.9206583" lon="12.2193317"><ele>472.5</ele><time>2026-04-26T10:40:59.021Z</time></trkpt><trkpt lat="43.92069" lon="12.219155"><ele>471.25</ele><time>2026-04-26T10:41:00.024Z</time></trkpt><trkpt lat="43.9207083" lon="12.2190033"><ele>470.0</ele><time>2026-04-26T10:41:01.022Z</time></trkpt><trkpt lat="43.9207083" lon="12.21886"><ele>467.8</ele><time>2026-04-26T10:41:02.025Z</time></trkpt><trkpt lat="43.9206583" lon="12.218755"><ele>465.6</ele><time>2026-04-26T10:41:03.028Z</time></trkpt><trkpt lat="43.9205917" lon="12.2186733"><ele>463.4</ele><time>2026-04-26T10:41:04.025Z</time></trkpt><trkpt lat="43.920505" lon="12.2186567"><ele>461.2</ele><time>2026-04-26T10:41:05.025Z</time></trkpt><trkpt lat="43.9204117" lon="12.2186967"><ele>459.0</ele><time>2026-04-26T10:41:06.023Z</time></trkpt><trkpt lat="43.9203267" lon="12.2188033"><ele>459.0</ele><time>2026-04-26T10:41:07.021Z</time></trkpt><trkpt lat="43.9202167" lon="12.218915"><ele>459.0</ele><time>2026-04-26T10:41:08.024Z</time></trkpt><trkpt lat="43.9200917" lon="12.2190417"><ele>459.0</ele><time>2026-04-26T10:41:09.023Z</time></trkpt><trkpt lat="43.9199817" lon="12.2192067"><ele>458.66666666666663</ele><time>2026-04-26T10:41:10.025Z</time></trkpt><trkpt lat="43.9198517" lon="12.219355"><ele>458.3333333333333</ele><time>2026-04-26T10:41:11.024Z</time></trkpt><trkpt lat="43.9197367" lon="12.2195183"><ele>458.0</ele><time>2026-04-26T10:41:12.023Z</time></trkpt><trkpt lat="43.9196167" lon="12.2196633"><ele>458.0</ele><time>2026-04-26T10:41:13.023Z</time></trkpt><trkpt lat="43.9194717" lon="12.219775"><ele>458.0</ele><time>2026-04-26T10:41:14.022Z</time></trkpt><trkpt lat="43.9193117" lon="12.2198367"><ele>458.0</ele><time>2026-04-26T10:41:15.024Z</time></trkpt><trkpt lat="43.9191517" lon="12.219905"><ele>454.66666666666663</ele><time>2026-04-26T10:41:16.022Z</time></trkpt><trkpt lat="43.918995" lon="12.2199767"><ele>451.33333333333337</ele><time>2026-04-26T10:41:17.022Z</time></trkpt><trkpt lat="43.9188433" lon="12.2200333"><ele>448.0</ele><time>2026-04-26T10:41:18.024Z</time></trkpt><trkpt lat="43.9187017" lon="12.220095"><ele>448.0</ele><time>2026-04-26T10:41:19.024Z</time></trkpt><trkpt lat="43.9185717" lon="12.2201617"><ele>448.0</ele><time>2026-04-26T10:41:20.029Z</time></trkpt><trkpt lat="43.918455" lon="12.2202133"><ele>448.0</ele><time>2026-04-26T10:41:21.025Z</time></trkpt><trkpt lat="43.9183517" lon="12.22024"><ele>448.0</ele><time>2026-04-26T10:41:22.025Z</time></trkpt><trkpt lat="43.9182617" lon="12.2202267"><ele>445.79999999999995</ele><time>2026-04-26T10:41:23.025Z</time></trkpt><trkpt lat="43.91818" lon="12.2201817"><ele>443.59999999999997</ele><time>2026-04-26T10:41:24.023Z</time></trkpt><trkpt lat="43.91813" lon="12.22009"><ele>441.40000000000003</ele><time>2026-04-26T10:41:25.023Z</time></trkpt><trkpt lat="43.9180867" lon="12.2199833"><ele>439.20000000000005</ele><time>2026-04-26T10:41:26.025Z</time></trkpt><trkpt lat="43.9180667" lon="12.219855"><ele>437.0</ele><time>2026-04-26T10:41:27.024Z</time></trkpt><trkpt lat="43.9180867" lon="12.2196733"><ele>434.66666666666663</ele><time>2026-04-26T10:41:28.026Z</time></trkpt><trkpt lat="43.9181083" lon="12.2194483"><ele>432.33333333333337</ele><time>2026-04-26T10:41:29.026Z</time></trkpt><trkpt lat="43.9181367" lon="12.2192"><ele>430.0</ele><time>2026-04-26T10:41:30.025Z</time></trkpt><trkpt lat="43.9181617" lon="12.218955"><ele>428.0</ele><time>2026-04-26T10:41:31.028Z</time></trkpt><trkpt lat="43.918185" lon="12.2187133"><ele>426.0</ele><time>2026-04-26T10:41:32.024Z</time></trkpt><trkpt lat="43.9182067" lon="12.2184783"><ele>424.0</ele><time>2026-04-26T10:41:33.028Z</time></trkpt><trkpt lat="43.91823" lon="12.218245"><ele>421.6666666666667</ele><time>2026-04-26T10:41:34.023Z</time></trkpt><trkpt lat="43.91824" lon="12.218015"><ele>419.33333333333337</ele><time>2026-04-26T10:41:35.022Z</time></trkpt><trkpt lat="43.9182533" lon="12.217805"><ele>417.0</ele><time>2026-04-26T10:41:36.024Z</time></trkpt><trkpt lat="43.9182733" lon="12.21762"><ele>417.0</ele><time>2026-04-26T10:41:37.024Z</time></trkpt><trkpt lat="43.91833" lon="12.2174783"><ele>417.0</ele><time>2026-04-26T10:41:38.027Z</time></trkpt><trkpt lat="43.918395" lon="12.217365"><ele>417.0</ele><time>2026-04-26T10:41:39.023Z</time></trkpt><trkpt lat="43.9184867" lon="12.2172667"><ele>417.0</ele><time>2026-04-26T10:41:40.025Z</time></trkpt><trkpt lat="43.918605" lon="12.21719"><ele>417.20000000000005</ele><time>2026-04-26T10:41:41.023Z</time></trkpt><trkpt lat="43.91873" lon="12.2171333"><ele>417.4</ele><time>2026-04-26T10:41:42.024Z</time></trkpt><trkpt lat="43.9188383" lon="12.217065"><ele>417.6</ele><time>2026-04-26T10:41:43.028Z</time></trkpt><trkpt lat="43.918925" lon="12.2169833"><ele>417.79999999999995</ele><time>2026-04-26T10:41:44.023Z</time></trkpt><trkpt lat="43.9189867" lon="12.2168883"><ele>418.0</ele><time>2026-04-26T10:41:45.023Z</time></trkpt><trkpt lat="43.9190183" lon="12.2167733"><ele>418.0</ele><time>2026-04-26T10:41:46.022Z</time></trkpt><trkpt lat="43.919055" lon="12.216635"><ele>418.0</ele><time>2026-04-26T10:41:47.023Z</time></trkpt><trkpt lat="43.919025" lon="12.2164717"><ele>418.0</ele><time>2026-04-26T10:41:48.023Z</time></trkpt><trkpt lat="43.91897" lon="12.2163033"><ele>418.0</ele><time>2026-04-26T10:41:49.023Z</time></trkpt><trkpt lat="43.918885" lon="12.2161817"><ele>416.25</ele><time>2026-04-26T10:41:50.027Z</time></trkpt><trkpt lat="43.9187717" lon="12.2161033"><ele>414.5</ele><time>2026-04-26T10:41:51.024Z</time></trkpt><trkpt lat="43.9186233" lon="12.21607"><ele>412.75</ele><time>2026-04-26T10:41:52.025Z</time></trkpt><trkpt lat="43.9184833" lon="12.216"><ele>411.0</ele><time>2026-04-26T10:41:53.023Z</time></trkpt><trkpt lat="43.9183383" lon="12.2158983"><ele>406.33333333333337</ele><time>2026-04-26T10:41:54.021Z</time></trkpt><trkpt lat="43.9181733" lon="12.2158183"><ele>401.6666666666667</ele><time>2026-04-26T10:41:55.025Z</time></trkpt><trkpt lat="43.9180267" lon="12.215665"><ele>397.0</ele><time>2026-04-26T10:41:56.021Z</time></trkpt><trkpt lat="43.9178883" lon="12.2155083"><ele>395.33333333333337</ele><time>2026-04-26T10:41:57.026Z</time></trkpt><trkpt lat="43.9177667" lon="12.2153533"><ele>393.66666666666663</ele><time>2026-04-26T10:41:58.024Z</time></trkpt><trkpt lat="43.9176467" lon="12.2152117"><ele>392.0</ele><time>2026-04-26T10:41:59.026Z</time></trkpt><trkpt lat="43.9175233" lon="12.2150783"><ele>391.0</ele><time>2026-04-26T10:42:00.026Z</time></trkpt><trkpt lat="43.917415" lon="12.2149467"><ele>390.0</ele><time>2026-04-26T10:42:01.025Z</time></trkpt><trkpt lat="43.91731" lon="12.2148183"><ele>389.0</ele><time>2026-04-26T10:42:02.028Z</time></trkpt><trkpt lat="43.9172267" lon="12.2146783"><ele>388.0</ele><time>2026-04-26T10:42:03.025Z</time></trkpt><trkpt lat="43.9171467" lon="12.21457"><ele>387.0</ele><time>2026-04-26T10:42:04.025Z</time></trkpt><trkpt lat="43.9170783" lon="12.2144983"><ele>386.0</ele><time>2026-04-26T10:42:05.026Z</time></trkpt><trkpt lat="43.9170383" lon="12.2144167"><ele>385.0</ele><time>2026-04-26T10:42:06.025Z</time></trkpt><trkpt lat="43.916955" lon="12.214345"><ele>384.0</ele><time>2026-04-26T10:42:08.022Z</time></trkpt><trkpt lat="43.9168967" lon="12.2144167"><ele>383.0</ele><time>2026-04-26T10:42:10.024Z</time></trkpt><trkpt lat="43.916825" lon="12.2145767"><ele>383.0</ele><time>2026-04-26T10:42:12.026Z</time></trkpt><trkpt lat="43.91678" lon="12.2146683"><ele>383.0</ele><time>2026-04-26T10:42:13.024Z</time></trkpt><trkpt lat="43.9167433" lon="12.214785"><ele>383.0</ele><time>2026-04-26T10:42:14.024Z</time></trkpt><trkpt lat="43.9166817" lon="12.2149133"><ele>383.0</ele><time>2026-04-26T10:42:15.03Z</time></trkpt><trkpt lat="43.916615" lon="12.2150317"><ele>383.0</ele><time>2026-04-26T10:42:16.023Z</time></trkpt><trkpt lat="43.9166" lon="12.2151633"><ele>381.59999999999997</ele><time>2026-04-26T10:42:17.023Z</time></trkpt><trkpt lat="43.9165633" lon="12.2152833"><ele>380.2</ele><time>2026-04-26T10:42:18.023Z</time></trkpt><trkpt lat="43.9164583" lon="12.2153817"><ele>378.8</ele><time>2026-04-26T10:42:19.027Z</time></trkpt><trkpt lat="43.9163933" lon="12.21549"><ele>377.4</ele><time>2026-04-26T10:42:20.024Z</time></trkpt><trkpt lat="43.9163467" lon="12.2155933"><ele>376.0</ele><time>2026-04-26T10:42:21.027Z</time></trkpt><trkpt lat="43.9162983" lon="12.2156917"><ele>375.8333333333333</ele><time>2026-04-26T10:42:22.026Z</time></trkpt><trkpt lat="43.9162667" lon="12.2157817"><ele>375.66666666666663</ele><time>2026-04-26T10:42:23.027Z</time></trkpt><trkpt lat="43.9162283" lon="12.215865"><ele>375.5</ele><time>2026-04-26T10:42:24.028Z</time></trkpt><trkpt lat="43.916235" lon="12.2160417"><ele>375.3333333333333</ele><time>2026-04-26T10:42:26.023Z</time></trkpt><trkpt lat="43.9162717" lon="12.216145"><ele>375.1666666666667</ele><time>2026-04-26T10:42:27.025Z</time></trkpt><trkpt lat="43.91629" lon="12.216265"><ele>375.0</ele><time>2026-04-26T10:42:28.025Z</time></trkpt><trkpt lat="43.9163483" lon="12.2163683"><ele>376.2</ele><time>2026-04-26T10:42:29.023Z</time></trkpt><trkpt lat="43.91638" lon="12.2165033"><ele>377.4</ele><time>2026-04-26T10:42:30.028Z</time></trkpt><trkpt lat="43.916415" lon="12.2166333"><ele>378.6</ele><time>2026-04-26T10:42:31.025Z</time></trkpt><trkpt lat="43.91646" lon="12.21675"><ele>379.8</ele><time>2026-04-26T10:42:32.025Z</time></trkpt><trkpt lat="43.9164817" lon="12.216875"><ele>381.0</ele><time>2026-04-26T10:42:33.025Z</time></trkpt><trkpt lat="43.9164833" lon="12.2170033"><ele>381.0</ele><time>2026-04-26T10:42:34.022Z</time></trkpt><trkpt lat="43.9165067" lon="12.21711"><ele>381.0</ele><time>2026-04-26T10:42:35.025Z</time></trkpt><trkpt lat="43.9165083" lon="12.21723"><ele>381.0</ele><time>2026-04-26T10:42:36.025Z</time></trkpt><trkpt lat="43.91652" lon="12.217345"><ele>381.0</ele><time>2026-04-26T10:42:37.025Z</time></trkpt><trkpt lat="43.916515" lon="12.2174733"><ele>381.0</ele><time>2026-04-26T10:42:38.026Z</time></trkpt><trkpt lat="43.9164883" lon="12.2176167"><ele>382.5</ele><time>2026-04-26T10:42:39.025Z</time></trkpt><trkpt lat="43.9165" lon="12.2177583"><ele>384.0</ele><time>2026-04-26T10:42:40.024Z</time></trkpt><trkpt lat="43.916475" lon="12.2179267"><ele>385.5</ele><time>2026-04-26T10:42:41.023Z</time></trkpt><trkpt lat="43.9164633" lon="12.2181033"><ele>387.0</ele><time>2026-04-26T10:42:42.021Z</time></trkpt><trkpt lat="43.9164717" lon="12.21829"><ele>388.33333333333337</ele><time>2026-04-26T10:42:43.022Z</time></trkpt><trkpt lat="43.9164717" lon="12.218495"><ele>389.6666666666667</ele><time>2026-04-26T10:42:44.027Z</time></trkpt><trkpt lat="43.9164667" lon="12.2187083"><ele>391.0</ele><time>2026-04-26T10:42:45.024Z</time></trkpt><trkpt lat="43.916485" lon="12.2189217"><ele>392.25</ele><time>2026-04-26T10:42:46.023Z</time></trkpt><trkpt lat="43.9164817" lon="12.2191233"><ele>393.5</ele><time>2026-04-26T10:42:47.022Z</time></trkpt><trkpt lat="43.9164883" lon="12.2193217"><ele>394.75</ele><time>2026-04-26T10:42:48.022Z</time></trkpt><trkpt lat="43.91646" lon="12.2195033"><ele>396.0</ele><time>2026-04-26T10:42:49.023Z</time></trkpt><trkpt lat="43.9164567" lon="12.2196883"><ele>397.0</ele><time>2026-04-26T10:42:50.027Z</time></trkpt><trkpt lat="43.9164333" lon="12.2198667"><ele>398.0</ele><time>2026-04-26T10:42:51.023Z</time></trkpt><trkpt lat="43.91642" lon="12.2200433"><ele>399.0</ele><time>2026-04-26T10:42:52.023Z</time></trkpt><trkpt lat="43.916405" lon="12.2202133"><ele>400.0</ele><time>2026-04-26T10:42:53.022Z</time></trkpt><trkpt lat="43.9164" lon="12.2203783"><ele>400.0</ele><time>2026-04-26T10:42:54.028Z</time></trkpt><trkpt lat="43.9163883" lon="12.220545"><ele>400.0</ele><time>2026-04-26T10:42:55.025Z</time></trkpt><trkpt lat="43.9164017" lon="12.2207217"><ele>400.0</ele><time>2026-04-26T10:42:56.021Z</time></trkpt><trkpt lat="43.916395" lon="12.2209033"><ele>400.0</ele><time>2026-04-26T10:42:57.023Z</time></trkpt><trkpt lat="43.9163783" lon="12.2210817"><ele>400.8</ele><time>2026-04-26T10:42:58.021Z</time></trkpt><trkpt lat="43.91637" lon="12.2212517"><ele>401.6</ele><time>2026-04-26T10:42:59.024Z</time></trkpt><trkpt lat="43.9163433" lon="12.2214017"><ele>402.4</ele><time>2026-04-26T10:43:00.023Z</time></trkpt><trkpt lat="43.9163083" lon="12.2215317"><ele>403.2</ele><time>2026-04-26T10:43:01.024Z</time></trkpt><trkpt lat="43.9162817" lon="12.221655"><ele>404.0</ele><time>2026-04-26T10:43:02.023Z</time></trkpt><trkpt lat="43.9162283" lon="12.2217467"><ele>403.49999999999994</ele><time>2026-04-26T10:43:03.024Z</time></trkpt><trkpt lat="43.9161633" lon="12.2218233"><ele>403.0</ele><time>2026-04-26T10:43:04.024Z</time></trkpt><trkpt lat="43.916085" lon="12.2218633"><ele>402.5</ele><time>2026-04-26T10:43:05.023Z</time></trkpt><trkpt lat="43.916015" lon="12.221885"><ele>402.0</ele><time>2026-04-26T10:43:06.021Z</time></trkpt><trkpt lat="43.9159467" lon="12.2218667"><ele>401.49999999999994</ele><time>2026-04-26T10:43:07.023Z</time></trkpt><trkpt lat="43.9158783" lon="12.2218417"><ele>401.0</ele><time>2026-04-26T10:43:08.022Z</time></trkpt><trkpt lat="43.9158117" lon="12.2218083"><ele>401.0</ele><time>2026-04-26T10:43:09.024Z</time></trkpt><trkpt lat="43.9157317" lon="12.2217733"><ele>401.0</ele><time>2026-04-26T10:43:10.023Z</time></trkpt><trkpt lat="43.9156483" lon="12.2217133"><ele>401.0</ele><time>2026-04-26T10:43:11.021Z</time></trkpt><trkpt lat="43.9155517" lon="12.2216883"><ele>401.0</ele><time>2026-04-26T10:43:12.022Z</time></trkpt><trkpt lat="43.91545" lon="12.2216567"><ele>401.0</ele><time>2026-04-26T10:43:13.023Z</time></trkpt><trkpt lat="43.91535" lon="12.2216217"><ele>401.0</ele><time>2026-04-26T10:43:14.102Z</time></trkpt><trkpt lat="43.9152583" lon="12.2215467"><ele>401.0</ele><time>2026-04-26T10:43:15.022Z</time></trkpt><trkpt lat="43.91516" lon="12.2214583"><ele>401.0</ele><time>2026-04-26T10:43:16.025Z</time></trkpt><trkpt lat="43.9150533" lon="12.221355"><ele>401.0</ele><time>2026-04-26T10:43:17.025Z</time></trkpt><trkpt lat="43.914935" lon="12.2212433"><ele>402.0</ele><time>2026-04-26T10:43:18.023Z</time></trkpt><trkpt lat="43.9148133" lon="12.22112"><ele>403.0</ele><time>2026-04-26T10:43:19.024Z</time></trkpt><trkpt lat="43.9146917" lon="12.221005"><ele>404.0</ele><time>2026-04-26T10:43:20.025Z</time></trkpt><trkpt lat="43.9145817" lon="12.2209"><ele>405.0</ele><time>2026-04-26T10:43:21.022Z</time></trkpt><trkpt lat="43.914485" lon="12.220805"><ele>405.0</ele><time>2026-04-26T10:43:22.023Z</time></trkpt><trkpt lat="43.9144017" lon="12.2207083"><ele>405.0</ele><time>2026-04-26T10:43:23.025Z</time></trkpt><trkpt lat="43.9143167" lon="12.2206483"><ele>405.0</ele><time>2026-04-26T10:43:24.026Z</time></trkpt><trkpt lat="43.9142517" lon="12.2205883"><ele>405.0</ele><time>2026-04-26T10:43:25.026Z</time></trkpt><trkpt lat="43.9141933" lon="12.220545"><ele>405.0</ele><time>2026-04-26T10:43:26.024Z</time></trkpt><trkpt lat="43.9140783" lon="12.2205283"><ele>406.0</ele><time>2026-04-26T10:43:28.026Z</time></trkpt><trkpt lat="43.91398" lon="12.2205567"><ele>407.0</ele><time>2026-04-26T10:43:30.025Z</time></trkpt><trkpt lat="43.9139083" lon="12.2206667"><ele>408.0</ele><time>2026-04-26T10:43:32.024Z</time></trkpt><trkpt lat="43.9138733" lon="12.22076"><ele>409.0</ele><time>2026-04-26T10:43:34.026Z</time></trkpt><trkpt lat="43.9138633" lon="12.220885"><ele>410.0</ele><time>2026-04-26T10:43:36.025Z</time></trkpt><trkpt lat="43.913865" lon="12.221"><ele>411.4</ele><time>2026-04-26T10:43:37.024Z</time></trkpt><trkpt lat="43.9138283" lon="12.2211467"><ele>412.8</ele><time>2026-04-26T10:43:39.023Z</time></trkpt><trkpt lat="43.913825" lon="12.2212533"><ele>414.20000000000005</ele><time>2026-04-26T10:43:40.024Z</time></trkpt><trkpt lat="43.9138083" lon="12.221355"><ele>415.6</ele><time>2026-04-26T10:43:41.025Z</time></trkpt><trkpt lat="43.9137883" lon="12.22145"><ele>417.0</ele><time>2026-04-26T10:43:42.023Z</time></trkpt><trkpt lat="43.91378" lon="12.2216567"><ele>418.20000000000005</ele><time>2026-04-26T10:43:44.025Z</time></trkpt><trkpt lat="43.9137817" lon="12.22177"><ele>419.4</ele><time>2026-04-26T10:43:45.023Z</time></trkpt><trkpt lat="43.913765" lon="12.2218917"><ele>420.6</ele><time>2026-04-26T10:43:46.028Z</time></trkpt><trkpt lat="43.9137483" lon="12.2220283"><ele>421.79999999999995</ele><time>2026-04-26T10:43:47.026Z</time></trkpt><trkpt lat="43.91373" lon="12.22216"><ele>423.0</ele><time>2026-04-26T10:43:48.025Z</time></trkpt><trkpt lat="43.9137317" lon="12.2223017"><ele>424.0</ele><time>2026-04-26T10:43:49.025Z</time></trkpt><trkpt lat="43.9137183" lon="12.2224467"><ele>425.0</ele><time>2026-04-26T10:43:50.025Z</time></trkpt><trkpt lat="43.9136933" lon="12.2225867"><ele>425.99999999999994</ele><time>2026-04-26T10:43:51.024Z</time></trkpt><trkpt lat="43.9136717" lon="12.2227367"><ele>427.0</ele><time>2026-04-26T10:43:52.025Z</time></trkpt><trkpt lat="43.9136483" lon="12.2228833"><ele>428.0</ele><time>2026-04-26T10:43:53.026Z</time></trkpt><trkpt lat="43.9136333" lon="12.22304"><ele>429.0</ele><time>2026-04-26T10:43:54.025Z</time></trkpt><trkpt lat="43.9136083" lon="12.2232"><ele>430.0</ele><time>2026-04-26T10:43:55.024Z</time></trkpt><trkpt lat="43.913585" lon="12.2233783"><ele>431.0</ele><time>2026-04-26T10:43:56.024Z</time></trkpt><trkpt lat="43.9135517" lon="12.223565"><ele>432.0</ele><time>2026-04-26T10:43:57.023Z</time></trkpt><trkpt lat="43.9135267" lon="12.2237567"><ele>432.0</ele><time>2026-04-26T10:43:58.026Z</time></trkpt><trkpt lat="43.9135" lon="12.2239483"><ele>432.0</ele><time>2026-04-26T10:43:59.023Z</time></trkpt><trkpt lat="43.9134867" lon="12.2241417"><ele>432.0</ele><time>2026-04-26T10:44:00.025Z</time></trkpt><trkpt lat="43.9134483" lon="12.22434"><ele>432.0</ele><time>2026-04-26T10:44:01.023Z</time></trkpt><trkpt lat="43.913465" lon="12.224525"><ele>433.66666666666663</ele><time>2026-04-26T10:44:02.024Z</time></trkpt><trkpt lat="43.9134333" lon="12.224725"><ele>435.3333333333333</ele><time>2026-04-26T10:44:03.025Z</time></trkpt><trkpt lat="43.91342" lon="12.2249433"><ele>437.0</ele><time>2026-04-26T10:44:04.026Z</time></trkpt><trkpt lat="43.9134217" lon="12.2251917"><ele>441.66666666666663</ele><time>2026-04-26T10:44:05.022Z</time></trkpt><trkpt lat="43.913375" lon="12.2254183"><ele>446.33333333333337</ele><time>2026-04-26T10:44:06.023Z</time></trkpt><trkpt lat="43.9133767" lon="12.22567"><ele>451.0</ele><time>2026-04-26T10:44:07.023Z</time></trkpt><trkpt lat="43.91331" lon="12.22589"><ele>453.0</ele><time>2026-04-26T10:44:08.022Z</time></trkpt><trkpt lat="43.9133717" lon="12.2261267"><ele>455.0</ele><time>2026-04-26T10:44:09.027Z</time></trkpt><trkpt lat="43.913335" lon="12.2263567"><ele>457.0</ele><time>2026-04-26T10:44:10.024Z</time></trkpt><trkpt lat="43.9132867" lon="12.2265767"><ele>459.0</ele><time>2026-04-26T10:44:11.023Z</time></trkpt><trkpt lat="43.9132467" lon="12.2267867"><ele>461.0</ele><time>2026-04-26T10:44:12.023Z</time></trkpt><trkpt lat="43.9132083" lon="12.2269967"><ele>463.0</ele><time>2026-04-26T10:44:13.023Z</time></trkpt><trkpt lat="43.9131583" lon="12.2272133"><ele>464.33333333333337</ele><time>2026-04-26T10:44:14.026Z</time></trkpt><trkpt lat="43.9131033" lon="12.22744"><ele>465.66666666666663</ele><time>2026-04-26T10:44:15.025Z</time></trkpt><trkpt lat="43.9130383" lon="12.2276733"><ele>467.0</ele><time>2026-04-26T10:44:16.025Z</time></trkpt><trkpt lat="43.9129717" lon="12.227905"><ele>467.0</ele><time>2026-04-26T10:44:17.024Z</time></trkpt><trkpt lat="43.9129233" lon="12.2281333"><ele>467.0</ele><time>2026-04-26T10:44:18.026Z</time></trkpt><trkpt lat="43.91286" lon="12.228335"><ele>467.0</ele><time>2026-04-26T10:44:19.023Z</time></trkpt><trkpt lat="43.9128033" lon="12.2285217"><ele>467.75</ele><time>2026-04-26T10:44:20.024Z</time></trkpt><trkpt lat="43.91275" lon="12.228695"><ele>468.5</ele><time>2026-04-26T10:44:21.03Z</time></trkpt><trkpt lat="43.9126983" lon="12.2288667"><ele>469.25</ele><time>2026-04-26T10:44:22.024Z</time></trkpt><trkpt lat="43.9126383" lon="12.22901"><ele>470.0</ele><time>2026-04-26T10:44:23.021Z</time></trkpt><trkpt lat="43.9125483" lon="12.2291133"><ele>474.0</ele><time>2026-04-26T10:44:24.023Z</time></trkpt><trkpt lat="43.91246" lon="12.2291983"><ele>478.0</ele><time>2026-04-26T10:44:25.025Z</time></trkpt><trkpt lat="43.912365" lon="12.2292533"><ele>482.0</ele><time>2026-04-26T10:44:26.024Z</time></trkpt><trkpt lat="43.9122533" lon="12.2292817"><ele>486.0</ele><time>2026-04-26T10:44:27.021Z</time></trkpt><trkpt lat="43.9121367" lon="12.2292933"><ele>490.0</ele><time>2026-04-26T10:44:28.025Z</time></trkpt><trkpt lat="43.91201" lon="12.2293"><ele>490.0</ele><time>2026-04-26T10:44:29.026Z</time></trkpt><trkpt lat="43.9118733" lon="12.2293083"><ele>490.0</ele><time>2026-04-26T10:44:30.023Z</time></trkpt><trkpt lat="43.9117283" lon="12.2293133"><ele>490.0</ele><time>2026-04-26T10:44:31.022Z</time></trkpt><trkpt lat="43.9115717" lon="12.229325"><ele>490.0</ele><time>2026-04-26T10:44:32.023Z</time></trkpt><trkpt lat="43.9114083" lon="12.2293433"><ele>493.0</ele><time>2026-04-26T10:44:33.026Z</time></trkpt><trkpt lat="43.911235" lon="12.2293667"><ele>496.0</ele><time>2026-04-26T10:44:34.022Z</time></trkpt><trkpt lat="43.9110483" lon="12.2293917"><ele>499.0</ele><time>2026-04-26T10:44:35.025Z</time></trkpt><trkpt lat="43.9108517" lon="12.2294217"><ele>499.0</ele><time>2026-04-26T10:44:36.023Z</time></trkpt><trkpt lat="43.91065" lon="12.229455"><ele>499.0</ele><time>2026-04-26T10:44:37.024Z</time></trkpt><trkpt lat="43.910455" lon="12.229485"><ele>499.0</ele><time>2026-04-26T10:44:38.026Z</time></trkpt><trkpt lat="43.9102683" lon="12.2295133"><ele>499.0</ele><time>2026-04-26T10:44:39.023Z</time></trkpt><trkpt lat="43.91009" lon="12.229535"><ele>499.0</ele><time>2026-04-26T10:44:40.026Z</time></trkpt><trkpt lat="43.909915" lon="12.2295533"><ele>499.0</ele><time>2026-04-26T10:44:41.024Z</time></trkpt><trkpt lat="43.909745" lon="12.2295733"><ele>500.6666666666667</ele><time>2026-04-26T10:44:42.025Z</time></trkpt><trkpt lat="43.909575" lon="12.2295917"><ele>502.33333333333337</ele><time>2026-04-26T10:44:43.027Z</time></trkpt><trkpt lat="43.9094017" lon="12.2296117"><ele>504.0</ele><time>2026-04-26T10:44:44.022Z</time></trkpt><trkpt lat="43.909225" lon="12.229635"><ele>505.66666666666663</ele><time>2026-04-26T10:44:45.024Z</time></trkpt><trkpt lat="43.9090417" lon="12.2296583"><ele>507.3333333333333</ele><time>2026-04-26T10:44:46.025Z</time></trkpt><trkpt lat="43.9088533" lon="12.2296833"><ele>509.0</ele><time>2026-04-26T10:44:47.026Z</time></trkpt><trkpt lat="43.9086617" lon="12.2297117"><ele>509.0</ele><time>2026-04-26T10:44:48.025Z</time></trkpt><trkpt lat="43.908465" lon="12.2297417"><ele>509.0</ele><time>2026-04-26T10:44:49.028Z</time></trkpt><trkpt lat="43.9082667" lon="12.22977"><ele>509.0</ele><time>2026-04-26T10:44:50.025Z</time></trkpt><trkpt lat="43.9080683" lon="12.2297967"><ele>512.0</ele><time>2026-04-26T10:44:51.026Z</time></trkpt><trkpt lat="43.907875" lon="12.2298217"><ele>515.0</ele><time>2026-04-26T10:44:52.025Z</time></trkpt><trkpt lat="43.907685" lon="12.2298467"><ele>518.0</ele><time>2026-04-26T10:44:53.025Z</time></trkpt><trkpt lat="43.9074917" lon="12.2298783"><ele>520.6666666666666</ele><time>2026-04-26T10:44:54.026Z</time></trkpt><trkpt lat="43.907295" lon="12.22991"><ele>523.3333333333334</ele><time>2026-04-26T10:44:55.025Z</time></trkpt><trkpt lat="43.9070983" lon="12.2299417"><ele>526.0</ele><time>2026-04-26T10:44:56.026Z</time></trkpt><trkpt lat="43.9068983" lon="12.22997"><ele>527.3333333333334</ele><time>2026-04-26T10:44:57.025Z</time></trkpt><trkpt lat="43.906695" lon="12.23"><ele>528.6666666666666</ele><time>2026-04-26T10:44:58.026Z</time></trkpt><trkpt lat="43.90649" lon="12.23003"><ele>530.0</ele><time>2026-04-26T10:44:59.026Z</time></trkpt><trkpt lat="43.9062833" lon="12.23006"><ele>530.0</ele><time>2026-04-26T10:45:00.026Z</time></trkpt><trkpt lat="43.9060717" lon="12.2300867"><ele>530.0</ele><time>2026-04-26T10:45:01.026Z</time></trkpt><trkpt lat="43.9058633" lon="12.2301133"><ele>530.0</ele><time>2026-04-26T10:45:02.026Z</time></trkpt><trkpt lat="43.9056733" lon="12.2301367"><ele>531.6666666666666</ele><time>2026-04-26T10:45:03.026Z</time></trkpt><trkpt lat="43.905505" lon="12.2301517"><ele>533.3333333333334</ele><time>2026-04-26T10:45:04.026Z</time></trkpt><trkpt lat="43.9053533" lon="12.230165"><ele>535.0</ele><time>2026-04-26T10:45:05.025Z</time></trkpt><trkpt lat="43.9052067" lon="12.2301867"><ele>536.5</ele><time>2026-04-26T10:45:06.026Z</time></trkpt><trkpt lat="43.905055" lon="12.2302067"><ele>538.0</ele><time>2026-04-26T10:45:07.023Z</time></trkpt><trkpt lat="43.9049033" lon="12.2302267"><ele>539.5</ele><time>2026-04-26T10:45:08.024Z</time></trkpt><trkpt lat="43.9047667" lon="12.2302433"><ele>541.0</ele><time>2026-04-26T10:45:09.025Z</time></trkpt><trkpt lat="43.9046383" lon="12.23026"><ele>541.0</ele><time>2026-04-26T10:45:10.024Z</time></trkpt><trkpt lat="43.9045233" lon="12.230275"><ele>541.0</ele><time>2026-04-26T10:45:11.024Z</time></trkpt><trkpt lat="43.9044217" lon="12.2302917"><ele>541.0</ele><time>2026-04-26T10:45:12.025Z</time></trkpt><trkpt lat="43.904335" lon="12.2302983"><ele>541.0</ele><time>2026-04-26T10:45:13.025Z</time></trkpt><trkpt lat="43.90427" lon="12.2303067"><ele>541.0</ele><time>2026-04-26T10:45:14.023Z</time></trkpt><trkpt lat="43.9041883" lon="12.2303183"><ele>541.4</ele><time>2026-04-26T10:45:16.024Z</time></trkpt><trkpt lat="43.9040433" lon="12.23034"><ele>541.8</ele><time>2026-04-26T10:47:19.022Z</time></trkpt><trkpt lat="43.9039517" lon="12.2303567"><ele>542.1999999999999</ele><time>2026-04-26T10:47:20.024Z</time></trkpt><trkpt lat="43.903865" lon="12.2303667"><ele>542.6</ele><time>2026-04-26T10:47:21.027Z</time></trkpt><trkpt lat="43.9037717" lon="12.2303667"><ele>543.0</ele><time>2026-04-26T10:47:22.025Z</time></trkpt><trkpt lat="43.9036867" lon="12.2303633"><ele>543.0</ele><time>2026-04-26T10:47:23.025Z</time></trkpt><trkpt lat="43.9036183" lon="12.23036"><ele>543.0</ele><time>2026-04-26T10:47:24.023Z</time></trkpt><trkpt lat="43.9035267" lon="12.230355"><ele>543.0</ele><time>2026-04-26T10:47:26.022Z</time></trkpt><trkpt lat="43.9034417" lon="12.2303917"><ele>543.0</ele><time>2026-04-26T10:47:28.021Z</time></trkpt><trkpt lat="43.9033967" lon="12.230455"><ele>543.0</ele><time>2026-04-26T10:47:29.024Z</time></trkpt><trkpt lat="43.9033517" lon="12.23056"><ele>543.0</ele><time>2026-04-26T10:47:30.023Z</time></trkpt><trkpt lat="43.9033167" lon="12.2306933"><ele>545.25</ele><time>2026-04-26T10:47:31.023Z</time></trkpt><trkpt lat="43.9032883" lon="12.2308517"><ele>547.5</ele><time>2026-04-26T10:47:32.022Z</time></trkpt><trkpt lat="43.90327" lon="12.2310317"><ele>549.75</ele><time>2026-04-26T10:47:33.025Z</time></trkpt><trkpt lat="43.9032617" lon="12.2312333"><ele>552.0</ele><time>2026-04-26T10:47:34.02Z</time></trkpt><trkpt lat="43.9032767" lon="12.231445"><ele>553.0</ele><time>2026-04-26T10:47:35.023Z</time></trkpt><trkpt lat="43.9033133" lon="12.2316533"><ele>554.0</ele><time>2026-04-26T10:47:36.021Z</time></trkpt><trkpt lat="43.9033567" lon="12.2318383"><ele>555.0</ele><time>2026-04-26T10:47:37.023Z</time></trkpt><trkpt lat="43.90339" lon="12.2320067"><ele>556.0</ele><time>2026-04-26T10:47:38.022Z</time></trkpt><trkpt lat="43.9033983" lon="12.2321767"><ele>557.25</ele><time>2026-04-26T10:47:39.025Z</time></trkpt><trkpt lat="43.9033833" lon="12.23236"><ele>558.5</ele><time>2026-04-26T10:47:40.023Z</time></trkpt><trkpt lat="43.90336" lon="12.2325567"><ele>559.75</ele><time>2026-04-26T10:47:41.022Z</time></trkpt><trkpt lat="43.9033467" lon="12.2327583"><ele>561.0</ele><time>2026-04-26T10:47:42.025Z</time></trkpt><trkpt lat="43.9033467" lon="12.23297"><ele>562.3333333333334</ele><time>2026-04-26T10:47:43.021Z</time></trkpt><trkpt lat="43.90336" lon="12.2331867"><ele>563.6666666666667</ele><time>2026-04-26T10:47:44.023Z</time></trkpt><trkpt lat="43.90338" lon="12.2334033"><ele>565.0</ele><time>2026-04-26T10:47:45.023Z</time></trkpt><trkpt lat="43.9034" lon="12.2336283"><ele>565.0</ele><time>2026-04-26T10:47:46.024Z</time></trkpt><trkpt lat="43.9034183" lon="12.2338617"><ele>565.0</ele><time>2026-04-26T10:47:47.025Z</time></trkpt><trkpt lat="43.9034367" lon="12.2341"><ele>565.0</ele><time>2026-04-26T10:47:48.028Z</time></trkpt><trkpt lat="43.9034583" lon="12.234345"><ele>567.6666666666667</ele><time>2026-04-26T10:47:49.026Z</time></trkpt><trkpt lat="43.9034767" lon="12.2346017"><ele>570.3333333333334</ele><time>2026-04-26T10:47:50.028Z</time></trkpt><trkpt lat="43.9034967" lon="12.2348667"><ele>573.0</ele><time>2026-04-26T10:47:51.025Z</time></trkpt><trkpt lat="43.9035183" lon="12.235135"><ele>575.3333333333334</ele><time>2026-04-26T10:47:52.026Z</time></trkpt><trkpt lat="43.9035433" lon="12.2353983"><ele>577.6666666666667</ele><time>2026-04-26T10:47:53.023Z</time></trkpt><trkpt lat="43.9035667" lon="12.2356583"><ele>580.0</ele><time>2026-04-26T10:47:54.023Z</time></trkpt><trkpt lat="43.90359" lon="12.2359133"><ele>582.3333333333334</ele><time>2026-04-26T10:47:55.024Z</time></trkpt><trkpt lat="43.9036117" lon="12.2361567"><ele>584.6666666666666</ele><time>2026-04-26T10:47:56.025Z</time></trkpt><trkpt lat="43.9036283" lon="12.236385"><ele>587.0</ele><time>2026-04-26T10:47:57.025Z</time></trkpt><trkpt lat="43.90364" lon="12.2365883"><ele>589.0</ele><time>2026-04-26T10:47:58.022Z</time></trkpt><trkpt lat="43.90364" lon="12.2367683"><ele>591.0</ele><time>2026-04-26T10:47:59.022Z</time></trkpt><trkpt lat="43.903625" lon="12.23692"><ele>593.0</ele><time>2026-04-26T10:48:00.025Z</time></trkpt><trkpt lat="43.9035917" lon="12.23704"><ele>595.0</ele><time>2026-04-26T10:48:01.025Z</time></trkpt><trkpt lat="43.903525" lon="12.2371317"><ele>597.0</ele><time>2026-04-26T10:48:02.022Z</time></trkpt><trkpt lat="43.90345" lon="12.2372333"><ele>596.75</ele><time>2026-04-26T10:48:03.022Z</time></trkpt><trkpt lat="43.90339" lon="12.2373583"><ele>596.5</ele><time>2026-04-26T10:48:04.023Z</time></trkpt><trkpt lat="43.90336" lon="12.2375133"><ele>596.25</ele><time>2026-04-26T10:48:05.022Z</time></trkpt><trkpt lat="43.903365" lon="12.2376883"><ele>596.0</ele><time>2026-04-26T10:48:06.024Z</time></trkpt><trkpt lat="43.9034033" lon="12.2378767"><ele>601.0</ele><time>2026-04-26T10:48:07.022Z</time></trkpt><trkpt lat="43.9034633" lon="12.238075"><ele>606.0</ele><time>2026-04-26T10:48:08.023Z</time></trkpt><trkpt lat="43.9035433" lon="12.23828"><ele>611.0</ele><time>2026-04-26T10:48:09.022Z</time></trkpt><trkpt lat="43.9036267" lon="12.2384967"><ele>611.6666666666666</ele><time>2026-04-26T10:48:10.025Z</time></trkpt><trkpt lat="43.9037133" lon="12.2387217"><ele>612.3333333333334</ele><time>2026-04-26T10:48:11.023Z</time></trkpt><trkpt lat="43.903795" lon="12.238955"><ele>613.0</ele><time>2026-04-26T10:48:12.022Z</time></trkpt><trkpt lat="43.90388" lon="12.2391933"><ele>613.0</ele><time>2026-04-26T10:48:13.025Z</time></trkpt><trkpt lat="43.90397" lon="12.23943"><ele>613.0</ele><time>2026-04-26T10:48:14.024Z</time></trkpt><trkpt lat="43.9040583" lon="12.2396617"><ele>613.0</ele><time>2026-04-26T10:48:15.024Z</time></trkpt><trkpt lat="43.9041433" lon="12.2398883"><ele>612.6666666666667</ele><time>2026-04-26T10:48:16.024Z</time></trkpt><trkpt lat="43.90423" lon="12.2401133"><ele>612.3333333333334</ele><time>2026-04-26T10:48:17.024Z</time></trkpt><trkpt lat="43.904315" lon="12.2403267"><ele>612.0</ele><time>2026-04-26T10:48:18.024Z</time></trkpt><trkpt lat="43.9043867" lon="12.2405233"><ele>616.25</ele><time>2026-04-26T10:48:19.022Z</time></trkpt><trkpt lat="43.904445" lon="12.2407083"><ele>620.5</ele><time>2026-04-26T10:48:20.022Z</time></trkpt><trkpt lat="43.9044867" lon="12.2408933"><ele>624.75</ele><time>2026-04-26T10:48:21.023Z</time></trkpt><trkpt lat="43.9045033" lon="12.2410933"><ele>629.0</ele><time>2026-04-26T10:48:22.02Z</time></trkpt><trkpt lat="43.904505" lon="12.2413083"><ele>629.25</ele><time>2026-04-26T10:48:23.03Z</time></trkpt><trkpt lat="43.9044883" lon="12.24151"><ele>629.5</ele><time>2026-04-26T10:48:24.024Z</time></trkpt><trkpt lat="43.904455" lon="12.2416933"><ele>629.75</ele><time>2026-04-26T10:48:25.025Z</time></trkpt><trkpt lat="43.9044" lon="12.2418533"><ele>630.0</ele><time>2026-04-26T10:48:26.024Z</time></trkpt><trkpt lat="43.9043183" lon="12.24201"><ele>629.6666666666666</ele><time>2026-04-26T10:48:27.026Z</time></trkpt><trkpt lat="43.904225" lon="12.242175"><ele>629.3333333333333</ele><time>2026-04-26T10:48:28.024Z</time></trkpt><trkpt lat="43.9041283" lon="12.242355"><ele>629.0</ele><time>2026-04-26T10:48:29.026Z</time></trkpt><trkpt lat="43.9040367" lon="12.2425583"><ele>629.0</ele><time>2026-04-26T10:48:30.029Z</time></trkpt><trkpt lat="43.9039417" lon="12.2427733"><ele>629.0</ele><time>2026-04-26T10:48:31.024Z</time></trkpt><trkpt lat="43.9038417" lon="12.2429917"><ele>629.0</ele><time>2026-04-26T10:48:32.024Z</time></trkpt><trkpt lat="43.9037433" lon="12.24319"><ele>630.3333333333333</ele><time>2026-04-26T10:48:33.026Z</time></trkpt><trkpt lat="43.903645" lon="12.24336"><ele>631.6666666666666</ele><time>2026-04-26T10:48:34.024Z</time></trkpt><trkpt lat="43.903535" lon="12.2434967"><ele>633.0</ele><time>2026-04-26T10:48:35.023Z</time></trkpt><trkpt lat="43.9034033" lon="12.2436067"><ele>633.0</ele><time>2026-04-26T10:48:36.025Z</time></trkpt><trkpt lat="43.903255" lon="12.2437"><ele>633.0</ele><time>2026-04-26T10:48:37.029Z</time></trkpt><trkpt lat="43.9030983" lon="12.2437983"><ele>633.0</ele><time>2026-04-26T10:48:38.025Z</time></trkpt><trkpt lat="43.90293" lon="12.2439033"><ele>637.6666666666666</ele><time>2026-04-26T10:48:39.022Z</time></trkpt><trkpt lat="43.9027583" lon="12.24401"><ele>642.3333333333333</ele><time>2026-04-26T10:48:40.023Z</time></trkpt><trkpt lat="43.9025883" lon="12.2441167"><ele>647.0</ele><time>2026-04-26T10:48:41.024Z</time></trkpt><trkpt lat="43.9024233" lon="12.2442117"><ele>647.0</ele><time>2026-04-26T10:48:42.024Z</time></trkpt><trkpt lat="43.902265" lon="12.2442867"><ele>647.0</ele><time>2026-04-26T10:48:43.025Z</time></trkpt><trkpt lat="43.9021167" lon="12.2443483"><ele>647.0</ele><time>2026-04-26T10:48:44.023Z</time></trkpt><trkpt lat="43.9019833" lon="12.2444033"><ele>647.0</ele><time>2026-04-26T10:48:45.025Z</time></trkpt><trkpt lat="43.90187" lon="12.244465"><ele>647.0</ele><time>2026-04-26T10:48:46.026Z</time></trkpt><trkpt lat="43.9017883" lon="12.2445517"><ele>647.0</ele><time>2026-04-26T10:48:47.022Z</time></trkpt><trkpt lat="43.90173" lon="12.2446717"><ele>647.0</ele><time>2026-04-26T10:48:48.023Z</time></trkpt><trkpt lat="43.9016817" lon="12.24481"><ele>647.0</ele><time>2026-04-26T10:48:49.025Z</time></trkpt><trkpt lat="43.9016133" lon="12.24497"><ele>650.3333333333333</ele><time>2026-04-26T10:48:50.026Z</time></trkpt><trkpt lat="43.9015217" lon="12.24513"><ele>653.6666666666666</ele><time>2026-04-26T10:48:51.025Z</time></trkpt><trkpt lat="43.9014167" lon="12.2452933"><ele>657.0</ele><time>2026-04-26T10:48:52.025Z</time></trkpt><trkpt lat="43.9013133" lon="12.2454583"><ele>657.0</ele><time>2026-04-26T10:48:53.024Z</time></trkpt><trkpt lat="43.9012283" lon="12.2456067"><ele>657.0</ele><time>2026-04-26T10:48:54.024Z</time></trkpt><trkpt lat="43.90116" lon="12.24573"><ele>657.0</ele><time>2026-04-26T10:48:55.022Z</time></trkpt><trkpt lat="43.9011117" lon="12.245825"><ele>657.0</ele><time>2026-04-26T10:48:56.028Z</time></trkpt><trkpt lat="43.9010767" lon="12.2459"><ele>657.0</ele><time>2026-04-26T10:48:57.023Z</time></trkpt><trkpt lat="43.9010183" lon="12.2460233"><ele>657.6</ele><time>2026-04-26T10:48:59.023Z</time></trkpt><trkpt lat="43.9009667" lon="12.246105"><ele>658.2</ele><time>2026-04-26T10:49:01.023Z</time></trkpt><trkpt lat="43.900885" lon="12.246195"><ele>658.8</ele><time>2026-04-26T10:49:03.023Z</time></trkpt><trkpt lat="43.90082" lon="12.2462533"><ele>659.4</ele><time>2026-04-26T10:49:04.025Z</time></trkpt><trkpt lat="43.9007233" lon="12.246325"><ele>660.0</ele><time>2026-04-26T10:49:05.023Z</time></trkpt><trkpt lat="43.9005933" lon="12.2463933"><ele>658.25</ele><time>2026-04-26T10:49:06.022Z</time></trkpt><trkpt lat="43.9004483" lon="12.2464433"><ele>656.5</ele><time>2026-04-26T10:49:07.025Z</time></trkpt><trkpt lat="43.9003" lon="12.2464683"><ele>654.75</ele><time>2026-04-26T10:49:08.022Z</time></trkpt><trkpt lat="43.90016" lon="12.2464733"><ele>653.0</ele><time>2026-04-26T10:49:09.023Z</time></trkpt><trkpt lat="43.900025" lon="12.2464617"><ele>651.0</ele><time>2026-04-26T10:49:10.026Z</time></trkpt><trkpt lat="43.8998933" lon="12.2464417"><ele>649.0</ele><time>2026-04-26T10:49:11.022Z</time></trkpt><trkpt lat="43.8997667" lon="12.24642"><ele>647.0</ele><time>2026-04-26T10:49:12.03Z</time></trkpt><trkpt lat="43.8996417" lon="12.2464117"><ele>645.0</ele><time>2026-04-26T10:49:13.023Z</time></trkpt><trkpt lat="43.8995183" lon="12.2464267"><ele>646.75</ele><time>2026-04-26T10:49:14.021Z</time></trkpt><trkpt lat="43.899395" lon="12.246465"><ele>648.5</ele><time>2026-04-26T10:49:15.026Z</time></trkpt><trkpt lat="43.8992667" lon="12.2465117"><ele>650.25</ele><time>2026-04-26T10:49:16.025Z</time></trkpt><trkpt lat="43.899135" lon="12.2465683"><ele>652.0</ele><time>2026-04-26T10:49:17.023Z</time></trkpt><trkpt lat="43.899" lon="12.246625"><ele>653.25</ele><time>2026-04-26T10:49:18.024Z</time></trkpt><trkpt lat="43.8988567" lon="12.2466833"><ele>654.5</ele><time>2026-04-26T10:49:19.025Z</time></trkpt><trkpt lat="43.898715" lon="12.2467433"><ele>655.75</ele><time>2026-04-26T10:49:20.027Z</time></trkpt><trkpt lat="43.898585" lon="12.246795"><ele>657.0</ele><time>2026-04-26T10:49:21.025Z</time></trkpt><trkpt lat="43.898465" lon="12.246835"><ele>656.8333333333334</ele><time>2026-04-26T10:49:22.023Z</time></trkpt><trkpt lat="43.898355" lon="12.24687"><ele>656.6666666666666</ele><time>2026-04-26T10:49:23.022Z</time></trkpt><trkpt lat="43.8982567" lon="12.2469"><ele>656.5</ele><time>2026-04-26T10:49:24.025Z</time></trkpt><trkpt lat="43.8981733" lon="12.2469267"><ele>656.3333333333333</ele><time>2026-04-26T10:49:25.024Z</time></trkpt><trkpt lat="43.8981083" lon="12.24695"><ele>656.1666666666666</ele><time>2026-04-26T10:49:26.023Z</time></trkpt><trkpt lat="43.8980467" lon="12.2469983"><ele>656.0</ele><time>2026-04-26T10:49:28.022Z</time></trkpt><trkpt lat="43.8980617" lon="12.2470883"><ele>656.0</ele><time>2026-04-26T10:49:30.026Z</time></trkpt><trkpt lat="43.8981583" lon="12.2472217"><ele>656.0</ele><time>2026-04-26T10:49:32.025Z</time></trkpt><trkpt lat="43.8982517" lon="12.2472967"><ele>656.0</ele><time>2026-04-26T10:49:33.025Z</time></trkpt><trkpt lat="43.8983667" lon="12.247355"><ele>656.0</ele><time>2026-04-26T10:49:34.024Z</time></trkpt><trkpt lat="43.8984833" lon="12.247375"><ele>655.4</ele><time>2026-04-26T10:49:35.025Z</time></trkpt><trkpt lat="43.8985933" lon="12.247385"><ele>654.8</ele><time>2026-04-26T10:49:36.026Z</time></trkpt><trkpt lat="43.8986917" lon="12.247415"><ele>654.1999999999999</ele><time>2026-04-26T10:49:37.024Z</time></trkpt><trkpt lat="43.898775" lon="12.2474783"><ele>653.5999999999999</ele><time>2026-04-26T10:49:38.024Z</time></trkpt><trkpt lat="43.8988317" lon="12.24758"><ele>653.0</ele><time>2026-04-26T10:49:39.024Z</time></trkpt><trkpt lat="43.8988683" lon="12.2476917"><ele>653.0</ele><time>2026-04-26T10:49:40.026Z</time></trkpt><trkpt lat="43.89885" lon="12.2478283"><ele>653.0</ele><time>2026-04-26T10:49:41.026Z</time></trkpt><trkpt lat="43.898795" lon="12.2479517"><ele>653.0</ele><time>2026-04-26T10:49:42.025Z</time></trkpt><trkpt lat="43.8987117" lon="12.2480467"><ele>653.0</ele><time>2026-04-26T10:49:43.026Z</time></trkpt><trkpt lat="43.8986133" lon="12.2480883"><ele>653.0</ele><time>2026-04-26T10:49:44.025Z</time></trkpt><trkpt lat="43.8985" lon="12.2480817"><ele>653.8</ele><time>2026-04-26T10:49:45.026Z</time></trkpt><trkpt lat="43.8983917" lon="12.2480817"><ele>654.5999999999999</ele><time>2026-04-26T10:49:46.024Z</time></trkpt><trkpt lat="43.8982917" lon="12.2481183"><ele>655.4000000000001</ele><time>2026-04-26T10:49:47.022Z</time></trkpt><trkpt lat="43.8982117" lon="12.2482017"><ele>656.2</ele><time>2026-04-26T10:49:48.021Z</time></trkpt><trkpt lat="43.898155" lon="12.2483133"><ele>657.0</ele><time>2026-04-26T10:49:49.023Z</time></trkpt><trkpt lat="43.898135" lon="12.2484367"><ele>655.2</ele><time>2026-04-26T10:49:50.021Z</time></trkpt><trkpt lat="43.8981467" lon="12.2485583"><ele>653.4000000000001</ele><time>2026-04-26T10:49:51.024Z</time></trkpt><trkpt lat="43.8981967" lon="12.2486717"><ele>651.5999999999999</ele><time>2026-04-26T10:49:52.025Z</time></trkpt><trkpt lat="43.8982767" lon="12.2487567"><ele>649.8</ele><time>2026-04-26T10:49:53.023Z</time></trkpt><trkpt lat="43.8983717" lon="12.248805"><ele>648.0</ele><time>2026-04-26T10:49:54.027Z</time></trkpt><trkpt lat="43.89847" lon="12.2488"><ele>646.4</ele><time>2026-04-26T10:49:55.022Z</time></trkpt><trkpt lat="43.8985567" lon="12.2487317"><ele>644.8</ele><time>2026-04-26T10:49:56.024Z</time></trkpt><trkpt lat="43.89863" lon="12.2486333"><ele>643.2</ele><time>2026-04-26T10:49:57.027Z</time></trkpt><trkpt lat="43.898705" lon="12.248535"><ele>641.6</ele><time>2026-04-26T10:49:58.021Z</time></trkpt><trkpt lat="43.8987867" lon="12.2484783"><ele>640.0</ele><time>2026-04-26T10:49:59.021Z</time></trkpt><trkpt lat="43.8988767" lon="12.2484633"><ele>640.0</ele><time>2026-04-26T10:50:00.022Z</time></trkpt><trkpt lat="43.8989683" lon="12.2484917"><ele>640.0</ele><time>2026-04-26T10:50:01.022Z</time></trkpt><trkpt lat="43.8990483" lon="12.248565"><ele>640.0</ele><time>2026-04-26T10:50:02.021Z</time></trkpt><trkpt lat="43.8991067" lon="12.2486783"><ele>640.0</ele><time>2026-04-26T10:50:03.023Z</time></trkpt><trkpt lat="43.899125" lon="12.2488183"><ele>640.0</ele><time>2026-04-26T10:50:04.026Z</time></trkpt><trkpt lat="43.8991" lon="12.2489433"><ele>638.0</ele><time>2026-04-26T10:50:05.024Z</time></trkpt><trkpt lat="43.89903" lon="12.24905"><ele>636.0</ele><time>2026-04-26T10:50:06.021Z</time></trkpt><trkpt lat="43.898925" lon="12.2491183"><ele>634.0</ele><time>2026-04-26T10:50:07.021Z</time></trkpt><trkpt lat="43.8988017" lon="12.2491383"><ele>632.0</ele><time>2026-04-26T10:50:08.022Z</time></trkpt><trkpt lat="43.8986617" lon="12.24913"><ele>632.0</ele><time>2026-04-26T10:50:09.026Z</time></trkpt><trkpt lat="43.89853" lon="12.2491217"><ele>632.0</ele><time>2026-04-26T10:50:10.025Z</time></trkpt><trkpt lat="43.8984067" lon="12.249145"><ele>632.0</ele><time>2026-04-26T10:50:11.023Z</time></trkpt><trkpt lat="43.8983033" lon="12.249215"><ele>632.0</ele><time>2026-04-26T10:50:12.023Z</time></trkpt><trkpt lat="43.8982283" lon="12.24933"><ele>633.0</ele><time>2026-04-26T10:50:13.022Z</time></trkpt><trkpt lat="43.8981933" lon="12.2494733"><ele>634.0</ele><time>2026-04-26T10:50:14.024Z</time></trkpt><trkpt lat="43.8981967" lon="12.249625"><ele>635.0</ele><time>2026-04-26T10:50:15.025Z</time></trkpt><trkpt lat="43.89824" lon="12.2497583"><ele>636.0</ele><time>2026-04-26T10:50:16.023Z</time></trkpt><trkpt lat="43.8983267" lon="12.2498517"><ele>637.0</ele><time>2026-04-26T10:50:17.022Z</time></trkpt><trkpt lat="43.8984417" lon="12.249895"><ele>635.75</ele><time>2026-04-26T10:50:18.022Z</time></trkpt><trkpt lat="43.8985683" lon="12.2498967"><ele>634.5</ele><time>2026-04-26T10:50:19.024Z</time></trkpt><trkpt lat="43.8986967" lon="12.2498617"><ele>633.25</ele><time>2026-04-26T10:50:20.025Z</time></trkpt><trkpt lat="43.8988367" lon="12.2498033"><ele>632.0</ele><time>2026-04-26T10:50:21.023Z</time></trkpt><trkpt lat="43.8989983" lon="12.24973"><ele>632.0</ele><time>2026-04-26T10:50:22.024Z</time></trkpt><trkpt lat="43.8991733" lon="12.249655"><ele>632.0</ele><time>2026-04-26T10:50:23.025Z</time></trkpt><trkpt lat="43.8993583" lon="12.2495767"><ele>632.0</ele><time>2026-04-26T10:50:24.021Z</time></trkpt><trkpt lat="43.89954" lon="12.249495"><ele>629.3333333333333</ele><time>2026-04-26T10:50:25.024Z</time></trkpt><trkpt lat="43.8997067" lon="12.24943"><ele>626.6666666666666</ele><time>2026-04-26T10:50:26.026Z</time></trkpt><trkpt lat="43.89986" lon="12.2493883"><ele>624.0</ele><time>2026-04-26T10:50:27.022Z</time></trkpt><trkpt lat="43.9000017" lon="12.2493833"><ele>623.25</ele><time>2026-04-26T10:50:28.023Z</time></trkpt><trkpt lat="43.9001317" lon="12.24943"><ele>622.5</ele><time>2026-04-26T10:50:29.022Z</time></trkpt><trkpt lat="43.9002383" lon="12.2495283"><ele>621.75</ele><time>2026-04-26T10:50:30.026Z</time></trkpt><trkpt lat="43.90031" lon="12.2496633"><ele>621.0</ele><time>2026-04-26T10:50:31.022Z</time></trkpt><trkpt lat="43.9003417" lon="12.24982"><ele>618.0</ele><time>2026-04-26T10:50:32.022Z</time></trkpt><trkpt lat="43.9003367" lon="12.24999"><ele>615.0</ele><time>2026-04-26T10:50:33.023Z</time></trkpt><trkpt lat="43.9003083" lon="12.2501683"><ele>612.0</ele><time>2026-04-26T10:50:34.024Z</time></trkpt><trkpt lat="43.9002167" lon="12.2503183"><ele>609.0</ele><time>2026-04-26T10:50:35.023Z</time></trkpt><trkpt lat="43.9000867" lon="12.250445"><ele>609.6666666666666</ele><time>2026-04-26T10:50:36.026Z</time></trkpt><trkpt lat="43.8999517" lon="12.2506"><ele>610.3333333333333</ele><time>2026-04-26T10:50:37.023Z</time></trkpt><trkpt lat="43.8997767" lon="12.2507433"><ele>611.0</ele><time>2026-04-26T10:50:38.023Z</time></trkpt><trkpt lat="43.8995917" lon="12.2508917"><ele>609.3333333333333</ele><time>2026-04-26T10:50:39.028Z</time></trkpt><trkpt lat="43.8994267" lon="12.2510583"><ele>607.6666666666666</ele><time>2026-04-26T10:50:40.027Z</time></trkpt><trkpt lat="43.89926" lon="12.2511883"><ele>606.0</ele><time>2026-04-26T10:50:41.024Z</time></trkpt><trkpt lat="43.8991067" lon="12.2512917"><ele>606.0</ele><time>2026-04-26T10:50:42.028Z</time></trkpt><trkpt lat="43.8989833" lon="12.2513933"><ele>606.0</ele><time>2026-04-26T10:50:43.023Z</time></trkpt><trkpt lat="43.8988683" lon="12.2514733"><ele>606.0</ele><time>2026-04-26T10:50:44.021Z</time></trkpt><trkpt lat="43.8987983" lon="12.2515933"><ele>606.0</ele><time>2026-04-26T10:50:45.022Z</time></trkpt><trkpt lat="43.8987683" lon="12.2517267"><ele>603.25</ele><time>2026-04-26T10:50:46.023Z</time></trkpt><trkpt lat="43.898785" lon="12.2518683"><ele>600.5</ele><time>2026-04-26T10:50:47.023Z</time></trkpt><trkpt lat="43.8988367" lon="12.2519933"><ele>597.75</ele><time>2026-04-26T10:50:48.026Z</time></trkpt><trkpt lat="43.8989383" lon="12.25209"><ele>595.0</ele><time>2026-04-26T10:50:49.026Z</time></trkpt><trkpt lat="43.89909" lon="12.2521367"><ele>595.0</ele><time>2026-04-26T10:50:50.023Z</time></trkpt><trkpt lat="43.8992367" lon="12.2521917"><ele>595.0</ele><time>2026-04-26T10:50:51.025Z</time></trkpt><trkpt lat="43.89939" lon="12.252245"><ele>595.0</ele><time>2026-04-26T10:50:52.026Z</time></trkpt><trkpt lat="43.8995583" lon="12.2522867"><ele>590.0</ele><time>2026-04-26T10:50:53.023Z</time></trkpt><trkpt lat="43.89972" lon="12.2523583"><ele>585.0</ele><time>2026-04-26T10:50:54.023Z</time></trkpt><trkpt lat="43.899875" lon="12.25244"><ele>580.0</ele><time>2026-04-26T10:50:55.025Z</time></trkpt><trkpt lat="43.9000167" lon="12.252535"><ele>581.0</ele><time>2026-04-26T10:50:56.021Z</time></trkpt><trkpt lat="43.9001667" lon="12.2525817"><ele>582.0</ele><time>2026-04-26T10:50:57.031Z</time></trkpt><trkpt lat="43.9002967" lon="12.2527217"><ele>583.0</ele><time>2026-04-26T10:50:58.025Z</time></trkpt><trkpt lat="43.9004417" lon="12.2526217"><ele>583.0</ele><time>2026-04-26T10:50:59.022Z</time></trkpt><trkpt lat="43.9005617" lon="12.25261"><ele>583.0</ele><time>2026-04-26T10:51:00.024Z</time></trkpt><trkpt lat="43.9006717" lon="12.252625"><ele>583.0</ele><time>2026-04-26T10:51:01.022Z</time></trkpt><trkpt lat="43.900775" lon="12.252675"><ele>583.0</ele><time>2026-04-26T10:51:02.023Z</time></trkpt><trkpt lat="43.900855" lon="12.2527967"><ele>583.0</ele><time>2026-04-26T10:51:03.024Z</time></trkpt><trkpt lat="43.900915" lon="12.2529617"><ele>583.0</ele><time>2026-04-26T10:51:04.024Z</time></trkpt><trkpt lat="43.9009733" lon="12.2531317"><ele>583.0</ele><time>2026-04-26T10:51:05.023Z</time></trkpt><trkpt lat="43.9010033" lon="12.2533017"><ele>583.0</ele><time>2026-04-26T10:51:06.028Z</time></trkpt><trkpt lat="43.9009867" lon="12.2534617"><ele>582.0</ele><time>2026-04-26T10:51:07.023Z</time></trkpt><trkpt lat="43.9009233" lon="12.2535933"><ele>581.0</ele><time>2026-04-26T10:51:08.023Z</time></trkpt><trkpt lat="43.900825" lon="12.2536883"><ele>580.0</ele><time>2026-04-26T10:51:09.022Z</time></trkpt><trkpt lat="43.9006967" lon="12.2537233"><ele>579.0</ele><time>2026-04-26T10:51:10.024Z</time></trkpt><trkpt lat="43.9005517" lon="12.2537217"><ele>579.0</ele><time>2026-04-26T10:51:11.026Z</time></trkpt><trkpt lat="43.9004067" lon="12.253765"><ele>579.0</ele><time>2026-04-26T10:51:12.027Z</time></trkpt><trkpt lat="43.9002633" lon="12.2538567"><ele>579.0</ele><time>2026-04-26T10:51:13.022Z</time></trkpt><trkpt lat="43.900085" lon="12.253875"><ele>574.3333333333334</ele><time>2026-04-26T10:51:14.022Z</time></trkpt><trkpt lat="43.8999117" lon="12.2539683"><ele>569.6666666666667</ele><time>2026-04-26T10:51:15.023Z</time></trkpt><trkpt lat="43.8997583" lon="12.2541433"><ele>565.0</ele><time>2026-04-26T10:51:16.023Z</time></trkpt><trkpt lat="43.8995867" lon="12.2542783"><ele>565.0</ele><time>2026-04-26T10:51:17.023Z</time></trkpt><trkpt lat="43.8994217" lon="12.2544183"><ele>565.0</ele><time>2026-04-26T10:51:18.026Z</time></trkpt><trkpt lat="43.899265" lon="12.254555"><ele>565.0</ele><time>2026-04-26T10:51:19.024Z</time></trkpt><trkpt lat="43.89912" lon="12.2547083"><ele>560.3333333333334</ele><time>2026-04-26T10:51:20.024Z</time></trkpt><trkpt lat="43.8989683" lon="12.2548517"><ele>555.6666666666666</ele><time>2026-04-26T10:51:21.023Z</time></trkpt><trkpt lat="43.89881" lon="12.254945"><ele>551.0</ele><time>2026-04-26T10:51:22.024Z</time></trkpt><trkpt lat="43.8986583" lon="12.2550317"><ele>551.0</ele><time>2026-04-26T10:51:23.027Z</time></trkpt><trkpt lat="43.8985033" lon="12.2550983"><ele>551.0</ele><time>2026-04-26T10:51:24.024Z</time></trkpt><trkpt lat="43.8983417" lon="12.2551417"><ele>551.0</ele><time>2026-04-26T10:51:25.024Z</time></trkpt><trkpt lat="43.8981817" lon="12.2551583"><ele>550.75</ele><time>2026-04-26T10:51:26.031Z</time></trkpt><trkpt lat="43.8980367" lon="12.255155"><ele>550.5</ele><time>2026-04-26T10:51:27.026Z</time></trkpt><trkpt lat="43.8979117" lon="12.2551333"><ele>550.25</ele><time>2026-04-26T10:51:28.027Z</time></trkpt><trkpt lat="43.8978017" lon="12.2551067"><ele>550.0</ele><time>2026-04-26T10:51:29.024Z</time></trkpt><trkpt lat="43.8976983" lon="12.2550717"><ele>550.0</ele><time>2026-04-26T10:51:30.022Z</time></trkpt><trkpt lat="43.8975967" lon="12.255085"><ele>550.0</ele><time>2026-04-26T10:51:31.027Z</time></trkpt><trkpt lat="43.8975033" lon="12.2551283"><ele>550.0</ele><time>2026-04-26T10:51:32.021Z</time></trkpt><trkpt lat="43.8974333" lon="12.255215"><ele>550.0</ele><time>2026-04-26T10:51:33.023Z</time></trkpt><trkpt lat="43.8973883" lon="12.255335"><ele>550.0</ele><time>2026-04-26T10:51:34.025Z</time></trkpt><trkpt lat="43.8973717" lon="12.2554667"><ele>549.6</ele><time>2026-04-26T10:51:35.024Z</time></trkpt><trkpt lat="43.897395" lon="12.2556"><ele>549.2</ele><time>2026-04-26T10:51:36.025Z</time></trkpt><trkpt lat="43.8974483" lon="12.2557067"><ele>548.8</ele><time>2026-04-26T10:51:37.023Z</time></trkpt><trkpt lat="43.8975167" lon="12.2558033"><ele>548.4</ele><time>2026-04-26T10:51:38.026Z</time></trkpt><trkpt lat="43.897625" lon="12.25583"><ele>548.0</ele><time>2026-04-26T10:51:39.025Z</time></trkpt><trkpt lat="43.897735" lon="12.2557767"><ele>546.4</ele><time>2026-04-26T10:51:40.026Z</time></trkpt><trkpt lat="43.8978417" lon="12.2557183"><ele>544.8</ele><time>2026-04-26T10:51:41.025Z</time></trkpt><trkpt lat="43.8979367" lon="12.2557233"><ele>543.2</ele><time>2026-04-26T10:51:42.022Z</time></trkpt><trkpt lat="43.8980367" lon="12.255695"><ele>541.6</ele><time>2026-04-26T10:51:43.023Z</time></trkpt><trkpt lat="43.898155" lon="12.2557233"><ele>540.0</ele><time>2026-04-26T10:51:44.023Z</time></trkpt><trkpt lat="43.8982667" lon="12.2557883"><ele>540.0</ele><time>2026-04-26T10:51:45.026Z</time></trkpt><trkpt lat="43.8983383" lon="12.25591"><ele>540.0</ele><time>2026-04-26T10:51:46.024Z</time></trkpt><trkpt lat="43.8984017" lon="12.256065"><ele>540.0</ele><time>2026-04-26T10:51:47.024Z</time></trkpt><trkpt lat="43.8984567" lon="12.256255"><ele>540.0</ele><time>2026-04-26T10:51:48.028Z</time></trkpt><trkpt lat="43.8984933" lon="12.2564733"><ele>542.3333333333334</ele><time>2026-04-26T10:51:49.023Z</time></trkpt><trkpt lat="43.8985333" lon="12.2567"><ele>544.6666666666667</ele><time>2026-04-26T10:51:50.026Z</time></trkpt><trkpt lat="43.8985733" lon="12.256945"><ele>547.0</ele><time>2026-04-26T10:51:51.023Z</time></trkpt><trkpt lat="43.8986483" lon="12.2571867"><ele>546.0</ele><time>2026-04-26T10:51:52.023Z</time></trkpt><trkpt lat="43.8986867" lon="12.2574333"><ele>545.0</ele><time>2026-04-26T10:51:53.021Z</time></trkpt><trkpt lat="43.8987367" lon="12.2576533"><ele>544.0</ele><time>2026-04-26T10:51:54.025Z</time></trkpt><trkpt lat="43.8988017" lon="12.257855"><ele>544.0</ele><time>2026-04-26T10:51:55.027Z</time></trkpt><trkpt lat="43.8988167" lon="12.2580667"><ele>544.0</ele><time>2026-04-26T10:51:56.024Z</time></trkpt><trkpt lat="43.8987983" lon="12.25829"><ele>544.0</ele><time>2026-04-26T10:51:57.03Z</time></trkpt><trkpt lat="43.8987683" lon="12.2585267"><ele>543.3333333333334</ele><time>2026-04-26T10:51:58.023Z</time></trkpt><trkpt lat="43.8987367" lon="12.258765"><ele>542.6666666666666</ele><time>2026-04-26T10:51:59.023Z</time></trkpt><trkpt lat="43.8987033" lon="12.2590083"><ele>542.0</ele><time>2026-04-26T10:52:00.023Z</time></trkpt><trkpt lat="43.8986717" lon="12.2592467"><ele>542.0</ele><time>2026-04-26T10:52:01.022Z</time></trkpt><trkpt lat="43.8986367" lon="12.2594817"><ele>542.0</ele><time>2026-04-26T10:52:02.023Z</time></trkpt><trkpt lat="43.8986" lon="12.2597067"><ele>542.0</ele><time>2026-04-26T10:52:03.026Z</time></trkpt><trkpt lat="43.8985717" lon="12.2599367"><ele>541.0</ele><time>2026-04-26T10:52:04.022Z</time></trkpt><trkpt lat="43.8985517" lon="12.2601733"><ele>540.0</ele><time>2026-04-26T10:52:05.023Z</time></trkpt><trkpt lat="43.898485" lon="12.2603767"><ele>539.0</ele><time>2026-04-26T10:52:06.023Z</time></trkpt><trkpt lat="43.8984" lon="12.2605667"><ele>534.6666666666666</ele><time>2026-04-26T10:52:07.022Z</time></trkpt><trkpt lat="43.8982917" lon="12.2607417"><ele>530.3333333333334</ele><time>2026-04-26T10:52:08.028Z</time></trkpt><trkpt lat="43.898165" lon="12.2609183"><ele>526.0</ele><time>2026-04-26T10:52:09.026Z</time></trkpt><trkpt lat="43.8980283" lon="12.2611"><ele>526.0</ele><time>2026-04-26T10:52:10.024Z</time></trkpt><trkpt lat="43.8978933" lon="12.261285"><ele>526.0</ele><time>2026-04-26T10:52:11.022Z</time></trkpt><trkpt lat="43.89777" lon="12.2614717"><ele>526.0</ele><time>2026-04-26T10:52:12.024Z</time></trkpt><trkpt lat="43.89766" lon="12.2616633"><ele>521.3333333333334</ele><time>2026-04-26T10:52:13.028Z</time></trkpt><trkpt lat="43.897565" lon="12.2618567"><ele>516.6666666666666</ele><time>2026-04-26T10:52:14.023Z</time></trkpt><trkpt lat="43.8974833" lon="12.2620467"><ele>512.0</ele><time>2026-04-26T10:52:15.024Z</time></trkpt><trkpt lat="43.897415" lon="12.2622383"><ele>512.25</ele><time>2026-04-26T10:52:16.025Z</time></trkpt><trkpt lat="43.89736" lon="12.2624333"><ele>512.5</ele><time>2026-04-26T10:52:17.023Z</time></trkpt><trkpt lat="43.8973067" lon="12.2626233"><ele>512.75</ele><time>2026-04-26T10:52:18.027Z</time></trkpt><trkpt lat="43.89727" lon="12.2628167"><ele>513.0</ele><time>2026-04-26T10:52:19.024Z</time></trkpt><trkpt lat="43.8972483" lon="12.2630133"><ele>513.0</ele><time>2026-04-26T10:52:20.025Z</time></trkpt><trkpt lat="43.8972317" lon="12.2632083"><ele>513.0</ele><time>2026-04-26T10:52:21.026Z</time></trkpt><trkpt lat="43.897225" lon="12.2634017"><ele>513.0</ele><time>2026-04-26T10:52:22.024Z</time></trkpt><trkpt lat="43.89718" lon="12.2635717"><ele>513.0</ele><time>2026-04-26T10:52:23.024Z</time></trkpt><trkpt lat="43.8971217" lon="12.2637233"><ele>513.0</ele><time>2026-04-26T10:52:24.024Z</time></trkpt><trkpt lat="43.897045" lon="12.2638417"><ele>513.0</ele><time>2026-04-26T10:52:25.025Z</time></trkpt><trkpt lat="43.89696" lon="12.2639383"><ele>513.0</ele><time>2026-04-26T10:52:26.023Z</time></trkpt><trkpt lat="43.89688" lon="12.2640333"><ele>513.0</ele><time>2026-04-26T10:52:27.028Z</time></trkpt><trkpt lat="43.8968067" lon="12.2641383"><ele>513.0</ele><time>2026-04-26T10:52:28.023Z</time></trkpt><trkpt lat="43.8967567" lon="12.2642833"><ele>507.0</ele><time>2026-04-26T10:52:29.023Z</time></trkpt><trkpt lat="43.8967217" lon="12.2644817"><ele>501.0</ele><time>2026-04-26T10:52:30.022Z</time></trkpt><trkpt lat="43.8966883" lon="12.2647117"><ele>495.0</ele><time>2026-04-26T10:52:31.025Z</time></trkpt><trkpt lat="43.8966333" lon="12.2649517"><ele>495.0</ele><time>2026-04-26T10:52:32.022Z</time></trkpt><trkpt lat="43.89657" lon="12.265185"><ele>495.0</ele><time>2026-04-26T10:52:33.029Z</time></trkpt><trkpt lat="43.8965133" lon="12.2654133"><ele>495.0</ele><time>2026-04-26T10:52:34.024Z</time></trkpt><trkpt lat="43.8964817" lon="12.265645"><ele>495.66666666666663</ele><time>2026-04-26T10:52:35.022Z</time></trkpt><trkpt lat="43.8964717" lon="12.2658867"><ele>496.3333333333333</ele><time>2026-04-26T10:52:36.022Z</time></trkpt><trkpt lat="43.89649" lon="12.266145"><ele>497.0</ele><time>2026-04-26T10:52:37.024Z</time></trkpt><trkpt lat="43.8965217" lon="12.26642"><ele>495.3333333333333</ele><time>2026-04-26T10:52:38.027Z</time></trkpt><trkpt lat="43.89656" lon="12.26671"><ele>493.66666666666663</ele><time>2026-04-26T10:52:39.023Z</time></trkpt><trkpt lat="43.8966017" lon="12.2670067"><ele>492.0</ele><time>2026-04-26T10:52:40.025Z</time></trkpt><trkpt lat="43.8966483" lon="12.267295"><ele>489.0</ele><time>2026-04-26T10:52:41.026Z</time></trkpt><trkpt lat="43.8966867" lon="12.26759"><ele>486.0</ele><time>2026-04-26T10:52:42.023Z</time></trkpt><trkpt lat="43.8967283" lon="12.267875"><ele>483.0</ele><time>2026-04-26T10:52:43.023Z</time></trkpt><trkpt lat="43.8967883" lon="12.2681683"><ele>486.66666666666663</ele><time>2026-04-26T10:52:44.025Z</time></trkpt><trkpt lat="43.8968017" lon="12.2684483"><ele>490.3333333333333</ele><time>2026-04-26T10:52:45.024Z</time></trkpt><trkpt lat="43.8968433" lon="12.2687217"><ele>494.0</ele><time>2026-04-26T10:52:46.022Z</time></trkpt><trkpt lat="43.8968817" lon="12.2689833"><ele>494.0</ele><time>2026-04-26T10:52:47.023Z</time></trkpt><trkpt lat="43.8969117" lon="12.2692467"><ele>494.0</ele><time>2026-04-26T10:52:48.024Z</time></trkpt><trkpt lat="43.8969633" lon="12.2695217"><ele>494.0</ele><time>2026-04-26T10:52:49.023Z</time></trkpt><trkpt lat="43.8969767" lon="12.2697983"><ele>490.3333333333333</ele><time>2026-04-26T10:52:50.027Z</time></trkpt><trkpt lat="43.896955" lon="12.2700667"><ele>486.66666666666663</ele><time>2026-04-26T10:52:51.024Z</time></trkpt><trkpt lat="43.8969317" lon="12.270345"><ele>483.0</ele><time>2026-04-26T10:52:52.026Z</time></trkpt><trkpt lat="43.896895" lon="12.2706283"><ele>479.5</ele><time>2026-04-26T10:52:53.023Z</time></trkpt><trkpt lat="43.8967933" lon="12.2710083"><ele>476.0</ele><time>2026-04-26T10:52:54.676Z</time></trkpt><trkpt lat="43.8967783" lon="12.2714267"><ele>465.5</ele><time>2026-04-26T10:52:55.848Z</time></trkpt><trkpt lat="43.8967283" lon="12.2720267"><ele>455.0</ele><time>2026-04-26T10:52:58.025Z</time></trkpt><trkpt lat="43.8967117" lon="12.2722733"><ele>454.3333333333333</ele><time>2026-04-26T10:52:59.023Z</time></trkpt><trkpt lat="43.8967167" lon="12.2724983"><ele>453.66666666666663</ele><time>2026-04-26T10:53:00.026Z</time></trkpt><trkpt lat="43.8967583" lon="12.27271"><ele>453.0</ele><time>2026-04-26T10:53:01.022Z</time></trkpt><trkpt lat="43.8968267" lon="12.2729233"><ele>458.66666666666663</ele><time>2026-04-26T10:53:02.024Z</time></trkpt><trkpt lat="43.8969033" lon="12.2731433"><ele>464.3333333333333</ele><time>2026-04-26T10:53:03.029Z</time></trkpt><trkpt lat="43.8969767" lon="12.27336"><ele>470.0</ele><time>2026-04-26T10:53:04.022Z</time></trkpt><trkpt lat="43.8970217" lon="12.27359"><ele>470.0</ele><time>2026-04-26T10:53:05.025Z</time></trkpt><trkpt lat="43.8970483" lon="12.2738483"><ele>470.0</ele><time>2026-04-26T10:53:06.022Z</time></trkpt><trkpt lat="43.897055" lon="12.2741167"><ele>470.0</ele><time>2026-04-26T10:53:07.024Z</time></trkpt><trkpt lat="43.8970517" lon="12.2743783"><ele>468.66666666666663</ele><time>2026-04-26T10:53:08.025Z</time></trkpt><trkpt lat="43.8970383" lon="12.2746267"><ele>467.33333333333337</ele><time>2026-04-26T10:53:09.025Z</time></trkpt><trkpt lat="43.897005" lon="12.27486"><ele>466.0</ele><time>2026-04-26T10:53:10.027Z</time></trkpt><trkpt lat="43.8969533" lon="12.2750767"><ele>463.5</ele><time>2026-04-26T10:53:11.026Z</time></trkpt><trkpt lat="43.89689" lon="12.2752667"><ele>461.0</ele><time>2026-04-26T10:53:12.023Z</time></trkpt><trkpt lat="43.896835" lon="12.2754383"><ele>458.5</ele><time>2026-04-26T10:53:13.025Z</time></trkpt><trkpt lat="43.896805" lon="12.2756"><ele>456.0</ele><time>2026-04-26T10:53:14.023Z</time></trkpt><trkpt lat="43.8968067" lon="12.27576"><ele>452.0</ele><time>2026-04-26T10:53:15.024Z</time></trkpt><trkpt lat="43.89685" lon="12.2759133"><ele>448.0</ele><time>2026-04-26T10:53:16.026Z</time></trkpt><trkpt lat="43.8969333" lon="12.2760633"><ele>444.0</ele><time>2026-04-26T10:53:17.023Z</time></trkpt><trkpt lat="43.8970517" lon="12.276205"><ele>440.0</ele><time>2026-04-26T10:53:18.022Z</time></trkpt><trkpt lat="43.8971817" lon="12.2763533"><ele>435.66666666666663</ele><time>2026-04-26T10:53:19.024Z</time></trkpt><trkpt lat="43.89731" lon="12.2765283"><ele>431.33333333333337</ele><time>2026-04-26T10:53:20.024Z</time></trkpt><trkpt lat="43.8974317" lon="12.27674"><ele>427.0</ele><time>2026-04-26T10:53:21.026Z</time></trkpt><trkpt lat="43.8975417" lon="12.2769783"><ele>431.0</ele><time>2026-04-26T10:53:22.025Z</time></trkpt><trkpt lat="43.8976367" lon="12.277235"><ele>435.0</ele><time>2026-04-26T10:53:23.024Z</time></trkpt><trkpt lat="43.89772" lon="12.27749"><ele>439.0</ele><time>2026-04-26T10:53:24.025Z</time></trkpt><trkpt lat="43.897775" lon="12.2777433"><ele>439.0</ele><time>2026-04-26T10:53:25.023Z</time></trkpt><trkpt lat="43.8978383" lon="12.2779683"><ele>439.0</ele><time>2026-04-26T10:53:26.024Z</time></trkpt><trkpt lat="43.89787" lon="12.27818"><ele>439.0</ele><time>2026-04-26T10:53:27.025Z</time></trkpt><trkpt lat="43.8979" lon="12.27839"><ele>434.0</ele><time>2026-04-26T10:53:28.025Z</time></trkpt><trkpt lat="43.8979517" lon="12.27856"><ele>429.0</ele><time>2026-04-26T10:53:29.026Z</time></trkpt><trkpt lat="43.898035" lon="12.2786683"><ele>424.0</ele><time>2026-04-26T10:53:30.025Z</time></trkpt><trkpt lat="43.89814" lon="12.27873"><ele>419.0</ele><time>2026-04-26T10:53:31.03Z</time></trkpt><trkpt lat="43.8982517" lon="12.2787533"><ele>419.0</ele><time>2026-04-26T10:53:32.024Z</time></trkpt><trkpt lat="43.8983567" lon="12.2787833"><ele>419.0</ele><time>2026-04-26T10:53:33.025Z</time></trkpt><trkpt lat="43.8984533" lon="12.2788383"><ele>419.0</ele><time>2026-04-26T10:53:34.025Z</time></trkpt><trkpt lat="43.8985283" lon="12.2789317"><ele>419.0</ele><time>2026-04-26T10:53:35.029Z</time></trkpt><trkpt lat="43.898565" lon="12.2790467"><ele>419.0</ele><time>2026-04-26T10:53:36.025Z</time></trkpt><trkpt lat="43.898565" lon="12.2791733"><ele>415.6</ele><time>2026-04-26T10:53:37.026Z</time></trkpt><trkpt lat="43.8985217" lon="12.2792883"><ele>412.2</ele><time>2026-04-26T10:53:38.026Z</time></trkpt><trkpt lat="43.898445" lon="12.279385"><ele>408.8</ele><time>2026-04-26T10:53:39.026Z</time></trkpt><trkpt lat="43.898345" lon="12.2794517"><ele>405.40000000000003</ele><time>2026-04-26T10:53:40.027Z</time></trkpt><trkpt lat="43.898225" lon="12.2794683"><ele>402.0</ele><time>2026-04-26T10:53:41.024Z</time></trkpt><trkpt lat="43.8980917" lon="12.279445"><ele>400.5</ele><time>2026-04-26T10:53:42.023Z</time></trkpt><trkpt lat="43.89795" lon="12.279435"><ele>399.0</ele><time>2026-04-26T10:53:43.027Z</time></trkpt><trkpt lat="43.8977967" lon="12.2793817"><ele>397.5</ele><time>2026-04-26T10:53:44.024Z</time></trkpt><trkpt lat="43.8976983" lon="12.2792633"><ele>396.0</ele><time>2026-04-26T10:53:45.025Z</time></trkpt><trkpt lat="43.8976067" lon="12.2791133"><ele>396.33333333333337</ele><time>2026-04-26T10:53:46.025Z</time></trkpt><trkpt lat="43.8975183" lon="12.2789333"><ele>396.6666666666667</ele><time>2026-04-26T10:53:47.025Z</time></trkpt><trkpt lat="43.897395" lon="12.2788633"><ele>397.0</ele><time>2026-04-26T10:53:48.028Z</time></trkpt><trkpt lat="43.897295" lon="12.27867"><ele>397.0</ele><time>2026-04-26T10:53:49.024Z</time></trkpt><trkpt lat="43.8972067" lon="12.27849"><ele>397.0</ele><time>2026-04-26T10:53:50.025Z</time></trkpt><trkpt lat="43.8970967" lon="12.278365"><ele>397.0</ele><time>2026-04-26T10:53:51.025Z</time></trkpt><trkpt lat="43.8969683" lon="12.2782983"><ele>397.0</ele><time>2026-04-26T10:53:52.024Z</time></trkpt><trkpt lat="43.896825" lon="12.2783067"><ele>394.0</ele><time>2026-04-26T10:53:53.024Z</time></trkpt><trkpt lat="43.896685" lon="12.2783917"><ele>391.0</ele><time>2026-04-26T10:53:54.026Z</time></trkpt><trkpt lat="43.8965517" lon="12.278545"><ele>388.0</ele><time>2026-04-26T10:53:55.028Z</time></trkpt><trkpt lat="43.896415" lon="12.2786033"><ele>388.0</ele><time>2026-04-26T10:53:56.026Z</time></trkpt><trkpt lat="43.8962783" lon="12.27866"><ele>388.0</ele><time>2026-04-26T10:53:57.026Z</time></trkpt><trkpt lat="43.8961383" lon="12.2786917"><ele>388.0</ele><time>2026-04-26T10:53:58.023Z</time></trkpt><trkpt lat="43.8959833" lon="12.278705"><ele>388.0</ele><time>2026-04-26T10:53:59.021Z</time></trkpt><trkpt lat="43.8958333" lon="12.2786317"><ele>386.6666666666667</ele><time>2026-04-26T10:54:00.023Z</time></trkpt><trkpt lat="43.89568" lon="12.27854"><ele>385.33333333333337</ele><time>2026-04-26T10:54:01.024Z</time></trkpt><trkpt lat="43.8955267" lon="12.2784433"><ele>384.0</ele><time>2026-04-26T10:54:02.024Z</time></trkpt><trkpt lat="43.8953883" lon="12.2783467"><ele>384.0</ele><time>2026-04-26T10:54:03.023Z</time></trkpt><trkpt lat="43.8952567" lon="12.2782817"><ele>384.0</ele><time>2026-04-26T10:54:04.023Z</time></trkpt><trkpt lat="43.8951333" lon="12.2782517"><ele>384.0</ele><time>2026-04-26T10:54:05.024Z</time></trkpt><trkpt lat="43.8950333" lon="12.27828"><ele>384.0</ele><time>2026-04-26T10:54:06.026Z</time></trkpt><trkpt lat="43.8949333" lon="12.2783517"><ele>382.0</ele><time>2026-04-26T10:54:07.023Z</time></trkpt><trkpt lat="43.8948567" lon="12.2784583"><ele>380.0</ele><time>2026-04-26T10:54:08.025Z</time></trkpt><trkpt lat="43.894805" lon="12.2786233"><ele>378.0</ele><time>2026-04-26T10:54:09.03Z</time></trkpt><trkpt lat="43.8947883" lon="12.278835"><ele>376.0</ele><time>2026-04-26T10:54:10.022Z</time></trkpt><trkpt lat="43.894795" lon="12.2790733"><ele>374.3333333333333</ele><time>2026-04-26T10:54:11.024Z</time></trkpt><trkpt lat="43.8948067" lon="12.2793133"><ele>372.6666666666667</ele><time>2026-04-26T10:54:12.023Z</time></trkpt><trkpt lat="43.8948117" lon="12.2795483"><ele>371.0</ele><time>2026-04-26T10:54:13.023Z</time></trkpt><trkpt lat="43.8948067" lon="12.2797733"><ele>369.0</ele><time>2026-04-26T10:54:14.024Z</time></trkpt><trkpt lat="43.8947867" lon="12.2799983"><ele>367.0</ele><time>2026-04-26T10:54:15.025Z</time></trkpt><trkpt lat="43.8947567" lon="12.2802267"><ele>365.0</ele><time>2026-04-26T10:54:16.024Z</time></trkpt><trkpt lat="43.89472" lon="12.2804583"><ele>363.33333333333337</ele><time>2026-04-26T10:54:17.023Z</time></trkpt><trkpt lat="43.8946833" lon="12.2807017"><ele>361.6666666666667</ele><time>2026-04-26T10:54:18.029Z</time></trkpt><trkpt lat="43.8946433" lon="12.28094"><ele>360.0</ele><time>2026-04-26T10:54:19.024Z</time></trkpt><trkpt lat="43.8946017" lon="12.2811767"><ele>360.0</ele><time>2026-04-26T10:54:20.024Z</time></trkpt><trkpt lat="43.89456" lon="12.281425"><ele>360.0</ele><time>2026-04-26T10:54:21.024Z</time></trkpt><trkpt lat="43.8945167" lon="12.2816833"><ele>360.0</ele><time>2026-04-26T10:54:22.024Z</time></trkpt><trkpt lat="43.8944683" lon="12.2819633"><ele>359.6666666666667</ele><time>2026-04-26T10:54:23.023Z</time></trkpt><trkpt lat="43.8944233" lon="12.28224"><ele>359.33333333333337</ele><time>2026-04-26T10:54:24.025Z</time></trkpt><trkpt lat="43.8943717" lon="12.2825033"><ele>359.0</ele><time>2026-04-26T10:54:25.024Z</time></trkpt><trkpt lat="43.8943483" lon="12.2827617"><ele>358.6666666666667</ele><time>2026-04-26T10:54:26.025Z</time></trkpt><trkpt lat="43.8943067" lon="12.282985"><ele>358.3333333333333</ele><time>2026-04-26T10:54:27.024Z</time></trkpt><trkpt lat="43.8942433" lon="12.28319"><ele>358.0</ele><time>2026-04-26T10:54:28.024Z</time></trkpt><trkpt lat="43.8941717" lon="12.2834017"><ele>358.0</ele><time>2026-04-26T10:54:29.028Z</time></trkpt><trkpt lat="43.8940867" lon="12.2836017"><ele>358.0</ele><time>2026-04-26T10:54:30.027Z</time></trkpt><trkpt lat="43.8939917" lon="12.2838017"><ele>358.0</ele><time>2026-04-26T10:54:31.025Z</time></trkpt><trkpt lat="43.8938917" lon="12.2840017"><ele>355.3333333333333</ele><time>2026-04-26T10:54:32.023Z</time></trkpt><trkpt lat="43.8937867" lon="12.2842067"><ele>352.6666666666667</ele><time>2026-04-26T10:54:33.025Z</time></trkpt><trkpt lat="43.8936833" lon="12.28441"><ele>350.0</ele><time>2026-04-26T10:54:34.026Z</time></trkpt><trkpt lat="43.89358" lon="12.2846083"><ele>348.33333333333337</ele><time>2026-04-26T10:54:35.024Z</time></trkpt><trkpt lat="43.8934833" lon="12.2848033"><ele>346.6666666666667</ele><time>2026-04-26T10:54:36.025Z</time></trkpt><trkpt lat="43.8933917" lon="12.28499"><ele>345.0</ele><time>2026-04-26T10:54:37.025Z</time></trkpt><trkpt lat="43.8933017" lon="12.2851667"><ele>345.0</ele><time>2026-04-26T10:54:38.025Z</time></trkpt><trkpt lat="43.89321" lon="12.28533"><ele>345.0</ele><time>2026-04-26T10:54:39.027Z</time></trkpt><trkpt lat="43.8930967" lon="12.285455"><ele>345.0</ele><time>2026-04-26T10:54:40.023Z</time></trkpt><trkpt lat="43.89298" lon="12.285545"><ele>345.0</ele><time>2026-04-26T10:54:41.022Z</time></trkpt><trkpt lat="43.89286" lon="12.2855867"><ele>345.0</ele><time>2026-04-26T10:54:42.022Z</time></trkpt><trkpt lat="43.8927317" lon="12.28558"><ele>345.0</ele><time>2026-04-26T10:54:43.025Z</time></trkpt><trkpt lat="43.892595" lon="12.2855233"><ele>345.0</ele><time>2026-04-26T10:54:44.023Z</time></trkpt><trkpt lat="43.8924633" lon="12.285415"><ele>345.0</ele><time>2026-04-26T10:54:45.024Z</time></trkpt><trkpt lat="43.8923483" lon="12.2852883"><ele>343.25</ele><time>2026-04-26T10:54:46.028Z</time></trkpt><trkpt lat="43.8922433" lon="12.2851883"><ele>341.5</ele><time>2026-04-26T10:54:47.025Z</time></trkpt><trkpt lat="43.89214" lon="12.2851217"><ele>339.75</ele><time>2026-04-26T10:54:48.025Z</time></trkpt><trkpt lat="43.8920333" lon="12.2851017"><ele>338.0</ele><time>2026-04-26T10:54:49.022Z</time></trkpt><trkpt lat="43.891935" lon="12.2851333"><ele>338.0</ele><time>2026-04-26T10:54:50.024Z</time></trkpt><trkpt lat="43.8918583" lon="12.2852067"><ele>338.0</ele><time>2026-04-26T10:54:51.023Z</time></trkpt><trkpt lat="43.8918083" lon="12.2853217"><ele>338.0</ele><time>2026-04-26T10:54:52.023Z</time></trkpt><trkpt lat="43.8917917" lon="12.2854767"><ele>338.0</ele><time>2026-04-26T10:54:53.024Z</time></trkpt><trkpt lat="43.8918033" lon="12.2856717"><ele>338.0</ele><time>2026-04-26T10:54:54.023Z</time></trkpt><trkpt lat="43.8918433" lon="12.2858967"><ele>336.33333333333337</ele><time>2026-04-26T10:54:55.021Z</time></trkpt><trkpt lat="43.8918883" lon="12.2861283"><ele>334.6666666666667</ele><time>2026-04-26T10:54:56.023Z</time></trkpt><trkpt lat="43.891935" lon="12.286355"><ele>333.0</ele><time>2026-04-26T10:54:57.023Z</time></trkpt><trkpt lat="43.8919833" lon="12.286575"><ele>330.6666666666667</ele><time>2026-04-26T10:54:58.026Z</time></trkpt><trkpt lat="43.892045" lon="12.2867783"><ele>328.33333333333337</ele><time>2026-04-26T10:54:59.026Z</time></trkpt><trkpt lat="43.8921233" lon="12.2869667"><ele>326.0</ele><time>2026-04-26T10:55:00.025Z</time></trkpt><trkpt lat="43.8922233" lon="12.287135"><ele>323.0</ele><time>2026-04-26T10:55:01.026Z</time></trkpt><trkpt lat="43.8923283" lon="12.2872983"><ele>320.0</ele><time>2026-04-26T10:55:02.024Z</time></trkpt><trkpt lat="43.8924383" lon="12.2874417"><ele>317.0</ele><time>2026-04-26T10:55:03.024Z</time></trkpt><trkpt lat="43.8925483" lon="12.2875583"><ele>314.0</ele><time>2026-04-26T10:55:04.024Z</time></trkpt><trkpt lat="43.892665" lon="12.2876283"><ele>313.25</ele><time>2026-04-26T10:55:05.025Z</time></trkpt><trkpt lat="43.89278" lon="12.2876517"><ele>312.5</ele><time>2026-04-26T10:55:06.024Z</time></trkpt><trkpt lat="43.8928967" lon="12.2876267"><ele>311.75</ele><time>2026-04-26T10:55:07.023Z</time></trkpt><trkpt lat="43.8930167" lon="12.2875733"><ele>311.0</ele><time>2026-04-26T10:55:08.023Z</time></trkpt><trkpt lat="43.8931417" lon="12.2875217"><ele>311.0</ele><time>2026-04-26T10:55:09.024Z</time></trkpt><trkpt lat="43.893265" lon="12.2874933"><ele>311.0</ele><time>2026-04-26T10:55:10.023Z</time></trkpt><trkpt lat="43.8933783" lon="12.2875117"><ele>311.0</ele><time>2026-04-26T10:55:11.027Z</time></trkpt><trkpt lat="43.8934667" lon="12.2875783"><ele>311.0</ele><time>2026-04-26T10:55:12.023Z</time></trkpt><trkpt lat="43.8935267" lon="12.2876867"><ele>311.0</ele><time>2026-04-26T10:55:13.025Z</time></trkpt><trkpt lat="43.893575" lon="12.2878"><ele>310.8</ele><time>2026-04-26T10:55:14.024Z</time></trkpt><trkpt lat="43.893585" lon="12.2879317"><ele>310.6</ele><time>2026-04-26T10:55:15.027Z</time></trkpt><trkpt lat="43.8935967" lon="12.2880617"><ele>310.4</ele><time>2026-04-26T10:55:16.022Z</time></trkpt><trkpt lat="43.893635" lon="12.2881833"><ele>310.2</ele><time>2026-04-26T10:55:17.023Z</time></trkpt><trkpt lat="43.89368" lon="12.2882917"><ele>310.0</ele><time>2026-04-26T10:55:18.022Z</time></trkpt><trkpt lat="43.89374" lon="12.2883717"><ele>307.4</ele><time>2026-04-26T10:55:19.026Z</time></trkpt><trkpt lat="43.8938183" lon="12.2884167"><ele>304.8</ele><time>2026-04-26T10:55:20.023Z</time></trkpt><trkpt lat="43.8939083" lon="12.2884267"><ele>302.2</ele><time>2026-04-26T10:55:21.024Z</time></trkpt><trkpt lat="43.894" lon="12.2884033"><ele>299.6</ele><time>2026-04-26T10:55:22.025Z</time></trkpt><trkpt lat="43.8940883" lon="12.2883333"><ele>297.0</ele><time>2026-04-26T10:55:23.023Z</time></trkpt><trkpt lat="43.89415" lon="12.28822"><ele>296.2</ele><time>2026-04-26T10:55:24.022Z</time></trkpt><trkpt lat="43.89419" lon="12.288085"><ele>295.4</ele><time>2026-04-26T10:55:25.024Z</time></trkpt><trkpt lat="43.8942217" lon="12.287945"><ele>294.6</ele><time>2026-04-26T10:55:26.026Z</time></trkpt><trkpt lat="43.8942467" lon="12.2878067"><ele>293.8</ele><time>2026-04-26T10:55:27.025Z</time></trkpt><trkpt lat="43.894285" lon="12.2876783"><ele>293.0</ele><time>2026-04-26T10:55:28.027Z</time></trkpt><trkpt lat="43.894305" lon="12.2875367"><ele>293.0</ele><time>2026-04-26T10:55:29.024Z</time></trkpt><trkpt lat="43.8943533" lon="12.2874267"><ele>293.0</ele><time>2026-04-26T10:55:30.023Z</time></trkpt><trkpt lat="43.894425" lon="12.2873517"><ele>293.0</ele><time>2026-04-26T10:55:31.028Z</time></trkpt><trkpt lat="43.894495" lon="12.2873067"><ele>293.0</ele><time>2026-04-26T10:55:32.024Z</time></trkpt><trkpt lat="43.89458" lon="12.2873"><ele>293.0</ele><time>2026-04-26T10:55:33.023Z</time></trkpt><trkpt lat="43.89465" lon="12.287335"><ele>293.0</ele><time>2026-04-26T10:55:34.022Z</time></trkpt><trkpt lat="43.894715" lon="12.287405"><ele>293.0</ele><time>2026-04-26T10:55:35.023Z</time></trkpt><trkpt lat="43.8947717" lon="12.2875083"><ele>293.0</ele><time>2026-04-26T10:55:36.022Z</time></trkpt><trkpt lat="43.8947983" lon="12.2876267"><ele>293.0</ele><time>2026-04-26T10:55:37.022Z</time></trkpt><trkpt lat="43.8947967" lon="12.2877367"><ele>293.0</ele><time>2026-04-26T10:55:38.023Z</time></trkpt><trkpt lat="43.8948033" lon="12.2878417"><ele>293.0</ele><time>2026-04-26T10:55:39.023Z</time></trkpt><trkpt lat="43.8947983" lon="12.287935"><ele>293.0</ele><time>2026-04-26T10:55:40.021Z</time></trkpt><trkpt lat="43.8948" lon="12.2880233"><ele>292.0</ele><time>2026-04-26T10:55:41.022Z</time></trkpt><trkpt lat="43.8948167" lon="12.2881733"><ele>291.0</ele><time>2026-04-26T10:55:43.027Z</time></trkpt><trkpt lat="43.8948467" lon="12.2883333"><ele>290.0</ele><time>2026-04-26T10:55:45.023Z</time></trkpt><trkpt lat="43.8948583" lon="12.28848"><ele>289.0</ele><time>2026-04-26T10:55:47.026Z</time></trkpt><trkpt lat="43.8948733" lon="12.2885683"><ele>288.0</ele><time>2026-04-26T10:55:49.024Z</time></trkpt><trkpt lat="43.8949233" lon="12.28866"><ele>288.0</ele><time>2026-04-26T10:55:52.023Z</time></trkpt><trkpt lat="43.8949917" lon="12.28867"><ele>288.0</ele><time>2026-04-26T10:55:54.025Z</time></trkpt><trkpt lat="43.8950533" lon="12.2885533"><ele>288.0</ele><time>2026-04-26T10:55:56.027Z</time></trkpt><trkpt lat="43.89508" lon="12.2884417"><ele>288.0</ele><time>2026-04-26T10:55:57.025Z</time></trkpt><trkpt lat="43.8951283" lon="12.2882967"><ele>288.0</ele><time>2026-04-26T10:55:58.023Z</time></trkpt><trkpt lat="43.89519" lon="12.28813"><ele>286.5</ele><time>2026-04-26T10:55:59.025Z</time></trkpt><trkpt lat="43.895275" lon="12.2879667"><ele>285.0</ele><time>2026-04-26T10:56:00.028Z</time></trkpt><trkpt lat="43.8953783" lon="12.287815"><ele>283.5</ele><time>2026-04-26T10:56:01.024Z</time></trkpt><trkpt lat="43.895485" lon="12.2876633"><ele>282.0</ele><time>2026-04-26T10:56:02.023Z</time></trkpt><trkpt lat="43.8956117" lon="12.2875617"><ele>282.0</ele><time>2026-04-26T10:56:03.023Z</time></trkpt><trkpt lat="43.8957367" lon="12.287485"><ele>282.0</ele><time>2026-04-26T10:56:04.022Z</time></trkpt><trkpt lat="43.8958617" lon="12.2874517"><ele>282.0</ele><time>2026-04-26T10:56:05.022Z</time></trkpt><trkpt lat="43.89597" lon="12.2875183"><ele>282.0</ele><time>2026-04-26T10:56:06.021Z</time></trkpt><trkpt lat="43.8960767" lon="12.2876467"><ele>281.6666666666667</ele><time>2026-04-26T10:56:07.022Z</time></trkpt><trkpt lat="43.8962017" lon="12.28775"><ele>281.33333333333337</ele><time>2026-04-26T10:56:08.021Z</time></trkpt><trkpt lat="43.8963333" lon="12.287865"><ele>281.0</ele><time>2026-04-26T10:56:09.024Z</time></trkpt><trkpt lat="43.8964617" lon="12.2879883"><ele>280.25</ele><time>2026-04-26T10:56:10.024Z</time></trkpt><trkpt lat="43.8965867" lon="12.2880983"><ele>279.5</ele><time>2026-04-26T10:56:11.025Z</time></trkpt><trkpt lat="43.8967017" lon="12.288235"><ele>278.75</ele><time>2026-04-26T10:56:12.028Z</time></trkpt><trkpt lat="43.8968117" lon="12.288335"><ele>278.0</ele><time>2026-04-26T10:56:13.025Z</time></trkpt><trkpt lat="43.89693" lon="12.2884133"><ele>278.0</ele><time>2026-04-26T10:56:14.024Z</time></trkpt><trkpt lat="43.8970217" lon="12.28853"><ele>278.0</ele><time>2026-04-26T10:56:15.026Z</time></trkpt><trkpt lat="43.8971083" lon="12.2886317"><ele>278.0</ele><time>2026-04-26T10:56:16.023Z</time></trkpt><trkpt lat="43.8971917" lon="12.2887117"><ele>278.0</ele><time>2026-04-26T10:56:17.029Z</time></trkpt><trkpt lat="43.897265" lon="12.2887833"><ele>278.0</ele><time>2026-04-26T10:56:18.024Z</time></trkpt><trkpt lat="43.897315" lon="12.2888567"><ele>278.0</ele><time>2026-04-26T10:56:19.024Z</time></trkpt><trkpt lat="43.8973567" lon="12.2889233"><ele>278.0</ele><time>2026-04-26T10:56:20.025Z</time></trkpt><trkpt lat="43.89742" lon="12.28902"><ele>278.0</ele><time>2026-04-26T10:56:22.023Z</time></trkpt><trkpt lat="43.8974717" lon="12.289115"><ele>278.0</ele><time>2026-04-26T10:56:25.021Z</time></trkpt><trkpt lat="43.8975367" lon="12.2891833"><ele>278.0</ele><time>2026-04-26T10:56:28.026Z</time></trkpt><trkpt lat="43.8974883" lon="12.2890233"><ele>278.0</ele><time>2026-04-26T11:00:26.024Z</time></trkpt><trkpt lat="43.8974233" lon="12.2889567"><ele>278.0</ele><time>2026-04-26T11:00:28.022Z</time></trkpt><trkpt lat="43.89737" lon="12.288855"><ele>278.0</ele><time>2026-04-26T11:00:30.023Z</time></trkpt><trkpt lat="43.8972817" lon="12.288735"><ele>278.0</ele><time>2026-04-26T11:00:32.025Z</time></trkpt><trkpt lat="43.8972183" lon="12.28868"><ele>278.0</ele><time>2026-04-26T11:00:33.025Z</time></trkpt><trkpt lat="43.8971533" lon="12.288625"><ele>278.0</ele><time>2026-04-26T11:00:34.023Z</time></trkpt><trkpt lat="43.8970817" lon="12.28859"><ele>278.0</ele><time>2026-04-26T11:00:35.024Z</time></trkpt><trkpt lat="43.8970233" lon="12.2884917"><ele>278.0</ele><time>2026-04-26T11:00:36.022Z</time></trkpt><trkpt lat="43.8969467" lon="12.288455"><ele>278.0</ele><time>2026-04-26T11:00:37.024Z</time></trkpt><trkpt lat="43.8968683" lon="12.288385"><ele>278.0</ele><time>2026-04-26T11:00:38.024Z</time></trkpt><trkpt lat="43.8967767" lon="12.2883033"><ele>278.0</ele><time>2026-04-26T11:00:39.024Z</time></trkpt><trkpt lat="43.896675" lon="12.288225"><ele>277.25</ele><time>2026-04-26T11:00:40.023Z</time></trkpt><trkpt lat="43.8965683" lon="12.2881233"><ele>276.5</ele><time>2026-04-26T11:00:41.023Z</time></trkpt><trkpt lat="43.896455" lon="12.2880217"><ele>275.75</ele><time>2026-04-26T11:00:42.023Z</time></trkpt><trkpt lat="43.89633" lon="12.2879333"><ele>275.0</ele><time>2026-04-26T11:00:43.025Z</time></trkpt><trkpt lat="43.89621" lon="12.287805"><ele>276.5</ele><time>2026-04-26T11:00:44.024Z</time></trkpt><trkpt lat="43.89608" lon="12.2876817"><ele>278.0</ele><time>2026-04-26T11:00:45.025Z</time></trkpt><trkpt lat="43.8959467" lon="12.2875917"><ele>279.5</ele><time>2026-04-26T11:00:46.025Z</time></trkpt><trkpt lat="43.8958367" lon="12.287545"><ele>281.0</ele><time>2026-04-26T11:00:47.025Z</time></trkpt><trkpt lat="43.8957333" lon="12.28751"><ele>281.25</ele><time>2026-04-26T11:00:48.023Z</time></trkpt><trkpt lat="43.8956217" lon="12.2875267"><ele>281.5</ele><time>2026-04-26T11:00:49.024Z</time></trkpt><trkpt lat="43.8955217" lon="12.2876083"><ele>281.75</ele><time>2026-04-26T11:00:50.022Z</time></trkpt><trkpt lat="43.8954167" lon="12.2877067"><ele>282.0</ele><time>2026-04-26T11:00:51.024Z</time></trkpt><trkpt lat="43.8952983" lon="12.287815"><ele>282.0</ele><time>2026-04-26T11:00:52.024Z</time></trkpt><trkpt lat="43.8952033" lon="12.287965"><ele>282.0</ele><time>2026-04-26T11:00:53.025Z</time></trkpt><trkpt lat="43.8951317" lon="12.28813"><ele>282.0</ele><time>2026-04-26T11:00:54.025Z</time></trkpt><trkpt lat="43.8950783" lon="12.288295"><ele>282.0</ele><time>2026-04-26T11:00:55.024Z</time></trkpt><trkpt lat="43.8950317" lon="12.2884283"><ele>283.2</ele><time>2026-04-26T11:00:56.026Z</time></trkpt><trkpt lat="43.895" lon="12.2885283"><ele>284.4</ele><time>2026-04-26T11:00:57.027Z</time></trkpt><trkpt lat="43.894965" lon="12.2886117"><ele>285.6</ele><time>2026-04-26T11:00:58.027Z</time></trkpt><trkpt lat="43.8948667" lon="12.2886067"><ele>286.8</ele><time>2026-04-26T11:01:00.024Z</time></trkpt><trkpt lat="43.8948267" lon="12.2884267"><ele>288.0</ele><time>2026-04-26T11:01:02.022Z</time></trkpt><trkpt lat="43.8947867" lon="12.288215"><ele>289.25</ele><time>2026-04-26T11:01:03.022Z</time></trkpt><trkpt lat="43.8947733" lon="12.288015"><ele>290.5</ele><time>2026-04-26T11:01:04.026Z</time></trkpt><trkpt lat="43.8947833" lon="12.287825"><ele>291.75</ele><time>2026-04-26T11:01:05.023Z</time></trkpt><trkpt lat="43.8947667" lon="12.2876467"><ele>293.0</ele><time>2026-04-26T11:01:06.026Z</time></trkpt><trkpt lat="43.8947333" lon="12.2875033"><ele>293.0</ele><time>2026-04-26T11:01:07.023Z</time></trkpt><trkpt lat="43.8946717" lon="12.287405"><ele>293.0</ele><time>2026-04-26T11:01:08.026Z</time></trkpt><trkpt lat="43.89459" lon="12.2873467"><ele>293.0</ele><time>2026-04-26T11:01:09.023Z</time></trkpt><trkpt lat="43.8944967" lon="12.2873367"><ele>293.0</ele><time>2026-04-26T11:01:10.025Z</time></trkpt><trkpt lat="43.894405" lon="12.2873683"><ele>293.0</ele><time>2026-04-26T11:01:11.023Z</time></trkpt><trkpt lat="43.894315" lon="12.2874417"><ele>294.0</ele><time>2026-04-26T11:01:12.024Z</time></trkpt><trkpt lat="43.894235" lon="12.287565"><ele>295.0</ele><time>2026-04-26T11:01:13.024Z</time></trkpt><trkpt lat="43.89417" lon="12.2877217"><ele>296.0</ele><time>2026-04-26T11:01:14.023Z</time></trkpt><trkpt lat="43.8941367" lon="12.287915"><ele>297.0</ele><time>2026-04-26T11:01:15.023Z</time></trkpt><trkpt lat="43.894095" lon="12.2880983"><ele>297.0</ele><time>2026-04-26T11:01:16.024Z</time></trkpt><trkpt lat="43.8940367" lon="12.2882467"><ele>297.0</ele><time>2026-04-26T11:01:17.026Z</time></trkpt><trkpt lat="43.8939517" lon="12.2883367"><ele>297.0</ele><time>2026-04-26T11:01:18.024Z</time></trkpt><trkpt lat="43.8938617" lon="12.2883683"><ele>297.0</ele><time>2026-04-26T11:01:19.023Z</time></trkpt><trkpt lat="43.8937733" lon="12.288355"><ele>297.0</ele><time>2026-04-26T11:01:20.026Z</time></trkpt><trkpt lat="43.8937017" lon="12.2882867"><ele>297.0</ele><time>2026-04-26T11:01:21.023Z</time></trkpt><trkpt lat="43.893645" lon="12.2881817"><ele>297.0</ele><time>2026-04-26T11:01:22.024Z</time></trkpt><trkpt lat="43.8936117" lon="12.28803"><ele>297.0</ele><time>2026-04-26T11:01:23.023Z</time></trkpt><trkpt lat="43.8935817" lon="12.2878667"><ele>297.0</ele><time>2026-04-26T11:01:24.022Z</time></trkpt><trkpt lat="43.8935383" lon="12.2877117"><ele>300.25</ele><time>2026-04-26T11:01:25.023Z</time></trkpt><trkpt lat="43.89346" lon="12.2875917"><ele>303.5</ele><time>2026-04-26T11:01:26.024Z</time></trkpt><trkpt lat="43.8933667" lon="12.2875067"><ele>306.75</ele><time>2026-04-26T11:01:27.024Z</time></trkpt><trkpt lat="43.8932517" lon="12.2874667"><ele>310.0</ele><time>2026-04-26T11:01:28.023Z</time></trkpt><trkpt lat="43.8931283" lon="12.28748"><ele>310.25</ele><time>2026-04-26T11:01:29.026Z</time></trkpt><trkpt lat="43.893" lon="12.287545"><ele>310.5</ele><time>2026-04-26T11:01:30.025Z</time></trkpt><trkpt lat="43.8928667" lon="12.2876117"><ele>310.75</ele><time>2026-04-26T11:01:31.028Z</time></trkpt><trkpt lat="43.8927417" lon="12.2876383"><ele>311.0</ele><time>2026-04-26T11:01:32.023Z</time></trkpt><trkpt lat="43.8926233" lon="12.287595"><ele>311.75</ele><time>2026-04-26T11:01:33.026Z</time></trkpt><trkpt lat="43.8925133" lon="12.2875067"><ele>312.5</ele><time>2026-04-26T11:01:34.026Z</time></trkpt><trkpt lat="43.8924067" lon="12.28738"><ele>313.25</ele><time>2026-04-26T11:01:35.024Z</time></trkpt><trkpt lat="43.8922983" lon="12.287245"><ele>314.0</ele><time>2026-04-26T11:01:36.024Z</time></trkpt><trkpt lat="43.8921933" lon="12.2870833"><ele>318.0</ele><time>2026-04-26T11:01:37.021Z</time></trkpt><trkpt lat="43.8920967" lon="12.286895"><ele>322.0</ele><time>2026-04-26T11:01:38.025Z</time></trkpt><trkpt lat="43.8920133" lon="12.2866783"><ele>326.0</ele><time>2026-04-26T11:01:39.024Z</time></trkpt><trkpt lat="43.8919517" lon="12.2864283"><ele>328.33333333333337</ele><time>2026-04-26T11:01:40.023Z</time></trkpt><trkpt lat="43.891895" lon="12.28616"><ele>330.6666666666667</ele><time>2026-04-26T11:01:41.023Z</time></trkpt><trkpt lat="43.891845" lon="12.2858983"><ele>333.0</ele><time>2026-04-26T11:01:42.026Z</time></trkpt><trkpt lat="43.89181" lon="12.2856583"><ele>334.25</ele><time>2026-04-26T11:01:43.027Z</time></trkpt><trkpt lat="43.8917983" lon="12.2854567"><ele>335.5</ele><time>2026-04-26T11:01:44.024Z</time></trkpt><trkpt lat="43.8918167" lon="12.2852983"><ele>336.75</ele><time>2026-04-26T11:01:45.025Z</time></trkpt><trkpt lat="43.89187" lon="12.2851833"><ele>338.0</ele><time>2026-04-26T11:01:46.023Z</time></trkpt><trkpt lat="43.891945" lon="12.2850933"><ele>338.0</ele><time>2026-04-26T11:01:47.024Z</time></trkpt><trkpt lat="43.892035" lon="12.2850633"><ele>338.0</ele><time>2026-04-26T11:01:48.024Z</time></trkpt><trkpt lat="43.892145" lon="12.2851283"><ele>338.0</ele><time>2026-04-26T11:01:49.024Z</time></trkpt><trkpt lat="43.89226" lon="12.2852317"><ele>338.0</ele><time>2026-04-26T11:01:50.023Z</time></trkpt><trkpt lat="43.89238" lon="12.2853517"><ele>338.0</ele><time>2026-04-26T11:01:51.023Z</time></trkpt><trkpt lat="43.8925017" lon="12.28547"><ele>338.0</ele><time>2026-04-26T11:01:52.021Z</time></trkpt><trkpt lat="43.89263" lon="12.2855517"><ele>338.0</ele><time>2026-04-26T11:01:53.021Z</time></trkpt><trkpt lat="43.892765" lon="12.28559"><ele>338.0</ele><time>2026-04-26T11:01:54.021Z</time></trkpt><trkpt lat="43.8928917" lon="12.28559"><ele>339.75</ele><time>2026-04-26T11:01:55.027Z</time></trkpt><trkpt lat="43.893015" lon="12.285535"><ele>341.5</ele><time>2026-04-26T11:01:56.023Z</time></trkpt><trkpt lat="43.8931283" lon="12.28543"><ele>343.25</ele><time>2026-04-26T11:01:57.024Z</time></trkpt><trkpt lat="43.8932317" lon="12.285285"><ele>345.0</ele><time>2026-04-26T11:01:58.024Z</time></trkpt><trkpt lat="43.8933283" lon="12.2851117"><ele>344.3333333333333</ele><time>2026-04-26T11:01:59.026Z</time></trkpt><trkpt lat="43.8934283" lon="12.28492"><ele>343.66666666666663</ele><time>2026-04-26T11:02:00.027Z</time></trkpt><trkpt lat="43.893535" lon="12.2847117"><ele>343.0</ele><time>2026-04-26T11:02:01.025Z</time></trkpt><trkpt lat="43.893645" lon="12.28449"><ele>345.3333333333333</ele><time>2026-04-26T11:02:02.025Z</time></trkpt><trkpt lat="43.8937617" lon="12.2842667"><ele>347.6666666666667</ele><time>2026-04-26T11:02:03.025Z</time></trkpt><trkpt lat="43.8938767" lon="12.2840483"><ele>350.0</ele><time>2026-04-26T11:02:04.025Z</time></trkpt><trkpt lat="43.893985" lon="12.28384"><ele>352.6666666666667</ele><time>2026-04-26T11:02:05.025Z</time></trkpt><trkpt lat="43.8940817" lon="12.2836283"><ele>355.3333333333333</ele><time>2026-04-26T11:02:06.024Z</time></trkpt><trkpt lat="43.89417" lon="12.283415"><ele>358.0</ele><time>2026-04-26T11:02:07.027Z</time></trkpt><trkpt lat="43.8942417" lon="12.2831883"><ele>356.3333333333333</ele><time>2026-04-26T11:02:08.025Z</time></trkpt><trkpt lat="43.8942917" lon="12.2829383"><ele>354.6666666666667</ele><time>2026-04-26T11:02:09.026Z</time></trkpt><trkpt lat="43.8943333" lon="12.2826667"><ele>353.0</ele><time>2026-04-26T11:02:10.025Z</time></trkpt><trkpt lat="43.8943733" lon="12.2823767"><ele>356.0</ele><time>2026-04-26T11:02:11.024Z</time></trkpt><trkpt lat="43.8944233" lon="12.28207"><ele>359.0</ele><time>2026-04-26T11:02:12.025Z</time></trkpt><trkpt lat="43.8944817" lon="12.2817517"><ele>359.5</ele><time>2026-04-26T11:02:13.026Z</time></trkpt><trkpt lat="43.8945417" lon="12.2814217"><ele>360.0</ele><time>2026-04-26T11:02:14.028Z</time></trkpt><trkpt lat="43.8946" lon="12.2810933"><ele>360.0</ele><time>2026-04-26T11:02:15.026Z</time></trkpt><trkpt lat="43.8946533" lon="12.2807833"><ele>360.0</ele><time>2026-04-26T11:02:16.024Z</time></trkpt><trkpt lat="43.8947017" lon="12.2804983"><ele>360.0</ele><time>2026-04-26T11:02:17.028Z</time></trkpt><trkpt lat="43.89475" lon="12.280235"><ele>361.6666666666667</ele><time>2026-04-26T11:02:18.025Z</time></trkpt><trkpt lat="43.89479" lon="12.2799817"><ele>363.33333333333337</ele><time>2026-04-26T11:02:19.027Z</time></trkpt><trkpt lat="43.8948117" lon="12.27974"><ele>365.0</ele><time>2026-04-26T11:02:20.023Z</time></trkpt><trkpt lat="43.8948133" lon="12.2795017"><ele>367.0</ele><time>2026-04-26T11:02:21.026Z</time></trkpt><trkpt lat="43.8948033" lon="12.279265"><ele>369.0</ele><time>2026-04-26T11:02:22.024Z</time></trkpt><trkpt lat="43.8947933" lon="12.2790367"><ele>371.0</ele><time>2026-04-26T11:02:23.023Z</time></trkpt><trkpt lat="43.8947883" lon="12.2788283"><ele>372.25</ele><time>2026-04-26T11:02:24.027Z</time></trkpt><trkpt lat="43.8948033" lon="12.2786467"><ele>373.5</ele><time>2026-04-26T11:02:25.025Z</time></trkpt><trkpt lat="43.8948417" lon="12.2784883"><ele>374.75</ele><time>2026-04-26T11:02:26.025Z</time></trkpt><trkpt lat="43.8949083" lon="12.2783633"><ele>376.0</ele><time>2026-04-26T11:02:27.025Z</time></trkpt><trkpt lat="43.895" lon="12.2782817"><ele>378.0</ele><time>2026-04-26T11:02:28.026Z</time></trkpt><trkpt lat="43.8951067" lon="12.2782433"><ele>380.0</ele><time>2026-04-26T11:02:29.027Z</time></trkpt><trkpt lat="43.8952233" lon="12.2782567"><ele>382.0</ele><time>2026-04-26T11:02:30.023Z</time></trkpt><trkpt lat="43.8953583" lon="12.2783117"><ele>384.0</ele><time>2026-04-26T11:02:31.03Z</time></trkpt><trkpt lat="43.8955067" lon="12.2783933"><ele>384.0</ele><time>2026-04-26T11:02:32.023Z</time></trkpt><trkpt lat="43.8956633" lon="12.2784983"><ele>384.0</ele><time>2026-04-26T11:02:33.025Z</time></trkpt><trkpt lat="43.8958217" lon="12.2785967"><ele>384.0</ele><time>2026-04-26T11:02:34.023Z</time></trkpt><trkpt lat="43.8959767" lon="12.2786767"><ele>385.33333333333337</ele><time>2026-04-26T11:02:35.023Z</time></trkpt><trkpt lat="43.8961267" lon="12.278715"><ele>386.6666666666667</ele><time>2026-04-26T11:02:36.024Z</time></trkpt><trkpt lat="43.8962717" lon="12.2787083"><ele>388.0</ele><time>2026-04-26T11:02:37.024Z</time></trkpt><trkpt lat="43.8964183" lon="12.2786517"><ele>388.0</ele><time>2026-04-26T11:02:38.029Z</time></trkpt><trkpt lat="43.8965633" lon="12.2785517"><ele>388.0</ele><time>2026-04-26T11:02:39.025Z</time></trkpt><trkpt lat="43.8966967" lon="12.27844"><ele>388.0</ele><time>2026-04-26T11:02:40.024Z</time></trkpt><trkpt lat="43.8968283" lon="12.2783567"><ele>390.25</ele><time>2026-04-26T11:02:41.024Z</time></trkpt><trkpt lat="43.8969567" lon="12.2783167"><ele>392.5</ele><time>2026-04-26T11:02:42.023Z</time></trkpt><trkpt lat="43.8970833" lon="12.2783333"><ele>394.75</ele><time>2026-04-26T11:02:43.021Z</time></trkpt><trkpt lat="43.8972033" lon="12.2784017"><ele>397.0</ele><time>2026-04-26T11:02:44.025Z</time></trkpt><trkpt lat="43.8973183" lon="12.27852"><ele>397.0</ele><time>2026-04-26T11:02:45.023Z</time></trkpt><trkpt lat="43.8974233" lon="12.27868"><ele>397.0</ele><time>2026-04-26T11:02:46.023Z</time></trkpt><trkpt lat="43.89752" lon="12.2788733"><ele>397.0</ele><time>2026-04-26T11:02:47.024Z</time></trkpt><trkpt lat="43.8976133" lon="12.2790633"><ele>396.6666666666667</ele><time>2026-04-26T11:02:48.024Z</time></trkpt><trkpt lat="43.89772" lon="12.27921"><ele>396.33333333333337</ele><time>2026-04-26T11:02:49.024Z</time></trkpt><trkpt lat="43.8978517" lon="12.2793233"><ele>396.0</ele><time>2026-04-26T11:02:50.022Z</time></trkpt><trkpt lat="43.8980067" lon="12.2794033"><ele>396.0</ele><time>2026-04-26T11:02:51.023Z</time></trkpt><trkpt lat="43.89816" lon="12.2794567"><ele>396.0</ele><time>2026-04-26T11:02:52.022Z</time></trkpt><trkpt lat="43.8983" lon="12.279475"><ele>396.0</ele><time>2026-04-26T11:02:53.024Z</time></trkpt><trkpt lat="43.89842" lon="12.2794517"><ele>396.0</ele><time>2026-04-26T11:02:54.025Z</time></trkpt><trkpt lat="43.89851" lon="12.2793867"><ele>397.20000000000005</ele><time>2026-04-26T11:02:55.024Z</time></trkpt><trkpt lat="43.898575" lon="12.2792917"><ele>398.40000000000003</ele><time>2026-04-26T11:02:56.023Z</time></trkpt><trkpt lat="43.8986" lon="12.2791767"><ele>399.6</ele><time>2026-04-26T11:02:57.027Z</time></trkpt><trkpt lat="43.898595" lon="12.2790467"><ele>400.8</ele><time>2026-04-26T11:02:58.023Z</time></trkpt><trkpt lat="43.8985567" lon="12.2789233"><ele>402.0</ele><time>2026-04-26T11:02:59.023Z</time></trkpt><trkpt lat="43.8984817" lon="12.2788267"><ele>406.25</ele><time>2026-04-26T11:03:00.022Z</time></trkpt><trkpt lat="43.8983767" lon="12.2787633"><ele>410.5</ele><time>2026-04-26T11:03:01.024Z</time></trkpt><trkpt lat="43.8982533" lon="12.27873"><ele>414.75</ele><time>2026-04-26T11:03:02.024Z</time></trkpt><trkpt lat="43.89814" lon="12.2786917"><ele>419.0</ele><time>2026-04-26T11:03:03.025Z</time></trkpt><trkpt lat="43.8980417" lon="12.2786267"><ele>419.0</ele><time>2026-04-26T11:03:04.024Z</time></trkpt><trkpt lat="43.8979717" lon="12.2785167"><ele>419.0</ele><time>2026-04-26T11:03:05.024Z</time></trkpt><trkpt lat="43.89792" lon="12.2783617"><ele>419.0</ele><time>2026-04-26T11:03:06.023Z</time></trkpt><trkpt lat="43.8978817" lon="12.2781683"><ele>419.0</ele><time>2026-04-26T11:03:07.026Z</time></trkpt><trkpt lat="43.8978367" lon="12.2779533"><ele>425.66666666666663</ele><time>2026-04-26T11:03:08.023Z</time></trkpt><trkpt lat="43.8977817" lon="12.2777217"><ele>432.33333333333337</ele><time>2026-04-26T11:03:09.023Z</time></trkpt><trkpt lat="43.8977183" lon="12.2774817"><ele>439.0</ele><time>2026-04-26T11:03:10.024Z</time></trkpt><trkpt lat="43.89764" lon="12.2772433"><ele>435.0</ele><time>2026-04-26T11:03:11.023Z</time></trkpt><trkpt lat="43.89755" lon="12.277015"><ele>431.0</ele><time>2026-04-26T11:03:12.023Z</time></trkpt><trkpt lat="43.8974467" lon="12.2767967"><ele>427.0</ele><time>2026-04-26T11:03:13.022Z</time></trkpt><trkpt lat="43.8973217" lon="12.27658"><ele>431.33333333333337</ele><time>2026-04-26T11:03:14.022Z</time></trkpt><trkpt lat="43.897185" lon="12.2763833"><ele>435.66666666666663</ele><time>2026-04-26T11:03:15.025Z</time></trkpt><trkpt lat="43.89706" lon="12.2762167"><ele>440.0</ele><time>2026-04-26T11:03:16.024Z</time></trkpt><trkpt lat="43.896945" lon="12.27607"><ele>440.0</ele><time>2026-04-26T11:03:17.023Z</time></trkpt><trkpt lat="43.89686" lon="12.2759217"><ele>440.0</ele><time>2026-04-26T11:03:18.024Z</time></trkpt><trkpt lat="43.8968167" lon="12.2757783"><ele>440.0</ele><time>2026-04-26T11:03:19.031Z</time></trkpt><trkpt lat="43.8968083" lon="12.27562"><ele>440.0</ele><time>2026-04-26T11:03:20.024Z</time></trkpt><trkpt lat="43.8968333" lon="12.2754483"><ele>444.0</ele><time>2026-04-26T11:03:21.026Z</time></trkpt><trkpt lat="43.896875" lon="12.275265"><ele>448.0</ele><time>2026-04-26T11:03:22.024Z</time></trkpt><trkpt lat="43.89693" lon="12.275075"><ele>452.0</ele><time>2026-04-26T11:03:23.023Z</time></trkpt><trkpt lat="43.8969783" lon="12.2748667"><ele>456.0</ele><time>2026-04-26T11:03:24.023Z</time></trkpt><trkpt lat="43.8970017" lon="12.2746433"><ele>459.33333333333337</ele><time>2026-04-26T11:03:25.024Z</time></trkpt><trkpt lat="43.89701" lon="12.2744083"><ele>462.6666666666667</ele><time>2026-04-26T11:03:26.03Z</time></trkpt><trkpt lat="43.8970133" lon="12.2741617"><ele>466.0</ele><time>2026-04-26T11:03:27.025Z</time></trkpt><trkpt lat="43.8970117" lon="12.2739083"><ele>467.33333333333337</ele><time>2026-04-26T11:03:28.025Z</time></trkpt><trkpt lat="43.89699" lon="12.2736533"><ele>468.66666666666663</ele><time>2026-04-26T11:03:29.028Z</time></trkpt><trkpt lat="43.8969483" lon="12.2733967"><ele>470.0</ele><time>2026-04-26T11:03:30.025Z</time></trkpt><trkpt lat="43.8968817" lon="12.2731433"><ele>471.0</ele><time>2026-04-26T11:03:31.025Z</time></trkpt><trkpt lat="43.8968033" lon="12.2729067"><ele>472.0</ele><time>2026-04-26T11:03:32.025Z</time></trkpt><trkpt lat="43.8967367" lon="12.2726783"><ele>473.0</ele><time>2026-04-26T11:03:33.025Z</time></trkpt><trkpt lat="43.8966933" lon="12.2724433"><ele>467.0</ele><time>2026-04-26T11:03:34.024Z</time></trkpt><trkpt lat="43.896675" lon="12.2721867"><ele>461.0</ele><time>2026-04-26T11:03:35.022Z</time></trkpt><trkpt lat="43.896685" lon="12.2719183"><ele>455.0</ele><time>2026-04-26T11:03:36.024Z</time></trkpt><trkpt lat="43.89671" lon="12.271625"><ele>455.0</ele><time>2026-04-26T11:03:37.025Z</time></trkpt><trkpt lat="43.8967433" lon="12.2713167"><ele>455.0</ele><time>2026-04-26T11:03:38.027Z</time></trkpt><trkpt lat="43.8967817" lon="12.2709967"><ele>465.5</ele><time>2026-04-26T11:03:39.024Z</time></trkpt><trkpt lat="43.8968133" lon="12.2706733"><ele>476.0</ele><time>2026-04-26T11:03:40.023Z</time></trkpt><trkpt lat="43.8968433" lon="12.2703683"><ele>478.3333333333333</ele><time>2026-04-26T11:03:41.024Z</time></trkpt><trkpt lat="43.896865" lon="12.2700867"><ele>480.66666666666663</ele><time>2026-04-26T11:03:42.024Z</time></trkpt><trkpt lat="43.89689" lon="12.2698017"><ele>483.0</ele><time>2026-04-26T11:03:43.023Z</time></trkpt><trkpt lat="43.896905" lon="12.2695017"><ele>486.66666666666663</ele><time>2026-04-26T11:03:44.027Z</time></trkpt><trkpt lat="43.8968867" lon="12.2692033"><ele>490.3333333333333</ele><time>2026-04-26T11:03:45.024Z</time></trkpt><trkpt lat="43.8968567" lon="12.2689067"><ele>494.0</ele><time>2026-04-26T11:03:46.023Z</time></trkpt><trkpt lat="43.89682" lon="12.268625"><ele>496.66666666666663</ele><time>2026-04-26T11:03:47.023Z</time></trkpt><trkpt lat="43.896775" lon="12.2683383"><ele>499.33333333333337</ele><time>2026-04-26T11:03:48.024Z</time></trkpt><trkpt lat="43.8967267" lon="12.2680533"><ele>502.0</ele><time>2026-04-26T11:03:49.027Z</time></trkpt><trkpt lat="43.896685" lon="12.2677717"><ele>498.6666666666667</ele><time>2026-04-26T11:03:50.022Z</time></trkpt><trkpt lat="43.8966467" lon="12.2675117"><ele>495.33333333333337</ele><time>2026-04-26T11:03:51.024Z</time></trkpt><trkpt lat="43.8966167" lon="12.26726"><ele>492.0</ele><time>2026-04-26T11:03:52.023Z</time></trkpt><trkpt lat="43.8965867" lon="12.2670283"><ele>492.0</ele><time>2026-04-26T11:03:53.025Z</time></trkpt><trkpt lat="43.896555" lon="12.2668133"><ele>492.0</ele><time>2026-04-26T11:03:54.024Z</time></trkpt><trkpt lat="43.896525" lon="12.266605"><ele>492.0</ele><time>2026-04-26T11:03:55.025Z</time></trkpt><trkpt lat="43.8964967" lon="12.2663883"><ele>492.75</ele><time>2026-04-26T11:03:56.024Z</time></trkpt><trkpt lat="43.8964833" lon="12.2661833"><ele>493.5</ele><time>2026-04-26T11:03:57.023Z</time></trkpt><trkpt lat="43.8964783" lon="12.26598"><ele>494.25</ele><time>2026-04-26T11:03:58.028Z</time></trkpt><trkpt lat="43.8964883" lon="12.26578"><ele>495.0</ele><time>2026-04-26T11:03:59.024Z</time></trkpt><trkpt lat="43.8965183" lon="12.2655867"><ele>495.0</ele><time>2026-04-26T11:04:00.024Z</time></trkpt><trkpt lat="43.8965583" lon="12.2653967"><ele>495.0</ele><time>2026-04-26T11:04:01.024Z</time></trkpt><trkpt lat="43.8966033" lon="12.26521"><ele>495.0</ele><time>2026-04-26T11:04:02.025Z</time></trkpt><trkpt lat="43.896645" lon="12.2650117"><ele>495.0</ele><time>2026-04-26T11:04:03.026Z</time></trkpt><trkpt lat="43.896675" lon="12.2648233"><ele>494.0</ele><time>2026-04-26T11:04:04.025Z</time></trkpt><trkpt lat="43.8967017" lon="12.2646317"><ele>493.0</ele><time>2026-04-26T11:04:05.024Z</time></trkpt><trkpt lat="43.89673" lon="12.2644717"><ele>492.0</ele><time>2026-04-26T11:04:06.026Z</time></trkpt><trkpt lat="43.8967583" lon="12.264315"><ele>491.0</ele><time>2026-04-26T11:04:07.021Z</time></trkpt><trkpt lat="43.8968" lon="12.2641767"><ele>495.4</ele><time>2026-04-26T11:04:08.023Z</time></trkpt><trkpt lat="43.8968567" lon="12.2640767"><ele>499.8</ele><time>2026-04-26T11:04:09.024Z</time></trkpt><trkpt lat="43.896925" lon="12.2639817"><ele>504.19999999999993</ele><time>2026-04-26T11:04:10.021Z</time></trkpt><trkpt lat="43.896995" lon="12.2638867"><ele>508.59999999999997</ele><time>2026-04-26T11:04:11.021Z</time></trkpt><trkpt lat="43.8970617" lon="12.26376"><ele>513.0</ele><time>2026-04-26T11:04:12.022Z</time></trkpt><trkpt lat="43.897125" lon="12.26361"><ele>513.0</ele><time>2026-04-26T11:04:13.025Z</time></trkpt><trkpt lat="43.897175" lon="12.263445"><ele>513.0</ele><time>2026-04-26T11:04:14.022Z</time></trkpt><trkpt lat="43.8972117" lon="12.26326"><ele>513.0</ele><time>2026-04-26T11:04:15.023Z</time></trkpt><trkpt lat="43.8972383" lon="12.2630567"><ele>513.0</ele><time>2026-04-26T11:04:16.023Z</time></trkpt><trkpt lat="43.8972667" lon="12.2628467"><ele>513.0</ele><time>2026-04-26T11:04:17.022Z</time></trkpt><trkpt lat="43.8973033" lon="12.2626333"><ele>513.0</ele><time>2026-04-26T11:04:18.026Z</time></trkpt><trkpt lat="43.897355" lon="12.2624233"><ele>513.0</ele><time>2026-04-26T11:04:19.024Z</time></trkpt><trkpt lat="43.897415" lon="12.26222"><ele>512.6666666666666</ele><time>2026-04-26T11:04:20.023Z</time></trkpt><trkpt lat="43.8974833" lon="12.2620267"><ele>512.3333333333333</ele><time>2026-04-26T11:04:21.023Z</time></trkpt><trkpt lat="43.89756" lon="12.261835"><ele>512.0</ele><time>2026-04-26T11:04:22.024Z</time></trkpt><trkpt lat="43.8976417" lon="12.261645"><ele>516.6666666666666</ele><time>2026-04-26T11:04:23.024Z</time></trkpt><trkpt lat="43.8977383" lon="12.2614633"><ele>521.3333333333334</ele><time>2026-04-26T11:04:24.025Z</time></trkpt><trkpt lat="43.8978483" lon="12.2612833"><ele>526.0</ele><time>2026-04-26T11:04:25.025Z</time></trkpt><trkpt lat="43.8979717" lon="12.2611067"><ele>526.0</ele><time>2026-04-26T11:04:26.026Z</time></trkpt><trkpt lat="43.8981033" lon="12.260935"><ele>526.0</ele><time>2026-04-26T11:04:27.024Z</time></trkpt><trkpt lat="43.8982267" lon="12.2607783"><ele>526.0</ele><time>2026-04-26T11:04:28.024Z</time></trkpt><trkpt lat="43.8983317" lon="12.2606217"><ele>530.3333333333334</ele><time>2026-04-26T11:04:29.025Z</time></trkpt><trkpt lat="43.8984183" lon="12.26045"><ele>534.6666666666666</ele><time>2026-04-26T11:04:30.027Z</time></trkpt><trkpt lat="43.8984783" lon="12.2602583"><ele>539.0</ele><time>2026-04-26T11:04:31.024Z</time></trkpt><trkpt lat="43.8985167" lon="12.2600483"><ele>539.0</ele><time>2026-04-26T11:04:32.024Z</time></trkpt><trkpt lat="43.8985467" lon="12.2598283"><ele>539.0</ele><time>2026-04-26T11:04:33.024Z</time></trkpt><trkpt lat="43.8985767" lon="12.2596133"><ele>539.0</ele><time>2026-04-26T11:04:34.023Z</time></trkpt><trkpt lat="43.898605" lon="12.259395"><ele>540.0</ele><time>2026-04-26T11:04:35.023Z</time></trkpt><trkpt lat="43.8986333" lon="12.25917"><ele>541.0</ele><time>2026-04-26T11:04:36.026Z</time></trkpt><trkpt lat="43.8986617" lon="12.2589517"><ele>542.0</ele><time>2026-04-26T11:04:37.023Z</time></trkpt><trkpt lat="43.8986867" lon="12.2587533"><ele>542.0</ele><time>2026-04-26T11:04:38.023Z</time></trkpt><trkpt lat="43.8987117" lon="12.2585767"><ele>542.0</ele><time>2026-04-26T11:04:39.025Z</time></trkpt><trkpt lat="43.898735" lon="12.2584183"><ele>542.0</ele><time>2026-04-26T11:04:40.024Z</time></trkpt><trkpt lat="43.898755" lon="12.2582617"><ele>542.0</ele><time>2026-04-26T11:04:41.024Z</time></trkpt><trkpt lat="43.898765" lon="12.2580983"><ele>542.5</ele><time>2026-04-26T11:04:42.022Z</time></trkpt><trkpt lat="43.898765" lon="12.2579333"><ele>543.0</ele><time>2026-04-26T11:04:43.024Z</time></trkpt><trkpt lat="43.8987433" lon="12.2577733"><ele>543.5</ele><time>2026-04-26T11:04:44.024Z</time></trkpt><trkpt lat="43.89871" lon="12.2576117"><ele>544.0</ele><time>2026-04-26T11:04:45.026Z</time></trkpt><trkpt lat="43.8986733" lon="12.2574333"><ele>545.0</ele><time>2026-04-26T11:04:46.023Z</time></trkpt><trkpt lat="43.89863" lon="12.2572333"><ele>546.0</ele><time>2026-04-26T11:04:47.024Z</time></trkpt><trkpt lat="43.8985833" lon="12.2570067"><ele>547.0</ele><time>2026-04-26T11:04:48.023Z</time></trkpt><trkpt lat="43.898535" lon="12.25678"><ele>547.0</ele><time>2026-04-26T11:04:49.022Z</time></trkpt><trkpt lat="43.8984933" lon="12.256565"><ele>547.0</ele><time>2026-04-26T11:04:50.024Z</time></trkpt><trkpt lat="43.8984533" lon="12.2563667"><ele>547.0</ele><time>2026-04-26T11:04:51.023Z</time></trkpt><trkpt lat="43.89841" lon="12.256185"><ele>547.0</ele><time>2026-04-26T11:04:52.021Z</time></trkpt><trkpt lat="43.898365" lon="12.2560233"><ele>547.75</ele><time>2026-04-26T11:04:53.024Z</time></trkpt><trkpt lat="43.8983117" lon="12.2558767"><ele>548.5</ele><time>2026-04-26T11:04:54.024Z</time></trkpt><trkpt lat="43.8982383" lon="12.255745"><ele>549.25</ele><time>2026-04-26T11:04:55.024Z</time></trkpt><trkpt lat="43.8981483" lon="12.2556533"><ele>550.0</ele><time>2026-04-26T11:04:56.024Z</time></trkpt><trkpt lat="43.898045" lon="12.2556167"><ele>548.4</ele><time>2026-04-26T11:04:57.023Z</time></trkpt><trkpt lat="43.897935" lon="12.2556317"><ele>546.8</ele><time>2026-04-26T11:04:58.026Z</time></trkpt><trkpt lat="43.8978317" lon="12.25568"><ele>545.2</ele><time>2026-04-26T11:04:59.024Z</time></trkpt><trkpt lat="43.89773" lon="12.2557283"><ele>543.6</ele><time>2026-04-26T11:05:00.023Z</time></trkpt><trkpt lat="43.8976283" lon="12.2557533"><ele>542.0</ele><time>2026-04-26T11:05:01.024Z</time></trkpt><trkpt lat="43.8975317" lon="12.2557367"><ele>542.0</ele><time>2026-04-26T11:05:02.023Z</time></trkpt><trkpt lat="43.89745" lon="12.2556767"><ele>542.0</ele><time>2026-04-26T11:05:03.023Z</time></trkpt><trkpt lat="43.8973933" lon="12.2555767"><ele>542.0</ele><time>2026-04-26T11:05:04.023Z</time></trkpt><trkpt lat="43.897375" lon="12.2554533"><ele>542.0</ele><time>2026-04-26T11:05:05.023Z</time></trkpt><trkpt lat="43.8973917" lon="12.255325"><ele>542.0</ele><time>2026-04-26T11:05:06.022Z</time></trkpt><trkpt lat="43.8974283" lon="12.2552033"><ele>543.5</ele><time>2026-04-26T11:05:07.024Z</time></trkpt><trkpt lat="43.897505" lon="12.2551167"><ele>545.0</ele><time>2026-04-26T11:05:08.025Z</time></trkpt><trkpt lat="43.897595" lon="12.2550567"><ele>546.5</ele><time>2026-04-26T11:05:09.025Z</time></trkpt><trkpt lat="43.8977217" lon="12.2550417"><ele>548.0</ele><time>2026-04-26T11:05:10.024Z</time></trkpt><trkpt lat="43.8978783" lon="12.2550617"><ele>548.6666666666666</ele><time>2026-04-26T11:05:11.026Z</time></trkpt><trkpt lat="43.8980483" lon="12.25508"><ele>549.3333333333334</ele><time>2026-04-26T11:05:12.022Z</time></trkpt><trkpt lat="43.8982233" lon="12.2550867"><ele>550.0</ele><time>2026-04-26T11:05:13.022Z</time></trkpt><trkpt lat="43.8983983" lon="12.2550617"><ele>550.3333333333334</ele><time>2026-04-26T11:05:14.024Z</time></trkpt><trkpt lat="43.8985733" lon="12.2550017"><ele>550.6666666666666</ele><time>2026-04-26T11:05:15.025Z</time></trkpt><trkpt lat="43.8987517" lon="12.2549017"><ele>551.0</ele><time>2026-04-26T11:05:16.023Z</time></trkpt><trkpt lat="43.8990817" lon="12.2547517"><ele>565.0</ele><time>2026-04-26T11:05:16.973Z</time></trkpt><trkpt lat="43.899485" lon="12.2543483"><ele>565.0</ele><time>2026-04-26T11:05:20.026Z</time></trkpt><trkpt lat="43.899675" lon="12.2541633"><ele>565.0</ele><time>2026-04-26T11:05:21.023Z</time></trkpt><trkpt lat="43.899835" lon="12.2540067"><ele>565.0</ele><time>2026-04-26T11:05:22.025Z</time></trkpt><trkpt lat="43.8999883" lon="12.2538817"><ele>569.6666666666667</ele><time>2026-04-26T11:05:23.023Z</time></trkpt><trkpt lat="43.9001317" lon="12.25379"><ele>574.3333333333334</ele><time>2026-04-26T11:05:24.025Z</time></trkpt><trkpt lat="43.900285" lon="12.2537383"><ele>579.0</ele><time>2026-04-26T11:05:25.024Z</time></trkpt><trkpt lat="43.90044" lon="12.25373"><ele>579.0</ele><time>2026-04-26T11:05:26.025Z</time></trkpt><trkpt lat="43.9005817" lon="12.25374"><ele>579.0</ele><time>2026-04-26T11:05:27.024Z</time></trkpt><trkpt lat="43.90071" lon="12.2537333"><ele>579.0</ele><time>2026-04-26T11:05:28.024Z</time></trkpt><trkpt lat="43.9008233" lon="12.25368"><ele>579.0</ele><time>2026-04-26T11:05:29.023Z</time></trkpt><trkpt lat="43.9009083" lon="12.25358"><ele>580.0</ele><time>2026-04-26T11:05:30.026Z</time></trkpt><trkpt lat="43.9009567" lon="12.2534467"><ele>581.0</ele><time>2026-04-26T11:05:31.024Z</time></trkpt><trkpt lat="43.90097" lon="12.25329"><ele>582.0</ele><time>2026-04-26T11:05:32.024Z</time></trkpt><trkpt lat="43.9009517" lon="12.2531183"><ele>583.0</ele><time>2026-04-26T11:05:33.024Z</time></trkpt><trkpt lat="43.900905" lon="12.2529433"><ele>583.0</ele><time>2026-04-26T11:05:34.024Z</time></trkpt><trkpt lat="43.9008383" lon="12.2527867"><ele>583.0</ele><time>2026-04-26T11:05:35.023Z</time></trkpt><trkpt lat="43.9007567" lon="12.2526733"><ele>583.0</ele><time>2026-04-26T11:05:36.024Z</time></trkpt><trkpt lat="43.9006533" lon="12.2526067"><ele>583.0</ele><time>2026-04-26T11:05:37.024Z</time></trkpt><trkpt lat="43.9005283" lon="12.2525867"><ele>583.0</ele><time>2026-04-26T11:05:38.025Z</time></trkpt><trkpt lat="43.9003867" lon="12.2525917"><ele>583.0</ele><time>2026-04-26T11:05:39.024Z</time></trkpt><trkpt lat="43.900225" lon="12.25258"><ele>583.0</ele><time>2026-04-26T11:05:40.024Z</time></trkpt><trkpt lat="43.900055" lon="12.25252"><ele>582.0</ele><time>2026-04-26T11:05:41.028Z</time></trkpt><trkpt lat="43.8998833" lon="12.2524283"><ele>581.0</ele><time>2026-04-26T11:05:42.024Z</time></trkpt><trkpt lat="43.8997083" lon="12.2523333"><ele>580.0</ele><time>2026-04-26T11:05:43.023Z</time></trkpt><trkpt lat="43.899525" lon="12.2522633"><ele>583.3333333333334</ele><time>2026-04-26T11:05:44.024Z</time></trkpt><trkpt lat="43.899355" lon="12.2522067"><ele>586.6666666666666</ele><time>2026-04-26T11:05:45.024Z</time></trkpt><trkpt lat="43.8992033" lon="12.2521483"><ele>590.0</ele><time>2026-04-26T11:05:46.025Z</time></trkpt><trkpt lat="43.8990717" lon="12.252085"><ele>591.0</ele><time>2026-04-26T11:05:47.026Z</time></trkpt><trkpt lat="43.89896" lon="12.2520083"><ele>592.0</ele><time>2026-04-26T11:05:48.024Z</time></trkpt><trkpt lat="43.89888" lon="12.251905"><ele>593.0</ele><time>2026-04-26T11:05:49.026Z</time></trkpt><trkpt lat="43.8988283" lon="12.2517783"><ele>594.0</ele><time>2026-04-26T11:05:50.024Z</time></trkpt><trkpt lat="43.89883" lon="12.25166"><ele>595.0</ele><time>2026-04-26T11:05:51.025Z</time></trkpt><trkpt lat="43.8988617" lon="12.2515517"><ele>596.0</ele><time>2026-04-26T11:05:52.025Z</time></trkpt><trkpt lat="43.898915" lon="12.25145"><ele>597.0</ele><time>2026-04-26T11:05:53.024Z</time></trkpt><trkpt lat="43.89899" lon="12.2513517"><ele>598.0</ele><time>2026-04-26T11:05:54.024Z</time></trkpt><trkpt lat="43.899125" lon="12.2512433"><ele>599.0</ele><time>2026-04-26T11:05:55.023Z</time></trkpt><trkpt lat="43.899255" lon="12.2511317"><ele>599.0</ele><time>2026-04-26T11:05:56.024Z</time></trkpt><trkpt lat="43.8993967" lon="12.2510067"><ele>599.0</ele><time>2026-04-26T11:05:57.024Z</time></trkpt><trkpt lat="43.8995583" lon="12.2508717"><ele>599.0</ele><time>2026-04-26T11:05:58.028Z</time></trkpt><trkpt lat="43.8997217" lon="12.2507283"><ele>602.3333333333333</ele><time>2026-04-26T11:05:59.025Z</time></trkpt><trkpt lat="43.899885" lon="12.2505817"><ele>605.6666666666666</ele><time>2026-04-26T11:06:00.027Z</time></trkpt><trkpt lat="43.90003" lon="12.2504383"><ele>609.0</ele><time>2026-04-26T11:06:01.024Z</time></trkpt><trkpt lat="43.900155" lon="12.250305"><ele>609.0</ele><time>2026-04-26T11:06:02.024Z</time></trkpt><trkpt lat="43.9002483" lon="12.2501717"><ele>609.0</ele><time>2026-04-26T11:06:03.025Z</time></trkpt><trkpt lat="43.90031" lon="12.2500333"><ele>609.0</ele><time>2026-04-26T11:06:04.025Z</time></trkpt><trkpt lat="43.9003333" lon="12.24988"><ele>609.0</ele><time>2026-04-26T11:06:05.027Z</time></trkpt><trkpt lat="43.90032" lon="12.2497233"><ele>612.0</ele><time>2026-04-26T11:06:06.025Z</time></trkpt><trkpt lat="43.90027" lon="12.24958"><ele>615.0</ele><time>2026-04-26T11:06:07.024Z</time></trkpt><trkpt lat="43.9001933" lon="12.24946"><ele>618.0</ele><time>2026-04-26T11:06:08.025Z</time></trkpt><trkpt lat="43.9000933" lon="12.249375"><ele>621.0</ele><time>2026-04-26T11:06:09.024Z</time></trkpt><trkpt lat="43.8999717" lon="12.2493467"><ele>622.0</ele><time>2026-04-26T11:06:10.024Z</time></trkpt><trkpt lat="43.899835" lon="12.249365"><ele>623.0</ele><time>2026-04-26T11:06:11.026Z</time></trkpt><trkpt lat="43.899685" lon="12.24942"><ele>624.0</ele><time>2026-04-26T11:06:12.024Z</time></trkpt><trkpt lat="43.8995233" lon="12.249485"><ele>624.0</ele><time>2026-04-26T11:06:13.026Z</time></trkpt><trkpt lat="43.89935" lon="12.2495517"><ele>624.0</ele><time>2026-04-26T11:06:14.025Z</time></trkpt><trkpt lat="43.8991667" lon="12.2496183"><ele>624.0</ele><time>2026-04-26T11:06:15.023Z</time></trkpt><trkpt lat="43.89898" lon="12.2496867"><ele>621.6666666666666</ele><time>2026-04-26T11:06:16.026Z</time></trkpt><trkpt lat="43.898805" lon="12.2497567"><ele>619.3333333333333</ele><time>2026-04-26T11:06:17.023Z</time></trkpt><trkpt lat="43.89865" lon="12.2498133"><ele>617.0</ele><time>2026-04-26T11:06:18.025Z</time></trkpt><trkpt lat="43.89851" lon="12.2498483"><ele>619.0</ele><time>2026-04-26T11:06:19.026Z</time></trkpt><trkpt lat="43.8983917" lon="12.24984"><ele>621.0</ele><time>2026-04-26T11:06:20.021Z</time></trkpt><trkpt lat="43.8982983" lon="12.2497833"><ele>623.0</ele><time>2026-04-26T11:06:21.024Z</time></trkpt><trkpt lat="43.8982317" lon="12.24968"><ele>625.0</ele><time>2026-04-26T11:06:22.023Z</time></trkpt><trkpt lat="43.8982" lon="12.2495417"><ele>627.0</ele><time>2026-04-26T11:06:23.022Z</time></trkpt><trkpt lat="43.8982133" lon="12.2493983"><ele>628.25</ele><time>2026-04-26T11:06:24.02Z</time></trkpt><trkpt lat="43.8982633" lon="12.249275"><ele>629.5</ele><time>2026-04-26T11:06:25.021Z</time></trkpt><trkpt lat="43.89835" lon="12.24919"><ele>630.75</ele><time>2026-04-26T11:06:26.023Z</time></trkpt><trkpt lat="43.8984633" lon="12.2491483"><ele>632.0</ele><time>2026-04-26T11:06:27.023Z</time></trkpt><trkpt lat="43.8986033" lon="12.2491433"><ele>632.0</ele><time>2026-04-26T11:06:28.022Z</time></trkpt><trkpt lat="43.8987467" lon="12.2491517"><ele>632.0</ele><time>2026-04-26T11:06:29.023Z</time></trkpt><trkpt lat="43.8988783" lon="12.249145"><ele>632.0</ele><time>2026-04-26T11:06:30.022Z</time></trkpt><trkpt lat="43.8989917" lon="12.2490967"><ele>632.0</ele><time>2026-04-26T11:06:31.025Z</time></trkpt><trkpt lat="43.8990733" lon="12.2490017"><ele>633.6</ele><time>2026-04-26T11:06:32.023Z</time></trkpt><trkpt lat="43.899125" lon="12.2488783"><ele>635.2</ele><time>2026-04-26T11:06:33.026Z</time></trkpt><trkpt lat="43.8991283" lon="12.2487333"><ele>636.8</ele><time>2026-04-26T11:06:34.024Z</time></trkpt><trkpt lat="43.8990967" lon="12.2485933"><ele>638.4</ele><time>2026-04-26T11:06:35.025Z</time></trkpt><trkpt lat="43.8990283" lon="12.2484817"><ele>640.0</ele><time>2026-04-26T11:06:36.023Z</time></trkpt><trkpt lat="43.8989333" lon="12.2484167"><ele>640.0</ele><time>2026-04-26T11:06:37.025Z</time></trkpt><trkpt lat="43.89883" lon="12.2484117"><ele>640.0</ele><time>2026-04-26T11:06:38.022Z</time></trkpt><trkpt lat="43.898725" lon="12.248465"><ele>640.0</ele><time>2026-04-26T11:06:39.022Z</time></trkpt><trkpt lat="43.89863" lon="12.24858"><ele>640.0</ele><time>2026-04-26T11:06:40.023Z</time></trkpt><trkpt lat="43.89854" lon="12.2486833"><ele>640.0</ele><time>2026-04-26T11:06:41.022Z</time></trkpt><trkpt lat="43.8984417" lon="12.2487433"><ele>640.0</ele><time>2026-04-26T11:06:42.025Z</time></trkpt><trkpt lat="43.8983383" lon="12.2487433"><ele>640.0</ele><time>2026-04-26T11:06:43.022Z</time></trkpt><trkpt lat="43.8982433" lon="12.2486733"><ele>640.0</ele><time>2026-04-26T11:06:44.022Z</time></trkpt><trkpt lat="43.8981783" lon="12.248555"><ele>640.0</ele><time>2026-04-26T11:06:45.026Z</time></trkpt><trkpt lat="43.898155" lon="12.2484117"><ele>641.6</ele><time>2026-04-26T11:06:46.023Z</time></trkpt><trkpt lat="43.8981733" lon="12.2482717"><ele>643.2</ele><time>2026-04-26T11:06:47.022Z</time></trkpt><trkpt lat="43.8982267" lon="12.2481567"><ele>644.8</ele><time>2026-04-26T11:06:48.022Z</time></trkpt><trkpt lat="43.8983117" lon="12.24808"><ele>646.4</ele><time>2026-04-26T11:06:49.026Z</time></trkpt><trkpt lat="43.8984" lon="12.2480583"><ele>648.0</ele><time>2026-04-26T11:06:50.022Z</time></trkpt><trkpt lat="43.8985133" lon="12.2480617"><ele>649.0</ele><time>2026-04-26T11:06:51.022Z</time></trkpt><trkpt lat="43.898635" lon="12.2480483"><ele>650.0</ele><time>2026-04-26T11:06:52.024Z</time></trkpt><trkpt lat="43.8987383" lon="12.2479767"><ele>651.0</ele><time>2026-04-26T11:06:53.025Z</time></trkpt><trkpt lat="43.898815" lon="12.2478667"><ele>652.0</ele><time>2026-04-26T11:06:54.024Z</time></trkpt><trkpt lat="43.898845" lon="12.247735"><ele>653.0</ele><time>2026-04-26T11:06:55.024Z</time></trkpt><trkpt lat="43.8988517" lon="12.2475983"><ele>653.0</ele><time>2026-04-26T11:06:56.026Z</time></trkpt><trkpt lat="43.8988067" lon="12.2474867"><ele>653.0</ele><time>2026-04-26T11:06:57.024Z</time></trkpt><trkpt lat="43.8987267" lon="12.2474017"><ele>653.0</ele><time>2026-04-26T11:06:58.024Z</time></trkpt><trkpt lat="43.89861" lon="12.2473717"><ele>653.0</ele><time>2026-04-26T11:06:59.023Z</time></trkpt><trkpt lat="43.89848" lon="12.2473667"><ele>653.0</ele><time>2026-04-26T11:07:00.024Z</time></trkpt><trkpt lat="43.89835" lon="12.2473383"><ele>653.75</ele><time>2026-04-26T11:07:01.025Z</time></trkpt><trkpt lat="43.89823" lon="12.2472617"><ele>654.5</ele><time>2026-04-26T11:07:02.023Z</time></trkpt><trkpt lat="43.8981183" lon="12.2471617"><ele>655.25</ele><time>2026-04-26T11:07:03.023Z</time></trkpt><trkpt lat="43.8980133" lon="12.247065"><ele>656.0</ele><time>2026-04-26T11:07:04.026Z</time></trkpt><trkpt lat="43.8979133" lon="12.246985"><ele>656.0</ele><time>2026-04-26T11:07:05.024Z</time></trkpt><trkpt lat="43.897815" lon="12.2469267"><ele>656.0</ele><time>2026-04-26T11:07:06.025Z</time></trkpt><trkpt lat="43.8977233" lon="12.2468883"><ele>656.0</ele><time>2026-04-26T11:07:07.024Z</time></trkpt><trkpt lat="43.897635" lon="12.2468583"><ele>656.0</ele><time>2026-04-26T11:07:08.024Z</time></trkpt><trkpt lat="43.8975517" lon="12.2468283"><ele>656.0</ele><time>2026-04-26T11:07:09.027Z</time></trkpt><trkpt lat="43.89747" lon="12.2468"><ele>655.8333333333333</ele><time>2026-04-26T11:07:10.023Z</time></trkpt><trkpt lat="43.897395" lon="12.2467717"><ele>655.6666666666666</ele><time>2026-04-26T11:07:11.025Z</time></trkpt><trkpt lat="43.8973333" lon="12.246745"><ele>655.5</ele><time>2026-04-26T11:07:12.023Z</time></trkpt><trkpt lat="43.8972367" lon="12.24669"><ele>655.3333333333334</ele><time>2026-04-26T11:07:14.024Z</time></trkpt><trkpt lat="43.8971483" lon="12.2466283"><ele>655.1666666666667</ele><time>2026-04-26T11:07:16.024Z</time></trkpt><trkpt lat="43.8970883" lon="12.2465817"><ele>655.0</ele><time>2026-04-26T11:07:18.023Z</time></trkpt><trkpt lat="43.89701" lon="12.2465833"><ele>655.0</ele><time>2026-04-26T11:07:21.024Z</time></trkpt><trkpt lat="43.8970483" lon="12.2466567"><ele>655.0</ele><time>2026-04-26T11:07:24.025Z</time></trkpt><trkpt lat="43.89719" lon="12.2467017"><ele>655.0</ele><time>2026-04-26T11:07:26.022Z</time></trkpt><trkpt lat="43.897295" lon="12.2467367"><ele>655.0</ele><time>2026-04-26T11:07:27.023Z</time></trkpt><trkpt lat="43.897415" lon="12.2467817"><ele>655.0</ele><time>2026-04-26T11:07:28.022Z</time></trkpt><trkpt lat="43.8975383" lon="12.2468283"><ele>655.2</ele><time>2026-04-26T11:07:29.024Z</time></trkpt><trkpt lat="43.8976567" lon="12.246875"><ele>655.4</ele><time>2026-04-26T11:07:30.025Z</time></trkpt><trkpt lat="43.8977617" lon="12.24692"><ele>655.5999999999999</ele><time>2026-04-26T11:07:31.022Z</time></trkpt><trkpt lat="43.8978633" lon="12.246955"><ele>655.8</ele><time>2026-04-26T11:07:32.026Z</time></trkpt><trkpt lat="43.8979667" lon="12.2469667"><ele>656.0</ele><time>2026-04-26T11:07:33.023Z</time></trkpt><trkpt lat="43.8980767" lon="12.24696"><ele>656.0</ele><time>2026-04-26T11:07:34.027Z</time></trkpt><trkpt lat="43.8981967" lon="12.246935"><ele>656.0</ele><time>2026-04-26T11:07:35.024Z</time></trkpt><trkpt lat="43.898335" lon="12.2468933"><ele>656.0</ele><time>2026-04-26T11:07:36.025Z</time></trkpt><trkpt lat="43.8984917" lon="12.2468367"><ele>656.0</ele><time>2026-04-26T11:07:37.024Z</time></trkpt><trkpt lat="43.898655" lon="12.2467683"><ele>656.3333333333333</ele><time>2026-04-26T11:07:38.023Z</time></trkpt><trkpt lat="43.8988183" lon="12.2466983"><ele>656.6666666666666</ele><time>2026-04-26T11:07:39.024Z</time></trkpt><trkpt lat="43.8989717" lon="12.2466333"><ele>657.0</ele><time>2026-04-26T11:07:40.024Z</time></trkpt><trkpt lat="43.8991133" lon="12.2465733"><ele>657.0</ele><time>2026-04-26T11:07:41.025Z</time></trkpt><trkpt lat="43.89925" lon="12.246515"><ele>657.0</ele><time>2026-04-26T11:07:42.023Z</time></trkpt><trkpt lat="43.89939" lon="12.246465"><ele>657.0</ele><time>2026-04-26T11:07:43.023Z</time></trkpt><trkpt lat="43.89954" lon="12.24643"><ele>657.0</ele><time>2026-04-26T11:07:44.023Z</time></trkpt><trkpt lat="43.899705" lon="12.2464333"><ele>655.6666666666666</ele><time>2026-04-26T11:07:45.025Z</time></trkpt><trkpt lat="43.8998817" lon="12.2464633"><ele>654.3333333333333</ele><time>2026-04-26T11:07:46.026Z</time></trkpt><trkpt lat="43.9000617" lon="12.2464867"><ele>653.0</ele><time>2026-04-26T11:07:47.025Z</time></trkpt><trkpt lat="43.900245" lon="12.2464833"><ele>652.6666666666666</ele><time>2026-04-26T11:07:48.023Z</time></trkpt><trkpt lat="43.9004183" lon="12.24645"><ele>652.3333333333334</ele><time>2026-04-26T11:07:49.022Z</time></trkpt><trkpt lat="43.9005783" lon="12.2463967"><ele>652.0</ele><time>2026-04-26T11:07:50.025Z</time></trkpt><trkpt lat="43.9007167" lon="12.246325"><ele>652.0</ele><time>2026-04-26T11:07:51.025Z</time></trkpt><trkpt lat="43.9008283" lon="12.2462467"><ele>652.0</ele><time>2026-04-26T11:07:52.025Z</time></trkpt><trkpt lat="43.90092" lon="12.24616"><ele>652.0</ele><time>2026-04-26T11:07:53.023Z</time></trkpt><trkpt lat="43.9009933" lon="12.2460533"><ele>652.0</ele><time>2026-04-26T11:07:54.025Z</time></trkpt><trkpt lat="43.9010633" lon="12.2459267"><ele>653.25</ele><time>2026-04-26T11:07:55.024Z</time></trkpt><trkpt lat="43.9011383" lon="12.24578"><ele>654.5</ele><time>2026-04-26T11:07:56.025Z</time></trkpt><trkpt lat="43.90122" lon="12.2456217"><ele>655.75</ele><time>2026-04-26T11:07:57.024Z</time></trkpt><trkpt lat="43.901315" lon="12.24546"><ele>657.0</ele><time>2026-04-26T11:07:58.024Z</time></trkpt><trkpt lat="43.9014183" lon="12.2453017"><ele>657.0</ele><time>2026-04-26T11:07:59.023Z</time></trkpt><trkpt lat="43.9015183" lon="12.2451433"><ele>657.0</ele><time>2026-04-26T11:08:00.023Z</time></trkpt><trkpt lat="43.901605" lon="12.2449817"><ele>657.0</ele><time>2026-04-26T11:08:01.026Z</time></trkpt><trkpt lat="43.901675" lon="12.2448167"><ele>657.0</ele><time>2026-04-26T11:08:02.023Z</time></trkpt><trkpt lat="43.9017383" lon="12.244665"><ele>654.5</ele><time>2026-04-26T11:08:03.026Z</time></trkpt><trkpt lat="43.9018117" lon="12.2445417"><ele>652.0</ele><time>2026-04-26T11:08:04.023Z</time></trkpt><trkpt lat="43.9019" lon="12.2444583"><ele>649.5</ele><time>2026-04-26T11:08:05.024Z</time></trkpt><trkpt lat="43.902005" lon="12.2444"><ele>647.0</ele><time>2026-04-26T11:08:06.027Z</time></trkpt><trkpt lat="43.90213" lon="12.2443433"><ele>647.0</ele><time>2026-04-26T11:08:07.022Z</time></trkpt><trkpt lat="43.9022717" lon="12.2442683"><ele>647.0</ele><time>2026-04-26T11:08:08.027Z</time></trkpt><trkpt lat="43.902425" lon="12.2441733"><ele>647.0</ele><time>2026-04-26T11:08:09.025Z</time></trkpt><trkpt lat="43.90259" lon="12.244065"><ele>642.3333333333333</ele><time>2026-04-26T11:08:10.025Z</time></trkpt><trkpt lat="43.90276" lon="12.2439583"><ele>637.6666666666666</ele><time>2026-04-26T11:08:11.025Z</time></trkpt><trkpt lat="43.9029283" lon="12.2438583"><ele>633.0</ele><time>2026-04-26T11:08:12.024Z</time></trkpt><trkpt lat="43.9030967" lon="12.2437617"><ele>633.0</ele><time>2026-04-26T11:08:13.024Z</time></trkpt><trkpt lat="43.9032467" lon="12.2436783"><ele>633.0</ele><time>2026-04-26T11:08:14.027Z</time></trkpt><trkpt lat="43.903385" lon="12.24359"><ele>633.0</ele><time>2026-04-26T11:08:15.025Z</time></trkpt><trkpt lat="43.9035117" lon="12.2434883"><ele>631.6666666666666</ele><time>2026-04-26T11:08:16.023Z</time></trkpt><trkpt lat="43.9036233" lon="12.24335"><ele>630.3333333333333</ele><time>2026-04-26T11:08:17.025Z</time></trkpt><trkpt lat="43.9037133" lon="12.243185"><ele>629.0</ele><time>2026-04-26T11:08:18.026Z</time></trkpt><trkpt lat="43.9038017" lon="12.243005"><ele>629.0</ele><time>2026-04-26T11:08:19.025Z</time></trkpt><trkpt lat="43.903885" lon="12.2428167"><ele>629.0</ele><time>2026-04-26T11:08:20.028Z</time></trkpt><trkpt lat="43.9039633" lon="12.2426267"><ele>629.0</ele><time>2026-04-26T11:08:21.026Z</time></trkpt><trkpt lat="43.90405" lon="12.2424333"><ele>629.3333333333333</ele><time>2026-04-26T11:08:22.024Z</time></trkpt><trkpt lat="43.9041433" lon="12.24225"><ele>629.6666666666666</ele><time>2026-04-26T11:08:23.026Z</time></trkpt><trkpt lat="43.90424" lon="12.2420867"><ele>630.0</ele><time>2026-04-26T11:08:24.025Z</time></trkpt><trkpt lat="43.9043283" lon="12.2419333"><ele>630.0</ele><time>2026-04-26T11:08:25.023Z</time></trkpt><trkpt lat="43.9043933" lon="12.2417717"><ele>630.0</ele><time>2026-04-26T11:08:26.025Z</time></trkpt><trkpt lat="43.90444" lon="12.2415817"><ele>630.0</ele><time>2026-04-26T11:08:27.024Z</time></trkpt><trkpt lat="43.9044633" lon="12.2413683"><ele>630.0</ele><time>2026-04-26T11:08:28.03Z</time></trkpt><trkpt lat="43.9044733" lon="12.2411467"><ele>629.6666666666666</ele><time>2026-04-26T11:08:29.023Z</time></trkpt><trkpt lat="43.9044633" lon="12.2409233"><ele>629.3333333333333</ele><time>2026-04-26T11:08:30.022Z</time></trkpt><trkpt lat="43.9044167" lon="12.240695"><ele>629.0</ele><time>2026-04-26T11:08:31.023Z</time></trkpt><trkpt lat="43.9043383" lon="12.2404567"><ele>631.3333333333333</ele><time>2026-04-26T11:08:32.023Z</time></trkpt><trkpt lat="43.9042467" lon="12.240215"><ele>633.6666666666666</ele><time>2026-04-26T11:08:33.023Z</time></trkpt><trkpt lat="43.9041567" lon="12.2399733"><ele>636.0</ele><time>2026-04-26T11:08:34.029Z</time></trkpt><trkpt lat="43.9040667" lon="12.2397383"><ele>628.3333333333334</ele><time>2026-04-26T11:08:35.024Z</time></trkpt><trkpt lat="43.9039817" lon="12.2395067"><ele>620.6666666666667</ele><time>2026-04-26T11:08:36.024Z</time></trkpt><trkpt lat="43.9038917" lon="12.23928"><ele>613.0</ele><time>2026-04-26T11:08:37.027Z</time></trkpt><trkpt lat="43.9038" lon="12.2390533"><ele>614.3333333333334</ele><time>2026-04-26T11:08:38.025Z</time></trkpt><trkpt lat="43.9037133" lon="12.2388233"><ele>615.6666666666666</ele><time>2026-04-26T11:08:39.024Z</time></trkpt><trkpt lat="43.90363" lon="12.2386033"><ele>617.0</ele><time>2026-04-26T11:08:40.023Z</time></trkpt><trkpt lat="43.9035467" lon="12.2383933"><ele>617.0</ele><time>2026-04-26T11:08:41.023Z</time></trkpt><trkpt lat="43.9034717" lon="12.2381917"><ele>617.0</ele><time>2026-04-26T11:08:42.022Z</time></trkpt><trkpt lat="43.9034067" lon="12.2379933"><ele>617.0</ele><time>2026-04-26T11:08:43.023Z</time></trkpt><trkpt lat="43.9033567" lon="12.2378033"><ele>612.0</ele><time>2026-04-26T11:08:44.023Z</time></trkpt><trkpt lat="43.9033283" lon="12.2376083"><ele>607.0</ele><time>2026-04-26T11:08:45.023Z</time></trkpt><trkpt lat="43.9033317" lon="12.23742"><ele>602.0</ele><time>2026-04-26T11:08:46.023Z</time></trkpt><trkpt lat="43.9033717" lon="12.23726"><ele>597.0</ele><time>2026-04-26T11:08:47.023Z</time></trkpt><trkpt lat="43.9034433" lon="12.2371417"><ele>597.0</ele><time>2026-04-26T11:08:48.023Z</time></trkpt><trkpt lat="43.903515" lon="12.2370417"><ele>597.0</ele><time>2026-04-26T11:08:49.024Z</time></trkpt><trkpt lat="43.90357" lon="12.2369133"><ele>597.0</ele><time>2026-04-26T11:08:50.024Z</time></trkpt><trkpt lat="43.9036017" lon="12.2367517"><ele>597.0</ele><time>2026-04-26T11:08:51.025Z</time></trkpt><trkpt lat="43.903605" lon="12.2365533"><ele>593.6666666666666</ele><time>2026-04-26T11:08:52.024Z</time></trkpt><trkpt lat="43.9035883" lon="12.2363283"><ele>590.3333333333333</ele><time>2026-04-26T11:08:53.022Z</time></trkpt><trkpt lat="43.90357" lon="12.236075"><ele>587.0</ele><time>2026-04-26T11:08:54.024Z</time></trkpt><trkpt lat="43.9035483" lon="12.2358083"><ele>584.6666666666666</ele><time>2026-04-26T11:08:55.024Z</time></trkpt><trkpt lat="43.9035267" lon="12.23554"><ele>582.3333333333334</ele><time>2026-04-26T11:08:56.026Z</time></trkpt><trkpt lat="43.903505" lon="12.23527"><ele>580.0</ele><time>2026-04-26T11:08:57.026Z</time></trkpt><trkpt lat="43.9034833" lon="12.234995"><ele>577.6666666666667</ele><time>2026-04-26T11:08:58.024Z</time></trkpt><trkpt lat="43.90346" lon="12.2347167"><ele>575.3333333333334</ele><time>2026-04-26T11:08:59.027Z</time></trkpt><trkpt lat="43.903435" lon="12.2344317"><ele>573.0</ele><time>2026-04-26T11:09:00.026Z</time></trkpt><trkpt lat="43.9034083" lon="12.234145"><ele>570.3333333333334</ele><time>2026-04-26T11:09:01.029Z</time></trkpt><trkpt lat="43.903385" lon="12.2338683"><ele>567.6666666666667</ele><time>2026-04-26T11:09:02.027Z</time></trkpt><trkpt lat="43.9033583" lon="12.2335983"><ele>565.0</ele><time>2026-04-26T11:09:03.024Z</time></trkpt><trkpt lat="43.9033333" lon="12.23334"><ele>563.6666666666667</ele><time>2026-04-26T11:09:04.025Z</time></trkpt><trkpt lat="43.9033167" lon="12.233095"><ele>562.3333333333334</ele><time>2026-04-26T11:09:05.024Z</time></trkpt><trkpt lat="43.9033133" lon="12.23286"><ele>561.0</ele><time>2026-04-26T11:09:06.024Z</time></trkpt><trkpt lat="43.9033267" lon="12.23264"><ele>561.0</ele><time>2026-04-26T11:09:07.021Z</time></trkpt><trkpt lat="43.90335" lon="12.232445"><ele>561.0</ele><time>2026-04-26T11:09:08.026Z</time></trkpt><trkpt lat="43.90337" lon="12.2322617"><ele>561.0</ele><time>2026-04-26T11:09:09.024Z</time></trkpt><trkpt lat="43.9033667" lon="12.2320833"><ele>561.0</ele><time>2026-04-26T11:09:10.023Z</time></trkpt><trkpt lat="43.903335" lon="12.2319067"><ele>559.75</ele><time>2026-04-26T11:09:11.023Z</time></trkpt><trkpt lat="43.903295" lon="12.23173"><ele>558.5</ele><time>2026-04-26T11:09:12.023Z</time></trkpt><trkpt lat="43.9032567" lon="12.2315483"><ele>557.25</ele><time>2026-04-26T11:09:13.023Z</time></trkpt><trkpt lat="43.9032317" lon="12.2313583"><ele>556.0</ele><time>2026-04-26T11:09:14.022Z</time></trkpt><trkpt lat="43.903225" lon="12.23116"><ele>555.0</ele><time>2026-04-26T11:09:15.023Z</time></trkpt><trkpt lat="43.9032367" lon="12.2309733"><ele>554.0</ele><time>2026-04-26T11:09:16.023Z</time></trkpt><trkpt lat="43.9032667" lon="12.2308017"><ele>553.0</ele><time>2026-04-26T11:09:17.021Z</time></trkpt><trkpt lat="43.903305" lon="12.2306383"><ele>552.0</ele><time>2026-04-26T11:09:18.024Z</time></trkpt><trkpt lat="43.9033483" lon="12.2304817"><ele>551.25</ele><time>2026-04-26T11:09:19.024Z</time></trkpt><trkpt lat="43.903395" lon="12.2303217"><ele>550.5</ele><time>2026-04-26T11:09:20.021Z</time></trkpt><trkpt lat="43.903435" lon="12.2301567"><ele>549.75</ele><time>2026-04-26T11:09:21.024Z</time></trkpt><trkpt lat="43.90347" lon="12.2299917"><ele>549.0</ele><time>2026-04-26T11:09:22.023Z</time></trkpt><trkpt lat="43.90349" lon="12.229845"><ele>548.8333333333334</ele><time>2026-04-26T11:09:23.024Z</time></trkpt><trkpt lat="43.9034967" lon="12.2297233"><ele>548.6666666666666</ele><time>2026-04-26T11:09:24.025Z</time></trkpt><trkpt lat="43.9034917" lon="12.2296183"><ele>548.5</ele><time>2026-04-26T11:09:25.026Z</time></trkpt><trkpt lat="43.903475" lon="12.229525"><ele>548.3333333333333</ele><time>2026-04-26T11:09:26.023Z</time></trkpt><trkpt lat="43.9034383" lon="12.2294333"><ele>548.1666666666666</ele><time>2026-04-26T11:09:27.026Z</time></trkpt><trkpt lat="43.90338" lon="12.229355"><ele>548.0</ele><time>2026-04-26T11:09:28.022Z</time></trkpt><trkpt lat="43.9033083" lon="12.2292883"><ele>548.0</ele><time>2026-04-26T11:09:29.023Z</time></trkpt><trkpt lat="43.90322" lon="12.229275"><ele>548.0</ele><time>2026-04-26T11:09:30.023Z</time></trkpt><trkpt lat="43.9031317" lon="12.2292683"><ele>548.0</ele><time>2026-04-26T11:09:31.023Z</time></trkpt><trkpt lat="43.9030467" lon="12.2292483"><ele>548.0</ele><time>2026-04-26T11:09:32.024Z</time></trkpt><trkpt lat="43.90298" lon="12.2291917"><ele>548.0</ele><time>2026-04-26T11:09:33.024Z</time></trkpt><trkpt lat="43.9029267" lon="12.229115"><ele>548.0</ele><time>2026-04-26T11:09:34.026Z</time></trkpt><trkpt lat="43.9028867" lon="12.2290083"><ele>548.5</ele><time>2026-04-26T11:09:35.023Z</time></trkpt><trkpt lat="43.9028417" lon="12.2288817"><ele>549.0</ele><time>2026-04-26T11:09:36.023Z</time></trkpt><trkpt lat="43.9027783" lon="12.22875"><ele>549.5</ele><time>2026-04-26T11:09:37.025Z</time></trkpt><trkpt lat="43.902685" lon="12.2286283"><ele>550.0</ele><time>2026-04-26T11:09:38.024Z</time></trkpt><trkpt lat="43.9025817" lon="12.2285067"><ele>547.0</ele><time>2026-04-26T11:09:39.024Z</time></trkpt><trkpt lat="43.9024617" lon="12.2284033"><ele>544.0</ele><time>2026-04-26T11:09:40.024Z</time></trkpt><trkpt lat="43.902325" lon="12.2283317"><ele>541.0</ele><time>2026-04-26T11:09:41.024Z</time></trkpt><trkpt lat="43.9021867" lon="12.2282933"><ele>538.0</ele><time>2026-04-26T11:09:42.024Z</time></trkpt><trkpt lat="43.9020567" lon="12.228265"><ele>538.0</ele><time>2026-04-26T11:09:43.024Z</time></trkpt><trkpt lat="43.9019417" lon="12.2282183"><ele>538.0</ele><time>2026-04-26T11:09:44.024Z</time></trkpt><trkpt lat="43.9018567" lon="12.228145"><ele>538.0</ele><time>2026-04-26T11:09:45.024Z</time></trkpt><trkpt lat="43.9018" lon="12.2280433"><ele>538.0</ele><time>2026-04-26T11:09:46.023Z</time></trkpt><trkpt lat="43.9017717" lon="12.227915"><ele>538.0</ele><time>2026-04-26T11:09:47.023Z</time></trkpt><trkpt lat="43.90179" lon="12.227765"><ele>537.6</ele><time>2026-04-26T11:09:48.025Z</time></trkpt><trkpt lat="43.901835" lon="12.2276317"><ele>537.1999999999999</ele><time>2026-04-26T11:09:49.023Z</time></trkpt><trkpt lat="43.90188" lon="12.227505"><ele>536.8</ele><time>2026-04-26T11:09:50.029Z</time></trkpt><trkpt lat="43.9018933" lon="12.2273783"><ele>536.4</ele><time>2026-04-26T11:09:51.024Z</time></trkpt><trkpt lat="43.9018883" lon="12.2272467"><ele>536.0</ele><time>2026-04-26T11:09:52.024Z</time></trkpt><trkpt lat="43.9018217" lon="12.2271167"><ele>529.0</ele><time>2026-04-26T11:09:53.023Z</time></trkpt><trkpt lat="43.90173" lon="12.22697"><ele>522.0</ele><time>2026-04-26T11:09:54.024Z</time></trkpt><trkpt lat="43.9016317" lon="12.2268067"><ele>515.0</ele><time>2026-04-26T11:09:55.024Z</time></trkpt><trkpt lat="43.9015417" lon="12.2266283"><ele>514.6666666666666</ele><time>2026-04-26T11:09:56.025Z</time></trkpt><trkpt lat="43.9014533" lon="12.226445"><ele>514.3333333333334</ele><time>2026-04-26T11:09:57.025Z</time></trkpt><trkpt lat="43.9013733" lon="12.2262567"><ele>514.0</ele><time>2026-04-26T11:09:58.022Z</time></trkpt><trkpt lat="43.9012933" lon="12.22607"><ele>514.0</ele><time>2026-04-26T11:09:59.025Z</time></trkpt><trkpt lat="43.9012083" lon="12.2258917"><ele>514.0</ele><time>2026-04-26T11:10:00.023Z</time></trkpt><trkpt lat="43.9011183" lon="12.2257483"><ele>514.0</ele><time>2026-04-26T11:10:01.025Z</time></trkpt><trkpt lat="43.901025" lon="12.2256517"><ele>514.0</ele><time>2026-04-26T11:10:02.026Z</time></trkpt><trkpt lat="43.9009283" lon="12.2255933"><ele>511.2</ele><time>2026-04-26T11:10:03.027Z</time></trkpt><trkpt lat="43.9008417" lon="12.2255883"><ele>508.4</ele><time>2026-04-26T11:10:04.024Z</time></trkpt><trkpt lat="43.9007633" lon="12.2256233"><ele>505.6</ele><time>2026-04-26T11:10:05.024Z</time></trkpt><trkpt lat="43.9007067" lon="12.2257317"><ele>502.8</ele><time>2026-04-26T11:10:06.024Z</time></trkpt><trkpt lat="43.9006767" lon="12.2258833"><ele>500.0</ele><time>2026-04-26T11:10:07.023Z</time></trkpt><trkpt lat="43.900675" lon="12.226085"><ele>500.0</ele><time>2026-04-26T11:10:08.024Z</time></trkpt><trkpt lat="43.9006183" lon="12.22622"><ele>500.0</ele><time>2026-04-26T11:10:09.023Z</time></trkpt><trkpt lat="43.9005733" lon="12.226355"><ele>500.0</ele><time>2026-04-26T11:10:10.023Z</time></trkpt><trkpt lat="43.900505" lon="12.2264867"><ele>500.0</ele><time>2026-04-26T11:10:11.025Z</time></trkpt><trkpt lat="43.900395" lon="12.22658"><ele>499.75</ele><time>2026-04-26T11:10:12.023Z</time></trkpt><trkpt lat="43.90029" lon="12.2266867"><ele>499.5</ele><time>2026-04-26T11:10:13.023Z</time></trkpt><trkpt lat="43.900175" lon="12.2267667"><ele>499.25</ele><time>2026-04-26T11:10:14.024Z</time></trkpt><trkpt lat="43.9000617" lon="12.226845"><ele>499.0</ele><time>2026-04-26T11:10:15.025Z</time></trkpt><trkpt lat="43.899945" lon="12.2269117"><ele>497.25</ele><time>2026-04-26T11:10:16.025Z</time></trkpt><trkpt lat="43.8998333" lon="12.2269883"><ele>495.5</ele><time>2026-04-26T11:10:17.025Z</time></trkpt><trkpt lat="43.899725" lon="12.2270583"><ele>493.75</ele><time>2026-04-26T11:10:18.023Z</time></trkpt><trkpt lat="43.8996133" lon="12.2271467"><ele>492.0</ele><time>2026-04-26T11:10:19.023Z</time></trkpt><trkpt lat="43.8994833" lon="12.2271867"><ele>492.0</ele><time>2026-04-26T11:10:20.023Z</time></trkpt><trkpt lat="43.8993417" lon="12.227255"><ele>492.0</ele><time>2026-04-26T11:10:21.024Z</time></trkpt><trkpt lat="43.8991967" lon="12.2273283"><ele>492.0</ele><time>2026-04-26T11:10:22.024Z</time></trkpt><trkpt lat="43.899035" lon="12.227395"><ele>490.33333333333337</ele><time>2026-04-26T11:10:23.024Z</time></trkpt><trkpt lat="43.8988567" lon="12.2274467"><ele>488.6666666666667</ele><time>2026-04-26T11:10:24.023Z</time></trkpt><trkpt lat="43.898665" lon="12.2274833"><ele>487.0</ele><time>2026-04-26T11:10:25.023Z</time></trkpt><trkpt lat="43.898465" lon="12.2275333"><ele>485.0</ele><time>2026-04-26T11:10:26.024Z</time></trkpt><trkpt lat="43.89826" lon="12.227575"><ele>483.0</ele><time>2026-04-26T11:10:27.024Z</time></trkpt><trkpt lat="43.8980617" lon="12.2276133"><ele>481.0</ele><time>2026-04-26T11:10:28.029Z</time></trkpt><trkpt lat="43.8978683" lon="12.22766"><ele>481.0</ele><time>2026-04-26T11:10:29.024Z</time></trkpt><trkpt lat="43.8976783" lon="12.22772"><ele>481.0</ele><time>2026-04-26T11:10:30.024Z</time></trkpt><trkpt lat="43.8974833" lon="12.22778"><ele>481.0</ele><time>2026-04-26T11:10:31.023Z</time></trkpt><trkpt lat="43.8972817" lon="12.22785"><ele>480.0</ele><time>2026-04-26T11:10:32.023Z</time></trkpt><trkpt lat="43.8970767" lon="12.22791"><ele>479.0</ele><time>2026-04-26T11:10:33.024Z</time></trkpt><trkpt lat="43.8968767" lon="12.2279633"><ele>478.0</ele><time>2026-04-26T11:10:34.025Z</time></trkpt><trkpt lat="43.8966933" lon="12.22801"><ele>477.6666666666667</ele><time>2026-04-26T11:10:35.024Z</time></trkpt><trkpt lat="43.8965233" lon="12.2280417"><ele>477.33333333333337</ele><time>2026-04-26T11:10:36.024Z</time></trkpt><trkpt lat="43.8963683" lon="12.2281033"><ele>477.0</ele><time>2026-04-26T11:10:37.025Z</time></trkpt><trkpt lat="43.896215" lon="12.22813"><ele>478.5</ele><time>2026-04-26T11:10:38.024Z</time></trkpt><trkpt lat="43.89607" lon="12.2281717"><ele>480.0</ele><time>2026-04-26T11:10:39.025Z</time></trkpt><trkpt lat="43.8959267" lon="12.2282167"><ele>481.5</ele><time>2026-04-26T11:10:40.025Z</time></trkpt><trkpt lat="43.8957767" lon="12.228255"><ele>483.0</ele><time>2026-04-26T11:10:41.025Z</time></trkpt><trkpt lat="43.895625" lon="12.2282983"><ele>485.66666666666663</ele><time>2026-04-26T11:10:42.024Z</time></trkpt><trkpt lat="43.8954717" lon="12.2283383"><ele>488.3333333333333</ele><time>2026-04-26T11:10:43.022Z</time></trkpt><trkpt lat="43.895315" lon="12.2283633"><ele>491.0</ele><time>2026-04-26T11:10:44.026Z</time></trkpt><trkpt lat="43.8951633" lon="12.2283817"><ele>490.75</ele><time>2026-04-26T11:10:45.023Z</time></trkpt><trkpt lat="43.8950133" lon="12.2284033"><ele>490.5</ele><time>2026-04-26T11:10:46.022Z</time></trkpt><trkpt lat="43.8948667" lon="12.2284033"><ele>490.25</ele><time>2026-04-26T11:10:47.025Z</time></trkpt><trkpt lat="43.8947217" lon="12.22839"><ele>490.0</ele><time>2026-04-26T11:10:48.024Z</time></trkpt><trkpt lat="43.8945833" lon="12.2284033"><ele>490.0</ele><time>2026-04-26T11:10:49.026Z</time></trkpt><trkpt lat="43.8944533" lon="12.2284067"><ele>490.0</ele><time>2026-04-26T11:10:50.029Z</time></trkpt><trkpt lat="43.894335" lon="12.2284033"><ele>490.0</ele><time>2026-04-26T11:10:51.026Z</time></trkpt><trkpt lat="43.8942317" lon="12.2283867"><ele>490.0</ele><time>2026-04-26T11:10:52.025Z</time></trkpt><trkpt lat="43.8941367" lon="12.2283867"><ele>490.0</ele><time>2026-04-26T11:10:53.026Z</time></trkpt><trkpt lat="43.8940517" lon="12.2283817"><ele>489.83333333333337</ele><time>2026-04-26T11:10:54.026Z</time></trkpt><trkpt lat="43.8939767" lon="12.2283633"><ele>489.6666666666667</ele><time>2026-04-26T11:10:55.025Z</time></trkpt><trkpt lat="43.8939033" lon="12.2283517"><ele>489.5</ele><time>2026-04-26T11:10:56.027Z</time></trkpt><trkpt lat="43.8938333" lon="12.2283267"><ele>489.33333333333337</ele><time>2026-04-26T11:10:57.025Z</time></trkpt><trkpt lat="43.89376" lon="12.2283033"><ele>489.1666666666667</ele><time>2026-04-26T11:10:58.025Z</time></trkpt><trkpt lat="43.8936783" lon="12.2282833"><ele>489.0</ele><time>2026-04-26T11:10:59.024Z</time></trkpt><trkpt lat="43.8935933" lon="12.228275"><ele>489.0</ele><time>2026-04-26T11:11:00.022Z</time></trkpt><trkpt lat="43.8935067" lon="12.22829"><ele>489.0</ele><time>2026-04-26T11:11:01.025Z</time></trkpt><trkpt lat="43.8934183" lon="12.228335"><ele>489.0</ele><time>2026-04-26T11:11:02.024Z</time></trkpt><trkpt lat="43.8933217" lon="12.2284083"><ele>489.0</ele><time>2026-04-26T11:11:03.024Z</time></trkpt><trkpt lat="43.8932233" lon="12.2284683"><ele>489.0</ele><time>2026-04-26T11:11:04.024Z</time></trkpt><trkpt lat="43.8931133" lon="12.2285167"><ele>488.75</ele><time>2026-04-26T11:11:05.022Z</time></trkpt><trkpt lat="43.892985" lon="12.22857"><ele>488.5</ele><time>2026-04-26T11:11:06.024Z</time></trkpt><trkpt lat="43.8928517" lon="12.2286117"><ele>488.25</ele><time>2026-04-26T11:11:07.026Z</time></trkpt><trkpt lat="43.8927117" lon="12.2286183"><ele>488.0</ele><time>2026-04-26T11:11:08.025Z</time></trkpt><trkpt lat="43.89256" lon="12.2286433"><ele>488.0</ele><time>2026-04-26T11:11:09.028Z</time></trkpt><trkpt lat="43.892405" lon="12.2286517"><ele>488.0</ele><time>2026-04-26T11:11:10.026Z</time></trkpt><trkpt lat="43.8922683" lon="12.2285983"><ele>488.0</ele><time>2026-04-26T11:11:11.025Z</time></trkpt><trkpt lat="43.89209" lon="12.2285917"><ele>488.0</ele><time>2026-04-26T11:11:12.025Z</time></trkpt><trkpt lat="43.8919067" lon="12.228595"><ele>488.0</ele><time>2026-04-26T11:11:13.023Z</time></trkpt><trkpt lat="43.8917133" lon="12.2285467"><ele>488.0</ele><time>2026-04-26T11:11:14.022Z</time></trkpt><trkpt lat="43.8915383" lon="12.2286167"><ele>488.3333333333333</ele><time>2026-04-26T11:11:15.028Z</time></trkpt><trkpt lat="43.891375" lon="12.2286317"><ele>488.66666666666663</ele><time>2026-04-26T11:11:16.024Z</time></trkpt><trkpt lat="43.89122" lon="12.2286383"><ele>489.0</ele><time>2026-04-26T11:11:17.021Z</time></trkpt><trkpt lat="43.8910733" lon="12.2286867"><ele>489.0</ele><time>2026-04-26T11:11:18.024Z</time></trkpt><trkpt lat="43.8909283" lon="12.2287483"><ele>489.0</ele><time>2026-04-26T11:11:19.023Z</time></trkpt><trkpt lat="43.8907867" lon="12.228835"><ele>489.0</ele><time>2026-04-26T11:11:20.028Z</time></trkpt><trkpt lat="43.8906483" lon="12.2289467"><ele>492.33333333333337</ele><time>2026-04-26T11:11:21.026Z</time></trkpt><trkpt lat="43.8905133" lon="12.2290817"><ele>495.6666666666667</ele><time>2026-04-26T11:11:22.025Z</time></trkpt><trkpt lat="43.89038" lon="12.2292317"><ele>499.0</ele><time>2026-04-26T11:11:23.024Z</time></trkpt><trkpt lat="43.8902433" lon="12.22938"><ele>499.0</ele><time>2026-04-26T11:11:24.024Z</time></trkpt><trkpt lat="43.8901" lon="12.2295183"><ele>499.0</ele><time>2026-04-26T11:11:25.022Z</time></trkpt><trkpt lat="43.8899633" lon="12.229655"><ele>499.0</ele><time>2026-04-26T11:11:26.022Z</time></trkpt><trkpt lat="43.88984" lon="12.2297933"><ele>501.25</ele><time>2026-04-26T11:11:27.028Z</time></trkpt><trkpt lat="43.889725" lon="12.2299317"><ele>503.5</ele><time>2026-04-26T11:11:28.024Z</time></trkpt><trkpt lat="43.8896083" lon="12.23005"><ele>505.75</ele><time>2026-04-26T11:11:29.024Z</time></trkpt><trkpt lat="43.8894867" lon="12.230155"><ele>508.0</ele><time>2026-04-26T11:11:30.023Z</time></trkpt><trkpt lat="43.88936" lon="12.2302417"><ele>509.33333333333337</ele><time>2026-04-26T11:11:31.027Z</time></trkpt><trkpt lat="43.88922" lon="12.23032"><ele>510.66666666666663</ele><time>2026-04-26T11:11:32.024Z</time></trkpt><trkpt lat="43.8890717" lon="12.23039"><ele>512.0</ele><time>2026-04-26T11:11:33.025Z</time></trkpt><trkpt lat="43.8889183" lon="12.230465"><ele>512.0</ele><time>2026-04-26T11:11:34.025Z</time></trkpt><trkpt lat="43.88876" lon="12.23055"><ele>512.0</ele><time>2026-04-26T11:11:35.025Z</time></trkpt><trkpt lat="43.8885967" lon="12.2306283"><ele>512.0</ele><time>2026-04-26T11:11:36.025Z</time></trkpt><trkpt lat="43.88843" lon="12.2306933"><ele>514.0</ele><time>2026-04-26T11:11:37.026Z</time></trkpt><trkpt lat="43.8882517" lon="12.2307333"><ele>516.0</ele><time>2026-04-26T11:11:38.028Z</time></trkpt><trkpt lat="43.8880733" lon="12.2307617"><ele>518.0</ele><time>2026-04-26T11:11:39.028Z</time></trkpt><trkpt lat="43.8879033" lon="12.230785"><ele>518.0</ele><time>2026-04-26T11:11:40.028Z</time></trkpt><trkpt lat="43.8877417" lon="12.2307967"><ele>518.0</ele><time>2026-04-26T11:11:41.024Z</time></trkpt><trkpt lat="43.8875883" lon="12.2307917"><ele>518.0</ele><time>2026-04-26T11:11:42.023Z</time></trkpt><trkpt lat="43.8874333" lon="12.230755"><ele>517.6666666666666</ele><time>2026-04-26T11:11:43.022Z</time></trkpt><trkpt lat="43.8872883" lon="12.2306917"><ele>517.3333333333334</ele><time>2026-04-26T11:11:44.023Z</time></trkpt><trkpt lat="43.8871617" lon="12.230595"><ele>517.0</ele><time>2026-04-26T11:11:45.024Z</time></trkpt><trkpt lat="43.8870333" lon="12.23045"><ele>514.8000000000001</ele><time>2026-04-26T11:11:46.024Z</time></trkpt><trkpt lat="43.8869383" lon="12.23042"><ele>512.6</ele><time>2026-04-26T11:11:47.022Z</time></trkpt><trkpt lat="43.8868433" lon="12.2303983"><ele>510.40000000000003</ele><time>2026-04-26T11:11:48.024Z</time></trkpt><trkpt lat="43.8867533" lon="12.23042"><ele>508.20000000000005</ele><time>2026-04-26T11:11:49.027Z</time></trkpt><trkpt lat="43.8866717" lon="12.2304817"><ele>506.0</ele><time>2026-04-26T11:11:50.022Z</time></trkpt><trkpt lat="43.886605" lon="12.2306"><ele>508.8</ele><time>2026-04-26T11:11:51.024Z</time></trkpt><trkpt lat="43.8865367" lon="12.2307283"><ele>511.6</ele><time>2026-04-26T11:11:52.024Z</time></trkpt><trkpt lat="43.886455" lon="12.230845"><ele>514.4</ele><time>2026-04-26T11:11:53.023Z</time></trkpt><trkpt lat="43.886355" lon="12.2309117"><ele>517.2</ele><time>2026-04-26T11:11:54.023Z</time></trkpt><trkpt lat="43.88625" lon="12.23092"><ele>520.0</ele><time>2026-04-26T11:11:55.023Z</time></trkpt><trkpt lat="43.8861217" lon="12.2308883"><ele>520.0</ele><time>2026-04-26T11:11:56.028Z</time></trkpt><trkpt lat="43.885995" lon="12.23083"><ele>520.0</ele><time>2026-04-26T11:11:57.022Z</time></trkpt><trkpt lat="43.8858633" lon="12.2307183"><ele>520.0</ele><time>2026-04-26T11:11:58.022Z</time></trkpt><trkpt lat="43.88573" lon="12.2306"><ele>520.0</ele><time>2026-04-26T11:11:59.024Z</time></trkpt><trkpt lat="43.8856233" lon="12.230475"><ele>517.5</ele><time>2026-04-26T11:12:00.023Z</time></trkpt><trkpt lat="43.8855167" lon="12.230365"><ele>515.0</ele><time>2026-04-26T11:12:01.034Z</time></trkpt><trkpt lat="43.8854233" lon="12.2302533"><ele>512.5</ele><time>2026-04-26T11:12:02.025Z</time></trkpt><trkpt lat="43.8853217" lon="12.2301533"><ele>510.0</ele><time>2026-04-26T11:12:03.024Z</time></trkpt><trkpt lat="43.8852183" lon="12.23006"><ele>510.0</ele><time>2026-04-26T11:12:04.022Z</time></trkpt><trkpt lat="43.885135" lon="12.22996"><ele>510.0</ele><time>2026-04-26T11:12:05.024Z</time></trkpt><trkpt lat="43.8850933" lon="12.22985"><ele>510.0</ele><time>2026-04-26T11:12:06.025Z</time></trkpt><trkpt lat="43.8850917" lon="12.2297233"><ele>510.0</ele><time>2026-04-26T11:12:07.022Z</time></trkpt><trkpt lat="43.8851267" lon="12.2295783"><ele>510.0</ele><time>2026-04-26T11:12:08.03Z</time></trkpt><trkpt lat="43.8851117" lon="12.2294167"><ele>511.0</ele><time>2026-04-26T11:12:09.026Z</time></trkpt><trkpt lat="43.8851967" lon="12.2292417"><ele>512.0</ele><time>2026-04-26T11:12:10.023Z</time></trkpt><trkpt lat="43.8853067" lon="12.2290667"><ele>513.0</ele><time>2026-04-26T11:12:11.023Z</time></trkpt><trkpt lat="43.8853867" lon="12.2288933"><ele>515.0</ele><time>2026-04-26T11:12:12.02Z</time></trkpt><trkpt lat="43.8854517" lon="12.22875"><ele>517.0</ele><time>2026-04-26T11:12:13.023Z</time></trkpt><trkpt lat="43.885495" lon="12.2286117"><ele>519.0</ele><time>2026-04-26T11:12:14.021Z</time></trkpt><trkpt lat="43.88548" lon="12.228505"><ele>521.0</ele><time>2026-04-26T11:12:15.028Z</time></trkpt><trkpt lat="43.8854283" lon="12.228445"><ele>523.0</ele><time>2026-04-26T11:12:16.022Z</time></trkpt><trkpt lat="43.88534" lon="12.2284567"><ele>523.0</ele><time>2026-04-26T11:12:17.025Z</time></trkpt><trkpt lat="43.885245" lon="12.2284333"><ele>523.0</ele><time>2026-04-26T11:12:18.028Z</time></trkpt><trkpt lat="43.88513" lon="12.2283833"><ele>523.0</ele><time>2026-04-26T11:12:19.025Z</time></trkpt><trkpt lat="43.8850117" lon="12.228295"><ele>523.0</ele><time>2026-04-26T11:12:20.024Z</time></trkpt><trkpt lat="43.8848717" lon="12.228155"><ele>525.75</ele><time>2026-04-26T11:12:21.026Z</time></trkpt><trkpt lat="43.8847417" lon="12.2280467"><ele>528.5</ele><time>2026-04-26T11:12:22.027Z</time></trkpt><trkpt lat="43.8845967" lon="12.2280367"><ele>531.25</ele><time>2026-04-26T11:12:23.024Z</time></trkpt><trkpt lat="43.8844517" lon="12.2280283"><ele>534.0</ele><time>2026-04-26T11:12:24.03Z</time></trkpt><trkpt lat="43.8843367" lon="12.2280067"><ele>534.0</ele><time>2026-04-26T11:12:25.023Z</time></trkpt><trkpt lat="43.8842483" lon="12.227985"><ele>534.0</ele><time>2026-04-26T11:12:26.024Z</time></trkpt><trkpt lat="43.8841867" lon="12.22793"><ele>534.0</ele><time>2026-04-26T11:12:27.025Z</time></trkpt><trkpt lat="43.88417" lon="12.2278433"><ele>534.0</ele><time>2026-04-26T11:12:28.021Z</time></trkpt><trkpt lat="43.8842017" lon="12.22775"><ele>534.0</ele><time>2026-04-26T11:12:29.025Z</time></trkpt><trkpt lat="43.8843" lon="12.2276617"><ele>534.0</ele><time>2026-04-26T11:12:30.023Z</time></trkpt><trkpt lat="43.884405" lon="12.2275867"><ele>534.0</ele><time>2026-04-26T11:12:31.024Z</time></trkpt><trkpt lat="43.8844767" lon="12.2275033"><ele>534.0</ele><time>2026-04-26T11:12:32.023Z</time></trkpt><trkpt lat="43.8845417" lon="12.2274383"><ele>534.0</ele><time>2026-04-26T11:12:33.024Z</time></trkpt><trkpt lat="43.8845733" lon="12.2273083"><ele>534.0</ele><time>2026-04-26T11:12:35.023Z</time></trkpt><trkpt lat="43.8844467" lon="12.2272533"><ele>534.0</ele><time>2026-04-26T11:12:37.023Z</time></trkpt><trkpt lat="43.884375" lon="12.2272267"><ele>532.5</ele><time>2026-04-26T11:12:38.025Z</time></trkpt><trkpt lat="43.88428" lon="12.2272267"><ele>531.0</ele><time>2026-04-26T11:12:39.022Z</time></trkpt><trkpt lat="43.88416" lon="12.2272"><ele>529.5</ele><time>2026-04-26T11:12:40.02Z</time></trkpt><trkpt lat="43.884035" lon="12.2271533"><ele>528.0</ele><time>2026-04-26T11:12:41.023Z</time></trkpt><trkpt lat="43.8838633" lon="12.2271933"><ele>533.3333333333334</ele><time>2026-04-26T11:12:42.023Z</time></trkpt><trkpt lat="43.8836883" lon="12.2272033"><ele>538.6666666666667</ele><time>2026-04-26T11:12:43.024Z</time></trkpt><trkpt lat="43.8835467" lon="12.2271083"><ele>544.0</ele><time>2026-04-26T11:12:44.022Z</time></trkpt><trkpt lat="43.88338" lon="12.2271333"><ele>547.0</ele><time>2026-04-26T11:12:45.023Z</time></trkpt><trkpt lat="43.8832283" lon="12.22714"><ele>550.0</ele><time>2026-04-26T11:12:46.027Z</time></trkpt><trkpt lat="43.8830933" lon="12.2270883"><ele>553.0</ele><time>2026-04-26T11:12:47.023Z</time></trkpt><trkpt lat="43.8829933" lon="12.2269833"><ele>556.0</ele><time>2026-04-26T11:12:48.024Z</time></trkpt><trkpt lat="43.8829117" lon="12.2268017"><ele>556.0</ele><time>2026-04-26T11:12:49.023Z</time></trkpt><trkpt lat="43.8828117" lon="12.2267033"><ele>556.0</ele><time>2026-04-26T11:12:50.022Z</time></trkpt><trkpt lat="43.8827683" lon="12.2265383"><ele>556.0</ele><time>2026-04-26T11:12:51.022Z</time></trkpt><trkpt lat="43.882685" lon="12.2265133"><ele>556.0</ele><time>2026-04-26T11:12:52.023Z</time></trkpt><trkpt lat="43.8825983" lon="12.226505"><ele>556.0</ele><time>2026-04-26T11:12:53.025Z</time></trkpt><trkpt lat="43.88253" lon="12.2265717"><ele>558.8</ele><time>2026-04-26T11:12:54.024Z</time></trkpt><trkpt lat="43.882505" lon="12.2266867"><ele>561.6</ele><time>2026-04-26T11:12:55.022Z</time></trkpt><trkpt lat="43.8825117" lon="12.2268633"><ele>564.4</ele><time>2026-04-26T11:12:56.022Z</time></trkpt><trkpt lat="43.88244" lon="12.2269933"><ele>567.2</ele><time>2026-04-26T11:12:57.023Z</time></trkpt><trkpt lat="43.8823967" lon="12.2271317"><ele>570.0</ele><time>2026-04-26T11:12:58.022Z</time></trkpt><trkpt lat="43.8823033" lon="12.2272517"><ele>570.75</ele><time>2026-04-26T11:12:59.025Z</time></trkpt><trkpt lat="43.8821833" lon="12.2273367"><ele>571.5</ele><time>2026-04-26T11:13:00.024Z</time></trkpt><trkpt lat="43.8820633" lon="12.227385"><ele>572.25</ele><time>2026-04-26T11:13:01.026Z</time></trkpt><trkpt lat="43.881955" lon="12.227405"><ele>573.0</ele><time>2026-04-26T11:13:02.022Z</time></trkpt><trkpt lat="43.881855" lon="12.2273633"><ele>572.25</ele><time>2026-04-26T11:13:03.024Z</time></trkpt><trkpt lat="43.88177" lon="12.2272717"><ele>571.5</ele><time>2026-04-26T11:13:04.022Z</time></trkpt><trkpt lat="43.8817483" lon="12.2271133"><ele>570.75</ele><time>2026-04-26T11:13:05.02Z</time></trkpt><trkpt lat="43.8817133" lon="12.2269567"><ele>570.0</ele><time>2026-04-26T11:13:06.026Z</time></trkpt><trkpt lat="43.8816183" lon="12.2268817"><ele>573.2</ele><time>2026-04-26T11:13:08.024Z</time></trkpt><trkpt lat="43.88153" lon="12.2269317"><ele>576.4</ele><time>2026-04-26T11:13:10.023Z</time></trkpt><trkpt lat="43.881515" lon="12.2271167"><ele>579.6</ele><time>2026-04-26T11:13:12.022Z</time></trkpt><trkpt lat="43.8814883" lon="12.2272517"><ele>582.8</ele><time>2026-04-26T11:13:13.021Z</time></trkpt><trkpt lat="43.881465" lon="12.22739"><ele>586.0</ele><time>2026-04-26T11:13:14.023Z</time></trkpt><trkpt lat="43.88142" lon="12.2275083"><ele>586.0</ele><time>2026-04-26T11:13:15.022Z</time></trkpt><trkpt lat="43.88135" lon="12.2275617"><ele>586.0</ele><time>2026-04-26T11:13:16.022Z</time></trkpt><trkpt lat="43.8812783" lon="12.22754"><ele>586.0</ele><time>2026-04-26T11:13:17.022Z</time></trkpt><trkpt lat="43.8812267" lon="12.2274583"><ele>586.0</ele><time>2026-04-26T11:13:18.025Z</time></trkpt><trkpt lat="43.8812017" lon="12.2273083"><ele>586.0</ele><time>2026-04-26T11:13:19.026Z</time></trkpt><trkpt lat="43.8811633" lon="12.227175"><ele>586.0</ele><time>2026-04-26T11:13:20.022Z</time></trkpt><trkpt lat="43.8811533" lon="12.2270233"><ele>586.0</ele><time>2026-04-26T11:13:21.024Z</time></trkpt><trkpt lat="43.8810983" lon="12.226915"><ele>586.0</ele><time>2026-04-26T11:13:22.024Z</time></trkpt><trkpt lat="43.881045" lon="12.22684"><ele>586.0</ele><time>2026-04-26T11:13:23.023Z</time></trkpt><trkpt lat="43.8809783" lon="12.2268267"><ele>586.0</ele><time>2026-04-26T11:13:24.024Z</time></trkpt><trkpt lat="43.8809233" lon="12.2268883"><ele>586.0</ele><time>2026-04-26T11:13:25.026Z</time></trkpt><trkpt lat="43.8808867" lon="12.2270317"><ele>586.0</ele><time>2026-04-26T11:13:26.023Z</time></trkpt><trkpt lat="43.88085" lon="12.2271183"><ele>589.4</ele><time>2026-04-26T11:13:27.022Z</time></trkpt><trkpt lat="43.880785" lon="12.227225"><ele>592.8</ele><time>2026-04-26T11:13:28.021Z</time></trkpt><trkpt lat="43.880725" lon="12.2273033"><ele>596.1999999999999</ele><time>2026-04-26T11:13:29.025Z</time></trkpt><trkpt lat="43.8806483" lon="12.22735"><ele>599.6</ele><time>2026-04-26T11:13:30.021Z</time></trkpt><trkpt lat="43.8805517" lon="12.2273233"><ele>603.0</ele><time>2026-04-26T11:13:31.021Z</time></trkpt><trkpt lat="43.880465" lon="12.2272683"><ele>603.0</ele><time>2026-04-26T11:13:32.021Z</time></trkpt><trkpt lat="43.8804" lon="12.2271667"><ele>603.0</ele><time>2026-04-26T11:13:33.023Z</time></trkpt><trkpt lat="43.8803783" lon="12.22701"><ele>603.0</ele><time>2026-04-26T11:13:34.022Z</time></trkpt><trkpt lat="43.8803583" lon="12.2268483"><ele>603.0</ele><time>2026-04-26T11:13:35.023Z</time></trkpt><trkpt lat="43.8803" lon="12.22669"><ele>603.0</ele><time>2026-04-26T11:13:36.024Z</time></trkpt><trkpt lat="43.880275" lon="12.2264883"><ele>603.0</ele><time>2026-04-26T11:13:37.023Z</time></trkpt><trkpt lat="43.8801933" lon="12.2263033"><ele>603.0</ele><time>2026-04-26T11:13:38.022Z</time></trkpt><trkpt lat="43.8801533" lon="12.226115"><ele>603.0</ele><time>2026-04-26T11:13:39.023Z</time></trkpt><trkpt lat="43.8800867" lon="12.2259033"><ele>609.6666666666666</ele><time>2026-04-26T11:13:40.025Z</time></trkpt><trkpt lat="43.8800167" lon="12.2256967"><ele>616.3333333333333</ele><time>2026-04-26T11:13:41.026Z</time></trkpt><trkpt lat="43.8799667" lon="12.225495"><ele>623.0</ele><time>2026-04-26T11:13:42.021Z</time></trkpt><trkpt lat="43.8798917" lon="12.22534"><ele>624.75</ele><time>2026-04-26T11:13:43.022Z</time></trkpt><trkpt lat="43.8798283" lon="12.2251667"><ele>626.5</ele><time>2026-04-26T11:13:44.023Z</time></trkpt><trkpt lat="43.8797733" lon="12.2249933"><ele>628.25</ele><time>2026-04-26T11:13:45.027Z</time></trkpt><trkpt lat="43.8797" lon="12.2248167"><ele>630.0</ele><time>2026-04-26T11:13:46.024Z</time></trkpt><trkpt lat="43.8795933" lon="12.22469"><ele>631.0</ele><time>2026-04-26T11:13:47.022Z</time></trkpt><trkpt lat="43.8794533" lon="12.2246183"><ele>632.0</ele><time>2026-04-26T11:13:48.022Z</time></trkpt><trkpt lat="43.8793483" lon="12.2244767"><ele>633.0</ele><time>2026-04-26T11:13:49.023Z</time></trkpt><trkpt lat="43.8792317" lon="12.22437"><ele>634.0</ele><time>2026-04-26T11:13:50.024Z</time></trkpt><trkpt lat="43.8791133" lon="12.2242983"><ele>636.8</ele><time>2026-04-26T11:13:51.025Z</time></trkpt><trkpt lat="43.8790183" lon="12.2243333"><ele>639.5999999999999</ele><time>2026-04-26T11:13:52.022Z</time></trkpt><trkpt lat="43.87892" lon="12.2242767"><ele>642.4</ele><time>2026-04-26T11:13:53.026Z</time></trkpt><trkpt lat="43.8788167" lon="12.2242483"><ele>645.1999999999999</ele><time>2026-04-26T11:13:54.023Z</time></trkpt><trkpt lat="43.8787133" lon="12.2242933"><ele>648.0</ele><time>2026-04-26T11:13:55.022Z</time></trkpt><trkpt lat="43.8786083" lon="12.2243617"><ele>648.0</ele><time>2026-04-26T11:13:56.024Z</time></trkpt><trkpt lat="43.8784817" lon="12.2243567"><ele>648.0</ele><time>2026-04-26T11:13:57.021Z</time></trkpt><trkpt lat="43.878355" lon="12.2244383"><ele>648.0</ele><time>2026-04-26T11:13:58.025Z</time></trkpt><trkpt lat="43.87821" lon="12.2244933"><ele>648.0</ele><time>2026-04-26T11:13:59.025Z</time></trkpt><trkpt lat="43.8780567" lon="12.2244833"><ele>648.3333333333334</ele><time>2026-04-26T11:14:00.025Z</time></trkpt><trkpt lat="43.8779083" lon="12.224565"><ele>648.6666666666667</ele><time>2026-04-26T11:14:01.023Z</time></trkpt><trkpt lat="43.87773" lon="12.2245417"><ele>649.0</ele><time>2026-04-26T11:14:02.021Z</time></trkpt><trkpt lat="43.8775583" lon="12.2245467"><ele>650.0</ele><time>2026-04-26T11:14:03.025Z</time></trkpt><trkpt lat="43.8774183" lon="12.2244683"><ele>651.0</ele><time>2026-04-26T11:14:04.025Z</time></trkpt><trkpt lat="43.8772583" lon="12.2244117"><ele>652.0</ele><time>2026-04-26T11:14:05.022Z</time></trkpt><trkpt lat="43.8771217" lon="12.2244533"><ele>652.0</ele><time>2026-04-26T11:14:06.024Z</time></trkpt><trkpt lat="43.8769883" lon="12.224445"><ele>652.0</ele><time>2026-04-26T11:14:07.025Z</time></trkpt><trkpt lat="43.8768433" lon="12.2245167"><ele>652.0</ele><time>2026-04-26T11:14:08.026Z</time></trkpt><trkpt lat="43.8767133" lon="12.2245583"><ele>652.0</ele><time>2026-04-26T11:14:09.024Z</time></trkpt><trkpt lat="43.8766" lon="12.2245467"><ele>653.5</ele><time>2026-04-26T11:14:10.022Z</time></trkpt><trkpt lat="43.8765117" lon="12.2244667"><ele>655.0</ele><time>2026-04-26T11:14:11.021Z</time></trkpt><trkpt lat="43.8764483" lon="12.2243417"><ele>656.5</ele><time>2026-04-26T11:14:12.022Z</time></trkpt><trkpt lat="43.8764117" lon="12.2241733"><ele>658.0</ele><time>2026-04-26T11:14:13.107Z</time></trkpt><trkpt lat="43.876415" lon="12.2239717"><ele>658.25</ele><time>2026-04-26T11:14:14.024Z</time></trkpt><trkpt lat="43.8764067" lon="12.22376"><ele>658.5</ele><time>2026-04-26T11:14:15.023Z</time></trkpt><trkpt lat="43.8763883" lon="12.22356"><ele>658.75</ele><time>2026-04-26T11:14:16.023Z</time></trkpt><trkpt lat="43.8764117" lon="12.223385"><ele>659.0</ele><time>2026-04-26T11:14:17.023Z</time></trkpt><trkpt lat="43.8764333" lon="12.2232233"><ele>659.25</ele><time>2026-04-26T11:14:18.024Z</time></trkpt><trkpt lat="43.8764833" lon="12.223075"><ele>659.5</ele><time>2026-04-26T11:14:19.025Z</time></trkpt><trkpt lat="43.8765633" lon="12.2229433"><ele>659.75</ele><time>2026-04-26T11:14:20.024Z</time></trkpt><trkpt lat="43.8766317" lon="12.2228167"><ele>660.0</ele><time>2026-04-26T11:14:21.022Z</time></trkpt><trkpt lat="43.8766467" lon="12.2226833"><ele>660.0</ele><time>2026-04-26T11:14:22.024Z</time></trkpt><trkpt lat="43.8766683" lon="12.2225667"><ele>660.0</ele><time>2026-04-26T11:14:23.023Z</time></trkpt><trkpt lat="43.8766633" lon="12.2224333"><ele>660.0</ele><time>2026-04-26T11:14:24.024Z</time></trkpt><trkpt lat="43.8766117" lon="12.2223083"><ele>660.0</ele><time>2026-04-26T11:14:25.022Z</time></trkpt><trkpt lat="43.87653" lon="12.2222017"><ele>660.0</ele><time>2026-04-26T11:14:26.023Z</time></trkpt><trkpt lat="43.8764517" lon="12.2220983"><ele>658.25</ele><time>2026-04-26T11:14:27.024Z</time></trkpt><trkpt lat="43.8763733" lon="12.22199"><ele>656.5</ele><time>2026-04-26T11:14:28.023Z</time></trkpt><trkpt lat="43.876255" lon="12.221945"><ele>654.75</ele><time>2026-04-26T11:14:29.023Z</time></trkpt><trkpt lat="43.8761233" lon="12.2218983"><ele>653.0</ele><time>2026-04-26T11:14:30.023Z</time></trkpt><trkpt lat="43.8759833" lon="12.221875"><ele>655.75</ele><time>2026-04-26T11:14:31.024Z</time></trkpt><trkpt lat="43.875875" lon="12.221775"><ele>658.5</ele><time>2026-04-26T11:14:32.023Z</time></trkpt><trkpt lat="43.8757283" lon="12.2217333"><ele>661.25</ele><time>2026-04-26T11:14:33.024Z</time></trkpt><trkpt lat="43.8755967" lon="12.221655"><ele>664.0</ele><time>2026-04-26T11:14:34.023Z</time></trkpt><trkpt lat="43.8754883" lon="12.2215383"><ele>662.75</ele><time>2026-04-26T11:14:35.024Z</time></trkpt><trkpt lat="43.8753683" lon="12.22143"><ele>661.5</ele><time>2026-04-26T11:14:36.023Z</time></trkpt><trkpt lat="43.8753017" lon="12.2213033"><ele>660.25</ele><time>2026-04-26T11:14:37.025Z</time></trkpt><trkpt lat="43.8752583" lon="12.22118"><ele>659.0</ele><time>2026-04-26T11:14:38.024Z</time></trkpt><trkpt lat="43.8752433" lon="12.221015"><ele>659.0</ele><time>2026-04-26T11:14:39.023Z</time></trkpt><trkpt lat="43.875175" lon="12.2208883"><ele>659.0</ele><time>2026-04-26T11:14:40.024Z</time></trkpt><trkpt lat="43.875185" lon="12.2207633"><ele>659.0</ele><time>2026-04-26T11:14:41.023Z</time></trkpt><trkpt lat="43.87517" lon="12.2206033"><ele>659.0</ele><time>2026-04-26T11:14:42.024Z</time></trkpt><trkpt lat="43.8751883" lon="12.22044"><ele>659.0</ele><time>2026-04-26T11:14:43.024Z</time></trkpt><trkpt lat="43.87512" lon="12.2203933"><ele>658.6</ele><time>2026-04-26T11:14:44.024Z</time></trkpt><trkpt lat="43.8751217" lon="12.2202667"><ele>658.2</ele><time>2026-04-26T11:14:45.024Z</time></trkpt><trkpt lat="43.8750983" lon="12.2201467"><ele>657.8000000000001</ele><time>2026-04-26T11:14:46.023Z</time></trkpt><trkpt lat="43.8750317" lon="12.2200417"><ele>657.4000000000001</ele><time>2026-04-26T11:14:47.102Z</time></trkpt><trkpt lat="43.8749233" lon="12.2199483"><ele>657.0</ele><time>2026-04-26T11:14:48.021Z</time></trkpt><trkpt lat="43.8748383" lon="12.2198267"><ele>661.25</ele><time>2026-04-26T11:14:49.022Z</time></trkpt><trkpt lat="43.8747267" lon="12.2197317"><ele>665.5</ele><time>2026-04-26T11:14:50.022Z</time></trkpt><trkpt lat="43.8746367" lon="12.2195933"><ele>669.75</ele><time>2026-04-26T11:14:51.025Z</time></trkpt><trkpt lat="43.874565" lon="12.219425"><ele>674.0</ele><time>2026-04-26T11:14:52.021Z</time></trkpt><trkpt lat="43.8744933" lon="12.2192433"><ele>674.0</ele><time>2026-04-26T11:14:53.023Z</time></trkpt><trkpt lat="43.8744883" lon="12.2190867"><ele>674.0</ele><time>2026-04-26T11:14:54.025Z</time></trkpt><trkpt lat="43.8745167" lon="12.2189683"><ele>674.0</ele><time>2026-04-26T11:14:55.023Z</time></trkpt><trkpt lat="43.8745583" lon="12.218875"><ele>674.0</ele><time>2026-04-26T11:14:56.021Z</time></trkpt><trkpt lat="43.8745867" lon="12.218765"><ele>674.0</ele><time>2026-04-26T11:14:58.023Z</time></trkpt><trkpt lat="43.874465" lon="12.2187167"><ele>675.0</ele><time>2026-04-26T11:15:01.023Z</time></trkpt><trkpt lat="43.8743817" lon="12.2187333"><ele>676.0</ele><time>2026-04-26T11:15:02.023Z</time></trkpt><trkpt lat="43.874275" lon="12.2187583"><ele>677.0</ele><time>2026-04-26T11:15:03.021Z</time></trkpt><trkpt lat="43.8741317" lon="12.21884"><ele>678.0</ele><time>2026-04-26T11:15:04.021Z</time></trkpt><trkpt lat="43.8739967" lon="12.218935"><ele>680.3333333333334</ele><time>2026-04-26T11:15:05.024Z</time></trkpt><trkpt lat="43.8738467" lon="12.2190117"><ele>682.6666666666667</ele><time>2026-04-26T11:15:06.023Z</time></trkpt><trkpt lat="43.8737017" lon="12.219075"><ele>685.0</ele><time>2026-04-26T11:15:07.021Z</time></trkpt><trkpt lat="43.8735917" lon="12.2191967"><ele>685.0</ele><time>2026-04-26T11:15:08.024Z</time></trkpt><trkpt lat="43.8734967" lon="12.2193217"><ele>685.0</ele><time>2026-04-26T11:15:09.025Z</time></trkpt><trkpt lat="43.873405" lon="12.2194467"><ele>685.0</ele><time>2026-04-26T11:15:10.022Z</time></trkpt><trkpt lat="43.87336" lon="12.2196017"><ele>685.0</ele><time>2026-04-26T11:15:11.022Z</time></trkpt><trkpt lat="43.8733733" lon="12.2197867"><ele>688.5</ele><time>2026-04-26T11:15:12.023Z</time></trkpt><trkpt lat="43.8733983" lon="12.2199683"><ele>692.0</ele><time>2026-04-26T11:15:13.026Z</time></trkpt><trkpt lat="43.873385" lon="12.220145"><ele>695.5</ele><time>2026-04-26T11:15:14.022Z</time></trkpt><trkpt lat="43.873405" lon="12.2203283"><ele>699.0</ele><time>2026-04-26T11:15:15.105Z</time></trkpt><trkpt lat="43.8734067" lon="12.2205083"><ele>702.0</ele><time>2026-04-26T11:15:16.024Z</time></trkpt><trkpt lat="43.8733483" lon="12.2206633"><ele>705.0</ele><time>2026-04-26T11:15:17.023Z</time></trkpt><trkpt lat="43.8732633" lon="12.2208083"><ele>708.0</ele><time>2026-04-26T11:15:18.022Z</time></trkpt><trkpt lat="43.87316" lon="12.2209333"><ele>711.0</ele><time>2026-04-26T11:15:19.025Z</time></trkpt><trkpt lat="43.873105" lon="12.2211167"><ele>711.0</ele><time>2026-04-26T11:15:20.023Z</time></trkpt><trkpt lat="43.8729933" lon="12.2212533"><ele>711.0</ele><time>2026-04-26T11:15:21.025Z</time></trkpt><trkpt lat="43.8728967" lon="12.2214117"><ele>711.0</ele><time>2026-04-26T11:15:22.024Z</time></trkpt><trkpt lat="43.87278" lon="12.2215533"><ele>712.6666666666666</ele><time>2026-04-26T11:15:23.023Z</time></trkpt><trkpt lat="43.8726533" lon="12.2216883"><ele>714.3333333333333</ele><time>2026-04-26T11:15:24.023Z</time></trkpt><trkpt lat="43.8724817" lon="12.22181"><ele>716.0</ele><time>2026-04-26T11:15:25.023Z</time></trkpt><trkpt lat="43.872385" lon="12.2220167"><ele>719.0</ele><time>2026-04-26T11:15:26.027Z</time></trkpt><trkpt lat="43.8722617" lon="12.2221717"><ele>722.0</ele><time>2026-04-26T11:15:27.025Z</time></trkpt><trkpt lat="43.8721383" lon="12.2223433"><ele>725.0</ele><time>2026-04-26T11:15:28.024Z</time></trkpt><trkpt lat="43.8720083" lon="12.22251"><ele>726.0</ele><time>2026-04-26T11:15:29.023Z</time></trkpt><trkpt lat="43.8718733" lon="12.2226817"><ele>727.0</ele><time>2026-04-26T11:15:30.024Z</time></trkpt><trkpt lat="43.87173" lon="12.22285"><ele>728.0</ele><time>2026-04-26T11:15:31.025Z</time></trkpt><trkpt lat="43.8715817" lon="12.2230117"><ele>732.0</ele><time>2026-04-26T11:15:32.024Z</time></trkpt><trkpt lat="43.8714483" lon="12.2231633"><ele>736.0</ele><time>2026-04-26T11:15:33.024Z</time></trkpt><trkpt lat="43.87134" lon="12.223305"><ele>740.0</ele><time>2026-04-26T11:15:34.022Z</time></trkpt><trkpt lat="43.87125" lon="12.2234383"><ele>740.0</ele><time>2026-04-26T11:15:35.021Z</time></trkpt><trkpt lat="43.8711717" lon="12.223525"><ele>740.0</ele><time>2026-04-26T11:15:36.025Z</time></trkpt><trkpt lat="43.8710983" lon="12.2235333"><ele>740.0</ele><time>2026-04-26T11:15:37.025Z</time></trkpt><trkpt lat="43.8710317" lon="12.2235067"><ele>740.0</ele><time>2026-04-26T11:15:38.023Z</time></trkpt><trkpt lat="43.8709933" lon="12.22341"><ele>740.0</ele><time>2026-04-26T11:15:39.022Z</time></trkpt><trkpt lat="43.870945" lon="12.2232917"><ele>740.0</ele><time>2026-04-26T11:15:40.024Z</time></trkpt><trkpt lat="43.870885" lon="12.2231467"><ele>742.5</ele><time>2026-04-26T11:15:41.022Z</time></trkpt><trkpt lat="43.8708117" lon="12.22301"><ele>745.0</ele><time>2026-04-26T11:15:42.025Z</time></trkpt><trkpt lat="43.870735" lon="12.2229233"><ele>747.5</ele><time>2026-04-26T11:15:43.023Z</time></trkpt><trkpt lat="43.8706733" lon="12.2229033"><ele>750.0</ele><time>2026-04-26T11:15:44.024Z</time></trkpt><trkpt lat="43.8706067" lon="12.2229033"><ele>752.5</ele><time>2026-04-26T11:15:45.023Z</time></trkpt><trkpt lat="43.8705517" lon="12.2229783"><ele>755.0</ele><time>2026-04-26T11:15:46.025Z</time></trkpt><trkpt lat="43.8705" lon="12.22308"><ele>755.0</ele><time>2026-04-26T11:15:47.026Z</time></trkpt><trkpt lat="43.8704533" lon="12.2232133"><ele>755.0</ele><time>2026-04-26T11:15:48.022Z</time></trkpt><trkpt lat="43.87041" lon="12.223335"><ele>755.0</ele><time>2026-04-26T11:15:49.025Z</time></trkpt><trkpt lat="43.8703533" lon="12.22344"><ele>755.0</ele><time>2026-04-26T11:15:50.027Z</time></trkpt><trkpt lat="43.8702733" lon="12.2234883"><ele>755.0</ele><time>2026-04-26T11:15:51.025Z</time></trkpt><trkpt lat="43.8701867" lon="12.2234817"><ele>757.6</ele><time>2026-04-26T11:15:52.027Z</time></trkpt><trkpt lat="43.870085" lon="12.2234117"><ele>760.2</ele><time>2026-04-26T11:15:53.028Z</time></trkpt><trkpt lat="43.86996" lon="12.2234517"><ele>762.8</ele><time>2026-04-26T11:15:55.025Z</time></trkpt><trkpt lat="43.8698833" lon="12.223505"><ele>765.4</ele><time>2026-04-26T11:15:56.025Z</time></trkpt><trkpt lat="43.8698133" lon="12.2235833"><ele>768.0</ele><time>2026-04-26T11:15:57.025Z</time></trkpt><trkpt lat="43.8697267" lon="12.2236083"><ele>768.0</ele><time>2026-04-26T11:15:58.024Z</time></trkpt><trkpt lat="43.8696" lon="12.2237233"><ele>768.0</ele><time>2026-04-26T11:15:59.023Z</time></trkpt><trkpt lat="43.8695083" lon="12.2239383"><ele>768.0</ele><time>2026-04-26T11:16:00.025Z</time></trkpt><trkpt lat="43.8693783" lon="12.2241067"><ele>769.0</ele><time>2026-04-26T11:16:01.027Z</time></trkpt><trkpt lat="43.8692583" lon="12.224285"><ele>770.0</ele><time>2026-04-26T11:16:02.026Z</time></trkpt><trkpt lat="43.8691417" lon="12.2244583"><ele>771.0</ele><time>2026-04-26T11:16:03.025Z</time></trkpt><trkpt lat="43.86902" lon="12.2245883"><ele>771.0</ele><time>2026-04-26T11:16:04.025Z</time></trkpt><trkpt lat="43.8689267" lon="12.2247083"><ele>771.0</ele><time>2026-04-26T11:16:05.024Z</time></trkpt><trkpt lat="43.868855" lon="12.2247967"><ele>771.0</ele><time>2026-04-26T11:16:06.025Z</time></trkpt><trkpt lat="43.8688067" lon="12.2248783"><ele>771.0</ele><time>2026-04-26T11:16:07.024Z</time></trkpt><trkpt lat="43.8688033" lon="12.2250667"><ele>771.0</ele><time>2026-04-26T11:16:09.025Z</time></trkpt><trkpt lat="43.86887" lon="12.22519"><ele>771.75</ele><time>2026-04-26T11:16:10.024Z</time></trkpt><trkpt lat="43.8689483" lon="12.2253333"><ele>772.5</ele><time>2026-04-26T11:16:11.023Z</time></trkpt><trkpt lat="43.869015" lon="12.22552"><ele>773.25</ele><time>2026-04-26T11:16:12.024Z</time></trkpt><trkpt lat="43.8691083" lon="12.2257067"><ele>774.0</ele><time>2026-04-26T11:16:13.024Z</time></trkpt><trkpt lat="43.86921" lon="12.225895"><ele>772.0</ele><time>2026-04-26T11:16:14.025Z</time></trkpt><trkpt lat="43.869275" lon="12.2260833"><ele>770.0</ele><time>2026-04-26T11:16:15.024Z</time></trkpt><trkpt lat="43.8693383" lon="12.2262717"><ele>768.0</ele><time>2026-04-26T11:16:16.024Z</time></trkpt><trkpt lat="43.8694083" lon="12.2264667"><ele>769.6666666666667</ele><time>2026-04-26T11:16:17.024Z</time></trkpt><trkpt lat="43.8694067" lon="12.2266783"><ele>771.3333333333334</ele><time>2026-04-26T11:16:18.021Z</time></trkpt><trkpt lat="43.8694317" lon="12.2269167"><ele>773.0</ele><time>2026-04-26T11:16:19.023Z</time></trkpt><trkpt lat="43.8695317" lon="12.2271783"><ele>774.0</ele><time>2026-04-26T11:16:20.027Z</time></trkpt><trkpt lat="43.8695883" lon="12.2274583"><ele>775.0</ele><time>2026-04-26T11:16:21.024Z</time></trkpt><trkpt lat="43.8696117" lon="12.2277433"><ele>776.0</ele><time>2026-04-26T11:16:22.023Z</time></trkpt><trkpt lat="43.8696567" lon="12.2280383"><ele>778.3333333333334</ele><time>2026-04-26T11:16:23.023Z</time></trkpt><trkpt lat="43.8697033" lon="12.22833"><ele>780.6666666666667</ele><time>2026-04-26T11:16:24.026Z</time></trkpt><trkpt lat="43.86975" lon="12.228605"><ele>783.0</ele><time>2026-04-26T11:16:25.026Z</time></trkpt><trkpt lat="43.86979" lon="12.2288633"><ele>786.0</ele><time>2026-04-26T11:16:26.026Z</time></trkpt><trkpt lat="43.86983" lon="12.2291167"><ele>789.0</ele><time>2026-04-26T11:16:27.023Z</time></trkpt><trkpt lat="43.8698683" lon="12.229365"><ele>792.0</ele><time>2026-04-26T11:16:28.027Z</time></trkpt><trkpt lat="43.8698883" lon="12.2296217"><ele>794.0</ele><time>2026-04-26T11:16:29.025Z</time></trkpt><trkpt lat="43.86993" lon="12.2298583"><ele>796.0</ele><time>2026-04-26T11:16:30.025Z</time></trkpt><trkpt lat="43.8699667" lon="12.2300933"><ele>798.0</ele><time>2026-04-26T11:16:31.023Z</time></trkpt><trkpt lat="43.87" lon="12.230325"><ele>798.0</ele><time>2026-04-26T11:16:32.024Z</time></trkpt><trkpt lat="43.8700317" lon="12.2305483"><ele>798.0</ele><time>2026-04-26T11:16:33.025Z</time></trkpt><trkpt lat="43.8700617" lon="12.2307533"><ele>798.0</ele><time>2026-04-26T11:16:34.023Z</time></trkpt><trkpt lat="43.8700967" lon="12.2309333"><ele>798.0</ele><time>2026-04-26T11:16:35.025Z</time></trkpt><trkpt lat="43.8701333" lon="12.23109"><ele>798.2</ele><time>2026-04-26T11:16:36.023Z</time></trkpt><trkpt lat="43.870185" lon="12.2312233"><ele>798.4</ele><time>2026-04-26T11:16:37.027Z</time></trkpt><trkpt lat="43.8702367" lon="12.23133"><ele>798.6</ele><time>2026-04-26T11:16:38.022Z</time></trkpt><trkpt lat="43.87027" lon="12.2314383"><ele>798.8000000000001</ele><time>2026-04-26T11:16:39.025Z</time></trkpt><trkpt lat="43.8702867" lon="12.231545"><ele>799.0</ele><time>2026-04-26T11:16:40.025Z</time></trkpt><trkpt lat="43.8702083" lon="12.2316717"><ele>799.0</ele><time>2026-04-26T11:16:42.026Z</time></trkpt><trkpt lat="43.8701383" lon="12.2317067"><ele>799.0</ele><time>2026-04-26T11:16:43.025Z</time></trkpt><trkpt lat="43.87002" lon="12.231695"><ele>799.0</ele><time>2026-04-26T11:16:44.025Z</time></trkpt><trkpt lat="43.8698767" lon="12.2317033"><ele>799.0</ele><time>2026-04-26T11:16:45.026Z</time></trkpt><trkpt lat="43.8697583" lon="12.2316267"><ele>800.5</ele><time>2026-04-26T11:16:46.025Z</time></trkpt><trkpt lat="43.8696167" lon="12.2316167"><ele>802.0</ele><time>2026-04-26T11:16:47.023Z</time></trkpt><trkpt lat="43.869485" lon="12.231555"><ele>803.5</ele><time>2026-04-26T11:16:48.025Z</time></trkpt><trkpt lat="43.8694217" lon="12.23143"><ele>805.0</ele><time>2026-04-26T11:16:49.026Z</time></trkpt><trkpt lat="43.8692933" lon="12.2313683"><ele>809.75</ele><time>2026-04-26T11:16:50.025Z</time></trkpt><trkpt lat="43.8691683" lon="12.2313017"><ele>814.5</ele><time>2026-04-26T11:16:51.024Z</time></trkpt><trkpt lat="43.8690317" lon="12.231205"><ele>819.25</ele><time>2026-04-26T11:16:52.025Z</time></trkpt><trkpt lat="43.86894" lon="12.2310417"><ele>824.0</ele><time>2026-04-26T11:16:53.026Z</time></trkpt><trkpt lat="43.8688117" lon="12.2308683"><ele>821.3333333333334</ele><time>2026-04-26T11:16:54.025Z</time></trkpt><trkpt lat="43.86877" lon="12.2306233"><ele>818.6666666666667</ele><time>2026-04-26T11:16:55.025Z</time></trkpt><trkpt lat="43.8686183" lon="12.23047"><ele>816.0</ele><time>2026-04-26T11:16:56.028Z</time></trkpt><trkpt lat="43.8685583" lon="12.2302767"><ele>816.0</ele><time>2026-04-26T11:16:57.025Z</time></trkpt><trkpt lat="43.8685333" lon="12.2300833"><ele>816.0</ele><time>2026-04-26T11:16:58.025Z</time></trkpt><trkpt lat="43.8685117" lon="12.2298983"><ele>816.0</ele><time>2026-04-26T11:16:59.024Z</time></trkpt><trkpt lat="43.8684667" lon="12.2297583"><ele>816.0</ele><time>2026-04-26T11:17:00.024Z</time></trkpt><trkpt lat="43.868455" lon="12.2296083"><ele>820.1999999999999</ele><time>2026-04-26T11:17:01.026Z</time></trkpt><trkpt lat="43.8684217" lon="12.2294833"><ele>824.4</ele><time>2026-04-26T11:17:02.025Z</time></trkpt><trkpt lat="43.868355" lon="12.2294"><ele>828.6</ele><time>2026-04-26T11:17:03.024Z</time></trkpt><trkpt lat="43.868295" lon="12.2292783"><ele>832.8</ele><time>2026-04-26T11:17:04.024Z</time></trkpt><trkpt lat="43.8682133" lon="12.2291867"><ele>837.0</ele><time>2026-04-26T11:17:05.023Z</time></trkpt><trkpt lat="43.8681267" lon="12.2291133"><ele>837.0</ele><time>2026-04-26T11:17:06.025Z</time></trkpt><trkpt lat="43.8680433" lon="12.2290817"><ele>837.0</ele><time>2026-04-26T11:17:07.023Z</time></trkpt><trkpt lat="43.8679533" lon="12.2290883"><ele>837.0</ele><time>2026-04-26T11:17:08.025Z</time></trkpt><trkpt lat="43.86787" lon="12.2291333"><ele>837.0</ele><time>2026-04-26T11:17:09.022Z</time></trkpt><trkpt lat="43.867785" lon="12.22921"><ele>837.0</ele><time>2026-04-26T11:17:10.023Z</time></trkpt><trkpt lat="43.8676867" lon="12.2293117"><ele>837.2</ele><time>2026-04-26T11:17:11.024Z</time></trkpt><trkpt lat="43.8676083" lon="12.22944"><ele>837.4000000000001</ele><time>2026-04-26T11:17:12.022Z</time></trkpt><trkpt lat="43.8675683" lon="12.2295767"><ele>837.5999999999999</ele><time>2026-04-26T11:17:13.022Z</time></trkpt><trkpt lat="43.867565" lon="12.229695"><ele>837.8</ele><time>2026-04-26T11:17:14.026Z</time></trkpt><trkpt lat="43.8675683" lon="12.229795"><ele>838.0</ele><time>2026-04-26T11:17:15.025Z</time></trkpt><trkpt lat="43.8675783" lon="12.229885"><ele>839.0</ele><time>2026-04-26T11:17:16.024Z</time></trkpt><trkpt lat="43.86762" lon="12.2299917"><ele>840.0</ele><time>2026-04-26T11:17:17.026Z</time></trkpt><trkpt lat="43.8676717" lon="12.230105"><ele>841.0</ele><time>2026-04-26T11:17:18.024Z</time></trkpt><trkpt lat="43.8677833" lon="12.2302133"><ele>842.0</ele><time>2026-04-26T11:17:19.024Z</time></trkpt><trkpt lat="43.86781" lon="12.2303633"><ele>843.0</ele><time>2026-04-26T11:17:20.024Z</time></trkpt><trkpt lat="43.8679083" lon="12.2304617"><ele>843.0</ele><time>2026-04-26T11:17:21.024Z</time></trkpt><trkpt lat="43.8679467" lon="12.2306033"><ele>843.0</ele><time>2026-04-26T11:17:22.023Z</time></trkpt><trkpt lat="43.86804" lon="12.2307133"><ele>843.0</ele><time>2026-04-26T11:17:23.023Z</time></trkpt><trkpt lat="43.8681467" lon="12.230785"><ele>843.0</ele><time>2026-04-26T11:17:24.024Z</time></trkpt><trkpt lat="43.8681317" lon="12.2309083"><ele>843.0</ele><time>2026-04-26T11:17:25.022Z</time></trkpt><trkpt lat="43.8682117" lon="12.231"><ele>844.0</ele><time>2026-04-26T11:17:26.025Z</time></trkpt><trkpt lat="43.8682783" lon="12.231085"><ele>845.0</ele><time>2026-04-26T11:17:27.027Z</time></trkpt><trkpt lat="43.8683233" lon="12.2311867"><ele>846.0</ele><time>2026-04-26T11:17:28.025Z</time></trkpt><trkpt lat="43.868365" lon="12.231285"><ele>847.0</ele><time>2026-04-26T11:17:29.027Z</time></trkpt><trkpt lat="43.8683967" lon="12.2313933"><ele>848.0</ele><time>2026-04-26T11:17:30.024Z</time></trkpt><trkpt lat="43.8684117" lon="12.23151"><ele>849.0</ele><time>2026-04-26T11:17:31.025Z</time></trkpt><trkpt lat="43.8684183" lon="12.2316283"><ele>851.0</ele><time>2026-04-26T11:17:32.024Z</time></trkpt><trkpt lat="43.86838" lon="12.23173"><ele>853.0</ele><time>2026-04-26T11:17:33.025Z</time></trkpt><trkpt lat="43.8683233" lon="12.2318217"><ele>855.0000000000001</ele><time>2026-04-26T11:17:34.022Z</time></trkpt><trkpt lat="43.8682417" lon="12.231885"><ele>857.0</ele><time>2026-04-26T11:17:35.024Z</time></trkpt><trkpt lat="43.86816" lon="12.2319717"><ele>859.0</ele><time>2026-04-26T11:17:36.026Z</time></trkpt><trkpt lat="43.868045" lon="12.2319667"><ele>859.0</ele><time>2026-04-26T11:17:37.025Z</time></trkpt><trkpt lat="43.8679117" lon="12.2319817"><ele>859.0</ele><time>2026-04-26T11:17:38.025Z</time></trkpt><trkpt lat="43.8677767" lon="12.231965"><ele>859.0</ele><time>2026-04-26T11:17:39.024Z</time></trkpt><trkpt lat="43.86765" lon="12.2319733"><ele>859.0</ele><time>2026-04-26T11:17:40.023Z</time></trkpt><trkpt lat="43.8675183" lon="12.2319633"><ele>859.75</ele><time>2026-04-26T11:17:41.026Z</time></trkpt><trkpt lat="43.867395" lon="12.23195"><ele>860.5</ele><time>2026-04-26T11:17:42.024Z</time></trkpt><trkpt lat="43.8672767" lon="12.231925"><ele>861.25</ele><time>2026-04-26T11:17:43.024Z</time></trkpt><trkpt lat="43.8671617" lon="12.2319017"><ele>862.0</ele><time>2026-04-26T11:17:44.023Z</time></trkpt><trkpt lat="43.867045" lon="12.2318733"><ele>862.0</ele><time>2026-04-26T11:17:45.024Z</time></trkpt><trkpt lat="43.8669317" lon="12.2318033"><ele>862.0</ele><time>2026-04-26T11:17:46.024Z</time></trkpt><trkpt lat="43.866815" lon="12.231825"><ele>862.0</ele><time>2026-04-26T11:17:47.025Z</time></trkpt><trkpt lat="43.86669" lon="12.2318233"><ele>862.0</ele><time>2026-04-26T11:17:48.023Z</time></trkpt><trkpt lat="43.8665667" lon="12.2318333"><ele>864.0</ele><time>2026-04-26T11:17:49.025Z</time></trkpt><trkpt lat="43.8664533" lon="12.2318283"><ele>866.0</ele><time>2026-04-26T11:17:50.025Z</time></trkpt><trkpt lat="43.866345" lon="12.2317467"><ele>868.0</ele><time>2026-04-26T11:17:51.023Z</time></trkpt><trkpt lat="43.86625" lon="12.2316467"><ele>870.0</ele><time>2026-04-26T11:17:52.025Z</time></trkpt><trkpt lat="43.86615" lon="12.231535"><ele>870.25</ele><time>2026-04-26T11:17:53.022Z</time></trkpt><trkpt lat="43.8660483" lon="12.2314333"><ele>870.5</ele><time>2026-04-26T11:17:54.024Z</time></trkpt><trkpt lat="43.865955" lon="12.2313317"><ele>870.75</ele><time>2026-04-26T11:17:55.023Z</time></trkpt><trkpt lat="43.8658517" lon="12.2312633"><ele>871.0</ele><time>2026-04-26T11:17:56.025Z</time></trkpt><trkpt lat="43.865735" lon="12.2312167"><ele>871.0</ele><time>2026-04-26T11:17:57.024Z</time></trkpt><trkpt lat="43.8656133" lon="12.2311983"><ele>871.0</ele><time>2026-04-26T11:17:58.024Z</time></trkpt><trkpt lat="43.8654917" lon="12.2311767"><ele>871.0</ele><time>2026-04-26T11:17:59.025Z</time></trkpt><trkpt lat="43.86536" lon="12.2311467"><ele>871.0</ele><time>2026-04-26T11:18:00.025Z</time></trkpt><trkpt lat="43.86523" lon="12.2311483"><ele>872.75</ele><time>2026-04-26T11:18:01.027Z</time></trkpt><trkpt lat="43.8650917" lon="12.2311467"><ele>874.5</ele><time>2026-04-26T11:18:02.025Z</time></trkpt><trkpt lat="43.8649433" lon="12.2311633"><ele>876.25</ele><time>2026-04-26T11:18:03.026Z</time></trkpt><trkpt lat="43.864795" lon="12.23114"><ele>878.0</ele><time>2026-04-26T11:18:04.024Z</time></trkpt><trkpt lat="43.8646383" lon="12.2311483"><ele>878.0</ele><time>2026-04-26T11:18:05.024Z</time></trkpt><trkpt lat="43.8644817" lon="12.2311483"><ele>878.0</ele><time>2026-04-26T11:18:06.027Z</time></trkpt><trkpt lat="43.8643267" lon="12.2311217"><ele>878.0</ele><time>2026-04-26T11:18:07.024Z</time></trkpt><trkpt lat="43.864175" lon="12.2310867"><ele>878.5</ele><time>2026-04-26T11:18:08.024Z</time></trkpt><trkpt lat="43.86403" lon="12.2311033"><ele>879.0</ele><time>2026-04-26T11:18:09.025Z</time></trkpt><trkpt lat="43.8638867" lon="12.231095"><ele>879.5</ele><time>2026-04-26T11:18:10.026Z</time></trkpt><trkpt lat="43.8637367" lon="12.23108"><ele>880.0</ele><time>2026-04-26T11:18:11.024Z</time></trkpt><trkpt lat="43.8635933" lon="12.2310633"><ele>880.0</ele><time>2026-04-26T11:18:12.03Z</time></trkpt><trkpt lat="43.8634483" lon="12.2310483"><ele>880.0</ele><time>2026-04-26T11:18:13.025Z</time></trkpt><trkpt lat="43.8632933" lon="12.2310967"><ele>880.0</ele><time>2026-04-26T11:18:14.382Z</time></trkpt><trkpt lat="43.8631433" lon="12.2311833"><ele>881.6666666666666</ele><time>2026-04-26T11:18:15.579Z</time></trkpt><trkpt lat="43.8629817" lon="12.2311367"><ele>883.3333333333333</ele><time>2026-04-26T11:18:16.525Z</time></trkpt><trkpt lat="43.8627617" lon="12.2310783"><ele>885.0</ele><time>2026-04-26T11:18:18.026Z</time></trkpt><trkpt lat="43.8626233" lon="12.2309917"><ele>886.6</ele><time>2026-04-26T11:18:19.024Z</time></trkpt><trkpt lat="43.862545" lon="12.2309017"><ele>888.2</ele><time>2026-04-26T11:18:20.024Z</time></trkpt><trkpt lat="43.8624433" lon="12.2308383"><ele>889.8</ele><time>2026-04-26T11:18:21.025Z</time></trkpt><trkpt lat="43.8623533" lon="12.2307783"><ele>891.4</ele><time>2026-04-26T11:18:22.024Z</time></trkpt><trkpt lat="43.8622533" lon="12.2307167"><ele>893.0</ele><time>2026-04-26T11:18:24.027Z</time></trkpt><trkpt lat="43.8621617" lon="12.23069"><ele>893.0000000000001</ele><time>2026-04-26T11:18:26.024Z</time></trkpt><trkpt lat="43.8621233" lon="12.2307833"><ele>893.0</ele><time>2026-04-26T11:18:28.023Z</time></trkpt><trkpt lat="43.8621017" lon="12.2309083"><ele>893.0</ele><time>2026-04-26T11:18:30.022Z</time></trkpt><trkpt lat="43.862145" lon="12.23103"><ele>893.0</ele><time>2026-04-26T11:18:32.024Z</time></trkpt><trkpt lat="43.8622183" lon="12.2310817"><ele>893.0000000000001</ele><time>2026-04-26T11:18:33.023Z</time></trkpt><trkpt lat="43.8623017" lon="12.231145"><ele>893.0</ele><time>2026-04-26T11:18:34.023Z</time></trkpt><trkpt lat="43.86241" lon="12.2312133"><ele>893.0</ele><time>2026-04-26T11:18:35.022Z</time></trkpt><trkpt lat="43.8625017" lon="12.2312767"><ele>893.0</ele><time>2026-04-26T11:18:36.022Z</time></trkpt><trkpt lat="43.8626033" lon="12.2313383"><ele>893.0</ele><time>2026-04-26T11:18:37.022Z</time></trkpt><trkpt lat="43.8626967" lon="12.2314117"><ele>893.0</ele><time>2026-04-26T11:18:38.023Z</time></trkpt><trkpt lat="43.8627917" lon="12.2314933"><ele>893.0</ele><time>2026-04-26T11:18:39.023Z</time></trkpt><trkpt lat="43.8628933" lon="12.231565"><ele>893.75</ele><time>2026-04-26T11:18:40.025Z</time></trkpt><trkpt lat="43.863005" lon="12.2316533"><ele>894.5</ele><time>2026-04-26T11:18:41.023Z</time></trkpt><trkpt lat="43.8631183" lon="12.2317717"><ele>895.25</ele><time>2026-04-26T11:18:42.023Z</time></trkpt><trkpt lat="43.8632417" lon="12.2318583"><ele>896.0</ele><time>2026-04-26T11:18:43.025Z</time></trkpt><trkpt lat="43.86334" lon="12.231955"><ele>896.0</ele><time>2026-04-26T11:18:44.024Z</time></trkpt><trkpt lat="43.8634367" lon="12.23206"><ele>896.0</ele><time>2026-04-26T11:18:45.025Z</time></trkpt><trkpt lat="43.863555" lon="12.2321733"><ele>896.0</ele><time>2026-04-26T11:18:46.023Z</time></trkpt><trkpt lat="43.86367" lon="12.23229"><ele>896.0</ele><time>2026-04-26T11:18:47.024Z</time></trkpt><trkpt lat="43.8637783" lon="12.2323967"><ele>897.75</ele><time>2026-04-26T11:18:48.024Z</time></trkpt><trkpt lat="43.8638833" lon="12.2324967"><ele>899.5</ele><time>2026-04-26T11:18:49.024Z</time></trkpt><trkpt lat="43.8639717" lon="12.2326267"><ele>901.25</ele><time>2026-04-26T11:18:50.026Z</time></trkpt><trkpt lat="43.864075" lon="12.2327333"><ele>903.0</ele><time>2026-04-26T11:18:51.027Z</time></trkpt><trkpt lat="43.8641733" lon="12.2328367"><ele>903.5</ele><time>2026-04-26T11:18:52.025Z</time></trkpt><trkpt lat="43.8642817" lon="12.2329383"><ele>904.0</ele><time>2026-04-26T11:18:53.024Z</time></trkpt><trkpt lat="43.8643933" lon="12.2330483"><ele>904.5</ele><time>2026-04-26T11:18:54.025Z</time></trkpt><trkpt lat="43.8645" lon="12.2331683"><ele>905.0</ele><time>2026-04-26T11:18:55.023Z</time></trkpt><trkpt lat="43.8646083" lon="12.2332933"><ele>905.0</ele><time>2026-04-26T11:18:56.027Z</time></trkpt><trkpt lat="43.86472" lon="12.2334167"><ele>905.0</ele><time>2026-04-26T11:18:57.025Z</time></trkpt><trkpt lat="43.8648283" lon="12.233535"><ele>905.0</ele><time>2026-04-26T11:18:58.024Z</time></trkpt><trkpt lat="43.8649333" lon="12.23365"><ele>905.0</ele><time>2026-04-26T11:18:59.023Z</time></trkpt><trkpt lat="43.865025" lon="12.2337617"><ele>905.0</ele><time>2026-04-26T11:19:00.026Z</time></trkpt><trkpt lat="43.8651083" lon="12.2338617"><ele>905.0</ele><time>2026-04-26T11:19:01.024Z</time></trkpt><trkpt lat="43.8651917" lon="12.233945"><ele>905.0</ele><time>2026-04-26T11:19:02.026Z</time></trkpt><trkpt lat="43.8652783" lon="12.2340133"><ele>905.0</ele><time>2026-04-26T11:19:03.025Z</time></trkpt><trkpt lat="43.865365" lon="12.2340817"><ele>905.0</ele><time>2026-04-26T11:19:04.023Z</time></trkpt><trkpt lat="43.8654233" lon="12.2341583"><ele>906.5000000000001</ele><time>2026-04-26T11:19:05.025Z</time></trkpt><trkpt lat="43.8654967" lon="12.2342217"><ele>908.0</ele><time>2026-04-26T11:19:06.024Z</time></trkpt><trkpt lat="43.8655783" lon="12.2343017"><ele>909.5</ele><time>2026-04-26T11:19:07.024Z</time></trkpt><trkpt lat="43.8656217" lon="12.234395"><ele>911.0</ele><time>2026-04-26T11:19:08.024Z</time></trkpt><trkpt lat="43.8656533" lon="12.2344817"><ele>912.5000000000001</ele><time>2026-04-26T11:19:09.024Z</time></trkpt><trkpt lat="43.8656867" lon="12.2346283"><ele>914.0</ele><time>2026-04-26T11:19:11.024Z</time></trkpt><trkpt lat="43.8656617" lon="12.23473"><ele>914.0</ele><time>2026-04-26T11:19:13.025Z</time></trkpt><trkpt lat="43.8654533" lon="12.2346917"><ele>914.0</ele><time>2026-04-26T11:19:15.024Z</time></trkpt><trkpt lat="43.8653233" lon="12.2346733"><ele>914.0</ele><time>2026-04-26T11:19:16.024Z</time></trkpt><trkpt lat="43.865165" lon="12.2346583"><ele>914.3333333333334</ele><time>2026-04-26T11:19:17.025Z</time></trkpt><trkpt lat="43.8649733" lon="12.2346467"><ele>914.6666666666667</ele><time>2026-04-26T11:19:18.023Z</time></trkpt><trkpt lat="43.8647967" lon="12.23464"><ele>915.0</ele><time>2026-04-26T11:19:19.024Z</time></trkpt><trkpt lat="43.864625" lon="12.2346283"><ele>915.0</ele><time>2026-04-26T11:19:20.025Z</time></trkpt><trkpt lat="43.8644583" lon="12.2346233"><ele>915.0</ele><time>2026-04-26T11:19:21.024Z</time></trkpt><trkpt lat="43.864305" lon="12.234605"><ele>915.0</ele><time>2026-04-26T11:19:22.026Z</time></trkpt><trkpt lat="43.86416" lon="12.2345767"><ele>915.0</ele><time>2026-04-26T11:19:23.023Z</time></trkpt><trkpt lat="43.8640167" lon="12.2345367"><ele>915.0</ele><time>2026-04-26T11:19:24.025Z</time></trkpt><trkpt lat="43.8638733" lon="12.2344867"><ele>915.0</ele><time>2026-04-26T11:19:25.024Z</time></trkpt><trkpt lat="43.863725" lon="12.2344267"><ele>915.0</ele><time>2026-04-26T11:19:26.023Z</time></trkpt><trkpt lat="43.86357" lon="12.234355"><ele>914.6666666666667</ele><time>2026-04-26T11:19:27.024Z</time></trkpt><trkpt lat="43.863395" lon="12.23428"><ele>914.3333333333334</ele><time>2026-04-26T11:19:28.024Z</time></trkpt><trkpt lat="43.8632167" lon="12.234205"><ele>914.0</ele><time>2026-04-26T11:19:29.023Z</time></trkpt><trkpt lat="43.8630583" lon="12.2341317"><ele>914.0</ele><time>2026-04-26T11:19:30.024Z</time></trkpt><trkpt lat="43.8629067" lon="12.234065"><ele>914.0</ele><time>2026-04-26T11:19:31.024Z</time></trkpt><trkpt lat="43.862755" lon="12.234"><ele>914.0</ele><time>2026-04-26T11:19:32.024Z</time></trkpt><trkpt lat="43.8626033" lon="12.23393"><ele>914.25</ele><time>2026-04-26T11:19:33.025Z</time></trkpt><trkpt lat="43.86246" lon="12.23386"><ele>914.5</ele><time>2026-04-26T11:19:34.024Z</time></trkpt><trkpt lat="43.8623267" lon="12.2337967"><ele>914.75</ele><time>2026-04-26T11:19:35.023Z</time></trkpt><trkpt lat="43.8622033" lon="12.2337417"><ele>915.0</ele><time>2026-04-26T11:19:36.028Z</time></trkpt><trkpt lat="43.8620967" lon="12.2337017"><ele>915.0</ele><time>2026-04-26T11:19:37.025Z</time></trkpt><trkpt lat="43.8620017" lon="12.2336533"><ele>915.0</ele><time>2026-04-26T11:19:38.023Z</time></trkpt><trkpt lat="43.8619167" lon="12.2335967"><ele>915.0</ele><time>2026-04-26T11:19:39.023Z</time></trkpt><trkpt lat="43.86184" lon="12.2335217"><ele>915.0</ele><time>2026-04-26T11:19:40.024Z</time></trkpt><trkpt lat="43.861765" lon="12.23342"><ele>915.0</ele><time>2026-04-26T11:19:41.028Z</time></trkpt><trkpt lat="43.86169" lon="12.2332867"><ele>914.5</ele><time>2026-04-26T11:19:42.025Z</time></trkpt><trkpt lat="43.86162" lon="12.2331167"><ele>914.0</ele><time>2026-04-26T11:19:43.024Z</time></trkpt><trkpt lat="43.8615517" lon="12.2329267"><ele>913.5</ele><time>2026-04-26T11:19:44.025Z</time></trkpt><trkpt lat="43.861485" lon="12.2327383"><ele>913.0</ele><time>2026-04-26T11:19:45.025Z</time></trkpt><trkpt lat="43.8614183" lon="12.2325567"><ele>913.0</ele><time>2026-04-26T11:19:46.024Z</time></trkpt><trkpt lat="43.8613533" lon="12.2323733"><ele>913.0</ele><time>2026-04-26T11:19:47.027Z</time></trkpt><trkpt lat="43.8612967" lon="12.2321867"><ele>913.0</ele><time>2026-04-26T11:19:48.026Z</time></trkpt><trkpt lat="43.86123" lon="12.2320017"><ele>913.0</ele><time>2026-04-26T11:19:49.024Z</time></trkpt><trkpt lat="43.86117" lon="12.2318367"><ele>913.0</ele><time>2026-04-26T11:19:50.024Z</time></trkpt><trkpt lat="43.861115" lon="12.2316917"><ele>913.0</ele><time>2026-04-26T11:19:51.026Z</time></trkpt><trkpt lat="43.8610567" lon="12.2315667"><ele>913.0</ele><time>2026-04-26T11:19:52.026Z</time></trkpt><trkpt lat="43.8610117" lon="12.2314683"><ele>913.0</ele><time>2026-04-26T11:19:53.024Z</time></trkpt><trkpt lat="43.8609633" lon="12.231385"><ele>913.0</ele><time>2026-04-26T11:19:54.032Z</time></trkpt><trkpt lat="43.8609267" lon="12.2313133"><ele>910.5999999999999</ele><time>2026-04-26T11:19:55.024Z</time></trkpt><trkpt lat="43.860895" lon="12.2311817"><ele>908.1999999999999</ele><time>2026-04-26T11:19:57.023Z</time></trkpt><trkpt lat="43.8609367" lon="12.231065"><ele>905.8</ele><time>2026-04-26T11:19:59.025Z</time></trkpt><trkpt lat="43.8610033" lon="12.2310633"><ele>903.4</ele><time>2026-04-26T11:20:00.027Z</time></trkpt><trkpt lat="43.8611317" lon="12.2311183"><ele>901.0</ele><time>2026-04-26T11:20:02.024Z</time></trkpt><trkpt lat="43.8611917" lon="12.231205"><ele>900.5999999999999</ele><time>2026-04-26T11:20:03.024Z</time></trkpt><trkpt lat="43.861255" lon="12.2313433"><ele>900.1999999999999</ele><time>2026-04-26T11:20:04.025Z</time></trkpt><trkpt lat="43.8613" lon="12.231475"><ele>899.8000000000001</ele><time>2026-04-26T11:20:05.023Z</time></trkpt><trkpt lat="43.8613417" lon="12.2315867"><ele>899.4000000000001</ele><time>2026-04-26T11:20:06.025Z</time></trkpt><trkpt lat="43.8613883" lon="12.231665"><ele>899.0</ele><time>2026-04-26T11:20:07.023Z</time></trkpt><trkpt lat="43.8614617" lon="12.2317"><ele>899.0</ele><time>2026-04-26T11:20:09.025Z</time></trkpt><trkpt lat="43.86148" lon="12.2315967"><ele>899.0000000000001</ele><time>2026-04-26T11:20:12.024Z</time></trkpt><trkpt lat="43.8614267" lon="12.2314483"><ele>899.0000000000001</ele><time>2026-04-26T11:20:14.027Z</time></trkpt><trkpt lat="43.8613867" lon="12.2313483"><ele>899.0</ele><time>2026-04-26T11:20:15.025Z</time></trkpt><trkpt lat="43.8613417" lon="12.231235"><ele>899.0</ele><time>2026-04-26T11:20:16.023Z</time></trkpt><trkpt lat="43.8612933" lon="12.231135"><ele>899.0</ele><time>2026-04-26T11:20:17.028Z</time></trkpt><trkpt lat="43.86123" lon="12.2310467"><ele>899.0000000000001</ele><time>2026-04-26T11:20:18.024Z</time></trkpt><trkpt lat="43.8611467" lon="12.2309683"><ele>899.0000000000001</ele><time>2026-04-26T11:20:19.027Z</time></trkpt><trkpt lat="43.8610633" lon="12.2308933"><ele>899.0</ele><time>2026-04-26T11:20:20.023Z</time></trkpt><trkpt lat="43.8609883" lon="12.2308233"><ele>899.0</ele><time>2026-04-26T11:20:21.028Z</time></trkpt><trkpt lat="43.86091" lon="12.2307567"><ele>899.3333333333334</ele><time>2026-04-26T11:20:22.024Z</time></trkpt><trkpt lat="43.8608483" lon="12.2306783"><ele>899.6666666666667</ele><time>2026-04-26T11:20:23.026Z</time></trkpt><trkpt lat="43.8607967" lon="12.2306033"><ele>900.0</ele><time>2026-04-26T11:20:24.023Z</time></trkpt><trkpt lat="43.8607467" lon="12.2305317"><ele>900.3333333333333</ele><time>2026-04-26T11:20:25.027Z</time></trkpt><trkpt lat="43.8606967" lon="12.23047"><ele>900.6666666666666</ele><time>2026-04-26T11:20:26.024Z</time></trkpt><trkpt lat="43.860585" lon="12.2304267"><ele>901.0</ele><time>2026-04-26T11:20:28.023Z</time></trkpt><trkpt lat="43.8604667" lon="12.2304483"><ele>901.0</ele><time>2026-04-26T11:20:30.022Z</time></trkpt><trkpt lat="43.8603883" lon="12.2305633"><ele>900.9999999999999</ele><time>2026-04-26T11:20:32.028Z</time></trkpt><trkpt lat="43.8603667" lon="12.2306467"><ele>900.9999999999999</ele><time>2026-04-26T11:20:33.024Z</time></trkpt><trkpt lat="43.860375" lon="12.2308167"><ele>901.0</ele><time>2026-04-26T11:20:35.022Z</time></trkpt><trkpt lat="43.8604017" lon="12.2309033"><ele>901.0</ele><time>2026-04-26T11:20:36.024Z</time></trkpt><trkpt lat="43.8604633" lon="12.23105"><ele>900.9999999999999</ele><time>2026-04-26T11:20:38.023Z</time></trkpt><trkpt lat="43.8605133" lon="12.2311517"><ele>901.0</ele><time>2026-04-26T11:20:40.021Z</time></trkpt><trkpt lat="43.86051" lon="12.231245"><ele>901.0</ele><time>2026-04-26T11:20:42.024Z</time></trkpt><trkpt lat="43.860465" lon="12.2313067"><ele>901.0</ele><time>2026-04-26T11:20:44.024Z</time></trkpt><trkpt lat="43.8604017" lon="12.231265"><ele>900.9999999999999</ele><time>2026-04-26T11:20:46.024Z</time></trkpt><trkpt lat="43.8603333" lon="12.2311383"><ele>901.0</ele><time>2026-04-26T11:20:48.022Z</time></trkpt><trkpt lat="43.8602967" lon="12.2310483"><ele>901.0</ele><time>2026-04-26T11:20:49.023Z</time></trkpt><trkpt lat="43.86025" lon="12.2309467"><ele>900.9999999999999</ele><time>2026-04-26T11:20:50.023Z</time></trkpt><trkpt lat="43.8602" lon="12.2308367"><ele>900.9999999999999</ele><time>2026-04-26T11:20:51.024Z</time></trkpt><trkpt lat="43.86014" lon="12.2307233"><ele>901.0</ele><time>2026-04-26T11:20:52.024Z</time></trkpt><trkpt lat="43.8600817" lon="12.23061"><ele>901.0</ele><time>2026-04-26T11:20:53.024Z</time></trkpt><trkpt lat="43.8600233" lon="12.2304967"><ele>895.5999999999999</ele><time>2026-04-26T11:20:54.024Z</time></trkpt><trkpt lat="43.85996" lon="12.230385"><ele>890.1999999999999</ele><time>2026-04-26T11:20:55.024Z</time></trkpt><trkpt lat="43.8598817" lon="12.2302833"><ele>884.8000000000001</ele><time>2026-04-26T11:20:56.027Z</time></trkpt><trkpt lat="43.8597983" lon="12.230205"><ele>879.4000000000001</ele><time>2026-04-26T11:20:57.022Z</time></trkpt><trkpt lat="43.8596883" lon="12.2301217"><ele>874.0</ele><time>2026-04-26T11:20:58.023Z</time></trkpt><trkpt lat="43.8595767" lon="12.2300467"><ele>874.0</ele><time>2026-04-26T11:20:59.021Z</time></trkpt><trkpt lat="43.8594533" lon="12.22997"><ele>874.0</ele><time>2026-04-26T11:21:00.023Z</time></trkpt><trkpt lat="43.8593217" lon="12.2298883"><ele>874.0</ele><time>2026-04-26T11:21:01.025Z</time></trkpt><trkpt lat="43.85919" lon="12.2298067"><ele>874.0</ele><time>2026-04-26T11:21:02.023Z</time></trkpt><trkpt lat="43.8590683" lon="12.2297217"><ele>870.75</ele><time>2026-04-26T11:21:03.025Z</time></trkpt><trkpt lat="43.8589583" lon="12.2296383"><ele>867.5</ele><time>2026-04-26T11:21:04.024Z</time></trkpt><trkpt lat="43.8588533" lon="12.2295617"><ele>864.25</ele><time>2026-04-26T11:21:05.024Z</time></trkpt><trkpt lat="43.8587567" lon="12.2295033"><ele>861.0</ele><time>2026-04-26T11:21:06.023Z</time></trkpt><trkpt lat="43.8586533" lon="12.229465"><ele>861.0</ele><time>2026-04-26T11:21:07.025Z</time></trkpt><trkpt lat="43.8585517" lon="12.2294467"><ele>860.9999999999999</ele><time>2026-04-26T11:21:08.025Z</time></trkpt><trkpt lat="43.85845" lon="12.2294467"><ele>860.9999999999999</ele><time>2026-04-26T11:21:09.024Z</time></trkpt><trkpt lat="43.8583533" lon="12.2294583"><ele>861.0</ele><time>2026-04-26T11:21:10.025Z</time></trkpt><trkpt lat="43.858265" lon="12.2294717"><ele>861.0</ele><time>2026-04-26T11:21:11.025Z</time></trkpt><trkpt lat="43.85818" lon="12.22948"><ele>864.5999999999999</ele><time>2026-04-26T11:21:12.026Z</time></trkpt><trkpt lat="43.8581017" lon="12.229475"><ele>868.1999999999999</ele><time>2026-04-26T11:21:13.024Z</time></trkpt><trkpt lat="43.8580267" lon="12.2294517"><ele>871.8000000000001</ele><time>2026-04-26T11:21:14.024Z</time></trkpt><trkpt lat="43.85792" lon="12.2293883"><ele>875.4000000000001</ele><time>2026-04-26T11:21:16.022Z</time></trkpt><trkpt lat="43.8578233" lon="12.229395"><ele>879.0</ele><time>2026-04-26T11:21:18.027Z</time></trkpt><trkpt lat="43.8577567" lon="12.2294817"><ele>879.0</ele><time>2026-04-26T11:21:20.024Z</time></trkpt><trkpt lat="43.8577433" lon="12.2296317"><ele>879.0</ele><time>2026-04-26T11:21:22.023Z</time></trkpt><trkpt lat="43.85778" lon="12.2297033"><ele>879.0</ele><time>2026-04-26T11:21:23.024Z</time></trkpt><trkpt lat="43.8578383" lon="12.2297667"><ele>879.0</ele><time>2026-04-26T11:21:24.023Z</time></trkpt><trkpt lat="43.8578933" lon="12.2298117"><ele>879.0</ele><time>2026-04-26T11:21:25.024Z</time></trkpt><trkpt lat="43.8579783" lon="12.22989"><ele>879.0</ele><time>2026-04-26T11:21:27.023Z</time></trkpt><trkpt lat="43.8580067" lon="12.2299883"><ele>877.2</ele><time>2026-04-26T11:21:29.023Z</time></trkpt><trkpt lat="43.85797" lon="12.2300917"><ele>875.4000000000001</ele><time>2026-04-26T11:21:31.024Z</time></trkpt><trkpt lat="43.857875" lon="12.2300783"><ele>873.6</ele><time>2026-04-26T11:21:33.024Z</time></trkpt><trkpt lat="43.8578" lon="12.2300183"><ele>871.8</ele><time>2026-04-26T11:21:34.023Z</time></trkpt><trkpt lat="43.8577067" lon="12.229935"><ele>870.0</ele><time>2026-04-26T11:21:35.026Z</time></trkpt><trkpt lat="43.85761" lon="12.2298467"><ele>869.6</ele><time>2026-04-26T11:21:36.023Z</time></trkpt><trkpt lat="43.8575133" lon="12.22975"><ele>869.2</ele><time>2026-04-26T11:21:37.024Z</time></trkpt><trkpt lat="43.8574267" lon="12.2296583"><ele>868.8</ele><time>2026-04-26T11:21:38.023Z</time></trkpt><trkpt lat="43.8573533" lon="12.2295583"><ele>868.4</ele><time>2026-04-26T11:21:39.026Z</time></trkpt><trkpt lat="43.8572967" lon="12.2294517"><ele>868.0</ele><time>2026-04-26T11:21:40.024Z</time></trkpt><trkpt lat="43.8572533" lon="12.229325"><ele>868.0</ele><time>2026-04-26T11:21:41.023Z</time></trkpt><trkpt lat="43.85722" lon="12.2291867"><ele>868.0</ele><time>2026-04-26T11:21:42.025Z</time></trkpt><trkpt lat="43.8571833" lon="12.2290417"><ele>868.0</ele><time>2026-04-26T11:21:43.025Z</time></trkpt><trkpt lat="43.8571383" lon="12.2289017"><ele>868.0</ele><time>2026-04-26T11:21:44.024Z</time></trkpt><trkpt lat="43.85709" lon="12.2287633"><ele>868.0</ele><time>2026-04-26T11:21:45.025Z</time></trkpt><trkpt lat="43.8570483" lon="12.2286283"><ele>866.8333333333333</ele><time>2026-04-26T11:21:46.025Z</time></trkpt><trkpt lat="43.8570133" lon="12.2285033"><ele>865.6666666666666</ele><time>2026-04-26T11:21:47.025Z</time></trkpt><trkpt lat="43.8569883" lon="12.22838"><ele>864.5</ele><time>2026-04-26T11:21:48.025Z</time></trkpt><trkpt lat="43.8569817" lon="12.228265"><ele>863.3333333333333</ele><time>2026-04-26T11:21:49.025Z</time></trkpt><trkpt lat="43.8569933" lon="12.2281433"><ele>862.1666666666666</ele><time>2026-04-26T11:21:50.023Z</time></trkpt><trkpt lat="43.8570217" lon="12.2280267"><ele>861.0</ele><time>2026-04-26T11:21:51.027Z</time></trkpt><trkpt lat="43.8570417" lon="12.227905"><ele>859.3333333333334</ele><time>2026-04-26T11:21:52.027Z</time></trkpt><trkpt lat="43.8570433" lon="12.227785"><ele>857.6666666666667</ele><time>2026-04-26T11:21:53.025Z</time></trkpt><trkpt lat="43.85703" lon="12.2276633"><ele>856.0</ele><time>2026-04-26T11:21:54.025Z</time></trkpt><trkpt lat="43.8570033" lon="12.227545"><ele>854.3333333333334</ele><time>2026-04-26T11:21:55.026Z</time></trkpt><trkpt lat="43.856975" lon="12.22744"><ele>852.6666666666667</ele><time>2026-04-26T11:21:56.027Z</time></trkpt><trkpt lat="43.856945" lon="12.2273517"><ele>851.0</ele><time>2026-04-26T11:21:57.024Z</time></trkpt><trkpt lat="43.8568817" lon="12.2272333"><ele>849.0</ele><time>2026-04-26T11:21:59.026Z</time></trkpt><trkpt lat="43.8568233" lon="12.227165"><ele>847.0</ele><time>2026-04-26T11:22:01.024Z</time></trkpt><trkpt lat="43.85676" lon="12.2271383"><ele>845.0</ele><time>2026-04-26T11:22:04.024Z</time></trkpt><trkpt lat="43.856645" lon="12.22717"><ele>843.0</ele><time>2026-04-26T11:22:25.026Z</time></trkpt><trkpt lat="43.8565467" lon="12.227205"><ele>841.0</ele><time>2026-04-26T11:22:26.022Z</time></trkpt><trkpt lat="43.8564633" lon="12.22725"><ele>841.8</ele><time>2026-04-26T11:22:27.027Z</time></trkpt><trkpt lat="43.8563983" lon="12.2273133"><ele>842.5999999999999</ele><time>2026-04-26T11:22:28.025Z</time></trkpt><trkpt lat="43.8563217" lon="12.2274533"><ele>843.4</ele><time>2026-04-26T11:22:30.024Z</time></trkpt><trkpt lat="43.8563133" lon="12.22757"><ele>844.2</ele><time>2026-04-26T11:22:31.024Z</time></trkpt><trkpt lat="43.8562917" lon="12.2276917"><ele>845.0</ele><time>2026-04-26T11:22:32.025Z</time></trkpt><trkpt lat="43.856255" lon="12.227825"><ele>845.0</ele><time>2026-04-26T11:22:33.022Z</time></trkpt><trkpt lat="43.856185" lon="12.2279383"><ele>845.0</ele><time>2026-04-26T11:22:34.026Z</time></trkpt><trkpt lat="43.85609" lon="12.2280283"><ele>845.0</ele><time>2026-04-26T11:22:35.024Z</time></trkpt><trkpt lat="43.8559683" lon="12.228095"><ele>845.0</ele><time>2026-04-26T11:22:36.025Z</time></trkpt><trkpt lat="43.8558517" lon="12.228155"><ele>840.0</ele><time>2026-04-26T11:22:37.029Z</time></trkpt><trkpt lat="43.8557233" lon="12.2281783"><ele>835.0</ele><time>2026-04-26T11:22:38.024Z</time></trkpt><trkpt lat="43.8556" lon="12.22818"><ele>830.0</ele><time>2026-04-26T11:22:39.024Z</time></trkpt><trkpt lat="43.8554933" lon="12.228185"><ele>825.0</ele><time>2026-04-26T11:22:40.024Z</time></trkpt><trkpt lat="43.8553967" lon="12.2282033"><ele>825.0</ele><time>2026-04-26T11:22:41.025Z</time></trkpt><trkpt lat="43.8553067" lon="12.2282317"><ele>825.0</ele><time>2026-04-26T11:22:42.021Z</time></trkpt><trkpt lat="43.85522" lon="12.2282783"><ele>825.0</ele><time>2026-04-26T11:22:43.025Z</time></trkpt><trkpt lat="43.8551433" lon="12.2283583"><ele>825.0</ele><time>2026-04-26T11:22:44.025Z</time></trkpt><trkpt lat="43.8550767" lon="12.2284517"><ele>825.0</ele><time>2026-04-26T11:22:45.025Z</time></trkpt><trkpt lat="43.8549983" lon="12.22852"><ele>822.75</ele><time>2026-04-26T11:22:46.024Z</time></trkpt><trkpt lat="43.8549067" lon="12.2285717"><ele>820.5</ele><time>2026-04-26T11:22:47.025Z</time></trkpt><trkpt lat="43.8548017" lon="12.2286067"><ele>818.25</ele><time>2026-04-26T11:22:48.024Z</time></trkpt><trkpt lat="43.8546817" lon="12.2286417"><ele>816.0</ele><time>2026-04-26T11:22:49.025Z</time></trkpt><trkpt lat="43.85455" lon="12.2286783"><ele>816.0</ele><time>2026-04-26T11:22:50.024Z</time></trkpt><trkpt lat="43.854415" lon="12.2287133"><ele>816.0</ele><time>2026-04-26T11:22:51.028Z</time></trkpt><trkpt lat="43.8543" lon="12.228745"><ele>816.0</ele><time>2026-04-26T11:22:52.027Z</time></trkpt><trkpt lat="43.8542" lon="12.228775"><ele>816.0</ele><time>2026-04-26T11:22:53.026Z</time></trkpt><trkpt lat="43.8541033" lon="12.2287917"><ele>815.5</ele><time>2026-04-26T11:22:54.024Z</time></trkpt><trkpt lat="43.8540033" lon="12.22878"><ele>815.0</ele><time>2026-04-26T11:22:55.026Z</time></trkpt><trkpt lat="43.8538983" lon="12.2287383"><ele>814.5</ele><time>2026-04-26T11:22:56.022Z</time></trkpt><trkpt lat="43.8537917" lon="12.228675"><ele>814.0</ele><time>2026-04-26T11:22:57.025Z</time></trkpt><trkpt lat="43.8536767" lon="12.22859"><ele>814.0</ele><time>2026-04-26T11:22:58.021Z</time></trkpt><trkpt lat="43.85356" lon="12.2285017"><ele>814.0</ele><time>2026-04-26T11:22:59.022Z</time></trkpt><trkpt lat="43.8534467" lon="12.2284117"><ele>814.0</ele><time>2026-04-26T11:23:00.022Z</time></trkpt><trkpt lat="43.8533367" lon="12.2283133"><ele>814.0</ele><time>2026-04-26T11:23:01.03Z</time></trkpt><trkpt lat="43.853225" lon="12.22821"><ele>813.0</ele><time>2026-04-26T11:23:02.024Z</time></trkpt><trkpt lat="43.85311" lon="12.2281133"><ele>812.0</ele><time>2026-04-26T11:23:03.023Z</time></trkpt><trkpt lat="43.853" lon="12.22803"><ele>811.0</ele><time>2026-04-26T11:23:04.023Z</time></trkpt><trkpt lat="43.85289" lon="12.22797"><ele>810.0</ele><time>2026-04-26T11:23:05.023Z</time></trkpt><trkpt lat="43.8527733" lon="12.227925"><ele>810.0</ele><time>2026-04-26T11:23:06.021Z</time></trkpt><trkpt lat="43.8526567" lon="12.22788"><ele>810.0</ele><time>2026-04-26T11:23:07.023Z</time></trkpt><trkpt lat="43.852565" lon="12.2278217"><ele>810.0</ele><time>2026-04-26T11:23:08.029Z</time></trkpt><trkpt lat="43.8525133" lon="12.2277533"><ele>810.0</ele><time>2026-04-26T11:23:09.023Z</time></trkpt><trkpt lat="43.852495" lon="12.227605"><ele>810.0</ele><time>2026-04-26T11:23:11.025Z</time></trkpt><trkpt lat="43.8525467" lon="12.22751"><ele>811.6</ele><time>2026-04-26T11:23:12.022Z</time></trkpt><trkpt lat="43.8525933" lon="12.2274017"><ele>813.2</ele><time>2026-04-26T11:23:13.025Z</time></trkpt><trkpt lat="43.8526367" lon="12.2272783"><ele>814.8</ele><time>2026-04-26T11:23:14.025Z</time></trkpt><trkpt lat="43.8526467" lon="12.2270983"><ele>816.4</ele><time>2026-04-26T11:23:15.027Z</time></trkpt><trkpt lat="43.85264" lon="12.2269267"><ele>818.0</ele><time>2026-04-26T11:23:16.026Z</time></trkpt><trkpt lat="43.85261" lon="12.2267617"><ele>810.25</ele><time>2026-04-26T11:23:17.025Z</time></trkpt><trkpt lat="43.8525567" lon="12.226595"><ele>802.5</ele><time>2026-04-26T11:23:18.024Z</time></trkpt><trkpt lat="43.8524867" lon="12.2264483"><ele>794.75</ele><time>2026-04-26T11:23:19.024Z</time></trkpt><trkpt lat="43.85242" lon="12.2263183"><ele>787.0</ele><time>2026-04-26T11:23:20.024Z</time></trkpt><trkpt lat="43.8523617" lon="12.2262167"><ele>786.9999999999999</ele><time>2026-04-26T11:23:21.025Z</time></trkpt><trkpt lat="43.8523083" lon="12.2261467"><ele>787.0</ele><time>2026-04-26T11:23:22.025Z</time></trkpt><trkpt lat="43.8522217" lon="12.2261167"><ele>787.0</ele><time>2026-04-26T11:23:24.025Z</time></trkpt><trkpt lat="43.8521517" lon="12.2262367"><ele>787.0</ele><time>2026-04-26T11:23:26.024Z</time></trkpt><trkpt lat="43.8521033" lon="12.2263133"><ele>786.9999999999999</ele><time>2026-04-26T11:23:27.027Z</time></trkpt><trkpt lat="43.85204" lon="12.226385"><ele>787.0</ele><time>2026-04-26T11:23:28.024Z</time></trkpt><trkpt lat="43.8519817" lon="12.2264483"><ele>786.9999999999999</ele><time>2026-04-26T11:23:29.022Z</time></trkpt><trkpt lat="43.8519333" lon="12.2265083"><ele>787.0</ele><time>2026-04-26T11:23:30.025Z</time></trkpt><trkpt lat="43.8518633" lon="12.2265867"><ele>787.0</ele><time>2026-04-26T11:23:32.025Z</time></trkpt><trkpt lat="43.8518167" lon="12.2265267"><ele>787.0</ele><time>2026-04-26T11:23:39.028Z</time></trkpt><trkpt lat="43.85185" lon="12.2263967"><ele>786.9999999999999</ele><time>2026-04-26T11:23:41.023Z</time></trkpt><trkpt lat="43.8518783" lon="12.22629"><ele>787.0</ele><time>2026-04-26T11:23:42.023Z</time></trkpt><trkpt lat="43.8519067" lon="12.22615"><ele>787.0</ele><time>2026-04-26T11:23:43.024Z</time></trkpt><trkpt lat="43.8519017" lon="12.225965"><ele>787.0</ele><time>2026-04-26T11:23:44.027Z</time></trkpt><trkpt lat="43.85189" lon="12.225785"><ele>787.0</ele><time>2026-04-26T11:23:45.024Z</time></trkpt><trkpt lat="43.8518683" lon="12.2256383"><ele>787.0</ele><time>2026-04-26T11:23:46.028Z</time></trkpt><trkpt lat="43.8518433" lon="12.225525"><ele>787.0</ele><time>2026-04-26T11:23:47.023Z</time></trkpt><trkpt lat="43.8518133" lon="12.2254383"><ele>787.0</ele><time>2026-04-26T11:23:48.023Z</time></trkpt><trkpt lat="43.8517467" lon="12.22535"><ele>787.0</ele><time>2026-04-26T11:23:50.025Z</time></trkpt><trkpt lat="43.8516783" lon="12.22552"><ele>787.0</ele><time>2026-04-26T11:23:53.025Z</time></trkpt><trkpt lat="43.8516467" lon="12.2256183"><ele>787.0</ele><time>2026-04-26T11:23:54.024Z</time></trkpt><trkpt lat="43.85159" lon="12.2257217"><ele>782.3333333333333</ele><time>2026-04-26T11:23:55.024Z</time></trkpt><trkpt lat="43.85152" lon="12.225815"><ele>777.6666666666666</ele><time>2026-04-26T11:23:56.027Z</time></trkpt><trkpt lat="43.8514567" lon="12.2259133"><ele>773.0</ele><time>2026-04-26T11:23:57.025Z</time></trkpt><trkpt lat="43.8514167" lon="12.22601"><ele>768.3333333333333</ele><time>2026-04-26T11:23:58.023Z</time></trkpt><trkpt lat="43.8513883" lon="12.2261133"><ele>763.6666666666666</ele><time>2026-04-26T11:23:59.024Z</time></trkpt><trkpt lat="43.8513567" lon="12.2262"><ele>759.0</ele><time>2026-04-26T11:24:00.024Z</time></trkpt><trkpt lat="43.8513167" lon="12.22627"><ele>759.0</ele><time>2026-04-26T11:24:01.028Z</time></trkpt><trkpt lat="43.8512183" lon="12.2263267"><ele>759.0</ele><time>2026-04-26T11:24:03.025Z</time></trkpt><trkpt lat="43.8511233" lon="12.2262317"><ele>759.0</ele><time>2026-04-26T11:24:05.024Z</time></trkpt><trkpt lat="43.8510733" lon="12.226085"><ele>759.0</ele><time>2026-04-26T11:24:06.024Z</time></trkpt><trkpt lat="43.850995" lon="12.2259283"><ele>754.0</ele><time>2026-04-26T11:24:07.027Z</time></trkpt><trkpt lat="43.850895" lon="12.225795"><ele>749.0</ele><time>2026-04-26T11:24:08.025Z</time></trkpt><trkpt lat="43.85079" lon="12.2256867"><ele>744.0</ele><time>2026-04-26T11:24:09.024Z</time></trkpt><trkpt lat="43.8506817" lon="12.22559"><ele>739.0</ele><time>2026-04-26T11:24:10.025Z</time></trkpt><trkpt lat="43.8505583" lon="12.22552"><ele>739.0</ele><time>2026-04-26T11:24:11.026Z</time></trkpt><trkpt lat="43.8504283" lon="12.2254667"><ele>739.0</ele><time>2026-04-26T11:24:12.024Z</time></trkpt><trkpt lat="43.8502833" lon="12.2254117"><ele>739.0</ele><time>2026-04-26T11:24:13.022Z</time></trkpt><trkpt lat="43.8501383" lon="12.2253533"><ele>739.0</ele><time>2026-04-26T11:24:14.024Z</time></trkpt><trkpt lat="43.8499933" lon="12.225285"><ele>735.0</ele><time>2026-04-26T11:24:15.025Z</time></trkpt><trkpt lat="43.8498467" lon="12.2252183"><ele>731.0</ele><time>2026-04-26T11:24:16.021Z</time></trkpt><trkpt lat="43.8496967" lon="12.2251767"><ele>727.0</ele><time>2026-04-26T11:24:17.023Z</time></trkpt><trkpt lat="43.84955" lon="12.22514"><ele>727.0</ele><time>2026-04-26T11:24:18.027Z</time></trkpt><trkpt lat="43.849415" lon="12.2250917"><ele>727.0</ele><time>2026-04-26T11:24:19.025Z</time></trkpt><trkpt lat="43.8492917" lon="12.225025"><ele>727.0</ele><time>2026-04-26T11:24:20.025Z</time></trkpt><trkpt lat="43.84918" lon="12.2249283"><ele>727.0</ele><time>2026-04-26T11:24:21.027Z</time></trkpt><trkpt lat="43.8490783" lon="12.224815"><ele>726.0</ele><time>2026-04-26T11:24:22.028Z</time></trkpt><trkpt lat="43.848995" lon="12.2246933"><ele>725.0</ele><time>2026-04-26T11:24:23.025Z</time></trkpt><trkpt lat="43.84893" lon="12.2245817"><ele>724.0</ele><time>2026-04-26T11:24:24.025Z</time></trkpt><trkpt lat="43.84887" lon="12.2244717"><ele>723.0</ele><time>2026-04-26T11:24:25.026Z</time></trkpt><trkpt lat="43.8488133" lon="12.22437"><ele>722.0</ele><time>2026-04-26T11:24:26.023Z</time></trkpt><trkpt lat="43.848765" lon="12.22428"><ele>722.0</ele><time>2026-04-26T11:24:27.03Z</time></trkpt><trkpt lat="43.8487267" lon="12.22421"><ele>722.0</ele><time>2026-04-26T11:24:28.023Z</time></trkpt><trkpt lat="43.8486617" lon="12.2241033"><ele>722.0</ele><time>2026-04-26T11:24:30.023Z</time></trkpt><trkpt lat="43.8485783" lon="12.2239967"><ele>722.0</ele><time>2026-04-26T11:24:32.021Z</time></trkpt><trkpt lat="43.8485183" lon="12.22395"><ele>722.0</ele><time>2026-04-26T11:24:33.023Z</time></trkpt><trkpt lat="43.8484533" lon="12.2239183"><ele>722.0</ele><time>2026-04-26T11:24:34.023Z</time></trkpt><trkpt lat="43.848375" lon="12.223915"><ele>718.8</ele><time>2026-04-26T11:24:35.022Z</time></trkpt><trkpt lat="43.8482833" lon="12.2239367"><ele>715.6</ele><time>2026-04-26T11:24:36.024Z</time></trkpt><trkpt lat="43.848185" lon="12.2239667"><ele>712.4</ele><time>2026-04-26T11:24:37.026Z</time></trkpt><trkpt lat="43.8480917" lon="12.2240033"><ele>709.1999999999999</ele><time>2026-04-26T11:24:38.026Z</time></trkpt><trkpt lat="43.8479967" lon="12.22404"><ele>706.0</ele><time>2026-04-26T11:24:39.026Z</time></trkpt><trkpt lat="43.847905" lon="12.2240767"><ele>706.0</ele><time>2026-04-26T11:24:40.024Z</time></trkpt><trkpt lat="43.8478083" lon="12.2241333"><ele>706.0</ele><time>2026-04-26T11:24:41.025Z</time></trkpt><trkpt lat="43.8477117" lon="12.2241983"><ele>706.0</ele><time>2026-04-26T11:24:42.022Z</time></trkpt><trkpt lat="43.8476117" lon="12.2242667"><ele>706.0</ele><time>2026-04-26T11:24:43.023Z</time></trkpt><trkpt lat="43.8475117" lon="12.2243383"><ele>706.0</ele><time>2026-04-26T11:24:44.026Z</time></trkpt><trkpt lat="43.8474083" lon="12.2244067"><ele>702.5999999999999</ele><time>2026-04-26T11:24:45.023Z</time></trkpt><trkpt lat="43.847305" lon="12.2244767"><ele>699.2</ele><time>2026-04-26T11:24:46.023Z</time></trkpt><trkpt lat="43.8472067" lon="12.22455"><ele>695.8</ele><time>2026-04-26T11:24:47.022Z</time></trkpt><trkpt lat="43.8471083" lon="12.224625"><ele>692.4000000000001</ele><time>2026-04-26T11:24:48.026Z</time></trkpt><trkpt lat="43.847015" lon="12.224695"><ele>689.0</ele><time>2026-04-26T11:24:49.025Z</time></trkpt><trkpt lat="43.8469183" lon="12.224775"><ele>689.4000000000001</ele><time>2026-04-26T11:24:50.028Z</time></trkpt><trkpt lat="43.8468267" lon="12.2248633"><ele>689.8</ele><time>2026-04-26T11:24:51.026Z</time></trkpt><trkpt lat="43.8467417" lon="12.2249467"><ele>690.2</ele><time>2026-04-26T11:24:52.027Z</time></trkpt><trkpt lat="43.8466617" lon="12.2250283"><ele>690.5999999999999</ele><time>2026-04-26T11:24:53.027Z</time></trkpt><trkpt lat="43.8465817" lon="12.2251017"><ele>691.0</ele><time>2026-04-26T11:24:54.027Z</time></trkpt><trkpt lat="43.8465033" lon="12.225175"><ele>688.5999999999999</ele><time>2026-04-26T11:24:55.024Z</time></trkpt><trkpt lat="43.8464133" lon="12.2252383"><ele>686.2</ele><time>2026-04-26T11:24:56.023Z</time></trkpt><trkpt lat="43.8463167" lon="12.2252867"><ele>683.8</ele><time>2026-04-26T11:24:57.026Z</time></trkpt><trkpt lat="43.8462083" lon="12.225325"><ele>681.4000000000001</ele><time>2026-04-26T11:24:58.023Z</time></trkpt><trkpt lat="43.8460867" lon="12.2253483"><ele>679.0</ele><time>2026-04-26T11:24:59.024Z</time></trkpt><trkpt lat="43.8459633" lon="12.225365"><ele>677.5</ele><time>2026-04-26T11:25:00.026Z</time></trkpt><trkpt lat="43.845845" lon="12.225385"><ele>676.0</ele><time>2026-04-26T11:25:01.026Z</time></trkpt><trkpt lat="43.8457283" lon="12.2254033"><ele>674.5</ele><time>2026-04-26T11:25:02.025Z</time></trkpt><trkpt lat="43.8456167" lon="12.2254367"><ele>673.0</ele><time>2026-04-26T11:25:03.023Z</time></trkpt><trkpt lat="43.8455133" lon="12.2254933"><ele>673.0</ele><time>2026-04-26T11:25:04.024Z</time></trkpt><trkpt lat="43.8454133" lon="12.2255667"><ele>673.0</ele><time>2026-04-26T11:25:05.023Z</time></trkpt><trkpt lat="43.8453367" lon="12.22568"><ele>673.0</ele><time>2026-04-26T11:25:06.023Z</time></trkpt><trkpt lat="43.84525" lon="12.2255617"><ele>673.0</ele><time>2026-04-26T11:25:07.026Z</time></trkpt><trkpt lat="43.8451533" lon="12.2256783"><ele>671.5</ele><time>2026-04-26T11:25:08.026Z</time></trkpt><trkpt lat="43.8450483" lon="12.225815"><ele>670.0</ele><time>2026-04-26T11:25:09.025Z</time></trkpt><trkpt lat="43.844935" lon="12.225915"><ele>668.5</ele><time>2026-04-26T11:25:10.027Z</time></trkpt><trkpt lat="43.84482" lon="12.2259983"><ele>667.0</ele><time>2026-04-26T11:25:11.021Z</time></trkpt><trkpt lat="43.8447317" lon="12.2261867"><ele>667.0</ele><time>2026-04-26T11:25:12.024Z</time></trkpt><trkpt lat="43.8446117" lon="12.22621"><ele>667.0</ele><time>2026-04-26T11:25:13.023Z</time></trkpt><trkpt lat="43.8444917" lon="12.22627"><ele>667.0</ele><time>2026-04-26T11:25:14.024Z</time></trkpt><trkpt lat="43.8443433" lon="12.2263217"><ele>667.0</ele><time>2026-04-26T11:25:15.023Z</time></trkpt><trkpt lat="43.8442433" lon="12.2263817"><ele>665.2</ele><time>2026-04-26T11:25:16.023Z</time></trkpt><trkpt lat="43.8442517" lon="12.22648"><ele>663.4000000000001</ele><time>2026-04-26T11:25:17.025Z</time></trkpt><trkpt lat="43.8441167" lon="12.2265"><ele>661.5999999999999</ele><time>2026-04-26T11:25:18.024Z</time></trkpt><trkpt lat="43.8440233" lon="12.2266017"><ele>659.8</ele><time>2026-04-26T11:25:19.026Z</time></trkpt><trkpt lat="43.84394" lon="12.2266067"><ele>658.0</ele><time>2026-04-26T11:25:20.026Z</time></trkpt><trkpt lat="43.843845" lon="12.2266983"><ele>658.0</ele><time>2026-04-26T11:25:21.025Z</time></trkpt><trkpt lat="43.8437367" lon="12.22681"><ele>658.0</ele><time>2026-04-26T11:25:22.027Z</time></trkpt><trkpt lat="43.843645" lon="12.2269417"><ele>658.0</ele><time>2026-04-26T11:25:23.025Z</time></trkpt><trkpt lat="43.8435333" lon="12.227085"><ele>658.0</ele><time>2026-04-26T11:25:24.025Z</time></trkpt><trkpt lat="43.8434567" lon="12.2272633"><ele>656.5</ele><time>2026-04-26T11:25:25.024Z</time></trkpt><trkpt lat="43.8433583" lon="12.2274167"><ele>655.0</ele><time>2026-04-26T11:25:26.023Z</time></trkpt><trkpt lat="43.8432483" lon="12.22754"><ele>653.5</ele><time>2026-04-26T11:25:27.025Z</time></trkpt><trkpt lat="43.8431383" lon="12.2276717"><ele>652.0</ele><time>2026-04-26T11:25:28.026Z</time></trkpt><trkpt lat="43.84308" lon="12.2278183"><ele>652.0</ele><time>2026-04-26T11:25:29.023Z</time></trkpt><trkpt lat="43.8429917" lon="12.22794"><ele>652.0</ele><time>2026-04-26T11:25:30.023Z</time></trkpt><trkpt lat="43.8429033" lon="12.2280483"><ele>652.0</ele><time>2026-04-26T11:25:31.023Z</time></trkpt><trkpt lat="43.8428183" lon="12.228155"><ele>652.0</ele><time>2026-04-26T11:25:32.022Z</time></trkpt><trkpt lat="43.8427333" lon="12.228255"><ele>650.8</ele><time>2026-04-26T11:25:33.023Z</time></trkpt><trkpt lat="43.842645" lon="12.228345"><ele>649.6</ele><time>2026-04-26T11:25:34.022Z</time></trkpt><trkpt lat="43.842575" lon="12.2284383"><ele>648.4</ele><time>2026-04-26T11:25:35.022Z</time></trkpt><trkpt lat="43.8424967" lon="12.2285117"><ele>647.1999999999999</ele><time>2026-04-26T11:25:36.02Z</time></trkpt><trkpt lat="43.8424317" lon="12.228585"><ele>646.0</ele><time>2026-04-26T11:25:37.022Z</time></trkpt><trkpt lat="43.8423567" lon="12.228645"><ele>645.5</ele><time>2026-04-26T11:25:38.021Z</time></trkpt><trkpt lat="43.8423067" lon="12.2287183"><ele>645.0</ele><time>2026-04-26T11:25:39.023Z</time></trkpt><trkpt lat="43.8422467" lon="12.22877"><ele>644.5</ele><time>2026-04-26T11:25:40.021Z</time></trkpt><trkpt lat="43.8421983" lon="12.2288267"><ele>644.0</ele><time>2026-04-26T11:25:41.025Z</time></trkpt><trkpt lat="43.8420983" lon="12.228925"><ele>643.5</ele><time>2026-04-26T11:25:43.021Z</time></trkpt><trkpt lat="43.8420417" lon="12.2289683"><ele>643.0</ele><time>2026-04-26T11:25:44.022Z</time></trkpt><trkpt lat="43.8419683" lon="12.229"><ele>642.8</ele><time>2026-04-26T11:25:45.022Z</time></trkpt><trkpt lat="43.8418817" lon="12.2290117"><ele>642.5999999999999</ele><time>2026-04-26T11:25:46.026Z</time></trkpt><trkpt lat="43.8417817" lon="12.2290467"><ele>642.4000000000001</ele><time>2026-04-26T11:25:47.024Z</time></trkpt><trkpt lat="43.8416667" lon="12.2290783"><ele>642.2</ele><time>2026-04-26T11:25:48.022Z</time></trkpt><trkpt lat="43.8415433" lon="12.22909"><ele>642.0</ele><time>2026-04-26T11:25:49.021Z</time></trkpt><trkpt lat="43.84142" lon="12.2290767"><ele>639.75</ele><time>2026-04-26T11:25:50.02Z</time></trkpt><trkpt lat="43.8412983" lon="12.2291283"><ele>637.5</ele><time>2026-04-26T11:25:51.022Z</time></trkpt><trkpt lat="43.84118" lon="12.2291583"><ele>635.25</ele><time>2026-04-26T11:25:52.024Z</time></trkpt><trkpt lat="43.84106" lon="12.2291817"><ele>633.0</ele><time>2026-04-26T11:25:53.023Z</time></trkpt><trkpt lat="43.8409383" lon="12.2291883"><ele>631.8</ele><time>2026-04-26T11:25:54.026Z</time></trkpt><trkpt lat="43.8408233" lon="12.2292033"><ele>630.5999999999999</ele><time>2026-04-26T11:25:55.025Z</time></trkpt><trkpt lat="43.8407117" lon="12.229155"><ele>629.4000000000001</ele><time>2026-04-26T11:25:56.023Z</time></trkpt><trkpt lat="43.8406117" lon="12.22912"><ele>628.2</ele><time>2026-04-26T11:25:57.024Z</time></trkpt><trkpt lat="43.84052" lon="12.2291017"><ele>627.0</ele><time>2026-04-26T11:25:58.023Z</time></trkpt><trkpt lat="43.8404317" lon="12.2290767"><ele>627.0</ele><time>2026-04-26T11:25:59.023Z</time></trkpt><trkpt lat="43.8403467" lon="12.2290817"><ele>627.0</ele><time>2026-04-26T11:26:00.021Z</time></trkpt><trkpt lat="43.840275" lon="12.22913"><ele>627.0</ele><time>2026-04-26T11:26:01.021Z</time></trkpt><trkpt lat="43.840215" lon="12.2291683"><ele>627.0</ele><time>2026-04-26T11:26:02.028Z</time></trkpt><trkpt lat="43.8401683" lon="12.2292317"><ele>627.0</ele><time>2026-04-26T11:26:03.024Z</time></trkpt><trkpt lat="43.8401283" lon="12.2293"><ele>627.0</ele><time>2026-04-26T11:26:04.022Z</time></trkpt><trkpt lat="43.840035" lon="12.2293583"><ele>624.2</ele><time>2026-04-26T11:26:06.022Z</time></trkpt><trkpt lat="43.8399517" lon="12.2292633"><ele>621.4000000000001</ele><time>2026-04-26T11:26:08.022Z</time></trkpt><trkpt lat="43.8399233" lon="12.229165"><ele>618.5999999999999</ele><time>2026-04-26T11:26:09.024Z</time></trkpt><trkpt lat="43.8398983" lon="12.229025"><ele>615.8</ele><time>2026-04-26T11:26:10.023Z</time></trkpt><trkpt lat="43.8398883" lon="12.2288833"><ele>613.0</ele><time>2026-04-26T11:26:11.024Z</time></trkpt><trkpt lat="43.83987" lon="12.2287583"><ele>612.1999999999999</ele><time>2026-04-26T11:26:12.022Z</time></trkpt><trkpt lat="43.8398783" lon="12.2286517"><ele>611.4</ele><time>2026-04-26T11:26:13.023Z</time></trkpt><trkpt lat="43.8398883" lon="12.22856"><ele>610.5999999999999</ele><time>2026-04-26T11:26:14.022Z</time></trkpt><trkpt lat="43.83987" lon="12.2284083"><ele>609.8</ele><time>2026-04-26T11:26:16.022Z</time></trkpt><trkpt lat="43.8397933" lon="12.2283"><ele>609.0</ele><time>2026-04-26T11:26:18.022Z</time></trkpt><trkpt lat="43.8396583" lon="12.2283633"><ele>609.0</ele><time>2026-04-26T11:26:20.021Z</time></trkpt><trkpt lat="43.8395967" lon="12.2284067"><ele>609.0</ele><time>2026-04-26T11:26:21.023Z</time></trkpt><trkpt lat="43.839525" lon="12.22842"><ele>609.0</ele><time>2026-04-26T11:26:22.024Z</time></trkpt><trkpt lat="43.83945" lon="12.2284317"><ele>609.0</ele><time>2026-04-26T11:26:23.022Z</time></trkpt><trkpt lat="43.8393733" lon="12.2284067"><ele>609.0</ele><time>2026-04-26T11:26:24.023Z</time></trkpt><trkpt lat="43.8392933" lon="12.2283567"><ele>609.0</ele><time>2026-04-26T11:26:25.022Z</time></trkpt><trkpt lat="43.8392067" lon="12.2282883"><ele>606.4</ele><time>2026-04-26T11:26:26.023Z</time></trkpt><trkpt lat="43.8391117" lon="12.22822"><ele>603.8</ele><time>2026-04-26T11:26:27.027Z</time></trkpt><trkpt lat="43.8390167" lon="12.22815"><ele>601.2</ele><time>2026-04-26T11:26:28.023Z</time></trkpt><trkpt lat="43.838935" lon="12.22807"><ele>598.6</ele><time>2026-04-26T11:26:29.023Z</time></trkpt><trkpt lat="43.838855" lon="12.2280117"><ele>596.0</ele><time>2026-04-26T11:26:30.022Z</time></trkpt><trkpt lat="43.8387783" lon="12.227975"><ele>593.4</ele><time>2026-04-26T11:26:31.023Z</time></trkpt><trkpt lat="43.8387017" lon="12.2279567"><ele>590.8</ele><time>2026-04-26T11:26:32.025Z</time></trkpt><trkpt lat="43.8386183" lon="12.2279467"><ele>588.1999999999999</ele><time>2026-04-26T11:26:33.024Z</time></trkpt><trkpt lat="43.83853" lon="12.22797"><ele>585.6</ele><time>2026-04-26T11:26:34.024Z</time></trkpt><trkpt lat="43.83843" lon="12.2280167"><ele>583.0</ele><time>2026-04-26T11:26:35.024Z</time></trkpt><trkpt lat="43.8383283" lon="12.2280717"><ele>582.25</ele><time>2026-04-26T11:26:36.026Z</time></trkpt><trkpt lat="43.838225" lon="12.2281383"><ele>581.5</ele><time>2026-04-26T11:26:37.024Z</time></trkpt><trkpt lat="43.8381183" lon="12.228215"><ele>580.75</ele><time>2026-04-26T11:26:38.024Z</time></trkpt><trkpt lat="43.8380117" lon="12.2282917"><ele>580.0</ele><time>2026-04-26T11:26:39.025Z</time></trkpt><trkpt lat="43.8379083" lon="12.2283617"><ele>581.2</ele><time>2026-04-26T11:26:40.024Z</time></trkpt><trkpt lat="43.8378033" lon="12.228425"><ele>582.4</ele><time>2026-04-26T11:26:41.024Z</time></trkpt><trkpt lat="43.837695" lon="12.228485"><ele>583.6</ele><time>2026-04-26T11:26:42.023Z</time></trkpt><trkpt lat="43.83759" lon="12.2285383"><ele>584.8</ele><time>2026-04-26T11:26:43.022Z</time></trkpt><trkpt lat="43.83749" lon="12.22858"><ele>586.0</ele><time>2026-04-26T11:26:44.024Z</time></trkpt><trkpt lat="43.8373933" lon="12.2286083"><ele>583.6</ele><time>2026-04-26T11:26:45.024Z</time></trkpt><trkpt lat="43.8373" lon="12.22862"><ele>581.2</ele><time>2026-04-26T11:26:46.022Z</time></trkpt><trkpt lat="43.8372083" lon="12.2286183"><ele>578.8</ele><time>2026-04-26T11:26:47.021Z</time></trkpt><trkpt lat="43.837115" lon="12.228595"><ele>576.4</ele><time>2026-04-26T11:26:48.024Z</time></trkpt><trkpt lat="43.837025" lon="12.228545"><ele>574.0</ele><time>2026-04-26T11:26:49.021Z</time></trkpt><trkpt lat="43.8369517" lon="12.22848"><ele>574.0</ele><time>2026-04-26T11:26:50.022Z</time></trkpt><trkpt lat="43.836885" lon="12.2284233"><ele>574.0</ele><time>2026-04-26T11:26:51.022Z</time></trkpt><trkpt lat="43.83682" lon="12.228375"><ele>574.0</ele><time>2026-04-26T11:26:52.022Z</time></trkpt><trkpt lat="43.8367533" lon="12.22835"><ele>574.0</ele><time>2026-04-26T11:26:53.028Z</time></trkpt><trkpt lat="43.836685" lon="12.2283483"><ele>574.0</ele><time>2026-04-26T11:26:54.022Z</time></trkpt><trkpt lat="43.8366183" lon="12.2283717"><ele>574.0</ele><time>2026-04-26T11:26:55.028Z</time></trkpt><trkpt lat="43.8365633" lon="12.228415"><ele>574.0</ele><time>2026-04-26T11:26:56.025Z</time></trkpt><trkpt lat="43.8364983" lon="12.228535"><ele>571.8</ele><time>2026-04-26T11:26:58.027Z</time></trkpt><trkpt lat="43.8365183" lon="12.228685"><ele>569.5999999999999</ele><time>2026-04-26T11:27:00.026Z</time></trkpt><trkpt lat="43.8365417" lon="12.2287667"><ele>567.4</ele><time>2026-04-26T11:27:01.026Z</time></trkpt><trkpt lat="43.836565" lon="12.22892"><ele>565.1999999999999</ele><time>2026-04-26T11:27:03.025Z</time></trkpt><trkpt lat="43.8364983" lon="12.2290067"><ele>563.0</ele><time>2026-04-26T11:27:05.024Z</time></trkpt><trkpt lat="43.8363867" lon="12.2289767"><ele>562.8333333333333</ele><time>2026-04-26T11:27:07.026Z</time></trkpt><trkpt lat="43.8363133" lon="12.228905"><ele>562.6666666666666</ele><time>2026-04-26T11:27:08.024Z</time></trkpt><trkpt lat="43.83625" lon="12.2288167"><ele>562.5</ele><time>2026-04-26T11:27:09.024Z</time></trkpt><trkpt lat="43.8361967" lon="12.2287333"><ele>562.3333333333334</ele><time>2026-04-26T11:27:10.031Z</time></trkpt><trkpt lat="43.8361483" lon="12.2286567"><ele>562.1666666666667</ele><time>2026-04-26T11:27:11.024Z</time></trkpt><trkpt lat="43.8360633" lon="12.2285667"><ele>562.0</ele><time>2026-04-26T11:27:13.026Z</time></trkpt><trkpt lat="43.8359617" lon="12.2285717"><ele>559.4</ele><time>2026-04-26T11:27:15.025Z</time></trkpt><trkpt lat="43.835925" lon="12.2287217"><ele>556.8000000000001</ele><time>2026-04-26T11:27:17.025Z</time></trkpt><trkpt lat="43.8359183" lon="12.2288433"><ele>554.2</ele><time>2026-04-26T11:27:18.026Z</time></trkpt><trkpt lat="43.8359283" lon="12.2289633"><ele>551.6</ele><time>2026-04-26T11:27:19.025Z</time></trkpt><trkpt lat="43.8359433" lon="12.2290783"><ele>549.0</ele><time>2026-04-26T11:27:20.024Z</time></trkpt><trkpt lat="43.8359683" lon="12.2292"><ele>548.4</ele><time>2026-04-26T11:27:21.026Z</time></trkpt><trkpt lat="43.8360033" lon="12.2293417"><ele>547.8</ele><time>2026-04-26T11:27:22.024Z</time></trkpt><trkpt lat="43.8360267" lon="12.229485"><ele>547.2</ele><time>2026-04-26T11:27:23.025Z</time></trkpt><trkpt lat="43.83604" lon="12.2296283"><ele>546.6</ele><time>2026-04-26T11:27:24.024Z</time></trkpt><trkpt lat="43.8360417" lon="12.229765"><ele>546.0</ele><time>2026-04-26T11:27:25.025Z</time></trkpt><trkpt lat="43.8360433" lon="12.22989"><ele>546.0</ele><time>2026-04-26T11:27:26.026Z</time></trkpt><trkpt lat="43.836045" lon="12.2299983"><ele>546.0</ele><time>2026-04-26T11:27:27.025Z</time></trkpt><trkpt lat="43.8360483" lon="12.2301033"><ele>546.0</ele><time>2026-04-26T11:27:28.025Z</time></trkpt><trkpt lat="43.8360517" lon="12.2302"><ele>546.0</ele><time>2026-04-26T11:27:29.024Z</time></trkpt><trkpt lat="43.8360533" lon="12.230295"><ele>546.0</ele><time>2026-04-26T11:27:30.026Z</time></trkpt><trkpt lat="43.836055" lon="12.23039"><ele>546.0</ele><time>2026-04-26T11:27:31.023Z</time></trkpt><trkpt lat="43.8360483" lon="12.2304833"><ele>546.0</ele><time>2026-04-26T11:27:32.024Z</time></trkpt><trkpt lat="43.8360283" lon="12.230575"><ele>543.0</ele><time>2026-04-26T11:27:33.028Z</time></trkpt><trkpt lat="43.836" lon="12.2306583"><ele>540.0</ele><time>2026-04-26T11:27:34.024Z</time></trkpt><trkpt lat="43.8359117" lon="12.2307767"><ele>537.0</ele><time>2026-04-26T11:27:36.022Z</time></trkpt><trkpt lat="43.8357917" lon="12.23078"><ele>534.0</ele><time>2026-04-26T11:27:38.023Z</time></trkpt><trkpt lat="43.8357217" lon="12.2307417"><ele>531.0</ele><time>2026-04-26T11:27:39.025Z</time></trkpt><trkpt lat="43.8356467" lon="12.230685"><ele>532.3333333333334</ele><time>2026-04-26T11:27:40.024Z</time></trkpt><trkpt lat="43.8355733" lon="12.2306033"><ele>533.6666666666666</ele><time>2026-04-26T11:27:41.025Z</time></trkpt><trkpt lat="43.8355083" lon="12.2305167"><ele>535.0</ele><time>2026-04-26T11:27:42.025Z</time></trkpt><trkpt lat="43.8354467" lon="12.23043"><ele>536.3333333333333</ele><time>2026-04-26T11:27:43.024Z</time></trkpt><trkpt lat="43.8353833" lon="12.2303467"><ele>537.6666666666666</ele><time>2026-04-26T11:27:44.022Z</time></trkpt><trkpt lat="43.8353183" lon="12.2302883"><ele>539.0</ele><time>2026-04-26T11:27:45.025Z</time></trkpt><trkpt lat="43.8352467" lon="12.2302517"><ele>539.0</ele><time>2026-04-26T11:27:46.023Z</time></trkpt><trkpt lat="43.8351717" lon="12.2302467"><ele>539.0</ele><time>2026-04-26T11:27:47.023Z</time></trkpt><trkpt lat="43.8350917" lon="12.2302717"><ele>539.0</ele><time>2026-04-26T11:27:48.025Z</time></trkpt><trkpt lat="43.83501" lon="12.2303317"><ele>539.0</ele><time>2026-04-26T11:27:49.024Z</time></trkpt><trkpt lat="43.834915" lon="12.2304033"><ele>539.0</ele><time>2026-04-26T11:27:50.023Z</time></trkpt><trkpt lat="43.8348267" lon="12.2304667"><ele>536.2</ele><time>2026-04-26T11:27:51.023Z</time></trkpt><trkpt lat="43.8347317" lon="12.2305217"><ele>533.4</ele><time>2026-04-26T11:27:52.026Z</time></trkpt><trkpt lat="43.83463" lon="12.2305633"><ele>530.6</ele><time>2026-04-26T11:27:53.024Z</time></trkpt><trkpt lat="43.8345233" lon="12.2305933"><ele>527.8</ele><time>2026-04-26T11:27:54.024Z</time></trkpt><trkpt lat="43.8344167" lon="12.2306117"><ele>525.0</ele><time>2026-04-26T11:27:55.027Z</time></trkpt><trkpt lat="43.8343117" lon="12.23062"><ele>521.6</ele><time>2026-04-26T11:27:56.024Z</time></trkpt><trkpt lat="43.8342033" lon="12.230635"><ele>518.2</ele><time>2026-04-26T11:27:57.027Z</time></trkpt><trkpt lat="43.8340983" lon="12.2306483"><ele>514.8</ele><time>2026-04-26T11:27:58.027Z</time></trkpt><trkpt lat="43.8339933" lon="12.2306617"><ele>511.4</ele><time>2026-04-26T11:27:59.025Z</time></trkpt><trkpt lat="43.83389" lon="12.23067"><ele>508.0</ele><time>2026-04-26T11:28:00.023Z</time></trkpt><trkpt lat="43.8337867" lon="12.2306817"><ele>507.79999999999995</ele><time>2026-04-26T11:28:01.023Z</time></trkpt><trkpt lat="43.8336867" lon="12.2306983"><ele>507.59999999999997</ele><time>2026-04-26T11:28:02.021Z</time></trkpt><trkpt lat="43.8335867" lon="12.23071"><ele>507.40000000000003</ele><time>2026-04-26T11:28:03.022Z</time></trkpt><trkpt lat="43.8334867" lon="12.2307217"><ele>507.20000000000005</ele><time>2026-04-26T11:28:04.024Z</time></trkpt><trkpt lat="43.83339" lon="12.2307317"><ele>507.0</ele><time>2026-04-26T11:28:05.025Z</time></trkpt><trkpt lat="43.8332917" lon="12.2307467"><ele>504.20000000000005</ele><time>2026-04-26T11:28:06.023Z</time></trkpt><trkpt lat="43.8331983" lon="12.230775"><ele>501.40000000000003</ele><time>2026-04-26T11:28:07.021Z</time></trkpt><trkpt lat="43.833115" lon="12.230825"><ele>498.59999999999997</ele><time>2026-04-26T11:28:08.023Z</time></trkpt><trkpt lat="43.8330333" lon="12.23088"><ele>495.79999999999995</ele><time>2026-04-26T11:28:09.024Z</time></trkpt><trkpt lat="43.83295" lon="12.2309267"><ele>493.0</ele><time>2026-04-26T11:28:10.022Z</time></trkpt><trkpt lat="43.832865" lon="12.2309567"><ele>493.00000000000006</ele><time>2026-04-26T11:28:11.027Z</time></trkpt><trkpt lat="43.8327817" lon="12.2309633"><ele>493.0</ele><time>2026-04-26T11:28:12.022Z</time></trkpt><trkpt lat="43.8327117" lon="12.2309583"><ele>493.0</ele><time>2026-04-26T11:28:13.022Z</time></trkpt><trkpt lat="43.8325967" lon="12.2309667"><ele>493.0</ele><time>2026-04-26T11:28:15.024Z</time></trkpt><trkpt lat="43.8325217" lon="12.2310683"><ele>493.00000000000006</ele><time>2026-04-26T11:28:17.022Z</time></trkpt><trkpt lat="43.832505" lon="12.2311567"><ele>493.0</ele><time>2026-04-26T11:28:18.023Z</time></trkpt><trkpt lat="43.8325083" lon="12.2312617"><ele>491.33333333333337</ele><time>2026-04-26T11:28:19.024Z</time></trkpt><trkpt lat="43.8325217" lon="12.2313767"><ele>489.6666666666667</ele><time>2026-04-26T11:28:20.022Z</time></trkpt><trkpt lat="43.83254" lon="12.2315"><ele>488.0</ele><time>2026-04-26T11:28:21.025Z</time></trkpt><trkpt lat="43.832555" lon="12.2316183"><ele>486.33333333333337</ele><time>2026-04-26T11:28:22.022Z</time></trkpt><trkpt lat="43.8325617" lon="12.231725"><ele>484.6666666666667</ele><time>2026-04-26T11:28:23.022Z</time></trkpt><trkpt lat="43.8325633" lon="12.2318217"><ele>483.0</ele><time>2026-04-26T11:28:24.024Z</time></trkpt><trkpt lat="43.8325467" lon="12.2319783"><ele>482.59999999999997</ele><time>2026-04-26T11:28:26.028Z</time></trkpt><trkpt lat="43.83249" lon="12.2320633"><ele>482.19999999999993</ele><time>2026-04-26T11:28:28.025Z</time></trkpt><trkpt lat="43.8323767" lon="12.2320467"><ele>481.8</ele><time>2026-04-26T11:28:30.025Z</time></trkpt><trkpt lat="43.8322933" lon="12.2320117"><ele>481.4</ele><time>2026-04-26T11:28:31.022Z</time></trkpt><trkpt lat="43.83221" lon="12.2319833"><ele>481.0</ele><time>2026-04-26T11:28:32.024Z</time></trkpt><trkpt lat="43.8321217" lon="12.2319767"><ele>481.0</ele><time>2026-04-26T11:28:33.028Z</time></trkpt><trkpt lat="43.8320433" lon="12.2320083"><ele>481.0</ele><time>2026-04-26T11:28:34.023Z</time></trkpt><trkpt lat="43.8319967" lon="12.232105"><ele>481.0</ele><time>2026-04-26T11:28:35.022Z</time></trkpt><trkpt lat="43.83196" lon="12.2322183"><ele>481.0</ele><time>2026-04-26T11:28:36.023Z</time></trkpt><trkpt lat="43.8319383" lon="12.2323633"><ele>481.0</ele><time>2026-04-26T11:28:37.022Z</time></trkpt><trkpt lat="43.8319333" lon="12.2325683"><ele>479.5</ele><time>2026-04-26T11:28:38.022Z</time></trkpt><trkpt lat="43.8319333" lon="12.232765"><ele>478.0</ele><time>2026-04-26T11:28:39.022Z</time></trkpt><trkpt lat="43.831935" lon="12.23294"><ele>476.5</ele><time>2026-04-26T11:28:40.023Z</time></trkpt><trkpt lat="43.831935" lon="12.23309"><ele>475.0</ele><time>2026-04-26T11:28:41.022Z</time></trkpt><trkpt lat="43.8319217" lon="12.2332333"><ele>472.0</ele><time>2026-04-26T11:28:42.026Z</time></trkpt><trkpt lat="43.831875" lon="12.2333633"><ele>469.0</ele><time>2026-04-26T11:28:43.023Z</time></trkpt><trkpt lat="43.8317983" lon="12.2334783"><ele>466.0</ele><time>2026-04-26T11:28:44.037Z</time></trkpt><trkpt lat="43.8316933" lon="12.23358"><ele>463.0</ele><time>2026-04-26T11:28:45.026Z</time></trkpt><trkpt lat="43.831575" lon="12.2336717"><ele>463.0</ele><time>2026-04-26T11:28:46.023Z</time></trkpt><trkpt lat="43.831455" lon="12.23376"><ele>463.0</ele><time>2026-04-26T11:28:47.022Z</time></trkpt><trkpt lat="43.8313383" lon="12.23384"><ele>463.0</ele><time>2026-04-26T11:28:48.024Z</time></trkpt><trkpt lat="43.8312317" lon="12.2339317"><ele>463.0</ele><time>2026-04-26T11:28:49.024Z</time></trkpt><trkpt lat="43.8311267" lon="12.234025"><ele>460.25</ele><time>2026-04-26T11:28:50.029Z</time></trkpt><trkpt lat="43.831025" lon="12.2341233"><ele>457.5</ele><time>2026-04-26T11:28:51.025Z</time></trkpt><trkpt lat="43.830925" lon="12.2342217"><ele>454.75</ele><time>2026-04-26T11:28:52.023Z</time></trkpt><trkpt lat="43.83082" lon="12.2343283"><ele>452.0</ele><time>2026-04-26T11:28:53.022Z</time></trkpt><trkpt lat="43.830705" lon="12.2344383"><ele>451.5</ele><time>2026-04-26T11:28:54.024Z</time></trkpt><trkpt lat="43.8305867" lon="12.2345467"><ele>451.0</ele><time>2026-04-26T11:28:55.023Z</time></trkpt><trkpt lat="43.8304717" lon="12.2346517"><ele>450.5</ele><time>2026-04-26T11:28:56.026Z</time></trkpt><trkpt lat="43.83036" lon="12.2347567"><ele>450.0</ele><time>2026-04-26T11:28:57.028Z</time></trkpt><trkpt lat="43.8302483" lon="12.2348617"><ele>446.75</ele><time>2026-04-26T11:28:58.024Z</time></trkpt><trkpt lat="43.8301367" lon="12.2349683"><ele>443.5</ele><time>2026-04-26T11:28:59.026Z</time></trkpt><trkpt lat="43.83002" lon="12.2350667"><ele>440.25</ele><time>2026-04-26T11:29:00.024Z</time></trkpt><trkpt lat="43.8299117" lon="12.2351633"><ele>437.0</ele><time>2026-04-26T11:29:01.021Z</time></trkpt><trkpt lat="43.8297983" lon="12.2352567"><ele>437.0</ele><time>2026-04-26T11:29:02.028Z</time></trkpt><trkpt lat="43.8296833" lon="12.23535"><ele>437.0</ele><time>2026-04-26T11:29:03.025Z</time></trkpt><trkpt lat="43.8295633" lon="12.235445"><ele>437.0</ele><time>2026-04-26T11:29:04.025Z</time></trkpt><trkpt lat="43.8294567" lon="12.2355333"><ele>437.0</ele><time>2026-04-26T11:29:05.023Z</time></trkpt><trkpt lat="43.82936" lon="12.2356083"><ele>434.6</ele><time>2026-04-26T11:29:06.024Z</time></trkpt><trkpt lat="43.8292633" lon="12.23566"><ele>432.20000000000005</ele><time>2026-04-26T11:29:07.025Z</time></trkpt><trkpt lat="43.8291717" lon="12.2356633"><ele>429.8</ele><time>2026-04-26T11:29:08.025Z</time></trkpt><trkpt lat="43.8290883" lon="12.235635"><ele>427.4</ele><time>2026-04-26T11:29:09.025Z</time></trkpt><trkpt lat="43.82902" lon="12.23553"><ele>425.0</ele><time>2026-04-26T11:29:10.024Z</time></trkpt><trkpt lat="43.8289667" lon="12.235375"><ele>425.0</ele><time>2026-04-26T11:29:11.024Z</time></trkpt><trkpt lat="43.828925" lon="12.2351983"><ele>425.0</ele><time>2026-04-26T11:29:12.023Z</time></trkpt><trkpt lat="43.8288883" lon="12.235005"><ele>425.0</ele><time>2026-04-26T11:29:13.024Z</time></trkpt><trkpt lat="43.82885" lon="12.2347983"><ele>425.0</ele><time>2026-04-26T11:29:14.023Z</time></trkpt><trkpt lat="43.828805" lon="12.2345917"><ele>425.25</ele><time>2026-04-26T11:29:15.021Z</time></trkpt><trkpt lat="43.8287567" lon="12.2343883"><ele>425.5</ele><time>2026-04-26T11:29:16.021Z</time></trkpt><trkpt lat="43.82871" lon="12.2342033"><ele>425.75</ele><time>2026-04-26T11:29:17.023Z</time></trkpt><trkpt lat="43.8286583" lon="12.2340417"><ele>426.0</ele><time>2026-04-26T11:29:18.023Z</time></trkpt><trkpt lat="43.8285933" lon="12.2339"><ele>426.0</ele><time>2026-04-26T11:29:19.024Z</time></trkpt><trkpt lat="43.8285033" lon="12.23378"><ele>426.0</ele><time>2026-04-26T11:29:20.024Z</time></trkpt><trkpt lat="43.8283833" lon="12.2336767"><ele>426.0</ele><time>2026-04-26T11:29:21.024Z</time></trkpt><trkpt lat="43.82823" lon="12.23359"><ele>426.0</ele><time>2026-04-26T11:29:22.023Z</time></trkpt><trkpt lat="43.8280583" lon="12.2335283"><ele>422.0</ele><time>2026-04-26T11:29:23.025Z</time></trkpt><trkpt lat="43.8278867" lon="12.233495"><ele>418.0</ele><time>2026-04-26T11:29:24.024Z</time></trkpt><trkpt lat="43.8277167" lon="12.2334867"><ele>414.0</ele><time>2026-04-26T11:29:25.021Z</time></trkpt><trkpt lat="43.827555" lon="12.2334967"><ele>411.66666666666663</ele><time>2026-04-26T11:29:26.024Z</time></trkpt><trkpt lat="43.827385" lon="12.2335117"><ele>409.3333333333333</ele><time>2026-04-26T11:29:27.025Z</time></trkpt><trkpt lat="43.827225" lon="12.2335283"><ele>407.0</ele><time>2026-04-26T11:29:28.023Z</time></trkpt><trkpt lat="43.8270717" lon="12.233545"><ele>407.0</ele><time>2026-04-26T11:29:29.023Z</time></trkpt><trkpt lat="43.8269217" lon="12.233565"><ele>407.0</ele><time>2026-04-26T11:29:30.023Z</time></trkpt><trkpt lat="43.826775" lon="12.2335917"><ele>407.0</ele><time>2026-04-26T11:29:31.023Z</time></trkpt><trkpt lat="43.82662" lon="12.2336333"><ele>404.66666666666663</ele><time>2026-04-26T11:29:32.023Z</time></trkpt><trkpt lat="43.8264617" lon="12.2336917"><ele>402.33333333333337</ele><time>2026-04-26T11:29:33.022Z</time></trkpt><trkpt lat="43.82631" lon="12.233755"><ele>400.0</ele><time>2026-04-26T11:29:34.025Z</time></trkpt><trkpt lat="43.8261633" lon="12.2338017"><ele>400.0</ele><time>2026-04-26T11:29:35.03Z</time></trkpt><trkpt lat="43.82602" lon="12.2337983"><ele>400.0</ele><time>2026-04-26T11:29:36.024Z</time></trkpt><trkpt lat="43.8258767" lon="12.2337533"><ele>400.0</ele><time>2026-04-26T11:29:37.025Z</time></trkpt><trkpt lat="43.8257183" lon="12.2337083"><ele>398.0</ele><time>2026-04-26T11:29:38.024Z</time></trkpt><trkpt lat="43.8255633" lon="12.2336683"><ele>396.0</ele><time>2026-04-26T11:29:39.026Z</time></trkpt><trkpt lat="43.8254217" lon="12.2336117"><ele>394.0</ele><time>2026-04-26T11:29:40.025Z</time></trkpt><trkpt lat="43.8252983" lon="12.23354"><ele>392.0</ele><time>2026-04-26T11:29:41.022Z</time></trkpt><trkpt lat="43.8251867" lon="12.2334717"><ele>390.25</ele><time>2026-04-26T11:29:42.023Z</time></trkpt><trkpt lat="43.82508" lon="12.2334233"><ele>388.5</ele><time>2026-04-26T11:29:43.028Z</time></trkpt><trkpt lat="43.8249767" lon="12.2334067"><ele>386.75</ele><time>2026-04-26T11:29:44.025Z</time></trkpt><trkpt lat="43.8248633" lon="12.2334383"><ele>385.0</ele><time>2026-04-26T11:29:45.024Z</time></trkpt><trkpt lat="43.8247417" lon="12.23349"><ele>385.0</ele><time>2026-04-26T11:29:46.022Z</time></trkpt><trkpt lat="43.824615" lon="12.233535"><ele>385.0</ele><time>2026-04-26T11:29:47.023Z</time></trkpt><trkpt lat="43.8244967" lon="12.2336017"><ele>385.0</ele><time>2026-04-26T11:29:48.024Z</time></trkpt><trkpt lat="43.824395" lon="12.23369"><ele>385.0</ele><time>2026-04-26T11:29:49.024Z</time></trkpt><trkpt lat="43.8243183" lon="12.2338"><ele>383.0</ele><time>2026-04-26T11:29:50.024Z</time></trkpt><trkpt lat="43.824255" lon="12.2339167"><ele>381.0</ele><time>2026-04-26T11:29:51.023Z</time></trkpt><trkpt lat="43.824185" lon="12.2340083"><ele>379.0</ele><time>2026-04-26T11:29:52.024Z</time></trkpt><trkpt lat="43.8240983" lon="12.2340717"><ele>377.0</ele><time>2026-04-26T11:29:53.028Z</time></trkpt><trkpt lat="43.8240017" lon="12.2340783"><ele>375.0</ele><time>2026-04-26T11:29:54.025Z</time></trkpt><trkpt lat="43.8239033" lon="12.2340533"><ele>375.0</ele><time>2026-04-26T11:29:55.023Z</time></trkpt><trkpt lat="43.823825" lon="12.23401"><ele>375.0</ele><time>2026-04-26T11:29:56.022Z</time></trkpt><trkpt lat="43.82375" lon="12.23395"><ele>375.0</ele><time>2026-04-26T11:29:57.027Z</time></trkpt><trkpt lat="43.8237133" lon="12.233855"><ele>375.0</ele><time>2026-04-26T11:29:58.027Z</time></trkpt><trkpt lat="43.823695" lon="12.23375"><ele>375.0</ele><time>2026-04-26T11:29:59.023Z</time></trkpt><trkpt lat="43.8236683" lon="12.2336417"><ele>375.0</ele><time>2026-04-26T11:30:00.025Z</time></trkpt><trkpt lat="43.8236233" lon="12.2335383"><ele>374.6</ele><time>2026-04-26T11:30:01.024Z</time></trkpt><trkpt lat="43.8235633" lon="12.23345"><ele>374.2</ele><time>2026-04-26T11:30:02.026Z</time></trkpt><trkpt lat="43.8234917" lon="12.2333833"><ele>373.79999999999995</ele><time>2026-04-26T11:30:03.024Z</time></trkpt><trkpt lat="43.8233917" lon="12.2333867"><ele>373.4</ele><time>2026-04-26T11:30:04.024Z</time></trkpt><trkpt lat="43.8232967" lon="12.2334133"><ele>373.0</ele><time>2026-04-26T11:30:05.023Z</time></trkpt><trkpt lat="43.8232167" lon="12.2334633"><ele>371.4</ele><time>2026-04-26T11:30:06.025Z</time></trkpt><trkpt lat="43.8231567" lon="12.2335483"><ele>369.79999999999995</ele><time>2026-04-26T11:30:07.022Z</time></trkpt><trkpt lat="43.82311" lon="12.233655"><ele>368.2</ele><time>2026-04-26T11:30:08.023Z</time></trkpt><trkpt lat="43.8230617" lon="12.2337667"><ele>366.6</ele><time>2026-04-26T11:30:09.022Z</time></trkpt><trkpt lat="43.823" lon="12.233865"><ele>365.0</ele><time>2026-04-26T11:30:10.025Z</time></trkpt><trkpt lat="43.8229133" lon="12.23392"><ele>365.0</ele><time>2026-04-26T11:30:11.025Z</time></trkpt><trkpt lat="43.822805" lon="12.233935"><ele>365.0</ele><time>2026-04-26T11:30:12.023Z</time></trkpt><trkpt lat="43.82268" lon="12.2339033"><ele>365.0</ele><time>2026-04-26T11:30:13.026Z</time></trkpt><trkpt lat="43.8225533" lon="12.2338383"><ele>365.0</ele><time>2026-04-26T11:30:14.021Z</time></trkpt><trkpt lat="43.822445" lon="12.2337567"><ele>362.8</ele><time>2026-04-26T11:30:15.023Z</time></trkpt><trkpt lat="43.8223433" lon="12.2336783"><ele>360.6</ele><time>2026-04-26T11:30:16.024Z</time></trkpt><trkpt lat="43.8222617" lon="12.233595"><ele>358.4</ele><time>2026-04-26T11:30:17.025Z</time></trkpt><trkpt lat="43.8221767" lon="12.2335067"><ele>356.2</ele><time>2026-04-26T11:30:18.025Z</time></trkpt><trkpt lat="43.8220883" lon="12.2334183"><ele>354.0</ele><time>2026-04-26T11:30:19.028Z</time></trkpt><trkpt lat="43.8219933" lon="12.2333067"><ele>354.0</ele><time>2026-04-26T11:30:20.027Z</time></trkpt><trkpt lat="43.8218967" lon="12.2331917"><ele>354.0</ele><time>2026-04-26T11:30:21.025Z</time></trkpt><trkpt lat="43.8218067" lon="12.2330817"><ele>354.0</ele><time>2026-04-26T11:30:22.022Z</time></trkpt><trkpt lat="43.8217267" lon="12.2329817"><ele>354.0</ele><time>2026-04-26T11:30:23.022Z</time></trkpt><trkpt lat="43.8216517" lon="12.2328933"><ele>354.79999999999995</ele><time>2026-04-26T11:30:24.024Z</time></trkpt><trkpt lat="43.821585" lon="12.2328167"><ele>355.59999999999997</ele><time>2026-04-26T11:30:25.025Z</time></trkpt><trkpt lat="43.8215267" lon="12.2327467"><ele>356.4</ele><time>2026-04-26T11:30:26.023Z</time></trkpt><trkpt lat="43.8214733" lon="12.232685"><ele>357.2</ele><time>2026-04-26T11:30:27.023Z</time></trkpt><trkpt lat="43.821405" lon="12.2326033"><ele>358.0</ele><time>2026-04-26T11:30:29.024Z</time></trkpt><trkpt lat="43.82129" lon="12.232725"><ele>358.0</ele><time>2026-04-26T11:34:23.023Z</time></trkpt><trkpt lat="43.8212333" lon="12.232815"><ele>358.0</ele><time>2026-04-26T11:34:24.025Z</time></trkpt><trkpt lat="43.8211983" lon="12.2329367"><ele>358.0</ele><time>2026-04-26T11:34:25.025Z</time></trkpt><trkpt lat="43.8211633" lon="12.2330683"><ele>358.0</ele><time>2026-04-26T11:34:26.025Z</time></trkpt><trkpt lat="43.821085" lon="12.23325"><ele>358.0</ele><time>2026-04-26T11:34:27.024Z</time></trkpt><trkpt lat="43.8209783" lon="12.2334633"><ele>354.66666666666663</ele><time>2026-04-26T11:34:28.024Z</time></trkpt><trkpt lat="43.8208933" lon="12.2336717"><ele>351.3333333333333</ele><time>2026-04-26T11:34:29.026Z</time></trkpt><trkpt lat="43.820815" lon="12.2338683"><ele>348.0</ele><time>2026-04-26T11:34:30.026Z</time></trkpt><trkpt lat="43.82074" lon="12.23405"><ele>347.25</ele><time>2026-04-26T11:34:31.024Z</time></trkpt><trkpt lat="43.8206533" lon="12.2342167"><ele>346.5</ele><time>2026-04-26T11:34:32.025Z</time></trkpt><trkpt lat="43.8205817" lon="12.23439"><ele>345.75</ele><time>2026-04-26T11:34:33.025Z</time></trkpt><trkpt lat="43.8205217" lon="12.23457"><ele>345.0</ele><time>2026-04-26T11:34:34.025Z</time></trkpt><trkpt lat="43.8204483" lon="12.2347167"><ele>344.75</ele><time>2026-04-26T11:34:35.022Z</time></trkpt><trkpt lat="43.8204167" lon="12.2348817"><ele>344.5</ele><time>2026-04-26T11:34:36.025Z</time></trkpt><trkpt lat="43.82036" lon="12.2350267"><ele>344.25</ele><time>2026-04-26T11:34:37.023Z</time></trkpt><trkpt lat="43.8202767" lon="12.2351483"><ele>344.0</ele><time>2026-04-26T11:34:38.023Z</time></trkpt><trkpt lat="43.8202067" lon="12.2352733"><ele>344.0</ele><time>2026-04-26T11:34:39.023Z</time></trkpt><trkpt lat="43.8201617" lon="12.2354117"><ele>344.0</ele><time>2026-04-26T11:34:40.023Z</time></trkpt><trkpt lat="43.8200933" lon="12.2355333"><ele>344.0</ele><time>2026-04-26T11:34:41.022Z</time></trkpt><trkpt lat="43.82003" lon="12.2356617"><ele>344.0</ele><time>2026-04-26T11:34:42.023Z</time></trkpt><trkpt lat="43.819975" lon="12.2358033"><ele>344.0</ele><time>2026-04-26T11:34:43.025Z</time></trkpt><trkpt lat="43.8199317" lon="12.2359417"><ele>344.75</ele><time>2026-04-26T11:34:44.023Z</time></trkpt><trkpt lat="43.8198617" lon="12.2360733"><ele>345.5</ele><time>2026-04-26T11:34:45.025Z</time></trkpt><trkpt lat="43.819825" lon="12.2362183"><ele>346.25</ele><time>2026-04-26T11:34:46.025Z</time></trkpt><trkpt lat="43.81977" lon="12.2363583"><ele>347.0</ele><time>2026-04-26T11:34:47.022Z</time></trkpt><trkpt lat="43.8196817" lon="12.23651"><ele>347.5</ele><time>2026-04-26T11:34:48.024Z</time></trkpt><trkpt lat="43.8196017" lon="12.2366717"><ele>348.0</ele><time>2026-04-26T11:34:49.024Z</time></trkpt><trkpt lat="43.8195433" lon="12.2368567"><ele>348.5</ele><time>2026-04-26T11:34:50.024Z</time></trkpt><trkpt lat="43.819505" lon="12.237055"><ele>349.0</ele><time>2026-04-26T11:34:51.025Z</time></trkpt><trkpt lat="43.8194317" lon="12.237295"><ele>348.66666666666663</ele><time>2026-04-26T11:34:52.03Z</time></trkpt><trkpt lat="43.819365" lon="12.23755"><ele>348.3333333333333</ele><time>2026-04-26T11:34:53.026Z</time></trkpt><trkpt lat="43.8193383" lon="12.2378517"><ele>348.0</ele><time>2026-04-26T11:34:54.026Z</time></trkpt><trkpt lat="43.8192633" lon="12.2381733"><ele>348.0</ele><time>2026-04-26T11:34:55.026Z</time></trkpt><trkpt lat="43.8192383" lon="12.238485"><ele>348.0</ele><time>2026-04-26T11:34:56.027Z</time></trkpt><trkpt lat="43.8192867" lon="12.2387817"><ele>348.0</ele><time>2026-04-26T11:34:57.026Z</time></trkpt><trkpt lat="43.8192583" lon="12.2391183"><ele>348.0</ele><time>2026-04-26T11:34:58.026Z</time></trkpt><trkpt lat="43.8192" lon="12.239455"><ele>348.0</ele><time>2026-04-26T11:34:59.025Z</time></trkpt><trkpt lat="43.8191917" lon="12.2397583"><ele>348.5</ele><time>2026-04-26T11:35:00.025Z</time></trkpt><trkpt lat="43.8190933" lon="12.2400733"><ele>349.0</ele><time>2026-04-26T11:35:01.026Z</time></trkpt><trkpt lat="43.81906" lon="12.2403583"><ele>349.0</ele><time>2026-04-26T11:35:02.025Z</time></trkpt><trkpt lat="43.819025" lon="12.24063"><ele>349.0</ele><time>2026-04-26T11:35:03.026Z</time></trkpt><trkpt lat="43.8189983" lon="12.2408817"><ele>349.0</ele><time>2026-04-26T11:35:04.024Z</time></trkpt><trkpt lat="43.81899" lon="12.2411183"><ele>349.3333333333333</ele><time>2026-04-26T11:35:05.025Z</time></trkpt><trkpt lat="43.8190117" lon="12.2413483"><ele>349.6666666666667</ele><time>2026-04-26T11:35:06.024Z</time></trkpt><trkpt lat="43.8190717" lon="12.2415817"><ele>350.0</ele><time>2026-04-26T11:35:07.025Z</time></trkpt><trkpt lat="43.8191617" lon="12.2417967"><ele>350.33333333333337</ele><time>2026-04-26T11:35:08.025Z</time></trkpt><trkpt lat="43.8192783" lon="12.2420133"><ele>350.6666666666667</ele><time>2026-04-26T11:35:09.029Z</time></trkpt><trkpt lat="43.8193333" lon="12.2422117"><ele>351.0</ele><time>2026-04-26T11:35:10.024Z</time></trkpt><trkpt lat="43.8193933" lon="12.2423433"><ele>352.0</ele><time>2026-04-26T11:35:11.024Z</time></trkpt><trkpt lat="43.819415" lon="12.2425283"><ele>353.0</ele><time>2026-04-26T11:35:12.024Z</time></trkpt><trkpt lat="43.8194067" lon="12.242755"><ele>354.0</ele><time>2026-04-26T11:35:13.023Z</time></trkpt><trkpt lat="43.819375" lon="12.2429933"><ele>354.3333333333333</ele><time>2026-04-26T11:35:14.023Z</time></trkpt><trkpt lat="43.8193267" lon="12.2432467"><ele>354.66666666666663</ele><time>2026-04-26T11:35:15.022Z</time></trkpt><trkpt lat="43.8192733" lon="12.2435067"><ele>355.0</ele><time>2026-04-26T11:35:16.025Z</time></trkpt><trkpt lat="43.8192233" lon="12.2437567"><ele>356.66666666666663</ele><time>2026-04-26T11:35:17.025Z</time></trkpt><trkpt lat="43.819175" lon="12.2439817"><ele>358.3333333333333</ele><time>2026-04-26T11:35:18.025Z</time></trkpt><trkpt lat="43.8191283" lon="12.2441867"><ele>360.0</ele><time>2026-04-26T11:35:19.025Z</time></trkpt><trkpt lat="43.8190867" lon="12.24437"><ele>360.0</ele><time>2026-04-26T11:35:20.026Z</time></trkpt><trkpt lat="43.8190483" lon="12.244545"><ele>360.0</ele><time>2026-04-26T11:35:21.026Z</time></trkpt><trkpt lat="43.8190117" lon="12.2447167"><ele>360.0</ele><time>2026-04-26T11:35:22.025Z</time></trkpt><trkpt lat="43.8189767" lon="12.2448817"><ele>360.0</ele><time>2026-04-26T11:35:23.023Z</time></trkpt><trkpt lat="43.8189367" lon="12.24503"><ele>360.6666666666667</ele><time>2026-04-26T11:35:24.025Z</time></trkpt><trkpt lat="43.8188967" lon="12.2451583"><ele>361.3333333333333</ele><time>2026-04-26T11:35:25.022Z</time></trkpt><trkpt lat="43.8188483" lon="12.24526"><ele>362.0</ele><time>2026-04-26T11:35:26.024Z</time></trkpt><trkpt lat="43.818795" lon="12.2453317"><ele>362.66666666666663</ele><time>2026-04-26T11:35:27.023Z</time></trkpt><trkpt lat="43.8187167" lon="12.2453683"><ele>363.3333333333333</ele><time>2026-04-26T11:35:29.025Z</time></trkpt><trkpt lat="43.8186433" lon="12.2452833"><ele>364.0</ele><time>2026-04-26T11:35:36.024Z</time></trkpt><trkpt lat="43.8185683" lon="12.2451883"><ele>364.0</ele><time>2026-04-26T11:35:37.024Z</time></trkpt><trkpt lat="43.8184867" lon="12.2450817"><ele>364.0</ele><time>2026-04-26T11:35:38.028Z</time></trkpt><trkpt lat="43.8183817" lon="12.2449583"><ele>364.0</ele><time>2026-04-26T11:35:39.025Z</time></trkpt><trkpt lat="43.8182583" lon="12.2448317"><ele>364.0</ele><time>2026-04-26T11:35:40.025Z</time></trkpt><trkpt lat="43.8181167" lon="12.2447017"><ele>364.66666666666663</ele><time>2026-04-26T11:35:41.023Z</time></trkpt><trkpt lat="43.8179567" lon="12.244575"><ele>365.3333333333333</ele><time>2026-04-26T11:35:42.023Z</time></trkpt><trkpt lat="43.8177833" lon="12.24445"><ele>366.0</ele><time>2026-04-26T11:35:43.026Z</time></trkpt><trkpt lat="43.8176067" lon="12.24433"><ele>366.3333333333333</ele><time>2026-04-26T11:35:44.024Z</time></trkpt><trkpt lat="43.8174167" lon="12.2442183"><ele>366.66666666666663</ele><time>2026-04-26T11:35:45.025Z</time></trkpt><trkpt lat="43.81723" lon="12.244075"><ele>367.0</ele><time>2026-04-26T11:35:46.024Z</time></trkpt><trkpt lat="43.8170317" lon="12.243955"><ele>367.0</ele><time>2026-04-26T11:35:47.022Z</time></trkpt><trkpt lat="43.8168283" lon="12.2438317"><ele>367.0</ele><time>2026-04-26T11:35:48.024Z</time></trkpt><trkpt lat="43.81662" lon="12.2437033"><ele>371.5</ele><time>2026-04-26T11:35:49.025Z</time></trkpt><trkpt lat="43.8164067" lon="12.2435683"><ele>376.0</ele><time>2026-04-26T11:35:50.024Z</time></trkpt><trkpt lat="43.8161917" lon="12.2434267"><ele>380.0</ele><time>2026-04-26T11:35:51.024Z</time></trkpt><trkpt lat="43.815975" lon="12.2432833"><ele>384.0</ele><time>2026-04-26T11:35:52.024Z</time></trkpt><trkpt lat="43.815755" lon="12.2431417"><ele>379.0</ele><time>2026-04-26T11:35:53.024Z</time></trkpt><trkpt lat="43.8155317" lon="12.2430033"><ele>374.0</ele><time>2026-04-26T11:35:54.025Z</time></trkpt><trkpt lat="43.81532" lon="12.242875"><ele>376.6666666666667</ele><time>2026-04-26T11:35:55.025Z</time></trkpt><trkpt lat="43.815115" lon="12.2427483"><ele>379.3333333333333</ele><time>2026-04-26T11:35:56.026Z</time></trkpt><trkpt lat="43.814915" lon="12.2426217"><ele>382.0</ele><time>2026-04-26T11:35:57.026Z</time></trkpt><trkpt lat="43.81472" lon="12.2424967"><ele>382.0</ele><time>2026-04-26T11:35:58.025Z</time></trkpt><trkpt lat="43.8145283" lon="12.2423733"><ele>382.0</ele><time>2026-04-26T11:35:59.025Z</time></trkpt><trkpt lat="43.8143417" lon="12.2422583"><ele>382.0</ele><time>2026-04-26T11:36:00.025Z</time></trkpt><trkpt lat="43.814155" lon="12.2421383"><ele>381.3333333333333</ele><time>2026-04-26T11:36:01.026Z</time></trkpt><trkpt lat="43.8139717" lon="12.2420167"><ele>380.6666666666667</ele><time>2026-04-26T11:36:02.023Z</time></trkpt><trkpt lat="43.8138" lon="12.24192"><ele>380.0</ele><time>2026-04-26T11:36:03.025Z</time></trkpt><trkpt lat="43.8136383" lon="12.2418517"><ele>382.0</ele><time>2026-04-26T11:36:04.025Z</time></trkpt><trkpt lat="43.8134783" lon="12.2418233"><ele>384.0</ele><time>2026-04-26T11:36:05.021Z</time></trkpt><trkpt lat="43.8133117" lon="12.2418267"><ele>386.0</ele><time>2026-04-26T11:36:06.023Z</time></trkpt><trkpt lat="43.8131417" lon="12.2418617"><ele>386.0</ele><time>2026-04-26T11:36:07.023Z</time></trkpt><trkpt lat="43.812965" lon="12.241935"><ele>386.0</ele><time>2026-04-26T11:36:08.026Z</time></trkpt><trkpt lat="43.8128" lon="12.2420383"><ele>386.0</ele><time>2026-04-26T11:36:09.026Z</time></trkpt><trkpt lat="43.8126367" lon="12.2421533"><ele>387.3333333333333</ele><time>2026-04-26T11:36:10.024Z</time></trkpt><trkpt lat="43.8124733" lon="12.2422617"><ele>388.66666666666663</ele><time>2026-04-26T11:36:11.025Z</time></trkpt><trkpt lat="43.8123083" lon="12.2423367"><ele>390.0</ele><time>2026-04-26T11:36:12.023Z</time></trkpt><trkpt lat="43.8121417" lon="12.24238"><ele>389.33333333333337</ele><time>2026-04-26T11:36:13.023Z</time></trkpt><trkpt lat="43.811975" lon="12.2423783"><ele>388.6666666666667</ele><time>2026-04-26T11:36:14.022Z</time></trkpt><trkpt lat="43.8118067" lon="12.2423367"><ele>388.0</ele><time>2026-04-26T11:36:15.023Z</time></trkpt><trkpt lat="43.8116333" lon="12.24227"><ele>387.33333333333337</ele><time>2026-04-26T11:36:16.022Z</time></trkpt><trkpt lat="43.8114533" lon="12.2421867"><ele>386.66666666666663</ele><time>2026-04-26T11:36:17.025Z</time></trkpt><trkpt lat="43.8112733" lon="12.2420967"><ele>386.0</ele><time>2026-04-26T11:36:18.026Z</time></trkpt><trkpt lat="43.811085" lon="12.2420033"><ele>386.3333333333333</ele><time>2026-04-26T11:36:19.025Z</time></trkpt><trkpt lat="43.81089" lon="12.241915"><ele>386.66666666666663</ele><time>2026-04-26T11:36:20.024Z</time></trkpt><trkpt lat="43.81069" lon="12.2418317"><ele>387.0</ele><time>2026-04-26T11:36:21.026Z</time></trkpt><trkpt lat="43.8104783" lon="12.241745"><ele>387.0</ele><time>2026-04-26T11:36:22.024Z</time></trkpt><trkpt lat="43.8102667" lon="12.2416517"><ele>387.0</ele><time>2026-04-26T11:36:23.024Z</time></trkpt><trkpt lat="43.810055" lon="12.2415583"><ele>387.0</ele><time>2026-04-26T11:36:24.026Z</time></trkpt><trkpt lat="43.8098467" lon="12.2414633"><ele>387.0</ele><time>2026-04-26T11:36:25.026Z</time></trkpt><trkpt lat="43.8096417" lon="12.241355"><ele>387.0</ele><time>2026-04-26T11:36:26.024Z</time></trkpt><trkpt lat="43.8094617" lon="12.241225"><ele>387.0</ele><time>2026-04-26T11:36:27.026Z</time></trkpt><trkpt lat="43.8093133" lon="12.241075"><ele>389.33333333333337</ele><time>2026-04-26T11:36:28.024Z</time></trkpt><trkpt lat="43.809185" lon="12.24091"><ele>391.6666666666667</ele><time>2026-04-26T11:36:29.023Z</time></trkpt><trkpt lat="43.8090867" lon="12.2407217"><ele>394.0</ele><time>2026-04-26T11:36:30.024Z</time></trkpt><trkpt lat="43.8090117" lon="12.2405083"><ele>394.0</ele><time>2026-04-26T11:36:31.025Z</time></trkpt><trkpt lat="43.8089617" lon="12.2402833"><ele>394.0</ele><time>2026-04-26T11:36:32.023Z</time></trkpt><trkpt lat="43.8089367" lon="12.240045"><ele>394.0</ele><time>2026-04-26T11:36:33.024Z</time></trkpt><trkpt lat="43.80894" lon="12.2397933"><ele>395.6666666666667</ele><time>2026-04-26T11:36:34.024Z</time></trkpt><trkpt lat="43.8089617" lon="12.2395467"><ele>397.33333333333337</ele><time>2026-04-26T11:36:35.024Z</time></trkpt><trkpt lat="43.80901" lon="12.2393067"><ele>399.0</ele><time>2026-04-26T11:36:36.024Z</time></trkpt><trkpt lat="43.8090817" lon="12.239085"><ele>398.66666666666663</ele><time>2026-04-26T11:36:37.024Z</time></trkpt><trkpt lat="43.80918" lon="12.2388733"><ele>398.3333333333333</ele><time>2026-04-26T11:36:38.024Z</time></trkpt><trkpt lat="43.80931" lon="12.238685"><ele>398.0</ele><time>2026-04-26T11:36:39.023Z</time></trkpt><trkpt lat="43.8094667" lon="12.23851"><ele>398.0</ele><time>2026-04-26T11:36:40.024Z</time></trkpt><trkpt lat="43.8096417" lon="12.2383483"><ele>398.0</ele><time>2026-04-26T11:36:41.025Z</time></trkpt><trkpt lat="43.809825" lon="12.2381933"><ele>398.0</ele><time>2026-04-26T11:36:42.024Z</time></trkpt><trkpt lat="43.8099917" lon="12.2380567"><ele>396.0</ele><time>2026-04-26T11:36:43.024Z</time></trkpt><trkpt lat="43.8101417" lon="12.2379267"><ele>394.0</ele><time>2026-04-26T11:36:44.025Z</time></trkpt><trkpt lat="43.810265" lon="12.237815"><ele>392.0</ele><time>2026-04-26T11:36:45.028Z</time></trkpt><trkpt lat="43.8103633" lon="12.2376917"><ele>392.0</ele><time>2026-04-26T11:36:46.025Z</time></trkpt><trkpt lat="43.81043" lon="12.2375567"><ele>392.0</ele><time>2026-04-26T11:36:47.029Z</time></trkpt><trkpt lat="43.81046" lon="12.2374133"><ele>392.0</ele><time>2026-04-26T11:36:48.026Z</time></trkpt><trkpt lat="43.81047" lon="12.2372717"><ele>392.0</ele><time>2026-04-26T11:36:49.026Z</time></trkpt><trkpt lat="43.8104467" lon="12.2371233"><ele>392.0</ele><time>2026-04-26T11:36:50.025Z</time></trkpt><trkpt lat="43.8103767" lon="12.236985"><ele>390.0</ele><time>2026-04-26T11:36:51.027Z</time></trkpt><trkpt lat="43.8102517" lon="12.23684"><ele>388.0</ele><time>2026-04-26T11:36:52.029Z</time></trkpt><trkpt lat="43.8100967" lon="12.236715"><ele>386.0</ele><time>2026-04-26T11:36:53.024Z</time></trkpt><trkpt lat="43.8099383" lon="12.236585"><ele>389.3333333333333</ele><time>2026-04-26T11:36:54.029Z</time></trkpt><trkpt lat="43.809795" lon="12.23643"><ele>392.66666666666663</ele><time>2026-04-26T11:36:55.026Z</time></trkpt><trkpt lat="43.8096783" lon="12.2362483"><ele>396.0</ele><time>2026-04-26T11:36:56.026Z</time></trkpt><trkpt lat="43.8096017" lon="12.23604"><ele>396.0</ele><time>2026-04-26T11:36:57.024Z</time></trkpt><trkpt lat="43.80956" lon="12.2358017"><ele>396.0</ele><time>2026-04-26T11:36:58.024Z</time></trkpt><trkpt lat="43.8095367" lon="12.2355317"><ele>396.0</ele><time>2026-04-26T11:36:59.026Z</time></trkpt><trkpt lat="43.8095283" lon="12.235245"><ele>396.0</ele><time>2026-04-26T11:37:00.026Z</time></trkpt><trkpt lat="43.8095283" lon="12.23495"><ele>396.0</ele><time>2026-04-26T11:37:01.025Z</time></trkpt><trkpt lat="43.8095267" lon="12.2346567"><ele>396.0</ele><time>2026-04-26T11:37:02.026Z</time></trkpt><trkpt lat="43.8095217" lon="12.23438"><ele>396.0</ele><time>2026-04-26T11:37:03.026Z</time></trkpt><trkpt lat="43.809505" lon="12.2341383"><ele>396.0</ele><time>2026-04-26T11:37:04.026Z</time></trkpt><trkpt lat="43.80946" lon="12.23392"><ele>396.0</ele><time>2026-04-26T11:37:05.025Z</time></trkpt><trkpt lat="43.80938" lon="12.2337233"><ele>403.66666666666663</ele><time>2026-04-26T11:37:06.025Z</time></trkpt><trkpt lat="43.8092733" lon="12.2335417"><ele>411.3333333333333</ele><time>2026-04-26T11:37:07.026Z</time></trkpt><trkpt lat="43.809165" lon="12.2333583"><ele>419.0</ele><time>2026-04-26T11:37:08.024Z</time></trkpt><trkpt lat="43.80907" lon="12.23316"><ele>417.3333333333333</ele><time>2026-04-26T11:37:09.024Z</time></trkpt><trkpt lat="43.80901" lon="12.232945"><ele>415.66666666666663</ele><time>2026-04-26T11:37:10.025Z</time></trkpt><trkpt lat="43.8089833" lon="12.2327133"><ele>414.0</ele><time>2026-04-26T11:37:11.025Z</time></trkpt><trkpt lat="43.8089917" lon="12.2324667"><ele>416.33333333333337</ele><time>2026-04-26T11:37:12.026Z</time></trkpt><trkpt lat="43.80903" lon="12.2322083"><ele>418.6666666666667</ele><time>2026-04-26T11:37:13.026Z</time></trkpt><trkpt lat="43.809075" lon="12.23194"><ele>421.0</ele><time>2026-04-26T11:37:14.026Z</time></trkpt><trkpt lat="43.809115" lon="12.23166"><ele>425.0</ele><time>2026-04-26T11:37:15.027Z</time></trkpt><trkpt lat="43.8091483" lon="12.23137"><ele>429.0</ele><time>2026-04-26T11:37:16.025Z</time></trkpt><trkpt lat="43.80919" lon="12.23107"><ele>433.0</ele><time>2026-04-26T11:37:17.025Z</time></trkpt><trkpt lat="43.8092433" lon="12.2307667"><ele>436.33333333333337</ele><time>2026-04-26T11:37:18.029Z</time></trkpt><trkpt lat="43.8093133" lon="12.2304867"><ele>439.66666666666663</ele><time>2026-04-26T11:37:19.028Z</time></trkpt><trkpt lat="43.8093883" lon="12.2302383"><ele>443.0</ele><time>2026-04-26T11:37:20.027Z</time></trkpt><trkpt lat="43.8094517" lon="12.2300117"><ele>426.3333333333333</ele><time>2026-04-26T11:37:21.027Z</time></trkpt><trkpt lat="43.8094967" lon="12.2297867"><ele>409.66666666666663</ele><time>2026-04-26T11:37:22.025Z</time></trkpt><trkpt lat="43.8095117" lon="12.22956"><ele>393.0</ele><time>2026-04-26T11:37:23.026Z</time></trkpt><trkpt lat="43.8095067" lon="12.22935"><ele>393.0</ele><time>2026-04-26T11:37:24.026Z</time></trkpt><trkpt lat="43.80948" lon="12.2291583"><ele>393.0</ele><time>2026-04-26T11:37:25.024Z</time></trkpt><trkpt lat="43.809425" lon="12.2289733"><ele>393.0</ele><time>2026-04-26T11:37:26.027Z</time></trkpt><trkpt lat="43.8093317" lon="12.2287967"><ele>393.0</ele><time>2026-04-26T11:37:27.026Z</time></trkpt><trkpt lat="43.8092183" lon="12.228615"><ele>394.66666666666663</ele><time>2026-04-26T11:37:28.025Z</time></trkpt><trkpt lat="43.80909" lon="12.2284233"><ele>396.3333333333333</ele><time>2026-04-26T11:37:29.024Z</time></trkpt><trkpt lat="43.8089533" lon="12.22823"><ele>398.0</ele><time>2026-04-26T11:37:30.025Z</time></trkpt><trkpt lat="43.8088067" lon="12.2280283"><ele>398.0</ele><time>2026-04-26T11:37:31.027Z</time></trkpt><trkpt lat="43.808665" lon="12.2278183"><ele>398.0</ele><time>2026-04-26T11:37:32.024Z</time></trkpt><trkpt lat="43.8085183" lon="12.2276133"><ele>398.0</ele><time>2026-04-26T11:37:33.025Z</time></trkpt><trkpt lat="43.808375" lon="12.22742"><ele>402.0</ele><time>2026-04-26T11:37:34.025Z</time></trkpt><trkpt lat="43.80823" lon="12.2272483"><ele>406.0</ele><time>2026-04-26T11:37:35.025Z</time></trkpt><trkpt lat="43.8080733" lon="12.2271017"><ele>410.0</ele><time>2026-04-26T11:37:36.028Z</time></trkpt><trkpt lat="43.807905" lon="12.2269767"><ele>410.0</ele><time>2026-04-26T11:37:37.024Z</time></trkpt><trkpt lat="43.80773" lon="12.2268633"><ele>410.0</ele><time>2026-04-26T11:37:38.025Z</time></trkpt><trkpt lat="43.8075517" lon="12.22677"><ele>410.0</ele><time>2026-04-26T11:37:39.025Z</time></trkpt><trkpt lat="43.80738" lon="12.226685"><ele>416.0</ele><time>2026-04-26T11:37:40.027Z</time></trkpt><trkpt lat="43.80722" lon="12.226615"><ele>422.0</ele><time>2026-04-26T11:37:41.026Z</time></trkpt><trkpt lat="43.80706" lon="12.2265867"><ele>428.0</ele><time>2026-04-26T11:37:42.025Z</time></trkpt><trkpt lat="43.8068933" lon="12.22662"><ele>428.3333333333333</ele><time>2026-04-26T11:37:43.025Z</time></trkpt><trkpt lat="43.8067233" lon="12.226705"><ele>428.66666666666663</ele><time>2026-04-26T11:37:44.024Z</time></trkpt><trkpt lat="43.8065483" lon="12.2268183"><ele>429.0</ele><time>2026-04-26T11:37:45.025Z</time></trkpt><trkpt lat="43.8063617" lon="12.2269317"><ele>429.0</ele><time>2026-04-26T11:37:46.024Z</time></trkpt><trkpt lat="43.80617" lon="12.2270317"><ele>429.0</ele><time>2026-04-26T11:37:47.024Z</time></trkpt><trkpt lat="43.8059817" lon="12.2271067"><ele>429.0</ele><time>2026-04-26T11:37:48.025Z</time></trkpt><trkpt lat="43.8058017" lon="12.22716"><ele>430.0</ele><time>2026-04-26T11:37:49.026Z</time></trkpt><trkpt lat="43.80564" lon="12.2271967"><ele>431.0</ele><time>2026-04-26T11:37:50.026Z</time></trkpt><trkpt lat="43.8055033" lon="12.2272033"><ele>432.0</ele><time>2026-04-26T11:37:51.026Z</time></trkpt><trkpt lat="43.8053883" lon="12.2271733"><ele>433.0</ele><time>2026-04-26T11:37:52.025Z</time></trkpt><trkpt lat="43.80531" lon="12.227105"><ele>433.0</ele><time>2026-04-26T11:37:53.024Z</time></trkpt><trkpt lat="43.8052717" lon="12.22701"><ele>432.99999999999994</ele><time>2026-04-26T11:37:54.026Z</time></trkpt><trkpt lat="43.8052717" lon="12.22688"><ele>432.99999999999994</ele><time>2026-04-26T11:37:55.022Z</time></trkpt><trkpt lat="43.8052967" lon="12.2267283"><ele>433.0</ele><time>2026-04-26T11:37:56.026Z</time></trkpt><trkpt lat="43.8053467" lon="12.22656"><ele>433.0</ele><time>2026-04-26T11:37:57.025Z</time></trkpt><trkpt lat="43.8054017" lon="12.22637"><ele>430.75</ele><time>2026-04-26T11:37:58.024Z</time></trkpt><trkpt lat="43.80544" lon="12.2261767"><ele>428.5</ele><time>2026-04-26T11:37:59.025Z</time></trkpt><trkpt lat="43.8054583" lon="12.2259833"><ele>426.25</ele><time>2026-04-26T11:38:00.024Z</time></trkpt><trkpt lat="43.8054467" lon="12.2258133"><ele>424.0</ele><time>2026-04-26T11:38:01.026Z</time></trkpt><trkpt lat="43.805395" lon="12.22568"><ele>425.25</ele><time>2026-04-26T11:38:02.027Z</time></trkpt><trkpt lat="43.8053033" lon="12.22557"><ele>426.5</ele><time>2026-04-26T11:38:03.028Z</time></trkpt><trkpt lat="43.8051817" lon="12.2254667"><ele>427.75</ele><time>2026-04-26T11:38:04.026Z</time></trkpt><trkpt lat="43.8050467" lon="12.22535"><ele>429.0</ele><time>2026-04-26T11:38:05.026Z</time></trkpt><trkpt lat="43.8049067" lon="12.2252117"><ele>429.0</ele><time>2026-04-26T11:38:06.026Z</time></trkpt><trkpt lat="43.8047767" lon="12.225075"><ele>429.0</ele><time>2026-04-26T11:38:07.024Z</time></trkpt><trkpt lat="43.80466" lon="12.224965"><ele>429.0</ele><time>2026-04-26T11:38:08.025Z</time></trkpt><trkpt lat="43.8045467" lon="12.2248967"><ele>429.0</ele><time>2026-04-26T11:38:09.026Z</time></trkpt><trkpt lat="43.8044333" lon="12.224895"><ele>432.75</ele><time>2026-04-26T11:38:10.023Z</time></trkpt><trkpt lat="43.8043133" lon="12.22495"><ele>436.5</ele><time>2026-04-26T11:38:11.025Z</time></trkpt><trkpt lat="43.8041833" lon="12.2250333"><ele>440.25</ele><time>2026-04-26T11:38:12.025Z</time></trkpt><trkpt lat="43.8040283" lon="12.22512"><ele>444.0</ele><time>2026-04-26T11:38:13.025Z</time></trkpt><trkpt lat="43.803865" lon="12.22519"><ele>444.0</ele><time>2026-04-26T11:38:14.023Z</time></trkpt><trkpt lat="43.803705" lon="12.2252533"><ele>444.0</ele><time>2026-04-26T11:38:15.024Z</time></trkpt><trkpt lat="43.80355" lon="12.22531"><ele>444.0</ele><time>2026-04-26T11:38:16.024Z</time></trkpt><trkpt lat="43.8034067" lon="12.2253467"><ele>443.25</ele><time>2026-04-26T11:38:17.025Z</time></trkpt><trkpt lat="43.8032717" lon="12.2253533"><ele>442.5</ele><time>2026-04-26T11:38:18.029Z</time></trkpt><trkpt lat="43.803155" lon="12.2253"><ele>441.75</ele><time>2026-04-26T11:38:19.024Z</time></trkpt><trkpt lat="43.8030617" lon="12.2252033"><ele>441.0</ele><time>2026-04-26T11:38:20.023Z</time></trkpt><trkpt lat="43.8029967" lon="12.225065"><ele>441.0</ele><time>2026-04-26T11:38:21.024Z</time></trkpt><trkpt lat="43.8029333" lon="12.2248833"><ele>441.0</ele><time>2026-04-26T11:38:22.025Z</time></trkpt><trkpt lat="43.8028683" lon="12.2246717"><ele>441.0</ele><time>2026-04-26T11:38:23.028Z</time></trkpt><trkpt lat="43.8028117" lon="12.2244533"><ele>436.0</ele><time>2026-04-26T11:38:24.024Z</time></trkpt><trkpt lat="43.8027733" lon="12.22424"><ele>431.0</ele><time>2026-04-26T11:38:25.025Z</time></trkpt><trkpt lat="43.8027717" lon="12.22403"><ele>426.0</ele><time>2026-04-26T11:38:26.025Z</time></trkpt><trkpt lat="43.8028117" lon="12.2238217"><ele>425.33333333333337</ele><time>2026-04-26T11:38:27.026Z</time></trkpt><trkpt lat="43.8028867" lon="12.2236117"><ele>424.6666666666667</ele><time>2026-04-26T11:38:28.028Z</time></trkpt><trkpt lat="43.8029617" lon="12.2234067"><ele>424.0</ele><time>2026-04-26T11:38:29.022Z</time></trkpt><trkpt lat="43.8030167" lon="12.2232017"><ele>422.75</ele><time>2026-04-26T11:38:30.026Z</time></trkpt><trkpt lat="43.8030517" lon="12.223005"><ele>421.5</ele><time>2026-04-26T11:38:31.024Z</time></trkpt><trkpt lat="43.80304" lon="12.22281"><ele>420.25</ele><time>2026-04-26T11:38:32.024Z</time></trkpt><trkpt lat="43.8029983" lon="12.222625"><ele>419.0</ele><time>2026-04-26T11:38:33.025Z</time></trkpt><trkpt lat="43.8029117" lon="12.2224533"><ele>410.66666666666663</ele><time>2026-04-26T11:38:34.025Z</time></trkpt><trkpt lat="43.802795" lon="12.22229"><ele>402.33333333333337</ele><time>2026-04-26T11:38:35.025Z</time></trkpt><trkpt lat="43.80267" lon="12.2221283"><ele>394.0</ele><time>2026-04-26T11:38:36.024Z</time></trkpt><trkpt lat="43.802555" lon="12.2219583"><ele>405.33333333333337</ele><time>2026-04-26T11:38:37.026Z</time></trkpt><trkpt lat="43.80246" lon="12.221765"><ele>416.66666666666663</ele><time>2026-04-26T11:38:38.024Z</time></trkpt><trkpt lat="43.80239" lon="12.2215317"><ele>428.0</ele><time>2026-04-26T11:38:39.025Z</time></trkpt><trkpt lat="43.8023267" lon="12.2212833"><ele>428.0</ele><time>2026-04-26T11:38:40.024Z</time></trkpt><trkpt lat="43.8022583" lon="12.2210267"><ele>428.0</ele><time>2026-04-26T11:38:41.026Z</time></trkpt><trkpt lat="43.8021817" lon="12.2207717"><ele>428.0</ele><time>2026-04-26T11:38:42.025Z</time></trkpt><trkpt lat="43.8020917" lon="12.2205183"><ele>422.66666666666663</ele><time>2026-04-26T11:38:43.024Z</time></trkpt><trkpt lat="43.8019917" lon="12.2202817"><ele>417.33333333333337</ele><time>2026-04-26T11:38:44.027Z</time></trkpt><trkpt lat="43.8018917" lon="12.2200583"><ele>412.0</ele><time>2026-04-26T11:38:45.024Z</time></trkpt><trkpt lat="43.801795" lon="12.2198567"><ele>417.0</ele><time>2026-04-26T11:38:46.025Z</time></trkpt><trkpt lat="43.80171" lon="12.21968"><ele>422.0</ele><time>2026-04-26T11:38:47.023Z</time></trkpt><trkpt lat="43.8016183" lon="12.2195483"><ele>427.0</ele><time>2026-04-26T11:38:48.023Z</time></trkpt><trkpt lat="43.801515" lon="12.2194617"><ele>432.0</ele><time>2026-04-26T11:38:49.024Z</time></trkpt><trkpt lat="43.801385" lon="12.219435"><ele>432.0</ele><time>2026-04-26T11:38:50.025Z</time></trkpt><trkpt lat="43.80125" lon="12.2194367"><ele>432.0</ele><time>2026-04-26T11:38:51.024Z</time></trkpt><trkpt lat="43.80112" lon="12.2194167"><ele>432.0</ele><time>2026-04-26T11:38:52.023Z</time></trkpt><trkpt lat="43.8010083" lon="12.2193617"><ele>432.0</ele><time>2026-04-26T11:38:53.025Z</time></trkpt><trkpt lat="43.8009333" lon="12.2192567"><ele>434.75</ele><time>2026-04-26T11:38:54.023Z</time></trkpt><trkpt lat="43.8008883" lon="12.2191183"><ele>437.5</ele><time>2026-04-26T11:38:55.024Z</time></trkpt><trkpt lat="43.8008817" lon="12.218945"><ele>440.25</ele><time>2026-04-26T11:38:56.022Z</time></trkpt><trkpt lat="43.8008983" lon="12.21875"><ele>443.0</ele><time>2026-04-26T11:38:57.029Z</time></trkpt><trkpt lat="43.8009117" lon="12.2185533"><ele>443.0</ele><time>2026-04-26T11:38:58.025Z</time></trkpt><trkpt lat="43.8008983" lon="12.2183533"><ele>443.0</ele><time>2026-04-26T11:38:59.023Z</time></trkpt><trkpt lat="43.800845" lon="12.218145"><ele>443.0</ele><time>2026-04-26T11:39:00.024Z</time></trkpt><trkpt lat="43.8007567" lon="12.2179367"><ele>435.3333333333333</ele><time>2026-04-26T11:39:01.024Z</time></trkpt><trkpt lat="43.800635" lon="12.2177383"><ele>427.66666666666663</ele><time>2026-04-26T11:39:02.025Z</time></trkpt><trkpt lat="43.80049" lon="12.21755"><ele>420.0</ele><time>2026-04-26T11:39:03.025Z</time></trkpt><trkpt lat="43.8003317" lon="12.2173583"><ele>424.66666666666663</ele><time>2026-04-26T11:39:04.024Z</time></trkpt><trkpt lat="43.8001933" lon="12.217155"><ele>429.3333333333333</ele><time>2026-04-26T11:39:05.023Z</time></trkpt><trkpt lat="43.800075" lon="12.2169583"><ele>434.0</ele><time>2026-04-26T11:39:06.024Z</time></trkpt><trkpt lat="43.79996" lon="12.2167917"><ele>434.0</ele><time>2026-04-26T11:39:07.024Z</time></trkpt><trkpt lat="43.7998317" lon="12.2166667"><ele>434.0</ele><time>2026-04-26T11:39:08.023Z</time></trkpt><trkpt lat="43.7996767" lon="12.2165817"><ele>434.0</ele><time>2026-04-26T11:39:09.028Z</time></trkpt><trkpt lat="43.7995067" lon="12.2165383"><ele>434.0</ele><time>2026-04-26T11:39:10.024Z</time></trkpt><trkpt lat="43.7993467" lon="12.2165033"><ele>434.0</ele><time>2026-04-26T11:39:11.027Z</time></trkpt><trkpt lat="43.79921" lon="12.2164483"><ele>434.0</ele><time>2026-04-26T11:39:12.024Z</time></trkpt><trkpt lat="43.7990883" lon="12.216375"><ele>434.0</ele><time>2026-04-26T11:39:13.024Z</time></trkpt><trkpt lat="43.798995" lon="12.2162667"><ele>433.75</ele><time>2026-04-26T11:39:14.024Z</time></trkpt><trkpt lat="43.7989333" lon="12.216125"><ele>433.5</ele><time>2026-04-26T11:39:15.022Z</time></trkpt><trkpt lat="43.7989117" lon="12.2159617"><ele>433.25</ele><time>2026-04-26T11:39:16.025Z</time></trkpt><trkpt lat="43.7989133" lon="12.2157967"><ele>433.0</ele><time>2026-04-26T11:39:17.023Z</time></trkpt><trkpt lat="43.7988917" lon="12.2156383"><ele>429.25</ele><time>2026-04-26T11:39:18.025Z</time></trkpt><trkpt lat="43.7988367" lon="12.2154867"><ele>425.5</ele><time>2026-04-26T11:39:19.026Z</time></trkpt><trkpt lat="43.798755" lon="12.2153417"><ele>421.75</ele><time>2026-04-26T11:39:20.024Z</time></trkpt><trkpt lat="43.7986583" lon="12.2152"><ele>418.0</ele><time>2026-04-26T11:39:21.024Z</time></trkpt><trkpt lat="43.798555" lon="12.2150483"><ele>424.0</ele><time>2026-04-26T11:39:22.024Z</time></trkpt><trkpt lat="43.798445" lon="12.2148817"><ele>430.0</ele><time>2026-04-26T11:39:23.023Z</time></trkpt><trkpt lat="43.7983367" lon="12.214695"><ele>436.0</ele><time>2026-04-26T11:39:24.023Z</time></trkpt><trkpt lat="43.7982517" lon="12.214495"><ele>436.0</ele><time>2026-04-26T11:39:25.025Z</time></trkpt><trkpt lat="43.7981783" lon="12.2142833"><ele>436.0</ele><time>2026-04-26T11:39:26.024Z</time></trkpt><trkpt lat="43.798125" lon="12.214075"><ele>436.0</ele><time>2026-04-26T11:39:27.024Z</time></trkpt><trkpt lat="43.7980683" lon="12.2138767"><ele>437.75</ele><time>2026-04-26T11:39:28.023Z</time></trkpt><trkpt lat="43.7980067" lon="12.2136983"><ele>439.5</ele><time>2026-04-26T11:39:29.025Z</time></trkpt><trkpt lat="43.79792" lon="12.2135367"><ele>441.25</ele><time>2026-04-26T11:39:30.024Z</time></trkpt><trkpt lat="43.797795" lon="12.2133967"><ele>443.0</ele><time>2026-04-26T11:39:31.027Z</time></trkpt><trkpt lat="43.797645" lon="12.21327"><ele>439.0</ele><time>2026-04-26T11:39:32.024Z</time></trkpt><trkpt lat="43.7974967" lon="12.2131133"><ele>435.0</ele><time>2026-04-26T11:39:33.024Z</time></trkpt><trkpt lat="43.7973633" lon="12.2129233"><ele>431.0</ele><time>2026-04-26T11:39:34.025Z</time></trkpt><trkpt lat="43.7972417" lon="12.2127133"><ele>431.0</ele><time>2026-04-26T11:39:35.105Z</time></trkpt><trkpt lat="43.7971183" lon="12.2125133"><ele>431.0</ele><time>2026-04-26T11:39:36.023Z</time></trkpt><trkpt lat="43.796995" lon="12.2123267"><ele>431.0</ele><time>2026-04-26T11:39:37.026Z</time></trkpt><trkpt lat="43.7968667" lon="12.212155"><ele>430.0</ele><time>2026-04-26T11:39:38.024Z</time></trkpt><trkpt lat="43.79674" lon="12.2120017"><ele>429.0</ele><time>2026-04-26T11:39:39.025Z</time></trkpt><trkpt lat="43.796605" lon="12.2118583"><ele>428.0</ele><time>2026-04-26T11:39:40.025Z</time></trkpt><trkpt lat="43.7964633" lon="12.2117267"><ele>428.0</ele><time>2026-04-26T11:39:41.025Z</time></trkpt><trkpt lat="43.796315" lon="12.2116083"><ele>428.0</ele><time>2026-04-26T11:39:42.028Z</time></trkpt><trkpt lat="43.79616" lon="12.2114983"><ele>428.0</ele><time>2026-04-26T11:39:43.024Z</time></trkpt><trkpt lat="43.796" lon="12.21139"><ele>426.0</ele><time>2026-04-26T11:39:44.024Z</time></trkpt><trkpt lat="43.7958317" lon="12.21128"><ele>424.0</ele><time>2026-04-26T11:39:45.025Z</time></trkpt><trkpt lat="43.79565" lon="12.2111767"><ele>422.0</ele><time>2026-04-26T11:39:46.024Z</time></trkpt><trkpt lat="43.7954533" lon="12.2110817"><ele>422.0</ele><time>2026-04-26T11:39:47.026Z</time></trkpt><trkpt lat="43.795255" lon="12.2109967"><ele>422.0</ele><time>2026-04-26T11:39:48.026Z</time></trkpt><trkpt lat="43.7950617" lon="12.210925"><ele>422.0</ele><time>2026-04-26T11:39:49.025Z</time></trkpt><trkpt lat="43.794875" lon="12.21089"><ele>424.0</ele><time>2026-04-26T11:39:50.023Z</time></trkpt><trkpt lat="43.79469" lon="12.2108733"><ele>426.0</ele><time>2026-04-26T11:39:51.025Z</time></trkpt><trkpt lat="43.7945083" lon="12.21089"><ele>428.0</ele><time>2026-04-26T11:39:52.024Z</time></trkpt><trkpt lat="43.794315" lon="12.2109333"><ele>428.0</ele><time>2026-04-26T11:39:53.025Z</time></trkpt><trkpt lat="43.7941183" lon="12.211015"><ele>428.0</ele><time>2026-04-26T11:39:54.026Z</time></trkpt><trkpt lat="43.79391" lon="12.2111233"><ele>428.0</ele><time>2026-04-26T11:39:55.025Z</time></trkpt><trkpt lat="43.793695" lon="12.21125"><ele>432.5</ele><time>2026-04-26T11:39:56.024Z</time></trkpt><trkpt lat="43.7934783" lon="12.2113783"><ele>437.0</ele><time>2026-04-26T11:39:57.026Z</time></trkpt><trkpt lat="43.7932633" lon="12.2115"><ele>437.0</ele><time>2026-04-26T11:39:58.026Z</time></trkpt><trkpt lat="43.7930583" lon="12.211615"><ele>437.0</ele><time>2026-04-26T11:39:59.027Z</time></trkpt><trkpt lat="43.7928583" lon="12.2117183"><ele>437.0</ele><time>2026-04-26T11:40:00.023Z</time></trkpt><trkpt lat="43.792665" lon="12.2118067"><ele>433.0</ele><time>2026-04-26T11:40:01.026Z</time></trkpt><trkpt lat="43.7924767" lon="12.2118767"><ele>429.0</ele><time>2026-04-26T11:40:02.023Z</time></trkpt><trkpt lat="43.7922967" lon="12.211925"><ele>425.0</ele><time>2026-04-26T11:40:03.027Z</time></trkpt><trkpt lat="43.79213" lon="12.21194"><ele>425.0</ele><time>2026-04-26T11:40:04.024Z</time></trkpt><trkpt lat="43.7919867" lon="12.2119233"><ele>425.0</ele><time>2026-04-26T11:40:05.023Z</time></trkpt><trkpt lat="43.7918583" lon="12.2118817"><ele>425.0</ele><time>2026-04-26T11:40:06.024Z</time></trkpt><trkpt lat="43.791745" lon="12.2118"><ele>425.0</ele><time>2026-04-26T11:40:07.026Z</time></trkpt><trkpt lat="43.79166" lon="12.211685"><ele>426.5</ele><time>2026-04-26T11:40:08.024Z</time></trkpt><trkpt lat="43.7916133" lon="12.2115317"><ele>428.0</ele><time>2026-04-26T11:40:09.024Z</time></trkpt><trkpt lat="43.7916067" lon="12.21134"><ele>429.5</ele><time>2026-04-26T11:40:10.025Z</time></trkpt><trkpt lat="43.7916217" lon="12.211125"><ele>431.0</ele><time>2026-04-26T11:40:11.023Z</time></trkpt><trkpt lat="43.79165" lon="12.2108867"><ele>431.0</ele><time>2026-04-26T11:40:12.025Z</time></trkpt><trkpt lat="43.79166" lon="12.2106517"><ele>431.0</ele><time>2026-04-26T11:40:13.027Z</time></trkpt><trkpt lat="43.791665" lon="12.21042"><ele>431.0</ele><time>2026-04-26T11:40:14.022Z</time></trkpt><trkpt lat="43.7916667" lon="12.2102017"><ele>431.0</ele><time>2026-04-26T11:40:15.027Z</time></trkpt><trkpt lat="43.7917583" lon="12.2100933"><ele>431.0</ele><time>2026-04-26T11:40:16.291Z</time></trkpt><trkpt lat="43.7912483" lon="12.2095417"><ele>429.25</ele><time>2026-04-26T11:40:17.476Z</time></trkpt><trkpt lat="43.7911933" lon="12.209475"><ele>427.5</ele><time>2026-04-26T11:40:19.022Z</time></trkpt><trkpt lat="43.7911117" lon="12.209445"><ele>425.75</ele><time>2026-04-26T11:40:20.025Z</time></trkpt><trkpt lat="43.7909667" lon="12.209445"><ele>424.0</ele><time>2026-04-26T11:40:21.024Z</time></trkpt><trkpt lat="43.7907917" lon="12.209435"><ele>424.0</ele><time>2026-04-26T11:40:22.024Z</time></trkpt><trkpt lat="43.7905983" lon="12.209425"><ele>424.0</ele><time>2026-04-26T11:40:23.024Z</time></trkpt><trkpt lat="43.7903917" lon="12.2094183"><ele>424.0</ele><time>2026-04-26T11:40:24.024Z</time></trkpt><trkpt lat="43.7901683" lon="12.2094183"><ele>424.0</ele><time>2026-04-26T11:40:25.024Z</time></trkpt><trkpt lat="43.7899417" lon="12.2094417"><ele>424.0</ele><time>2026-04-26T11:40:26.024Z</time></trkpt><trkpt lat="43.789725" lon="12.20948"><ele>424.0</ele><time>2026-04-26T11:40:27.024Z</time></trkpt><trkpt lat="43.78952" lon="12.2095367"><ele>422.33333333333337</ele><time>2026-04-26T11:40:28.025Z</time></trkpt><trkpt lat="43.789325" lon="12.2096017"><ele>420.66666666666663</ele><time>2026-04-26T11:40:29.022Z</time></trkpt><trkpt lat="43.789135" lon="12.2096883"><ele>419.0</ele><time>2026-04-26T11:40:30.022Z</time></trkpt><trkpt lat="43.788955" lon="12.2098133"><ele>420.66666666666663</ele><time>2026-04-26T11:40:31.025Z</time></trkpt><trkpt lat="43.7887817" lon="12.2099617"><ele>422.33333333333337</ele><time>2026-04-26T11:40:32.024Z</time></trkpt><trkpt lat="43.788615" lon="12.2101133"><ele>424.0</ele><time>2026-04-26T11:40:33.024Z</time></trkpt><trkpt lat="43.7884567" lon="12.2102483"><ele>424.0</ele><time>2026-04-26T11:40:34.025Z</time></trkpt><trkpt lat="43.7882917" lon="12.2103333"><ele>424.0</ele><time>2026-04-26T11:40:35.026Z</time></trkpt><trkpt lat="43.788135" lon="12.2103733"><ele>424.0</ele><time>2026-04-26T11:40:36.023Z</time></trkpt><trkpt lat="43.7879767" lon="12.2103567"><ele>424.0</ele><time>2026-04-26T11:40:37.026Z</time></trkpt><trkpt lat="43.7878167" lon="12.210285"><ele>424.0</ele><time>2026-04-26T11:40:38.024Z</time></trkpt><trkpt lat="43.78766" lon="12.21017"><ele>424.0</ele><time>2026-04-26T11:40:39.025Z</time></trkpt><trkpt lat="43.7875133" lon="12.2100417"><ele>424.5</ele><time>2026-04-26T11:40:40.025Z</time></trkpt><trkpt lat="43.7873783" lon="12.2099183"><ele>425.0</ele><time>2026-04-26T11:40:41.024Z</time></trkpt><trkpt lat="43.7872517" lon="12.2098167"><ele>425.5</ele><time>2026-04-26T11:40:42.026Z</time></trkpt><trkpt lat="43.7871267" lon="12.2097533"><ele>426.0</ele><time>2026-04-26T11:40:43.023Z</time></trkpt><trkpt lat="43.7869983" lon="12.209735"><ele>427.0</ele><time>2026-04-26T11:40:44.028Z</time></trkpt><trkpt lat="43.7868683" lon="12.209755"><ele>428.0</ele><time>2026-04-26T11:40:45.024Z</time></trkpt><trkpt lat="43.7867383" lon="12.2098"><ele>429.0</ele><time>2026-04-26T11:40:46.025Z</time></trkpt><trkpt lat="43.786605" lon="12.2098617"><ele>430.0</ele><time>2026-04-26T11:40:47.026Z</time></trkpt><trkpt lat="43.7864733" lon="12.2099283"><ele>430.0</ele><time>2026-04-26T11:40:48.023Z</time></trkpt><trkpt lat="43.7863467" lon="12.2099867"><ele>430.0</ele><time>2026-04-26T11:40:49.024Z</time></trkpt><trkpt lat="43.78622" lon="12.21003"><ele>430.0</ele><time>2026-04-26T11:40:50.101Z</time></trkpt><trkpt lat="43.7860883" lon="12.210035"><ele>430.0</ele><time>2026-04-26T11:40:51.023Z</time></trkpt><trkpt lat="43.7859567" lon="12.2100067"><ele>429.0</ele><time>2026-04-26T11:40:52.027Z</time></trkpt><trkpt lat="43.7858283" lon="12.2099683"><ele>428.0</ele><time>2026-04-26T11:40:53.024Z</time></trkpt><trkpt lat="43.7857067" lon="12.2099467"><ele>427.0</ele><time>2026-04-26T11:40:54.023Z</time></trkpt><trkpt lat="43.7855817" lon="12.2099333"><ele>426.0</ele><time>2026-04-26T11:40:55.025Z</time></trkpt><trkpt lat="43.7854633" lon="12.2099267"><ele>426.0</ele><time>2026-04-26T11:40:56.026Z</time></trkpt><trkpt lat="43.7853467" lon="12.2099367"><ele>426.0</ele><time>2026-04-26T11:40:57.025Z</time></trkpt><trkpt lat="43.78524" lon="12.209955"><ele>426.0</ele><time>2026-04-26T11:40:58.024Z</time></trkpt><trkpt lat="43.785145" lon="12.2099933"><ele>426.0</ele><time>2026-04-26T11:40:59.028Z</time></trkpt><trkpt lat="43.7850617" lon="12.2100583"><ele>426.0</ele><time>2026-04-26T11:41:00.025Z</time></trkpt><trkpt lat="43.784995" lon="12.2101517"><ele>426.0</ele><time>2026-04-26T11:41:01.029Z</time></trkpt><trkpt lat="43.7849417" lon="12.21025"><ele>426.0</ele><time>2026-04-26T11:41:02.025Z</time></trkpt><trkpt lat="43.7849017" lon="12.2103433"><ele>426.0</ele><time>2026-04-26T11:41:03.026Z</time></trkpt><trkpt lat="43.7848767" lon="12.2104367"><ele>426.0</ele><time>2026-04-26T11:41:04.027Z</time></trkpt><trkpt lat="43.784895" lon="12.21058"><ele>426.0</ele><time>2026-04-26T11:41:06.025Z</time></trkpt><trkpt lat="43.7849933" lon="12.2106817"><ele>426.0</ele><time>2026-04-26T11:41:08.027Z</time></trkpt><trkpt lat="43.78508" lon="12.210665"><ele>426.0</ele><time>2026-04-26T11:41:09.025Z</time></trkpt><trkpt lat="43.7851683" lon="12.210635"><ele>426.0</ele><time>2026-04-26T11:41:10.026Z</time></trkpt><trkpt lat="43.7852617" lon="12.2105733"><ele>426.0</ele><time>2026-04-26T11:41:11.024Z</time></trkpt><trkpt lat="43.785355" lon="12.2104983"><ele>426.0</ele><time>2026-04-26T11:41:12.025Z</time></trkpt><trkpt lat="43.7854467" lon="12.2104417"><ele>426.0</ele><time>2026-04-26T11:41:13.025Z</time></trkpt><trkpt lat="43.78554" lon="12.2103967"><ele>426.0</ele><time>2026-04-26T11:41:14.025Z</time></trkpt><trkpt lat="43.7856333" lon="12.210375"><ele>426.0</ele><time>2026-04-26T11:41:15.027Z</time></trkpt><trkpt lat="43.7857267" lon="12.21038"><ele>426.0</ele><time>2026-04-26T11:41:16.026Z</time></trkpt><trkpt lat="43.78582" lon="12.21041"><ele>426.0</ele><time>2026-04-26T11:41:17.027Z</time></trkpt><trkpt lat="43.7859267" lon="12.2104633"><ele>427.0</ele><time>2026-04-26T11:41:18.025Z</time></trkpt><trkpt lat="43.786035" lon="12.21052"><ele>428.0</ele><time>2026-04-26T11:41:19.023Z</time></trkpt><trkpt lat="43.78614" lon="12.2105617"><ele>429.0</ele><time>2026-04-26T11:41:20.024Z</time></trkpt><trkpt lat="43.78625" lon="12.2105667"><ele>430.0</ele><time>2026-04-26T11:41:21.023Z</time></trkpt><trkpt lat="43.7863683" lon="12.2105283"><ele>430.0</ele><time>2026-04-26T11:41:22.025Z</time></trkpt><trkpt lat="43.7864833" lon="12.2104633"><ele>430.0</ele><time>2026-04-26T11:41:23.024Z</time></trkpt><trkpt lat="43.7865933" lon="12.2103917"><ele>430.0</ele><time>2026-04-26T11:41:24.029Z</time></trkpt><trkpt lat="43.7866933" lon="12.2103433"><ele>430.0</ele><time>2026-04-26T11:41:25.028Z</time></trkpt><trkpt lat="43.786795" lon="12.2103167"><ele>428.0</ele><time>2026-04-26T11:41:26.024Z</time></trkpt><trkpt lat="43.7868983" lon="12.2103267"><ele>426.0</ele><time>2026-04-26T11:41:27.029Z</time></trkpt><trkpt lat="43.7874233" lon="12.2105217"><ele>432.0</ele><time>2026-04-26T11:41:28.388Z</time></trkpt><trkpt lat="43.787245" lon="12.2106667"><ele>438.0</ele><time>2026-04-26T11:41:29.573Z</time></trkpt><trkpt lat="43.7873083" lon="12.2107183"><ele>444.0</ele><time>2026-04-26T11:41:30.528Z</time></trkpt><trkpt lat="43.78741" lon="12.2108533"><ele>450.0</ele><time>2026-04-26T11:41:32.023Z</time></trkpt><trkpt lat="43.7874467" lon="12.2109533"><ele>450.0</ele><time>2026-04-26T11:41:33.023Z</time></trkpt><trkpt lat="43.7874867" lon="12.2110617"><ele>450.0</ele><time>2026-04-26T11:41:34.023Z</time></trkpt><trkpt lat="43.7874883" lon="12.21118"><ele>450.0</ele><time>2026-04-26T11:41:35.023Z</time></trkpt><trkpt lat="43.7874733" lon="12.2113017"><ele>450.0</ele><time>2026-04-26T11:41:36.024Z</time></trkpt><trkpt lat="43.7874533" lon="12.2114233"><ele>450.0</ele><time>2026-04-26T11:41:37.025Z</time></trkpt><trkpt lat="43.78742" lon="12.21154"><ele>450.0</ele><time>2026-04-26T11:41:38.024Z</time></trkpt><trkpt lat="43.78745" lon="12.2116267"><ele>452.2</ele><time>2026-04-26T11:41:39.024Z</time></trkpt><trkpt lat="43.787495" lon="12.211705"><ele>454.4</ele><time>2026-04-26T11:41:40.024Z</time></trkpt><trkpt lat="43.7875683" lon="12.21178"><ele>456.6</ele><time>2026-04-26T11:41:41.026Z</time></trkpt><trkpt lat="43.787665" lon="12.211845"><ele>458.8</ele><time>2026-04-26T11:41:42.024Z</time></trkpt><trkpt lat="43.7877833" lon="12.2119083"><ele>461.0</ele><time>2026-04-26T11:41:43.025Z</time></trkpt><trkpt lat="43.787915" lon="12.2119783"><ele>461.0</ele><time>2026-04-26T11:41:44.024Z</time></trkpt><trkpt lat="43.788055" lon="12.2120617"><ele>461.0</ele><time>2026-04-26T11:41:45.023Z</time></trkpt><trkpt lat="43.7882017" lon="12.212155"><ele>461.0</ele><time>2026-04-26T11:41:46.023Z</time></trkpt><trkpt lat="43.7883467" lon="12.2122417"><ele>461.0</ele><time>2026-04-26T11:41:47.025Z</time></trkpt><trkpt lat="43.78848" lon="12.2123167"><ele>461.0</ele><time>2026-04-26T11:41:48.026Z</time></trkpt><trkpt lat="43.788615" lon="12.2123717"><ele>461.0</ele><time>2026-04-26T11:41:49.025Z</time></trkpt><trkpt lat="43.7887533" lon="12.2124033"><ele>461.0</ele><time>2026-04-26T11:41:50.023Z</time></trkpt><trkpt lat="43.7889" lon="12.2124317"><ele>466.66666666666663</ele><time>2026-04-26T11:41:51.025Z</time></trkpt><trkpt lat="43.7890483" lon="12.212475"><ele>472.33333333333337</ele><time>2026-04-26T11:41:52.026Z</time></trkpt><trkpt lat="43.7891967" lon="12.212535"><ele>478.0</ele><time>2026-04-26T11:41:53.028Z</time></trkpt><trkpt lat="43.78934" lon="12.2126083"><ele>478.0</ele><time>2026-04-26T11:41:54.027Z</time></trkpt><trkpt lat="43.7894783" lon="12.2126817"><ele>478.0</ele><time>2026-04-26T11:41:55.028Z</time></trkpt><trkpt lat="43.789605" lon="12.2127633"><ele>478.0</ele><time>2026-04-26T11:41:56.025Z</time></trkpt><trkpt lat="43.789725" lon="12.2128583"><ele>478.0</ele><time>2026-04-26T11:41:57.024Z</time></trkpt><trkpt lat="43.7898467" lon="12.2129683"><ele>478.0</ele><time>2026-04-26T11:41:58.025Z</time></trkpt><trkpt lat="43.7899683" lon="12.213095"><ele>478.0</ele><time>2026-04-26T11:41:59.024Z</time></trkpt><trkpt lat="43.7900883" lon="12.2132417"><ele>478.0</ele><time>2026-04-26T11:42:00.027Z</time></trkpt><trkpt lat="43.790195" lon="12.2134017"><ele>478.75</ele><time>2026-04-26T11:42:01.025Z</time></trkpt><trkpt lat="43.7902883" lon="12.213555"><ele>479.5</ele><time>2026-04-26T11:42:02.029Z</time></trkpt><trkpt lat="43.7903667" lon="12.2136933"><ele>480.25</ele><time>2026-04-26T11:42:03.027Z</time></trkpt><trkpt lat="43.79044" lon="12.21381"><ele>481.0</ele><time>2026-04-26T11:42:04.029Z</time></trkpt><trkpt lat="43.7905183" lon="12.2139"><ele>481.0</ele><time>2026-04-26T11:42:05.027Z</time></trkpt><trkpt lat="43.7906067" lon="12.2139683"><ele>481.0</ele><time>2026-04-26T11:42:06.026Z</time></trkpt><trkpt lat="43.790715" lon="12.214015"><ele>481.0</ele><time>2026-04-26T11:42:07.028Z</time></trkpt><trkpt lat="43.7908417" lon="12.214055"><ele>481.0</ele><time>2026-04-26T11:42:08.024Z</time></trkpt><trkpt lat="43.7909817" lon="12.2140967"><ele>485.75</ele><time>2026-04-26T11:42:09.026Z</time></trkpt><trkpt lat="43.7911317" lon="12.214145"><ele>490.5</ele><time>2026-04-26T11:42:10.026Z</time></trkpt><trkpt lat="43.791275" lon="12.214185"><ele>495.25</ele><time>2026-04-26T11:42:11.025Z</time></trkpt><trkpt lat="43.791415" lon="12.2142117"><ele>500.0</ele><time>2026-04-26T11:42:12.025Z</time></trkpt><trkpt lat="43.7915583" lon="12.2142267"><ele>500.0</ele><time>2026-04-26T11:42:13.028Z</time></trkpt><trkpt lat="43.7916933" lon="12.214225"><ele>500.0</ele><time>2026-04-26T11:42:14.024Z</time></trkpt><trkpt lat="43.7918183" lon="12.2142283"><ele>500.0</ele><time>2026-04-26T11:42:15.025Z</time></trkpt><trkpt lat="43.7919417" lon="12.21426"><ele>500.0</ele><time>2026-04-26T11:42:16.024Z</time></trkpt><trkpt lat="43.792075" lon="12.2143183"><ele>499.75</ele><time>2026-04-26T11:42:17.024Z</time></trkpt><trkpt lat="43.79221" lon="12.2143967"><ele>499.5</ele><time>2026-04-26T11:42:18.028Z</time></trkpt><trkpt lat="43.7923417" lon="12.2144767"><ele>499.25</ele><time>2026-04-26T11:42:19.025Z</time></trkpt><trkpt lat="43.792465" lon="12.2145567"><ele>499.0</ele><time>2026-04-26T11:42:20.025Z</time></trkpt><trkpt lat="43.79257" lon="12.214645"><ele>499.0</ele><time>2026-04-26T11:42:21.026Z</time></trkpt><trkpt lat="43.79266" lon="12.214755"><ele>499.0</ele><time>2026-04-26T11:42:22.025Z</time></trkpt><trkpt lat="43.7927467" lon="12.214895"><ele>499.0</ele><time>2026-04-26T11:42:23.026Z</time></trkpt><trkpt lat="43.79283" lon="12.2150533"><ele>499.0</ele><time>2026-04-26T11:42:24.026Z</time></trkpt><trkpt lat="43.7929033" lon="12.2152067"><ele>502.5</ele><time>2026-04-26T11:42:25.025Z</time></trkpt><trkpt lat="43.7929733" lon="12.2153467"><ele>506.0</ele><time>2026-04-26T11:42:26.024Z</time></trkpt><trkpt lat="43.7930533" lon="12.2154683"><ele>509.5</ele><time>2026-04-26T11:42:27.025Z</time></trkpt><trkpt lat="43.793155" lon="12.2155617"><ele>513.0</ele><time>2026-04-26T11:42:28.03Z</time></trkpt><trkpt lat="43.7932783" lon="12.2156283"><ele>516.8</ele><time>2026-04-26T11:42:29.028Z</time></trkpt><trkpt lat="43.7934033" lon="12.215675"><ele>520.5999999999999</ele><time>2026-04-26T11:42:30.026Z</time></trkpt><trkpt lat="43.7935133" lon="12.2157217"><ele>524.4000000000001</ele><time>2026-04-26T11:42:31.028Z</time></trkpt><trkpt lat="43.7936117" lon="12.215765"><ele>528.2</ele><time>2026-04-26T11:42:32.025Z</time></trkpt><trkpt lat="43.7937117" lon="12.2157767"><ele>532.0</ele><time>2026-04-26T11:42:33.027Z</time></trkpt><trkpt lat="43.7938117" lon="12.2157467"><ele>532.0</ele><time>2026-04-26T11:42:34.023Z</time></trkpt><trkpt lat="43.79392" lon="12.2157033"><ele>532.0</ele><time>2026-04-26T11:42:35.024Z</time></trkpt><trkpt lat="43.79403" lon="12.2156767"><ele>532.0</ele><time>2026-04-26T11:42:36.024Z</time></trkpt><trkpt lat="43.7941367" lon="12.2156867"><ele>532.0</ele><time>2026-04-26T11:42:37.024Z</time></trkpt><trkpt lat="43.79424" lon="12.2157317"><ele>532.0</ele><time>2026-04-26T11:42:38.022Z</time></trkpt><trkpt lat="43.7943367" lon="12.215795"><ele>532.0</ele><time>2026-04-26T11:42:39.024Z</time></trkpt><trkpt lat="43.7944417" lon="12.21583"><ele>532.0</ele><time>2026-04-26T11:42:40.022Z</time></trkpt><trkpt lat="43.7945467" lon="12.215855"><ele>532.0</ele><time>2026-04-26T11:42:41.022Z</time></trkpt><trkpt lat="43.7946533" lon="12.2159017"><ele>532.0</ele><time>2026-04-26T11:42:42.022Z</time></trkpt><trkpt lat="43.7947667" lon="12.2159817"><ele>532.0</ele><time>2026-04-26T11:42:43.031Z</time></trkpt><trkpt lat="43.7948767" lon="12.2160833"><ele>532.0</ele><time>2026-04-26T11:42:44.024Z</time></trkpt><trkpt lat="43.79497" lon="12.2162183"><ele>532.0</ele><time>2026-04-26T11:42:45.023Z</time></trkpt><trkpt lat="43.7950483" lon="12.2163883"><ele>532.0</ele><time>2026-04-26T11:42:46.023Z</time></trkpt><trkpt lat="43.7951133" lon="12.2165817"><ele>533.0</ele><time>2026-04-26T11:42:47.024Z</time></trkpt><trkpt lat="43.7951783" lon="12.2167867"><ele>534.0</ele><time>2026-04-26T11:42:48.022Z</time></trkpt><trkpt lat="43.7952383" lon="12.2169867"><ele>535.0</ele><time>2026-04-26T11:42:49.023Z</time></trkpt><trkpt lat="43.7952917" lon="12.217165"><ele>535.0</ele><time>2026-04-26T11:42:50.022Z</time></trkpt><trkpt lat="43.7953383" lon="12.2173167"><ele>535.0</ele><time>2026-04-26T11:42:51.024Z</time></trkpt><trkpt lat="43.7953783" lon="12.2174433"><ele>535.0</ele><time>2026-04-26T11:42:52.023Z</time></trkpt><trkpt lat="43.7954133" lon="12.2175483"><ele>535.0</ele><time>2026-04-26T11:42:53.023Z</time></trkpt><trkpt lat="43.795445" lon="12.2176367"><ele>535.0</ele><time>2026-04-26T11:42:54.025Z</time></trkpt><trkpt lat="43.795475" lon="12.21772"><ele>535.0</ele><time>2026-04-26T11:42:55.026Z</time></trkpt><trkpt lat="43.795535" lon="12.2178833"><ele>537.2</ele><time>2026-04-26T11:42:57.028Z</time></trkpt><trkpt lat="43.79558" lon="12.2179683"><ele>539.4</ele><time>2026-04-26T11:42:58.022Z</time></trkpt><trkpt lat="43.7956367" lon="12.2180633"><ele>541.6</ele><time>2026-04-26T11:42:59.022Z</time></trkpt><trkpt lat="43.7957017" lon="12.2181617"><ele>543.8</ele><time>2026-04-26T11:43:00.024Z</time></trkpt><trkpt lat="43.7957767" lon="12.2182533"><ele>546.0</ele><time>2026-04-26T11:43:01.022Z</time></trkpt><trkpt lat="43.79586" lon="12.2183417"><ele>547.2</ele><time>2026-04-26T11:43:02.025Z</time></trkpt><trkpt lat="43.7959383" lon="12.218425"><ele>548.4000000000001</ele><time>2026-04-26T11:43:03.029Z</time></trkpt><trkpt lat="43.7960283" lon="12.2185017"><ele>549.6</ele><time>2026-04-26T11:43:04.026Z</time></trkpt><trkpt lat="43.79613" lon="12.21858"><ele>550.8000000000001</ele><time>2026-04-26T11:43:05.022Z</time></trkpt><trkpt lat="43.79623" lon="12.21866"><ele>552.0</ele><time>2026-04-26T11:43:06.024Z</time></trkpt><trkpt lat="43.79634" lon="12.2187483"><ele>552.0</ele><time>2026-04-26T11:43:07.024Z</time></trkpt><trkpt lat="43.7964567" lon="12.2188433"><ele>552.0</ele><time>2026-04-26T11:43:08.024Z</time></trkpt><trkpt lat="43.7965717" lon="12.2189333"><ele>552.0</ele><time>2026-04-26T11:43:09.027Z</time></trkpt><trkpt lat="43.7966767" lon="12.2190117"><ele>552.0</ele><time>2026-04-26T11:43:10.025Z</time></trkpt><trkpt lat="43.796775" lon="12.2190817"><ele>551.8000000000001</ele><time>2026-04-26T11:43:11.022Z</time></trkpt><trkpt lat="43.7968633" lon="12.2191533"><ele>551.6</ele><time>2026-04-26T11:43:12.022Z</time></trkpt><trkpt lat="43.79694" lon="12.2192333"><ele>551.4000000000001</ele><time>2026-04-26T11:43:13.023Z</time></trkpt><trkpt lat="43.7970067" lon="12.2193267"><ele>551.2</ele><time>2026-04-26T11:43:14.027Z</time></trkpt><trkpt lat="43.7970683" lon="12.2194367"><ele>551.0</ele><time>2026-04-26T11:43:15.025Z</time></trkpt><trkpt lat="43.79712" lon="12.2195583"><ele>551.0</ele><time>2026-04-26T11:43:16.028Z</time></trkpt><trkpt lat="43.797175" lon="12.2196867"><ele>551.0</ele><time>2026-04-26T11:43:17.024Z</time></trkpt><trkpt lat="43.7972367" lon="12.2198183"><ele>551.0</ele><time>2026-04-26T11:43:18.024Z</time></trkpt><trkpt lat="43.7972983" lon="12.2199483"><ele>551.0</ele><time>2026-04-26T11:43:19.025Z</time></trkpt><trkpt lat="43.7973533" lon="12.2200733"><ele>551.0</ele><time>2026-04-26T11:43:20.025Z</time></trkpt><trkpt lat="43.7974133" lon="12.2201933"><ele>554.0</ele><time>2026-04-26T11:43:21.025Z</time></trkpt><trkpt lat="43.7974733" lon="12.2203183"><ele>557.0</ele><time>2026-04-26T11:43:22.026Z</time></trkpt><trkpt lat="43.79754" lon="12.2204417"><ele>560.0</ele><time>2026-04-26T11:43:23.024Z</time></trkpt><trkpt lat="43.7975967" lon="12.2205683"><ele>563.0</ele><time>2026-04-26T11:43:24.024Z</time></trkpt><trkpt lat="43.7976217" lon="12.2207067"><ele>566.0</ele><time>2026-04-26T11:43:25.024Z</time></trkpt><trkpt lat="43.7976683" lon="12.2208367"><ele>564.8</ele><time>2026-04-26T11:43:26.024Z</time></trkpt><trkpt lat="43.797685" lon="12.220965"><ele>563.6</ele><time>2026-04-26T11:43:27.024Z</time></trkpt><trkpt lat="43.7977133" lon="12.2210933"><ele>562.4</ele><time>2026-04-26T11:43:28.028Z</time></trkpt><trkpt lat="43.7977267" lon="12.2212233"><ele>561.2</ele><time>2026-04-26T11:43:29.024Z</time></trkpt><trkpt lat="43.797735" lon="12.2213533"><ele>560.0</ele><time>2026-04-26T11:43:30.023Z</time></trkpt><trkpt lat="43.7977367" lon="12.221485"><ele>560.0</ele><time>2026-04-26T11:43:31.024Z</time></trkpt><trkpt lat="43.7977533" lon="12.22162"><ele>560.0</ele><time>2026-04-26T11:43:32.024Z</time></trkpt><trkpt lat="43.7977817" lon="12.221755"><ele>560.0</ele><time>2026-04-26T11:43:33.026Z</time></trkpt><trkpt lat="43.7978367" lon="12.221895"><ele>560.0</ele><time>2026-04-26T11:43:34.022Z</time></trkpt><trkpt lat="43.7979133" lon="12.2220417"><ele>560.0</ele><time>2026-04-26T11:43:35.025Z</time></trkpt><trkpt lat="43.7979867" lon="12.2221817"><ele>562.6</ele><time>2026-04-26T11:43:36.025Z</time></trkpt><trkpt lat="43.79806" lon="12.222315"><ele>565.2</ele><time>2026-04-26T11:43:37.023Z</time></trkpt><trkpt lat="43.7981133" lon="12.22244"><ele>567.8</ele><time>2026-04-26T11:43:38.022Z</time></trkpt><trkpt lat="43.79816" lon="12.222565"><ele>570.4</ele><time>2026-04-26T11:43:39.022Z</time></trkpt><trkpt lat="43.7981883" lon="12.222695"><ele>573.0</ele><time>2026-04-26T11:43:40.025Z</time></trkpt><trkpt lat="43.79821" lon="12.2228333"><ele>573.0</ele><time>2026-04-26T11:43:41.024Z</time></trkpt><trkpt lat="43.798225" lon="12.2229733"><ele>573.0</ele><time>2026-04-26T11:43:42.024Z</time></trkpt><trkpt lat="43.7982333" lon="12.2231017"><ele>573.0</ele><time>2026-04-26T11:43:43.028Z</time></trkpt><trkpt lat="43.7982367" lon="12.223215"><ele>573.0</ele><time>2026-04-26T11:43:44.024Z</time></trkpt><trkpt lat="43.79825" lon="12.2233133"><ele>573.0</ele><time>2026-04-26T11:43:45.029Z</time></trkpt><trkpt lat="43.798285" lon="12.2233983"><ele>573.0</ele><time>2026-04-26T11:43:46.024Z</time></trkpt><trkpt lat="43.7983417" lon="12.2234683"><ele>572.0</ele><time>2026-04-26T11:43:47.024Z</time></trkpt><trkpt lat="43.7984183" lon="12.2235317"><ele>571.0</ele><time>2026-04-26T11:43:48.023Z</time></trkpt><trkpt lat="43.7985283" lon="12.2235983"><ele>570.0</ele><time>2026-04-26T11:43:49.022Z</time></trkpt><trkpt lat="43.798645" lon="12.2236683"><ele>569.0</ele><time>2026-04-26T11:43:50.023Z</time></trkpt><trkpt lat="43.79877" lon="12.2237417"><ele>569.0</ele><time>2026-04-26T11:43:51.029Z</time></trkpt><trkpt lat="43.7989" lon="12.2238033"><ele>569.0</ele><time>2026-04-26T11:43:52.023Z</time></trkpt><trkpt lat="43.7990317" lon="12.223855"><ele>569.0</ele><time>2026-04-26T11:43:53.023Z</time></trkpt><trkpt lat="43.7991633" lon="12.2238967"><ele>569.0</ele><time>2026-04-26T11:43:54.025Z</time></trkpt><trkpt lat="43.79929" lon="12.223945"><ele>572.0</ele><time>2026-04-26T11:43:55.023Z</time></trkpt><trkpt lat="43.7994083" lon="12.2239983"><ele>575.0</ele><time>2026-04-26T11:43:56.027Z</time></trkpt><trkpt lat="43.79952" lon="12.22405"><ele>578.0</ele><time>2026-04-26T11:43:57.027Z</time></trkpt><trkpt lat="43.7996267" lon="12.2241083"><ele>581.0</ele><time>2026-04-26T11:43:58.024Z</time></trkpt><trkpt lat="43.79972" lon="12.224165"><ele>581.0</ele><time>2026-04-26T11:43:59.024Z</time></trkpt><trkpt lat="43.7998033" lon="12.2242283"><ele>581.0</ele><time>2026-04-26T11:44:00.024Z</time></trkpt><trkpt lat="43.7998783" lon="12.224305"><ele>581.0</ele><time>2026-04-26T11:44:01.024Z</time></trkpt><trkpt lat="43.7999317" lon="12.2243917"><ele>581.0</ele><time>2026-04-26T11:44:02.024Z</time></trkpt><trkpt lat="43.7999583" lon="12.2244817"><ele>581.0</ele><time>2026-04-26T11:44:03.025Z</time></trkpt><trkpt lat="43.799925" lon="12.2246567"><ele>581.0</ele><time>2026-04-26T11:44:05.024Z</time></trkpt><trkpt lat="43.7998683" lon="12.2247533"><ele>581.0</ele><time>2026-04-26T11:44:06.026Z</time></trkpt><trkpt lat="43.799805" lon="12.2248733"><ele>581.0</ele><time>2026-04-26T11:44:07.025Z</time></trkpt><trkpt lat="43.7997367" lon="12.2250083"><ele>581.0</ele><time>2026-04-26T11:44:08.026Z</time></trkpt><trkpt lat="43.799675" lon="12.225125"><ele>581.0</ele><time>2026-04-26T11:44:09.025Z</time></trkpt><trkpt lat="43.799615" lon="12.2252267"><ele>579.5</ele><time>2026-04-26T11:44:10.026Z</time></trkpt><trkpt lat="43.7995617" lon="12.225315"><ele>578.0</ele><time>2026-04-26T11:44:11.029Z</time></trkpt><trkpt lat="43.7995183" lon="12.2254017"><ele>576.5</ele><time>2026-04-26T11:44:12.026Z</time></trkpt><trkpt lat="43.7994933" lon="12.2255033"><ele>575.0</ele><time>2026-04-26T11:44:13.026Z</time></trkpt><trkpt lat="43.7994767" lon="12.225625"><ele>573.5</ele><time>2026-04-26T11:44:14.026Z</time></trkpt><trkpt lat="43.7994767" lon="12.225775"><ele>572.0</ele><time>2026-04-26T11:44:15.026Z</time></trkpt><trkpt lat="43.7994933" lon="12.2259217"><ele>571.4</ele><time>2026-04-26T11:44:16.024Z</time></trkpt><trkpt lat="43.7995183" lon="12.22606"><ele>570.8000000000001</ele><time>2026-04-26T11:44:17.025Z</time></trkpt><trkpt lat="43.7995567" lon="12.22618"><ele>570.2</ele><time>2026-04-26T11:44:18.025Z</time></trkpt><trkpt lat="43.7996033" lon="12.226275"><ele>569.6</ele><time>2026-04-26T11:44:19.026Z</time></trkpt><trkpt lat="43.7996417" lon="12.2263583"><ele>569.0</ele><time>2026-04-26T11:44:20.027Z</time></trkpt><trkpt lat="43.799675" lon="12.2265233"><ele>569.0</ele><time>2026-04-26T11:44:22.028Z</time></trkpt><trkpt lat="43.7996733" lon="12.2266233"><ele>569.0</ele><time>2026-04-26T11:44:23.025Z</time></trkpt><trkpt lat="43.7996433" lon="12.226755"><ele>569.0</ele><time>2026-04-26T11:44:24.026Z</time></trkpt><trkpt lat="43.7996067" lon="12.226895"><ele>569.0</ele><time>2026-04-26T11:44:25.026Z</time></trkpt><trkpt lat="43.7995767" lon="12.2270233"><ele>569.0</ele><time>2026-04-26T11:44:26.026Z</time></trkpt><trkpt lat="43.7995617" lon="12.2271417"><ele>569.0</ele><time>2026-04-26T11:44:27.028Z</time></trkpt><trkpt lat="43.799565" lon="12.22725"><ele>569.0</ele><time>2026-04-26T11:44:28.025Z</time></trkpt><trkpt lat="43.7995883" lon="12.2273517"><ele>569.0</ele><time>2026-04-26T11:44:29.026Z</time></trkpt><trkpt lat="43.79963" lon="12.22745"><ele>569.0</ele><time>2026-04-26T11:44:30.024Z</time></trkpt><trkpt lat="43.799695" lon="12.2275583"><ele>569.0</ele><time>2026-04-26T11:44:31.024Z</time></trkpt><trkpt lat="43.7997867" lon="12.2276783"><ele>571.4</ele><time>2026-04-26T11:44:32.028Z</time></trkpt><trkpt lat="43.7998783" lon="12.2277883"><ele>573.8</ele><time>2026-04-26T11:44:33.024Z</time></trkpt><trkpt lat="43.7999517" lon="12.2278967"><ele>576.2</ele><time>2026-04-26T11:44:34.027Z</time></trkpt><trkpt lat="43.800005" lon="12.228"><ele>578.6</ele><time>2026-04-26T11:44:35.023Z</time></trkpt><trkpt lat="43.8000433" lon="12.2281133"><ele>581.0</ele><time>2026-04-26T11:44:36.025Z</time></trkpt><trkpt lat="43.8000767" lon="12.2282517"><ele>578.4</ele><time>2026-04-26T11:44:37.025Z</time></trkpt><trkpt lat="43.8001067" lon="12.2284017"><ele>575.8</ele><time>2026-04-26T11:44:38.025Z</time></trkpt><trkpt lat="43.8001417" lon="12.2285483"><ele>573.1999999999999</ele><time>2026-04-26T11:44:39.026Z</time></trkpt><trkpt lat="43.800185" lon="12.2286883"><ele>570.6</ele><time>2026-04-26T11:44:40.023Z</time></trkpt><trkpt lat="43.800235" lon="12.22883"><ele>568.0</ele><time>2026-04-26T11:44:41.024Z</time></trkpt><trkpt lat="43.8003" lon="12.2289717"><ele>571.75</ele><time>2026-04-26T11:44:42.022Z</time></trkpt><trkpt lat="43.8003783" lon="12.22912"><ele>575.5</ele><time>2026-04-26T11:44:43.024Z</time></trkpt><trkpt lat="43.800465" lon="12.2292667"><ele>579.25</ele><time>2026-04-26T11:44:44.025Z</time></trkpt><trkpt lat="43.8005483" lon="12.2294"><ele>583.0</ele><time>2026-04-26T11:44:45.025Z</time></trkpt><trkpt lat="43.8006433" lon="12.2295117"><ele>583.0</ele><time>2026-04-26T11:44:46.029Z</time></trkpt><trkpt lat="43.8007567" lon="12.2296067"><ele>583.0</ele><time>2026-04-26T11:44:47.024Z</time></trkpt><trkpt lat="43.8008867" lon="12.2296933"><ele>583.0</ele><time>2026-04-26T11:44:48.025Z</time></trkpt><trkpt lat="43.8010233" lon="12.2297717"><ele>583.0</ele><time>2026-04-26T11:44:49.027Z</time></trkpt><trkpt lat="43.8011583" lon="12.2298417"><ele>585.5</ele><time>2026-04-26T11:44:50.023Z</time></trkpt><trkpt lat="43.8012933" lon="12.2298933"><ele>588.0</ele><time>2026-04-26T11:44:51.029Z</time></trkpt><trkpt lat="43.801435" lon="12.2299267"><ele>590.5</ele><time>2026-04-26T11:44:52.023Z</time></trkpt><trkpt lat="43.801585" lon="12.22995"><ele>593.0</ele><time>2026-04-26T11:44:53.025Z</time></trkpt><trkpt lat="43.8017383" lon="12.2299833"><ele>590.25</ele><time>2026-04-26T11:44:54.024Z</time></trkpt><trkpt lat="43.80189" lon="12.2300217"><ele>587.5</ele><time>2026-04-26T11:44:55.024Z</time></trkpt><trkpt lat="43.8020367" lon="12.2300583"><ele>584.75</ele><time>2026-04-26T11:44:56.024Z</time></trkpt><trkpt lat="43.8021733" lon="12.2300867"><ele>582.0</ele><time>2026-04-26T11:44:57.023Z</time></trkpt><trkpt lat="43.802295" lon="12.2301117"><ele>582.0</ele><time>2026-04-26T11:44:58.023Z</time></trkpt><trkpt lat="43.8024033" lon="12.2301333"><ele>582.0</ele><time>2026-04-26T11:44:59.024Z</time></trkpt><trkpt lat="43.8024967" lon="12.2301533"><ele>582.0</ele><time>2026-04-26T11:45:00.024Z</time></trkpt><trkpt lat="43.8025733" lon="12.2301767"><ele>582.0</ele><time>2026-04-26T11:45:01.026Z</time></trkpt><trkpt lat="43.8026333" lon="12.2302067"><ele>582.0</ele><time>2026-04-26T11:45:02.024Z</time></trkpt><trkpt lat="43.802685" lon="12.2302667"><ele>582.0</ele><time>2026-04-26T11:45:03.025Z</time></trkpt><trkpt lat="43.8027217" lon="12.2303383"><ele>584.4</ele><time>2026-04-26T11:45:04.025Z</time></trkpt><trkpt lat="43.8027317" lon="12.2304267"><ele>586.8000000000001</ele><time>2026-04-26T11:45:05.024Z</time></trkpt><trkpt lat="43.802675" lon="12.2305933"><ele>589.2</ele><time>2026-04-26T11:45:07.027Z</time></trkpt><trkpt lat="43.8026083" lon="12.2306917"><ele>591.6</ele><time>2026-04-26T11:45:08.025Z</time></trkpt><trkpt lat="43.8025367" lon="12.230805"><ele>594.0</ele><time>2026-04-26T11:45:09.029Z</time></trkpt><trkpt lat="43.80243" lon="12.2309567"><ele>594.0</ele><time>2026-04-26T11:45:10.024Z</time></trkpt><trkpt lat="43.80231" lon="12.2311167"><ele>594.0</ele><time>2026-04-26T11:45:11.025Z</time></trkpt><trkpt lat="43.8022017" lon="12.231265"><ele>594.0</ele><time>2026-04-26T11:45:12.025Z</time></trkpt><trkpt lat="43.8021033" lon="12.2314033"><ele>593.2</ele><time>2026-04-26T11:45:13.025Z</time></trkpt><trkpt lat="43.8020233" lon="12.2315267"><ele>592.4</ele><time>2026-04-26T11:45:14.026Z</time></trkpt><trkpt lat="43.80196" lon="12.2316483"><ele>591.6</ele><time>2026-04-26T11:45:15.026Z</time></trkpt><trkpt lat="43.8019067" lon="12.231765"><ele>590.8</ele><time>2026-04-26T11:45:16.023Z</time></trkpt><trkpt lat="43.8018567" lon="12.2318817"><ele>590.0</ele><time>2026-04-26T11:45:17.023Z</time></trkpt><trkpt lat="43.801805" lon="12.231995"><ele>593.4</ele><time>2026-04-26T11:45:18.026Z</time></trkpt><trkpt lat="43.80176" lon="12.2321117"><ele>596.8</ele><time>2026-04-26T11:45:19.024Z</time></trkpt><trkpt lat="43.8017267" lon="12.2322383"><ele>600.2</ele><time>2026-04-26T11:45:20.027Z</time></trkpt><trkpt lat="43.8017" lon="12.2323783"><ele>603.6</ele><time>2026-04-26T11:45:21.025Z</time></trkpt><trkpt lat="43.8016767" lon="12.2325317"><ele>607.0</ele><time>2026-04-26T11:45:22.024Z</time></trkpt><trkpt lat="43.8016483" lon="12.232695"><ele>607.0</ele><time>2026-04-26T11:45:23.024Z</time></trkpt><trkpt lat="43.80162" lon="12.2328533"><ele>607.0</ele><time>2026-04-26T11:45:24.025Z</time></trkpt><trkpt lat="43.8015933" lon="12.2330133"><ele>607.0</ele><time>2026-04-26T11:45:25.025Z</time></trkpt><trkpt lat="43.8015683" lon="12.2331683"><ele>607.0</ele><time>2026-04-26T11:45:26.024Z</time></trkpt><trkpt lat="43.8015417" lon="12.23332"><ele>607.0</ele><time>2026-04-26T11:45:27.025Z</time></trkpt><trkpt lat="43.80152" lon="12.2334617"><ele>607.0</ele><time>2026-04-26T11:45:28.025Z</time></trkpt><trkpt lat="43.8014983" lon="12.2335983"><ele>607.0</ele><time>2026-04-26T11:45:29.023Z</time></trkpt><trkpt lat="43.80148" lon="12.233735"><ele>607.0</ele><time>2026-04-26T11:45:30.024Z</time></trkpt><trkpt lat="43.8014633" lon="12.23387"><ele>607.0</ele><time>2026-04-26T11:45:31.024Z</time></trkpt><trkpt lat="43.8014483" lon="12.2340033"><ele>608.0</ele><time>2026-04-26T11:45:32.024Z</time></trkpt><trkpt lat="43.801435" lon="12.2341367"><ele>609.0</ele><time>2026-04-26T11:45:33.026Z</time></trkpt><trkpt lat="43.80141" lon="12.23426"><ele>610.0</ele><time>2026-04-26T11:45:34.024Z</time></trkpt><trkpt lat="43.8013917" lon="12.2343817"><ele>611.0</ele><time>2026-04-26T11:45:35.024Z</time></trkpt><trkpt lat="43.80137" lon="12.234505"><ele>612.0</ele><time>2026-04-26T11:45:36.024Z</time></trkpt><trkpt lat="43.80135" lon="12.2346283"><ele>612.0</ele><time>2026-04-26T11:45:37.025Z</time></trkpt><trkpt lat="43.8013333" lon="12.234755"><ele>612.0</ele><time>2026-04-26T11:45:38.023Z</time></trkpt><trkpt lat="43.8013133" lon="12.2348783"><ele>612.0</ele><time>2026-04-26T11:45:39.028Z</time></trkpt><trkpt lat="43.8012817" lon="12.234985"><ele>612.0</ele><time>2026-04-26T11:45:40.022Z</time></trkpt><trkpt lat="43.8012567" lon="12.23507"><ele>612.0</ele><time>2026-04-26T11:45:41.022Z</time></trkpt><trkpt lat="43.8012033" lon="12.2352117"><ele>612.0</ele><time>2026-04-26T11:45:43.023Z</time></trkpt><trkpt lat="43.8011183" lon="12.2352717"><ele>615.6666666666666</ele><time>2026-04-26T11:45:45.024Z</time></trkpt><trkpt lat="43.8009967" lon="12.235255"><ele>619.3333333333334</ele><time>2026-04-26T11:45:47.027Z</time></trkpt><trkpt lat="43.800935" lon="12.2352217"><ele>623.0</ele><time>2026-04-26T11:45:48.024Z</time></trkpt><trkpt lat="43.8008683" lon="12.2351733"><ele>626.6666666666667</ele><time>2026-04-26T11:45:49.026Z</time></trkpt><trkpt lat="43.800805" lon="12.2351117"><ele>630.3333333333334</ele><time>2026-04-26T11:45:50.023Z</time></trkpt><trkpt lat="43.8007283" lon="12.2350383"><ele>634.0</ele><time>2026-04-26T11:45:51.024Z</time></trkpt><trkpt lat="43.80067" lon="12.2349683"><ele>634.0</ele><time>2026-04-26T11:45:52.024Z</time></trkpt><trkpt lat="43.8006133" lon="12.234875"><ele>634.0</ele><time>2026-04-26T11:45:53.022Z</time></trkpt><trkpt lat="43.800565" lon="12.234775"><ele>634.0</ele><time>2026-04-26T11:45:54.021Z</time></trkpt><trkpt lat="43.8005217" lon="12.2346633"><ele>634.0</ele><time>2026-04-26T11:45:55.023Z</time></trkpt><trkpt lat="43.800485" lon="12.234545"><ele>634.0</ele><time>2026-04-26T11:45:56.023Z</time></trkpt><trkpt lat="43.8004633" lon="12.2343933"><ele>633.0</ele><time>2026-04-26T11:45:57.022Z</time></trkpt><trkpt lat="43.8004539" lon="12.2342473"><ele>632.0</ele><time>2026-04-26T11:45:58.024Z</time></trkpt><trkpt lat="43.8004565" lon="12.2341046"><ele>631.0</ele><time>2026-04-26T11:45:59.028Z</time></trkpt><trkpt lat="43.8004592" lon="12.2339687"><ele>630.0</ele><time>2026-04-26T11:46:00.026Z</time></trkpt><trkpt lat="43.8004565" lon="12.2338363"><ele>629.0</ele><time>2026-04-26T11:46:01.025Z</time></trkpt><trkpt lat="43.8004518" lon="12.2336883"><ele>629.0</ele><time>2026-04-26T11:46:02.025Z</time></trkpt><trkpt lat="43.8004453" lon="12.2335324"><ele>629.0</ele><time>2026-04-26T11:46:03.025Z</time></trkpt><trkpt lat="43.8004321" lon="12.2333758"><ele>629.0</ele><time>2026-04-26T11:46:04.026Z</time></trkpt><trkpt lat="43.8004177" lon="12.2332323"><ele>629.0</ele><time>2026-04-26T11:46:05.024Z</time></trkpt><trkpt lat="43.8004054" lon="12.2331043"><ele>629.0</ele><time>2026-04-26T11:46:06.024Z</time></trkpt><trkpt lat="43.8003892" lon="12.2329823"><ele>629.2</ele><time>2026-04-26T11:46:07.025Z</time></trkpt><trkpt lat="43.8003641" lon="12.2328678"><ele>629.4</ele><time>2026-04-26T11:46:08.024Z</time></trkpt><trkpt lat="43.8003207" lon="12.2327637"><ele>629.6</ele><time>2026-04-26T11:46:09.026Z</time></trkpt><trkpt lat="43.8002615" lon="12.2326581"><ele>629.8</ele><time>2026-04-26T11:46:10.025Z</time></trkpt><trkpt lat="43.8001987" lon="12.2325502"><ele>630.0</ele><time>2026-04-26T11:46:11.025Z</time></trkpt><trkpt lat="43.8001464" lon="12.232441"><ele>631.0</ele><time>2026-04-26T11:46:12.025Z</time></trkpt><trkpt lat="43.8001126" lon="12.2323274"><ele>632.0</ele><time>2026-04-26T11:46:13.023Z</time></trkpt><trkpt lat="43.8000972" lon="12.2322063"><ele>633.0</ele><time>2026-04-26T11:46:14.024Z</time></trkpt><trkpt lat="43.8001004" lon="12.2320891"><ele>634.0</ele><time>2026-04-26T11:46:15.026Z</time></trkpt><trkpt lat="43.8001138" lon="12.2319767"><ele>635.0</ele><time>2026-04-26T11:46:16.024Z</time></trkpt><trkpt lat="43.8001426" lon="12.2318665"><ele>636.0</ele><time>2026-04-26T11:46:17.026Z</time></trkpt><trkpt lat="43.8001866" lon="12.2317607"><ele>636.0</ele><time>2026-04-26T11:46:18.025Z</time></trkpt><trkpt lat="43.8002464" lon="12.2316551"><ele>636.0</ele><time>2026-04-26T11:46:19.025Z</time></trkpt><trkpt lat="43.8003029" lon="12.2315505"><ele>636.0</ele><time>2026-04-26T11:46:20.025Z</time></trkpt><trkpt lat="43.8003468" lon="12.2314468"><ele>636.0</ele><time>2026-04-26T11:46:21.024Z</time></trkpt><trkpt lat="43.8003664" lon="12.2313446"><ele>636.0</ele><time>2026-04-26T11:46:22.025Z</time></trkpt><trkpt lat="43.8003704" lon="12.2312309"><ele>636.0</ele><time>2026-04-26T11:46:23.025Z</time></trkpt><trkpt lat="43.8003694" lon="12.2311162"><ele>635.5</ele><time>2026-04-26T11:46:24.025Z</time></trkpt><trkpt lat="43.8003612" lon="12.2310099"><ele>635.0</ele><time>2026-04-26T11:46:25.023Z</time></trkpt><trkpt lat="43.8003421" lon="12.2308722"><ele>634.5</ele><time>2026-04-26T11:46:27.025Z</time></trkpt><trkpt lat="43.8002855" lon="12.2308106"><ele>634.0</ele><time>2026-04-26T11:46:29.027Z</time></trkpt><trkpt lat="43.8002243" lon="12.2308339"><ele>633.5</ele><time>2026-04-26T11:46:31.024Z</time></trkpt><trkpt lat="43.8001815" lon="12.2309669"><ele>633.0</ele><time>2026-04-26T11:46:33.026Z</time></trkpt><trkpt lat="43.8001757" lon="12.2310648"><ele>633.0</ele><time>2026-04-26T11:46:34.025Z</time></trkpt><trkpt lat="43.8001783" lon="12.2311726"><ele>633.0</ele><time>2026-04-26T11:46:35.024Z</time></trkpt><trkpt lat="43.8001741" lon="12.2312784"><ele>633.0</ele><time>2026-04-26T11:46:36.025Z</time></trkpt><trkpt lat="43.8001642" lon="12.2313897"><ele>633.0</ele><time>2026-04-26T11:46:37.025Z</time></trkpt><trkpt lat="43.8001339" lon="12.2314796"><ele>633.0</ele><time>2026-04-26T11:46:38.024Z</time></trkpt><trkpt lat="43.8000912" lon="12.2315539"><ele>633.0</ele><time>2026-04-26T11:46:39.025Z</time></trkpt><trkpt lat="43.8000321" lon="12.2316127"><ele>633.0</ele><time>2026-04-26T11:46:40.024Z</time></trkpt><trkpt lat="43.799975" lon="12.2316632"><ele>638.8</ele><time>2026-04-26T11:46:41.026Z</time></trkpt><trkpt lat="43.7998731" lon="12.2317582"><ele>644.5999999999999</ele><time>2026-04-26T11:46:43.026Z</time></trkpt><trkpt lat="43.7997682" lon="12.2318537"><ele>650.4000000000001</ele><time>2026-04-26T11:46:45.024Z</time></trkpt><trkpt lat="43.7997183" lon="12.2319124"><ele>656.2</ele><time>2026-04-26T11:46:46.024Z</time></trkpt><trkpt lat="43.7996702" lon="12.2319864"><ele>662.0</ele><time>2026-04-26T11:46:47.026Z</time></trkpt><trkpt lat="43.7996272" lon="12.232078"><ele>662.0</ele><time>2026-04-26T11:46:48.024Z</time></trkpt><trkpt lat="43.7995973" lon="12.2321845"><ele>662.0</ele><time>2026-04-26T11:46:49.027Z</time></trkpt><trkpt lat="43.7995826" lon="12.2322892"><ele>662.0</ele><time>2026-04-26T11:46:50.025Z</time></trkpt><trkpt lat="43.7995716" lon="12.2323889"><ele>662.0</ele><time>2026-04-26T11:46:51.024Z</time></trkpt><trkpt lat="43.7995659" lon="12.2324875"><ele>662.0</ele><time>2026-04-26T11:46:52.024Z</time></trkpt><trkpt lat="43.7995697" lon="12.2325932"><ele>662.0</ele><time>2026-04-26T11:46:53.025Z</time></trkpt><trkpt lat="43.7995764" lon="12.2326938"><ele>661.2857142857143</ele><time>2026-04-26T11:46:54.027Z</time></trkpt><trkpt lat="43.7995734" lon="12.2327903"><ele>660.5714285714286</ele><time>2026-04-26T11:46:55.025Z</time></trkpt><trkpt lat="43.7995535" lon="12.2328845"><ele>659.8571428571429</ele><time>2026-04-26T11:46:56.025Z</time></trkpt><trkpt lat="43.7995161" lon="12.2329742"><ele>659.1428571428571</ele><time>2026-04-26T11:46:57.024Z</time></trkpt><trkpt lat="43.7994626" lon="12.2330517"><ele>658.4285714285714</ele><time>2026-04-26T11:46:58.025Z</time></trkpt><trkpt lat="43.7994138" lon="12.2331333"><ele>657.7142857142857</ele><time>2026-04-26T11:46:59.025Z</time></trkpt><trkpt lat="43.7993815" lon="12.2332217"><ele>657.0</ele><time>2026-04-26T11:47:00.024Z</time></trkpt><trkpt lat="43.799369" lon="12.233319"><ele>657.0</ele><time>2026-04-26T11:47:01.025Z</time></trkpt><trkpt lat="43.799372" lon="12.2334203"><ele>657.0</ele><time>2026-04-26T11:47:02.025Z</time></trkpt><trkpt lat="43.7993778" lon="12.2335257"><ele>657.0</ele><time>2026-04-26T11:47:03.024Z</time></trkpt><trkpt lat="43.7993912" lon="12.2336321"><ele>657.0</ele><time>2026-04-26T11:47:04.025Z</time></trkpt><trkpt lat="43.7994055" lon="12.233735"><ele>657.0</ele><time>2026-04-26T11:47:05.025Z</time></trkpt><trkpt lat="43.799414" lon="12.2338296"><ele>657.0</ele><time>2026-04-26T11:47:06.025Z</time></trkpt><trkpt lat="43.7993883" lon="12.2339778"><ele>661.0</ele><time>2026-04-26T11:47:08.024Z</time></trkpt><trkpt lat="43.7993233" lon="12.2340061"><ele>665.0</ele><time>2026-04-26T11:47:09.026Z</time></trkpt><trkpt lat="43.7992505" lon="12.2340347"><ele>669.0</ele><time>2026-04-26T11:47:10.026Z</time></trkpt><trkpt lat="43.7991841" lon="12.2340869"><ele>673.0</ele><time>2026-04-26T11:47:11.024Z</time></trkpt><trkpt lat="43.7991298" lon="12.2341548"><ele>677.0</ele><time>2026-04-26T11:47:12.024Z</time></trkpt><trkpt lat="43.7990886" lon="12.2342341"><ele>681.0</ele><time>2026-04-26T11:47:13.025Z</time></trkpt><trkpt lat="43.7990777" lon="12.2343362"><ele>685.0</ele><time>2026-04-26T11:47:14.026Z</time></trkpt><trkpt lat="43.7990793" lon="12.2344557"><ele>685.0</ele><time>2026-04-26T11:47:15.024Z</time></trkpt><trkpt lat="43.7990816" lon="12.2345733"><ele>685.0</ele><time>2026-04-26T11:47:16.025Z</time></trkpt><trkpt lat="43.799083" lon="12.2346847"><ele>685.0</ele><time>2026-04-26T11:47:17.025Z</time></trkpt><trkpt lat="43.7990776" lon="12.2347898"><ele>685.0</ele><time>2026-04-26T11:47:18.024Z</time></trkpt><trkpt lat="43.7990574" lon="12.234887"><ele>685.0</ele><time>2026-04-26T11:47:19.024Z</time></trkpt><trkpt lat="43.7990168" lon="12.2349671"><ele>685.0</ele><time>2026-04-26T11:47:20.025Z</time></trkpt><trkpt lat="43.7989623" lon="12.2350331"><ele>684.3333333333334</ele><time>2026-04-26T11:47:21.025Z</time></trkpt><trkpt lat="43.7988973" lon="12.2350963"><ele>683.6666666666667</ele><time>2026-04-26T11:47:22.026Z</time></trkpt><trkpt lat="43.7988314" lon="12.2351677"><ele>683.0</ele><time>2026-04-26T11:47:23.026Z</time></trkpt><trkpt lat="43.798776" lon="12.2352544"><ele>682.3333333333334</ele><time>2026-04-26T11:47:24.024Z</time></trkpt><trkpt lat="43.7987258" lon="12.2353464"><ele>681.6666666666666</ele><time>2026-04-26T11:47:25.025Z</time></trkpt><trkpt lat="43.7986761" lon="12.2354305"><ele>681.0</ele><time>2026-04-26T11:47:26.024Z</time></trkpt><trkpt lat="43.7986319" lon="12.2354976"><ele>681.0</ele><time>2026-04-26T11:47:27.027Z</time></trkpt><trkpt lat="43.7985759" lon="12.2355814"><ele>681.0</ele><time>2026-04-26T11:47:29.024Z</time></trkpt><trkpt lat="43.7984933" lon="12.2356533"><ele>681.0</ele><time>2026-04-26T11:56:49.027Z</time></trkpt><trkpt lat="43.79844" lon="12.2357067"><ele>681.0</ele><time>2026-04-26T11:56:50.025Z</time></trkpt><trkpt lat="43.7983617" lon="12.2357783"><ele>681.0</ele><time>2026-04-26T11:56:51.024Z</time></trkpt><trkpt lat="43.798275" lon="12.2358517"><ele>681.0</ele><time>2026-04-26T11:56:52.025Z</time></trkpt><trkpt lat="43.7982" lon="12.2359333"><ele>682.6666666666666</ele><time>2026-04-26T11:56:53.025Z</time></trkpt><trkpt lat="43.7981417" lon="12.2360017"><ele>684.3333333333334</ele><time>2026-04-26T11:56:54.024Z</time></trkpt><trkpt lat="43.7980883" lon="12.23607"><ele>686.0</ele><time>2026-04-26T11:56:55.024Z</time></trkpt><trkpt lat="43.79804" lon="12.2361333"><ele>687.6666666666667</ele><time>2026-04-26T11:56:56.024Z</time></trkpt><trkpt lat="43.7979917" lon="12.2361933"><ele>689.3333333333334</ele><time>2026-04-26T11:56:57.024Z</time></trkpt><trkpt lat="43.7979067" lon="12.2363033"><ele>691.0</ele><time>2026-04-26T11:56:59.027Z</time></trkpt><trkpt lat="43.797825" lon="12.236395"><ele>690.0</ele><time>2026-04-26T11:57:01.025Z</time></trkpt><trkpt lat="43.7977533" lon="12.2364883"><ele>689.0</ele><time>2026-04-26T11:57:03.025Z</time></trkpt><trkpt lat="43.7976883" lon="12.2365683"><ele>688.0</ele><time>2026-04-26T11:57:05.024Z</time></trkpt><trkpt lat="43.7976017" lon="12.2366683"><ele>687.0</ele><time>2026-04-26T11:57:07.025Z</time></trkpt><trkpt lat="43.7975433" lon="12.2367167"><ele>686.0</ele><time>2026-04-26T11:57:08.026Z</time></trkpt><trkpt lat="43.7974717" lon="12.2367633"><ele>685.0</ele><time>2026-04-26T11:57:09.026Z</time></trkpt><trkpt lat="43.7973867" lon="12.2368067"><ele>688.8</ele><time>2026-04-26T11:57:10.025Z</time></trkpt><trkpt lat="43.7973057" lon="12.2368413"><ele>692.6</ele><time>2026-04-26T11:57:11.024Z</time></trkpt><trkpt lat="43.7972338" lon="12.2368611"><ele>696.4000000000001</ele><time>2026-04-26T11:57:12.024Z</time></trkpt><trkpt lat="43.7971176" lon="12.2368762"><ele>700.2</ele><time>2026-04-26T11:57:14.028Z</time></trkpt><trkpt lat="43.7969976" lon="12.2368765"><ele>704.0</ele><time>2026-04-26T11:57:16.023Z</time></trkpt><trkpt lat="43.7969244" lon="12.2368885"><ele>704.0</ele><time>2026-04-26T11:57:17.024Z</time></trkpt><trkpt lat="43.7968402" lon="12.2369038"><ele>704.0</ele><time>2026-04-26T11:57:18.024Z</time></trkpt><trkpt lat="43.7967558" lon="12.2369198"><ele>704.0</ele><time>2026-04-26T11:57:19.023Z</time></trkpt><trkpt lat="43.7966821" lon="12.236935"><ele>704.0</ele><time>2026-04-26T11:57:20.024Z</time></trkpt><trkpt lat="43.796619" lon="12.236954"><ele>704.0</ele><time>2026-04-26T11:57:21.028Z</time></trkpt><trkpt lat="43.7965139" lon="12.2370326"><ele>704.0</ele><time>2026-04-26T11:57:23.022Z</time></trkpt><trkpt lat="43.7964674" lon="12.2371156"><ele>705.3333333333333</ele><time>2026-04-26T11:57:24.024Z</time></trkpt><trkpt lat="43.7964226" lon="12.2372239"><ele>706.6666666666666</ele><time>2026-04-26T11:57:25.026Z</time></trkpt><trkpt lat="43.7963761" lon="12.2373307"><ele>708.0</ele><time>2026-04-26T11:57:26.025Z</time></trkpt><trkpt lat="43.7963321" lon="12.2374248"><ele>709.3333333333334</ele><time>2026-04-26T11:57:27.023Z</time></trkpt><trkpt lat="43.7962967" lon="12.2375176"><ele>710.6666666666667</ele><time>2026-04-26T11:57:28.023Z</time></trkpt><trkpt lat="43.7962599" lon="12.2376032"><ele>712.0</ele><time>2026-04-26T11:57:29.024Z</time></trkpt><trkpt lat="43.796217" lon="12.2376923"><ele>712.0</ele><time>2026-04-26T11:57:30.024Z</time></trkpt><trkpt lat="43.7961589" lon="12.23779"><ele>712.0</ele><time>2026-04-26T11:57:31.025Z</time></trkpt><trkpt lat="43.7960869" lon="12.237886"><ele>712.0</ele><time>2026-04-26T11:57:32.026Z</time></trkpt><trkpt lat="43.7960025" lon="12.2379605"><ele>712.0</ele><time>2026-04-26T11:57:33.024Z</time></trkpt><trkpt lat="43.7959125" lon="12.2380071"><ele>712.0</ele><time>2026-04-26T11:57:34.024Z</time></trkpt><trkpt lat="43.7958119" lon="12.2380251"><ele>715.0</ele><time>2026-04-26T11:57:35.024Z</time></trkpt><trkpt lat="43.7956962" lon="12.2380238"><ele>718.0</ele><time>2026-04-26T11:57:36.026Z</time></trkpt><trkpt lat="43.7955751" lon="12.2380199"><ele>721.0</ele><time>2026-04-26T11:57:37.027Z</time></trkpt><trkpt lat="43.7954711" lon="12.2380277"><ele>724.0</ele><time>2026-04-26T11:57:38.023Z</time></trkpt><trkpt lat="43.7953898" lon="12.238044"><ele>727.0</ele><time>2026-04-26T11:57:39.028Z</time></trkpt><trkpt lat="43.7953193" lon="12.2380794"><ele>727.0</ele><time>2026-04-26T11:57:40.023Z</time></trkpt><trkpt lat="43.795255" lon="12.238131"><ele>727.0</ele><time>2026-04-26T11:57:41.025Z</time></trkpt><trkpt lat="43.7951929" lon="12.2382049"><ele>727.0</ele><time>2026-04-26T11:57:42.023Z</time></trkpt><trkpt lat="43.7951381" lon="12.238307"><ele>727.0</ele><time>2026-04-26T11:57:43.023Z</time></trkpt><trkpt lat="43.7951333" lon="12.2385017"><ele>727.0</ele><time>2026-04-26T11:57:44.024Z</time></trkpt><trkpt lat="43.795115" lon="12.238645"><ele>726.8333333333334</ele><time>2026-04-26T11:57:45.025Z</time></trkpt><trkpt lat="43.7950817" lon="12.2387667"><ele>726.6666666666667</ele><time>2026-04-26T11:57:46.024Z</time></trkpt><trkpt lat="43.7950433" lon="12.2388683"><ele>726.5</ele><time>2026-04-26T11:57:47.023Z</time></trkpt><trkpt lat="43.7949967" lon="12.238955"><ele>726.3333333333334</ele><time>2026-04-26T11:57:48.024Z</time></trkpt><trkpt lat="43.79494" lon="12.2390183"><ele>726.1666666666666</ele><time>2026-04-26T11:57:49.023Z</time></trkpt><trkpt lat="43.794845" lon="12.2390467"><ele>726.0</ele><time>2026-04-26T11:57:50.023Z</time></trkpt><trkpt lat="43.7947467" lon="12.23909"><ele>726.0</ele><time>2026-04-26T11:57:51.025Z</time></trkpt><trkpt lat="43.7946483" lon="12.2391717"><ele>726.0</ele><time>2026-04-26T11:57:52.024Z</time></trkpt><trkpt lat="43.7945583" lon="12.2393017"><ele>726.0</ele><time>2026-04-26T11:57:53.023Z</time></trkpt><trkpt lat="43.794495" lon="12.2394417"><ele>726.0</ele><time>2026-04-26T11:57:54.024Z</time></trkpt><trkpt lat="43.79442" lon="12.2395583"><ele>725.0</ele><time>2026-04-26T11:57:55.025Z</time></trkpt><trkpt lat="43.7943333" lon="12.2396617"><ele>724.0</ele><time>2026-04-26T11:57:56.025Z</time></trkpt><trkpt lat="43.7942483" lon="12.23977"><ele>723.0</ele><time>2026-04-26T11:57:57.023Z</time></trkpt><trkpt lat="43.7941683" lon="12.2398767"><ele>722.0</ele><time>2026-04-26T11:57:58.024Z</time></trkpt><trkpt lat="43.7941033" lon="12.2400017"><ele>722.0</ele><time>2026-04-26T11:57:59.021Z</time></trkpt><trkpt lat="43.794035" lon="12.2401233"><ele>722.0</ele><time>2026-04-26T11:58:00.022Z</time></trkpt><trkpt lat="43.793975" lon="12.2402417"><ele>722.0</ele><time>2026-04-26T11:58:01.026Z</time></trkpt><trkpt lat="43.7939183" lon="12.2403567"><ele>722.0</ele><time>2026-04-26T11:58:02.022Z</time></trkpt><trkpt lat="43.79386" lon="12.2404783"><ele>722.0</ele><time>2026-04-26T11:58:03.024Z</time></trkpt><trkpt lat="43.793805" lon="12.24062"><ele>718.8</ele><time>2026-04-26T11:58:04.023Z</time></trkpt><trkpt lat="43.7937433" lon="12.24076"><ele>715.6</ele><time>2026-04-26T11:58:05.024Z</time></trkpt><trkpt lat="43.7936983" lon="12.2408983"><ele>712.4</ele><time>2026-04-26T11:58:06.024Z</time></trkpt><trkpt lat="43.7936683" lon="12.2410333"><ele>709.1999999999999</ele><time>2026-04-26T11:58:07.023Z</time></trkpt><trkpt lat="43.7936667" lon="12.24118"><ele>706.0</ele><time>2026-04-26T11:58:08.024Z</time></trkpt><trkpt lat="43.7936833" lon="12.2413317"><ele>704.75</ele><time>2026-04-26T11:58:09.023Z</time></trkpt><trkpt lat="43.7937133" lon="12.2414817"><ele>703.5</ele><time>2026-04-26T11:58:10.022Z</time></trkpt><trkpt lat="43.7937533" lon="12.2416267"><ele>702.25</ele><time>2026-04-26T11:58:11.027Z</time></trkpt><trkpt lat="43.7938067" lon="12.2417667"><ele>701.0</ele><time>2026-04-26T11:58:12.023Z</time></trkpt><trkpt lat="43.793885" lon="12.2418983"><ele>701.0</ele><time>2026-04-26T11:58:13.024Z</time></trkpt><trkpt lat="43.793985" lon="12.242025"><ele>701.0</ele><time>2026-04-26T11:58:14.023Z</time></trkpt><trkpt lat="43.79409" lon="12.242145"><ele>701.0</ele><time>2026-04-26T11:58:15.026Z</time></trkpt><trkpt lat="43.794195" lon="12.2422633"><ele>701.0</ele><time>2026-04-26T11:58:16.023Z</time></trkpt><trkpt lat="43.7942867" lon="12.2423883"><ele>694.75</ele><time>2026-04-26T11:58:17.024Z</time></trkpt><trkpt lat="43.7943683" lon="12.242525"><ele>688.5</ele><time>2026-04-26T11:58:18.023Z</time></trkpt><trkpt lat="43.7944186" lon="12.2426787"><ele>682.25</ele><time>2026-04-26T11:58:19.023Z</time></trkpt><trkpt lat="43.7944367" lon="12.2428492"><ele>676.0</ele><time>2026-04-26T11:58:20.022Z</time></trkpt><trkpt lat="43.7944344" lon="12.2430374"><ele>676.25</ele><time>2026-04-26T11:58:21.024Z</time></trkpt><trkpt lat="43.7944238" lon="12.2432318"><ele>676.5</ele><time>2026-04-26T11:58:22.022Z</time></trkpt><trkpt lat="43.7944215" lon="12.2434148"><ele>676.75</ele><time>2026-04-26T11:58:23.023Z</time></trkpt><trkpt lat="43.7944481" lon="12.2435788"><ele>677.0</ele><time>2026-04-26T11:58:24.023Z</time></trkpt><trkpt lat="43.7945067" lon="12.2437235"><ele>677.0</ele><time>2026-04-26T11:58:25.023Z</time></trkpt><trkpt lat="43.7946005" lon="12.2438419"><ele>677.0</ele><time>2026-04-26T11:58:26.023Z</time></trkpt><trkpt lat="43.7947221" lon="12.2439315"><ele>677.0</ele><time>2026-04-26T11:58:27.023Z</time></trkpt><trkpt lat="43.7948613" lon="12.244"><ele>677.0</ele><time>2026-04-26T11:58:28.023Z</time></trkpt><trkpt lat="43.795004" lon="12.2440607"><ele>676.3333333333333</ele><time>2026-04-26T11:58:29.023Z</time></trkpt><trkpt lat="43.7951494" lon="12.2441179"><ele>675.6666666666666</ele><time>2026-04-26T11:58:30.028Z</time></trkpt><trkpt lat="43.7953032" lon="12.2441756"><ele>675.0</ele><time>2026-04-26T11:58:31.023Z</time></trkpt><trkpt lat="43.7954649" lon="12.2442354"><ele>675.0</ele><time>2026-04-26T11:58:32.023Z</time></trkpt><trkpt lat="43.795632" lon="12.2442977"><ele>675.0</ele><time>2026-04-26T11:58:33.022Z</time></trkpt><trkpt lat="43.7958023" lon="12.244368"><ele>675.0</ele><time>2026-04-26T11:58:34.023Z</time></trkpt><trkpt lat="43.7959649" lon="12.2444473"><ele>667.3333333333334</ele><time>2026-04-26T11:58:35.023Z</time></trkpt><trkpt lat="43.7961168" lon="12.2445436"><ele>659.6666666666667</ele><time>2026-04-26T11:58:36.024Z</time></trkpt><trkpt lat="43.7962618" lon="12.2446451"><ele>652.0</ele><time>2026-04-26T11:58:37.024Z</time></trkpt><trkpt lat="43.7964015" lon="12.2447176"><ele>652.0</ele><time>2026-04-26T11:58:38.024Z</time></trkpt><trkpt lat="43.7965406" lon="12.2447497"><ele>652.0</ele><time>2026-04-26T11:58:39.023Z</time></trkpt><trkpt lat="43.796671" lon="12.2447815"><ele>652.0</ele><time>2026-04-26T11:58:40.023Z</time></trkpt><trkpt lat="43.7967855" lon="12.2448555"><ele>652.0</ele><time>2026-04-26T11:58:41.022Z</time></trkpt><trkpt lat="43.7968791" lon="12.2449641"><ele>649.5</ele><time>2026-04-26T11:58:42.022Z</time></trkpt><trkpt lat="43.7969371" lon="12.2450999"><ele>647.0</ele><time>2026-04-26T11:58:43.024Z</time></trkpt><trkpt lat="43.7969595" lon="12.2452571"><ele>644.5</ele><time>2026-04-26T11:58:44.024Z</time></trkpt><trkpt lat="43.7969397" lon="12.245427"><ele>642.0</ele><time>2026-04-26T11:58:45.024Z</time></trkpt><trkpt lat="43.7968938" lon="12.2456051"><ele>643.0</ele><time>2026-04-26T11:58:46.028Z</time></trkpt><trkpt lat="43.7968687" lon="12.2457726"><ele>644.0</ele><time>2026-04-26T11:58:47.027Z</time></trkpt><trkpt lat="43.7968692" lon="12.2459259"><ele>645.0</ele><time>2026-04-26T11:58:48.022Z</time></trkpt><trkpt lat="43.7969009" lon="12.2460614"><ele>646.0</ele><time>2026-04-26T11:58:49.03Z</time></trkpt><trkpt lat="43.7969633" lon="12.2461726"><ele>647.0</ele><time>2026-04-26T11:58:50.025Z</time></trkpt><trkpt lat="43.7970469" lon="12.2462678"><ele>647.0</ele><time>2026-04-26T11:58:51.025Z</time></trkpt><trkpt lat="43.7971419" lon="12.2463666"><ele>647.0</ele><time>2026-04-26T11:58:52.021Z</time></trkpt><trkpt lat="43.7972376" lon="12.2464879"><ele>647.0</ele><time>2026-04-26T11:58:53.023Z</time></trkpt><trkpt lat="43.79733" lon="12.2466279"><ele>647.0</ele><time>2026-04-26T11:58:54.021Z</time></trkpt><trkpt lat="43.797386" lon="12.2467863"><ele>647.2</ele><time>2026-04-26T11:58:55.022Z</time></trkpt><trkpt lat="43.7974056" lon="12.2469525"><ele>647.4000000000001</ele><time>2026-04-26T11:58:56.024Z</time></trkpt><trkpt lat="43.7973943" lon="12.2471087"><ele>647.5999999999999</ele><time>2026-04-26T11:58:57.023Z</time></trkpt><trkpt lat="43.7973551" lon="12.2472464"><ele>647.8</ele><time>2026-04-26T11:58:58.025Z</time></trkpt><trkpt lat="43.7972957" lon="12.2473658"><ele>648.0</ele><time>2026-04-26T11:58:59.022Z</time></trkpt><trkpt lat="43.7972053" lon="12.2474658"><ele>648.0</ele><time>2026-04-26T11:59:00.024Z</time></trkpt><trkpt lat="43.7970671" lon="12.2475411"><ele>648.0</ele><time>2026-04-26T11:59:01.023Z</time></trkpt><trkpt lat="43.7969115" lon="12.2476113"><ele>648.0</ele><time>2026-04-26T11:59:02.024Z</time></trkpt><trkpt lat="43.7967603" lon="12.2476804"><ele>653.3333333333334</ele><time>2026-04-26T11:59:03.023Z</time></trkpt><trkpt lat="43.7966193" lon="12.2477557"><ele>658.6666666666667</ele><time>2026-04-26T11:59:04.026Z</time></trkpt><trkpt lat="43.7964704" lon="12.2478345"><ele>664.0</ele><time>2026-04-26T11:59:05.023Z</time></trkpt><trkpt lat="43.7963286" lon="12.2479216"><ele>664.0</ele><time>2026-04-26T11:59:06.023Z</time></trkpt><trkpt lat="43.7961934" lon="12.2480197"><ele>664.0</ele><time>2026-04-26T11:59:07.024Z</time></trkpt><trkpt lat="43.796076" lon="12.2481443"><ele>664.0</ele><time>2026-04-26T11:59:08.025Z</time></trkpt><trkpt lat="43.7959914" lon="12.2483015"><ele>664.0</ele><time>2026-04-26T11:59:09.025Z</time></trkpt><trkpt lat="43.7959374" lon="12.248488"><ele>660.0</ele><time>2026-04-26T11:59:10.023Z</time></trkpt><trkpt lat="43.7959025" lon="12.2487059"><ele>656.0</ele><time>2026-04-26T11:59:11.024Z</time></trkpt><trkpt lat="43.7958711" lon="12.2489505"><ele>652.0</ele><time>2026-04-26T11:59:12.027Z</time></trkpt><trkpt lat="43.7958416" lon="12.2492177"><ele>648.3333333333334</ele><time>2026-04-26T11:59:13.025Z</time></trkpt><trkpt lat="43.7958198" lon="12.2495038"><ele>644.6666666666666</ele><time>2026-04-26T11:59:14.022Z</time></trkpt><trkpt lat="43.7958015" lon="12.2497958"><ele>641.0</ele><time>2026-04-26T11:59:15.022Z</time></trkpt><trkpt lat="43.7957909" lon="12.2500811"><ele>639.0</ele><time>2026-04-26T11:59:16.022Z</time></trkpt><trkpt lat="43.7957808" lon="12.2503581"><ele>637.0</ele><time>2026-04-26T11:59:17.024Z</time></trkpt><trkpt lat="43.7957688" lon="12.2506257"><ele>635.0</ele><time>2026-04-26T11:59:18.023Z</time></trkpt><trkpt lat="43.7957575" lon="12.2508821"><ele>631.6666666666666</ele><time>2026-04-26T11:59:19.024Z</time></trkpt><trkpt lat="43.795753" lon="12.2511328"><ele>628.3333333333334</ele><time>2026-04-26T11:59:20.023Z</time></trkpt><trkpt lat="43.7957637" lon="12.2513832"><ele>625.0</ele><time>2026-04-26T11:59:21.023Z</time></trkpt><trkpt lat="43.7957897" lon="12.2516356"><ele>624.6666666666667</ele><time>2026-04-26T11:59:22.023Z</time></trkpt><trkpt lat="43.795824" lon="12.2518917"><ele>624.3333333333334</ele><time>2026-04-26T11:59:23.023Z</time></trkpt><trkpt lat="43.7958507" lon="12.2521531"><ele>624.0</ele><time>2026-04-26T11:59:24.024Z</time></trkpt><trkpt lat="43.7958677" lon="12.2524198"><ele>623.0</ele><time>2026-04-26T11:59:25.024Z</time></trkpt><trkpt lat="43.7958788" lon="12.2526865"><ele>622.0</ele><time>2026-04-26T11:59:26.025Z</time></trkpt><trkpt lat="43.7958942" lon="12.2529459"><ele>621.0</ele><time>2026-04-26T11:59:27.025Z</time></trkpt><trkpt lat="43.7959125" lon="12.2531882"><ele>620.0</ele><time>2026-04-26T11:59:28.022Z</time></trkpt><trkpt lat="43.7959353" lon="12.2534091"><ele>619.0</ele><time>2026-04-26T11:59:29.023Z</time></trkpt><trkpt lat="43.7959682" lon="12.2535983"><ele>618.0</ele><time>2026-04-26T11:59:30.021Z</time></trkpt><trkpt lat="43.7960091" lon="12.2537574"><ele>617.0</ele><time>2026-04-26T11:59:31.028Z</time></trkpt><trkpt lat="43.7960712" lon="12.2538829"><ele>615.75</ele><time>2026-04-26T11:59:32.024Z</time></trkpt><trkpt lat="43.7961618" lon="12.2539755"><ele>614.5</ele><time>2026-04-26T11:59:33.023Z</time></trkpt><trkpt lat="43.7962798" lon="12.2540296"><ele>613.25</ele><time>2026-04-26T11:59:34.026Z</time></trkpt><trkpt lat="43.7964206" lon="12.2540557"><ele>612.0</ele><time>2026-04-26T11:59:35.023Z</time></trkpt><trkpt lat="43.7965787" lon="12.254074"><ele>612.0</ele><time>2026-04-26T11:59:36.024Z</time></trkpt><trkpt lat="43.7967492" lon="12.2540964"><ele>612.0</ele><time>2026-04-26T11:59:37.023Z</time></trkpt><trkpt lat="43.7969361" lon="12.2541161"><ele>612.0</ele><time>2026-04-26T11:59:38.026Z</time></trkpt><trkpt lat="43.7971376" lon="12.2541297"><ele>609.0</ele><time>2026-04-26T11:59:39.024Z</time></trkpt><trkpt lat="43.7973394" lon="12.2541405"><ele>606.0</ele><time>2026-04-26T11:59:40.021Z</time></trkpt><trkpt lat="43.7975346" lon="12.2541528"><ele>603.0</ele><time>2026-04-26T11:59:41.022Z</time></trkpt><trkpt lat="43.7977081" lon="12.2541684"><ele>600.5</ele><time>2026-04-26T11:59:42.022Z</time></trkpt><trkpt lat="43.7978596" lon="12.2541933"><ele>598.0</ele><time>2026-04-26T11:59:43.028Z</time></trkpt><trkpt lat="43.79799" lon="12.2542301"><ele>595.5</ele><time>2026-04-26T11:59:44.023Z</time></trkpt><trkpt lat="43.7981" lon="12.2542927"><ele>593.0</ele><time>2026-04-26T11:59:45.027Z</time></trkpt><trkpt lat="43.7981843" lon="12.2543893"><ele>593.0</ele><time>2026-04-26T11:59:46.025Z</time></trkpt><trkpt lat="43.798246" lon="12.2545251"><ele>593.0</ele><time>2026-04-26T11:59:47.024Z</time></trkpt><trkpt lat="43.7982973" lon="12.2546979"><ele>593.0</ele><time>2026-04-26T11:59:48.025Z</time></trkpt><trkpt lat="43.7983505" lon="12.2548848"><ele>593.0</ele><time>2026-04-26T11:59:49.024Z</time></trkpt><trkpt lat="43.79842" lon="12.255064"><ele>588.6666666666666</ele><time>2026-04-26T11:59:50.025Z</time></trkpt><trkpt lat="43.7985289" lon="12.2552291"><ele>584.3333333333334</ele><time>2026-04-26T11:59:51.029Z</time></trkpt><trkpt lat="43.798666" lon="12.2553774"><ele>580.0</ele><time>2026-04-26T11:59:52.024Z</time></trkpt><trkpt lat="43.7988312" lon="12.255518"><ele>579.3333333333334</ele><time>2026-04-26T11:59:53.024Z</time></trkpt><trkpt lat="43.7990141" lon="12.2556575"><ele>578.6666666666666</ele><time>2026-04-26T11:59:54.023Z</time></trkpt><trkpt lat="43.7992069" lon="12.2558003"><ele>578.0</ele><time>2026-04-26T11:59:55.025Z</time></trkpt><trkpt lat="43.7994037" lon="12.2559408"><ele>578.0</ele><time>2026-04-26T11:59:56.025Z</time></trkpt><trkpt lat="43.7996015" lon="12.2560608"><ele>578.0</ele><time>2026-04-26T11:59:57.025Z</time></trkpt><trkpt lat="43.7997963" lon="12.2561475"><ele>578.0</ele><time>2026-04-26T11:59:58.024Z</time></trkpt><trkpt lat="43.7999862" lon="12.2562064"><ele>578.0</ele><time>2026-04-26T11:59:59.024Z</time></trkpt><trkpt lat="43.800161" lon="12.2562498"><ele>578.0</ele><time>2026-04-26T12:00:00.025Z</time></trkpt><trkpt lat="43.8003134" lon="12.2562935"><ele>578.0</ele><time>2026-04-26T12:00:01.026Z</time></trkpt><trkpt lat="43.8004438" lon="12.256357"><ele>576.75</ele><time>2026-04-26T12:00:02.025Z</time></trkpt><trkpt lat="43.800548" lon="12.2564571"><ele>575.5</ele><time>2026-04-26T12:00:03.024Z</time></trkpt><trkpt lat="43.8006254" lon="12.2565955"><ele>574.25</ele><time>2026-04-26T12:00:04.024Z</time></trkpt><trkpt lat="43.8006749" lon="12.2567784"><ele>573.0</ele><time>2026-04-26T12:00:05.025Z</time></trkpt><trkpt lat="43.8007085" lon="12.2569923"><ele>573.0</ele><time>2026-04-26T12:00:06.024Z</time></trkpt><trkpt lat="43.8007288" lon="12.2572066"><ele>573.0</ele><time>2026-04-26T12:00:07.024Z</time></trkpt><trkpt lat="43.8007416" lon="12.2574086"><ele>573.0</ele><time>2026-04-26T12:00:08.026Z</time></trkpt><trkpt lat="43.8007452" lon="12.2575978"><ele>573.0</ele><time>2026-04-26T12:00:09.026Z</time></trkpt><trkpt lat="43.8007291" lon="12.2577701"><ele>573.75</ele><time>2026-04-26T12:00:10.026Z</time></trkpt><trkpt lat="43.800688" lon="12.2579199"><ele>574.5</ele><time>2026-04-26T12:00:11.024Z</time></trkpt><trkpt lat="43.8006132" lon="12.2580564"><ele>575.25</ele><time>2026-04-26T12:00:12.022Z</time></trkpt><trkpt lat="43.8005268" lon="12.2581972"><ele>576.0</ele><time>2026-04-26T12:00:13.023Z</time></trkpt><trkpt lat="43.8004382" lon="12.2583556"><ele>573.75</ele><time>2026-04-26T12:00:14.026Z</time></trkpt><trkpt lat="43.8003623" lon="12.2585255"><ele>571.5</ele><time>2026-04-26T12:00:15.025Z</time></trkpt><trkpt lat="43.8002983" lon="12.2587071"><ele>569.25</ele><time>2026-04-26T12:00:16.022Z</time></trkpt><trkpt lat="43.8002404" lon="12.2589041"><ele>567.0</ele><time>2026-04-26T12:00:17.027Z</time></trkpt><trkpt lat="43.8001757" lon="12.2591088"><ele>568.0</ele><time>2026-04-26T12:00:18.024Z</time></trkpt><trkpt lat="43.8001007" lon="12.2593235"><ele>569.0</ele><time>2026-04-26T12:00:19.024Z</time></trkpt><trkpt lat="43.8000166" lon="12.2595553"><ele>570.0</ele><time>2026-04-26T12:00:20.025Z</time></trkpt><trkpt lat="43.7999338" lon="12.2597935"><ele>567.3333333333334</ele><time>2026-04-26T12:00:21.023Z</time></trkpt><trkpt lat="43.7998529" lon="12.2600306"><ele>564.6666666666667</ele><time>2026-04-26T12:00:22.023Z</time></trkpt><trkpt lat="43.799775" lon="12.2602586"><ele>562.0</ele><time>2026-04-26T12:00:23.025Z</time></trkpt><trkpt lat="43.799713" lon="12.2604695"><ele>560.25</ele><time>2026-04-26T12:00:24.025Z</time></trkpt><trkpt lat="43.7996774" lon="12.2606634"><ele>558.5</ele><time>2026-04-26T12:00:25.025Z</time></trkpt><trkpt lat="43.7996803" lon="12.2608502"><ele>556.75</ele><time>2026-04-26T12:00:26.025Z</time></trkpt><trkpt lat="43.7997246" lon="12.2610463"><ele>555.0</ele><time>2026-04-26T12:00:27.026Z</time></trkpt><trkpt lat="43.7998008" lon="12.2612588"><ele>555.6666666666666</ele><time>2026-04-26T12:00:28.025Z</time></trkpt><trkpt lat="43.7998932" lon="12.2614917"><ele>556.3333333333333</ele><time>2026-04-26T12:00:29.024Z</time></trkpt><trkpt lat="43.7999899" lon="12.2617396"><ele>557.0</ele><time>2026-04-26T12:00:30.025Z</time></trkpt><trkpt lat="43.8000754" lon="12.2619882"><ele>557.0</ele><time>2026-04-26T12:00:31.024Z</time></trkpt><trkpt lat="43.8001452" lon="12.2622408"><ele>557.0</ele><time>2026-04-26T12:00:32.026Z</time></trkpt><trkpt lat="43.8002012" lon="12.2625001"><ele>557.0</ele><time>2026-04-26T12:00:33.024Z</time></trkpt><trkpt lat="43.8002439" lon="12.2627577"><ele>553.0</ele><time>2026-04-26T12:00:34.022Z</time></trkpt><trkpt lat="43.8002873" lon="12.2630068"><ele>549.0</ele><time>2026-04-26T12:00:35.022Z</time></trkpt><trkpt lat="43.8003467" lon="12.2632467"><ele>545.0</ele><time>2026-04-26T12:00:36.023Z</time></trkpt><trkpt lat="43.8004287" lon="12.2634708"><ele>545.0</ele><time>2026-04-26T12:00:37.026Z</time></trkpt><trkpt lat="43.8005239" lon="12.2636692"><ele>545.0</ele><time>2026-04-26T12:00:38.026Z</time></trkpt><trkpt lat="43.8006207" lon="12.2638474"><ele>545.0</ele><time>2026-04-26T12:00:39.025Z</time></trkpt><trkpt lat="43.8007086" lon="12.2640204"><ele>545.5</ele><time>2026-04-26T12:00:40.025Z</time></trkpt><trkpt lat="43.8007798" lon="12.2641961"><ele>546.0</ele><time>2026-04-26T12:00:41.024Z</time></trkpt><trkpt lat="43.8008237" lon="12.2643734"><ele>546.5</ele><time>2026-04-26T12:00:42.025Z</time></trkpt><trkpt lat="43.8008379" lon="12.2645456"><ele>547.0</ele><time>2026-04-26T12:00:43.028Z</time></trkpt><trkpt lat="43.8008353" lon="12.2647065"><ele>546.25</ele><time>2026-04-26T12:00:44.025Z</time></trkpt><trkpt lat="43.8008431" lon="12.2648595"><ele>545.5</ele><time>2026-04-26T12:00:45.026Z</time></trkpt><trkpt lat="43.8008792" lon="12.2650114"><ele>544.75</ele><time>2026-04-26T12:00:46.025Z</time></trkpt><trkpt lat="43.8009622" lon="12.2651618"><ele>544.0</ele><time>2026-04-26T12:00:47.023Z</time></trkpt><trkpt lat="43.8010793" lon="12.2653066"><ele>541.6666666666667</ele><time>2026-04-26T12:00:48.026Z</time></trkpt><trkpt lat="43.8012135" lon="12.2654442"><ele>539.3333333333334</ele><time>2026-04-26T12:00:49.024Z</time></trkpt><trkpt lat="43.8013494" lon="12.2655746"><ele>537.0</ele><time>2026-04-26T12:00:50.026Z</time></trkpt><trkpt lat="43.8014822" lon="12.2656922"><ele>537.0</ele><time>2026-04-26T12:00:51.024Z</time></trkpt><trkpt lat="43.8016149" lon="12.2657792"><ele>537.0</ele><time>2026-04-26T12:00:52.025Z</time></trkpt><trkpt lat="43.8017486" lon="12.2658238"><ele>537.0</ele><time>2026-04-26T12:00:53.025Z</time></trkpt><trkpt lat="43.8018865" lon="12.2658183"><ele>537.0</ele><time>2026-04-26T12:00:54.025Z</time></trkpt><trkpt lat="43.8020401" lon="12.265754"><ele>535.6666666666666</ele><time>2026-04-26T12:00:55.025Z</time></trkpt><trkpt lat="43.8021959" lon="12.2656447"><ele>534.3333333333333</ele><time>2026-04-26T12:00:56.024Z</time></trkpt><trkpt lat="43.8023449" lon="12.2655338"><ele>533.0</ele><time>2026-04-26T12:00:57.025Z</time></trkpt><trkpt lat="43.8024853" lon="12.2654487"><ele>531.25</ele><time>2026-04-26T12:00:58.026Z</time></trkpt><trkpt lat="43.8026185" lon="12.2653978"><ele>529.5</ele><time>2026-04-26T12:00:59.024Z</time></trkpt><trkpt lat="43.8027417" lon="12.2653955"><ele>527.75</ele><time>2026-04-26T12:01:00.025Z</time></trkpt><trkpt lat="43.8028488" lon="12.2654348"><ele>526.0</ele><time>2026-04-26T12:01:01.025Z</time></trkpt><trkpt lat="43.8029408" lon="12.2655269"><ele>526.25</ele><time>2026-04-26T12:01:02.025Z</time></trkpt><trkpt lat="43.8030237" lon="12.2656489"><ele>526.5</ele><time>2026-04-26T12:01:03.025Z</time></trkpt><trkpt lat="43.803094" lon="12.2657963"><ele>526.75</ele><time>2026-04-26T12:01:04.025Z</time></trkpt><trkpt lat="43.8031511" lon="12.2659513"><ele>527.0</ele><time>2026-04-26T12:01:05.025Z</time></trkpt><trkpt lat="43.8031963" lon="12.2660975"><ele>527.0</ele><time>2026-04-26T12:01:06.026Z</time></trkpt><trkpt lat="43.8032312" lon="12.2662369"><ele>527.0</ele><time>2026-04-26T12:01:07.025Z</time></trkpt><trkpt lat="43.8032565" lon="12.2663865"><ele>527.0</ele><time>2026-04-26T12:01:08.025Z</time></trkpt><trkpt lat="43.803276" lon="12.2665598"><ele>527.0</ele><time>2026-04-26T12:01:09.027Z</time></trkpt><trkpt lat="43.8032888" lon="12.2667628"><ele>528.6666666666666</ele><time>2026-04-26T12:01:10.023Z</time></trkpt><trkpt lat="43.8033009" lon="12.2669807"><ele>530.3333333333334</ele><time>2026-04-26T12:01:11.024Z</time></trkpt><trkpt lat="43.8033136" lon="12.2671947"><ele>532.0</ele><time>2026-04-26T12:01:12.023Z</time></trkpt><trkpt lat="43.8033426" lon="12.2673956"><ele>532.3333333333334</ele><time>2026-04-26T12:01:13.022Z</time></trkpt><trkpt lat="43.8034033" lon="12.2675786"><ele>532.6666666666666</ele><time>2026-04-26T12:01:14.029Z</time></trkpt><trkpt lat="43.8035067" lon="12.267744"><ele>533.0</ele><time>2026-04-26T12:01:15.023Z</time></trkpt><trkpt lat="43.8036431" lon="12.2678976"><ele>532.6666666666666</ele><time>2026-04-26T12:01:16.022Z</time></trkpt><trkpt lat="43.8038067" lon="12.2680346"><ele>532.3333333333334</ele><time>2026-04-26T12:01:17.023Z</time></trkpt><trkpt lat="43.8039731" lon="12.2681618"><ele>532.0</ele><time>2026-04-26T12:01:18.023Z</time></trkpt><trkpt lat="43.8041208" lon="12.2682844"><ele>532.0</ele><time>2026-04-26T12:01:19.022Z</time></trkpt><trkpt lat="43.8042421" lon="12.2684082"><ele>532.0</ele><time>2026-04-26T12:01:20.024Z</time></trkpt><trkpt lat="43.8043404" lon="12.2685518"><ele>532.0</ele><time>2026-04-26T12:01:21.026Z</time></trkpt><trkpt lat="43.8044193" lon="12.2687312"><ele>532.0</ele><time>2026-04-26T12:01:22.024Z</time></trkpt><trkpt lat="43.8044756" lon="12.2689388"><ele>528.75</ele><time>2026-04-26T12:01:23.028Z</time></trkpt><trkpt lat="43.8045023" lon="12.2691509"><ele>525.5</ele><time>2026-04-26T12:01:24.026Z</time></trkpt><trkpt lat="43.8045077" lon="12.2693521"><ele>522.25</ele><time>2026-04-26T12:01:25.024Z</time></trkpt><trkpt lat="43.8044991" lon="12.269534"><ele>519.0</ele><time>2026-04-26T12:01:26.025Z</time></trkpt><trkpt lat="43.8045058" lon="12.2696935"><ele>519.4</ele><time>2026-04-26T12:01:27.023Z</time></trkpt><trkpt lat="43.8045414" lon="12.2698208"><ele>519.8</ele><time>2026-04-26T12:01:28.025Z</time></trkpt><trkpt lat="43.8046083" lon="12.2699099"><ele>520.2</ele><time>2026-04-26T12:01:29.023Z</time></trkpt><trkpt lat="43.8046936" lon="12.2699622"><ele>520.6</ele><time>2026-04-26T12:01:30.023Z</time></trkpt><trkpt lat="43.8048071" lon="12.269958"><ele>521.0</ele><time>2026-04-26T12:01:31.026Z</time></trkpt><trkpt lat="43.8049399" lon="12.2699042"><ele>521.0</ele><time>2026-04-26T12:01:32.025Z</time></trkpt><trkpt lat="43.8050778" lon="12.2698376"><ele>521.0</ele><time>2026-04-26T12:01:33.025Z</time></trkpt><trkpt lat="43.8052107" lon="12.2697917"><ele>521.0</ele><time>2026-04-26T12:01:34.024Z</time></trkpt><trkpt lat="43.8053415" lon="12.2697789"><ele>521.0</ele><time>2026-04-26T12:01:35.022Z</time></trkpt><trkpt lat="43.8054773" lon="12.2698042"><ele>518.6666666666666</ele><time>2026-04-26T12:01:36.026Z</time></trkpt><trkpt lat="43.8056158" lon="12.2698692"><ele>516.3333333333334</ele><time>2026-04-26T12:01:37.022Z</time></trkpt><trkpt lat="43.8057553" lon="12.2699687"><ele>514.0</ele><time>2026-04-26T12:01:38.023Z</time></trkpt><trkpt lat="43.8058991" lon="12.2700794"><ele>510.6666666666667</ele><time>2026-04-26T12:01:39.024Z</time></trkpt><trkpt lat="43.8060459" lon="12.2701851"><ele>507.33333333333337</ele><time>2026-04-26T12:01:40.025Z</time></trkpt><trkpt lat="43.8061867" lon="12.2702883"><ele>504.0</ele><time>2026-04-26T12:01:41.023Z</time></trkpt><trkpt lat="43.8063083" lon="12.2703967"><ele>504.0</ele><time>2026-04-26T12:01:42.023Z</time></trkpt><trkpt lat="43.8064217" lon="12.27052"><ele>504.0</ele><time>2026-04-26T12:01:43.024Z</time></trkpt><trkpt lat="43.8065133" lon="12.2706617"><ele>504.0</ele><time>2026-04-26T12:01:44.027Z</time></trkpt><trkpt lat="43.8065983" lon="12.2708"><ele>504.0</ele><time>2026-04-26T12:01:45.026Z</time></trkpt><trkpt lat="43.8066917" lon="12.270915"><ele>503.75</ele><time>2026-04-26T12:01:46.026Z</time></trkpt><trkpt lat="43.8068" lon="12.2709967"><ele>503.5</ele><time>2026-04-26T12:01:47.023Z</time></trkpt><trkpt lat="43.8069183" lon="12.2710567"><ele>503.25</ele><time>2026-04-26T12:01:48.024Z</time></trkpt><trkpt lat="43.8070567" lon="12.2710517"><ele>503.0</ele><time>2026-04-26T12:01:49.022Z</time></trkpt><trkpt lat="43.8072" lon="12.2709833"><ele>501.0</ele><time>2026-04-26T12:01:50.025Z</time></trkpt><trkpt lat="43.8073467" lon="12.2708667"><ele>499.0</ele><time>2026-04-26T12:01:51.026Z</time></trkpt><trkpt lat="43.8074933" lon="12.27071"><ele>497.0</ele><time>2026-04-26T12:01:52.023Z</time></trkpt><trkpt lat="43.8076583" lon="12.2705417"><ele>495.0</ele><time>2026-04-26T12:01:53.021Z</time></trkpt><trkpt lat="43.8078267" lon="12.2703667"><ele>493.0</ele><time>2026-04-26T12:01:54.022Z</time></trkpt><trkpt lat="43.8079983" lon="12.2701933"><ele>491.0</ele><time>2026-04-26T12:01:55.022Z</time></trkpt><trkpt lat="43.8081667" lon="12.2700067"><ele>491.0</ele><time>2026-04-26T12:01:56.025Z</time></trkpt><trkpt lat="43.80834" lon="12.2698417"><ele>491.0</ele><time>2026-04-26T12:01:57.025Z</time></trkpt><trkpt lat="43.8085033" lon="12.2696733"><ele>491.0</ele><time>2026-04-26T12:01:58.022Z</time></trkpt><trkpt lat="43.80866" lon="12.2695267"><ele>489.66666666666663</ele><time>2026-04-26T12:01:59.023Z</time></trkpt><trkpt lat="43.8088183" lon="12.2694"><ele>488.33333333333337</ele><time>2026-04-26T12:02:00.023Z</time></trkpt><trkpt lat="43.8089783" lon="12.2693017"><ele>487.0</ele><time>2026-04-26T12:02:01.028Z</time></trkpt><trkpt lat="43.8091417" lon="12.26925"><ele>487.0</ele><time>2026-04-26T12:02:02.024Z</time></trkpt><trkpt lat="43.8093017" lon="12.26922"><ele>487.0</ele><time>2026-04-26T12:02:03.023Z</time></trkpt><trkpt lat="43.80947" lon="12.2692033"><ele>487.0</ele><time>2026-04-26T12:02:04.025Z</time></trkpt><trkpt lat="43.809635" lon="12.269185"><ele>487.5</ele><time>2026-04-26T12:02:05.023Z</time></trkpt><trkpt lat="43.8097867" lon="12.2691667"><ele>488.0</ele><time>2026-04-26T12:02:06.023Z</time></trkpt><trkpt lat="43.809925" lon="12.269145"><ele>488.5</ele><time>2026-04-26T12:02:07.023Z</time></trkpt><trkpt lat="43.8100667" lon="12.2691033"><ele>489.0</ele><time>2026-04-26T12:02:08.023Z</time></trkpt><trkpt lat="43.8101967" lon="12.2690917"><ele>489.6</ele><time>2026-04-26T12:02:09.025Z</time></trkpt><trkpt lat="43.8103183" lon="12.26908"><ele>490.2</ele><time>2026-04-26T12:02:10.028Z</time></trkpt><trkpt lat="43.8104233" lon="12.26906"><ele>490.80000000000007</ele><time>2026-04-26T12:02:11.025Z</time></trkpt><trkpt lat="43.8105083" lon="12.26903"><ele>491.40000000000003</ele><time>2026-04-26T12:02:12.027Z</time></trkpt><trkpt lat="43.8106067" lon="12.2690617"><ele>492.0</ele><time>2026-04-26T12:02:14.024Z</time></trkpt><trkpt lat="43.8106417" lon="12.2691433"><ele>492.0</ele><time>2026-04-26T12:02:16.025Z</time></trkpt><trkpt lat="43.8106733" lon="12.2692683"><ele>492.00000000000006</ele><time>2026-04-26T12:02:18.025Z</time></trkpt><trkpt lat="43.8107217" lon="12.2694033"><ele>492.00000000000006</ele><time>2026-04-26T12:02:20.024Z</time></trkpt><trkpt lat="43.8107717" lon="12.2695467"><ele>492.0</ele><time>2026-04-26T12:02:22.026Z</time></trkpt><trkpt lat="43.8108" lon="12.2696933"><ele>492.0</ele><time>2026-04-26T12:02:24.024Z</time></trkpt><trkpt lat="43.8108083" lon="12.2698417"><ele>494.40000000000003</ele><time>2026-04-26T12:02:26.024Z</time></trkpt><trkpt lat="43.81082" lon="12.26999"><ele>496.80000000000007</ele><time>2026-04-26T12:02:28.025Z</time></trkpt><trkpt lat="43.8108233" lon="12.27013"><ele>499.2</ele><time>2026-04-26T12:02:30.024Z</time></trkpt><trkpt lat="43.81082" lon="12.27027"><ele>501.6</ele><time>2026-04-26T12:02:32.026Z</time></trkpt><trkpt lat="43.8108217" lon="12.270415"><ele>504.0</ele><time>2026-04-26T12:02:34.025Z</time></trkpt><trkpt lat="43.8108433" lon="12.270535"><ele>505.79999999999995</ele><time>2026-04-26T12:02:36.025Z</time></trkpt><trkpt lat="43.81089" lon="12.2706383"><ele>507.59999999999997</ele><time>2026-04-26T12:02:38.028Z</time></trkpt><trkpt lat="43.8109433" lon="12.2707683"><ele>509.4</ele><time>2026-04-26T12:02:40.025Z</time></trkpt><trkpt lat="43.8110067" lon="12.2708917"><ele>511.2</ele><time>2026-04-26T12:02:42.027Z</time></trkpt><trkpt lat="43.8110833" lon="12.271025"><ele>513.0</ele><time>2026-04-26T12:02:44.025Z</time></trkpt><trkpt lat="43.811125" lon="12.2711017"><ele>514.0</ele><time>2026-04-26T12:02:45.025Z</time></trkpt><trkpt lat="43.8111683" lon="12.2711817"><ele>515.0</ele><time>2026-04-26T12:02:46.024Z</time></trkpt><trkpt lat="43.8112083" lon="12.2712567"><ele>516.0</ele><time>2026-04-26T12:02:47.024Z</time></trkpt><trkpt lat="43.8112858" lon="12.2713904"><ele>517.0</ele><time>2026-04-26T12:02:49.026Z</time></trkpt><trkpt lat="43.8113654" lon="12.2714895"><ele>518.0</ele><time>2026-04-26T12:02:51.027Z</time></trkpt><trkpt lat="43.811455" lon="12.271564"><ele>520.0</ele><time>2026-04-26T12:02:53.026Z</time></trkpt><trkpt lat="43.8115555" lon="12.2716684"><ele>522.0</ele><time>2026-04-26T12:02:55.025Z</time></trkpt><trkpt lat="43.8116009" lon="12.2717366"><ele>524.0</ele><time>2026-04-26T12:02:56.023Z</time></trkpt><trkpt lat="43.8116428" lon="12.2718043"><ele>526.0</ele><time>2026-04-26T12:02:57.024Z</time></trkpt><trkpt lat="43.8116871" lon="12.2718756"><ele>528.0</ele><time>2026-04-26T12:02:58.024Z</time></trkpt><trkpt lat="43.8117382" lon="12.2719506"><ele>530.0</ele><time>2026-04-26T12:02:59.024Z</time></trkpt><trkpt lat="43.8117932" lon="12.2720239"><ele>529.5</ele><time>2026-04-26T12:03:00.022Z</time></trkpt><trkpt lat="43.8118419" lon="12.2720986"><ele>529.0</ele><time>2026-04-26T12:03:01.024Z</time></trkpt><trkpt lat="43.8118866" lon="12.2721781"><ele>528.5</ele><time>2026-04-26T12:03:02.023Z</time></trkpt><trkpt lat="43.8119311" lon="12.2722652"><ele>528.0</ele><time>2026-04-26T12:03:03.023Z</time></trkpt><trkpt lat="43.8119744" lon="12.2723572"><ele>527.5</ele><time>2026-04-26T12:03:04.024Z</time></trkpt><trkpt lat="43.812016" lon="12.2724509"><ele>527.0</ele><time>2026-04-26T12:03:05.023Z</time></trkpt><trkpt lat="43.8120607" lon="12.2725492"><ele>529.0</ele><time>2026-04-26T12:03:06.023Z</time></trkpt><trkpt lat="43.8121062" lon="12.272644"><ele>531.0</ele><time>2026-04-26T12:03:07.023Z</time></trkpt><trkpt lat="43.8121542" lon="12.2727358"><ele>533.0</ele><time>2026-04-26T12:03:08.022Z</time></trkpt><trkpt lat="43.8122006" lon="12.2728248"><ele>535.0</ele><time>2026-04-26T12:03:09.027Z</time></trkpt><trkpt lat="43.8122461" lon="12.2729141"><ele>537.0</ele><time>2026-04-26T12:03:10.033Z</time></trkpt><trkpt lat="43.8122936" lon="12.2730077"><ele>539.0</ele><time>2026-04-26T12:03:11.023Z</time></trkpt><trkpt lat="43.8123446" lon="12.2731071"><ele>540.8333333333333</ele><time>2026-04-26T12:03:12.025Z</time></trkpt><trkpt lat="43.8123911" lon="12.2732054"><ele>542.6666666666666</ele><time>2026-04-26T12:03:13.025Z</time></trkpt><trkpt lat="43.8124293" lon="12.2732948"><ele>544.5</ele><time>2026-04-26T12:03:14.024Z</time></trkpt><trkpt lat="43.8124725" lon="12.2734072"><ele>546.3333333333334</ele><time>2026-04-26T12:03:16.023Z</time></trkpt><trkpt lat="43.8125142" lon="12.2734886"><ele>548.1666666666667</ele><time>2026-04-26T12:03:32.025Z</time></trkpt><trkpt lat="43.8125469" lon="12.2735979"><ele>550.0</ele><time>2026-04-26T12:03:34.024Z</time></trkpt><trkpt lat="43.8125808" lon="12.2737115"><ele>550.0</ele><time>2026-04-26T12:03:36.026Z</time></trkpt><trkpt lat="43.8126103" lon="12.2738637"><ele>550.0</ele><time>2026-04-26T12:03:38.023Z</time></trkpt><trkpt lat="43.8126486" lon="12.2740201"><ele>550.0</ele><time>2026-04-26T12:03:40.023Z</time></trkpt><trkpt lat="43.8126987" lon="12.2741724"><ele>550.0</ele><time>2026-04-26T12:03:42.023Z</time></trkpt><trkpt lat="43.8127652" lon="12.2743089"><ele>551.1666666666667</ele><time>2026-04-26T12:03:44.023Z</time></trkpt><trkpt lat="43.8127929" lon="12.2743923"><ele>552.3333333333334</ele><time>2026-04-26T12:03:45.022Z</time></trkpt><trkpt lat="43.8128503" lon="12.2745451"><ele>553.5</ele><time>2026-04-26T12:03:47.023Z</time></trkpt><trkpt lat="43.8129121" lon="12.2746865"><ele>554.6666666666666</ele><time>2026-04-26T12:03:49.028Z</time></trkpt><trkpt lat="43.8129433" lon="12.274771"><ele>555.8333333333333</ele><time>2026-04-26T12:03:50.023Z</time></trkpt><trkpt lat="43.812972" lon="12.2748584"><ele>557.0</ele><time>2026-04-26T12:03:51.024Z</time></trkpt><trkpt lat="43.812996" lon="12.2749422"><ele>558.8333333333333</ele><time>2026-04-26T12:03:52.024Z</time></trkpt><trkpt lat="43.8130153" lon="12.2750272"><ele>560.6666666666666</ele><time>2026-04-26T12:03:53.023Z</time></trkpt><trkpt lat="43.8130293" lon="12.2751168"><ele>562.5</ele><time>2026-04-26T12:03:54.026Z</time></trkpt><trkpt lat="43.8130507" lon="12.2751994"><ele>564.3333333333334</ele><time>2026-04-26T12:03:55.023Z</time></trkpt><trkpt lat="43.8130937" lon="12.275359"><ele>566.1666666666667</ele><time>2026-04-26T12:03:57.024Z</time></trkpt><trkpt lat="43.8131508" lon="12.2755075"><ele>568.0</ele><time>2026-04-26T12:03:59.023Z</time></trkpt><trkpt lat="43.8132012" lon="12.275658"><ele>569.8333333333334</ele><time>2026-04-26T12:04:01.023Z</time></trkpt><trkpt lat="43.8132539" lon="12.2757991"><ele>571.6666666666667</ele><time>2026-04-26T12:04:03.025Z</time></trkpt><trkpt lat="43.8133265" lon="12.275901"><ele>573.5</ele><time>2026-04-26T12:04:05.022Z</time></trkpt><trkpt lat="43.8133844" lon="12.2759408"><ele>575.3333333333334</ele><time>2026-04-26T12:04:06.027Z</time></trkpt><trkpt lat="43.8134481" lon="12.2759682"><ele>577.1666666666666</ele><time>2026-04-26T12:04:07.024Z</time></trkpt><trkpt lat="43.8135129" lon="12.2759838"><ele>579.0</ele><time>2026-04-26T12:04:08.024Z</time></trkpt><trkpt lat="43.8135801" lon="12.2759877"><ele>580.6666666666666</ele><time>2026-04-26T12:04:09.024Z</time></trkpt><trkpt lat="43.8136478" lon="12.2759892"><ele>582.3333333333334</ele><time>2026-04-26T12:04:10.026Z</time></trkpt><trkpt lat="43.8137182" lon="12.2759884"><ele>584.0</ele><time>2026-04-26T12:04:11.024Z</time></trkpt><trkpt lat="43.8137945" lon="12.275985"><ele>585.6666666666667</ele><time>2026-04-26T12:04:12.024Z</time></trkpt><trkpt lat="43.8138828" lon="12.2759852"><ele>587.3333333333334</ele><time>2026-04-26T12:04:13.025Z</time></trkpt><trkpt lat="43.8139789" lon="12.2759923"><ele>589.0</ele><time>2026-04-26T12:04:14.024Z</time></trkpt><trkpt lat="43.8140818" lon="12.2760082"><ele>589.0</ele><time>2026-04-26T12:04:15.026Z</time></trkpt><trkpt lat="43.8141754" lon="12.2760241"><ele>589.0</ele><time>2026-04-26T12:04:16.025Z</time></trkpt><trkpt lat="43.8142596" lon="12.2760361"><ele>589.0</ele><time>2026-04-26T12:04:17.024Z</time></trkpt><trkpt lat="43.8143379" lon="12.2760436"><ele>589.0</ele><time>2026-04-26T12:04:18.024Z</time></trkpt><trkpt lat="43.8144131" lon="12.2760483"><ele>589.0</ele><time>2026-04-26T12:04:19.024Z</time></trkpt><trkpt lat="43.8144873" lon="12.276052"><ele>589.0</ele><time>2026-04-26T12:04:20.028Z</time></trkpt><trkpt lat="43.8145605" lon="12.276054"><ele>590.1666666666667</ele><time>2026-04-26T12:04:21.026Z</time></trkpt><trkpt lat="43.814628" lon="12.2760551"><ele>591.3333333333334</ele><time>2026-04-26T12:04:22.024Z</time></trkpt><trkpt lat="43.8146931" lon="12.2760589"><ele>592.5</ele><time>2026-04-26T12:04:23.023Z</time></trkpt><trkpt lat="43.8147672" lon="12.2760702"><ele>593.6666666666666</ele><time>2026-04-26T12:04:24.024Z</time></trkpt><trkpt lat="43.8148457" lon="12.27609"><ele>594.8333333333333</ele><time>2026-04-26T12:04:25.023Z</time></trkpt><trkpt lat="43.8149288" lon="12.2761122"><ele>596.0</ele><time>2026-04-26T12:04:26.024Z</time></trkpt><trkpt lat="43.8150168" lon="12.2761389"><ele>596.0</ele><time>2026-04-26T12:04:27.026Z</time></trkpt><trkpt lat="43.8151079" lon="12.2761688"><ele>596.0</ele><time>2026-04-26T12:04:28.024Z</time></trkpt><trkpt lat="43.8152046" lon="12.276203"><ele>596.0</ele><time>2026-04-26T12:04:29.023Z</time></trkpt><trkpt lat="43.8152991" lon="12.2762515"><ele>596.0</ele><time>2026-04-26T12:04:30.023Z</time></trkpt><trkpt lat="43.8153865" lon="12.2763097"><ele>596.0</ele><time>2026-04-26T12:04:31.022Z</time></trkpt><trkpt lat="43.8154638" lon="12.2763763"><ele>599.2</ele><time>2026-04-26T12:04:32.024Z</time></trkpt><trkpt lat="43.8155355" lon="12.27646"><ele>602.4000000000001</ele><time>2026-04-26T12:04:33.024Z</time></trkpt><trkpt lat="43.815603" lon="12.2765545"><ele>605.6</ele><time>2026-04-26T12:04:34.026Z</time></trkpt><trkpt lat="43.815665" lon="12.2766594"><ele>608.8000000000001</ele><time>2026-04-26T12:04:35.023Z</time></trkpt><trkpt lat="43.8157257" lon="12.2767694"><ele>612.0</ele><time>2026-04-26T12:04:36.025Z</time></trkpt><trkpt lat="43.8157829" lon="12.2768817"><ele>612.0</ele><time>2026-04-26T12:04:37.024Z</time></trkpt><trkpt lat="43.8158402" lon="12.2769899"><ele>612.0</ele><time>2026-04-26T12:04:38.025Z</time></trkpt><trkpt lat="43.8158958" lon="12.2770919"><ele>612.0</ele><time>2026-04-26T12:04:39.026Z</time></trkpt><trkpt lat="43.8159466" lon="12.277186"><ele>612.0</ele><time>2026-04-26T12:04:40.026Z</time></trkpt><trkpt lat="43.8159885" lon="12.2772643"><ele>612.0</ele><time>2026-04-26T12:04:41.025Z</time></trkpt><trkpt lat="43.8160357" lon="12.2773728"><ele>612.0</ele><time>2026-04-26T12:04:43.022Z</time></trkpt><trkpt lat="43.8159885" lon="12.2774966"><ele>612.8571428571429</ele><time>2026-04-26T12:04:46.024Z</time></trkpt><trkpt lat="43.8159271" lon="12.2775366"><ele>613.7142857142858</ele><time>2026-04-26T12:04:47.023Z</time></trkpt><trkpt lat="43.8158505" lon="12.2775834"><ele>614.5714285714287</ele><time>2026-04-26T12:04:48.024Z</time></trkpt><trkpt lat="43.815779" lon="12.2776345"><ele>615.4285714285714</ele><time>2026-04-26T12:04:49.024Z</time></trkpt><trkpt lat="43.8157143" lon="12.2776902"><ele>616.2857142857143</ele><time>2026-04-26T12:04:50.029Z</time></trkpt><trkpt lat="43.8156563" lon="12.2777421"><ele>617.1428571428572</ele><time>2026-04-26T12:04:51.024Z</time></trkpt><trkpt lat="43.815604" lon="12.2778019"><ele>618.0</ele><time>2026-04-26T12:04:52.023Z</time></trkpt><trkpt lat="43.8155571" lon="12.2778731"><ele>618.0</ele><time>2026-04-26T12:04:53.021Z</time></trkpt><trkpt lat="43.8155125" lon="12.2779429"><ele>618.0</ele><time>2026-04-26T12:04:54.024Z</time></trkpt><trkpt lat="43.8154423" lon="12.2780695"><ele>618.0</ele><time>2026-04-26T12:04:56.022Z</time></trkpt><trkpt lat="43.8153578" lon="12.2781842"><ele>618.0</ele><time>2026-04-26T12:04:58.023Z</time></trkpt><trkpt lat="43.8153056" lon="12.2782544"><ele>618.0</ele><time>2026-04-26T12:04:59.023Z</time></trkpt><trkpt lat="43.8152425" lon="12.2783065"><ele>618.0</ele><time>2026-04-26T12:05:00.022Z</time></trkpt><trkpt lat="43.8151721" lon="12.2783317"><ele>618.3333333333334</ele><time>2026-04-26T12:05:01.023Z</time></trkpt><trkpt lat="43.8151098" lon="12.2783557"><ele>618.6666666666666</ele><time>2026-04-26T12:05:02.023Z</time></trkpt><trkpt lat="43.8150094" lon="12.2784472"><ele>619.0</ele><time>2026-04-26T12:05:04.024Z</time></trkpt><trkpt lat="43.8149122" lon="12.2784404"><ele>619.3333333333333</ele><time>2026-04-26T12:05:06.025Z</time></trkpt><trkpt lat="43.814846" lon="12.2784203"><ele>619.6666666666666</ele><time>2026-04-26T12:05:08.022Z</time></trkpt><trkpt lat="43.8149414" lon="12.2784307"><ele>620.0</ele><time>2026-04-26T12:05:12.023Z</time></trkpt><trkpt lat="43.8150495" lon="12.2783512"><ele>619.3333333333333</ele><time>2026-04-26T12:05:13.026Z</time></trkpt><trkpt lat="43.8151748" lon="12.2782615"><ele>618.6666666666666</ele><time>2026-04-26T12:05:14.024Z</time></trkpt><trkpt lat="43.8153074" lon="12.278165"><ele>618.0</ele><time>2026-04-26T12:05:15.024Z</time></trkpt><trkpt lat="43.8154503" lon="12.2780318"><ele>618.0</ele><time>2026-04-26T12:05:16.022Z</time></trkpt><trkpt lat="43.8155783" lon="12.2778654"><ele>618.0</ele><time>2026-04-26T12:05:17.021Z</time></trkpt><trkpt lat="43.8156906" lon="12.2777147"><ele>618.0</ele><time>2026-04-26T12:05:18.031Z</time></trkpt><trkpt lat="43.8157987" lon="12.2775957"><ele>618.0</ele><time>2026-04-26T12:05:19.024Z</time></trkpt><trkpt lat="43.8159094" lon="12.2774933"><ele>618.0</ele><time>2026-04-26T12:05:20.023Z</time></trkpt><trkpt lat="43.8160381" lon="12.2774148"><ele>618.0</ele><time>2026-04-26T12:05:21.023Z</time></trkpt><trkpt lat="43.8161627" lon="12.2773388"><ele>618.0</ele><time>2026-04-26T12:05:22.022Z</time></trkpt><trkpt lat="43.8162783" lon="12.2772675"><ele>617.4</ele><time>2026-04-26T12:05:23.024Z</time></trkpt><trkpt lat="43.8163824" lon="12.2772022"><ele>616.8</ele><time>2026-04-26T12:05:24.029Z</time></trkpt><trkpt lat="43.8164752" lon="12.2771568"><ele>616.2</ele><time>2026-04-26T12:05:25.024Z</time></trkpt><trkpt lat="43.816552" lon="12.2771202"><ele>615.6</ele><time>2026-04-26T12:05:26.025Z</time></trkpt><trkpt lat="43.8166379" lon="12.2771074"><ele>615.0</ele><time>2026-04-26T12:05:28.024Z</time></trkpt><trkpt lat="43.816626" lon="12.2772369"><ele>616.2</ele><time>2026-04-26T12:05:31.022Z</time></trkpt><trkpt lat="43.8165666" lon="12.2773732"><ele>617.4</ele><time>2026-04-26T12:05:33.024Z</time></trkpt><trkpt lat="43.8165081" lon="12.2774618"><ele>618.6</ele><time>2026-04-26T12:05:34.023Z</time></trkpt><trkpt lat="43.8164441" lon="12.2775667"><ele>619.8</ele><time>2026-04-26T12:05:35.024Z</time></trkpt><trkpt lat="43.8163828" lon="12.2776618"><ele>621.0</ele><time>2026-04-26T12:05:36.023Z</time></trkpt><trkpt lat="43.8163214" lon="12.2777481"><ele>621.0</ele><time>2026-04-26T12:05:37.025Z</time></trkpt><trkpt lat="43.8162653" lon="12.277842"><ele>621.0</ele><time>2026-04-26T12:05:38.024Z</time></trkpt><trkpt lat="43.8162092" lon="12.2779393"><ele>621.0</ele><time>2026-04-26T12:05:39.024Z</time></trkpt><trkpt lat="43.8161464" lon="12.2780418"><ele>621.0</ele><time>2026-04-26T12:05:40.026Z</time></trkpt><trkpt lat="43.816079" lon="12.2781422"><ele>621.0</ele><time>2026-04-26T12:05:41.022Z</time></trkpt><trkpt lat="43.8160143" lon="12.2782445"><ele>622.6</ele><time>2026-04-26T12:05:42.023Z</time></trkpt><trkpt lat="43.8159555" lon="12.2783518"><ele>624.2</ele><time>2026-04-26T12:05:43.022Z</time></trkpt><trkpt lat="43.8159031" lon="12.2784615"><ele>625.8</ele><time>2026-04-26T12:05:44.023Z</time></trkpt><trkpt lat="43.8158417" lon="12.27857"><ele>627.4</ele><time>2026-04-26T12:05:45.023Z</time></trkpt><trkpt lat="43.8157747" lon="12.2786726"><ele>629.0</ele><time>2026-04-26T12:05:46.025Z</time></trkpt><trkpt lat="43.815687" lon="12.2787574"><ele>629.0</ele><time>2026-04-26T12:05:47.024Z</time></trkpt><trkpt lat="43.8155856" lon="12.2788221"><ele>629.0</ele><time>2026-04-26T12:05:48.023Z</time></trkpt><trkpt lat="43.8154803" lon="12.2788672"><ele>629.0</ele><time>2026-04-26T12:05:49.023Z</time></trkpt><trkpt lat="43.8153824" lon="12.2789061"><ele>629.0</ele><time>2026-04-26T12:05:50.024Z</time></trkpt><trkpt lat="43.8152939" lon="12.2789534"><ele>629.0</ele><time>2026-04-26T12:05:51.026Z</time></trkpt><trkpt lat="43.815224" lon="12.2790265"><ele>631.4</ele><time>2026-04-26T12:05:52.023Z</time></trkpt><trkpt lat="43.8151862" lon="12.2791252"><ele>633.8</ele><time>2026-04-26T12:05:53.023Z</time></trkpt><trkpt lat="43.8151768" lon="12.279234"><ele>636.1999999999999</ele><time>2026-04-26T12:05:54.024Z</time></trkpt><trkpt lat="43.8152055" lon="12.2793372"><ele>638.5999999999999</ele><time>2026-04-26T12:05:55.024Z</time></trkpt><trkpt lat="43.8153119" lon="12.2793976"><ele>641.0</ele><time>2026-04-26T12:05:56.024Z</time></trkpt><trkpt lat="43.8154414" lon="12.2794309"><ele>641.0</ele><time>2026-04-26T12:05:57.023Z</time></trkpt><trkpt lat="43.8155637" lon="12.2794688"><ele>641.0</ele><time>2026-04-26T12:05:58.022Z</time></trkpt><trkpt lat="43.8156776" lon="12.2795009"><ele>641.0</ele><time>2026-04-26T12:05:59.023Z</time></trkpt><trkpt lat="43.8157899" lon="12.2795171"><ele>641.0</ele><time>2026-04-26T12:06:00.023Z</time></trkpt><trkpt lat="43.8158987" lon="12.2794874"><ele>639.5999999999999</ele><time>2026-04-26T12:06:01.029Z</time></trkpt><trkpt lat="43.8159948" lon="12.2794366"><ele>638.1999999999999</ele><time>2026-04-26T12:06:02.022Z</time></trkpt><trkpt lat="43.8160776" lon="12.2794283"><ele>636.8</ele><time>2026-04-26T12:06:03.022Z</time></trkpt><trkpt lat="43.8161512" lon="12.279467"><ele>635.4</ele><time>2026-04-26T12:06:04.023Z</time></trkpt><trkpt lat="43.816191" lon="12.2795754"><ele>634.0</ele><time>2026-04-26T12:06:05.023Z</time></trkpt><trkpt lat="43.8161905" lon="12.2797496"><ele>635.25</ele><time>2026-04-26T12:06:06.025Z</time></trkpt><trkpt lat="43.816161" lon="12.2799459"><ele>636.5</ele><time>2026-04-26T12:06:07.023Z</time></trkpt><trkpt lat="43.8161222" lon="12.2801338"><ele>637.75</ele><time>2026-04-26T12:06:08.024Z</time></trkpt><trkpt lat="43.8160567" lon="12.2802821"><ele>639.0</ele><time>2026-04-26T12:06:09.025Z</time></trkpt><trkpt lat="43.8159981" lon="12.2804"><ele>641.6</ele><time>2026-04-26T12:06:10.024Z</time></trkpt><trkpt lat="43.8159315" lon="12.2804771"><ele>644.2</ele><time>2026-04-26T12:06:11.023Z</time></trkpt><trkpt lat="43.8158452" lon="12.2805049"><ele>646.8000000000001</ele><time>2026-04-26T12:06:12.024Z</time></trkpt><trkpt lat="43.8157464" lon="12.2804791"><ele>649.4</ele><time>2026-04-26T12:06:13.026Z</time></trkpt><trkpt lat="43.8156342" lon="12.2804345"><ele>652.0</ele><time>2026-04-26T12:06:14.024Z</time></trkpt><trkpt lat="43.8155065" lon="12.2804133"><ele>652.0</ele><time>2026-04-26T12:06:15.024Z</time></trkpt><trkpt lat="43.8153844" lon="12.280408"><ele>652.0</ele><time>2026-04-26T12:06:16.023Z</time></trkpt><trkpt lat="43.8152817" lon="12.2804582"><ele>652.0</ele><time>2026-04-26T12:06:17.022Z</time></trkpt><trkpt lat="43.8152039" lon="12.2805591"><ele>652.0</ele><time>2026-04-26T12:06:18.023Z</time></trkpt><trkpt lat="43.8151348" lon="12.2806961"><ele>655.75</ele><time>2026-04-26T12:06:19.028Z</time></trkpt><trkpt lat="43.8150998" lon="12.2808744"><ele>659.5</ele><time>2026-04-26T12:06:20.023Z</time></trkpt><trkpt lat="43.8151035" lon="12.2810793"><ele>663.25</ele><time>2026-04-26T12:06:21.025Z</time></trkpt><trkpt lat="43.8151165" lon="12.2812707"><ele>667.0</ele><time>2026-04-26T12:06:22.022Z</time></trkpt><trkpt lat="43.8151272" lon="12.2814386"><ele>667.0</ele><time>2026-04-26T12:06:23.023Z</time></trkpt><trkpt lat="43.8151207" lon="12.2815769"><ele>667.0</ele><time>2026-04-26T12:06:24.024Z</time></trkpt><trkpt lat="43.8150919" lon="12.2816722"><ele>667.0</ele><time>2026-04-26T12:06:25.023Z</time></trkpt><trkpt lat="43.8150058" lon="12.2817073"><ele>667.0</ele><time>2026-04-26T12:06:27.025Z</time></trkpt><trkpt lat="43.8149316" lon="12.2815459"><ele>667.0</ele><time>2026-04-26T12:06:29.023Z</time></trkpt><trkpt lat="43.8149103" lon="12.2814015"><ele>667.0</ele><time>2026-04-26T12:06:30.026Z</time></trkpt><trkpt lat="43.8148808" lon="12.2812595"><ele>667.0</ele><time>2026-04-26T12:06:31.024Z</time></trkpt><trkpt lat="43.8148386" lon="12.281138"><ele>667.0</ele><time>2026-04-26T12:06:32.024Z</time></trkpt><trkpt lat="43.8147761" lon="12.2810527"><ele>667.0</ele><time>2026-04-26T12:06:33.024Z</time></trkpt><trkpt lat="43.8146971" lon="12.2810007"><ele>667.0</ele><time>2026-04-26T12:06:34.023Z</time></trkpt><trkpt lat="43.8146067" lon="12.280985"><ele>667.0</ele><time>2026-04-26T12:06:35.023Z</time></trkpt><trkpt lat="43.8144847" lon="12.2810462"><ele>667.0</ele><time>2026-04-26T12:06:36.024Z</time></trkpt><trkpt lat="43.8143483" lon="12.2811222"><ele>667.0</ele><time>2026-04-26T12:06:37.022Z</time></trkpt><trkpt lat="43.8142039" lon="12.2811902"><ele>667.0</ele><time>2026-04-26T12:06:38.022Z</time></trkpt><trkpt lat="43.8140451" lon="12.2812643"><ele>668.0</ele><time>2026-04-26T12:06:39.024Z</time></trkpt><trkpt lat="43.8138812" lon="12.2813383"><ele>669.0</ele><time>2026-04-26T12:06:40.022Z</time></trkpt><trkpt lat="43.8137113" lon="12.2814145"><ele>670.0</ele><time>2026-04-26T12:06:41.024Z</time></trkpt><trkpt lat="43.8135415" lon="12.2814836"><ele>677.0</ele><time>2026-04-26T12:06:42.023Z</time></trkpt><trkpt lat="43.8133801" lon="12.2815371"><ele>684.0</ele><time>2026-04-26T12:06:43.023Z</time></trkpt><trkpt lat="43.8132337" lon="12.2815712"><ele>691.0</ele><time>2026-04-26T12:06:44.023Z</time></trkpt><trkpt lat="43.8131047" lon="12.2816042"><ele>698.0</ele><time>2026-04-26T12:06:45.025Z</time></trkpt><trkpt lat="43.8129823" lon="12.2816559"><ele>698.0</ele><time>2026-04-26T12:06:46.025Z</time></trkpt><trkpt lat="43.812874" lon="12.2817761"><ele>698.0</ele><time>2026-04-26T12:06:47.024Z</time></trkpt><trkpt lat="43.8127689" lon="12.281928"><ele>698.0</ele><time>2026-04-26T12:06:48.026Z</time></trkpt><trkpt lat="43.8126501" lon="12.2820679"><ele>698.0</ele><time>2026-04-26T12:06:49.024Z</time></trkpt><trkpt lat="43.81251" lon="12.2821535"><ele>694.25</ele><time>2026-04-26T12:06:50.024Z</time></trkpt><trkpt lat="43.8123716" lon="12.2822356"><ele>690.5</ele><time>2026-04-26T12:06:51.025Z</time></trkpt><trkpt lat="43.8122372" lon="12.2823102"><ele>686.75</ele><time>2026-04-26T12:06:52.022Z</time></trkpt><trkpt lat="43.81212" lon="12.2823925"><ele>683.0</ele><time>2026-04-26T12:06:53.025Z</time></trkpt><trkpt lat="43.8120193" lon="12.2824874"><ele>688.75</ele><time>2026-04-26T12:06:54.024Z</time></trkpt><trkpt lat="43.8119347" lon="12.2826021"><ele>694.5</ele><time>2026-04-26T12:06:55.023Z</time></trkpt><trkpt lat="43.811871" lon="12.2827609"><ele>700.25</ele><time>2026-04-26T12:06:56.023Z</time></trkpt><trkpt lat="43.8118356" lon="12.2829515"><ele>706.0</ele><time>2026-04-26T12:06:57.025Z</time></trkpt><trkpt lat="43.8118002" lon="12.2831467"><ele>706.0</ele><time>2026-04-26T12:06:58.023Z</time></trkpt><trkpt lat="43.8117469" lon="12.2833346"><ele>706.0</ele><time>2026-04-26T12:06:59.023Z</time></trkpt><trkpt lat="43.8116743" lon="12.2835116"><ele>706.0</ele><time>2026-04-26T12:07:00.023Z</time></trkpt><trkpt lat="43.8115878" lon="12.2836793"><ele>706.0</ele><time>2026-04-26T12:07:01.022Z</time></trkpt><trkpt lat="43.8115013" lon="12.2838439"><ele>709.5</ele><time>2026-04-26T12:07:02.023Z</time></trkpt><trkpt lat="43.8114133" lon="12.2840066"><ele>713.0</ele><time>2026-04-26T12:07:03.024Z</time></trkpt><trkpt lat="43.8113123" lon="12.2841581"><ele>716.5</ele><time>2026-04-26T12:07:04.023Z</time></trkpt><trkpt lat="43.8112019" lon="12.2843005"><ele>720.0</ele><time>2026-04-26T12:07:05.024Z</time></trkpt><trkpt lat="43.8110801" lon="12.284439"><ele>723.3333333333334</ele><time>2026-04-26T12:07:06.023Z</time></trkpt><trkpt lat="43.8109528" lon="12.2845807"><ele>726.6666666666667</ele><time>2026-04-26T12:07:07.023Z</time></trkpt><trkpt lat="43.8108135" lon="12.2847267"><ele>730.0</ele><time>2026-04-26T12:07:08.024Z</time></trkpt><trkpt lat="43.8106587" lon="12.2848583"><ele>730.0</ele><time>2026-04-26T12:07:09.022Z</time></trkpt><trkpt lat="43.8104995" lon="12.2849779"><ele>730.0</ele><time>2026-04-26T12:07:10.025Z</time></trkpt><trkpt lat="43.8103453" lon="12.2850699"><ele>730.0</ele><time>2026-04-26T12:07:11.022Z</time></trkpt><trkpt lat="43.810206" lon="12.2851481"><ele>731.75</ele><time>2026-04-26T12:07:12.024Z</time></trkpt><trkpt lat="43.810085" lon="12.285229"><ele>733.5</ele><time>2026-04-26T12:07:13.023Z</time></trkpt><trkpt lat="43.8099865" lon="12.2853316"><ele>735.25</ele><time>2026-04-26T12:07:14.021Z</time></trkpt><trkpt lat="43.8099088" lon="12.2854771"><ele>737.0</ele><time>2026-04-26T12:07:15.027Z</time></trkpt><trkpt lat="43.8098459" lon="12.2856478"><ele>737.0</ele><time>2026-04-26T12:07:16.022Z</time></trkpt><trkpt lat="43.8097957" lon="12.2858223"><ele>737.0</ele><time>2026-04-26T12:07:17.023Z</time></trkpt><trkpt lat="43.8097388" lon="12.2859821"><ele>737.0</ele><time>2026-04-26T12:07:18.023Z</time></trkpt><trkpt lat="43.809687" lon="12.2861395"><ele>737.0</ele><time>2026-04-26T12:07:19.024Z</time></trkpt><trkpt lat="43.8096559" lon="12.2863037"><ele>738.5</ele><time>2026-04-26T12:07:20.023Z</time></trkpt><trkpt lat="43.8096465" lon="12.2864774"><ele>740.0</ele><time>2026-04-26T12:07:21.024Z</time></trkpt><trkpt lat="43.8096438" lon="12.2866543"><ele>741.5</ele><time>2026-04-26T12:07:22.024Z</time></trkpt><trkpt lat="43.8096222" lon="12.2868276"><ele>743.0</ele><time>2026-04-26T12:07:23.024Z</time></trkpt><trkpt lat="43.8095747" lon="12.2869897"><ele>743.0</ele><time>2026-04-26T12:07:24.024Z</time></trkpt><trkpt lat="43.8095099" lon="12.2871446"><ele>743.0</ele><time>2026-04-26T12:07:25.023Z</time></trkpt><trkpt lat="43.8094426" lon="12.2873008"><ele>743.0</ele><time>2026-04-26T12:07:26.024Z</time></trkpt><trkpt lat="43.8093771" lon="12.2874481"><ele>743.0</ele><time>2026-04-26T12:07:27.024Z</time></trkpt><trkpt lat="43.8093336" lon="12.287596"><ele>742.0</ele><time>2026-04-26T12:07:28.026Z</time></trkpt><trkpt lat="43.8092964" lon="12.2877375"><ele>741.0</ele><time>2026-04-26T12:07:29.023Z</time></trkpt><trkpt lat="43.8092521" lon="12.2878686"><ele>740.0</ele><time>2026-04-26T12:07:30.024Z</time></trkpt><trkpt lat="43.8092017" lon="12.2879798"><ele>739.0</ele><time>2026-04-26T12:07:31.023Z</time></trkpt><trkpt lat="43.8091466" lon="12.2880641"><ele>738.0</ele><time>2026-04-26T12:07:32.024Z</time></trkpt><trkpt lat="43.8090893" lon="12.2881318"><ele>738.0</ele><time>2026-04-26T12:07:33.108Z</time></trkpt><trkpt lat="43.8090378" lon="12.2881864"><ele>738.0</ele><time>2026-04-26T12:07:34.026Z</time></trkpt><trkpt lat="43.8089887" lon="12.2882427"><ele>738.0</ele><time>2026-04-26T12:07:35.024Z</time></trkpt><trkpt lat="43.8089159" lon="12.2883859"><ele>738.0</ele><time>2026-04-26T12:07:37.025Z</time></trkpt><trkpt lat="43.8088666" lon="12.2885402"><ele>738.0</ele><time>2026-04-26T12:07:39.024Z</time></trkpt><trkpt lat="43.8088459" lon="12.2887039"><ele>738.0</ele><time>2026-04-26T12:07:41.023Z</time></trkpt><trkpt lat="43.8088499" lon="12.2888689"><ele>738.0</ele><time>2026-04-26T12:07:43.033Z</time></trkpt><trkpt lat="43.8088495" lon="12.288959"><ele>738.0</ele><time>2026-04-26T12:07:44.024Z</time></trkpt><trkpt lat="43.8088582" lon="12.2890499"><ele>738.0</ele><time>2026-04-26T12:07:45.024Z</time></trkpt><trkpt lat="43.8088729" lon="12.2891375"><ele>738.0</ele><time>2026-04-26T12:07:46.023Z</time></trkpt><trkpt lat="43.8089001" lon="12.2892417"><ele>738.0</ele><time>2026-04-26T12:07:47.023Z</time></trkpt><trkpt lat="43.8089405" lon="12.2893464"><ele>738.4285714285714</ele><time>2026-04-26T12:07:48.022Z</time></trkpt><trkpt lat="43.8089746" lon="12.2894497"><ele>738.8571428571429</ele><time>2026-04-26T12:07:49.023Z</time></trkpt><trkpt lat="43.8090009" lon="12.2895485"><ele>739.2857142857142</ele><time>2026-04-26T12:07:50.027Z</time></trkpt><trkpt lat="43.809038" lon="12.289636"><ele>739.7142857142858</ele><time>2026-04-26T12:07:51.025Z</time></trkpt><trkpt lat="43.809074" lon="12.2897178"><ele>740.1428571428572</ele><time>2026-04-26T12:07:52.022Z</time></trkpt><trkpt lat="43.8091179" lon="12.289799"><ele>740.5714285714286</ele><time>2026-04-26T12:07:53.023Z</time></trkpt><trkpt lat="43.809146" lon="12.289895"><ele>741.0</ele><time>2026-04-26T12:07:54.025Z</time></trkpt><trkpt lat="43.8091913" lon="12.2900017"><ele>741.0</ele><time>2026-04-26T12:07:55.025Z</time></trkpt><trkpt lat="43.809249" lon="12.290107"><ele>741.0</ele><time>2026-04-26T12:07:56.022Z</time></trkpt><trkpt lat="43.8093011" lon="12.2902067"><ele>741.0</ele><time>2026-04-26T12:07:57.023Z</time></trkpt><trkpt lat="43.809347" lon="12.2903072"><ele>741.0</ele><time>2026-04-26T12:07:58.024Z</time></trkpt><trkpt lat="43.8093828" lon="12.2904061"><ele>741.0</ele><time>2026-04-26T12:07:59.024Z</time></trkpt><trkpt lat="43.8094102" lon="12.2905096"><ele>741.0</ele><time>2026-04-26T12:08:00.025Z</time></trkpt><trkpt lat="43.8094419" lon="12.2906126"><ele>739.1666666666666</ele><time>2026-04-26T12:08:01.022Z</time></trkpt><trkpt lat="43.8094599" lon="12.2907154"><ele>737.3333333333334</ele><time>2026-04-26T12:08:02.023Z</time></trkpt><trkpt lat="43.8094748" lon="12.2908191"><ele>735.5</ele><time>2026-04-26T12:08:03.023Z</time></trkpt><trkpt lat="43.8095011" lon="12.290921"><ele>733.6666666666667</ele><time>2026-04-26T12:08:04.022Z</time></trkpt><trkpt lat="43.8095294" lon="12.2910124"><ele>731.8333333333334</ele><time>2026-04-26T12:08:05.025Z</time></trkpt><trkpt lat="43.8095638" lon="12.2910898"><ele>730.0</ele><time>2026-04-26T12:08:06.023Z</time></trkpt><trkpt lat="43.8096707" lon="12.2911684"><ele>730.0</ele><time>2026-04-26T12:08:08.023Z</time></trkpt><trkpt lat="43.8097595" lon="12.2911634"><ele>730.0</ele><time>2026-04-26T12:08:09.029Z</time></trkpt><trkpt lat="43.8098492" lon="12.2911527"><ele>730.0</ele><time>2026-04-26T12:08:10.022Z</time></trkpt><trkpt lat="43.8099376" lon="12.2911393"><ele>730.0</ele><time>2026-04-26T12:08:11.021Z</time></trkpt><trkpt lat="43.8100225" lon="12.2911334"><ele>730.0</ele><time>2026-04-26T12:08:12.022Z</time></trkpt><trkpt lat="43.8101026" lon="12.2911421"><ele>730.0</ele><time>2026-04-26T12:08:13.023Z</time></trkpt><trkpt lat="43.810177" lon="12.2911666"><ele>729.6666666666667</ele><time>2026-04-26T12:08:14.022Z</time></trkpt><trkpt lat="43.8102492" lon="12.2912082"><ele>729.3333333333334</ele><time>2026-04-26T12:08:15.022Z</time></trkpt><trkpt lat="43.8103193" lon="12.2912671"><ele>729.0</ele><time>2026-04-26T12:08:16.022Z</time></trkpt><trkpt lat="43.8103833" lon="12.2913405"><ele>728.6666666666666</ele><time>2026-04-26T12:08:17.022Z</time></trkpt><trkpt lat="43.8104453" lon="12.291426"><ele>728.3333333333333</ele><time>2026-04-26T12:08:18.022Z</time></trkpt><trkpt lat="43.8104986" lon="12.2915071"><ele>728.0</ele><time>2026-04-26T12:08:19.023Z</time></trkpt><trkpt lat="43.8105449" lon="12.2915758"><ele>728.0</ele><time>2026-04-26T12:08:20.021Z</time></trkpt><trkpt lat="43.8105958" lon="12.291689"><ele>728.0</ele><time>2026-04-26T12:08:22.024Z</time></trkpt><trkpt lat="43.8106262" lon="12.2918082"><ele>728.0</ele><time>2026-04-26T12:08:24.022Z</time></trkpt><trkpt lat="43.8106568" lon="12.2919495"><ele>728.0</ele><time>2026-04-26T12:08:26.021Z</time></trkpt><trkpt lat="43.8106618" lon="12.2920871"><ele>728.0</ele><time>2026-04-26T12:08:28.022Z</time></trkpt><trkpt lat="43.8106791" lon="12.2922083"><ele>729.0</ele><time>2026-04-26T12:08:30.022Z</time></trkpt><trkpt lat="43.8107509" lon="12.2923548"><ele>730.0</ele><time>2026-04-26T12:08:32.025Z</time></trkpt><trkpt lat="43.8108046" lon="12.29244"><ele>731.0</ele><time>2026-04-26T12:08:33.023Z</time></trkpt><trkpt lat="43.8108555" lon="12.2925363"><ele>732.0</ele><time>2026-04-26T12:08:34.022Z</time></trkpt><trkpt lat="43.8108967" lon="12.2926372"><ele>733.0</ele><time>2026-04-26T12:08:35.022Z</time></trkpt><trkpt lat="43.8109279" lon="12.2927338"><ele>733.0</ele><time>2026-04-26T12:08:36.024Z</time></trkpt><trkpt lat="43.8109529" lon="12.2928277"><ele>733.0</ele><time>2026-04-26T12:08:37.024Z</time></trkpt><trkpt lat="43.8109618" lon="12.2929144"><ele>733.0</ele><time>2026-04-26T12:08:38.023Z</time></trkpt><trkpt lat="43.8109421" lon="12.2930598"><ele>733.0</ele><time>2026-04-26T12:08:40.022Z</time></trkpt><trkpt lat="43.8109166" lon="12.2931658"><ele>733.0</ele><time>2026-04-26T12:08:42.023Z</time></trkpt><trkpt lat="43.8109139" lon="12.2932553"><ele>733.0</ele><time>2026-04-26T12:08:44.027Z</time></trkpt><trkpt lat="43.8109518" lon="12.2933359"><ele>731.8</ele><time>2026-04-26T12:08:47.023Z</time></trkpt><trkpt lat="43.8110151" lon="12.2933561"><ele>730.5999999999999</ele><time>2026-04-26T12:09:26.087Z</time></trkpt><trkpt lat="43.8110713" lon="12.2933996"><ele>729.4000000000001</ele><time>2026-04-26T12:09:27.024Z</time></trkpt><trkpt lat="43.8111897" lon="12.2935273"><ele>728.2</ele><time>2026-04-26T12:09:29.022Z</time></trkpt><trkpt lat="43.8112403" lon="12.2935848"><ele>727.0</ele><time>2026-04-26T12:09:30.022Z</time></trkpt><trkpt lat="43.8113044" lon="12.2937223"><ele>727.0</ele><time>2026-04-26T12:09:32.022Z</time></trkpt><trkpt lat="43.8113533" lon="12.2938814"><ele>727.0</ele><time>2026-04-26T12:09:34.023Z</time></trkpt><trkpt lat="43.8113923" lon="12.2940182"><ele>727.0</ele><time>2026-04-26T12:09:36.024Z</time></trkpt><trkpt lat="43.8114377" lon="12.2941267"><ele>727.0</ele><time>2026-04-26T12:09:38.025Z</time></trkpt><trkpt lat="43.8114894" lon="12.2942052"><ele>727.0</ele><time>2026-04-26T12:09:40.022Z</time></trkpt><trkpt lat="43.8115765" lon="12.2942083"><ele>725.8</ele><time>2026-04-26T12:09:42.023Z</time></trkpt><trkpt lat="43.811685" lon="12.2941709"><ele>724.6</ele><time>2026-04-26T12:09:44.023Z</time></trkpt><trkpt lat="43.8117761" lon="12.2941377"><ele>723.4</ele><time>2026-04-26T12:09:46.025Z</time></trkpt><trkpt lat="43.8118594" lon="12.2940912"><ele>722.1999999999999</ele><time>2026-04-26T12:09:49.049Z</time></trkpt><trkpt lat="43.811936" lon="12.2940962"><ele>721.0</ele><time>2026-04-26T12:09:51.064Z</time></trkpt><trkpt lat="43.8120097" lon="12.2941831"><ele>721.0</ele><time>2026-04-26T12:09:53.024Z</time></trkpt><trkpt lat="43.8120835" lon="12.294299"><ele>721.0</ele><time>2026-04-26T12:09:55.078Z</time></trkpt><trkpt lat="43.8121096" lon="12.2944279"><ele>721.0</ele><time>2026-04-26T12:09:56.023Z</time></trkpt><trkpt lat="43.8121488" lon="12.2945372"><ele>721.0</ele><time>2026-04-26T12:09:57.023Z</time></trkpt><trkpt lat="43.8121977" lon="12.2946367"><ele>721.0</ele><time>2026-04-26T12:09:58.023Z</time></trkpt><trkpt lat="43.8122556" lon="12.2947463"><ele>722.8</ele><time>2026-04-26T12:09:59.022Z</time></trkpt><trkpt lat="43.8123191" lon="12.2948688"><ele>724.5999999999999</ele><time>2026-04-26T12:10:00.022Z</time></trkpt><trkpt lat="43.8123857" lon="12.2949709"><ele>726.4</ele><time>2026-04-26T12:10:01.024Z</time></trkpt><trkpt lat="43.8124474" lon="12.2950579"><ele>728.2</ele><time>2026-04-26T12:10:02.023Z</time></trkpt><trkpt lat="43.8124904" lon="12.2951399"><ele>730.0</ele><time>2026-04-26T12:10:03.024Z</time></trkpt><trkpt lat="43.8125673" lon="12.2952704"><ele>730.0</ele><time>2026-04-26T12:10:05.025Z</time></trkpt><trkpt lat="43.8126022" lon="12.2953434"><ele>730.0</ele><time>2026-04-26T12:10:06.024Z</time></trkpt><trkpt lat="43.8126329" lon="12.295423"><ele>730.0</ele><time>2026-04-26T12:10:07.026Z</time></trkpt><trkpt lat="43.8126679" lon="12.2954986"><ele>730.0</ele><time>2026-04-26T12:10:08.023Z</time></trkpt><trkpt lat="43.8127361" lon="12.2956422"><ele>730.0</ele><time>2026-04-26T12:10:10.023Z</time></trkpt><trkpt lat="43.8127685" lon="12.2957311"><ele>730.0</ele><time>2026-04-26T12:10:11.026Z</time></trkpt><trkpt lat="43.8128022" lon="12.2958181"><ele>730.1666666666667</ele><time>2026-04-26T12:10:12.023Z</time></trkpt><trkpt lat="43.8128375" lon="12.2958964"><ele>730.3333333333334</ele><time>2026-04-26T12:10:13.025Z</time></trkpt><trkpt lat="43.8129084" lon="12.2960164"><ele>730.5</ele><time>2026-04-26T12:10:15.023Z</time></trkpt><trkpt lat="43.8129862" lon="12.2960754"><ele>730.6666666666666</ele><time>2026-04-26T12:10:17.022Z</time></trkpt><trkpt lat="43.8130408" lon="12.2961451"><ele>730.8333333333333</ele><time>2026-04-26T12:10:19.022Z</time></trkpt><trkpt lat="43.8130712" lon="12.296269"><ele>731.0</ele><time>2026-04-26T12:10:21.022Z</time></trkpt><trkpt lat="43.8130902" lon="12.2963522"><ele>732.8</ele><time>2026-04-26T12:10:22.027Z</time></trkpt><trkpt lat="43.813154" lon="12.2964832"><ele>734.5999999999999</ele><time>2026-04-26T12:10:24.026Z</time></trkpt><trkpt lat="43.8132547" lon="12.2965969"><ele>736.4</ele><time>2026-04-26T12:10:26.027Z</time></trkpt><trkpt lat="43.8133152" lon="12.2966667"><ele>738.2</ele><time>2026-04-26T12:10:27.025Z</time></trkpt><trkpt lat="43.8133701" lon="12.2967372"><ele>740.0</ele><time>2026-04-26T12:10:28.022Z</time></trkpt><trkpt lat="43.8134309" lon="12.2968798"><ele>740.0</ele><time>2026-04-26T12:10:30.024Z</time></trkpt><trkpt lat="43.8134635" lon="12.2970462"><ele>740.0</ele><time>2026-04-26T12:10:32.023Z</time></trkpt><trkpt lat="43.8134647" lon="12.2971951"><ele>740.0</ele><time>2026-04-26T12:10:34.025Z</time></trkpt><trkpt lat="43.8134415" lon="12.2972926"><ele>740.0</ele><time>2026-04-26T12:10:36.026Z</time></trkpt><trkpt lat="43.8134828" lon="12.2974036"><ele>740.0</ele><time>2026-04-26T12:10:39.022Z</time></trkpt><trkpt lat="43.8135647" lon="12.2974665"><ele>739.2</ele><time>2026-04-26T12:10:41.022Z</time></trkpt><trkpt lat="43.8136487" lon="12.2975438"><ele>738.4</ele><time>2026-04-26T12:10:43.025Z</time></trkpt><trkpt lat="43.813743" lon="12.297648"><ele>737.5999999999999</ele><time>2026-04-26T12:10:45.023Z</time></trkpt><trkpt lat="43.8138141" lon="12.297704"><ele>736.8</ele><time>2026-04-26T12:10:46.024Z</time></trkpt><trkpt lat="43.8138865" lon="12.297758"><ele>736.0</ele><time>2026-04-26T12:10:47.022Z</time></trkpt><trkpt lat="43.8139598" lon="12.2978145"><ele>736.0</ele><time>2026-04-26T12:10:48.023Z</time></trkpt><trkpt lat="43.8140288" lon="12.2978727"><ele>736.0</ele><time>2026-04-26T12:10:49.025Z</time></trkpt><trkpt lat="43.8140904" lon="12.2979298"><ele>736.0</ele><time>2026-04-26T12:10:50.024Z</time></trkpt><trkpt lat="43.8141727" lon="12.2980595"><ele>736.0</ele><time>2026-04-26T12:10:52.024Z</time></trkpt><trkpt lat="43.8142032" lon="12.2981367"><ele>736.0</ele><time>2026-04-26T12:10:53.022Z</time></trkpt><trkpt lat="43.8142357" lon="12.2982232"><ele>736.0</ele><time>2026-04-26T12:10:54.024Z</time></trkpt><trkpt lat="43.8142782" lon="12.2983204"><ele>733.5999999999999</ele><time>2026-04-26T12:10:55.026Z</time></trkpt><trkpt lat="43.8143303" lon="12.2984256"><ele>731.2</ele><time>2026-04-26T12:10:56.023Z</time></trkpt><trkpt lat="43.8143863" lon="12.298532"><ele>728.8</ele><time>2026-04-26T12:10:57.026Z</time></trkpt><trkpt lat="43.8144423" lon="12.2986305"><ele>726.4000000000001</ele><time>2026-04-26T12:10:58.023Z</time></trkpt><trkpt lat="43.8145042" lon="12.2987285"><ele>724.0</ele><time>2026-04-26T12:10:59.022Z</time></trkpt><trkpt lat="43.8145765" lon="12.2988285"><ele>724.0</ele><time>2026-04-26T12:11:00.024Z</time></trkpt><trkpt lat="43.8146598" lon="12.2989169"><ele>724.0</ele><time>2026-04-26T12:11:01.024Z</time></trkpt><trkpt lat="43.814753" lon="12.2989932"><ele>724.0</ele><time>2026-04-26T12:11:02.026Z</time></trkpt><trkpt lat="43.8148511" lon="12.2990555"><ele>724.0</ele><time>2026-04-26T12:11:03.023Z</time></trkpt><trkpt lat="43.8149493" lon="12.2990991"><ele>724.0</ele><time>2026-04-26T12:11:04.025Z</time></trkpt><trkpt lat="43.8150401" lon="12.2991373"><ele>723.6666666666667</ele><time>2026-04-26T12:11:05.023Z</time></trkpt><trkpt lat="43.8151257" lon="12.299178"><ele>723.3333333333334</ele><time>2026-04-26T12:11:06.023Z</time></trkpt><trkpt lat="43.8152037" lon="12.2992178"><ele>723.0</ele><time>2026-04-26T12:11:07.023Z</time></trkpt><trkpt lat="43.8152784" lon="12.2992537"><ele>722.6666666666666</ele><time>2026-04-26T12:11:08.023Z</time></trkpt><trkpt lat="43.8153527" lon="12.2992845"><ele>722.3333333333333</ele><time>2026-04-26T12:11:09.022Z</time></trkpt><trkpt lat="43.8154259" lon="12.2993097"><ele>722.0</ele><time>2026-04-26T12:11:10.024Z</time></trkpt><trkpt lat="43.8154989" lon="12.2993389"><ele>722.0</ele><time>2026-04-26T12:11:11.022Z</time></trkpt><trkpt lat="43.8155722" lon="12.2993689"><ele>722.0</ele><time>2026-04-26T12:11:12.028Z</time></trkpt><trkpt lat="43.8156429" lon="12.2994071"><ele>722.0</ele><time>2026-04-26T12:11:13.025Z</time></trkpt><trkpt lat="43.8157034" lon="12.2994585"><ele>722.0</ele><time>2026-04-26T12:11:14.024Z</time></trkpt><trkpt lat="43.8157504" lon="12.2995278"><ele>722.0</ele><time>2026-04-26T12:11:15.025Z</time></trkpt><trkpt lat="43.8157884" lon="12.2996084"><ele>722.0</ele><time>2026-04-26T12:11:16.024Z</time></trkpt><trkpt lat="43.8158197" lon="12.2996971"><ele>722.0</ele><time>2026-04-26T12:11:17.026Z</time></trkpt><trkpt lat="43.8158484" lon="12.2997824"><ele>721.6</ele><time>2026-04-26T12:11:18.025Z</time></trkpt><trkpt lat="43.8158896" lon="12.2999348"><ele>721.2</ele><time>2026-04-26T12:11:20.026Z</time></trkpt><trkpt lat="43.815917" lon="12.3000873"><ele>720.8</ele><time>2026-04-26T12:11:22.023Z</time></trkpt><trkpt lat="43.8159533" lon="12.300222"><ele>720.4</ele><time>2026-04-26T12:11:24.024Z</time></trkpt><trkpt lat="43.8160272" lon="12.3003043"><ele>720.0</ele><time>2026-04-26T12:11:26.023Z</time></trkpt><trkpt lat="43.8161371" lon="12.3003095"><ele>720.0</ele><time>2026-04-26T12:11:28.024Z</time></trkpt><trkpt lat="43.8162005" lon="12.3003071"><ele>720.0</ele><time>2026-04-26T12:11:29.023Z</time></trkpt><trkpt lat="43.8163245" lon="12.300285"><ele>720.0</ele><time>2026-04-26T12:11:31.023Z</time></trkpt><trkpt lat="43.8163901" lon="12.3002578"><ele>720.0</ele><time>2026-04-26T12:11:32.022Z</time></trkpt><trkpt lat="43.8164597" lon="12.3002311"><ele>720.0</ele><time>2026-04-26T12:11:33.023Z</time></trkpt><trkpt lat="43.8165315" lon="12.3002106"><ele>720.0</ele><time>2026-04-26T12:11:34.024Z</time></trkpt><trkpt lat="43.8166012" lon="12.3002051"><ele>720.0</ele><time>2026-04-26T12:11:35.024Z</time></trkpt><trkpt lat="43.8166689" lon="12.3002131"><ele>720.0</ele><time>2026-04-26T12:11:36.025Z</time></trkpt><trkpt lat="43.8167373" lon="12.300244"><ele>720.0</ele><time>2026-04-26T12:11:37.022Z</time></trkpt><trkpt lat="43.8168045" lon="12.3002878"><ele>720.0</ele><time>2026-04-26T12:11:38.022Z</time></trkpt><trkpt lat="43.8168756" lon="12.3003392"><ele>720.0</ele><time>2026-04-26T12:11:39.023Z</time></trkpt><trkpt lat="43.8169529" lon="12.3003997"><ele>720.0</ele><time>2026-04-26T12:11:40.022Z</time></trkpt><trkpt lat="43.8170313" lon="12.3004601"><ele>719.6666666666666</ele><time>2026-04-26T12:11:41.023Z</time></trkpt><trkpt lat="43.8171048" lon="12.3005133"><ele>719.3333333333334</ele><time>2026-04-26T12:11:42.028Z</time></trkpt><trkpt lat="43.817175" lon="12.3005461"><ele>719.0</ele><time>2026-04-26T12:11:43.024Z</time></trkpt><trkpt lat="43.8172463" lon="12.3005628"><ele>718.6666666666667</ele><time>2026-04-26T12:11:44.023Z</time></trkpt><trkpt lat="43.8173166" lon="12.3005737"><ele>718.3333333333334</ele><time>2026-04-26T12:11:45.024Z</time></trkpt><trkpt lat="43.8173883" lon="12.3005911"><ele>718.0</ele><time>2026-04-26T12:11:46.021Z</time></trkpt><trkpt lat="43.8174669" lon="12.3006166"><ele>720.0</ele><time>2026-04-26T12:11:47.023Z</time></trkpt><trkpt lat="43.817547" lon="12.3006507"><ele>722.0</ele><time>2026-04-26T12:11:48.023Z</time></trkpt><trkpt lat="43.8176206" lon="12.3006962"><ele>724.0</ele><time>2026-04-26T12:11:49.024Z</time></trkpt><trkpt lat="43.8176934" lon="12.3007483"><ele>726.0</ele><time>2026-04-26T12:11:50.024Z</time></trkpt><trkpt lat="43.8177598" lon="12.3007945"><ele>728.0</ele><time>2026-04-26T12:11:51.026Z</time></trkpt><trkpt lat="43.8178312" lon="12.3008261"><ele>730.0</ele><time>2026-04-26T12:11:52.027Z</time></trkpt><trkpt lat="43.8179198" lon="12.3008417"><ele>730.0</ele><time>2026-04-26T12:11:53.026Z</time></trkpt><trkpt lat="43.8180211" lon="12.3008427"><ele>730.0</ele><time>2026-04-26T12:11:54.022Z</time></trkpt><trkpt lat="43.8181256" lon="12.3008314"><ele>730.0</ele><time>2026-04-26T12:11:55.023Z</time></trkpt><trkpt lat="43.818228" lon="12.3008211"><ele>730.0</ele><time>2026-04-26T12:11:56.023Z</time></trkpt><trkpt lat="43.818329" lon="12.3008087"><ele>730.0</ele><time>2026-04-26T12:11:57.025Z</time></trkpt><trkpt lat="43.8184217" lon="12.3007987"><ele>730.5</ele><time>2026-04-26T12:11:58.025Z</time></trkpt><trkpt lat="43.8185028" lon="12.3007911"><ele>731.0</ele><time>2026-04-26T12:11:59.029Z</time></trkpt><trkpt lat="43.8185742" lon="12.3007762"><ele>731.5</ele><time>2026-04-26T12:12:00.025Z</time></trkpt><trkpt lat="43.8186409" lon="12.3007407"><ele>732.0</ele><time>2026-04-26T12:12:01.024Z</time></trkpt><trkpt lat="43.8187283" lon="12.3006329"><ele>732.5</ele><time>2026-04-26T12:12:03.024Z</time></trkpt><trkpt lat="43.8188021" lon="12.3005273"><ele>733.0</ele><time>2026-04-26T12:12:05.024Z</time></trkpt><trkpt lat="43.8188994" lon="12.3004352"><ele>732.5999999999999</ele><time>2026-04-26T12:12:07.025Z</time></trkpt><trkpt lat="43.8189578" lon="12.3003855"><ele>732.1999999999999</ele><time>2026-04-26T12:12:08.025Z</time></trkpt><trkpt lat="43.8190179" lon="12.300334"><ele>731.8</ele><time>2026-04-26T12:12:09.024Z</time></trkpt><trkpt lat="43.8191294" lon="12.3002619"><ele>731.4</ele><time>2026-04-26T12:12:11.024Z</time></trkpt><trkpt lat="43.8192663" lon="12.3002341"><ele>731.0</ele><time>2026-04-26T12:12:13.026Z</time></trkpt><trkpt lat="43.8193549" lon="12.3002272"><ele>731.0</ele><time>2026-04-26T12:12:14.024Z</time></trkpt><trkpt lat="43.8194506" lon="12.3002188"><ele>731.0</ele><time>2026-04-26T12:12:15.025Z</time></trkpt><trkpt lat="43.8195453" lon="12.3002093"><ele>731.0</ele><time>2026-04-26T12:12:16.023Z</time></trkpt><trkpt lat="43.8196421" lon="12.3002069"><ele>731.0</ele><time>2026-04-26T12:12:17.021Z</time></trkpt><trkpt lat="43.8197383" lon="12.300206"><ele>731.0</ele><time>2026-04-26T12:12:18.023Z</time></trkpt><trkpt lat="43.8198283" lon="12.3002071"><ele>731.0</ele><time>2026-04-26T12:12:19.025Z</time></trkpt><trkpt lat="43.8199227" lon="12.3002094"><ele>731.0</ele><time>2026-04-26T12:12:20.022Z</time></trkpt><trkpt lat="43.8200234" lon="12.300209"><ele>731.0</ele><time>2026-04-26T12:12:21.025Z</time></trkpt><trkpt lat="43.8201299" lon="12.3002023"><ele>731.0</ele><time>2026-04-26T12:12:22.027Z</time></trkpt><trkpt lat="43.8202347" lon="12.3001888"><ele>731.0</ele><time>2026-04-26T12:12:23.023Z</time></trkpt><trkpt lat="43.8203362" lon="12.3001669"><ele>731.8333333333333</ele><time>2026-04-26T12:12:24.024Z</time></trkpt><trkpt lat="43.8204312" lon="12.3001411"><ele>732.6666666666666</ele><time>2026-04-26T12:12:25.023Z</time></trkpt><trkpt lat="43.8205216" lon="12.300117"><ele>733.5</ele><time>2026-04-26T12:12:26.027Z</time></trkpt><trkpt lat="43.8206066" lon="12.3001006"><ele>734.3333333333334</ele><time>2026-04-26T12:12:27.025Z</time></trkpt><trkpt lat="43.8206853" lon="12.3000972"><ele>735.1666666666667</ele><time>2026-04-26T12:12:28.023Z</time></trkpt><trkpt lat="43.8207566" lon="12.3001026"><ele>736.0</ele><time>2026-04-26T12:12:29.023Z</time></trkpt><trkpt lat="43.8208386" lon="12.3001068"><ele>736.0</ele><time>2026-04-26T12:12:30.024Z</time></trkpt><trkpt lat="43.8209265" lon="12.300113"><ele>736.0</ele><time>2026-04-26T12:12:31.026Z</time></trkpt><trkpt lat="43.8210247" lon="12.3001111"><ele>736.0</ele><time>2026-04-26T12:12:32.027Z</time></trkpt><trkpt lat="43.8211182" lon="12.300101"><ele>736.0</ele><time>2026-04-26T12:12:33.024Z</time></trkpt><trkpt lat="43.8212086" lon="12.3000877"><ele>736.0</ele><time>2026-04-26T12:12:34.024Z</time></trkpt><trkpt lat="43.821297" lon="12.3000655"><ele>737.0</ele><time>2026-04-26T12:12:35.022Z</time></trkpt><trkpt lat="43.8213788" lon="12.3000435"><ele>738.0</ele><time>2026-04-26T12:12:36.022Z</time></trkpt><trkpt lat="43.8214524" lon="12.3000225"><ele>739.0</ele><time>2026-04-26T12:12:37.023Z</time></trkpt><trkpt lat="43.8215209" lon="12.2999917"><ele>740.0</ele><time>2026-04-26T12:12:38.027Z</time></trkpt><trkpt lat="43.8215893" lon="12.2999633"><ele>741.0</ele><time>2026-04-26T12:12:39.024Z</time></trkpt><trkpt lat="43.8216637" lon="12.2999382"><ele>742.0</ele><time>2026-04-26T12:12:40.023Z</time></trkpt><trkpt lat="43.8217407" lon="12.2999064"><ele>742.0</ele><time>2026-04-26T12:12:41.023Z</time></trkpt><trkpt lat="43.8218269" lon="12.2998659"><ele>742.0</ele><time>2026-04-26T12:12:42.026Z</time></trkpt><trkpt lat="43.8219232" lon="12.2998228"><ele>742.0</ele><time>2026-04-26T12:12:43.022Z</time></trkpt><trkpt lat="43.8220284" lon="12.2997828"><ele>742.0</ele><time>2026-04-26T12:12:44.023Z</time></trkpt><trkpt lat="43.8221389" lon="12.2997478"><ele>742.0</ele><time>2026-04-26T12:12:45.024Z</time></trkpt><trkpt lat="43.8222553" lon="12.2997072"><ele>742.0</ele><time>2026-04-26T12:12:46.024Z</time></trkpt><trkpt lat="43.8223702" lon="12.2996543"><ele>742.0</ele><time>2026-04-26T12:12:47.022Z</time></trkpt><trkpt lat="43.8224782" lon="12.2996003"><ele>742.0</ele><time>2026-04-26T12:12:48.023Z</time></trkpt><trkpt lat="43.8225851" lon="12.2995482"><ele>742.0</ele><time>2026-04-26T12:12:49.025Z</time></trkpt><trkpt lat="43.8226945" lon="12.2994991"><ele>743.25</ele><time>2026-04-26T12:12:50.024Z</time></trkpt><trkpt lat="43.8228047" lon="12.299452"><ele>744.5</ele><time>2026-04-26T12:12:51.023Z</time></trkpt><trkpt lat="43.8229196" lon="12.2994019"><ele>745.75</ele><time>2026-04-26T12:12:52.025Z</time></trkpt><trkpt lat="43.8230393" lon="12.299347"><ele>747.0</ele><time>2026-04-26T12:12:53.022Z</time></trkpt><trkpt lat="43.8231688" lon="12.2992889"><ele>747.0</ele><time>2026-04-26T12:12:54.024Z</time></trkpt><trkpt lat="43.8233031" lon="12.2992371"><ele>747.0</ele><time>2026-04-26T12:12:55.023Z</time></trkpt><trkpt lat="43.8234405" lon="12.2991956"><ele>747.0</ele><time>2026-04-26T12:12:56.025Z</time></trkpt><trkpt lat="43.8235766" lon="12.2991544"><ele>747.0</ele><time>2026-04-26T12:12:57.03Z</time></trkpt><trkpt lat="43.8237019" lon="12.2991083"><ele>747.4000000000001</ele><time>2026-04-26T12:12:58.024Z</time></trkpt><trkpt lat="43.823813" lon="12.2990585"><ele>747.8000000000001</ele><time>2026-04-26T12:12:59.025Z</time></trkpt><trkpt lat="43.8239138" lon="12.2990098"><ele>748.2</ele><time>2026-04-26T12:13:00.024Z</time></trkpt><trkpt lat="43.8240085" lon="12.2989738"><ele>748.6</ele><time>2026-04-26T12:13:01.022Z</time></trkpt><trkpt lat="43.8240985" lon="12.2989562"><ele>749.0</ele><time>2026-04-26T12:13:02.025Z</time></trkpt><trkpt lat="43.8241901" lon="12.2989632"><ele>749.0</ele><time>2026-04-26T12:13:03.024Z</time></trkpt><trkpt lat="43.8242882" lon="12.2990014"><ele>749.0</ele><time>2026-04-26T12:13:04.025Z</time></trkpt><trkpt lat="43.8243892" lon="12.2990593"><ele>749.0</ele><time>2026-04-26T12:13:05.025Z</time></trkpt><trkpt lat="43.8244802" lon="12.2991237"><ele>749.0</ele><time>2026-04-26T12:13:06.022Z</time></trkpt><trkpt lat="43.8245554" lon="12.2991813"><ele>749.0</ele><time>2026-04-26T12:13:07.024Z</time></trkpt><trkpt lat="43.8246187" lon="12.2992341"><ele>748.1666666666666</ele><time>2026-04-26T12:13:08.024Z</time></trkpt><trkpt lat="43.8247058" lon="12.2993138"><ele>747.3333333333333</ele><time>2026-04-26T12:13:10.024Z</time></trkpt><trkpt lat="43.8247689" lon="12.2993459"><ele>746.5</ele><time>2026-04-26T12:13:12.023Z</time></trkpt><trkpt lat="43.8248464" lon="12.299389"><ele>745.6666666666666</ele><time>2026-04-26T12:13:14.024Z</time></trkpt><trkpt lat="43.824927" lon="12.2994608"><ele>744.8333333333334</ele><time>2026-04-26T12:13:16.023Z</time></trkpt><trkpt lat="43.8249729" lon="12.2995233"><ele>744.0</ele><time>2026-04-26T12:13:18.024Z</time></trkpt><trkpt lat="43.8250248" lon="12.2995742"><ele>744.0</ele><time>2026-04-26T12:13:21.075Z</time></trkpt><trkpt lat="43.8251111" lon="12.2995741"><ele>744.0</ele><time>2026-04-26T12:13:24.025Z</time></trkpt><trkpt lat="43.825175" lon="12.2996222"><ele>744.0</ele><time>2026-04-26T12:13:25.023Z</time></trkpt><trkpt lat="43.825251" lon="12.2996714"><ele>744.0</ele><time>2026-04-26T12:13:26.025Z</time></trkpt><trkpt lat="43.8253265" lon="12.2997162"><ele>744.0</ele><time>2026-04-26T12:13:27.022Z</time></trkpt><trkpt lat="43.8253899" lon="12.2997554"><ele>744.0</ele><time>2026-04-26T12:13:28.022Z</time></trkpt><trkpt lat="43.8254482" lon="12.2997886"><ele>743.8000000000001</ele><time>2026-04-26T12:13:29.022Z</time></trkpt><trkpt lat="43.8255628" lon="12.2998338"><ele>743.6</ele><time>2026-04-26T12:13:31.027Z</time></trkpt><trkpt lat="43.8256805" lon="12.2998717"><ele>743.4</ele><time>2026-04-26T12:13:33.024Z</time></trkpt><trkpt lat="43.825783" lon="12.2998964"><ele>743.2</ele><time>2026-04-26T12:13:35.022Z</time></trkpt><trkpt lat="43.8258803" lon="12.2999166"><ele>743.0</ele><time>2026-04-26T12:13:37.023Z</time></trkpt><trkpt lat="43.8259771" lon="12.299908"><ele>742.4</ele><time>2026-04-26T12:13:39.022Z</time></trkpt><trkpt lat="43.826082" lon="12.2999729"><ele>741.8</ele><time>2026-04-26T12:13:41.023Z</time></trkpt><trkpt lat="43.8261857" lon="12.3000393"><ele>741.2</ele><time>2026-04-26T12:13:43.029Z</time></trkpt><trkpt lat="43.8262778" lon="12.3001249"><ele>740.6</ele><time>2026-04-26T12:13:45.023Z</time></trkpt><trkpt lat="43.8263377" lon="12.3002192"><ele>740.0</ele><time>2026-04-26T12:13:47.022Z</time></trkpt><trkpt lat="43.8263779" lon="12.3003278"><ele>740.0</ele><time>2026-04-26T12:13:49.024Z</time></trkpt><trkpt lat="43.8263912" lon="12.3005151"><ele>740.0</ele><time>2026-04-26T12:13:51.023Z</time></trkpt><trkpt lat="43.8263742" lon="12.3006281"><ele>740.0</ele><time>2026-04-26T12:13:52.024Z</time></trkpt><trkpt lat="43.8263594" lon="12.3007395"><ele>740.0</ele><time>2026-04-26T12:13:53.024Z</time></trkpt><trkpt lat="43.8263339" lon="12.300845"><ele>740.0</ele><time>2026-04-26T12:13:54.025Z</time></trkpt><trkpt lat="43.8263079" lon="12.3009564"><ele>740.6</ele><time>2026-04-26T12:13:55.026Z</time></trkpt><trkpt lat="43.8262693" lon="12.3010794"><ele>741.2</ele><time>2026-04-26T12:13:56.026Z</time></trkpt><trkpt lat="43.8262273" lon="12.301209"><ele>741.8</ele><time>2026-04-26T12:13:57.023Z</time></trkpt><trkpt lat="43.8261843" lon="12.3013263"><ele>742.4</ele><time>2026-04-26T12:13:58.026Z</time></trkpt><trkpt lat="43.826151" lon="12.3014251"><ele>743.0</ele><time>2026-04-26T12:13:59.022Z</time></trkpt><trkpt lat="43.8261043" lon="12.3015628"><ele>743.0</ele><time>2026-04-26T12:14:01.021Z</time></trkpt><trkpt lat="43.8261274" lon="12.3016516"><ele>743.0</ele><time>2026-04-26T12:14:03.024Z</time></trkpt><trkpt lat="43.8262004" lon="12.3017249"><ele>743.0</ele><time>2026-04-26T12:14:05.023Z</time></trkpt><trkpt lat="43.8262987" lon="12.3017591"><ele>743.0</ele><time>2026-04-26T12:14:07.023Z</time></trkpt><trkpt lat="43.8264403" lon="12.3017714"><ele>743.0</ele><time>2026-04-26T12:14:09.023Z</time></trkpt><trkpt lat="43.8265369" lon="12.3017766"><ele>743.0</ele><time>2026-04-26T12:14:10.023Z</time></trkpt><trkpt lat="43.826659" lon="12.3017917"><ele>743.0</ele><time>2026-04-26T12:14:11.021Z</time></trkpt><trkpt lat="43.8267863" lon="12.3018151"><ele>743.0</ele><time>2026-04-26T12:14:12.025Z</time></trkpt><trkpt lat="43.8269132" lon="12.3018368"><ele>743.0</ele><time>2026-04-26T12:14:13.024Z</time></trkpt><trkpt lat="43.8270432" lon="12.3018591"><ele>740.5</ele><time>2026-04-26T12:14:14.022Z</time></trkpt><trkpt lat="43.827176" lon="12.3018842"><ele>738.0</ele><time>2026-04-26T12:14:15.025Z</time></trkpt><trkpt lat="43.8273007" lon="12.3019114"><ele>735.5</ele><time>2026-04-26T12:14:16.022Z</time></trkpt><trkpt lat="43.8274237" lon="12.3019456"><ele>733.0</ele><time>2026-04-26T12:14:17.028Z</time></trkpt><trkpt lat="43.8275497" lon="12.3019849"><ele>729.6666666666667</ele><time>2026-04-26T12:14:18.023Z</time></trkpt><trkpt lat="43.8276876" lon="12.3020213"><ele>726.3333333333334</ele><time>2026-04-26T12:14:19.021Z</time></trkpt><trkpt lat="43.8278352" lon="12.3020579"><ele>723.0</ele><time>2026-04-26T12:14:20.023Z</time></trkpt><trkpt lat="43.8279939" lon="12.3020921"><ele>723.0</ele><time>2026-04-26T12:14:21.024Z</time></trkpt><trkpt lat="43.828156" lon="12.3021228"><ele>723.0</ele><time>2026-04-26T12:14:22.026Z</time></trkpt><trkpt lat="43.8283096" lon="12.3021459"><ele>723.0</ele><time>2026-04-26T12:14:23.03Z</time></trkpt><trkpt lat="43.8284604" lon="12.302172"><ele>720.6666666666666</ele><time>2026-04-26T12:14:24.022Z</time></trkpt><trkpt lat="43.8286141" lon="12.3022069"><ele>718.3333333333333</ele><time>2026-04-26T12:14:25.026Z</time></trkpt><trkpt lat="43.8287705" lon="12.3022582"><ele>716.0</ele><time>2026-04-26T12:14:26.025Z</time></trkpt><trkpt lat="43.8289274" lon="12.302326"><ele>719.0</ele><time>2026-04-26T12:14:27.023Z</time></trkpt><trkpt lat="43.8290827" lon="12.3023977"><ele>722.0</ele><time>2026-04-26T12:14:28.024Z</time></trkpt><trkpt lat="43.8292294" lon="12.3024649"><ele>725.0</ele><time>2026-04-26T12:14:29.022Z</time></trkpt><trkpt lat="43.8293648" lon="12.3025247"><ele>725.0</ele><time>2026-04-26T12:14:30.025Z</time></trkpt><trkpt lat="43.8294875" lon="12.3025814"><ele>725.0</ele><time>2026-04-26T12:14:31.023Z</time></trkpt><trkpt lat="43.8295856" lon="12.3026469"><ele>725.0</ele><time>2026-04-26T12:14:32.024Z</time></trkpt><trkpt lat="43.8296569" lon="12.302721"><ele>725.0</ele><time>2026-04-26T12:14:33.024Z</time></trkpt><trkpt lat="43.8297123" lon="12.302801"><ele>725.0</ele><time>2026-04-26T12:14:34.022Z</time></trkpt><trkpt lat="43.8297206" lon="12.3028979"><ele>725.0</ele><time>2026-04-26T12:14:35.022Z</time></trkpt><trkpt lat="43.8296914" lon="12.3030065"><ele>725.0</ele><time>2026-04-26T12:14:36.023Z</time></trkpt><trkpt lat="43.8296458" lon="12.3031229"><ele>725.0</ele><time>2026-04-26T12:14:37.025Z</time></trkpt><trkpt lat="43.8295609" lon="12.3032479"><ele>725.0</ele><time>2026-04-26T12:14:38.031Z</time></trkpt><trkpt lat="43.8294591" lon="12.3034083"><ele>725.6666666666666</ele><time>2026-04-26T12:14:39.024Z</time></trkpt><trkpt lat="43.8293591" lon="12.3035993"><ele>726.3333333333334</ele><time>2026-04-26T12:14:40.027Z</time></trkpt><trkpt lat="43.8292601" lon="12.3038171"><ele>727.0</ele><time>2026-04-26T12:14:41.023Z</time></trkpt><trkpt lat="43.8291612" lon="12.3040514"><ele>727.3333333333334</ele><time>2026-04-26T12:14:42.022Z</time></trkpt><trkpt lat="43.8290728" lon="12.3042838"><ele>727.6666666666666</ele><time>2026-04-26T12:14:43.023Z</time></trkpt><trkpt lat="43.8289837" lon="12.3045023"><ele>728.0</ele><time>2026-04-26T12:14:44.025Z</time></trkpt><trkpt lat="43.8289035" lon="12.3047054"><ele>727.75</ele><time>2026-04-26T12:14:45.022Z</time></trkpt><trkpt lat="43.8288421" lon="12.30489"><ele>727.5</ele><time>2026-04-26T12:14:46.023Z</time></trkpt><trkpt lat="43.8288042" lon="12.3050602"><ele>727.25</ele><time>2026-04-26T12:14:47.024Z</time></trkpt><trkpt lat="43.828796" lon="12.3052068"><ele>727.0</ele><time>2026-04-26T12:14:48.024Z</time></trkpt><trkpt lat="43.8288188" lon="12.3053307"><ele>727.0</ele><time>2026-04-26T12:14:49.023Z</time></trkpt><trkpt lat="43.8288755" lon="12.3054297"><ele>727.0</ele><time>2026-04-26T12:14:50.023Z</time></trkpt><trkpt lat="43.8289699" lon="12.305496"><ele>727.0</ele><time>2026-04-26T12:14:51.023Z</time></trkpt><trkpt lat="43.8290843" lon="12.3055253"><ele>727.0</ele><time>2026-04-26T12:14:52.022Z</time></trkpt><trkpt lat="43.8292069" lon="12.3055134"><ele>727.0</ele><time>2026-04-26T12:14:53.023Z</time></trkpt><trkpt lat="43.8293329" lon="12.305454"><ele>725.5</ele><time>2026-04-26T12:14:54.024Z</time></trkpt><trkpt lat="43.8294586" lon="12.3053655"><ele>724.0</ele><time>2026-04-26T12:14:55.023Z</time></trkpt><trkpt lat="43.8295784" lon="12.3052821"><ele>722.5</ele><time>2026-04-26T12:14:56.023Z</time></trkpt><trkpt lat="43.8296941" lon="12.3052375"><ele>721.0</ele><time>2026-04-26T12:14:57.024Z</time></trkpt><trkpt lat="43.8298037" lon="12.3052427"><ele>721.0</ele><time>2026-04-26T12:14:58.022Z</time></trkpt><trkpt lat="43.8299211" lon="12.3052964"><ele>721.0</ele><time>2026-04-26T12:14:59.024Z</time></trkpt><trkpt lat="43.8300391" lon="12.3053819"><ele>721.0</ele><time>2026-04-26T12:15:00.024Z</time></trkpt><trkpt lat="43.830149" lon="12.305499"><ele>721.0</ele><time>2026-04-26T12:15:01.023Z</time></trkpt><trkpt lat="43.8302678" lon="12.3055888"><ele>717.75</ele><time>2026-04-26T12:15:02.023Z</time></trkpt><trkpt lat="43.8303761" lon="12.3056869"><ele>714.5</ele><time>2026-04-26T12:15:03.025Z</time></trkpt><trkpt lat="43.8304655" lon="12.3058185"><ele>711.25</ele><time>2026-04-26T12:15:04.023Z</time></trkpt><trkpt lat="43.8305465" lon="12.3059795"><ele>708.0</ele><time>2026-04-26T12:15:05.026Z</time></trkpt><trkpt lat="43.8306211" lon="12.3061636"><ele>708.0</ele><time>2026-04-26T12:15:06.025Z</time></trkpt><trkpt lat="43.8306962" lon="12.3063469"><ele>708.0</ele><time>2026-04-26T12:15:07.027Z</time></trkpt><trkpt lat="43.8307751" lon="12.3065191"><ele>708.0</ele><time>2026-04-26T12:15:08.023Z</time></trkpt><trkpt lat="43.8308505" lon="12.3066836"><ele>708.0</ele><time>2026-04-26T12:15:09.025Z</time></trkpt><trkpt lat="43.8309385" lon="12.306826"><ele>705.25</ele><time>2026-04-26T12:15:10.023Z</time></trkpt><trkpt lat="43.8310551" lon="12.3069255"><ele>702.5</ele><time>2026-04-26T12:15:11.022Z</time></trkpt><trkpt lat="43.8311882" lon="12.3069801"><ele>699.75</ele><time>2026-04-26T12:15:12.025Z</time></trkpt><trkpt lat="43.831316" lon="12.3070129"><ele>697.0</ele><time>2026-04-26T12:15:13.024Z</time></trkpt><trkpt lat="43.8314309" lon="12.3070571"><ele>697.0</ele><time>2026-04-26T12:15:14.023Z</time></trkpt><trkpt lat="43.8315341" lon="12.3071398"><ele>697.0</ele><time>2026-04-26T12:15:15.03Z</time></trkpt><trkpt lat="43.8316175" lon="12.3072569"><ele>697.0</ele><time>2026-04-26T12:15:16.025Z</time></trkpt><trkpt lat="43.8316766" lon="12.3074068"><ele>697.0</ele><time>2026-04-26T12:15:17.022Z</time></trkpt><trkpt lat="43.8317077" lon="12.3075813"><ele>698.75</ele><time>2026-04-26T12:15:18.024Z</time></trkpt><trkpt lat="43.8317128" lon="12.3077641"><ele>700.5</ele><time>2026-04-26T12:15:19.024Z</time></trkpt><trkpt lat="43.8317464" lon="12.3079235"><ele>702.25</ele><time>2026-04-26T12:15:20.024Z</time></trkpt><trkpt lat="43.8317906" lon="12.3080672"><ele>704.0</ele><time>2026-04-26T12:15:21.026Z</time></trkpt><trkpt lat="43.8318672" lon="12.3081682"><ele>704.0</ele><time>2026-04-26T12:15:22.023Z</time></trkpt><trkpt lat="43.8319667" lon="12.3082214"><ele>704.0</ele><time>2026-04-26T12:15:23.023Z</time></trkpt><trkpt lat="43.8320766" lon="12.3082273"><ele>704.0</ele><time>2026-04-26T12:15:24.025Z</time></trkpt><trkpt lat="43.8322001" lon="12.308191"><ele>704.0</ele><time>2026-04-26T12:15:25.025Z</time></trkpt><trkpt lat="43.8323292" lon="12.3081193"><ele>698.75</ele><time>2026-04-26T12:15:26.027Z</time></trkpt><trkpt lat="43.832453" lon="12.3080348"><ele>693.5</ele><time>2026-04-26T12:15:27.022Z</time></trkpt><trkpt lat="43.8325791" lon="12.307996"><ele>688.25</ele><time>2026-04-26T12:15:28.021Z</time></trkpt><trkpt lat="43.8327176" lon="12.3080015"><ele>683.0</ele><time>2026-04-26T12:15:29.022Z</time></trkpt><trkpt lat="43.8328604" lon="12.3080524"><ele>685.0</ele><time>2026-04-26T12:15:30.023Z</time></trkpt><trkpt lat="43.833022" lon="12.3081272"><ele>687.0</ele><time>2026-04-26T12:15:31.026Z</time></trkpt><trkpt lat="43.8331827" lon="12.308202"><ele>689.0</ele><time>2026-04-26T12:15:32.023Z</time></trkpt><trkpt lat="43.8333441" lon="12.308277"><ele>683.6666666666666</ele><time>2026-04-26T12:15:33.025Z</time></trkpt><trkpt lat="43.8335017" lon="12.3083565"><ele>678.3333333333334</ele><time>2026-04-26T12:15:34.021Z</time></trkpt><trkpt lat="43.833658" lon="12.3084547"><ele>673.0</ele><time>2026-04-26T12:15:35.025Z</time></trkpt><trkpt lat="43.8338125" lon="12.3085724"><ele>673.0</ele><time>2026-04-26T12:15:36.022Z</time></trkpt><trkpt lat="43.8339638" lon="12.3087071"><ele>673.0</ele><time>2026-04-26T12:15:37.025Z</time></trkpt><trkpt lat="43.8341114" lon="12.3088469"><ele>673.0</ele><time>2026-04-26T12:15:38.025Z</time></trkpt><trkpt lat="43.8342686" lon="12.3089574"><ele>672.6666666666667</ele><time>2026-04-26T12:15:39.022Z</time></trkpt><trkpt lat="43.8344341" lon="12.3090351"><ele>672.3333333333334</ele><time>2026-04-26T12:15:40.023Z</time></trkpt><trkpt lat="43.8346048" lon="12.3090934"><ele>672.0</ele><time>2026-04-26T12:15:41.024Z</time></trkpt><trkpt lat="43.8347813" lon="12.309148"><ele>672.0</ele><time>2026-04-26T12:15:42.023Z</time></trkpt><trkpt lat="43.8349689" lon="12.3091988"><ele>672.0</ele><time>2026-04-26T12:15:43.028Z</time></trkpt><trkpt lat="43.8351647" lon="12.3092448"><ele>672.0</ele><time>2026-04-26T12:15:44.026Z</time></trkpt><trkpt lat="43.8353682" lon="12.309284"><ele>668.6666666666666</ele><time>2026-04-26T12:15:45.025Z</time></trkpt><trkpt lat="43.8355759" lon="12.30932"><ele>665.3333333333333</ele><time>2026-04-26T12:15:46.026Z</time></trkpt><trkpt lat="43.8357763" lon="12.3093609"><ele>662.0</ele><time>2026-04-26T12:15:47.022Z</time></trkpt><trkpt lat="43.8359729" lon="12.3093968"><ele>661.0</ele><time>2026-04-26T12:15:48.025Z</time></trkpt><trkpt lat="43.83616" lon="12.3094333"><ele>660.0</ele><time>2026-04-26T12:15:49.024Z</time></trkpt><trkpt lat="43.8363343" lon="12.3094709"><ele>659.0</ele><time>2026-04-26T12:15:50.025Z</time></trkpt><trkpt lat="43.836501" lon="12.309504"><ele>659.0</ele><time>2026-04-26T12:15:51.022Z</time></trkpt><trkpt lat="43.8366468" lon="12.3095333"><ele>659.0</ele><time>2026-04-26T12:15:52.022Z</time></trkpt><trkpt lat="43.8367623" lon="12.309552"><ele>659.0</ele><time>2026-04-26T12:15:53.023Z</time></trkpt><trkpt lat="43.836855" lon="12.3095317"><ele>659.0</ele><time>2026-04-26T12:15:54.021Z</time></trkpt><trkpt lat="43.8369296" lon="12.3094473"><ele>657.5</ele><time>2026-04-26T12:15:55.027Z</time></trkpt><trkpt lat="43.8369793" lon="12.3093138"><ele>656.0</ele><time>2026-04-26T12:15:56.022Z</time></trkpt><trkpt lat="43.8370127" lon="12.3091205"><ele>654.5</ele><time>2026-04-26T12:15:57.025Z</time></trkpt><trkpt lat="43.8370425" lon="12.3089009"><ele>653.0</ele><time>2026-04-26T12:15:58.027Z</time></trkpt><trkpt lat="43.8370715" lon="12.3086643"><ele>651.3333333333333</ele><time>2026-04-26T12:15:59.023Z</time></trkpt><trkpt lat="43.837101" lon="12.3084278"><ele>649.6666666666666</ele><time>2026-04-26T12:16:00.023Z</time></trkpt><trkpt lat="43.8371244" lon="12.3082078"><ele>648.0</ele><time>2026-04-26T12:16:01.024Z</time></trkpt><trkpt lat="43.8371552" lon="12.3080178"><ele>647.8</ele><time>2026-04-26T12:16:02.024Z</time></trkpt><trkpt lat="43.8371919" lon="12.3078664"><ele>647.5999999999999</ele><time>2026-04-26T12:16:03.024Z</time></trkpt><trkpt lat="43.8372532" lon="12.307767"><ele>647.4000000000001</ele><time>2026-04-26T12:16:04.022Z</time></trkpt><trkpt lat="43.8373364" lon="12.3077176"><ele>647.2</ele><time>2026-04-26T12:16:05.022Z</time></trkpt><trkpt lat="43.8374324" lon="12.3077111"><ele>647.0</ele><time>2026-04-26T12:16:06.022Z</time></trkpt><trkpt lat="43.8375502" lon="12.3077469"><ele>641.3333333333333</ele><time>2026-04-26T12:16:07.024Z</time></trkpt><trkpt lat="43.837682" lon="12.3078164"><ele>635.6666666666666</ele><time>2026-04-26T12:16:08.024Z</time></trkpt><trkpt lat="43.83783" lon="12.3078988"><ele>630.0</ele><time>2026-04-26T12:16:09.026Z</time></trkpt><trkpt lat="43.8379932" lon="12.3079911"><ele>634.0</ele><time>2026-04-26T12:16:10.023Z</time></trkpt><trkpt lat="43.8381627" lon="12.3080927"><ele>638.0</ele><time>2026-04-26T12:16:11.024Z</time></trkpt><trkpt lat="43.8383204" lon="12.3082088"><ele>642.0</ele><time>2026-04-26T12:16:12.022Z</time></trkpt><trkpt lat="43.8384635" lon="12.308341"><ele>639.75</ele><time>2026-04-26T12:16:13.024Z</time></trkpt><trkpt lat="43.8385987" lon="12.308467"><ele>637.5</ele><time>2026-04-26T12:16:14.031Z</time></trkpt><trkpt lat="43.8387239" lon="12.3085798"><ele>635.25</ele><time>2026-04-26T12:16:15.026Z</time></trkpt><trkpt lat="43.8388318" lon="12.3086744"><ele>633.0</ele><time>2026-04-26T12:16:16.026Z</time></trkpt><trkpt lat="43.8389236" lon="12.3087592"><ele>633.0</ele><time>2026-04-26T12:16:17.023Z</time></trkpt><trkpt lat="43.8389915" lon="12.3088316"><ele>633.0</ele><time>2026-04-26T12:16:18.026Z</time></trkpt><trkpt lat="43.8390423" lon="12.3088875"><ele>633.0</ele><time>2026-04-26T12:16:19.026Z</time></trkpt><trkpt lat="43.8391171" lon="12.3089536"><ele>633.0</ele><time>2026-04-26T12:16:21.024Z</time></trkpt><trkpt lat="43.8391073" lon="12.3090786"><ele>633.0</ele><time>2026-04-26T12:16:28.024Z</time></trkpt><trkpt lat="43.8390835" lon="12.3091911"><ele>633.0</ele><time>2026-04-26T12:16:29.023Z</time></trkpt><trkpt lat="43.8390592" lon="12.3093297"><ele>633.75</ele><time>2026-04-26T12:16:30.026Z</time></trkpt><trkpt lat="43.839051" lon="12.3094966"><ele>634.5</ele><time>2026-04-26T12:16:31.024Z</time></trkpt><trkpt lat="43.8390673" lon="12.3096611"><ele>635.25</ele><time>2026-04-26T12:16:32.027Z</time></trkpt><trkpt lat="43.8391184" lon="12.3098219"><ele>636.0</ele><time>2026-04-26T12:16:33.023Z</time></trkpt><trkpt lat="43.8392031" lon="12.309985"><ele>633.6666666666666</ele><time>2026-04-26T12:16:34.024Z</time></trkpt><trkpt lat="43.8393033" lon="12.310155"><ele>631.3333333333333</ele><time>2026-04-26T12:16:35.023Z</time></trkpt><trkpt lat="43.8394083" lon="12.3103218"><ele>629.0</ele><time>2026-04-26T12:16:36.024Z</time></trkpt><trkpt lat="43.8395067" lon="12.3104919"><ele>632.6666666666666</ele><time>2026-04-26T12:16:37.022Z</time></trkpt><trkpt lat="43.8395871" lon="12.3106724"><ele>636.3333333333334</ele><time>2026-04-26T12:16:38.023Z</time></trkpt><trkpt lat="43.8396509" lon="12.3108708"><ele>640.0</ele><time>2026-04-26T12:16:39.024Z</time></trkpt><trkpt lat="43.8397198" lon="12.3110796"><ele>640.0</ele><time>2026-04-26T12:16:40.024Z</time></trkpt><trkpt lat="43.8397973" lon="12.3113013"><ele>640.0</ele><time>2026-04-26T12:16:41.025Z</time></trkpt><trkpt lat="43.8398815" lon="12.3115401"><ele>640.0</ele><time>2026-04-26T12:16:42.025Z</time></trkpt><trkpt lat="43.8399686" lon="12.3117922"><ele>640.0</ele><time>2026-04-26T12:16:43.025Z</time></trkpt><trkpt lat="43.8400585" lon="12.3120491"><ele>640.0</ele><time>2026-04-26T12:16:44.024Z</time></trkpt><trkpt lat="43.8401477" lon="12.3123045"><ele>640.0</ele><time>2026-04-26T12:16:45.023Z</time></trkpt><trkpt lat="43.8402298" lon="12.3125492"><ele>640.0</ele><time>2026-04-26T12:16:46.024Z</time></trkpt><trkpt lat="43.8403095" lon="12.3127764"><ele>640.0</ele><time>2026-04-26T12:16:47.023Z</time></trkpt><trkpt lat="43.8403912" lon="12.3129948"><ele>640.0</ele><time>2026-04-26T12:16:48.028Z</time></trkpt><trkpt lat="43.8404724" lon="12.3132077"><ele>641.6666666666667</ele><time>2026-04-26T12:16:49.025Z</time></trkpt><trkpt lat="43.8405513" lon="12.3134212"><ele>643.3333333333334</ele><time>2026-04-26T12:16:50.025Z</time></trkpt><trkpt lat="43.8406273" lon="12.3136305"><ele>645.0</ele><time>2026-04-26T12:16:51.025Z</time></trkpt><trkpt lat="43.8407037" lon="12.3138272"><ele>646.25</ele><time>2026-04-26T12:16:52.022Z</time></trkpt><trkpt lat="43.840774" lon="12.3140136"><ele>647.5</ele><time>2026-04-26T12:16:53.024Z</time></trkpt><trkpt lat="43.8408506" lon="12.3141742"><ele>648.75</ele><time>2026-04-26T12:16:54.024Z</time></trkpt><trkpt lat="43.8409354" lon="12.3142981"><ele>650.0</ele><time>2026-04-26T12:16:55.024Z</time></trkpt><trkpt lat="43.8410307" lon="12.3143883"><ele>647.0</ele><time>2026-04-26T12:16:56.023Z</time></trkpt><trkpt lat="43.8411398" lon="12.3144467"><ele>644.0</ele><time>2026-04-26T12:16:57.024Z</time></trkpt><trkpt lat="43.8412616" lon="12.3144746"><ele>641.0</ele><time>2026-04-26T12:16:58.024Z</time></trkpt><trkpt lat="43.8413893" lon="12.3144793"><ele>638.0</ele><time>2026-04-26T12:16:59.023Z</time></trkpt><trkpt lat="43.8415187" lon="12.3144715"><ele>638.0</ele><time>2026-04-26T12:17:00.025Z</time></trkpt><trkpt lat="43.8416443" lon="12.3144692"><ele>638.0</ele><time>2026-04-26T12:17:01.025Z</time></trkpt><trkpt lat="43.8417716" lon="12.314496"><ele>638.0</ele><time>2026-04-26T12:17:02.024Z</time></trkpt><trkpt lat="43.8418979" lon="12.3145555"><ele>638.0</ele><time>2026-04-26T12:17:03.023Z</time></trkpt><trkpt lat="43.8420205" lon="12.3146314"><ele>636.25</ele><time>2026-04-26T12:17:04.023Z</time></trkpt><trkpt lat="43.8421271" lon="12.314723"><ele>634.5</ele><time>2026-04-26T12:17:05.023Z</time></trkpt><trkpt lat="43.8422174" lon="12.314833"><ele>632.75</ele><time>2026-04-26T12:17:06.023Z</time></trkpt><trkpt lat="43.8422843" lon="12.3149732"><ele>631.0</ele><time>2026-04-26T12:17:07.024Z</time></trkpt><trkpt lat="43.8423313" lon="12.3151456"><ele>631.0</ele><time>2026-04-26T12:17:08.022Z</time></trkpt><trkpt lat="43.8423629" lon="12.3153447"><ele>631.0</ele><time>2026-04-26T12:17:09.023Z</time></trkpt><trkpt lat="43.8423896" lon="12.3155626"><ele>631.0</ele><time>2026-04-26T12:17:10.022Z</time></trkpt><trkpt lat="43.8424209" lon="12.3157899"><ele>634.0</ele><time>2026-04-26T12:17:11.022Z</time></trkpt><trkpt lat="43.8424491" lon="12.3160156"><ele>637.0</ele><time>2026-04-26T12:17:12.025Z</time></trkpt><trkpt lat="43.8424685" lon="12.3162314"><ele>640.0</ele><time>2026-04-26T12:17:13.024Z</time></trkpt><trkpt lat="43.8424771" lon="12.3164405"><ele>640.25</ele><time>2026-04-26T12:17:14.024Z</time></trkpt><trkpt lat="43.8424595" lon="12.3166458"><ele>640.5</ele><time>2026-04-26T12:17:15.024Z</time></trkpt><trkpt lat="43.8424235" lon="12.316839"><ele>640.75</ele><time>2026-04-26T12:17:16.022Z</time></trkpt><trkpt lat="43.8423669" lon="12.3170093"><ele>641.0</ele><time>2026-04-26T12:17:17.022Z</time></trkpt><trkpt lat="43.8422969" lon="12.3171614"><ele>640.4</ele><time>2026-04-26T12:17:18.025Z</time></trkpt><trkpt lat="43.8422347" lon="12.3173068"><ele>639.8</ele><time>2026-04-26T12:17:19.024Z</time></trkpt><trkpt lat="43.8422018" lon="12.3174461"><ele>639.1999999999999</ele><time>2026-04-26T12:17:20.024Z</time></trkpt><trkpt lat="43.8421936" lon="12.3175857"><ele>638.5999999999999</ele><time>2026-04-26T12:17:21.026Z</time></trkpt><trkpt lat="43.8422155" lon="12.3177322"><ele>638.0</ele><time>2026-04-26T12:17:22.023Z</time></trkpt><trkpt lat="43.842272" lon="12.3178792"><ele>638.0</ele><time>2026-04-26T12:17:23.023Z</time></trkpt><trkpt lat="43.8423622" lon="12.3180159"><ele>638.0</ele><time>2026-04-26T12:17:24.023Z</time></trkpt><trkpt lat="43.8424898" lon="12.3181242"><ele>638.0</ele><time>2026-04-26T12:17:25.025Z</time></trkpt><trkpt lat="43.8426413" lon="12.3182204"><ele>641.6666666666666</ele><time>2026-04-26T12:17:26.027Z</time></trkpt><trkpt lat="43.8428079" lon="12.3183134"><ele>645.3333333333334</ele><time>2026-04-26T12:17:27.024Z</time></trkpt><trkpt lat="43.8429849" lon="12.3184002"><ele>649.0</ele><time>2026-04-26T12:17:28.025Z</time></trkpt><trkpt lat="43.8431612" lon="12.3184702"><ele>649.0</ele><time>2026-04-26T12:17:29.023Z</time></trkpt><trkpt lat="43.8433276" lon="12.318525"><ele>649.0</ele><time>2026-04-26T12:17:30.024Z</time></trkpt><trkpt lat="43.8434829" lon="12.3185806"><ele>649.0</ele><time>2026-04-26T12:17:31.027Z</time></trkpt><trkpt lat="43.8436297" lon="12.3186555"><ele>649.0</ele><time>2026-04-26T12:17:32.024Z</time></trkpt><trkpt lat="43.8437775" lon="12.3187586"><ele>649.0</ele><time>2026-04-26T12:17:33.025Z</time></trkpt><trkpt lat="43.843931" lon="12.3188641"><ele>649.0</ele><time>2026-04-26T12:17:34.024Z</time></trkpt><trkpt lat="43.8440991" lon="12.3189443"><ele>654.3333333333334</ele><time>2026-04-26T12:17:35.023Z</time></trkpt><trkpt lat="43.8442715" lon="12.3189901"><ele>659.6666666666666</ele><time>2026-04-26T12:17:36.025Z</time></trkpt><trkpt lat="43.8444336" lon="12.3190195"><ele>665.0</ele><time>2026-04-26T12:17:37.026Z</time></trkpt><trkpt lat="43.8445898" lon="12.3190559"><ele>665.0</ele><time>2026-04-26T12:17:38.022Z</time></trkpt><trkpt lat="43.8447387" lon="12.31912"><ele>665.0</ele><time>2026-04-26T12:17:39.029Z</time></trkpt><trkpt lat="43.8448726" lon="12.3191973"><ele>665.0</ele><time>2026-04-26T12:17:40.024Z</time></trkpt><trkpt lat="43.8449797" lon="12.3192825"><ele>665.0</ele><time>2026-04-26T12:17:41.025Z</time></trkpt><trkpt lat="43.8450578" lon="12.3193341"><ele>665.0</ele><time>2026-04-26T12:17:42.031Z</time></trkpt><trkpt lat="43.8451426" lon="12.3193684"><ele>665.0</ele><time>2026-04-26T12:17:44.027Z</time></trkpt><trkpt lat="43.8451868" lon="12.3194357"><ele>665.0</ele><time>2026-04-26T12:17:48.025Z</time></trkpt><trkpt lat="43.8451293" lon="12.3193599"><ele>665.0</ele><time>2026-04-26T12:17:52.024Z</time></trkpt><trkpt lat="43.8450665" lon="12.3193831"><ele>665.0</ele><time>2026-04-26T12:17:53.024Z</time></trkpt><trkpt lat="43.8449542" lon="12.3193772"><ele>665.0</ele><time>2026-04-26T12:17:55.026Z</time></trkpt><trkpt lat="43.8448618" lon="12.3194062"><ele>665.0</ele><time>2026-04-26T12:17:56.024Z</time></trkpt><trkpt lat="43.8447516" lon="12.3194548"><ele>665.0</ele><time>2026-04-26T12:17:57.026Z</time></trkpt><trkpt lat="43.8446183" lon="12.3195183"><ele>665.0</ele><time>2026-04-26T12:17:58.024Z</time></trkpt><trkpt lat="43.8445011" lon="12.3195805"><ele>665.0</ele><time>2026-04-26T12:17:59.024Z</time></trkpt><trkpt lat="43.8444018" lon="12.3196559"><ele>668.0</ele><time>2026-04-26T12:18:00.025Z</time></trkpt><trkpt lat="43.8443166" lon="12.3197467"><ele>671.0</ele><time>2026-04-26T12:18:01.026Z</time></trkpt><trkpt lat="43.844247" lon="12.3198642"><ele>674.0</ele><time>2026-04-26T12:18:02.026Z</time></trkpt><trkpt lat="43.844196" lon="12.3199931"><ele>677.0</ele><time>2026-04-26T12:18:03.027Z</time></trkpt><trkpt lat="43.8441367" lon="12.3200829"><ele>680.0</ele><time>2026-04-26T12:18:04.026Z</time></trkpt><trkpt lat="43.8440645" lon="12.3201344"><ele>680.8</ele><time>2026-04-26T12:18:05.026Z</time></trkpt><trkpt lat="43.8439789" lon="12.3201683"><ele>681.6</ele><time>2026-04-26T12:18:06.025Z</time></trkpt><trkpt lat="43.8438848" lon="12.3201902"><ele>682.4000000000001</ele><time>2026-04-26T12:18:07.025Z</time></trkpt><trkpt lat="43.8437791" lon="12.3201887"><ele>683.2</ele><time>2026-04-26T12:18:08.027Z</time></trkpt><trkpt lat="43.8436597" lon="12.3201345"><ele>684.0</ele><time>2026-04-26T12:18:09.025Z</time></trkpt><trkpt lat="43.8435655" lon="12.3200832"><ele>684.0</ele><time>2026-04-26T12:18:10.028Z</time></trkpt><trkpt lat="43.8434855" lon="12.3200323"><ele>684.0</ele><time>2026-04-26T12:18:11.025Z</time></trkpt><trkpt lat="43.8434164" lon="12.319964"><ele>684.0</ele><time>2026-04-26T12:18:12.023Z</time></trkpt><trkpt lat="43.8433485" lon="12.319913"><ele>684.0</ele><time>2026-04-26T12:18:13.024Z</time></trkpt><trkpt lat="43.8432812" lon="12.3198628"><ele>684.0</ele><time>2026-04-26T12:18:14.024Z</time></trkpt><trkpt lat="43.8432127" lon="12.3198356"><ele>684.0</ele><time>2026-04-26T12:18:15.025Z</time></trkpt><trkpt lat="43.8431475" lon="12.3198334"><ele>685.8333333333334</ele><time>2026-04-26T12:18:16.024Z</time></trkpt><trkpt lat="43.8430844" lon="12.3198593"><ele>687.6666666666666</ele><time>2026-04-26T12:18:17.023Z</time></trkpt><trkpt lat="43.8430303" lon="12.3199127"><ele>689.5</ele><time>2026-04-26T12:18:18.024Z</time></trkpt><trkpt lat="43.8429766" lon="12.3199854"><ele>691.3333333333333</ele><time>2026-04-26T12:18:19.024Z</time></trkpt><trkpt lat="43.84293" lon="12.3200491"><ele>693.1666666666666</ele><time>2026-04-26T12:18:20.022Z</time></trkpt><trkpt lat="43.8428231" lon="12.3201153"><ele>695.0</ele><time>2026-04-26T12:18:22.023Z</time></trkpt><trkpt lat="43.8427223" lon="12.3201557"><ele>694.4</ele><time>2026-04-26T12:18:24.024Z</time></trkpt><trkpt lat="43.8426116" lon="12.3202089"><ele>693.8</ele><time>2026-04-26T12:18:26.024Z</time></trkpt><trkpt lat="43.8425411" lon="12.3202396"><ele>693.2</ele><time>2026-04-26T12:18:27.023Z</time></trkpt><trkpt lat="43.8424626" lon="12.3202806"><ele>692.6</ele><time>2026-04-26T12:18:28.022Z</time></trkpt><trkpt lat="43.8423798" lon="12.3203337"><ele>692.0</ele><time>2026-04-26T12:18:29.023Z</time></trkpt><trkpt lat="43.84229" lon="12.3203871"><ele>692.0</ele><time>2026-04-26T12:18:30.026Z</time></trkpt><trkpt lat="43.8421993" lon="12.3204415"><ele>692.0</ele><time>2026-04-26T12:18:31.024Z</time></trkpt><trkpt lat="43.8421124" lon="12.3205015"><ele>692.0</ele><time>2026-04-26T12:18:32.024Z</time></trkpt><trkpt lat="43.8420235" lon="12.3205646"><ele>692.0</ele><time>2026-04-26T12:18:33.023Z</time></trkpt><trkpt lat="43.8419339" lon="12.3206431"><ele>692.0</ele><time>2026-04-26T12:18:34.023Z</time></trkpt><trkpt lat="43.8418428" lon="12.3207334"><ele>694.0</ele><time>2026-04-26T12:18:35.025Z</time></trkpt><trkpt lat="43.8417554" lon="12.3208338"><ele>696.0</ele><time>2026-04-26T12:18:36.021Z</time></trkpt><trkpt lat="43.8416611" lon="12.3209335"><ele>698.0</ele><time>2026-04-26T12:18:37.028Z</time></trkpt><trkpt lat="43.8415689" lon="12.3210374"><ele>700.0</ele><time>2026-04-26T12:18:38.023Z</time></trkpt><trkpt lat="43.8414837" lon="12.3211394"><ele>700.0</ele><time>2026-04-26T12:18:39.024Z</time></trkpt><trkpt lat="43.8414047" lon="12.3212259"><ele>700.0</ele><time>2026-04-26T12:18:40.023Z</time></trkpt><trkpt lat="43.84133" lon="12.3213107"><ele>700.0</ele><time>2026-04-26T12:18:41.024Z</time></trkpt><trkpt lat="43.8412556" lon="12.3213855"><ele>700.0</ele><time>2026-04-26T12:18:42.025Z</time></trkpt><trkpt lat="43.8411819" lon="12.3214678"><ele>700.0</ele><time>2026-04-26T12:18:43.022Z</time></trkpt><trkpt lat="43.8410976" lon="12.321546"><ele>702.0</ele><time>2026-04-26T12:18:44.024Z</time></trkpt><trkpt lat="43.8410089" lon="12.3216364"><ele>704.0</ele><time>2026-04-26T12:18:45.025Z</time></trkpt><trkpt lat="43.84091" lon="12.3217304"><ele>706.0</ele><time>2026-04-26T12:18:46.024Z</time></trkpt><trkpt lat="43.8408025" lon="12.3218181"><ele>708.0</ele><time>2026-04-26T12:18:47.025Z</time></trkpt><trkpt lat="43.8406961" lon="12.3218973"><ele>708.5</ele><time>2026-04-26T12:18:48.023Z</time></trkpt><trkpt lat="43.8405965" lon="12.321957"><ele>709.0</ele><time>2026-04-26T12:18:49.024Z</time></trkpt><trkpt lat="43.8405054" lon="12.3220024"><ele>709.5</ele><time>2026-04-26T12:18:50.028Z</time></trkpt><trkpt lat="43.8404222" lon="12.3220327"><ele>710.0</ele><time>2026-04-26T12:18:51.024Z</time></trkpt><trkpt lat="43.8403464" lon="12.3220514"><ele>710.5</ele><time>2026-04-26T12:18:52.023Z</time></trkpt><trkpt lat="43.8402766" lon="12.3220563"><ele>711.0</ele><time>2026-04-26T12:18:53.023Z</time></trkpt><trkpt lat="43.8402095" lon="12.3220546"><ele>711.0</ele><time>2026-04-26T12:18:54.025Z</time></trkpt><trkpt lat="43.8401438" lon="12.3220707"><ele>711.0</ele><time>2026-04-26T12:18:55.024Z</time></trkpt><trkpt lat="43.8400826" lon="12.3221103"><ele>711.0</ele><time>2026-04-26T12:18:56.024Z</time></trkpt><trkpt lat="43.8400231" lon="12.3221502"><ele>711.0</ele><time>2026-04-26T12:18:57.025Z</time></trkpt><trkpt lat="43.8399304" lon="12.3222529"><ele>711.0</ele><time>2026-04-26T12:18:59.022Z</time></trkpt><trkpt lat="43.839833" lon="12.3223676"><ele>711.0</ele><time>2026-04-26T12:19:01.022Z</time></trkpt><trkpt lat="43.8397795" lon="12.3224196"><ele>716.0</ele><time>2026-04-26T12:19:02.023Z</time></trkpt><trkpt lat="43.8396901" lon="12.3225252"><ele>721.0</ele><time>2026-04-26T12:19:04.023Z</time></trkpt><trkpt lat="43.839638" lon="12.3226293"><ele>726.0</ele><time>2026-04-26T12:19:06.024Z</time></trkpt><trkpt lat="43.8396124" lon="12.3227566"><ele>731.0</ele><time>2026-04-26T12:19:08.023Z</time></trkpt><trkpt lat="43.8395859" lon="12.3229141"><ele>736.0</ele><time>2026-04-26T12:19:10.024Z</time></trkpt><trkpt lat="43.8395814" lon="12.3230101"><ele>736.5714285714286</ele><time>2026-04-26T12:19:11.023Z</time></trkpt><trkpt lat="43.8395683" lon="12.3230968"><ele>737.1428571428571</ele><time>2026-04-26T12:19:12.023Z</time></trkpt><trkpt lat="43.8395175" lon="12.3232399"><ele>737.7142857142857</ele><time>2026-04-26T12:19:14.025Z</time></trkpt><trkpt lat="43.8394687" lon="12.3233048"><ele>738.2857142857142</ele><time>2026-04-26T12:19:15.023Z</time></trkpt><trkpt lat="43.8394168" lon="12.323357"><ele>738.8571428571429</ele><time>2026-04-26T12:19:16.026Z</time></trkpt><trkpt lat="43.839361" lon="12.3234079"><ele>739.4285714285713</ele><time>2026-04-26T12:19:17.022Z</time></trkpt><trkpt lat="43.8393093" lon="12.3234593"><ele>740.0</ele><time>2026-04-26T12:19:18.024Z</time></trkpt><trkpt lat="43.8392533" lon="12.3235755"><ele>740.0</ele><time>2026-04-26T12:19:20.026Z</time></trkpt><trkpt lat="43.8392657" lon="12.3237235"><ele>740.0</ele><time>2026-04-26T12:19:22.023Z</time></trkpt><trkpt lat="43.8392938" lon="12.3238143"><ele>740.0</ele><time>2026-04-26T12:19:23.023Z</time></trkpt><trkpt lat="43.8393351" lon="12.3239121"><ele>740.0</ele><time>2026-04-26T12:19:24.023Z</time></trkpt><trkpt lat="43.8393833" lon="12.3240002"><ele>740.0</ele><time>2026-04-26T12:19:25.024Z</time></trkpt><trkpt lat="43.8394307" lon="12.3240682"><ele>740.0</ele><time>2026-04-26T12:19:26.022Z</time></trkpt><trkpt lat="43.8395355" lon="12.3241054"><ele>747.0</ele><time>2026-04-26T12:19:28.024Z</time></trkpt><trkpt lat="43.8396477" lon="12.3240424"><ele>754.0</ele><time>2026-04-26T12:19:30.023Z</time></trkpt><trkpt lat="43.8397588" lon="12.3240542"><ele>761.0</ele><time>2026-04-26T12:19:32.023Z</time></trkpt><trkpt lat="43.8398549" lon="12.3241137"><ele>768.0</ele><time>2026-04-26T12:19:34.023Z</time></trkpt><trkpt lat="43.8399713" lon="12.3241664"><ele>768.0</ele><time>2026-04-26T12:19:36.024Z</time></trkpt><trkpt lat="43.8400375" lon="12.324176"><ele>768.0</ele><time>2026-04-26T12:19:37.027Z</time></trkpt><trkpt lat="43.8401083" lon="12.3241846"><ele>768.0</ele><time>2026-04-26T12:19:38.023Z</time></trkpt><trkpt lat="43.8401816" lon="12.3241917"><ele>768.0</ele><time>2026-04-26T12:19:39.024Z</time></trkpt><trkpt lat="43.8402658" lon="12.3241918"><ele>768.0</ele><time>2026-04-26T12:19:40.025Z</time></trkpt><trkpt lat="43.8403639" lon="12.3241898"><ele>768.0</ele><time>2026-04-26T12:19:41.025Z</time></trkpt><trkpt lat="43.8404697" lon="12.3241758"><ele>770.0</ele><time>2026-04-26T12:19:42.026Z</time></trkpt><trkpt lat="43.8405753" lon="12.3241405"><ele>772.0</ele><time>2026-04-26T12:19:43.024Z</time></trkpt><trkpt lat="43.8406764" lon="12.3240952"><ele>774.0</ele><time>2026-04-26T12:19:44.023Z</time></trkpt><trkpt lat="43.8407821" lon="12.3240377"><ele>776.0</ele><time>2026-04-26T12:19:45.027Z</time></trkpt><trkpt lat="43.8408975" lon="12.3239685"><ele>773.25</ele><time>2026-04-26T12:19:46.024Z</time></trkpt><trkpt lat="43.8410178" lon="12.3238899"><ele>770.5</ele><time>2026-04-26T12:19:47.025Z</time></trkpt><trkpt lat="43.8411333" lon="12.3238"><ele>767.75</ele><time>2026-04-26T12:19:48.026Z</time></trkpt><trkpt lat="43.8412434" lon="12.3237207"><ele>765.0</ele><time>2026-04-26T12:19:49.021Z</time></trkpt><trkpt lat="43.8413377" lon="12.323651"><ele>765.0</ele><time>2026-04-26T12:19:50.023Z</time></trkpt><trkpt lat="43.8414153" lon="12.3235993"><ele>765.0</ele><time>2026-04-26T12:19:51.022Z</time></trkpt><trkpt lat="43.8414866" lon="12.3235619"><ele>765.0</ele><time>2026-04-26T12:19:52.024Z</time></trkpt><trkpt lat="43.8415607" lon="12.3235327"><ele>765.0</ele><time>2026-04-26T12:19:53.023Z</time></trkpt><trkpt lat="43.8416418" lon="12.3235289"><ele>765.0</ele><time>2026-04-26T12:19:54.022Z</time></trkpt><trkpt lat="43.8417331" lon="12.3235596"><ele>765.0</ele><time>2026-04-26T12:19:55.026Z</time></trkpt><trkpt lat="43.8418322" lon="12.3235963"><ele>767.6</ele><time>2026-04-26T12:19:56.024Z</time></trkpt><trkpt lat="43.8419381" lon="12.3236379"><ele>770.2</ele><time>2026-04-26T12:19:57.023Z</time></trkpt><trkpt lat="43.8420477" lon="12.3236734"><ele>772.8</ele><time>2026-04-26T12:19:58.022Z</time></trkpt><trkpt lat="43.8421553" lon="12.3236957"><ele>775.4</ele><time>2026-04-26T12:19:59.022Z</time></trkpt><trkpt lat="43.8422431" lon="12.3237102"><ele>778.0</ele><time>2026-04-26T12:20:00.024Z</time></trkpt><trkpt lat="43.8423156" lon="12.3236994"><ele>777.9999999999999</ele><time>2026-04-26T12:20:01.023Z</time></trkpt><trkpt lat="43.8423813" lon="12.3236641"><ele>778.0</ele><time>2026-04-26T12:20:02.024Z</time></trkpt><trkpt lat="43.8424492" lon="12.3236177"><ele>778.0</ele><time>2026-04-26T12:20:03.024Z</time></trkpt><trkpt lat="43.8425246" lon="12.3235452"><ele>778.0</ele><time>2026-04-26T12:20:04.025Z</time></trkpt><trkpt lat="43.8426075" lon="12.3234572"><ele>777.9999999999999</ele><time>2026-04-26T12:20:05.022Z</time></trkpt><trkpt lat="43.8426905" lon="12.3233797"><ele>778.0</ele><time>2026-04-26T12:20:06.022Z</time></trkpt><trkpt lat="43.8427746" lon="12.3233118"><ele>778.4</ele><time>2026-04-26T12:20:07.024Z</time></trkpt><trkpt lat="43.8428583" lon="12.32325"><ele>778.8</ele><time>2026-04-26T12:20:08.023Z</time></trkpt><trkpt lat="43.8429433" lon="12.3231841"><ele>779.2</ele><time>2026-04-26T12:20:09.023Z</time></trkpt><trkpt lat="43.8430326" lon="12.3231205"><ele>779.6</ele><time>2026-04-26T12:20:10.025Z</time></trkpt><trkpt lat="43.8431216" lon="12.3230614"><ele>780.0</ele><time>2026-04-26T12:20:11.028Z</time></trkpt><trkpt lat="43.843209" lon="12.323013"><ele>776.3333333333334</ele><time>2026-04-26T12:20:12.026Z</time></trkpt><trkpt lat="43.8432906" lon="12.322974"><ele>772.6666666666666</ele><time>2026-04-26T12:20:13.024Z</time></trkpt><trkpt lat="43.8433663" lon="12.3229481"><ele>769.0</ele><time>2026-04-26T12:20:14.023Z</time></trkpt><trkpt lat="43.8434405" lon="12.3229309"><ele>765.3333333333333</ele><time>2026-04-26T12:20:15.023Z</time></trkpt><trkpt lat="43.8435122" lon="12.3229227"><ele>761.6666666666666</ele><time>2026-04-26T12:20:16.023Z</time></trkpt><trkpt lat="43.8435807" lon="12.3229322"><ele>758.0</ele><time>2026-04-26T12:20:17.022Z</time></trkpt><trkpt lat="43.8436486" lon="12.3229789"><ele>760.25</ele><time>2026-04-26T12:20:18.026Z</time></trkpt><trkpt lat="43.8437366" lon="12.3230838"><ele>762.5</ele><time>2026-04-26T12:20:19.024Z</time></trkpt><trkpt lat="43.8438325" lon="12.3231984"><ele>764.75</ele><time>2026-04-26T12:20:20.026Z</time></trkpt><trkpt lat="43.8439333" lon="12.3232974"><ele>767.0</ele><time>2026-04-26T12:20:21.023Z</time></trkpt><trkpt lat="43.8440365" lon="12.3233656"><ele>767.0</ele><time>2026-04-26T12:20:22.024Z</time></trkpt><trkpt lat="43.8441401" lon="12.3233975"><ele>767.0</ele><time>2026-04-26T12:20:23.024Z</time></trkpt><trkpt lat="43.8442556" lon="12.3233942"><ele>767.0</ele><time>2026-04-26T12:20:24.025Z</time></trkpt><trkpt lat="43.8443802" lon="12.3233768"><ele>767.0</ele><time>2026-04-26T12:20:25.024Z</time></trkpt><trkpt lat="43.8445137" lon="12.3233682"><ele>766.5</ele><time>2026-04-26T12:20:26.025Z</time></trkpt><trkpt lat="43.8446488" lon="12.3233772"><ele>766.0</ele><time>2026-04-26T12:20:27.025Z</time></trkpt><trkpt lat="43.8447804" lon="12.3234108"><ele>765.5</ele><time>2026-04-26T12:20:28.022Z</time></trkpt><trkpt lat="43.84491" lon="12.3234587"><ele>765.0</ele><time>2026-04-26T12:20:29.027Z</time></trkpt><trkpt lat="43.8450284" lon="12.3235021"><ele>763.5</ele><time>2026-04-26T12:20:30.026Z</time></trkpt><trkpt lat="43.8451319" lon="12.3235317"><ele>762.0</ele><time>2026-04-26T12:20:31.023Z</time></trkpt><trkpt lat="43.8452202" lon="12.3235482"><ele>760.5</ele><time>2026-04-26T12:20:32.023Z</time></trkpt><trkpt lat="43.8452992" lon="12.3235588"><ele>759.0</ele><time>2026-04-26T12:20:33.024Z</time></trkpt><trkpt lat="43.8453793" lon="12.3235735"><ele>757.5</ele><time>2026-04-26T12:20:34.024Z</time></trkpt><trkpt lat="43.8454615" lon="12.3236071"><ele>756.0</ele><time>2026-04-26T12:20:35.024Z</time></trkpt><trkpt lat="43.8455474" lon="12.3236545"><ele>756.0</ele><time>2026-04-26T12:20:36.022Z</time></trkpt><trkpt lat="43.8456319" lon="12.3237181"><ele>756.0</ele><time>2026-04-26T12:20:37.023Z</time></trkpt><trkpt lat="43.8457123" lon="12.3237974"><ele>756.0</ele><time>2026-04-26T12:20:38.023Z</time></trkpt><trkpt lat="43.8457797" lon="12.3238916"><ele>756.0</ele><time>2026-04-26T12:20:39.024Z</time></trkpt><trkpt lat="43.8458338" lon="12.3239945"><ele>756.0</ele><time>2026-04-26T12:20:40.024Z</time></trkpt><trkpt lat="43.845872" lon="12.32411"><ele>757.5999999999999</ele><time>2026-04-26T12:20:41.027Z</time></trkpt><trkpt lat="43.8458899" lon="12.3242456"><ele>759.2</ele><time>2026-04-26T12:20:42.022Z</time></trkpt><trkpt lat="43.8458984" lon="12.3243991"><ele>760.8</ele><time>2026-04-26T12:20:43.025Z</time></trkpt><trkpt lat="43.8459024" lon="12.324562"><ele>762.4000000000001</ele><time>2026-04-26T12:20:44.024Z</time></trkpt><trkpt lat="43.8459016" lon="12.3247235"><ele>764.0</ele><time>2026-04-26T12:20:45.022Z</time></trkpt><trkpt lat="43.8458981" lon="12.3248732"><ele>764.6</ele><time>2026-04-26T12:20:46.026Z</time></trkpt><trkpt lat="43.8459075" lon="12.3250127"><ele>765.2</ele><time>2026-04-26T12:20:47.025Z</time></trkpt><trkpt lat="43.8459259" lon="12.325156"><ele>765.8000000000001</ele><time>2026-04-26T12:20:48.028Z</time></trkpt><trkpt lat="43.8459564" lon="12.3252996"><ele>766.4000000000001</ele><time>2026-04-26T12:20:49.025Z</time></trkpt><trkpt lat="43.8459976" lon="12.3254519"><ele>767.0</ele><time>2026-04-26T12:20:50.022Z</time></trkpt><trkpt lat="43.8460541" lon="12.325621"><ele>767.0</ele><time>2026-04-26T12:20:51.024Z</time></trkpt><trkpt lat="43.8461231" lon="12.3258039"><ele>767.0</ele><time>2026-04-26T12:20:52.023Z</time></trkpt><trkpt lat="43.8462082" lon="12.3259776"><ele>767.0</ele><time>2026-04-26T12:20:53.022Z</time></trkpt><trkpt lat="43.8463013" lon="12.3261412"><ele>767.0</ele><time>2026-04-26T12:20:54.025Z</time></trkpt><trkpt lat="43.8463928" lon="12.3262954"><ele>767.0</ele><time>2026-04-26T12:20:55.023Z</time></trkpt><trkpt lat="43.8464768" lon="12.3264388"><ele>767.0</ele><time>2026-04-26T12:20:56.022Z</time></trkpt><trkpt lat="43.8465391" lon="12.3265657"><ele>767.0</ele><time>2026-04-26T12:20:57.024Z</time></trkpt><trkpt lat="43.8465874" lon="12.3266776"><ele>768.8</ele><time>2026-04-26T12:20:58.023Z</time></trkpt><trkpt lat="43.8466472" lon="12.3267752"><ele>770.6</ele><time>2026-04-26T12:20:59.024Z</time></trkpt><trkpt lat="43.8467231" lon="12.3268493"><ele>772.4</ele><time>2026-04-26T12:21:00.023Z</time></trkpt><trkpt lat="43.8468159" lon="12.3269082"><ele>774.1999999999999</ele><time>2026-04-26T12:21:01.024Z</time></trkpt><trkpt lat="43.8469188" lon="12.3269607"><ele>776.0</ele><time>2026-04-26T12:21:02.023Z</time></trkpt><trkpt lat="43.8470175" lon="12.3270164"><ele>776.0000000000001</ele><time>2026-04-26T12:21:03.024Z</time></trkpt><trkpt lat="43.8471044" lon="12.3270734"><ele>776.0</ele><time>2026-04-26T12:21:04.023Z</time></trkpt><trkpt lat="43.8471826" lon="12.3271274"><ele>776.0</ele><time>2026-04-26T12:21:05.025Z</time></trkpt><trkpt lat="43.8472501" lon="12.3271744"><ele>776.0</ele><time>2026-04-26T12:21:06.026Z</time></trkpt><trkpt lat="43.8473088" lon="12.3272116"><ele>776.0000000000001</ele><time>2026-04-26T12:21:07.022Z</time></trkpt><trkpt lat="43.8474177" lon="12.3272399"><ele>776.0</ele><time>2026-04-26T12:21:09.022Z</time></trkpt><trkpt lat="43.8475078" lon="12.3271696"><ele>776.0000000000001</ele><time>2026-04-26T12:21:11.025Z</time></trkpt><trkpt lat="43.8475332" lon="12.3270876"><ele>776.0</ele><time>2026-04-26T12:21:12.024Z</time></trkpt><trkpt lat="43.8475679" lon="12.3269384"><ele>776.0</ele><time>2026-04-26T12:21:14.023Z</time></trkpt><trkpt lat="43.8476115" lon="12.326858"><ele>776.0</ele><time>2026-04-26T12:21:16.025Z</time></trkpt><trkpt lat="43.8477037" lon="12.3268039"><ele>776.0000000000001</ele><time>2026-04-26T12:21:18.023Z</time></trkpt><trkpt lat="43.8477756" lon="12.3267869"><ele>776.0</ele><time>2026-04-26T12:21:19.023Z</time></trkpt><trkpt lat="43.847861" lon="12.3267617"><ele>776.0</ele><time>2026-04-26T12:21:20.023Z</time></trkpt><trkpt lat="43.8479538" lon="12.3267116"><ele>776.0</ele><time>2026-04-26T12:21:21.028Z</time></trkpt><trkpt lat="43.8480474" lon="12.3266423"><ele>776.0</ele><time>2026-04-26T12:21:22.023Z</time></trkpt><trkpt lat="43.8481399" lon="12.3265652"><ele>776.0</ele><time>2026-04-26T12:21:23.022Z</time></trkpt><trkpt lat="43.8482281" lon="12.3264792"><ele>776.0</ele><time>2026-04-26T12:21:24.023Z</time></trkpt><trkpt lat="43.8483188" lon="12.3263847"><ele>776.0</ele><time>2026-04-26T12:21:25.024Z</time></trkpt><trkpt lat="43.8484112" lon="12.3262641"><ele>776.0</ele><time>2026-04-26T12:21:26.027Z</time></trkpt><trkpt lat="43.8485002" lon="12.3261214"><ele>776.0</ele><time>2026-04-26T12:21:27.024Z</time></trkpt><trkpt lat="43.8485848" lon="12.3259882"><ele>776.0</ele><time>2026-04-26T12:21:28.024Z</time></trkpt><trkpt lat="43.8486626" lon="12.3258725"><ele>778.4</ele><time>2026-04-26T12:21:29.022Z</time></trkpt><trkpt lat="43.8487459" lon="12.3257851"><ele>780.8</ele><time>2026-04-26T12:21:30.025Z</time></trkpt><trkpt lat="43.8488433" lon="12.3257362"><ele>783.1999999999999</ele><time>2026-04-26T12:21:31.026Z</time></trkpt><trkpt lat="43.8489448" lon="12.3257162"><ele>785.5999999999999</ele><time>2026-04-26T12:21:32.027Z</time></trkpt><trkpt lat="43.8490554" lon="12.3257236"><ele>788.0</ele><time>2026-04-26T12:21:33.022Z</time></trkpt><trkpt lat="43.8491856" lon="12.325757"><ele>789.6666666666667</ele><time>2026-04-26T12:21:34.023Z</time></trkpt><trkpt lat="43.8493364" lon="12.3258046"><ele>791.3333333333333</ele><time>2026-04-26T12:21:35.024Z</time></trkpt><trkpt lat="43.8494949" lon="12.3258544"><ele>793.0</ele><time>2026-04-26T12:21:36.023Z</time></trkpt><trkpt lat="43.8496633" lon="12.3258998"><ele>793.0</ele><time>2026-04-26T12:21:37.025Z</time></trkpt><trkpt lat="43.8498302" lon="12.3259272"><ele>793.0</ele><time>2026-04-26T12:21:38.025Z</time></trkpt><trkpt lat="43.8499876" lon="12.325925"><ele>793.0</ele><time>2026-04-26T12:21:39.024Z</time></trkpt><trkpt lat="43.8501275" lon="12.32589"><ele>792.25</ele><time>2026-04-26T12:21:40.024Z</time></trkpt><trkpt lat="43.8502504" lon="12.3258576"><ele>791.5</ele><time>2026-04-26T12:21:41.025Z</time></trkpt><trkpt lat="43.8503603" lon="12.3258522"><ele>790.75</ele><time>2026-04-26T12:21:42.025Z</time></trkpt><trkpt lat="43.8504712" lon="12.3258915"><ele>790.0</ele><time>2026-04-26T12:21:43.026Z</time></trkpt><trkpt lat="43.850587" lon="12.3259766"><ele>790.0</ele><time>2026-04-26T12:21:44.025Z</time></trkpt><trkpt lat="43.8507101" lon="12.3261041"><ele>790.0</ele><time>2026-04-26T12:21:45.024Z</time></trkpt><trkpt lat="43.8508393" lon="12.3262534"><ele>790.0</ele><time>2026-04-26T12:21:46.028Z</time></trkpt><trkpt lat="43.8509665" lon="12.3264116"><ele>790.75</ele><time>2026-04-26T12:21:47.023Z</time></trkpt><trkpt lat="43.8510845" lon="12.3265692"><ele>791.5</ele><time>2026-04-26T12:21:48.026Z</time></trkpt><trkpt lat="43.8511823" lon="12.3267194"><ele>792.25</ele><time>2026-04-26T12:21:49.024Z</time></trkpt><trkpt lat="43.8512592" lon="12.3268628"><ele>793.0</ele><time>2026-04-26T12:21:50.024Z</time></trkpt><trkpt lat="43.8513156" lon="12.3270022"><ele>792.9999999999999</ele><time>2026-04-26T12:21:51.026Z</time></trkpt><trkpt lat="43.8513442" lon="12.327136"><ele>793.0</ele><time>2026-04-26T12:21:52.024Z</time></trkpt><trkpt lat="43.8513314" lon="12.3272505"><ele>793.0</ele><time>2026-04-26T12:21:53.025Z</time></trkpt><trkpt lat="43.8513036" lon="12.3273369"><ele>793.0</ele><time>2026-04-26T12:21:54.026Z</time></trkpt><trkpt lat="43.8512288" lon="12.3273642"><ele>792.9999999999999</ele><time>2026-04-26T12:21:55.025Z</time></trkpt><trkpt lat="43.8511421" lon="12.3273584"><ele>793.0</ele><time>2026-04-26T12:21:56.025Z</time></trkpt><trkpt lat="43.8510418" lon="12.3272806"><ele>797.0</ele><time>2026-04-26T12:21:57.025Z</time></trkpt><trkpt lat="43.8509242" lon="12.3271629"><ele>801.0</ele><time>2026-04-26T12:21:58.026Z</time></trkpt><trkpt lat="43.8508016" lon="12.3270366"><ele>805.0</ele><time>2026-04-26T12:21:59.029Z</time></trkpt><trkpt lat="43.8506728" lon="12.3269055"><ele>805.0</ele><time>2026-04-26T12:22:00.025Z</time></trkpt><trkpt lat="43.85055" lon="12.3267817"><ele>805.0</ele><time>2026-04-26T12:22:01.025Z</time></trkpt><trkpt lat="43.850432" lon="12.3266909"><ele>805.0</ele><time>2026-04-26T12:22:02.023Z</time></trkpt><trkpt lat="43.850324" lon="12.3266404"><ele>805.0</ele><time>2026-04-26T12:22:03.025Z</time></trkpt><trkpt lat="43.8502294" lon="12.3266394"><ele>805.0</ele><time>2026-04-26T12:22:04.024Z</time></trkpt><trkpt lat="43.8501418" lon="12.3267009"><ele>805.0</ele><time>2026-04-26T12:22:05.025Z</time></trkpt><trkpt lat="43.8500685" lon="12.326815"><ele>805.0</ele><time>2026-04-26T12:22:06.025Z</time></trkpt><trkpt lat="43.8500369" lon="12.3269585"><ele>805.0</ele><time>2026-04-26T12:22:07.025Z</time></trkpt><trkpt lat="43.8500456" lon="12.3271119"><ele>805.0</ele><time>2026-04-26T12:22:08.023Z</time></trkpt><trkpt lat="43.8500896" lon="12.3272595"><ele>807.0</ele><time>2026-04-26T12:22:09.026Z</time></trkpt><trkpt lat="43.850166" lon="12.327398"><ele>809.0</ele><time>2026-04-26T12:22:10.024Z</time></trkpt><trkpt lat="43.8502817" lon="12.3275327"><ele>811.0</ele><time>2026-04-26T12:22:11.022Z</time></trkpt><trkpt lat="43.8504048" lon="12.3276723"><ele>813.0</ele><time>2026-04-26T12:22:12.024Z</time></trkpt><trkpt lat="43.8505256" lon="12.3278142"><ele>813.0</ele><time>2026-04-26T12:22:13.024Z</time></trkpt><trkpt lat="43.8506458" lon="12.3279597"><ele>813.0</ele><time>2026-04-26T12:22:14.031Z</time></trkpt><trkpt lat="43.8507639" lon="12.3281065"><ele>813.0</ele><time>2026-04-26T12:22:15.026Z</time></trkpt><trkpt lat="43.8508746" lon="12.3282496"><ele>812.75</ele><time>2026-04-26T12:22:16.024Z</time></trkpt><trkpt lat="43.8509707" lon="12.3283842"><ele>812.5</ele><time>2026-04-26T12:22:17.024Z</time></trkpt><trkpt lat="43.8510556" lon="12.3285118"><ele>812.25</ele><time>2026-04-26T12:22:18.024Z</time></trkpt><trkpt lat="43.8511206" lon="12.3286556"><ele>812.0</ele><time>2026-04-26T12:22:19.025Z</time></trkpt><trkpt lat="43.8511645" lon="12.3288241"><ele>813.25</ele><time>2026-04-26T12:22:20.025Z</time></trkpt><trkpt lat="43.8511796" lon="12.3290086"><ele>814.5</ele><time>2026-04-26T12:22:21.024Z</time></trkpt><trkpt lat="43.8511798" lon="12.3292078"><ele>815.75</ele><time>2026-04-26T12:22:22.03Z</time></trkpt><trkpt lat="43.851162" lon="12.3294134"><ele>817.0</ele><time>2026-04-26T12:22:23.023Z</time></trkpt><trkpt lat="43.8511311" lon="12.3296215"><ele>817.8</ele><time>2026-04-26T12:22:24.025Z</time></trkpt><trkpt lat="43.8510885" lon="12.3298085"><ele>818.6</ele><time>2026-04-26T12:22:25.025Z</time></trkpt><trkpt lat="43.851035" lon="12.3299604"><ele>819.4</ele><time>2026-04-26T12:22:26.025Z</time></trkpt><trkpt lat="43.8509784" lon="12.3300716"><ele>820.1999999999999</ele><time>2026-04-26T12:22:27.025Z</time></trkpt><trkpt lat="43.8509091" lon="12.330138"><ele>821.0</ele><time>2026-04-26T12:22:28.028Z</time></trkpt><trkpt lat="43.8508235" lon="12.3301166"><ele>823.8</ele><time>2026-04-26T12:22:29.024Z</time></trkpt><trkpt lat="43.850749" lon="12.3300659"><ele>826.5999999999999</ele><time>2026-04-26T12:22:30.027Z</time></trkpt><trkpt lat="43.8507041" lon="12.3299672"><ele>829.4</ele><time>2026-04-26T12:22:31.025Z</time></trkpt><trkpt lat="43.8506856" lon="12.3298484"><ele>832.2</ele><time>2026-04-26T12:22:32.025Z</time></trkpt><trkpt lat="43.8506916" lon="12.3297127"><ele>835.0</ele><time>2026-04-26T12:22:33.028Z</time></trkpt><trkpt lat="43.850749" lon="12.32956"><ele>835.4</ele><time>2026-04-26T12:22:34.024Z</time></trkpt><trkpt lat="43.8508022" lon="12.3294038"><ele>835.8</ele><time>2026-04-26T12:22:35.023Z</time></trkpt><trkpt lat="43.8508442" lon="12.3292451"><ele>836.2</ele><time>2026-04-26T12:22:36.026Z</time></trkpt><trkpt lat="43.8508567" lon="12.3291058"><ele>836.6</ele><time>2026-04-26T12:22:37.026Z</time></trkpt><trkpt lat="43.850838" lon="12.329001"><ele>837.0</ele><time>2026-04-26T12:22:38.026Z</time></trkpt><trkpt lat="43.850727" lon="12.3289362"><ele>837.0</ele><time>2026-04-26T12:22:40.025Z</time></trkpt><trkpt lat="43.8506427" lon="12.3289943"><ele>837.0</ele><time>2026-04-26T12:22:41.026Z</time></trkpt><trkpt lat="43.8505531" lon="12.3290839"><ele>837.0</ele><time>2026-04-26T12:22:42.024Z</time></trkpt><trkpt lat="43.8504666" lon="12.329206"><ele>837.0</ele><time>2026-04-26T12:22:43.026Z</time></trkpt><trkpt lat="43.8503769" lon="12.3293486"><ele>837.0</ele><time>2026-04-26T12:22:44.025Z</time></trkpt><trkpt lat="43.8502824" lon="12.3295074"><ele>837.0</ele><time>2026-04-26T12:22:45.027Z</time></trkpt><trkpt lat="43.8501927" lon="12.329684"><ele>837.0</ele><time>2026-04-26T12:22:46.024Z</time></trkpt><trkpt lat="43.8500933" lon="12.3298627"><ele>842.6666666666667</ele><time>2026-04-26T12:22:47.025Z</time></trkpt><trkpt lat="43.8499821" lon="12.3300441"><ele>848.3333333333334</ele><time>2026-04-26T12:22:48.025Z</time></trkpt><trkpt lat="43.8498626" lon="12.3302336"><ele>854.0</ele><time>2026-04-26T12:22:49.028Z</time></trkpt><trkpt lat="43.8497515" lon="12.3304199"><ele>855.6666666666667</ele><time>2026-04-26T12:22:50.025Z</time></trkpt><trkpt lat="43.8496528" lon="12.330598"><ele>857.3333333333333</ele><time>2026-04-26T12:22:51.03Z</time></trkpt><trkpt lat="43.849571" lon="12.330772"><ele>859.0</ele><time>2026-04-26T12:22:52.024Z</time></trkpt><trkpt lat="43.8495144" lon="12.3309796"><ele>859.0</ele><time>2026-04-26T12:22:53.025Z</time></trkpt><trkpt lat="43.8494658" lon="12.3312113"><ele>859.0</ele><time>2026-04-26T12:22:54.025Z</time></trkpt><trkpt lat="43.8494049" lon="12.3314548"><ele>859.0</ele><time>2026-04-26T12:22:55.024Z</time></trkpt><trkpt lat="43.8493388" lon="12.3317075"><ele>861.6666666666666</ele><time>2026-04-26T12:22:56.025Z</time></trkpt><trkpt lat="43.8492754" lon="12.3319511"><ele>864.3333333333333</ele><time>2026-04-26T12:22:57.025Z</time></trkpt><trkpt lat="43.8492132" lon="12.3321683"><ele>867.0</ele><time>2026-04-26T12:22:58.027Z</time></trkpt><trkpt lat="43.8491645" lon="12.3323583"><ele>868.5</ele><time>2026-04-26T12:22:59.027Z</time></trkpt><trkpt lat="43.8491362" lon="12.3325321"><ele>870.0</ele><time>2026-04-26T12:23:00.025Z</time></trkpt><trkpt lat="43.8491333" lon="12.3326989"><ele>871.5</ele><time>2026-04-26T12:23:01.025Z</time></trkpt><trkpt lat="43.8491678" lon="12.3328441"><ele>873.0</ele><time>2026-04-26T12:23:02.024Z</time></trkpt><trkpt lat="43.8492414" lon="12.332962"><ele>874.0</ele><time>2026-04-26T12:23:03.026Z</time></trkpt><trkpt lat="43.8493385" lon="12.3330609"><ele>875.0</ele><time>2026-04-26T12:23:04.026Z</time></trkpt><trkpt lat="43.8494415" lon="12.3331584"><ele>876.0</ele><time>2026-04-26T12:23:05.025Z</time></trkpt><trkpt lat="43.8495343" lon="12.3332783"><ele>877.0</ele><time>2026-04-26T12:23:06.026Z</time></trkpt><trkpt lat="43.8496072" lon="12.33343"><ele>877.0</ele><time>2026-04-26T12:23:07.025Z</time></trkpt><trkpt lat="43.84966" lon="12.3336021"><ele>877.0</ele><time>2026-04-26T12:23:08.025Z</time></trkpt><trkpt lat="43.8496774" lon="12.3337813"><ele>877.0</ele><time>2026-04-26T12:23:09.025Z</time></trkpt><trkpt lat="43.8496639" lon="12.3339644"><ele>877.0</ele><time>2026-04-26T12:23:10.024Z</time></trkpt><trkpt lat="43.8496314" lon="12.334134"><ele>879.0</ele><time>2026-04-26T12:23:11.025Z</time></trkpt><trkpt lat="43.8495488" lon="12.3342875"><ele>881.0</ele><time>2026-04-26T12:23:12.026Z</time></trkpt><trkpt lat="43.8494495" lon="12.3344267"><ele>883.0</ele><time>2026-04-26T12:23:13.026Z</time></trkpt><trkpt lat="43.8493651" lon="12.3345609"><ele>885.0</ele><time>2026-04-26T12:23:14.027Z</time></trkpt><trkpt lat="43.8493109" lon="12.3346993"><ele>887.2</ele><time>2026-04-26T12:23:15.025Z</time></trkpt><trkpt lat="43.8492953" lon="12.334841"><ele>889.4</ele><time>2026-04-26T12:23:16.025Z</time></trkpt><trkpt lat="43.8493174" lon="12.3349737"><ele>891.5999999999999</ele><time>2026-04-26T12:23:17.025Z</time></trkpt><trkpt lat="43.8493784" lon="12.3350947"><ele>893.8</ele><time>2026-04-26T12:23:18.027Z</time></trkpt><trkpt lat="43.8494737" lon="12.3351987"><ele>896.0</ele><time>2026-04-26T12:23:19.027Z</time></trkpt><trkpt lat="43.8495842" lon="12.3352921"><ele>896.0</ele><time>2026-04-26T12:23:20.025Z</time></trkpt><trkpt lat="43.8496937" lon="12.3353843"><ele>895.9999999999999</ele><time>2026-04-26T12:23:21.026Z</time></trkpt><trkpt lat="43.8497952" lon="12.3354762"><ele>895.9999999999999</ele><time>2026-04-26T12:23:22.026Z</time></trkpt><trkpt lat="43.8498814" lon="12.3355618"><ele>896.0</ele><time>2026-04-26T12:23:23.026Z</time></trkpt><trkpt lat="43.8499471" lon="12.3356531"><ele>896.0</ele><time>2026-04-26T12:23:24.023Z</time></trkpt><trkpt lat="43.8499913" lon="12.3357488"><ele>897.6666666666667</ele><time>2026-04-26T12:23:25.027Z</time></trkpt><trkpt lat="43.8500056" lon="12.3358417"><ele>899.3333333333334</ele><time>2026-04-26T12:23:26.023Z</time></trkpt><trkpt lat="43.8499466" lon="12.3359204"><ele>901.0</ele><time>2026-04-26T12:23:27.023Z</time></trkpt><trkpt lat="43.8498535" lon="12.3359756"><ele>902.6666666666667</ele><time>2026-04-26T12:23:28.023Z</time></trkpt><trkpt lat="43.8497619" lon="12.3360278"><ele>904.3333333333334</ele><time>2026-04-26T12:23:29.023Z</time></trkpt><trkpt lat="43.8496909" lon="12.3361004"><ele>906.0</ele><time>2026-04-26T12:23:30.024Z</time></trkpt><trkpt lat="43.8496434" lon="12.3362074"><ele>906.0</ele><time>2026-04-26T12:23:31.026Z</time></trkpt><trkpt lat="43.8496158" lon="12.3363333"><ele>905.9999999999999</ele><time>2026-04-26T12:23:32.026Z</time></trkpt><trkpt lat="43.8496105" lon="12.3364672"><ele>905.9999999999999</ele><time>2026-04-26T12:23:33.029Z</time></trkpt><trkpt lat="43.8496131" lon="12.3365999"><ele>906.0</ele><time>2026-04-26T12:23:34.024Z</time></trkpt><trkpt lat="43.8496202" lon="12.3367342"><ele>906.0</ele><time>2026-04-26T12:23:35.022Z</time></trkpt><trkpt lat="43.84963" lon="12.3368671"><ele>907.4</ele><time>2026-04-26T12:23:36.024Z</time></trkpt><trkpt lat="43.8496368" lon="12.3369981"><ele>908.8</ele><time>2026-04-26T12:23:37.024Z</time></trkpt><trkpt lat="43.8496358" lon="12.3371326"><ele>910.1999999999999</ele><time>2026-04-26T12:23:38.024Z</time></trkpt><trkpt lat="43.8496346" lon="12.3372775"><ele>911.5999999999999</ele><time>2026-04-26T12:23:39.024Z</time></trkpt><trkpt lat="43.8496392" lon="12.3374288"><ele>913.0</ele><time>2026-04-26T12:23:40.024Z</time></trkpt><trkpt lat="43.849664" lon="12.3375711"><ele>914.2</ele><time>2026-04-26T12:23:41.024Z</time></trkpt><trkpt lat="43.8497091" lon="12.3376902"><ele>915.4</ele><time>2026-04-26T12:23:42.022Z</time></trkpt><trkpt lat="43.8497917" lon="12.3377684"><ele>916.6000000000001</ele><time>2026-04-26T12:23:43.028Z</time></trkpt><trkpt lat="43.8498981" lon="12.337809"><ele>917.8000000000001</ele><time>2026-04-26T12:23:44.025Z</time></trkpt><trkpt lat="43.8500279" lon="12.33781"><ele>919.0</ele><time>2026-04-26T12:23:45.023Z</time></trkpt><trkpt lat="43.8501778" lon="12.3377825"><ele>919.0</ele><time>2026-04-26T12:23:46.024Z</time></trkpt><trkpt lat="43.8503285" lon="12.3377579"><ele>919.0</ele><time>2026-04-26T12:23:47.023Z</time></trkpt><trkpt lat="43.85047" lon="12.3377448"><ele>919.0</ele><time>2026-04-26T12:23:48.026Z</time></trkpt><trkpt lat="43.8505935" lon="12.3377838"><ele>919.0</ele><time>2026-04-26T12:23:49.024Z</time></trkpt><trkpt lat="43.8506987" lon="12.3378547"><ele>919.0</ele><time>2026-04-26T12:23:50.024Z</time></trkpt><trkpt lat="43.8507801" lon="12.3379649"><ele>919.0000000000001</ele><time>2026-04-26T12:23:51.024Z</time></trkpt><trkpt lat="43.8508188" lon="12.338108"><ele>919.0000000000001</ele><time>2026-04-26T12:23:52.024Z</time></trkpt><trkpt lat="43.8508367" lon="12.3382416"><ele>919.0</ele><time>2026-04-26T12:23:53.023Z</time></trkpt><trkpt lat="43.850809" lon="12.3383528"><ele>919.0</ele><time>2026-04-26T12:23:54.024Z</time></trkpt><trkpt lat="43.8507208" lon="12.3384373"><ele>921.25</ele><time>2026-04-26T12:23:55.022Z</time></trkpt><trkpt lat="43.8506073" lon="12.3385053"><ele>923.5</ele><time>2026-04-26T12:23:56.023Z</time></trkpt><trkpt lat="43.8504928" lon="12.33858"><ele>925.75</ele><time>2026-04-26T12:23:57.024Z</time></trkpt><trkpt lat="43.8503628" lon="12.3386747"><ele>928.0</ele><time>2026-04-26T12:23:58.023Z</time></trkpt><trkpt lat="43.8502267" lon="12.3387911"><ele>931.0</ele><time>2026-04-26T12:23:59.023Z</time></trkpt><trkpt lat="43.850087" lon="12.3389171"><ele>934.0</ele><time>2026-04-26T12:24:00.024Z</time></trkpt><trkpt lat="43.8499482" lon="12.3390311"><ele>937.0</ele><time>2026-04-26T12:24:01.024Z</time></trkpt><trkpt lat="43.8498292" lon="12.3391345"><ele>936.9999999999999</ele><time>2026-04-26T12:24:02.022Z</time></trkpt><trkpt lat="43.8497339" lon="12.3392279"><ele>937.0</ele><time>2026-04-26T12:24:03.024Z</time></trkpt><trkpt lat="43.8496765" lon="12.33932"><ele>937.0</ele><time>2026-04-26T12:24:04.025Z</time></trkpt><trkpt lat="43.8496514" lon="12.3394163"><ele>937.0</ele><time>2026-04-26T12:24:05.023Z</time></trkpt><trkpt lat="43.8496559" lon="12.339511"><ele>936.9999999999999</ele><time>2026-04-26T12:24:06.024Z</time></trkpt><trkpt lat="43.8496827" lon="12.3395999"><ele>937.0</ele><time>2026-04-26T12:24:07.028Z</time></trkpt><trkpt lat="43.8497379" lon="12.339668"><ele>937.0</ele><time>2026-04-26T12:24:08.023Z</time></trkpt><trkpt lat="43.8498685" lon="12.3396422"><ele>937.0</ele><time>2026-04-26T12:24:09.022Z</time></trkpt><trkpt lat="43.8500126" lon="12.3395611"><ele>937.0</ele><time>2026-04-26T12:24:10.023Z</time></trkpt><trkpt lat="43.8501456" lon="12.3395271"><ele>937.0</ele><time>2026-04-26T12:24:11.022Z</time></trkpt><trkpt lat="43.8502628" lon="12.3395398"><ele>936.4999999999999</ele><time>2026-04-26T12:24:12.026Z</time></trkpt><trkpt lat="43.8503567" lon="12.3395986"><ele>936.0</ele><time>2026-04-26T12:24:13.023Z</time></trkpt><trkpt lat="43.8504309" lon="12.3396603"><ele>935.5</ele><time>2026-04-26T12:24:14.024Z</time></trkpt><trkpt lat="43.8504649" lon="12.3397582"><ele>935.0</ele><time>2026-04-26T12:24:15.024Z</time></trkpt><trkpt lat="43.850473" lon="12.3398772"><ele>934.4999999999999</ele><time>2026-04-26T12:24:16.024Z</time></trkpt><trkpt lat="43.8504391" lon="12.3399849"><ele>934.0</ele><time>2026-04-26T12:24:17.024Z</time></trkpt><trkpt lat="43.8503701" lon="12.3400864"><ele>937.6666666666666</ele><time>2026-04-26T12:24:18.022Z</time></trkpt><trkpt lat="43.8502949" lon="12.3401779"><ele>941.3333333333333</ele><time>2026-04-26T12:24:19.023Z</time></trkpt><trkpt lat="43.8501244" lon="12.3402323"><ele>945.0</ele><time>2026-04-26T12:24:20.023Z</time></trkpt><trkpt lat="43.8499473" lon="12.340274"><ele>946.0</ele><time>2026-04-26T12:24:21.023Z</time></trkpt><trkpt lat="43.8497569" lon="12.3403179"><ele>947.0</ele><time>2026-04-26T12:24:22.024Z</time></trkpt><trkpt lat="43.8495624" lon="12.3403483"><ele>948.0</ele><time>2026-04-26T12:24:23.024Z</time></trkpt><trkpt lat="43.84938" lon="12.340363"><ele>948.5</ele><time>2026-04-26T12:24:24.025Z</time></trkpt><trkpt lat="43.8492101" lon="12.3403568"><ele>949.0</ele><time>2026-04-26T12:24:25.023Z</time></trkpt><trkpt lat="43.8490651" lon="12.3403542"><ele>949.5</ele><time>2026-04-26T12:24:26.025Z</time></trkpt><trkpt lat="43.8489412" lon="12.3403251"><ele>950.0</ele><time>2026-04-26T12:24:27.029Z</time></trkpt><trkpt lat="43.8488385" lon="12.340236"><ele>950.0</ele><time>2026-04-26T12:24:28.026Z</time></trkpt><trkpt lat="43.8487527" lon="12.3400875"><ele>950.0</ele><time>2026-04-26T12:24:29.023Z</time></trkpt><trkpt lat="43.8486818" lon="12.3398908"><ele>950.0</ele><time>2026-04-26T12:24:30.025Z</time></trkpt><trkpt lat="43.8486193" lon="12.3396801"><ele>949.75</ele><time>2026-04-26T12:24:31.025Z</time></trkpt><trkpt lat="43.8485471" lon="12.3394941"><ele>949.5</ele><time>2026-04-26T12:24:32.028Z</time></trkpt><trkpt lat="43.8484797" lon="12.3393398"><ele>949.25</ele><time>2026-04-26T12:24:33.023Z</time></trkpt><trkpt lat="43.848419" lon="12.3392256"><ele>949.0</ele><time>2026-04-26T12:24:34.023Z</time></trkpt><trkpt lat="43.8483637" lon="12.3391612"><ele>949.0</ele><time>2026-04-26T12:24:35.024Z</time></trkpt><trkpt lat="43.848269" lon="12.3392772"><ele>949.0</ele><time>2026-04-26T12:24:37.029Z</time></trkpt><trkpt lat="43.8482487" lon="12.339408"><ele>949.0</ele><time>2026-04-26T12:24:38.025Z</time></trkpt><trkpt lat="43.8482396" lon="12.3395671"><ele>949.0</ele><time>2026-04-26T12:24:39.024Z</time></trkpt><trkpt lat="43.8482251" lon="12.3397369"><ele>951.25</ele><time>2026-04-26T12:24:40.024Z</time></trkpt><trkpt lat="43.8481916" lon="12.3399211"><ele>953.5</ele><time>2026-04-26T12:24:41.023Z</time></trkpt><trkpt lat="43.8481334" lon="12.3401013"><ele>955.75</ele><time>2026-04-26T12:24:42.024Z</time></trkpt><trkpt lat="43.8480644" lon="12.3402887"><ele>958.0</ele><time>2026-04-26T12:24:43.029Z</time></trkpt><trkpt lat="43.8479869" lon="12.3404588"><ele>960.25</ele><time>2026-04-26T12:24:44.023Z</time></trkpt><trkpt lat="43.8479075" lon="12.3406035"><ele>962.5</ele><time>2026-04-26T12:24:45.026Z</time></trkpt><trkpt lat="43.8478197" lon="12.3407155"><ele>964.75</ele><time>2026-04-26T12:24:46.024Z</time></trkpt><trkpt lat="43.8477192" lon="12.3408044"><ele>967.0</ele><time>2026-04-26T12:24:47.023Z</time></trkpt><trkpt lat="43.8475966" lon="12.3408585"><ele>967.25</ele><time>2026-04-26T12:24:48.028Z</time></trkpt><trkpt lat="43.8474618" lon="12.3408713"><ele>967.5</ele><time>2026-04-26T12:24:49.023Z</time></trkpt><trkpt lat="43.8473148" lon="12.3408605"><ele>967.75</ele><time>2026-04-26T12:24:50.025Z</time></trkpt><trkpt lat="43.8471708" lon="12.3408201"><ele>968.0</ele><time>2026-04-26T12:24:51.024Z</time></trkpt><trkpt lat="43.8470372" lon="12.3407465"><ele>968.0</ele><time>2026-04-26T12:24:52.022Z</time></trkpt><trkpt lat="43.8469119" lon="12.3406382"><ele>968.0</ele><time>2026-04-26T12:24:53.026Z</time></trkpt><trkpt lat="43.8467986" lon="12.3404959"><ele>968.0</ele><time>2026-04-26T12:24:54.023Z</time></trkpt><trkpt lat="43.8466901" lon="12.3403466"><ele>967.5999999999999</ele><time>2026-04-26T12:24:55.023Z</time></trkpt><trkpt lat="43.8465845" lon="12.3402219"><ele>967.1999999999999</ele><time>2026-04-26T12:24:56.023Z</time></trkpt><trkpt lat="43.8464904" lon="12.340132"><ele>966.8</ele><time>2026-04-26T12:24:57.025Z</time></trkpt><trkpt lat="43.8464063" lon="12.3400736"><ele>966.4</ele><time>2026-04-26T12:24:58.024Z</time></trkpt><trkpt lat="43.8463287" lon="12.340039"><ele>966.0</ele><time>2026-04-26T12:24:59.028Z</time></trkpt><trkpt lat="43.8462748" lon="12.3400897"><ele>966.0</ele><time>2026-04-26T12:25:00.023Z</time></trkpt><trkpt lat="43.8462515" lon="12.3401918"><ele>965.9999999999999</ele><time>2026-04-26T12:25:01.022Z</time></trkpt><trkpt lat="43.8462623" lon="12.3403173"><ele>965.9999999999999</ele><time>2026-04-26T12:25:02.024Z</time></trkpt><trkpt lat="43.8463084" lon="12.340454"><ele>966.0</ele><time>2026-04-26T12:25:03.024Z</time></trkpt><trkpt lat="43.8463621" lon="12.34059"><ele>966.0</ele><time>2026-04-26T12:25:04.027Z</time></trkpt><trkpt lat="43.8464226" lon="12.3407348"><ele>967.5999999999999</ele><time>2026-04-26T12:25:05.024Z</time></trkpt><trkpt lat="43.846492" lon="12.3408826"><ele>969.1999999999999</ele><time>2026-04-26T12:25:06.022Z</time></trkpt><trkpt lat="43.8465565" lon="12.3410251"><ele>970.8000000000001</ele><time>2026-04-26T12:25:07.023Z</time></trkpt><trkpt lat="43.8466085" lon="12.3411577"><ele>972.4000000000001</ele><time>2026-04-26T12:25:08.025Z</time></trkpt><trkpt lat="43.846647" lon="12.3412719"><ele>974.0</ele><time>2026-04-26T12:25:09.024Z</time></trkpt><trkpt lat="43.8466653" lon="12.341375"><ele>974.0</ele><time>2026-04-26T12:25:10.026Z</time></trkpt><trkpt lat="43.8466542" lon="12.3414613"><ele>974.0000000000001</ele><time>2026-04-26T12:25:11.023Z</time></trkpt><trkpt lat="43.8465362" lon="12.3415363"><ele>974.0000000000001</ele><time>2026-04-26T12:25:13.024Z</time></trkpt><trkpt lat="43.846432" lon="12.3414924"><ele>974.0</ele><time>2026-04-26T12:25:14.024Z</time></trkpt><trkpt lat="43.8463192" lon="12.3414237"><ele>974.0</ele><time>2026-04-26T12:25:15.023Z</time></trkpt><trkpt lat="43.8461925" lon="12.3413583"><ele>974.0</ele><time>2026-04-26T12:25:16.028Z</time></trkpt><trkpt lat="43.8460531" lon="12.3412955"><ele>974.0</ele><time>2026-04-26T12:25:17.023Z</time></trkpt><trkpt lat="43.8459068" lon="12.3412118"><ele>974.0</ele><time>2026-04-26T12:25:18.025Z</time></trkpt><trkpt lat="43.8457623" lon="12.3411426"><ele>977.6666666666667</ele><time>2026-04-26T12:25:19.025Z</time></trkpt><trkpt lat="43.8456204" lon="12.3411091"><ele>981.3333333333333</ele><time>2026-04-26T12:25:20.024Z</time></trkpt><trkpt lat="43.8454692" lon="12.3410963"><ele>985.0</ele><time>2026-04-26T12:25:21.024Z</time></trkpt><trkpt lat="43.845303" lon="12.3411051"><ele>985.0</ele><time>2026-04-26T12:25:22.023Z</time></trkpt><trkpt lat="43.8451287" lon="12.3411185"><ele>985.0</ele><time>2026-04-26T12:25:23.026Z</time></trkpt><trkpt lat="43.84496" lon="12.3411242"><ele>985.0</ele><time>2026-04-26T12:25:24.024Z</time></trkpt><trkpt lat="43.8448035" lon="12.3411239"><ele>985.0</ele><time>2026-04-26T12:25:25.024Z</time></trkpt><trkpt lat="43.844666" lon="12.3411288"><ele>985.0</ele><time>2026-04-26T12:25:26.023Z</time></trkpt><trkpt lat="43.8445457" lon="12.341141"><ele>985.0</ele><time>2026-04-26T12:25:27.025Z</time></trkpt><trkpt lat="43.8444409" lon="12.3411863"><ele>985.0</ele><time>2026-04-26T12:25:28.025Z</time></trkpt><trkpt lat="43.8443511" lon="12.3412796"><ele>988.25</ele><time>2026-04-26T12:25:29.022Z</time></trkpt><trkpt lat="43.8442789" lon="12.3414176"><ele>991.5</ele><time>2026-04-26T12:25:30.024Z</time></trkpt><trkpt lat="43.8442252" lon="12.3415859"><ele>994.75</ele><time>2026-04-26T12:25:31.026Z</time></trkpt><trkpt lat="43.8441917" lon="12.3417567"><ele>998.0</ele><time>2026-04-26T12:25:32.023Z</time></trkpt><trkpt lat="43.844185" lon="12.34191"><ele>998.0</ele><time>2026-04-26T12:25:33.024Z</time></trkpt><trkpt lat="43.8442167" lon="12.3420517"><ele>998.0</ele><time>2026-04-26T12:25:34.025Z</time></trkpt><trkpt lat="43.844285" lon="12.3421683"><ele>998.0</ele><time>2026-04-26T12:25:35.024Z</time></trkpt><trkpt lat="43.8443767" lon="12.34226"><ele>998.0</ele><time>2026-04-26T12:25:36.026Z</time></trkpt><trkpt lat="43.8444667" lon="12.3423483"><ele>998.0</ele><time>2026-04-26T12:25:37.022Z</time></trkpt><trkpt lat="43.8445583" lon="12.342445"><ele>998.2</ele><time>2026-04-26T12:25:38.025Z</time></trkpt><trkpt lat="43.8446517" lon="12.3425333"><ele>998.4</ele><time>2026-04-26T12:25:39.024Z</time></trkpt><trkpt lat="43.844735" lon="12.3426367"><ele>998.6000000000001</ele><time>2026-04-26T12:25:40.023Z</time></trkpt><trkpt lat="43.84481" lon="12.3427317"><ele>998.8000000000001</ele><time>2026-04-26T12:25:41.025Z</time></trkpt><trkpt lat="43.8448617" lon="12.342835"><ele>999.0</ele><time>2026-04-26T12:25:42.026Z</time></trkpt><trkpt lat="43.8448983" lon="12.3429417"><ele>999.0</ele><time>2026-04-26T12:25:43.024Z</time></trkpt><trkpt lat="43.8449283" lon="12.343045"><ele>999.0000000000001</ele><time>2026-04-26T12:25:44.03Z</time></trkpt><trkpt lat="43.8449083" lon="12.343175"><ele>999.0000000000001</ele><time>2026-04-26T12:25:45.025Z</time></trkpt><trkpt lat="43.8448833" lon="12.3433117"><ele>999.0</ele><time>2026-04-26T12:25:46.025Z</time></trkpt><trkpt lat="43.8448367" lon="12.3434733"><ele>999.0</ele><time>2026-04-26T12:25:47.023Z</time></trkpt><trkpt lat="43.84478" lon="12.3436483"><ele>999.0</ele><time>2026-04-26T12:25:48.023Z</time></trkpt><trkpt lat="43.84473" lon="12.3438283"><ele>999.0</ele><time>2026-04-26T12:25:49.025Z</time></trkpt><trkpt lat="43.8446867" lon="12.3440067"><ele>999.0</ele><time>2026-04-26T12:25:50.029Z</time></trkpt><trkpt lat="43.84465" lon="12.34417"><ele>999.0</ele><time>2026-04-26T12:25:51.024Z</time></trkpt><trkpt lat="43.844625" lon="12.3443167"><ele>999.0</ele><time>2026-04-26T12:25:52.025Z</time></trkpt><trkpt lat="43.8445733" lon="12.3444383"><ele>999.0000000000001</ele><time>2026-04-26T12:25:53.024Z</time></trkpt><trkpt lat="43.844505" lon="12.3445417"><ele>999.0000000000001</ele><time>2026-04-26T12:25:54.025Z</time></trkpt><trkpt lat="43.8444183" lon="12.3446167"><ele>999.0</ele><time>2026-04-26T12:25:55.023Z</time></trkpt><trkpt lat="43.8443067" lon="12.3446567"><ele>999.0</ele><time>2026-04-26T12:25:56.022Z</time></trkpt><trkpt lat="43.8441833" lon="12.34469"><ele>996.25</ele><time>2026-04-26T12:25:57.024Z</time></trkpt><trkpt lat="43.8440567" lon="12.344735"><ele>993.5</ele><time>2026-04-26T12:25:58.026Z</time></trkpt><trkpt lat="43.8439417" lon="12.344815"><ele>990.75</ele><time>2026-04-26T12:25:59.026Z</time></trkpt><trkpt lat="43.843845" lon="12.344945"><ele>988.0</ele><time>2026-04-26T12:26:00.025Z</time></trkpt><trkpt lat="43.8437533" lon="12.34509"><ele>988.0</ele><time>2026-04-26T12:26:01.025Z</time></trkpt><trkpt lat="43.8436717" lon="12.3452383"><ele>988.0</ele><time>2026-04-26T12:26:02.024Z</time></trkpt><trkpt lat="43.8436" lon="12.345385"><ele>988.0</ele><time>2026-04-26T12:26:03.023Z</time></trkpt><trkpt lat="43.8435433" lon="12.3455467"><ele>988.0</ele><time>2026-04-26T12:26:04.025Z</time></trkpt><trkpt lat="43.8435167" lon="12.34573"><ele>987.75</ele><time>2026-04-26T12:26:05.023Z</time></trkpt><trkpt lat="43.843495" lon="12.34592"><ele>987.5</ele><time>2026-04-26T12:26:06.024Z</time></trkpt><trkpt lat="43.8434562" lon="12.346102"><ele>987.25</ele><time>2026-04-26T12:26:07.025Z</time></trkpt><trkpt lat="43.8433982" lon="12.3462856"><ele>987.0</ele><time>2026-04-26T12:26:08.024Z</time></trkpt><trkpt lat="43.8433105" lon="12.3464645"><ele>981.6666666666667</ele><time>2026-04-26T12:26:09.029Z</time></trkpt><trkpt lat="43.8432086" lon="12.3466425"><ele>976.3333333333334</ele><time>2026-04-26T12:26:10.024Z</time></trkpt><trkpt lat="43.8431078" lon="12.3468209"><ele>971.0</ele><time>2026-04-26T12:26:11.023Z</time></trkpt><trkpt lat="43.8430096" lon="12.3469913"><ele>971.0</ele><time>2026-04-26T12:26:12.026Z</time></trkpt><trkpt lat="43.8429194" lon="12.347164"><ele>971.0</ele><time>2026-04-26T12:26:13.024Z</time></trkpt><trkpt lat="43.8428359" lon="12.3473307"><ele>971.0</ele><time>2026-04-26T12:26:14.027Z</time></trkpt><trkpt lat="43.8427583" lon="12.3474883"><ele>971.0</ele><time>2026-04-26T12:26:15.025Z</time></trkpt><trkpt lat="43.8426818" lon="12.3476359"><ele>970.0</ele><time>2026-04-26T12:26:16.024Z</time></trkpt><trkpt lat="43.8425924" lon="12.3477654"><ele>969.0</ele><time>2026-04-26T12:26:17.022Z</time></trkpt><trkpt lat="43.8424933" lon="12.3478816"><ele>968.0</ele><time>2026-04-26T12:26:18.024Z</time></trkpt><trkpt lat="43.8423936" lon="12.3479941"><ele>967.0</ele><time>2026-04-26T12:26:19.025Z</time></trkpt><trkpt lat="43.8422875" lon="12.3481074"><ele>964.3333333333333</ele><time>2026-04-26T12:26:20.023Z</time></trkpt><trkpt lat="43.8421847" lon="12.3482525"><ele>961.6666666666667</ele><time>2026-04-26T12:26:21.026Z</time></trkpt><trkpt lat="43.8420906" lon="12.3484391"><ele>959.0</ele><time>2026-04-26T12:26:22.024Z</time></trkpt><trkpt lat="43.842002" lon="12.348641"><ele>959.0</ele><time>2026-04-26T12:26:23.026Z</time></trkpt><trkpt lat="43.8419163" lon="12.3488323"><ele>959.0</ele><time>2026-04-26T12:26:24.026Z</time></trkpt><trkpt lat="43.8418428" lon="12.3490026"><ele>959.0</ele><time>2026-04-26T12:26:25.026Z</time></trkpt><trkpt lat="43.8417847" lon="12.3491324"><ele>959.0</ele><time>2026-04-26T12:26:26.023Z</time></trkpt><trkpt lat="43.8417495" lon="12.34922"><ele>957.8333333333334</ele><time>2026-04-26T12:26:27.026Z</time></trkpt><trkpt lat="43.8417334" lon="12.3493083"><ele>956.6666666666667</ele><time>2026-04-26T12:26:29.025Z</time></trkpt><trkpt lat="43.8417856" lon="12.3493924"><ele>955.5</ele><time>2026-04-26T12:26:32.023Z</time></trkpt><trkpt lat="43.8418193" lon="12.3494896"><ele>954.3333333333333</ele><time>2026-04-26T12:26:34.025Z</time></trkpt><trkpt lat="43.8418668" lon="12.3496035"><ele>953.1666666666666</ele><time>2026-04-26T12:26:36.024Z</time></trkpt><trkpt lat="43.8419105" lon="12.3497188"><ele>952.0</ele><time>2026-04-26T12:26:38.024Z</time></trkpt><trkpt lat="43.8419471" lon="12.3498201"><ele>950.4999999999999</ele><time>2026-04-26T12:26:40.026Z</time></trkpt><trkpt lat="43.841983" lon="12.3499148"><ele>949.0</ele><time>2026-04-26T12:26:42.026Z</time></trkpt><trkpt lat="43.8420172" lon="12.3500096"><ele>947.5</ele><time>2026-04-26T12:26:44.023Z</time></trkpt><trkpt lat="43.8420555" lon="12.3501177"><ele>946.0</ele><time>2026-04-26T12:26:47.066Z</time></trkpt><trkpt lat="43.8420864" lon="12.3502156"><ele>944.4999999999999</ele><time>2026-04-26T12:26:48.028Z</time></trkpt><trkpt lat="43.8421415" lon="12.3503522"><ele>943.0</ele><time>2026-04-26T12:26:50.023Z</time></trkpt><trkpt lat="43.84218" lon="12.3504933"><ele>942.4</ele><time>2026-04-26T12:26:52.023Z</time></trkpt><trkpt lat="43.8422122" lon="12.3506323"><ele>941.8</ele><time>2026-04-26T12:26:54.024Z</time></trkpt><trkpt lat="43.8422575" lon="12.3507654"><ele>941.2</ele><time>2026-04-26T12:26:56.03Z</time></trkpt><trkpt lat="43.8423049" lon="12.3509001"><ele>940.6</ele><time>2026-04-26T12:26:58.028Z</time></trkpt><trkpt lat="43.8423531" lon="12.3510544"><ele>940.0</ele><time>2026-04-26T12:27:00.022Z</time></trkpt><trkpt lat="43.8424023" lon="12.3512003"><ele>939.9999999999999</ele><time>2026-04-26T12:27:02.024Z</time></trkpt><trkpt lat="43.8424561" lon="12.3513464"><ele>940.0</ele><time>2026-04-26T12:27:04.024Z</time></trkpt><trkpt lat="43.8424813" lon="12.3514297"><ele>940.0</ele><time>2026-04-26T12:27:05.024Z</time></trkpt><trkpt lat="43.8425101" lon="12.3515156"><ele>940.0</ele><time>2026-04-26T12:27:06.023Z</time></trkpt><trkpt lat="43.8425398" lon="12.3516083"><ele>939.9999999999999</ele><time>2026-04-26T12:27:07.024Z</time></trkpt><trkpt lat="43.842572" lon="12.3517161"><ele>940.0</ele><time>2026-04-26T12:27:08.025Z</time></trkpt><trkpt lat="43.8426103" lon="12.3518425"><ele>940.6</ele><time>2026-04-26T12:27:09.024Z</time></trkpt><trkpt lat="43.8426515" lon="12.3519816"><ele>941.2</ele><time>2026-04-26T12:27:10.029Z</time></trkpt><trkpt lat="43.8426933" lon="12.3521117"><ele>941.8</ele><time>2026-04-26T12:27:11.024Z</time></trkpt><trkpt lat="43.8427337" lon="12.3522177"><ele>942.4</ele><time>2026-04-26T12:27:12.023Z</time></trkpt><trkpt lat="43.8427725" lon="12.3523099"><ele>943.0</ele><time>2026-04-26T12:27:13.026Z</time></trkpt><trkpt lat="43.8428022" lon="12.3524113"><ele>943.0</ele><time>2026-04-26T12:27:14.025Z</time></trkpt><trkpt lat="43.8428162" lon="12.3525311"><ele>943.0</ele><time>2026-04-26T12:27:15.023Z</time></trkpt><trkpt lat="43.8428262" lon="12.3526676"><ele>943.0</ele><time>2026-04-26T12:27:16.024Z</time></trkpt><trkpt lat="43.8427929" lon="12.3528729"><ele>943.0</ele><time>2026-04-26T12:27:17.023Z</time></trkpt><trkpt lat="43.8427512" lon="12.3531003"><ele>941.3333333333333</ele><time>2026-04-26T12:27:18.023Z</time></trkpt><trkpt lat="43.8427098" lon="12.353332"><ele>939.6666666666667</ele><time>2026-04-26T12:27:19.026Z</time></trkpt><trkpt lat="43.8426444" lon="12.3535565"><ele>938.0</ele><time>2026-04-26T12:27:20.024Z</time></trkpt><trkpt lat="43.8425382" lon="12.3537652"><ele>934.6666666666667</ele><time>2026-04-26T12:27:21.023Z</time></trkpt><trkpt lat="43.8424208" lon="12.3539631"><ele>931.3333333333333</ele><time>2026-04-26T12:27:22.023Z</time></trkpt><trkpt lat="43.842317" lon="12.3541548"><ele>928.0</ele><time>2026-04-26T12:27:23.025Z</time></trkpt><trkpt lat="43.842225" lon="12.3543317"><ele>928.0</ele><time>2026-04-26T12:27:24.025Z</time></trkpt><trkpt lat="43.842145" lon="12.35451"><ele>928.0</ele><time>2026-04-26T12:27:25.028Z</time></trkpt><trkpt lat="43.842085" lon="12.35469"><ele>928.0</ele><time>2026-04-26T12:27:26.024Z</time></trkpt><trkpt lat="43.8420483" lon="12.3548767"><ele>928.0</ele><time>2026-04-26T12:27:27.024Z</time></trkpt><trkpt lat="43.8420317" lon="12.3550633"><ele>928.2</ele><time>2026-04-26T12:27:28.024Z</time></trkpt><trkpt lat="43.84201" lon="12.35523"><ele>928.4</ele><time>2026-04-26T12:27:29.024Z</time></trkpt><trkpt lat="43.8419883" lon="12.3553633"><ele>928.6000000000001</ele><time>2026-04-26T12:27:30.023Z</time></trkpt><trkpt lat="43.8419633" lon="12.3554667"><ele>928.8000000000001</ele><time>2026-04-26T12:27:31.023Z</time></trkpt><trkpt lat="43.8419167" lon="12.3555767"><ele>929.0</ele><time>2026-04-26T12:27:33.023Z</time></trkpt><trkpt lat="43.8418317" lon="12.3556667"><ele>926.0</ele><time>2026-04-26T12:27:48.026Z</time></trkpt><trkpt lat="43.841785" lon="12.3558817"><ele>923.0</ele><time>2026-04-26T12:27:51.025Z</time></trkpt><trkpt lat="43.84179" lon="12.356"><ele>920.0</ele><time>2026-04-26T12:27:52.025Z</time></trkpt><trkpt lat="43.8417767" lon="12.3561317"><ele>917.0</ele><time>2026-04-26T12:27:53.022Z</time></trkpt><trkpt lat="43.8417483" lon="12.356295"><ele>916.5</ele><time>2026-04-26T12:27:54.023Z</time></trkpt><trkpt lat="43.8417133" lon="12.3564783"><ele>916.0</ele><time>2026-04-26T12:27:55.025Z</time></trkpt><trkpt lat="43.8416767" lon="12.356665"><ele>915.5</ele><time>2026-04-26T12:27:56.022Z</time></trkpt><trkpt lat="43.841645" lon="12.35684"><ele>915.0</ele><time>2026-04-26T12:27:57.025Z</time></trkpt><trkpt lat="43.8416183" lon="12.3569933"><ele>915.0</ele><time>2026-04-26T12:27:58.025Z</time></trkpt><trkpt lat="43.8416083" lon="12.35714"><ele>915.0</ele><time>2026-04-26T12:27:59.023Z</time></trkpt><trkpt lat="43.8416217" lon="12.357275"><ele>915.0</ele><time>2026-04-26T12:28:00.023Z</time></trkpt><trkpt lat="43.8416533" lon="12.357405"><ele>915.0</ele><time>2026-04-26T12:28:01.024Z</time></trkpt><trkpt lat="43.841695" lon="12.3575367"><ele>915.0</ele><time>2026-04-26T12:28:02.03Z</time></trkpt><trkpt lat="43.8417383" lon="12.3576733"><ele>915.0</ele><time>2026-04-26T12:28:03.024Z</time></trkpt><trkpt lat="43.8417717" lon="12.3578133"><ele>915.0</ele><time>2026-04-26T12:28:04.023Z</time></trkpt><trkpt lat="43.8418017" lon="12.3579583"><ele>915.0</ele><time>2026-04-26T12:28:05.022Z</time></trkpt><trkpt lat="43.8418133" lon="12.3581083"><ele>915.0</ele><time>2026-04-26T12:28:06.023Z</time></trkpt><trkpt lat="43.841815" lon="12.35826"><ele>915.0</ele><time>2026-04-26T12:28:07.024Z</time></trkpt><trkpt lat="43.8418083" lon="12.3584017"><ele>935.0</ele><time>2026-04-26T12:28:08.023Z</time></trkpt><trkpt lat="43.8417967" lon="12.35852"><ele>912.0</ele><time>2026-04-26T12:28:09.026Z</time></trkpt><trkpt lat="43.8417817" lon="12.3586217"><ele>912.0</ele><time>2026-04-26T12:28:10.024Z</time></trkpt><trkpt lat="43.8417717" lon="12.358715"><ele>912.0</ele><time>2026-04-26T12:28:11.026Z</time></trkpt><trkpt lat="43.8417633" lon="12.3588083"><ele>912.0</ele><time>2026-04-26T12:28:12.024Z</time></trkpt><trkpt lat="43.84174" lon="12.3589183"><ele>910.0</ele><time>2026-04-26T12:28:14.024Z</time></trkpt></trkseg><trkseg><trkpt lat="43.841675" lon="12.3590367"><ele>910.0</ele><time>2026-04-26T12:51:47.025Z</time></trkpt><trkpt lat="43.84168" lon="12.3591867"><ele>910.0</ele><time>2026-04-26T12:51:49.023Z</time></trkpt><trkpt lat="43.841665" lon="12.3593617"><ele>910.0</ele><time>2026-04-26T12:51:51.023Z</time></trkpt><trkpt lat="43.8416567" lon="12.3594567"><ele>910.0</ele><time>2026-04-26T12:51:52.026Z</time></trkpt><trkpt lat="43.8416233" lon="12.359615"><ele>910.0</ele><time>2026-04-26T12:51:54.026Z</time></trkpt><trkpt lat="43.8416017" lon="12.3596983"><ele>910.4999999999999</ele><time>2026-04-26T12:51:55.026Z</time></trkpt><trkpt lat="43.84157" lon="12.359775"><ele>911.0</ele><time>2026-04-26T12:51:56.023Z</time></trkpt><trkpt lat="43.841515" lon="12.3598917"><ele>911.5</ele><time>2026-04-26T12:51:58.025Z</time></trkpt><trkpt lat="43.841475" lon="12.3599967"><ele>912.0</ele><time>2026-04-26T12:52:00.031Z</time></trkpt><trkpt lat="43.8414517" lon="12.3601033"><ele>912.4999999999999</ele><time>2026-04-26T12:52:02.027Z</time></trkpt><trkpt lat="43.8414167" lon="12.3601983"><ele>913.0</ele><time>2026-04-26T12:52:04.022Z</time></trkpt><trkpt lat="43.84139" lon="12.3602983"><ele>913.0</ele><time>2026-04-26T12:52:06.023Z</time></trkpt><trkpt lat="43.841355" lon="12.3604183"><ele>913.0</ele><time>2026-04-26T12:52:08.024Z</time></trkpt><trkpt lat="43.8413033" lon="12.3605817"><ele>913.0</ele><time>2026-04-26T12:52:10.023Z</time></trkpt><trkpt lat="43.84128" lon="12.3606883"><ele>913.0</ele><time>2026-04-26T12:52:11.025Z</time></trkpt><trkpt lat="43.84125" lon="12.3608333"><ele>913.0</ele><time>2026-04-26T12:52:12.021Z</time></trkpt><trkpt lat="43.8411783" lon="12.3610433"><ele>913.3333333333333</ele><time>2026-04-26T12:52:13.026Z</time></trkpt><trkpt lat="43.8411133" lon="12.3612617"><ele>913.6666666666667</ele><time>2026-04-26T12:52:14.026Z</time></trkpt><trkpt lat="43.841055" lon="12.3614717"><ele>914.0</ele><time>2026-04-26T12:52:15.025Z</time></trkpt><trkpt lat="43.841005" lon="12.36166"><ele>912.2</ele><time>2026-04-26T12:52:16.023Z</time></trkpt><trkpt lat="43.84096" lon="12.36182"><ele>910.4000000000001</ele><time>2026-04-26T12:52:17.023Z</time></trkpt><trkpt lat="43.8409183" lon="12.3619683"><ele>908.6</ele><time>2026-04-26T12:52:18.022Z</time></trkpt><trkpt lat="43.8408817" lon="12.3621017"><ele>906.8</ele><time>2026-04-26T12:52:19.023Z</time></trkpt><trkpt lat="43.8408417" lon="12.362215"><ele>905.0</ele><time>2026-04-26T12:52:20.024Z</time></trkpt><trkpt lat="43.84079" lon="12.3623017"><ele>905.0000000000001</ele><time>2026-04-26T12:52:21.026Z</time></trkpt><trkpt lat="43.8407267" lon="12.36236"><ele>905.0</ele><time>2026-04-26T12:52:22.023Z</time></trkpt><trkpt lat="43.8406567" lon="12.3623683"><ele>905.0</ele><time>2026-04-26T12:52:23.024Z</time></trkpt><trkpt lat="43.8405917" lon="12.3623383"><ele>905.0</ele><time>2026-04-26T12:52:24.025Z</time></trkpt><trkpt lat="43.8405267" lon="12.362275"><ele>905.0000000000001</ele><time>2026-04-26T12:52:25.024Z</time></trkpt><trkpt lat="43.8404983" lon="12.3621467"><ele>905.0</ele><time>2026-04-26T12:52:26.023Z</time></trkpt><trkpt lat="43.8404967" lon="12.3619833"><ele>904.5</ele><time>2026-04-26T12:52:27.026Z</time></trkpt><trkpt lat="43.8404867" lon="12.3618"><ele>904.0</ele><time>2026-04-26T12:52:28.025Z</time></trkpt><trkpt lat="43.840485" lon="12.3615967"><ele>903.5</ele><time>2026-04-26T12:52:29.026Z</time></trkpt><trkpt lat="43.8404783" lon="12.361375"><ele>903.0</ele><time>2026-04-26T12:52:30.022Z</time></trkpt><trkpt lat="43.84048" lon="12.3611483"><ele>903.0</ele><time>2026-04-26T12:52:31.024Z</time></trkpt><trkpt lat="43.8404817" lon="12.3609483"><ele>903.0</ele><time>2026-04-26T12:52:32.024Z</time></trkpt><trkpt lat="43.840485" lon="12.3607733"><ele>903.0</ele><time>2026-04-26T12:52:33.026Z</time></trkpt><trkpt lat="43.8404883" lon="12.3606117"><ele>903.0</ele><time>2026-04-26T12:52:34.027Z</time></trkpt><trkpt lat="43.8404867" lon="12.360455"><ele>902.2</ele><time>2026-04-26T12:52:35.031Z</time></trkpt><trkpt lat="43.84048" lon="12.3603067"><ele>901.4</ele><time>2026-04-26T12:52:36.024Z</time></trkpt><trkpt lat="43.8404767" lon="12.3601633"><ele>900.6000000000001</ele><time>2026-04-26T12:52:37.024Z</time></trkpt><trkpt lat="43.8404683" lon="12.3600267"><ele>899.8000000000001</ele><time>2026-04-26T12:52:38.024Z</time></trkpt><trkpt lat="43.840455" lon="12.3598983"><ele>899.0</ele><time>2026-04-26T12:52:39.023Z</time></trkpt><trkpt lat="43.84045" lon="12.3597767"><ele>898.6666666666667</ele><time>2026-04-26T12:52:40.027Z</time></trkpt><trkpt lat="43.840445" lon="12.35966"><ele>898.3333333333334</ele><time>2026-04-26T12:52:41.023Z</time></trkpt><trkpt lat="43.840445" lon="12.359555"><ele>898.0</ele><time>2026-04-26T12:52:42.022Z</time></trkpt><trkpt lat="43.8404467" lon="12.3594567"><ele>897.6666666666667</ele><time>2026-04-26T12:52:43.023Z</time></trkpt><trkpt lat="43.84044" lon="12.3593517"><ele>897.3333333333334</ele><time>2026-04-26T12:52:44.023Z</time></trkpt><trkpt lat="43.840435" lon="12.359235"><ele>897.0</ele><time>2026-04-26T12:52:45.026Z</time></trkpt><trkpt lat="43.8404367" lon="12.3591017"><ele>897.0</ele><time>2026-04-26T12:52:46.022Z</time></trkpt><trkpt lat="43.84043" lon="12.35895"><ele>897.0</ele><time>2026-04-26T12:52:47.023Z</time></trkpt><trkpt lat="43.8404267" lon="12.358795"><ele>897.0</ele><time>2026-04-26T12:52:48.021Z</time></trkpt><trkpt lat="43.840425" lon="12.3586433"><ele>897.0</ele><time>2026-04-26T12:52:49.025Z</time></trkpt><trkpt lat="43.84043" lon="12.358495"><ele>897.0</ele><time>2026-04-26T12:52:50.023Z</time></trkpt><trkpt lat="43.84042" lon="12.3583483"><ele>896.75</ele><time>2026-04-26T12:52:51.025Z</time></trkpt><trkpt lat="43.8404017" lon="12.3581967"><ele>896.5</ele><time>2026-04-26T12:52:52.022Z</time></trkpt><trkpt lat="43.8403633" lon="12.3580517"><ele>896.25</ele><time>2026-04-26T12:52:53.022Z</time></trkpt><trkpt lat="43.8403083" lon="12.3579083"><ele>896.0</ele><time>2026-04-26T12:52:54.023Z</time></trkpt><trkpt lat="43.8402517" lon="12.3577667"><ele>896.4</ele><time>2026-04-26T12:52:55.023Z</time></trkpt><trkpt lat="43.840195" lon="12.3576233"><ele>896.8</ele><time>2026-04-26T12:52:56.023Z</time></trkpt><trkpt lat="43.8401433" lon="12.3574867"><ele>897.1999999999999</ele><time>2026-04-26T12:52:57.024Z</time></trkpt><trkpt lat="43.8400967" lon="12.3573567"><ele>897.5999999999999</ele><time>2026-04-26T12:52:58.023Z</time></trkpt><trkpt lat="43.8400433" lon="12.35723"><ele>898.0</ele><time>2026-04-26T12:52:59.022Z</time></trkpt><trkpt lat="43.8399733" lon="12.357125"><ele>896.5999999999999</ele><time>2026-04-26T12:53:00.022Z</time></trkpt><trkpt lat="43.8399033" lon="12.3570217"><ele>895.1999999999999</ele><time>2026-04-26T12:53:01.023Z</time></trkpt><trkpt lat="43.8398217" lon="12.3569367"><ele>893.8</ele><time>2026-04-26T12:53:02.025Z</time></trkpt><trkpt lat="43.839735" lon="12.3568583"><ele>892.4</ele><time>2026-04-26T12:53:03.026Z</time></trkpt><trkpt lat="43.83964" lon="12.3568017"><ele>891.0</ele><time>2026-04-26T12:53:04.027Z</time></trkpt><trkpt lat="43.8395517" lon="12.3567733"><ele>891.0</ele><time>2026-04-26T12:53:05.022Z</time></trkpt><trkpt lat="43.8394617" lon="12.3567717"><ele>891.0</ele><time>2026-04-26T12:53:06.026Z</time></trkpt><trkpt lat="43.839375" lon="12.3568"><ele>891.0</ele><time>2026-04-26T12:53:07.023Z</time></trkpt><trkpt lat="43.8392967" lon="12.3568467"><ele>891.0</ele><time>2026-04-26T12:53:08.025Z</time></trkpt><trkpt lat="43.8392267" lon="12.3569"><ele>891.0</ele><time>2026-04-26T12:53:09.028Z</time></trkpt><trkpt lat="43.83917" lon="12.3569683"><ele>891.0</ele><time>2026-04-26T12:53:10.024Z</time></trkpt><trkpt lat="43.8391233" lon="12.3570533"><ele>890.1666666666666</ele><time>2026-04-26T12:53:11.023Z</time></trkpt><trkpt lat="43.8390683" lon="12.357135"><ele>889.3333333333333</ele><time>2026-04-26T12:53:12.023Z</time></trkpt><trkpt lat="43.8390167" lon="12.3572217"><ele>888.5</ele><time>2026-04-26T12:53:13.023Z</time></trkpt><trkpt lat="43.8389733" lon="12.3573017"><ele>887.6666666666666</ele><time>2026-04-26T12:53:14.026Z</time></trkpt><trkpt lat="43.8389267" lon="12.3574433"><ele>886.8333333333333</ele><time>2026-04-26T12:53:16.023Z</time></trkpt><trkpt lat="43.8389217" lon="12.357555"><ele>886.0</ele><time>2026-04-26T12:53:18.023Z</time></trkpt><trkpt lat="43.8389819" lon="12.3576183"><ele>886.0</ele><time>2026-04-26T12:53:21.023Z</time></trkpt><trkpt lat="43.8389636" lon="12.3575084"><ele>886.0</ele><time>2026-04-26T12:53:26.069Z</time></trkpt><trkpt lat="43.8389413" lon="12.3573869"><ele>886.0</ele><time>2026-04-26T12:53:28.022Z</time></trkpt><trkpt lat="43.8390482" lon="12.3571821"><ele>886.0</ele><time>2026-04-26T12:53:30.024Z</time></trkpt><trkpt lat="43.8391321" lon="12.357057"><ele>886.0</ele><time>2026-04-26T12:53:31.024Z</time></trkpt><trkpt lat="43.8392287" lon="12.3569305"><ele>886.0</ele><time>2026-04-26T12:53:32.024Z</time></trkpt><trkpt lat="43.8393461" lon="12.3568424"><ele>886.0</ele><time>2026-04-26T12:53:33.024Z</time></trkpt><trkpt lat="43.839476" lon="12.3568026"><ele>886.0</ele><time>2026-04-26T12:53:34.024Z</time></trkpt><trkpt lat="43.8395923" lon="12.3568188"><ele>886.5999999999999</ele><time>2026-04-26T12:53:35.026Z</time></trkpt><trkpt lat="43.839684" lon="12.3568659"><ele>887.1999999999999</ele><time>2026-04-26T12:53:36.022Z</time></trkpt><trkpt lat="43.8397628" lon="12.3569187"><ele>887.8000000000001</ele><time>2026-04-26T12:53:37.022Z</time></trkpt><trkpt lat="43.8398203" lon="12.3569945"><ele>888.4000000000001</ele><time>2026-04-26T12:53:38.025Z</time></trkpt><trkpt lat="43.8398455" lon="12.3571101"><ele>889.0</ele><time>2026-04-26T12:53:39.023Z</time></trkpt><trkpt lat="43.8397698" lon="12.3573018"><ele>889.0</ele><time>2026-04-26T12:53:40.029Z</time></trkpt><trkpt lat="43.8396663" lon="12.3575167"><ele>889.0</ele><time>2026-04-26T12:53:41.022Z</time></trkpt><trkpt lat="43.8395765" lon="12.3577478"><ele>889.0</ele><time>2026-04-26T12:53:42.023Z</time></trkpt><trkpt lat="43.839481" lon="12.3579737"><ele>888.3333333333333</ele><time>2026-04-26T12:53:43.022Z</time></trkpt><trkpt lat="43.8393933" lon="12.3582051"><ele>887.6666666666667</ele><time>2026-04-26T12:53:44.022Z</time></trkpt><trkpt lat="43.8393088" lon="12.3584414"><ele>887.0</ele><time>2026-04-26T12:53:45.023Z</time></trkpt><trkpt lat="43.8392237" lon="12.3586839"><ele>882.6666666666667</ele><time>2026-04-26T12:53:46.025Z</time></trkpt><trkpt lat="43.8391417" lon="12.358929"><ele>878.3333333333333</ele><time>2026-04-26T12:53:47.021Z</time></trkpt><trkpt lat="43.8390591" lon="12.3591751"><ele>874.0</ele><time>2026-04-26T12:53:48.022Z</time></trkpt><trkpt lat="43.8389718" lon="12.3594066"><ele>874.0</ele><time>2026-04-26T12:53:49.023Z</time></trkpt><trkpt lat="43.8388985" lon="12.3596275"><ele>874.0</ele><time>2026-04-26T12:53:50.022Z</time></trkpt><trkpt lat="43.8388501" lon="12.3598447"><ele>874.0</ele><time>2026-04-26T12:53:51.023Z</time></trkpt><trkpt lat="43.8388319" lon="12.3600667"><ele>874.6666666666666</ele><time>2026-04-26T12:53:52.022Z</time></trkpt><trkpt lat="43.838847" lon="12.3603039"><ele>875.3333333333333</ele><time>2026-04-26T12:53:53.023Z</time></trkpt><trkpt lat="43.8388769" lon="12.3605507"><ele>876.0</ele><time>2026-04-26T12:53:54.024Z</time></trkpt><trkpt lat="43.838918" lon="12.3607896"><ele>876.0</ele><time>2026-04-26T12:53:55.03Z</time></trkpt><trkpt lat="43.8389561" lon="12.3610096"><ele>876.0</ele><time>2026-04-26T12:53:56.023Z</time></trkpt><trkpt lat="43.838981" lon="12.3612186"><ele>876.0</ele><time>2026-04-26T12:53:57.024Z</time></trkpt><trkpt lat="43.8389894" lon="12.3614292"><ele>875.0</ele><time>2026-04-26T12:53:58.026Z</time></trkpt><trkpt lat="43.8389739" lon="12.3616493"><ele>874.0</ele><time>2026-04-26T12:53:59.022Z</time></trkpt><trkpt lat="43.8389226" lon="12.3618786"><ele>873.0</ele><time>2026-04-26T12:54:00.025Z</time></trkpt><trkpt lat="43.8388426" lon="12.3621115"><ele>874.6666666666667</ele><time>2026-04-26T12:54:01.025Z</time></trkpt><trkpt lat="43.8387406" lon="12.3623394"><ele>876.3333333333334</ele><time>2026-04-26T12:54:02.023Z</time></trkpt><trkpt lat="43.8386279" lon="12.3625467"><ele>878.0</ele><time>2026-04-26T12:54:03.023Z</time></trkpt><trkpt lat="43.838512" lon="12.3627141"><ele>878.5</ele><time>2026-04-26T12:54:04.023Z</time></trkpt><trkpt lat="43.8383956" lon="12.3628342"><ele>879.0</ele><time>2026-04-26T12:54:05.022Z</time></trkpt><trkpt lat="43.838282" lon="12.3629308"><ele>879.5</ele><time>2026-04-26T12:54:06.022Z</time></trkpt><trkpt lat="43.8381695" lon="12.3630195"><ele>880.0</ele><time>2026-04-26T12:54:07.024Z</time></trkpt><trkpt lat="43.8380519" lon="12.3631104"><ele>880.0</ele><time>2026-04-26T12:54:08.024Z</time></trkpt><trkpt lat="43.8379262" lon="12.3632101"><ele>880.0</ele><time>2026-04-26T12:54:09.024Z</time></trkpt><trkpt lat="43.8377929" lon="12.3633248"><ele>880.0</ele><time>2026-04-26T12:54:10.027Z</time></trkpt><trkpt lat="43.8376522" lon="12.3634544"><ele>880.0</ele><time>2026-04-26T12:54:11.024Z</time></trkpt><trkpt lat="43.8375028" lon="12.3635966"><ele>880.0</ele><time>2026-04-26T12:54:12.023Z</time></trkpt><trkpt lat="43.8373473" lon="12.3637493"><ele>880.0</ele><time>2026-04-26T12:54:13.024Z</time></trkpt><trkpt lat="43.8371841" lon="12.3639134"><ele>880.0</ele><time>2026-04-26T12:54:14.023Z</time></trkpt><trkpt lat="43.8370167" lon="12.3640705"><ele>880.0</ele><time>2026-04-26T12:54:15.023Z</time></trkpt><trkpt lat="43.8368442" lon="12.3641982"><ele>880.0</ele><time>2026-04-26T12:54:16.023Z</time></trkpt><trkpt lat="43.8366699" lon="12.3642984"><ele>871.3333333333333</ele><time>2026-04-26T12:54:17.022Z</time></trkpt><trkpt lat="43.8365071" lon="12.3643902"><ele>862.6666666666667</ele><time>2026-04-26T12:54:18.022Z</time></trkpt><trkpt lat="43.8363613" lon="12.3644952"><ele>854.0</ele><time>2026-04-26T12:54:19.028Z</time></trkpt><trkpt lat="43.8362275" lon="12.3646192"><ele>850.6666666666667</ele><time>2026-04-26T12:54:20.026Z</time></trkpt><trkpt lat="43.8361095" lon="12.3647745"><ele>847.3333333333333</ele><time>2026-04-26T12:54:21.023Z</time></trkpt><trkpt lat="43.8360111" lon="12.3649528"><ele>844.0</ele><time>2026-04-26T12:54:22.024Z</time></trkpt><trkpt lat="43.8359259" lon="12.3651411"><ele>844.0</ele><time>2026-04-26T12:54:23.023Z</time></trkpt><trkpt lat="43.8358669" lon="12.3653346"><ele>844.0</ele><time>2026-04-26T12:54:24.024Z</time></trkpt><trkpt lat="43.8358279" lon="12.3655295"><ele>844.0</ele><time>2026-04-26T12:54:25.024Z</time></trkpt><trkpt lat="43.8358105" lon="12.3657184"><ele>844.0</ele><time>2026-04-26T12:54:26.024Z</time></trkpt><trkpt lat="43.8358127" lon="12.3658961"><ele>844.25</ele><time>2026-04-26T12:54:27.024Z</time></trkpt><trkpt lat="43.8358403" lon="12.3660675"><ele>844.5</ele><time>2026-04-26T12:54:28.022Z</time></trkpt><trkpt lat="43.8358973" lon="12.3662429"><ele>844.75</ele><time>2026-04-26T12:54:29.025Z</time></trkpt><trkpt lat="43.8359764" lon="12.3664315"><ele>845.0</ele><time>2026-04-26T12:54:30.024Z</time></trkpt><trkpt lat="43.8360662" lon="12.3666338"><ele>851.6666666666667</ele><time>2026-04-26T12:54:31.024Z</time></trkpt><trkpt lat="43.8361501" lon="12.366846"><ele>858.3333333333333</ele><time>2026-04-26T12:54:32.024Z</time></trkpt><trkpt lat="43.8362356" lon="12.3670729"><ele>865.0</ele><time>2026-04-26T12:54:33.023Z</time></trkpt><trkpt lat="43.8363117" lon="12.3673182"><ele>865.0</ele><time>2026-04-26T12:54:34.023Z</time></trkpt><trkpt lat="43.8363891" lon="12.367577"><ele>865.0</ele><time>2026-04-26T12:54:35.025Z</time></trkpt><trkpt lat="43.8364713" lon="12.3678358"><ele>865.0</ele><time>2026-04-26T12:54:36.024Z</time></trkpt><trkpt lat="43.8365565" lon="12.3680872"><ele>863.0</ele><time>2026-04-26T12:54:37.025Z</time></trkpt><trkpt lat="43.8366401" lon="12.3683405"><ele>861.0</ele><time>2026-04-26T12:54:38.025Z</time></trkpt><trkpt lat="43.8367236" lon="12.3685994"><ele>859.0</ele><time>2026-04-26T12:54:39.028Z</time></trkpt><trkpt lat="43.8368102" lon="12.3688513"><ele>860.0</ele><time>2026-04-26T12:54:40.022Z</time></trkpt><trkpt lat="43.8368878" lon="12.3690891"><ele>861.0</ele><time>2026-04-26T12:54:41.027Z</time></trkpt><trkpt lat="43.8369626" lon="12.3692994"><ele>862.0</ele><time>2026-04-26T12:54:42.024Z</time></trkpt><trkpt lat="43.8370184" lon="12.3694971"><ele>862.0</ele><time>2026-04-26T12:54:43.024Z</time></trkpt><trkpt lat="43.8370638" lon="12.3696739"><ele>862.0</ele><time>2026-04-26T12:54:44.023Z</time></trkpt><trkpt lat="43.8371046" lon="12.3698324"><ele>862.0</ele><time>2026-04-26T12:54:45.024Z</time></trkpt><trkpt lat="43.8371415" lon="12.369974"><ele>862.0</ele><time>2026-04-26T12:54:46.024Z</time></trkpt><trkpt lat="43.8371891" lon="12.3700905"><ele>861.4000000000001</ele><time>2026-04-26T12:54:47.024Z</time></trkpt><trkpt lat="43.837251" lon="12.37018"><ele>860.8000000000001</ele><time>2026-04-26T12:54:48.024Z</time></trkpt><trkpt lat="43.8373338" lon="12.3702489"><ele>860.2</ele><time>2026-04-26T12:54:49.024Z</time></trkpt><trkpt lat="43.8374407" lon="12.3702899"><ele>859.6</ele><time>2026-04-26T12:54:50.023Z</time></trkpt><trkpt lat="43.8375668" lon="12.3703145"><ele>859.0</ele><time>2026-04-26T12:54:51.026Z</time></trkpt><trkpt lat="43.837707" lon="12.3703324"><ele>859.0</ele><time>2026-04-26T12:54:52.023Z</time></trkpt><trkpt lat="43.8378554" lon="12.3703595"><ele>859.0</ele><time>2026-04-26T12:54:53.023Z</time></trkpt><trkpt lat="43.8380149" lon="12.3704001"><ele>859.0</ele><time>2026-04-26T12:54:54.023Z</time></trkpt><trkpt lat="43.8381823" lon="12.3704478"><ele>859.0</ele><time>2026-04-26T12:54:55.023Z</time></trkpt><trkpt lat="43.8383612" lon="12.3705012"><ele>859.0</ele><time>2026-04-26T12:54:56.025Z</time></trkpt><trkpt lat="43.8385429" lon="12.3705634"><ele>859.0</ele><time>2026-04-26T12:54:57.025Z</time></trkpt><trkpt lat="43.8387147" lon="12.3706289"><ele>857.6666666666666</ele><time>2026-04-26T12:54:58.024Z</time></trkpt><trkpt lat="43.8388727" lon="12.3706936"><ele>856.3333333333333</ele><time>2026-04-26T12:54:59.024Z</time></trkpt><trkpt lat="43.8390216" lon="12.370757"><ele>855.0</ele><time>2026-04-26T12:55:00.024Z</time></trkpt><trkpt lat="43.8391698" lon="12.3708229"><ele>855.0</ele><time>2026-04-26T12:55:01.023Z</time></trkpt><trkpt lat="43.839319" lon="12.3708995"><ele>855.0</ele><time>2026-04-26T12:55:02.026Z</time></trkpt><trkpt lat="43.8394707" lon="12.3709732"><ele>855.0</ele><time>2026-04-26T12:55:03.025Z</time></trkpt><trkpt lat="43.8396251" lon="12.3710594"><ele>855.0</ele><time>2026-04-26T12:55:04.025Z</time></trkpt><trkpt lat="43.8397853" lon="12.3711597"><ele>855.0</ele><time>2026-04-26T12:55:05.025Z</time></trkpt><trkpt lat="43.8399475" lon="12.3712771"><ele>855.0</ele><time>2026-04-26T12:55:06.024Z</time></trkpt><trkpt lat="43.8401183" lon="12.3714032"><ele>850.3333333333333</ele><time>2026-04-26T12:55:07.027Z</time></trkpt><trkpt lat="43.8402942" lon="12.3715356"><ele>845.6666666666666</ele><time>2026-04-26T12:55:08.023Z</time></trkpt><trkpt lat="43.8404726" lon="12.3716679"><ele>841.0</ele><time>2026-04-26T12:55:09.023Z</time></trkpt><trkpt lat="43.8406433" lon="12.371806"><ele>841.0</ele><time>2026-04-26T12:55:10.025Z</time></trkpt><trkpt lat="43.8408" lon="12.3719582"><ele>841.0</ele><time>2026-04-26T12:55:11.023Z</time></trkpt><trkpt lat="43.840949" lon="12.3721139"><ele>841.0</ele><time>2026-04-26T12:55:12.024Z</time></trkpt><trkpt lat="43.8410877" lon="12.372277"><ele>840.6666666666666</ele><time>2026-04-26T12:55:13.024Z</time></trkpt><trkpt lat="43.8412286" lon="12.3724323"><ele>840.3333333333333</ele><time>2026-04-26T12:55:14.023Z</time></trkpt><trkpt lat="43.8413683" lon="12.3725811"><ele>840.0</ele><time>2026-04-26T12:55:15.027Z</time></trkpt><trkpt lat="43.8415033" lon="12.3727133"><ele>840.0</ele><time>2026-04-26T12:55:16.024Z</time></trkpt><trkpt lat="43.8416417" lon="12.37284"><ele>840.0</ele><time>2026-04-26T12:55:17.025Z</time></trkpt><trkpt lat="43.8417883" lon="12.3729483"><ele>840.0</ele><time>2026-04-26T12:55:18.023Z</time></trkpt><trkpt lat="43.8419517" lon="12.3730217"><ele>838.0</ele><time>2026-04-26T12:55:19.026Z</time></trkpt><trkpt lat="43.8421233" lon="12.373085"><ele>836.0</ele><time>2026-04-26T12:55:20.024Z</time></trkpt><trkpt lat="43.8423017" lon="12.3731383"><ele>834.0</ele><time>2026-04-26T12:55:21.024Z</time></trkpt><trkpt lat="43.8424883" lon="12.37319"><ele>836.0</ele><time>2026-04-26T12:55:22.027Z</time></trkpt><trkpt lat="43.8426767" lon="12.373235"><ele>838.0</ele><time>2026-04-26T12:55:23.024Z</time></trkpt><trkpt lat="43.842865" lon="12.37327"><ele>840.0</ele><time>2026-04-26T12:55:24.025Z</time></trkpt><trkpt lat="43.8430533" lon="12.373305"><ele>840.0</ele><time>2026-04-26T12:55:25.024Z</time></trkpt><trkpt lat="43.8432417" lon="12.3733467"><ele>840.0</ele><time>2026-04-26T12:55:26.026Z</time></trkpt><trkpt lat="43.8434283" lon="12.3733967"><ele>840.0</ele><time>2026-04-26T12:55:27.025Z</time></trkpt><trkpt lat="43.8436083" lon="12.3734317"><ele>841.6666666666667</ele><time>2026-04-26T12:55:28.024Z</time></trkpt><trkpt lat="43.843785" lon="12.3734833"><ele>843.3333333333334</ele><time>2026-04-26T12:55:29.026Z</time></trkpt><trkpt lat="43.8439717" lon="12.37353"><ele>845.0</ele><time>2026-04-26T12:55:30.026Z</time></trkpt><trkpt lat="43.8441633" lon="12.3735583"><ele>846.6666666666667</ele><time>2026-04-26T12:55:31.024Z</time></trkpt><trkpt lat="43.84436" lon="12.373575"><ele>848.3333333333333</ele><time>2026-04-26T12:55:32.027Z</time></trkpt><trkpt lat="43.844555" lon="12.3735933"><ele>850.0</ele><time>2026-04-26T12:55:33.028Z</time></trkpt><trkpt lat="43.844745" lon="12.3736067"><ele>850.0</ele><time>2026-04-26T12:55:34.024Z</time></trkpt><trkpt lat="43.84492" lon="12.3736417"><ele>850.0</ele><time>2026-04-26T12:55:35.024Z</time></trkpt><trkpt lat="43.8450817" lon="12.373695"><ele>850.0</ele><time>2026-04-26T12:55:36.024Z</time></trkpt><trkpt lat="43.8452317" lon="12.3737467"><ele>849.0</ele><time>2026-04-26T12:55:37.029Z</time></trkpt><trkpt lat="43.8453783" lon="12.3738017"><ele>848.0</ele><time>2026-04-26T12:55:38.027Z</time></trkpt><trkpt lat="43.8455283" lon="12.37385"><ele>847.0</ele><time>2026-04-26T12:55:39.026Z</time></trkpt><trkpt lat="43.8456817" lon="12.373885"><ele>845.0</ele><time>2026-04-26T12:55:40.022Z</time></trkpt><trkpt lat="43.845845" lon="12.3739133"><ele>843.0</ele><time>2026-04-26T12:55:41.023Z</time></trkpt><trkpt lat="43.8460183" lon="12.3739183"><ele>841.0</ele><time>2026-04-26T12:55:42.022Z</time></trkpt><trkpt lat="43.8461983" lon="12.3739083"><ele>841.0</ele><time>2026-04-26T12:55:43.025Z</time></trkpt><trkpt lat="43.8463833" lon="12.3738933"><ele>841.0</ele><time>2026-04-26T12:55:44.026Z</time></trkpt><trkpt lat="43.8465717" lon="12.37387"><ele>841.0</ele><time>2026-04-26T12:55:45.024Z</time></trkpt><trkpt lat="43.8467583" lon="12.3738433"><ele>843.3333333333333</ele><time>2026-04-26T12:55:46.026Z</time></trkpt><trkpt lat="43.846945" lon="12.3738117"><ele>845.6666666666667</ele><time>2026-04-26T12:55:47.024Z</time></trkpt><trkpt lat="43.8471267" lon="12.37379"><ele>848.0</ele><time>2026-04-26T12:55:48.026Z</time></trkpt><trkpt lat="43.8473083" lon="12.3737683"><ele>848.0</ele><time>2026-04-26T12:55:49.023Z</time></trkpt><trkpt lat="43.8474883" lon="12.3737117"><ele>848.0</ele><time>2026-04-26T12:55:50.027Z</time></trkpt><trkpt lat="43.8476567" lon="12.3736617"><ele>848.0</ele><time>2026-04-26T12:55:51.026Z</time></trkpt><trkpt lat="43.8478183" lon="12.3736183"><ele>848.0</ele><time>2026-04-26T12:55:52.025Z</time></trkpt><trkpt lat="43.8479733" lon="12.37357"><ele>848.0</ele><time>2026-04-26T12:55:53.024Z</time></trkpt><trkpt lat="43.848125" lon="12.37355"><ele>848.0</ele><time>2026-04-26T12:55:54.025Z</time></trkpt><trkpt lat="43.8482683" lon="12.3735533"><ele>848.0</ele><time>2026-04-26T12:55:55.024Z</time></trkpt><trkpt lat="43.84841" lon="12.3735467"><ele>848.0</ele><time>2026-04-26T12:55:56.025Z</time></trkpt><trkpt lat="43.8485583" lon="12.3735217"><ele>848.0</ele><time>2026-04-26T12:55:57.025Z</time></trkpt><trkpt lat="43.8487267" lon="12.373475"><ele>844.6666666666667</ele><time>2026-04-26T12:55:58.023Z</time></trkpt><trkpt lat="43.8488967" lon="12.3734067"><ele>841.3333333333333</ele><time>2026-04-26T12:55:59.023Z</time></trkpt><trkpt lat="43.849065" lon="12.3733567"><ele>838.0</ele><time>2026-04-26T12:56:00.024Z</time></trkpt><trkpt lat="43.84923" lon="12.3733483"><ele>838.0</ele><time>2026-04-26T12:56:01.025Z</time></trkpt><trkpt lat="43.849385" lon="12.3733933"><ele>838.0</ele><time>2026-04-26T12:56:02.026Z</time></trkpt><trkpt lat="43.8495317" lon="12.3734683"><ele>838.0</ele><time>2026-04-26T12:56:03.025Z</time></trkpt><trkpt lat="43.849675" lon="12.3735483"><ele>838.0</ele><time>2026-04-26T12:56:04.024Z</time></trkpt><trkpt lat="43.8498117" lon="12.3736217"><ele>838.0</ele><time>2026-04-26T12:56:05.024Z</time></trkpt><trkpt lat="43.84995" lon="12.3736867"><ele>838.0</ele><time>2026-04-26T12:56:06.025Z</time></trkpt><trkpt lat="43.8500933" lon="12.3737483"><ele>838.0</ele><time>2026-04-26T12:56:07.025Z</time></trkpt><trkpt lat="43.850235" lon="12.3737867"><ele>836.0</ele><time>2026-04-26T12:56:08.025Z</time></trkpt><trkpt lat="43.8503567" lon="12.3738267"><ele>834.0</ele><time>2026-04-26T12:56:09.026Z</time></trkpt><trkpt lat="43.850465" lon="12.3738067"><ele>832.0</ele><time>2026-04-26T12:56:10.026Z</time></trkpt><trkpt lat="43.8505483" lon="12.3738117"><ele>830.0</ele><time>2026-04-26T12:56:11.025Z</time></trkpt><trkpt lat="43.8506333" lon="12.37381"><ele>828.0</ele><time>2026-04-26T12:56:12.025Z</time></trkpt><trkpt lat="43.850715" lon="12.3738217"><ele>826.5999999999999</ele><time>2026-04-26T12:56:13.024Z</time></trkpt><trkpt lat="43.850785" lon="12.37386"><ele>825.1999999999999</ele><time>2026-04-26T12:56:14.025Z</time></trkpt><trkpt lat="43.8508367" lon="12.3739767"><ele>823.8</ele><time>2026-04-26T12:56:15.025Z</time></trkpt><trkpt lat="43.8508617" lon="12.3741283"><ele>822.4</ele><time>2026-04-26T12:56:16.023Z</time></trkpt><trkpt lat="43.8508767" lon="12.3743167"><ele>821.0</ele><time>2026-04-26T12:56:17.025Z</time></trkpt><trkpt lat="43.8508933" lon="12.3745233"><ele>818.3333333333334</ele><time>2026-04-26T12:56:18.026Z</time></trkpt><trkpt lat="43.850905" lon="12.3747383"><ele>815.6666666666667</ele><time>2026-04-26T12:56:19.028Z</time></trkpt><trkpt lat="43.8509233" lon="12.37495"><ele>813.0</ele><time>2026-04-26T12:56:20.024Z</time></trkpt><trkpt lat="43.8509367" lon="12.3751633"><ele>813.3333333333333</ele><time>2026-04-26T12:56:21.025Z</time></trkpt><trkpt lat="43.8509817" lon="12.3753783"><ele>813.6666666666666</ele><time>2026-04-26T12:56:22.023Z</time></trkpt><trkpt lat="43.8510433" lon="12.37561"><ele>814.0</ele><time>2026-04-26T12:56:23.024Z</time></trkpt><trkpt lat="43.8511167" lon="12.375855"><ele>812.0</ele><time>2026-04-26T12:56:24.025Z</time></trkpt><trkpt lat="43.8512117" lon="12.3761133"><ele>810.0</ele><time>2026-04-26T12:56:25.023Z</time></trkpt><trkpt lat="43.8512917" lon="12.3763717"><ele>808.0</ele><time>2026-04-26T12:56:26.024Z</time></trkpt><trkpt lat="43.8513767" lon="12.3766117"><ele>806.3333333333333</ele><time>2026-04-26T12:56:27.025Z</time></trkpt><trkpt lat="43.8514633" lon="12.3768233"><ele>804.6666666666667</ele><time>2026-04-26T12:56:28.024Z</time></trkpt><trkpt lat="43.8515433" lon="12.3770133"><ele>803.0</ele><time>2026-04-26T12:56:29.029Z</time></trkpt><trkpt lat="43.8515933" lon="12.3771733"><ele>802.0000000000001</ele><time>2026-04-26T12:56:30.024Z</time></trkpt><trkpt lat="43.8516283" lon="12.3773"><ele>801.0</ele><time>2026-04-26T12:56:31.025Z</time></trkpt><trkpt lat="43.8516533" lon="12.3774067"><ele>800.0</ele><time>2026-04-26T12:56:32.026Z</time></trkpt><trkpt lat="43.851695" lon="12.3774967"><ele>799.0</ele><time>2026-04-26T12:56:33.024Z</time></trkpt><trkpt lat="43.8517533" lon="12.377565"><ele>798.0000000000001</ele><time>2026-04-26T12:56:34.027Z</time></trkpt><trkpt lat="43.851815" lon="12.3776367"><ele>797.0</ele><time>2026-04-26T12:56:35.025Z</time></trkpt><trkpt lat="43.8518817" lon="12.37772"><ele>796.25</ele><time>2026-04-26T12:56:36.026Z</time></trkpt><trkpt lat="43.8519733" lon="12.377815"><ele>795.5</ele><time>2026-04-26T12:56:37.025Z</time></trkpt><trkpt lat="43.852075" lon="12.377935"><ele>794.75</ele><time>2026-04-26T12:56:38.023Z</time></trkpt><trkpt lat="43.8521783" lon="12.3780733"><ele>794.0</ele><time>2026-04-26T12:56:39.027Z</time></trkpt><trkpt lat="43.8522917" lon="12.3782067"><ele>793.2</ele><time>2026-04-26T12:56:40.022Z</time></trkpt><trkpt lat="43.852395" lon="12.3783267"><ele>792.4000000000001</ele><time>2026-04-26T12:56:41.021Z</time></trkpt><trkpt lat="43.852485" lon="12.3784367"><ele>791.6</ele><time>2026-04-26T12:56:42.022Z</time></trkpt><trkpt lat="43.8525683" lon="12.3785217"><ele>790.8</ele><time>2026-04-26T12:56:43.026Z</time></trkpt><trkpt lat="43.8526283" lon="12.37861"><ele>790.0</ele><time>2026-04-26T12:56:44.027Z</time></trkpt><trkpt lat="43.8526883" lon="12.3787033"><ele>789.75</ele><time>2026-04-26T12:56:45.025Z</time></trkpt><trkpt lat="43.852715" lon="12.3788333"><ele>789.5</ele><time>2026-04-26T12:56:46.023Z</time></trkpt><trkpt lat="43.8527333" lon="12.378995"><ele>789.25</ele><time>2026-04-26T12:56:47.028Z</time></trkpt><trkpt lat="43.8527533" lon="12.3791733"><ele>789.0</ele><time>2026-04-26T12:56:48.024Z</time></trkpt><trkpt lat="43.8527883" lon="12.3793567"><ele>788.0</ele><time>2026-04-26T12:56:49.025Z</time></trkpt><trkpt lat="43.852835" lon="12.3795283"><ele>787.0</ele><time>2026-04-26T12:56:50.026Z</time></trkpt><trkpt lat="43.8528967" lon="12.379685"><ele>786.0</ele><time>2026-04-26T12:56:51.027Z</time></trkpt><trkpt lat="43.8529483" lon="12.37984"><ele>785.0</ele><time>2026-04-26T12:56:52.027Z</time></trkpt><trkpt lat="43.8530083" lon="12.3799933"><ele>783.4</ele><time>2026-04-26T12:56:53.028Z</time></trkpt><trkpt lat="43.85307" lon="12.3801283"><ele>781.8</ele><time>2026-04-26T12:56:54.026Z</time></trkpt><trkpt lat="43.8531283" lon="12.380255"><ele>780.2</ele><time>2026-04-26T12:56:55.025Z</time></trkpt><trkpt lat="43.8531933" lon="12.38037"><ele>778.6</ele><time>2026-04-26T12:56:56.024Z</time></trkpt><trkpt lat="43.8532417" lon="12.3804917"><ele>777.0</ele><time>2026-04-26T12:56:57.026Z</time></trkpt><trkpt lat="43.8533" lon="12.3806067"><ele>775.4000000000001</ele><time>2026-04-26T12:56:58.031Z</time></trkpt><trkpt lat="43.8533583" lon="12.380715"><ele>773.8000000000001</ele><time>2026-04-26T12:56:59.025Z</time></trkpt><trkpt lat="43.85344" lon="12.3808"><ele>772.2</ele><time>2026-04-26T12:57:00.025Z</time></trkpt><trkpt lat="43.85351" lon="12.3808683"><ele>770.6</ele><time>2026-04-26T12:57:01.025Z</time></trkpt><trkpt lat="43.8535717" lon="12.3809233"><ele>769.0</ele><time>2026-04-26T12:57:02.025Z</time></trkpt><trkpt lat="43.8536583" lon="12.381015"><ele>767.8333333333333</ele><time>2026-04-26T12:57:04.026Z</time></trkpt><trkpt lat="43.8537183" lon="12.3810533"><ele>766.6666666666666</ele><time>2026-04-26T12:57:06.025Z</time></trkpt><trkpt lat="43.853785" lon="12.3810917"><ele>765.5</ele><time>2026-04-26T12:57:10.025Z</time></trkpt><trkpt lat="43.8538317" lon="12.3811567"><ele>764.3333333333333</ele><time>2026-04-26T12:57:34.027Z</time></trkpt><trkpt lat="43.8538417" lon="12.38127"><ele>763.1666666666666</ele><time>2026-04-26T12:58:03.025Z</time></trkpt><trkpt lat="43.8538283" lon="12.3814467"><ele>762.0</ele><time>2026-04-26T12:58:05.025Z</time></trkpt><trkpt lat="43.8538067" lon="12.3815483"><ele>760.4000000000001</ele><time>2026-04-26T12:58:06.024Z</time></trkpt><trkpt lat="43.8537917" lon="12.3816483"><ele>758.8000000000001</ele><time>2026-04-26T12:58:07.031Z</time></trkpt><trkpt lat="43.853765" lon="12.381805"><ele>757.2</ele><time>2026-04-26T12:58:09.026Z</time></trkpt><trkpt lat="43.8537517" lon="12.3819417"><ele>755.6</ele><time>2026-04-26T12:58:11.025Z</time></trkpt><trkpt lat="43.8538067" lon="12.3820533"><ele>754.0</ele><time>2026-04-26T12:58:13.026Z</time></trkpt><trkpt lat="43.8538967" lon="12.3820946"><ele>754.0</ele><time>2026-04-26T12:58:15.029Z</time></trkpt><trkpt lat="43.854" lon="12.3820796"><ele>754.0</ele><time>2026-04-26T12:58:17.023Z</time></trkpt><trkpt lat="43.854112" lon="12.3820623"><ele>754.0</ele><time>2026-04-26T12:58:19.026Z</time></trkpt><trkpt lat="43.8542183" lon="12.3820758"><ele>754.0</ele><time>2026-04-26T12:58:21.026Z</time></trkpt><trkpt lat="43.8543062" lon="12.3821012"><ele>754.0</ele><time>2026-04-26T12:58:23.026Z</time></trkpt><trkpt lat="43.8543848" lon="12.3821608"><ele>750.6666666666667</ele><time>2026-04-26T12:58:25.025Z</time></trkpt><trkpt lat="43.8544496" lon="12.3822414"><ele>747.3333333333334</ele><time>2026-04-26T12:58:27.028Z</time></trkpt><trkpt lat="43.8544988" lon="12.3823141"><ele>744.0</ele><time>2026-04-26T12:58:29.024Z</time></trkpt><trkpt lat="43.8545532" lon="12.3824117"><ele>740.6666666666666</ele><time>2026-04-26T12:58:32.027Z</time></trkpt><trkpt lat="43.8545855" lon="12.3824979"><ele>737.3333333333333</ele><time>2026-04-26T12:58:35.025Z</time></trkpt><trkpt lat="43.8546224" lon="12.3825908"><ele>734.0</ele><time>2026-04-26T12:58:37.025Z</time></trkpt><trkpt lat="43.8546689" lon="12.3827249"><ele>734.0</ele><time>2026-04-26T12:58:39.025Z</time></trkpt><trkpt lat="43.8547102" lon="12.38286"><ele>734.0</ele><time>2026-04-26T12:58:41.025Z</time></trkpt><trkpt lat="43.8547498" lon="12.3829695"><ele>734.0</ele><time>2026-04-26T12:58:43.025Z</time></trkpt><trkpt lat="43.8547918" lon="12.3830642"><ele>734.0</ele><time>2026-04-26T12:58:45.025Z</time></trkpt><trkpt lat="43.8548238" lon="12.3831825"><ele>734.0</ele><time>2026-04-26T12:58:47.024Z</time></trkpt><trkpt lat="43.8548459" lon="12.3832974"><ele>733.2</ele><time>2026-04-26T12:58:49.029Z</time></trkpt><trkpt lat="43.8548612" lon="12.3834107"><ele>732.4000000000001</ele><time>2026-04-26T12:58:51.024Z</time></trkpt><trkpt lat="43.8548866" lon="12.383511"><ele>731.6</ele><time>2026-04-26T12:58:53.024Z</time></trkpt><trkpt lat="43.854918" lon="12.3836091"><ele>730.8</ele><time>2026-04-26T12:58:55.036Z</time></trkpt><trkpt lat="43.8549736" lon="12.3837592"><ele>730.0</ele><time>2026-04-26T12:58:56.996Z</time></trkpt><trkpt lat="43.8549726" lon="12.3839181"><ele>729.2</ele><time>2026-04-26T12:58:59.022Z</time></trkpt><trkpt lat="43.8549863" lon="12.384023"><ele>728.4</ele><time>2026-04-26T12:59:00.029Z</time></trkpt><trkpt lat="43.8550036" lon="12.3841474"><ele>727.5999999999999</ele><time>2026-04-26T12:59:01.025Z</time></trkpt><trkpt lat="43.855027" lon="12.384293"><ele>726.8</ele><time>2026-04-26T12:59:02.027Z</time></trkpt><trkpt lat="43.8550817" lon="12.3844649"><ele>726.0</ele><time>2026-04-26T12:59:03.026Z</time></trkpt><trkpt lat="43.8551422" lon="12.3846435"><ele>719.6666666666666</ele><time>2026-04-26T12:59:04.023Z</time></trkpt><trkpt lat="43.8551929" lon="12.3848411"><ele>713.3333333333333</ele><time>2026-04-26T12:59:05.025Z</time></trkpt><trkpt lat="43.8552306" lon="12.3850509"><ele>707.0</ele><time>2026-04-26T12:59:06.023Z</time></trkpt><trkpt lat="43.8552624" lon="12.3852633"><ele>707.0</ele><time>2026-04-26T12:59:07.028Z</time></trkpt><trkpt lat="43.8552992" lon="12.3854712"><ele>707.0</ele><time>2026-04-26T12:59:08.021Z</time></trkpt><trkpt lat="43.8553653" lon="12.3856677"><ele>707.0</ele><time>2026-04-26T12:59:09.024Z</time></trkpt><trkpt lat="43.8554327" lon="12.3858655"><ele>708.3333333333333</ele><time>2026-04-26T12:59:10.023Z</time></trkpt><trkpt lat="43.8554864" lon="12.3860684"><ele>709.6666666666666</ele><time>2026-04-26T12:59:11.025Z</time></trkpt><trkpt lat="43.8555387" lon="12.3862686"><ele>711.0</ele><time>2026-04-26T12:59:12.024Z</time></trkpt><trkpt lat="43.855594" lon="12.3864711"><ele>712.6666666666666</ele><time>2026-04-26T12:59:13.023Z</time></trkpt><trkpt lat="43.8556387" lon="12.3866818"><ele>714.3333333333333</ele><time>2026-04-26T12:59:14.023Z</time></trkpt><trkpt lat="43.8556884" lon="12.3868887"><ele>716.0</ele><time>2026-04-26T12:59:15.024Z</time></trkpt><trkpt lat="43.8557537" lon="12.3870791"><ele>716.0</ele><time>2026-04-26T12:59:16.023Z</time></trkpt><trkpt lat="43.855839" lon="12.3872586"><ele>716.0</ele><time>2026-04-26T12:59:17.028Z</time></trkpt><trkpt lat="43.8559431" lon="12.3874121"><ele>716.0</ele><time>2026-04-26T12:59:18.024Z</time></trkpt><trkpt lat="43.8560544" lon="12.3875313"><ele>716.0</ele><time>2026-04-26T12:59:19.024Z</time></trkpt><trkpt lat="43.8561619" lon="12.387626"><ele>715.75</ele><time>2026-04-26T12:59:20.023Z</time></trkpt><trkpt lat="43.8562544" lon="12.3877196"><ele>715.5</ele><time>2026-04-26T12:59:21.025Z</time></trkpt><trkpt lat="43.8563336" lon="12.3878371"><ele>715.25</ele><time>2026-04-26T12:59:22.023Z</time></trkpt><trkpt lat="43.8564054" lon="12.3879795"><ele>715.0</ele><time>2026-04-26T12:59:23.022Z</time></trkpt><trkpt lat="43.8564726" lon="12.3881464"><ele>715.0</ele><time>2026-04-26T12:59:24.024Z</time></trkpt><trkpt lat="43.8565342" lon="12.3883273"><ele>715.0</ele><time>2026-04-26T12:59:25.024Z</time></trkpt><trkpt lat="43.856587" lon="12.3885045"><ele>715.0</ele><time>2026-04-26T12:59:26.024Z</time></trkpt><trkpt lat="43.8566353" lon="12.3886714"><ele>715.0</ele><time>2026-04-26T12:59:27.024Z</time></trkpt><trkpt lat="43.8566803" lon="12.388818"><ele>715.6</ele><time>2026-04-26T12:59:28.023Z</time></trkpt><trkpt lat="43.8567193" lon="12.3889495"><ele>716.2</ele><time>2026-04-26T12:59:29.024Z</time></trkpt><trkpt lat="43.8567538" lon="12.3890819"><ele>716.8</ele><time>2026-04-26T12:59:30.025Z</time></trkpt><trkpt lat="43.8567707" lon="12.3892303"><ele>717.4</ele><time>2026-04-26T12:59:31.023Z</time></trkpt><trkpt lat="43.8567903" lon="12.3893837"><ele>718.0</ele><time>2026-04-26T12:59:32.022Z</time></trkpt><trkpt lat="43.8568276" lon="12.3895418"><ele>718.0</ele><time>2026-04-26T12:59:33.026Z</time></trkpt><trkpt lat="43.8568956" lon="12.3897017"><ele>718.0</ele><time>2026-04-26T12:59:34.023Z</time></trkpt><trkpt lat="43.8569902" lon="12.3898593"><ele>718.0</ele><time>2026-04-26T12:59:35.023Z</time></trkpt><trkpt lat="43.8571008" lon="12.3900121"><ele>718.0</ele><time>2026-04-26T12:59:36.029Z</time></trkpt><trkpt lat="43.8572063" lon="12.3901539"><ele>718.0</ele><time>2026-04-26T12:59:37.026Z</time></trkpt><trkpt lat="43.8572973" lon="12.3902823"><ele>718.0</ele><time>2026-04-26T12:59:38.024Z</time></trkpt><trkpt lat="43.857376" lon="12.3903943"><ele>718.0</ele><time>2026-04-26T12:59:39.024Z</time></trkpt><trkpt lat="43.8574443" lon="12.3905051"><ele>718.0</ele><time>2026-04-26T12:59:40.023Z</time></trkpt><trkpt lat="43.8575145" lon="12.3906239"><ele>718.75</ele><time>2026-04-26T12:59:41.03Z</time></trkpt><trkpt lat="43.8575878" lon="12.3907584"><ele>719.5</ele><time>2026-04-26T12:59:42.024Z</time></trkpt><trkpt lat="43.857665" lon="12.3909208"><ele>720.25</ele><time>2026-04-26T12:59:43.025Z</time></trkpt><trkpt lat="43.8577556" lon="12.3910983"><ele>721.0</ele><time>2026-04-26T12:59:44.025Z</time></trkpt><trkpt lat="43.8578526" lon="12.3912818"><ele>718.25</ele><time>2026-04-26T12:59:45.028Z</time></trkpt><trkpt lat="43.8579471" lon="12.391456"><ele>715.5</ele><time>2026-04-26T12:59:46.027Z</time></trkpt><trkpt lat="43.8580281" lon="12.3916197"><ele>712.75</ele><time>2026-04-26T12:59:47.024Z</time></trkpt><trkpt lat="43.8580841" lon="12.3917809"><ele>710.0</ele><time>2026-04-26T12:59:48.024Z</time></trkpt><trkpt lat="43.8581115" lon="12.3919436"><ele>710.0</ele><time>2026-04-26T12:59:49.022Z</time></trkpt><trkpt lat="43.8581123" lon="12.3921164"><ele>710.0</ele><time>2026-04-26T12:59:50.025Z</time></trkpt><trkpt lat="43.8581004" lon="12.3922983"><ele>710.0</ele><time>2026-04-26T12:59:51.025Z</time></trkpt><trkpt lat="43.8580944" lon="12.3924877"><ele>710.0</ele><time>2026-04-26T12:59:52.025Z</time></trkpt><trkpt lat="43.8581074" lon="12.3926703"><ele>709.5</ele><time>2026-04-26T12:59:53.025Z</time></trkpt><trkpt lat="43.8581423" lon="12.3928398"><ele>709.0</ele><time>2026-04-26T12:59:54.028Z</time></trkpt><trkpt lat="43.8581911" lon="12.392999"><ele>708.5</ele><time>2026-04-26T12:59:55.025Z</time></trkpt><trkpt lat="43.8582531" lon="12.3931468"><ele>708.0</ele><time>2026-04-26T12:59:56.024Z</time></trkpt><trkpt lat="43.8583194" lon="12.3932836"><ele>707.0</ele><time>2026-04-26T12:59:57.026Z</time></trkpt><trkpt lat="43.8583829" lon="12.3934172"><ele>706.0</ele><time>2026-04-26T12:59:58.023Z</time></trkpt><trkpt lat="43.8584382" lon="12.3935566"><ele>705.0</ele><time>2026-04-26T12:59:59.024Z</time></trkpt><trkpt lat="43.8584833" lon="12.3937025"><ele>704.0</ele><time>2026-04-26T13:00:00.034Z</time></trkpt><trkpt lat="43.8585093" lon="12.3938577"><ele>698.75</ele><time>2026-04-26T13:00:01.027Z</time></trkpt><trkpt lat="43.8585323" lon="12.3940203"><ele>693.5</ele><time>2026-04-26T13:00:02.026Z</time></trkpt><trkpt lat="43.8585537" lon="12.3941906"><ele>688.25</ele><time>2026-04-26T13:00:03.022Z</time></trkpt><trkpt lat="43.8585668" lon="12.3943706"><ele>683.0</ele><time>2026-04-26T13:00:04.024Z</time></trkpt><trkpt lat="43.8585667" lon="12.3945556"><ele>682.25</ele><time>2026-04-26T13:00:05.025Z</time></trkpt><trkpt lat="43.8585501" lon="12.394737"><ele>681.5</ele><time>2026-04-26T13:00:06.025Z</time></trkpt><trkpt lat="43.8585467" lon="12.3949028"><ele>680.75</ele><time>2026-04-26T13:00:07.022Z</time></trkpt><trkpt lat="43.8585548" lon="12.3950538"><ele>680.0</ele><time>2026-04-26T13:00:08.024Z</time></trkpt><trkpt lat="43.8585585" lon="12.3952044"><ele>680.0</ele><time>2026-04-26T13:00:09.025Z</time></trkpt><trkpt lat="43.8585686" lon="12.3953567"><ele>680.0</ele><time>2026-04-26T13:00:10.024Z</time></trkpt><trkpt lat="43.8585792" lon="12.3955163"><ele>680.0</ele><time>2026-04-26T13:00:11.022Z</time></trkpt><trkpt lat="43.8586043" lon="12.3956794"><ele>680.0</ele><time>2026-04-26T13:00:12.025Z</time></trkpt><trkpt lat="43.8586357" lon="12.3958445"><ele>679.0</ele><time>2026-04-26T13:00:13.025Z</time></trkpt><trkpt lat="43.8586529" lon="12.3960149"><ele>678.0</ele><time>2026-04-26T13:00:14.022Z</time></trkpt><trkpt lat="43.8586646" lon="12.3961834"><ele>677.0</ele><time>2026-04-26T13:00:15.029Z</time></trkpt><trkpt lat="43.8586762" lon="12.3963446"><ele>676.0</ele><time>2026-04-26T13:00:16.026Z</time></trkpt><trkpt lat="43.8586928" lon="12.3965047"><ele>675.1999999999999</ele><time>2026-04-26T13:00:17.023Z</time></trkpt><trkpt lat="43.8587081" lon="12.3966605"><ele>674.4</ele><time>2026-04-26T13:00:18.024Z</time></trkpt><trkpt lat="43.8587196" lon="12.3968045"><ele>673.6</ele><time>2026-04-26T13:00:19.023Z</time></trkpt><trkpt lat="43.8587256" lon="12.3969455"><ele>672.8</ele><time>2026-04-26T13:00:20.024Z</time></trkpt><trkpt lat="43.8587212" lon="12.3970765"><ele>672.0</ele><time>2026-04-26T13:00:21.025Z</time></trkpt><trkpt lat="43.8587175" lon="12.3972013"><ele>670.6</ele><time>2026-04-26T13:00:22.023Z</time></trkpt><trkpt lat="43.8587122" lon="12.3973242"><ele>669.2</ele><time>2026-04-26T13:00:23.026Z</time></trkpt><trkpt lat="43.8587059" lon="12.3974455"><ele>667.8</ele><time>2026-04-26T13:00:24.023Z</time></trkpt><trkpt lat="43.8586824" lon="12.3975788"><ele>666.4</ele><time>2026-04-26T13:00:25.024Z</time></trkpt><trkpt lat="43.8586514" lon="12.3977182"><ele>665.0</ele><time>2026-04-26T13:00:26.024Z</time></trkpt><trkpt lat="43.858625" lon="12.3978698"><ele>663.0</ele><time>2026-04-26T13:00:27.024Z</time></trkpt><trkpt lat="43.8585981" lon="12.3980278"><ele>661.0</ele><time>2026-04-26T13:00:28.024Z</time></trkpt><trkpt lat="43.8585683" lon="12.3981817"><ele>659.0</ele><time>2026-04-26T13:00:29.023Z</time></trkpt><trkpt lat="43.8585419" lon="12.3983325"><ele>657.0</ele><time>2026-04-26T13:00:30.024Z</time></trkpt><trkpt lat="43.8585168" lon="12.3984749"><ele>657.0</ele><time>2026-04-26T13:00:31.024Z</time></trkpt><trkpt lat="43.8584984" lon="12.3986175"><ele>657.0</ele><time>2026-04-26T13:00:32.029Z</time></trkpt><trkpt lat="43.8584819" lon="12.3987501"><ele>657.0</ele><time>2026-04-26T13:00:33.026Z</time></trkpt><trkpt lat="43.8584648" lon="12.3988717"><ele>657.0</ele><time>2026-04-26T13:00:34.024Z</time></trkpt><trkpt lat="43.8584527" lon="12.3989867"><ele>657.0</ele><time>2026-04-26T13:00:35.023Z</time></trkpt><trkpt lat="43.8584468" lon="12.3991021"><ele>656.3333333333334</ele><time>2026-04-26T13:00:36.024Z</time></trkpt><trkpt lat="43.8584465" lon="12.3992186"><ele>655.6666666666666</ele><time>2026-04-26T13:00:37.027Z</time></trkpt><trkpt lat="43.8584526" lon="12.3993374"><ele>655.0</ele><time>2026-04-26T13:00:38.023Z</time></trkpt><trkpt lat="43.8584675" lon="12.3994459"><ele>654.3333333333333</ele><time>2026-04-26T13:00:39.027Z</time></trkpt><trkpt lat="43.8584892" lon="12.3995353"><ele>653.6666666666666</ele><time>2026-04-26T13:00:40.024Z</time></trkpt><trkpt lat="43.8585473" lon="12.399657"><ele>653.0</ele><time>2026-04-26T13:00:42.023Z</time></trkpt><trkpt lat="43.8586476" lon="12.3997019"><ele>652.2</ele><time>2026-04-26T13:00:44.023Z</time></trkpt><trkpt lat="43.8587761" lon="12.3996772"><ele>651.4</ele><time>2026-04-26T13:00:46.023Z</time></trkpt><trkpt lat="43.8588565" lon="12.399637"><ele>650.6</ele><time>2026-04-26T13:00:47.023Z</time></trkpt><trkpt lat="43.8589426" lon="12.3995744"><ele>649.8000000000001</ele><time>2026-04-26T13:00:48.022Z</time></trkpt><trkpt lat="43.8590243" lon="12.3994921"><ele>649.0</ele><time>2026-04-26T13:00:49.023Z</time></trkpt><trkpt lat="43.8591083" lon="12.3994116"><ele>649.0</ele><time>2026-04-26T13:00:50.022Z</time></trkpt><trkpt lat="43.8591965" lon="12.3993417"><ele>649.0</ele><time>2026-04-26T13:00:51.024Z</time></trkpt><trkpt lat="43.8592922" lon="12.3992815"><ele>649.0</ele><time>2026-04-26T13:00:52.025Z</time></trkpt><trkpt lat="43.8593979" lon="12.3992285"><ele>649.0</ele><time>2026-04-26T13:00:53.023Z</time></trkpt><trkpt lat="43.8595195" lon="12.3991854"><ele>649.0</ele><time>2026-04-26T13:00:54.026Z</time></trkpt><trkpt lat="43.8596563" lon="12.3991542"><ele>646.5</ele><time>2026-04-26T13:00:55.022Z</time></trkpt><trkpt lat="43.8597931" lon="12.3991248"><ele>644.0</ele><time>2026-04-26T13:00:56.026Z</time></trkpt><trkpt lat="43.8599364" lon="12.3990918"><ele>641.5</ele><time>2026-04-26T13:00:57.026Z</time></trkpt><trkpt lat="43.8600707" lon="12.3990328"><ele>639.0</ele><time>2026-04-26T13:00:58.023Z</time></trkpt><trkpt lat="43.860196" lon="12.3989704"><ele>639.6</ele><time>2026-04-26T13:00:59.026Z</time></trkpt><trkpt lat="43.8603177" lon="12.3989236"><ele>640.2</ele><time>2026-04-26T13:01:00.024Z</time></trkpt><trkpt lat="43.860428" lon="12.3988783"><ele>640.8000000000001</ele><time>2026-04-26T13:01:01.023Z</time></trkpt><trkpt lat="43.8605234" lon="12.3988428"><ele>641.4</ele><time>2026-04-26T13:01:02.029Z</time></trkpt><trkpt lat="43.8606041" lon="12.3988069"><ele>642.0</ele><time>2026-04-26T13:01:03.024Z</time></trkpt><trkpt lat="43.8606743" lon="12.3987667"><ele>642.0</ele><time>2026-04-26T13:01:04.026Z</time></trkpt><trkpt lat="43.8607402" lon="12.3987271"><ele>642.0</ele><time>2026-04-26T13:01:05.024Z</time></trkpt><trkpt lat="43.8608084" lon="12.3987074"><ele>642.0</ele><time>2026-04-26T13:01:06.023Z</time></trkpt><trkpt lat="43.8609308" lon="12.3987539"><ele>642.0</ele><time>2026-04-26T13:01:08.025Z</time></trkpt><trkpt lat="43.8609929" lon="12.3988105"><ele>642.0</ele><time>2026-04-26T13:01:09.026Z</time></trkpt><trkpt lat="43.8610594" lon="12.398844"><ele>642.0</ele><time>2026-04-26T13:01:10.024Z</time></trkpt><trkpt lat="43.8611301" lon="12.3988809"><ele>639.3333333333334</ele><time>2026-04-26T13:01:11.024Z</time></trkpt><trkpt lat="43.8612084" lon="12.3989098"><ele>636.6666666666666</ele><time>2026-04-26T13:01:12.023Z</time></trkpt><trkpt lat="43.8612911" lon="12.3989465"><ele>634.0</ele><time>2026-04-26T13:01:13.022Z</time></trkpt><trkpt lat="43.861375" lon="12.3989913"><ele>631.3333333333333</ele><time>2026-04-26T13:01:14.029Z</time></trkpt><trkpt lat="43.8614536" lon="12.399049"><ele>628.6666666666666</ele><time>2026-04-26T13:01:15.025Z</time></trkpt><trkpt lat="43.8615306" lon="12.3990965"><ele>626.0</ele><time>2026-04-26T13:01:16.025Z</time></trkpt><trkpt lat="43.861607" lon="12.3991449"><ele>626.0</ele><time>2026-04-26T13:01:17.023Z</time></trkpt><trkpt lat="43.861686" lon="12.3991828"><ele>626.0</ele><time>2026-04-26T13:01:18.025Z</time></trkpt><trkpt lat="43.8617643" lon="12.3992155"><ele>626.0</ele><time>2026-04-26T13:01:19.029Z</time></trkpt><trkpt lat="43.8618412" lon="12.3992428"><ele>626.0</ele><time>2026-04-26T13:01:20.025Z</time></trkpt><trkpt lat="43.861922" lon="12.399255"><ele>626.0</ele><time>2026-04-26T13:01:21.026Z</time></trkpt><trkpt lat="43.862008" lon="12.3992599"><ele>626.0</ele><time>2026-04-26T13:01:22.024Z</time></trkpt><trkpt lat="43.8620979" lon="12.3992599"><ele>624.0</ele><time>2026-04-26T13:01:23.024Z</time></trkpt><trkpt lat="43.8621896" lon="12.3992554"><ele>622.0</ele><time>2026-04-26T13:01:24.022Z</time></trkpt><trkpt lat="43.8622818" lon="12.3992488"><ele>620.0</ele><time>2026-04-26T13:01:25.024Z</time></trkpt><trkpt lat="43.8623755" lon="12.3992263"><ele>618.0</ele><time>2026-04-26T13:01:26.03Z</time></trkpt><trkpt lat="43.8624703" lon="12.3992121"><ele>616.0</ele><time>2026-04-26T13:01:27.025Z</time></trkpt><trkpt lat="43.8625645" lon="12.3991929"><ele>613.2</ele><time>2026-04-26T13:01:28.025Z</time></trkpt><trkpt lat="43.8626568" lon="12.3991696"><ele>610.4000000000001</ele><time>2026-04-26T13:01:29.024Z</time></trkpt><trkpt lat="43.8627484" lon="12.399162"><ele>607.6</ele><time>2026-04-26T13:01:30.024Z</time></trkpt><trkpt lat="43.8628384" lon="12.3991523"><ele>604.8000000000001</ele><time>2026-04-26T13:01:31.03Z</time></trkpt><trkpt lat="43.8629266" lon="12.3991551"><ele>602.0</ele><time>2026-04-26T13:01:32.027Z</time></trkpt><trkpt lat="43.8630124" lon="12.3991715"><ele>602.0</ele><time>2026-04-26T13:01:33.023Z</time></trkpt><trkpt lat="43.8631041" lon="12.399186"><ele>602.0</ele><time>2026-04-26T13:01:34.024Z</time></trkpt><trkpt lat="43.8632003" lon="12.3992383"><ele>602.0</ele><time>2026-04-26T13:01:35.026Z</time></trkpt><trkpt lat="43.8632932" lon="12.3992853"><ele>602.0</ele><time>2026-04-26T13:01:36.03Z</time></trkpt><trkpt lat="43.8633745" lon="12.3993501"><ele>602.0</ele><time>2026-04-26T13:01:37.026Z</time></trkpt><trkpt lat="43.863453" lon="12.3994107"><ele>599.0</ele><time>2026-04-26T13:01:38.028Z</time></trkpt><trkpt lat="43.8635375" lon="12.3994918"><ele>596.0</ele><time>2026-04-26T13:01:39.026Z</time></trkpt><trkpt lat="43.8636246" lon="12.399595"><ele>593.0</ele><time>2026-04-26T13:01:40.025Z</time></trkpt><trkpt lat="43.8637145" lon="12.3996831"><ele>590.0</ele><time>2026-04-26T13:01:41.028Z</time></trkpt><trkpt lat="43.863801" lon="12.39977"><ele>587.0</ele><time>2026-04-26T13:01:42.024Z</time></trkpt><trkpt lat="43.863893" lon="12.3998367"><ele>587.0</ele><time>2026-04-26T13:01:43.03Z</time></trkpt><trkpt lat="43.8639884" lon="12.3998941"><ele>587.0</ele><time>2026-04-26T13:01:44.024Z</time></trkpt><trkpt lat="43.8640929" lon="12.3999402"><ele>587.0</ele><time>2026-04-26T13:01:45.025Z</time></trkpt><trkpt lat="43.8641959" lon="12.3999837"><ele>587.0</ele><time>2026-04-26T13:01:46.024Z</time></trkpt><trkpt lat="43.8642978" lon="12.400007"><ele>587.0</ele><time>2026-04-26T13:01:47.025Z</time></trkpt><trkpt lat="43.8643978" lon="12.4000184"><ele>586.0</ele><time>2026-04-26T13:01:48.024Z</time></trkpt><trkpt lat="43.8644923" lon="12.4000308"><ele>585.0</ele><time>2026-04-26T13:01:49.024Z</time></trkpt><trkpt lat="43.8645812" lon="12.4000311"><ele>584.0</ele><time>2026-04-26T13:01:50.025Z</time></trkpt><trkpt lat="43.8646676" lon="12.4000237"><ele>583.0</ele><time>2026-04-26T13:01:51.024Z</time></trkpt><trkpt lat="43.8647549" lon="12.3999938"><ele>582.0</ele><time>2026-04-26T13:01:52.024Z</time></trkpt><trkpt lat="43.8648428" lon="12.3999378"><ele>582.0</ele><time>2026-04-26T13:01:53.024Z</time></trkpt><trkpt lat="43.8649287" lon="12.3998681"><ele>582.0</ele><time>2026-04-26T13:01:54.033Z</time></trkpt><trkpt lat="43.8650118" lon="12.3998167"><ele>582.0</ele><time>2026-04-26T13:01:55.024Z</time></trkpt><trkpt lat="43.8650922" lon="12.3997857"><ele>582.0</ele><time>2026-04-26T13:01:56.024Z</time></trkpt><trkpt lat="43.8651655" lon="12.3997799"><ele>582.0</ele><time>2026-04-26T13:01:57.024Z</time></trkpt><trkpt lat="43.865233" lon="12.3997961"><ele>582.0</ele><time>2026-04-26T13:01:58.024Z</time></trkpt><trkpt lat="43.8653006" lon="12.3998241"><ele>581.0</ele><time>2026-04-26T13:01:59.025Z</time></trkpt><trkpt lat="43.8653771" lon="12.3998705"><ele>580.0</ele><time>2026-04-26T13:02:00.025Z</time></trkpt><trkpt lat="43.8654644" lon="12.3999557"><ele>579.0</ele><time>2026-04-26T13:02:01.024Z</time></trkpt><trkpt lat="43.8655549" lon="12.4000615"><ele>578.0</ele><time>2026-04-26T13:02:02.024Z</time></trkpt><trkpt lat="43.8656419" lon="12.4001555"><ele>577.0</ele><time>2026-04-26T13:02:03.029Z</time></trkpt><trkpt lat="43.8657294" lon="12.4002272"><ele>577.0</ele><time>2026-04-26T13:02:04.025Z</time></trkpt><trkpt lat="43.8658282" lon="12.4002674"><ele>577.0</ele><time>2026-04-26T13:02:05.022Z</time></trkpt><trkpt lat="43.8659389" lon="12.4002773"><ele>577.0</ele><time>2026-04-26T13:02:06.025Z</time></trkpt><trkpt lat="43.8660516" lon="12.4002777"><ele>577.0</ele><time>2026-04-26T13:02:07.023Z</time></trkpt><trkpt lat="43.8661669" lon="12.4002868"><ele>577.0</ele><time>2026-04-26T13:02:08.023Z</time></trkpt><trkpt lat="43.8662811" lon="12.4003042"><ele>574.6</ele><time>2026-04-26T13:02:09.025Z</time></trkpt><trkpt lat="43.8663872" lon="12.4003313"><ele>572.2</ele><time>2026-04-26T13:02:10.03Z</time></trkpt><trkpt lat="43.8664819" lon="12.4003513"><ele>569.8</ele><time>2026-04-26T13:02:11.025Z</time></trkpt><trkpt lat="43.8665661" lon="12.4003596"><ele>567.4</ele><time>2026-04-26T13:02:12.024Z</time></trkpt><trkpt lat="43.8666521" lon="12.4003521"><ele>565.0</ele><time>2026-04-26T13:02:13.023Z</time></trkpt><trkpt lat="43.8667462" lon="12.4003432"><ele>562.3333333333334</ele><time>2026-04-26T13:02:14.025Z</time></trkpt><trkpt lat="43.8668393" lon="12.4003403"><ele>559.6666666666667</ele><time>2026-04-26T13:02:15.03Z</time></trkpt><trkpt lat="43.8669283" lon="12.4003314"><ele>557.0</ele><time>2026-04-26T13:02:16.023Z</time></trkpt><trkpt lat="43.8670115" lon="12.4003327"><ele>554.3333333333334</ele><time>2026-04-26T13:02:17.023Z</time></trkpt><trkpt lat="43.8670886" lon="12.4003383"><ele>551.6666666666666</ele><time>2026-04-26T13:02:18.024Z</time></trkpt><trkpt lat="43.8671631" lon="12.400345"><ele>549.0</ele><time>2026-04-26T13:02:19.025Z</time></trkpt><trkpt lat="43.8672348" lon="12.4003468"><ele>549.0</ele><time>2026-04-26T13:02:20.024Z</time></trkpt><trkpt lat="43.8673058" lon="12.4003475"><ele>549.0</ele><time>2026-04-26T13:02:21.03Z</time></trkpt><trkpt lat="43.8673732" lon="12.4003542"><ele>549.0</ele><time>2026-04-26T13:02:22.027Z</time></trkpt><trkpt lat="43.8674346" lon="12.4003912"><ele>549.0</ele><time>2026-04-26T13:02:23.026Z</time></trkpt><trkpt lat="43.8674897" lon="12.4004433"><ele>549.0</ele><time>2026-04-26T13:02:24.024Z</time></trkpt><trkpt lat="43.8675676" lon="12.4005575"><ele>549.0</ele><time>2026-04-26T13:02:26.023Z</time></trkpt><trkpt lat="43.8676159" lon="12.4006138"><ele>549.0</ele><time>2026-04-26T13:02:27.024Z</time></trkpt><trkpt lat="43.8676784" lon="12.4006589"><ele>545.2</ele><time>2026-04-26T13:02:28.033Z</time></trkpt><trkpt lat="43.8677541" lon="12.4007053"><ele>541.4</ele><time>2026-04-26T13:02:29.024Z</time></trkpt><trkpt lat="43.867839" lon="12.4007468"><ele>537.6</ele><time>2026-04-26T13:02:30.024Z</time></trkpt><trkpt lat="43.8679325" lon="12.4007709"><ele>533.8</ele><time>2026-04-26T13:02:31.024Z</time></trkpt><trkpt lat="43.8680378" lon="12.4007788"><ele>530.0</ele><time>2026-04-26T13:02:32.025Z</time></trkpt><trkpt lat="43.8681484" lon="12.4007909"><ele>530.0</ele><time>2026-04-26T13:02:33.027Z</time></trkpt><trkpt lat="43.8682602" lon="12.400814"><ele>530.0</ele><time>2026-04-26T13:02:34.026Z</time></trkpt><trkpt lat="43.8683686" lon="12.4008505"><ele>530.0</ele><time>2026-04-26T13:02:35.024Z</time></trkpt><trkpt lat="43.868474" lon="12.4008938"><ele>530.0</ele><time>2026-04-26T13:02:36.024Z</time></trkpt><trkpt lat="43.8685717" lon="12.40096"><ele>530.0</ele><time>2026-04-26T13:02:37.023Z</time></trkpt><trkpt lat="43.8686683" lon="12.4010167"><ele>527.8</ele><time>2026-04-26T13:02:38.023Z</time></trkpt><trkpt lat="43.868775" lon="12.4010233"><ele>525.6</ele><time>2026-04-26T13:02:39.025Z</time></trkpt><trkpt lat="43.8688783" lon="12.4009933"><ele>523.4</ele><time>2026-04-26T13:02:40.025Z</time></trkpt><trkpt lat="43.8689783" lon="12.4009567"><ele>521.2</ele><time>2026-04-26T13:02:41.025Z</time></trkpt><trkpt lat="43.8690633" lon="12.4009533"><ele>519.0</ele><time>2026-04-26T13:02:42.023Z</time></trkpt><trkpt lat="43.8691383" lon="12.400975"><ele>519.0</ele><time>2026-04-26T13:02:43.03Z</time></trkpt><trkpt lat="43.8692183" lon="12.400995"><ele>519.0</ele><time>2026-04-26T13:02:44.025Z</time></trkpt><trkpt lat="43.8692917" lon="12.4010183"><ele>519.0</ele><time>2026-04-26T13:02:45.026Z</time></trkpt><trkpt lat="43.86936" lon="12.4010483"><ele>519.0</ele><time>2026-04-26T13:02:46.024Z</time></trkpt><trkpt lat="43.8694583" lon="12.4011167"><ele>519.0</ele><time>2026-04-26T13:02:48.023Z</time></trkpt><trkpt lat="43.86955" lon="12.401195"><ele>519.0</ele><time>2026-04-26T13:02:50.026Z</time></trkpt><trkpt lat="43.86966" lon="12.4012383"><ele>516.8</ele><time>2026-04-26T13:02:52.023Z</time></trkpt><trkpt lat="43.869785" lon="12.4012267"><ele>514.5999999999999</ele><time>2026-04-26T13:02:54.025Z</time></trkpt><trkpt lat="43.8698467" lon="12.4011833"><ele>512.4</ele><time>2026-04-26T13:02:55.025Z</time></trkpt><trkpt lat="43.8699017" lon="12.4010583"><ele>510.2</ele><time>2026-04-26T13:02:56.025Z</time></trkpt><trkpt lat="43.8699433" lon="12.4009533"><ele>508.0</ele><time>2026-04-26T13:02:57.025Z</time></trkpt><trkpt lat="43.8699817" lon="12.400855"><ele>508.0</ele><time>2026-04-26T13:02:58.027Z</time></trkpt><trkpt lat="43.8699833" lon="12.40072"><ele>507.99999999999994</ele><time>2026-04-26T13:02:59.024Z</time></trkpt><trkpt lat="43.8700017" lon="12.4005933"><ele>507.99999999999994</ele><time>2026-04-26T13:03:00.024Z</time></trkpt><trkpt lat="43.870005" lon="12.4004633"><ele>508.0</ele><time>2026-04-26T13:03:01.025Z</time></trkpt><trkpt lat="43.8700183" lon="12.400335"><ele>508.0</ele><time>2026-04-26T13:03:02.023Z</time></trkpt><trkpt lat="43.8700117" lon="12.40021"><ele>506.2</ele><time>2026-04-26T13:03:03.025Z</time></trkpt><trkpt lat="43.8700067" lon="12.4000767"><ele>504.4</ele><time>2026-04-26T13:03:04.023Z</time></trkpt><trkpt lat="43.86999" lon="12.39994"><ele>502.59999999999997</ele><time>2026-04-26T13:03:05.023Z</time></trkpt><trkpt lat="43.86996" lon="12.3998017"><ele>500.79999999999995</ele><time>2026-04-26T13:03:06.027Z</time></trkpt><trkpt lat="43.8699367" lon="12.399655"><ele>499.0</ele><time>2026-04-26T13:03:07.024Z</time></trkpt><trkpt lat="43.8699183" lon="12.3995217"><ele>498.33333333333337</ele><time>2026-04-26T13:03:08.027Z</time></trkpt><trkpt lat="43.8699183" lon="12.399395"><ele>497.6666666666667</ele><time>2026-04-26T13:03:09.027Z</time></trkpt><trkpt lat="43.8699317" lon="12.3992817"><ele>497.0</ele><time>2026-04-26T13:03:10.024Z</time></trkpt><trkpt lat="43.8699633" lon="12.3991783"><ele>496.33333333333337</ele><time>2026-04-26T13:03:11.023Z</time></trkpt><trkpt lat="43.8700117" lon="12.39908"><ele>495.6666666666667</ele><time>2026-04-26T13:03:12.024Z</time></trkpt><trkpt lat="43.870075" lon="12.39899"><ele>495.0</ele><time>2026-04-26T13:03:13.026Z</time></trkpt><trkpt lat="43.8701633" lon="12.3989183"><ele>493.25</ele><time>2026-04-26T13:03:14.025Z</time></trkpt><trkpt lat="43.870275" lon="12.3988817"><ele>491.5</ele><time>2026-04-26T13:03:15.024Z</time></trkpt><trkpt lat="43.8703967" lon="12.3988517"><ele>489.75</ele><time>2026-04-26T13:03:16.024Z</time></trkpt><trkpt lat="43.8705233" lon="12.3987933"><ele>488.0</ele><time>2026-04-26T13:03:17.023Z</time></trkpt><trkpt lat="43.870675" lon="12.3987783"><ele>488.0</ele><time>2026-04-26T13:03:18.023Z</time></trkpt><trkpt lat="43.8708417" lon="12.39872"><ele>488.0</ele><time>2026-04-26T13:03:19.024Z</time></trkpt><trkpt lat="43.8710083" lon="12.3986833"><ele>488.0</ele><time>2026-04-26T13:03:20.025Z</time></trkpt><trkpt lat="43.8711633" lon="12.39865"><ele>485.25</ele><time>2026-04-26T13:03:21.03Z</time></trkpt><trkpt lat="43.8713033" lon="12.39862"><ele>482.5</ele><time>2026-04-26T13:03:22.024Z</time></trkpt><trkpt lat="43.8714333" lon="12.3985917"><ele>479.75</ele><time>2026-04-26T13:03:23.023Z</time></trkpt><trkpt lat="43.8715617" lon="12.3985667"><ele>477.0</ele><time>2026-04-26T13:03:24.023Z</time></trkpt><trkpt lat="43.8716817" lon="12.3985517"><ele>474.40000000000003</ele><time>2026-04-26T13:03:25.024Z</time></trkpt><trkpt lat="43.87179" lon="12.3985333"><ele>471.80000000000007</ele><time>2026-04-26T13:03:26.025Z</time></trkpt><trkpt lat="43.87189" lon="12.3985133"><ele>469.2</ele><time>2026-04-26T13:03:27.031Z</time></trkpt><trkpt lat="43.8719883" lon="12.3984917"><ele>466.6</ele><time>2026-04-26T13:03:28.023Z</time></trkpt><trkpt lat="43.8720867" lon="12.3984667"><ele>464.0</ele><time>2026-04-26T13:03:29.024Z</time></trkpt><trkpt lat="43.8721867" lon="12.39844"><ele>464.0</ele><time>2026-04-26T13:03:30.027Z</time></trkpt><trkpt lat="43.8722917" lon="12.3984167"><ele>464.0</ele><time>2026-04-26T13:03:31.024Z</time></trkpt><trkpt lat="43.8723967" lon="12.3983983"><ele>464.0</ele><time>2026-04-26T13:03:32.026Z</time></trkpt><trkpt lat="43.8725067" lon="12.398385"><ele>464.0</ele><time>2026-04-26T13:03:33.025Z</time></trkpt><trkpt lat="43.872615" lon="12.39837"><ele>464.0</ele><time>2026-04-26T13:03:34.026Z</time></trkpt><trkpt lat="43.8727217" lon="12.398365"><ele>461.75</ele><time>2026-04-26T13:03:35.026Z</time></trkpt><trkpt lat="43.872825" lon="12.3983683"><ele>459.5</ele><time>2026-04-26T13:03:36.027Z</time></trkpt><trkpt lat="43.872935" lon="12.3983867"><ele>457.25</ele><time>2026-04-26T13:03:37.024Z</time></trkpt><trkpt lat="43.87305" lon="12.3984217"><ele>455.0</ele><time>2026-04-26T13:03:38.024Z</time></trkpt><trkpt lat="43.8731683" lon="12.3984667"><ele>455.0</ele><time>2026-04-26T13:03:39.026Z</time></trkpt><trkpt lat="43.8732867" lon="12.398515"><ele>455.0</ele><time>2026-04-26T13:03:40.025Z</time></trkpt><trkpt lat="43.8734083" lon="12.39856"><ele>455.0</ele><time>2026-04-26T13:03:41.022Z</time></trkpt><trkpt lat="43.873525" lon="12.3986033"><ele>455.0</ele><time>2026-04-26T13:03:42.024Z</time></trkpt><trkpt lat="43.873635" lon="12.39864"><ele>453.4</ele><time>2026-04-26T13:03:43.024Z</time></trkpt><trkpt lat="43.8737383" lon="12.3986733"><ele>451.8</ele><time>2026-04-26T13:03:44.023Z</time></trkpt><trkpt lat="43.8738317" lon="12.398705"><ele>450.20000000000005</ele><time>2026-04-26T13:03:45.031Z</time></trkpt><trkpt lat="43.8739217" lon="12.3987233"><ele>448.6</ele><time>2026-04-26T13:03:46.023Z</time></trkpt><trkpt lat="43.8740117" lon="12.3987267"><ele>447.0</ele><time>2026-04-26T13:03:47.027Z</time></trkpt><trkpt lat="43.8741067" lon="12.398715"><ele>447.0</ele><time>2026-04-26T13:03:48.025Z</time></trkpt><trkpt lat="43.8742033" lon="12.3987017"><ele>447.00000000000006</ele><time>2026-04-26T13:03:49.024Z</time></trkpt><trkpt lat="43.8743" lon="12.3987067"><ele>447.00000000000006</ele><time>2026-04-26T13:03:50.025Z</time></trkpt><trkpt lat="43.8744017" lon="12.3987367"><ele>447.0</ele><time>2026-04-26T13:03:51.026Z</time></trkpt><trkpt lat="43.87451" lon="12.3987867"><ele>447.0</ele><time>2026-04-26T13:03:52.024Z</time></trkpt><trkpt lat="43.87462" lon="12.3988433"><ele>443.75</ele><time>2026-04-26T13:03:53.03Z</time></trkpt><trkpt lat="43.874735" lon="12.39891"><ele>440.5</ele><time>2026-04-26T13:03:54.025Z</time></trkpt><trkpt lat="43.87484" lon="12.3989833"><ele>437.25</ele><time>2026-04-26T13:03:55.025Z</time></trkpt><trkpt lat="43.8749383" lon="12.3990633"><ele>434.0</ele><time>2026-04-26T13:03:56.025Z</time></trkpt><trkpt lat="43.8750367" lon="12.3991483"><ele>433.0</ele><time>2026-04-26T13:03:57.024Z</time></trkpt><trkpt lat="43.875135" lon="12.399235"><ele>432.0</ele><time>2026-04-26T13:03:58.025Z</time></trkpt><trkpt lat="43.8752317" lon="12.39932"><ele>431.0</ele><time>2026-04-26T13:03:59.025Z</time></trkpt><trkpt lat="43.87532" lon="12.399395"><ele>430.0</ele><time>2026-04-26T13:04:00.032Z</time></trkpt><trkpt lat="43.8753967" lon="12.3994567"><ele>429.0</ele><time>2026-04-26T13:04:01.026Z</time></trkpt><trkpt lat="43.87546" lon="12.3995067"><ele>429.0</ele><time>2026-04-26T13:04:02.023Z</time></trkpt><trkpt lat="43.875515" lon="12.399555"><ele>429.0</ele><time>2026-04-26T13:04:03.025Z</time></trkpt><trkpt lat="43.875615" lon="12.39964"><ele>429.0</ele><time>2026-04-26T13:04:05.031Z</time></trkpt><trkpt lat="43.8756767" lon="12.3996767"><ele>429.0</ele><time>2026-04-26T13:04:06.025Z</time></trkpt><trkpt lat="43.87575" lon="12.3996983"><ele>429.0</ele><time>2026-04-26T13:04:07.025Z</time></trkpt><trkpt lat="43.87583" lon="12.3997083"><ele>429.0</ele><time>2026-04-26T13:04:08.025Z</time></trkpt><trkpt lat="43.8759183" lon="12.3997083"><ele>427.2</ele><time>2026-04-26T13:04:09.027Z</time></trkpt><trkpt lat="43.8760083" lon="12.3996983"><ele>425.4</ele><time>2026-04-26T13:04:10.03Z</time></trkpt><trkpt lat="43.8760967" lon="12.3996817"><ele>423.6</ele><time>2026-04-26T13:04:11.023Z</time></trkpt><trkpt lat="43.8761933" lon="12.3996583"><ele>421.8</ele><time>2026-04-26T13:04:12.024Z</time></trkpt><trkpt lat="43.8762883" lon="12.399635"><ele>420.0</ele><time>2026-04-26T13:04:13.026Z</time></trkpt><trkpt lat="43.87638" lon="12.399615"><ele>420.0</ele><time>2026-04-26T13:04:14.024Z</time></trkpt><trkpt lat="43.8764717" lon="12.3996017"><ele>420.0</ele><time>2026-04-26T13:04:15.026Z</time></trkpt><trkpt lat="43.8765633" lon="12.3996033"><ele>420.0</ele><time>2026-04-26T13:04:16.025Z</time></trkpt><trkpt lat="43.876655" lon="12.3996067"><ele>420.0</ele><time>2026-04-26T13:04:17.027Z</time></trkpt><trkpt lat="43.8767483" lon="12.3996067"><ele>420.0</ele><time>2026-04-26T13:04:18.025Z</time></trkpt><trkpt lat="43.8768333" lon="12.3995933"><ele>418.5</ele><time>2026-04-26T13:04:19.028Z</time></trkpt><trkpt lat="43.87692" lon="12.3995683"><ele>417.0</ele><time>2026-04-26T13:04:20.024Z</time></trkpt><trkpt lat="43.8770117" lon="12.3995383"><ele>415.5</ele><time>2026-04-26T13:04:21.023Z</time></trkpt><trkpt lat="43.8770933" lon="12.3995017"><ele>414.0</ele><time>2026-04-26T13:04:22.024Z</time></trkpt><trkpt lat="43.877175" lon="12.3994733"><ele>412.5</ele><time>2026-04-26T13:04:23.025Z</time></trkpt><trkpt lat="43.8772583" lon="12.3994633"><ele>411.0</ele><time>2026-04-26T13:04:24.024Z</time></trkpt><trkpt lat="43.8773367" lon="12.39947"><ele>411.0</ele><time>2026-04-26T13:04:25.028Z</time></trkpt><trkpt lat="43.8774133" lon="12.3994983"><ele>411.0</ele><time>2026-04-26T13:04:26.025Z</time></trkpt><trkpt lat="43.87747" lon="12.3995417"><ele>411.0</ele><time>2026-04-26T13:04:27.028Z</time></trkpt><trkpt lat="43.877535" lon="12.399665"><ele>411.0</ele><time>2026-04-26T13:04:29.023Z</time></trkpt><trkpt lat="43.8775533" lon="12.3998217"><ele>411.0</ele><time>2026-04-26T13:04:31.025Z</time></trkpt><trkpt lat="43.877545" lon="12.3999083"><ele>411.0</ele><time>2026-04-26T13:04:32.028Z</time></trkpt><trkpt lat="43.8775117" lon="12.400055"><ele>408.8</ele><time>2026-04-26T13:04:34.027Z</time></trkpt><trkpt lat="43.87748" lon="12.4001783"><ele>406.6</ele><time>2026-04-26T13:04:36.026Z</time></trkpt><trkpt lat="43.8774633" lon="12.4003167"><ele>404.4</ele><time>2026-04-26T13:04:38.023Z</time></trkpt><trkpt lat="43.877485" lon="12.40048"><ele>402.2</ele><time>2026-04-26T13:04:40.028Z</time></trkpt><trkpt lat="43.877515" lon="12.4005667"><ele>400.0</ele><time>2026-04-26T13:04:41.026Z</time></trkpt><trkpt lat="43.8775567" lon="12.4006583"><ele>396.4</ele><time>2026-04-26T13:04:42.027Z</time></trkpt><trkpt lat="43.8776083" lon="12.4007583"><ele>392.8</ele><time>2026-04-26T13:04:43.023Z</time></trkpt><trkpt lat="43.8776633" lon="12.4008633"><ele>389.20000000000005</ele><time>2026-04-26T13:04:44.031Z</time></trkpt><trkpt lat="43.87773" lon="12.400965"><ele>385.6</ele><time>2026-04-26T13:04:45.025Z</time></trkpt><trkpt lat="43.8777967" lon="12.4010667"><ele>382.0</ele><time>2026-04-26T13:04:46.026Z</time></trkpt><trkpt lat="43.877865" lon="12.4011717"><ele>382.0</ele><time>2026-04-26T13:04:47.023Z</time></trkpt><trkpt lat="43.8779417" lon="12.4012817"><ele>382.0</ele><time>2026-04-26T13:04:48.023Z</time></trkpt><trkpt lat="43.87802" lon="12.401395"><ele>382.0</ele><time>2026-04-26T13:04:49.035Z</time></trkpt><trkpt lat="43.8780967" lon="12.4015083"><ele>382.0</ele><time>2026-04-26T13:04:50.024Z</time></trkpt><trkpt lat="43.878175" lon="12.4016183"><ele>382.0</ele><time>2026-04-26T13:04:51.024Z</time></trkpt><trkpt lat="43.87826" lon="12.4017217"><ele>381.8</ele><time>2026-04-26T13:04:52.023Z</time></trkpt><trkpt lat="43.87835" lon="12.4018083"><ele>381.6</ele><time>2026-04-26T13:04:53.025Z</time></trkpt><trkpt lat="43.8784433" lon="12.4018567"><ele>381.40000000000003</ele><time>2026-04-26T13:04:54.025Z</time></trkpt><trkpt lat="43.8785417" lon="12.4018783"><ele>381.20000000000005</ele><time>2026-04-26T13:04:55.022Z</time></trkpt><trkpt lat="43.878645" lon="12.4018883"><ele>381.0</ele><time>2026-04-26T13:04:56.028Z</time></trkpt><trkpt lat="43.87874" lon="12.4019133"><ele>380.5</ele><time>2026-04-26T13:04:57.025Z</time></trkpt><trkpt lat="43.8788183" lon="12.4019583"><ele>380.0</ele><time>2026-04-26T13:04:58.025Z</time></trkpt><trkpt lat="43.8788883" lon="12.4020233"><ele>379.5</ele><time>2026-04-26T13:04:59.023Z</time></trkpt><trkpt lat="43.8789567" lon="12.4021033"><ele>379.0</ele><time>2026-04-26T13:05:00.023Z</time></trkpt><trkpt lat="43.87902" lon="12.4021917"><ele>378.5</ele><time>2026-04-26T13:05:01.031Z</time></trkpt><trkpt lat="43.8790717" lon="12.402285"><ele>378.0</ele><time>2026-04-26T13:05:02.024Z</time></trkpt><trkpt lat="43.87912" lon="12.402385"><ele>380.59999999999997</ele><time>2026-04-26T13:05:03.027Z</time></trkpt><trkpt lat="43.87917" lon="12.4024883"><ele>383.2</ele><time>2026-04-26T13:05:04.025Z</time></trkpt><trkpt lat="43.8792183" lon="12.4025967"><ele>385.8</ele><time>2026-04-26T13:05:05.024Z</time></trkpt><trkpt lat="43.8792667" lon="12.402715"><ele>388.4</ele><time>2026-04-26T13:05:06.027Z</time></trkpt><trkpt lat="43.8793167" lon="12.4028367"><ele>391.0</ele><time>2026-04-26T13:05:07.025Z</time></trkpt><trkpt lat="43.8793667" lon="12.40295"><ele>393.4</ele><time>2026-04-26T13:05:08.025Z</time></trkpt><trkpt lat="43.8794183" lon="12.40307"><ele>395.8</ele><time>2026-04-26T13:05:09.026Z</time></trkpt><trkpt lat="43.8794767" lon="12.4032033"><ele>398.2</ele><time>2026-04-26T13:05:10.027Z</time></trkpt><trkpt lat="43.8795317" lon="12.4033467"><ele>400.59999999999997</ele><time>2026-04-26T13:05:11.024Z</time></trkpt><trkpt lat="43.8795867" lon="12.4034917"><ele>403.0</ele><time>2026-04-26T13:05:12.027Z</time></trkpt><trkpt lat="43.87964" lon="12.4036267"><ele>403.00000000000006</ele><time>2026-04-26T13:05:13.025Z</time></trkpt><trkpt lat="43.87969" lon="12.4037317"><ele>403.0</ele><time>2026-04-26T13:05:14.03Z</time></trkpt><trkpt lat="43.8797467" lon="12.40382"><ele>403.0</ele><time>2026-04-26T13:05:15.026Z</time></trkpt><trkpt lat="43.87981" lon="12.4038917"><ele>403.0</ele><time>2026-04-26T13:05:16.026Z</time></trkpt><trkpt lat="43.8798833" lon="12.40396"><ele>403.00000000000006</ele><time>2026-04-26T13:05:17.026Z</time></trkpt><trkpt lat="43.87997" lon="12.40402"><ele>403.0</ele><time>2026-04-26T13:05:18.026Z</time></trkpt><trkpt lat="43.8800733" lon="12.4040717"><ele>405.75</ele><time>2026-04-26T13:05:19.024Z</time></trkpt><trkpt lat="43.8801883" lon="12.4041083"><ele>408.5</ele><time>2026-04-26T13:05:20.024Z</time></trkpt><trkpt lat="43.88031" lon="12.4041133"><ele>411.25</ele><time>2026-04-26T13:05:21.029Z</time></trkpt><trkpt lat="43.8804183" lon="12.4041083"><ele>414.0</ele><time>2026-04-26T13:05:22.115Z</time></trkpt><trkpt lat="43.88052" lon="12.4041"><ele>414.0</ele><time>2026-04-26T13:05:23.023Z</time></trkpt><trkpt lat="43.8806117" lon="12.4041017"><ele>414.0</ele><time>2026-04-26T13:05:24.031Z</time></trkpt><trkpt lat="43.8807017" lon="12.404105"><ele>414.0</ele><time>2026-04-26T13:05:25.025Z</time></trkpt><trkpt lat="43.8807967" lon="12.4041117"><ele>414.0</ele><time>2026-04-26T13:05:26.024Z</time></trkpt><trkpt lat="43.8808922" lon="12.4041159"><ele>414.0</ele><time>2026-04-26T13:05:27.024Z</time></trkpt><trkpt lat="43.880986" lon="12.4041296"><ele>413.4</ele><time>2026-04-26T13:05:28.025Z</time></trkpt><trkpt lat="43.8810768" lon="12.4041632"><ele>412.79999999999995</ele><time>2026-04-26T13:05:29.023Z</time></trkpt><trkpt lat="43.8811696" lon="12.4042176"><ele>412.20000000000005</ele><time>2026-04-26T13:05:30.025Z</time></trkpt><trkpt lat="43.8812593" lon="12.4042881"><ele>411.6</ele><time>2026-04-26T13:05:31.025Z</time></trkpt><trkpt lat="43.8813454" lon="12.4043666"><ele>411.0</ele><time>2026-04-26T13:05:32.024Z</time></trkpt><trkpt lat="43.8814281" lon="12.4044505"><ele>411.0</ele><time>2026-04-26T13:05:33.024Z</time></trkpt><trkpt lat="43.8815134" lon="12.4045354"><ele>411.0</ele><time>2026-04-26T13:05:34.023Z</time></trkpt><trkpt lat="43.8816016" lon="12.4046086"><ele>411.0</ele><time>2026-04-26T13:05:35.023Z</time></trkpt><trkpt lat="43.8816913" lon="12.4046667"><ele>411.0</ele><time>2026-04-26T13:05:36.023Z</time></trkpt><trkpt lat="43.8817825" lon="12.4047124"><ele>411.0</ele><time>2026-04-26T13:05:37.024Z</time></trkpt><trkpt lat="43.8818667" lon="12.4047511"><ele>409.0</ele><time>2026-04-26T13:05:38.024Z</time></trkpt><trkpt lat="43.8819425" lon="12.4047955"><ele>407.0</ele><time>2026-04-26T13:05:39.027Z</time></trkpt><trkpt lat="43.8820096" lon="12.4048462"><ele>405.0</ele><time>2026-04-26T13:05:40.023Z</time></trkpt><trkpt lat="43.8820645" lon="12.4049175"><ele>403.0</ele><time>2026-04-26T13:05:41.027Z</time></trkpt><trkpt lat="43.8821059" lon="12.4050099"><ele>401.0</ele><time>2026-04-26T13:05:42.023Z</time></trkpt><trkpt lat="43.8821278" lon="12.4051346"><ele>399.0</ele><time>2026-04-26T13:05:43.023Z</time></trkpt><trkpt lat="43.8821301" lon="12.4052809"><ele>399.0</ele><time>2026-04-26T13:05:44.023Z</time></trkpt><trkpt lat="43.882128" lon="12.4054282"><ele>399.0</ele><time>2026-04-26T13:05:45.024Z</time></trkpt><trkpt lat="43.8821308" lon="12.4055732"><ele>399.0</ele><time>2026-04-26T13:05:46.026Z</time></trkpt><trkpt lat="43.8821377" lon="12.4057156"><ele>399.0</ele><time>2026-04-26T13:05:47.023Z</time></trkpt><trkpt lat="43.8821551" lon="12.4058486"><ele>399.0</ele><time>2026-04-26T13:05:48.024Z</time></trkpt><trkpt lat="43.8821947" lon="12.4059809"><ele>398.25</ele><time>2026-04-26T13:05:49.024Z</time></trkpt><trkpt lat="43.8822617" lon="12.4061227"><ele>397.5</ele><time>2026-04-26T13:05:50.024Z</time></trkpt><trkpt lat="43.8823534" lon="12.4062671"><ele>396.75</ele><time>2026-04-26T13:05:51.023Z</time></trkpt><trkpt lat="43.8824485" lon="12.4064029"><ele>396.0</ele><time>2026-04-26T13:05:52.022Z</time></trkpt><trkpt lat="43.8825404" lon="12.4065282"><ele>393.5</ele><time>2026-04-26T13:05:53.023Z</time></trkpt><trkpt lat="43.8826365" lon="12.4066478"><ele>391.0</ele><time>2026-04-26T13:05:54.023Z</time></trkpt><trkpt lat="43.8827388" lon="12.4067577"><ele>388.5</ele><time>2026-04-26T13:05:55.028Z</time></trkpt><trkpt lat="43.8828319" lon="12.4068461"><ele>386.0</ele><time>2026-04-26T13:05:56.024Z</time></trkpt><trkpt lat="43.8828984" lon="12.4069108"><ele>386.0</ele><time>2026-04-26T13:05:57.026Z</time></trkpt><trkpt lat="43.8829805" lon="12.4070246"><ele>386.0</ele><time>2026-04-26T13:05:59.024Z</time></trkpt><trkpt lat="43.8830054" lon="12.407141"><ele>386.0</ele><time>2026-04-26T13:06:01.024Z</time></trkpt><trkpt lat="43.8829506" lon="12.4072969"><ele>386.0</ele><time>2026-04-26T13:06:03.026Z</time></trkpt><trkpt lat="43.8829034" lon="12.4074009"><ele>386.0</ele><time>2026-04-26T13:06:04.025Z</time></trkpt><trkpt lat="43.882861" lon="12.4075149"><ele>386.6</ele><time>2026-04-26T13:06:05.023Z</time></trkpt><trkpt lat="43.8828296" lon="12.4076398"><ele>387.20000000000005</ele><time>2026-04-26T13:06:06.023Z</time></trkpt><trkpt lat="43.8828209" lon="12.4077838"><ele>387.79999999999995</ele><time>2026-04-26T13:06:07.024Z</time></trkpt><trkpt lat="43.8828208" lon="12.4079409"><ele>388.4</ele><time>2026-04-26T13:06:08.026Z</time></trkpt><trkpt lat="43.8828053" lon="12.4080946"><ele>389.0</ele><time>2026-04-26T13:06:09.03Z</time></trkpt><trkpt lat="43.8827662" lon="12.4082308"><ele>390.99999999999994</ele><time>2026-04-26T13:06:10.023Z</time></trkpt><trkpt lat="43.8827109" lon="12.4083422"><ele>393.0</ele><time>2026-04-26T13:06:11.024Z</time></trkpt><trkpt lat="43.882648" lon="12.4084327"><ele>395.0</ele><time>2026-04-26T13:06:12.024Z</time></trkpt><trkpt lat="43.882581" lon="12.4085001"><ele>397.0</ele><time>2026-04-26T13:06:13.025Z</time></trkpt><trkpt lat="43.8825157" lon="12.4085547"><ele>398.99999999999994</ele><time>2026-04-26T13:06:14.024Z</time></trkpt><trkpt lat="43.8824596" lon="12.4086147"><ele>401.0</ele><time>2026-04-26T13:06:15.028Z</time></trkpt><trkpt lat="43.8824135" lon="12.4086839"><ele>401.16666666666663</ele><time>2026-04-26T13:06:16.026Z</time></trkpt><trkpt lat="43.8823688" lon="12.4088099"><ele>401.3333333333333</ele><time>2026-04-26T13:06:18.024Z</time></trkpt><trkpt lat="43.8824244" lon="12.4088566"><ele>401.5</ele><time>2026-04-26T13:06:19.023Z</time></trkpt><trkpt lat="43.8824952" lon="12.4088856"><ele>401.66666666666663</ele><time>2026-04-26T13:06:20.025Z</time></trkpt><trkpt lat="43.8825901" lon="12.4088972"><ele>401.8333333333333</ele><time>2026-04-26T13:06:21.03Z</time></trkpt><trkpt lat="43.8826896" lon="12.4089006"><ele>402.0</ele><time>2026-04-26T13:06:22.023Z</time></trkpt><trkpt lat="43.8827962" lon="12.4089059"><ele>405.25</ele><time>2026-04-26T13:06:23.028Z</time></trkpt><trkpt lat="43.8829055" lon="12.4089133"><ele>408.5</ele><time>2026-04-26T13:06:24.025Z</time></trkpt><trkpt lat="43.8830202" lon="12.4089222"><ele>411.75</ele><time>2026-04-26T13:06:25.027Z</time></trkpt><trkpt lat="43.883133" lon="12.4089308"><ele>415.0</ele><time>2026-04-26T13:06:26.024Z</time></trkpt><trkpt lat="43.8832462" lon="12.4089443"><ele>415.0</ele><time>2026-04-26T13:06:27.025Z</time></trkpt><trkpt lat="43.8833624" lon="12.4089638"><ele>415.0</ele><time>2026-04-26T13:06:28.023Z</time></trkpt><trkpt lat="43.8834803" lon="12.4089942"><ele>415.0</ele><time>2026-04-26T13:06:29.026Z</time></trkpt><trkpt lat="43.8835949" lon="12.4090424"><ele>415.0</ele><time>2026-04-26T13:06:30.024Z</time></trkpt><trkpt lat="43.883707" lon="12.4091018"><ele>416.5</ele><time>2026-04-26T13:06:31.026Z</time></trkpt><trkpt lat="43.8838143" lon="12.409163"><ele>418.0</ele><time>2026-04-26T13:06:32.023Z</time></trkpt><trkpt lat="43.8839221" lon="12.4092236"><ele>419.5</ele><time>2026-04-26T13:06:33.025Z</time></trkpt><trkpt lat="43.88403" lon="12.40928"><ele>421.0</ele><time>2026-04-26T13:06:34.025Z</time></trkpt><trkpt lat="43.8841367" lon="12.4093383"><ele>421.0</ele><time>2026-04-26T13:06:35.024Z</time></trkpt><trkpt lat="43.8842467" lon="12.4093917"><ele>421.0</ele><time>2026-04-26T13:06:36.022Z</time></trkpt><trkpt lat="43.8843583" lon="12.4094417"><ele>421.0</ele><time>2026-04-26T13:06:37.024Z</time></trkpt><trkpt lat="43.8844733" lon="12.40949"><ele>421.0</ele><time>2026-04-26T13:06:38.022Z</time></trkpt><trkpt lat="43.8845783" lon="12.4095483"><ele>420.8</ele><time>2026-04-26T13:06:39.025Z</time></trkpt><trkpt lat="43.884665" lon="12.4096233"><ele>420.6</ele><time>2026-04-26T13:06:40.025Z</time></trkpt><trkpt lat="43.8847317" lon="12.4097217"><ele>420.4</ele><time>2026-04-26T13:06:41.024Z</time></trkpt><trkpt lat="43.884775" lon="12.4098417"><ele>420.2</ele><time>2026-04-26T13:06:42.022Z</time></trkpt><trkpt lat="43.884795" lon="12.4099767"><ele>420.0</ele><time>2026-04-26T13:06:43.028Z</time></trkpt><trkpt lat="43.88478" lon="12.41013"><ele>423.0</ele><time>2026-04-26T13:06:44.026Z</time></trkpt><trkpt lat="43.88474" lon="12.4102833"><ele>426.0</ele><time>2026-04-26T13:06:45.027Z</time></trkpt><trkpt lat="43.884695" lon="12.41043"><ele>429.0</ele><time>2026-04-26T13:06:46.022Z</time></trkpt><trkpt lat="43.8846667" lon="12.410575"><ele>432.0</ele><time>2026-04-26T13:06:47.023Z</time></trkpt><trkpt lat="43.8846633" lon="12.4107317"><ele>433.75</ele><time>2026-04-26T13:06:48.024Z</time></trkpt><trkpt lat="43.884695" lon="12.410885"><ele>435.5</ele><time>2026-04-26T13:06:49.024Z</time></trkpt><trkpt lat="43.88475" lon="12.411035"><ele>437.25</ele><time>2026-04-26T13:06:50.028Z</time></trkpt><trkpt lat="43.8848083" lon="12.4111933"><ele>439.0</ele><time>2026-04-26T13:06:51.022Z</time></trkpt><trkpt lat="43.8848433" lon="12.4113467"><ele>440.6666666666667</ele><time>2026-04-26T13:06:52.023Z</time></trkpt><trkpt lat="43.88488" lon="12.4114833"><ele>442.33333333333337</ele><time>2026-04-26T13:06:53.022Z</time></trkpt><trkpt lat="43.8849133" lon="12.4115983"><ele>444.0</ele><time>2026-04-26T13:06:54.024Z</time></trkpt><trkpt lat="43.8849483" lon="12.411695"><ele>445.66666666666663</ele><time>2026-04-26T13:06:55.026Z</time></trkpt><trkpt lat="43.8849883" lon="12.411775"><ele>447.3333333333333</ele><time>2026-04-26T13:06:56.024Z</time></trkpt><trkpt lat="43.885035" lon="12.41186"><ele>449.0</ele><time>2026-04-26T13:06:57.03Z</time></trkpt><trkpt lat="43.885095" lon="12.41196"><ele>449.2</ele><time>2026-04-26T13:06:58.023Z</time></trkpt><trkpt lat="43.885175" lon="12.4120767"><ele>449.4</ele><time>2026-04-26T13:06:59.026Z</time></trkpt><trkpt lat="43.885255" lon="12.4121983"><ele>449.6</ele><time>2026-04-26T13:07:00.024Z</time></trkpt><trkpt lat="43.8853317" lon="12.41231"><ele>449.8</ele><time>2026-04-26T13:07:01.024Z</time></trkpt><trkpt lat="43.8854033" lon="12.4124133"><ele>450.0</ele><time>2026-04-26T13:07:02.023Z</time></trkpt><trkpt lat="43.885465" lon="12.4125033"><ele>450.0</ele><time>2026-04-26T13:07:03.024Z</time></trkpt><trkpt lat="43.8855183" lon="12.412585"><ele>450.0</ele><time>2026-04-26T13:07:04.025Z</time></trkpt><trkpt lat="43.88557" lon="12.41266"><ele>450.0</ele><time>2026-04-26T13:07:05.025Z</time></trkpt><trkpt lat="43.885615" lon="12.4127417"><ele>450.0</ele><time>2026-04-26T13:07:06.024Z</time></trkpt><trkpt lat="43.8856683" lon="12.4128417"><ele>450.0</ele><time>2026-04-26T13:07:07.025Z</time></trkpt><trkpt lat="43.885725" lon="12.4129467"><ele>450.0</ele><time>2026-04-26T13:07:08.024Z</time></trkpt><trkpt lat="43.8858267" lon="12.4130733"><ele>449.75</ele><time>2026-04-26T13:07:09.024Z</time></trkpt><trkpt lat="43.8859283" lon="12.4131883"><ele>449.5</ele><time>2026-04-26T13:07:10.025Z</time></trkpt><trkpt lat="43.8860317" lon="12.4132917"><ele>449.25</ele><time>2026-04-26T13:07:11.023Z</time></trkpt><trkpt lat="43.8861283" lon="12.4133767"><ele>449.0</ele><time>2026-04-26T13:07:12.023Z</time></trkpt><trkpt lat="43.8862367" lon="12.4134667"><ele>449.0</ele><time>2026-04-26T13:07:13.029Z</time></trkpt><trkpt lat="43.886355" lon="12.413565"><ele>449.0</ele><time>2026-04-26T13:07:14.023Z</time></trkpt><trkpt lat="43.886475" lon="12.4136783"><ele>449.0</ele><time>2026-04-26T13:07:15.022Z</time></trkpt><trkpt lat="43.8865933" lon="12.4138067"><ele>449.0</ele><time>2026-04-26T13:07:16.023Z</time></trkpt><trkpt lat="43.8867083" lon="12.4139317"><ele>451.25</ele><time>2026-04-26T13:07:17.024Z</time></trkpt><trkpt lat="43.8868183" lon="12.4140417"><ele>453.5</ele><time>2026-04-26T13:07:18.022Z</time></trkpt><trkpt lat="43.8869167" lon="12.414135"><ele>455.75</ele><time>2026-04-26T13:07:19.023Z</time></trkpt><trkpt lat="43.8870033" lon="12.414225"><ele>458.0</ele><time>2026-04-26T13:07:20.025Z</time></trkpt><trkpt lat="43.8870883" lon="12.41432"><ele>458.0</ele><time>2026-04-26T13:07:21.025Z</time></trkpt><trkpt lat="43.8871617" lon="12.4144167"><ele>457.99999999999994</ele><time>2026-04-26T13:07:22.029Z</time></trkpt><trkpt lat="43.88723" lon="12.4145233"><ele>457.99999999999994</ele><time>2026-04-26T13:07:23.023Z</time></trkpt><trkpt lat="43.8873083" lon="12.4146267"><ele>458.0</ele><time>2026-04-26T13:07:24.028Z</time></trkpt><trkpt lat="43.887395" lon="12.414705"><ele>458.0</ele><time>2026-04-26T13:07:25.023Z</time></trkpt><trkpt lat="43.8874983" lon="12.4147583"><ele>460.59999999999997</ele><time>2026-04-26T13:07:26.027Z</time></trkpt><trkpt lat="43.8876033" lon="12.4148"><ele>463.19999999999993</ele><time>2026-04-26T13:07:27.025Z</time></trkpt><trkpt lat="43.8877033" lon="12.4148583"><ele>465.8</ele><time>2026-04-26T13:07:28.024Z</time></trkpt><trkpt lat="43.8877933" lon="12.41496"><ele>468.4</ele><time>2026-04-26T13:07:29.024Z</time></trkpt><trkpt lat="43.8878733" lon="12.41507"><ele>471.0</ele><time>2026-04-26T13:07:30.023Z</time></trkpt><trkpt lat="43.8879417" lon="12.4151683"><ele>471.0</ele><time>2026-04-26T13:07:31.024Z</time></trkpt><trkpt lat="43.888005" lon="12.41524"><ele>471.0</ele><time>2026-04-26T13:07:32.023Z</time></trkpt><trkpt lat="43.88808" lon="12.4152883"><ele>471.0</ele><time>2026-04-26T13:07:33.026Z</time></trkpt><trkpt lat="43.88817" lon="12.4153017"><ele>471.0</ele><time>2026-04-26T13:07:34.026Z</time></trkpt><trkpt lat="43.888305" lon="12.4152417"><ele>471.0</ele><time>2026-04-26T13:07:35.023Z</time></trkpt><trkpt lat="43.8884417" lon="12.4151733"><ele>474.66666666666663</ele><time>2026-04-26T13:07:36.023Z</time></trkpt><trkpt lat="43.8885933" lon="12.4151083"><ele>478.3333333333333</ele><time>2026-04-26T13:07:37.024Z</time></trkpt><trkpt lat="43.8887467" lon="12.4150517"><ele>482.0</ele><time>2026-04-26T13:07:38.023Z</time></trkpt><trkpt lat="43.8888817" lon="12.415005"><ele>482.0</ele><time>2026-04-26T13:07:39.023Z</time></trkpt><trkpt lat="43.889" lon="12.4149433"><ele>482.0</ele><time>2026-04-26T13:07:40.03Z</time></trkpt><trkpt lat="43.8891033" lon="12.41485"><ele>482.0</ele><time>2026-04-26T13:07:41.025Z</time></trkpt><trkpt lat="43.8891967" lon="12.4147233"><ele>482.0</ele><time>2026-04-26T13:07:42.024Z</time></trkpt><trkpt lat="43.8892817" lon="12.414565"><ele>482.75</ele><time>2026-04-26T13:07:43.026Z</time></trkpt><trkpt lat="43.8893667" lon="12.4143783"><ele>483.5</ele><time>2026-04-26T13:07:44.023Z</time></trkpt><trkpt lat="43.88944" lon="12.414195"><ele>484.25</ele><time>2026-04-26T13:07:45.024Z</time></trkpt><trkpt lat="43.8894983" lon="12.4140217"><ele>485.0</ele><time>2026-04-26T13:07:46.026Z</time></trkpt><trkpt lat="43.8895283" lon="12.4138667"><ele>484.4</ele><time>2026-04-26T13:07:47.026Z</time></trkpt><trkpt lat="43.8895467" lon="12.4137233"><ele>483.8</ele><time>2026-04-26T13:07:48.022Z</time></trkpt><trkpt lat="43.88957" lon="12.4135983"><ele>483.20000000000005</ele><time>2026-04-26T13:07:49.024Z</time></trkpt><trkpt lat="43.8896133" lon="12.4134767"><ele>482.6</ele><time>2026-04-26T13:07:50.025Z</time></trkpt><trkpt lat="43.8896833" lon="12.4133617"><ele>482.0</ele><time>2026-04-26T13:07:51.024Z</time></trkpt><trkpt lat="43.8897783" lon="12.4132467"><ele>482.0</ele><time>2026-04-26T13:07:52.026Z</time></trkpt><trkpt lat="43.8899" lon="12.41313"><ele>482.0</ele><time>2026-04-26T13:07:53.024Z</time></trkpt><trkpt lat="43.8900367" lon="12.4130183"><ele>482.0</ele><time>2026-04-26T13:07:54.029Z</time></trkpt><trkpt lat="43.8901767" lon="12.4128967"><ele>484.5</ele><time>2026-04-26T13:07:55.025Z</time></trkpt><trkpt lat="43.8903133" lon="12.412785"><ele>487.0</ele><time>2026-04-26T13:07:56.024Z</time></trkpt><trkpt lat="43.890435" lon="12.412685"><ele>489.5</ele><time>2026-04-26T13:07:57.025Z</time></trkpt><trkpt lat="43.890535" lon="12.4126017"><ele>492.0</ele><time>2026-04-26T13:07:58.024Z</time></trkpt><trkpt lat="43.89061" lon="12.412535"><ele>492.0</ele><time>2026-04-26T13:07:59.023Z</time></trkpt><trkpt lat="43.8906683" lon="12.4124917"><ele>492.00000000000006</ele><time>2026-04-26T13:08:00.034Z</time></trkpt><trkpt lat="43.89073" lon="12.41242"><ele>492.00000000000006</ele><time>2026-04-26T13:08:02.024Z</time></trkpt><trkpt lat="43.8907583" lon="12.412325"><ele>492.0</ele><time>2026-04-26T13:08:04.023Z</time></trkpt><trkpt lat="43.890675" lon="12.4121467"><ele>492.0</ele><time>2026-04-26T13:08:06.023Z</time></trkpt><trkpt lat="43.890595" lon="12.4119933"><ele>492.0</ele><time>2026-04-26T13:08:07.024Z</time></trkpt><trkpt lat="43.890515" lon="12.4118067"><ele>492.0</ele><time>2026-04-26T13:08:08.024Z</time></trkpt><trkpt lat="43.8904433" lon="12.4116183"><ele>492.0</ele><time>2026-04-26T13:08:09.024Z</time></trkpt><trkpt lat="43.890385" lon="12.4114433"><ele>492.0</ele><time>2026-04-26T13:08:10.024Z</time></trkpt><trkpt lat="43.89034" lon="12.4112733"><ele>490.8</ele><time>2026-04-26T13:08:11.027Z</time></trkpt><trkpt lat="43.8903017" lon="12.4111133"><ele>489.6</ele><time>2026-04-26T13:08:12.025Z</time></trkpt><trkpt lat="43.8902667" lon="12.410975"><ele>488.40000000000003</ele><time>2026-04-26T13:08:13.025Z</time></trkpt><trkpt lat="43.89024" lon="12.4108617"><ele>487.20000000000005</ele><time>2026-04-26T13:08:14.023Z</time></trkpt><trkpt lat="43.8902133" lon="12.41076"><ele>486.0</ele><time>2026-04-26T13:08:15.023Z</time></trkpt><trkpt lat="43.8901917" lon="12.4106567"><ele>486.0</ele><time>2026-04-26T13:08:16.023Z</time></trkpt><trkpt lat="43.8901783" lon="12.4105433"><ele>486.0</ele><time>2026-04-26T13:08:17.026Z</time></trkpt><trkpt lat="43.8901767" lon="12.41043"><ele>486.0</ele><time>2026-04-26T13:08:18.022Z</time></trkpt><trkpt lat="43.8901817" lon="12.4103317"><ele>486.0</ele><time>2026-04-26T13:08:19.028Z</time></trkpt><trkpt lat="43.8902083" lon="12.41018"><ele>486.0</ele><time>2026-04-26T13:08:21.025Z</time></trkpt><trkpt lat="43.89024" lon="12.4100467"><ele>486.0</ele><time>2026-04-26T13:08:23.023Z</time></trkpt><trkpt lat="43.8902533" lon="12.4099433"><ele>484.6666666666667</ele><time>2026-04-26T13:08:25.023Z</time></trkpt><trkpt lat="43.8902167" lon="12.4098633"><ele>483.33333333333337</ele><time>2026-04-26T13:08:27.024Z</time></trkpt><trkpt lat="43.8901483" lon="12.4098483"><ele>482.0</ele><time>2026-04-26T13:08:29.029Z</time></trkpt><trkpt lat="43.8900583" lon="12.4099217"><ele>480.6666666666667</ele><time>2026-04-26T13:08:31.024Z</time></trkpt><trkpt lat="43.8900083" lon="12.40999"><ele>479.33333333333337</ele><time>2026-04-26T13:08:32.023Z</time></trkpt><trkpt lat="43.8899617" lon="12.4100533"><ele>478.0</ele><time>2026-04-26T13:08:33.025Z</time></trkpt><trkpt lat="43.8898767" lon="12.4101617"><ele>474.6666666666667</ele><time>2026-04-26T13:08:35.023Z</time></trkpt><trkpt lat="43.8898133" lon="12.41024"><ele>471.33333333333337</ele><time>2026-04-26T13:08:37.023Z</time></trkpt><trkpt lat="43.8897483" lon="12.4103183"><ele>468.0</ele><time>2026-04-26T13:08:41.024Z</time></trkpt><trkpt lat="43.889795" lon="12.41024"><ele>464.66666666666663</ele><time>2026-04-26T13:09:04.025Z</time></trkpt><trkpt lat="43.8898867" lon="12.41012"><ele>461.3333333333333</ele><time>2026-04-26T13:09:06.03Z</time></trkpt><trkpt lat="43.8899417" lon="12.4100533"><ele>458.0</ele><time>2026-04-26T13:09:07.027Z</time></trkpt><trkpt lat="43.88999" lon="12.4099933"><ele>457.99999999999994</ele><time>2026-04-26T13:09:08.031Z</time></trkpt><trkpt lat="43.8900433" lon="12.4099383"><ele>458.0</ele><time>2026-04-26T13:09:09.029Z</time></trkpt><trkpt lat="43.89013" lon="12.40987"><ele>458.0</ele><time>2026-04-26T13:09:11.022Z</time></trkpt><trkpt lat="43.8901967" lon="12.40984"><ele>458.0</ele><time>2026-04-26T13:09:13.023Z</time></trkpt><trkpt lat="43.8902606" lon="12.4098683"><ele>457.99999999999994</ele><time>2026-04-26T13:09:17.026Z</time></trkpt><trkpt lat="43.890249" lon="12.4099882"><ele>458.0</ele><time>2026-04-26T13:09:22.061Z</time></trkpt><trkpt lat="43.890214" lon="12.4100818"><ele>462.0</ele><time>2026-04-26T13:09:24.078Z</time></trkpt><trkpt lat="43.8901999" lon="12.4101724"><ele>465.99999999999994</ele><time>2026-04-26T13:09:26.075Z</time></trkpt><trkpt lat="43.8901797" lon="12.4103763"><ele>469.99999999999994</ele><time>2026-04-26T13:09:28.076Z</time></trkpt><trkpt lat="43.8901983" lon="12.4105521"><ele>474.0</ele><time>2026-04-26T13:09:29.029Z</time></trkpt><trkpt lat="43.8902274" lon="12.4106875"><ele>478.0</ele><time>2026-04-26T13:09:30.022Z</time></trkpt><trkpt lat="43.8902542" lon="12.4108172"><ele>480.0</ele><time>2026-04-26T13:09:31.022Z</time></trkpt><trkpt lat="43.8902839" lon="12.410964"><ele>482.0</ele><time>2026-04-26T13:09:32.023Z</time></trkpt><trkpt lat="43.8903185" lon="12.4111267"><ele>484.0</ele><time>2026-04-26T13:09:33.025Z</time></trkpt><trkpt lat="43.8903576" lon="12.411298"><ele>486.0</ele><time>2026-04-26T13:09:34.03Z</time></trkpt><trkpt lat="43.8904041" lon="12.4114714"><ele>487.5</ele><time>2026-04-26T13:09:35.024Z</time></trkpt><trkpt lat="43.8904494" lon="12.4116369"><ele>489.0</ele><time>2026-04-26T13:09:36.03Z</time></trkpt><trkpt lat="43.8904968" lon="12.4117994"><ele>490.5</ele><time>2026-04-26T13:09:37.025Z</time></trkpt><trkpt lat="43.8905426" lon="12.4119526"><ele>492.0</ele><time>2026-04-26T13:09:38.024Z</time></trkpt><trkpt lat="43.8905831" lon="12.4120701"><ele>492.0</ele><time>2026-04-26T13:09:39.024Z</time></trkpt><trkpt lat="43.8906253" lon="12.4121637"><ele>492.0</ele><time>2026-04-26T13:09:40.022Z</time></trkpt><trkpt lat="43.8906683" lon="12.4122333"><ele>492.0</ele><time>2026-04-26T13:09:41.025Z</time></trkpt><trkpt lat="43.8907565" lon="12.4123228"><ele>492.0</ele><time>2026-04-26T13:09:43.025Z</time></trkpt><trkpt lat="43.8908195" lon="12.4123508"><ele>492.0</ele><time>2026-04-26T13:09:44.023Z</time></trkpt><trkpt lat="43.8908992" lon="12.4123775"><ele>492.0</ele><time>2026-04-26T13:09:45.029Z</time></trkpt><trkpt lat="43.8909856" lon="12.4124163"><ele>494.0</ele><time>2026-04-26T13:09:46.023Z</time></trkpt><trkpt lat="43.8910749" lon="12.4124665"><ele>496.00000000000006</ele><time>2026-04-26T13:09:47.023Z</time></trkpt><trkpt lat="43.8911654" lon="12.4125232"><ele>498.00000000000006</ele><time>2026-04-26T13:09:48.024Z</time></trkpt><trkpt lat="43.8912469" lon="12.4125836"><ele>500.0</ele><time>2026-04-26T13:09:49.022Z</time></trkpt><trkpt lat="43.8913198" lon="12.4126586"><ele>502.0</ele><time>2026-04-26T13:09:50.027Z</time></trkpt><trkpt lat="43.8913956" lon="12.4127529"><ele>502.00000000000006</ele><time>2026-04-26T13:09:51.024Z</time></trkpt><trkpt lat="43.8914608" lon="12.4128602"><ele>502.0</ele><time>2026-04-26T13:09:52.024Z</time></trkpt><trkpt lat="43.8915081" lon="12.4129569"><ele>502.0</ele><time>2026-04-26T13:09:53.025Z</time></trkpt><trkpt lat="43.8915447" lon="12.4130407"><ele>502.0</ele><time>2026-04-26T13:09:54.023Z</time></trkpt><trkpt lat="43.8916072" lon="12.4131518"><ele>502.00000000000006</ele><time>2026-04-26T13:09:56.024Z</time></trkpt><trkpt lat="43.8916792" lon="12.4131668"><ele>502.0</ele><time>2026-04-26T13:09:58.024Z</time></trkpt><trkpt lat="43.8916851" lon="12.4130493"><ele>502.0</ele><time>2026-04-26T13:10:00.026Z</time></trkpt><trkpt lat="43.8916456" lon="12.4129349"><ele>502.0</ele><time>2026-04-26T13:10:01.024Z</time></trkpt><trkpt lat="43.8915372" lon="12.4127552"><ele>502.0</ele><time>2026-04-26T13:10:02.023Z</time></trkpt><trkpt lat="43.8914162" lon="12.4125988"><ele>502.0</ele><time>2026-04-26T13:10:03.023Z</time></trkpt><trkpt lat="43.8913298" lon="12.412469"><ele>502.00000000000006</ele><time>2026-04-26T13:10:04.031Z</time></trkpt><trkpt lat="43.8912733" lon="12.4123667"><ele>502.0</ele><time>2026-04-26T13:10:05.022Z</time></trkpt><trkpt lat="43.8912383" lon="12.4122783"><ele>502.0</ele><time>2026-04-26T13:10:06.024Z</time></trkpt><trkpt lat="43.891195" lon="12.4122067"><ele>502.0</ele><time>2026-04-26T13:10:07.026Z</time></trkpt><trkpt lat="43.8911517" lon="12.4121233"><ele>502.00000000000006</ele><time>2026-04-26T13:10:08.022Z</time></trkpt><trkpt lat="43.8911183" lon="12.4120283"><ele>502.0</ele><time>2026-04-26T13:10:09.023Z</time></trkpt><trkpt lat="43.8910917" lon="12.4119183"><ele>502.00000000000006</ele><time>2026-04-26T13:10:10.024Z</time></trkpt><trkpt lat="43.8910783" lon="12.4117983"><ele>502.0</ele><time>2026-04-26T13:10:11.022Z</time></trkpt><trkpt lat="43.8910667" lon="12.4116817"><ele>502.0</ele><time>2026-04-26T13:10:12.023Z</time></trkpt><trkpt lat="43.8910733" lon="12.4115633"><ele>502.0</ele><time>2026-04-26T13:10:13.026Z</time></trkpt><trkpt lat="43.8911" lon="12.4114467"><ele>502.00000000000006</ele><time>2026-04-26T13:10:14.031Z</time></trkpt><trkpt lat="43.8911133" lon="12.4113217"><ele>502.0</ele><time>2026-04-26T13:10:15.024Z</time></trkpt><trkpt lat="43.89113" lon="12.4112133"><ele>500.6666666666667</ele><time>2026-04-26T13:10:16.025Z</time></trkpt><trkpt lat="43.89115" lon="12.4111133"><ele>499.33333333333337</ele><time>2026-04-26T13:10:17.025Z</time></trkpt><trkpt lat="43.8911767" lon="12.4110183"><ele>498.0</ele><time>2026-04-26T13:10:18.025Z</time></trkpt><trkpt lat="43.8912367" lon="12.4109533"><ele>496.66666666666663</ele><time>2026-04-26T13:10:19.025Z</time></trkpt><trkpt lat="43.891315" lon="12.4109117"><ele>495.3333333333333</ele><time>2026-04-26T13:10:20.031Z</time></trkpt><trkpt lat="43.8913933" lon="12.4108667"><ele>494.0</ele><time>2026-04-26T13:10:21.026Z</time></trkpt><trkpt lat="43.891475" lon="12.4108233"><ele>494.0</ele><time>2026-04-26T13:10:22.025Z</time></trkpt><trkpt lat="43.89154" lon="12.4107433"><ele>494.0</ele><time>2026-04-26T13:10:23.023Z</time></trkpt><trkpt lat="43.8915717" lon="12.41061"><ele>494.0</ele><time>2026-04-26T13:10:24.025Z</time></trkpt><trkpt lat="43.8916" lon="12.4104617"><ele>494.0</ele><time>2026-04-26T13:10:25.028Z</time></trkpt><trkpt lat="43.8916417" lon="12.41031"><ele>494.0</ele><time>2026-04-26T13:10:26.025Z</time></trkpt><trkpt lat="43.891665" lon="12.4101367"><ele>491.5</ele><time>2026-04-26T13:10:27.026Z</time></trkpt><trkpt lat="43.8916883" lon="12.409965"><ele>489.0</ele><time>2026-04-26T13:10:28.027Z</time></trkpt><trkpt lat="43.8917133" lon="12.40979"><ele>486.5</ele><time>2026-04-26T13:10:29.025Z</time></trkpt><trkpt lat="43.8917567" lon="12.4096317"><ele>484.0</ele><time>2026-04-26T13:10:30.028Z</time></trkpt><trkpt lat="43.891805" lon="12.40948"><ele>476.25</ele><time>2026-04-26T13:10:31.027Z</time></trkpt><trkpt lat="43.89186" lon="12.4093383"><ele>468.5</ele><time>2026-04-26T13:10:32.024Z</time></trkpt><trkpt lat="43.8918983" lon="12.4091867"><ele>460.75</ele><time>2026-04-26T13:10:33.026Z</time></trkpt><trkpt lat="43.891925" lon="12.4090317"><ele>453.0</ele><time>2026-04-26T13:10:34.028Z</time></trkpt><trkpt lat="43.8919467" lon="12.4088733"><ele>450.25</ele><time>2026-04-26T13:10:35.026Z</time></trkpt><trkpt lat="43.891965" lon="12.408705"><ele>447.5</ele><time>2026-04-26T13:10:36.031Z</time></trkpt><trkpt lat="43.8919783" lon="12.4085317"><ele>444.75</ele><time>2026-04-26T13:10:37.026Z</time></trkpt><trkpt lat="43.8919817" lon="12.408365"><ele>442.0</ele><time>2026-04-26T13:10:38.026Z</time></trkpt><trkpt lat="43.8919567" lon="12.4082067"><ele>442.00000000000006</ele><time>2026-04-26T13:10:39.027Z</time></trkpt><trkpt lat="43.8919102" lon="12.4080641"><ele>442.0</ele><time>2026-04-26T13:10:40.027Z</time></trkpt><trkpt lat="43.8918598" lon="12.4079549"><ele>442.0</ele><time>2026-04-26T13:10:41.028Z</time></trkpt><trkpt lat="43.8918071" lon="12.4078711"><ele>442.0</ele><time>2026-04-26T13:10:42.025Z</time></trkpt><trkpt lat="43.8917581" lon="12.4078052"><ele>442.00000000000006</ele><time>2026-04-26T13:10:43.026Z</time></trkpt><trkpt lat="43.8916671" lon="12.4077894"><ele>442.0</ele><time>2026-04-26T13:10:45.027Z</time></trkpt><trkpt lat="43.8915632" lon="12.4078677"><ele>443.33333333333337</ele><time>2026-04-26T13:10:47.025Z</time></trkpt><trkpt lat="43.8914945" lon="12.4079143"><ele>444.6666666666667</ele><time>2026-04-26T13:10:48.026Z</time></trkpt><trkpt lat="43.891414" lon="12.4079651"><ele>446.0</ele><time>2026-04-26T13:10:49.026Z</time></trkpt><trkpt lat="43.8913333" lon="12.4080214"><ele>447.33333333333337</ele><time>2026-04-26T13:10:50.026Z</time></trkpt><trkpt lat="43.8912514" lon="12.4080687"><ele>448.6666666666667</ele><time>2026-04-26T13:10:51.028Z</time></trkpt><trkpt lat="43.8911722" lon="12.4081106"><ele>450.0</ele><time>2026-04-26T13:10:52.027Z</time></trkpt><trkpt lat="43.8910999" lon="12.408145"><ele>450.1666666666667</ele><time>2026-04-26T13:10:53.024Z</time></trkpt><trkpt lat="43.8910248" lon="12.4081638"><ele>450.33333333333337</ele><time>2026-04-26T13:10:54.025Z</time></trkpt><trkpt lat="43.8909459" lon="12.4081841"><ele>450.5</ele><time>2026-04-26T13:10:55.026Z</time></trkpt><trkpt lat="43.8908672" lon="12.4081964"><ele>450.6666666666667</ele><time>2026-04-26T13:10:56.03Z</time></trkpt><trkpt lat="43.8907859" lon="12.4081874"><ele>450.83333333333337</ele><time>2026-04-26T13:10:57.026Z</time></trkpt><trkpt lat="43.8907105" lon="12.4081488"><ele>451.0</ele><time>2026-04-26T13:10:58.023Z</time></trkpt><trkpt lat="43.8906534" lon="12.4080799"><ele>448.25</ele><time>2026-04-26T13:10:59.027Z</time></trkpt><trkpt lat="43.8906473" lon="12.4079498"><ele>445.5</ele><time>2026-04-26T13:11:00.027Z</time></trkpt><trkpt lat="43.8906722" lon="12.4077973"><ele>442.75</ele><time>2026-04-26T13:11:01.026Z</time></trkpt><trkpt lat="43.8906835" lon="12.4076337"><ele>440.0</ele><time>2026-04-26T13:11:02.033Z</time></trkpt><trkpt lat="43.8907202" lon="12.4074347"><ele>440.0</ele><time>2026-04-26T13:11:03.027Z</time></trkpt><trkpt lat="43.8907715" lon="12.4072263"><ele>440.0</ele><time>2026-04-26T13:11:04.027Z</time></trkpt><trkpt lat="43.8908473" lon="12.4070158"><ele>440.0</ele><time>2026-04-26T13:11:05.025Z</time></trkpt><trkpt lat="43.8909266" lon="12.4068171"><ele>438.2</ele><time>2026-04-26T13:11:06.026Z</time></trkpt><trkpt lat="43.8909932" lon="12.406629"><ele>436.4</ele><time>2026-04-26T13:11:07.026Z</time></trkpt><trkpt lat="43.8910432" lon="12.4064838"><ele>434.6</ele><time>2026-04-26T13:11:08.025Z</time></trkpt><trkpt lat="43.8910819" lon="12.4063769"><ele>432.8</ele><time>2026-04-26T13:11:09.024Z</time></trkpt><trkpt lat="43.8911184" lon="12.4062877"><ele>431.0</ele><time>2026-04-26T13:11:10.032Z</time></trkpt><trkpt lat="43.8911071" lon="12.4061223"><ele>426.99999999999994</ele><time>2026-04-26T13:11:12.026Z</time></trkpt><trkpt lat="43.8910264" lon="12.4060032"><ele>423.0</ele><time>2026-04-26T13:11:14.027Z</time></trkpt><trkpt lat="43.890964" lon="12.4059906"><ele>419.0</ele><time>2026-04-26T13:11:15.031Z</time></trkpt><trkpt lat="43.8908784" lon="12.4060289"><ele>415.0</ele><time>2026-04-26T13:11:16.026Z</time></trkpt><trkpt lat="43.890794" lon="12.4060779"><ele>410.99999999999994</ele><time>2026-04-26T13:11:17.025Z</time></trkpt><trkpt lat="43.8907278" lon="12.4061051"><ele>407.0</ele><time>2026-04-26T13:11:18.025Z</time></trkpt><trkpt lat="43.8906272" lon="12.4060646"><ele>406.20000000000005</ele><time>2026-04-26T13:11:20.029Z</time></trkpt><trkpt lat="43.8905918" lon="12.4059158"><ele>405.4</ele><time>2026-04-26T13:11:22.023Z</time></trkpt><trkpt lat="43.8906134" lon="12.405735"><ele>404.6</ele><time>2026-04-26T13:11:24.027Z</time></trkpt><trkpt lat="43.8906422" lon="12.405634"><ele>403.79999999999995</ele><time>2026-04-26T13:11:25.027Z</time></trkpt><trkpt lat="43.8906536" lon="12.405547"><ele>403.0</ele><time>2026-04-26T13:11:26.027Z</time></trkpt><trkpt lat="43.890585" lon="12.405428"><ele>403.0</ele><time>2026-04-26T13:11:28.028Z</time></trkpt><trkpt lat="43.8905187" lon="12.4054158"><ele>403.0</ele><time>2026-04-26T13:11:29.029Z</time></trkpt><trkpt lat="43.8904212" lon="12.4054901"><ele>403.0</ele><time>2026-04-26T13:11:30.023Z</time></trkpt><trkpt lat="43.8903299" lon="12.4056046"><ele>403.0</ele><time>2026-04-26T13:11:31.027Z</time></trkpt><trkpt lat="43.8902468" lon="12.4057032"><ele>403.0</ele><time>2026-04-26T13:11:32.026Z</time></trkpt><trkpt lat="43.8901675" lon="12.4057918"><ele>400.6666666666667</ele><time>2026-04-26T13:11:33.024Z</time></trkpt><trkpt lat="43.8900855" lon="12.4058567"><ele>398.33333333333337</ele><time>2026-04-26T13:11:34.023Z</time></trkpt><trkpt lat="43.8900007" lon="12.4058854"><ele>396.0</ele><time>2026-04-26T13:11:35.026Z</time></trkpt><trkpt lat="43.8899169" lon="12.4058774"><ele>393.66666666666663</ele><time>2026-04-26T13:11:36.025Z</time></trkpt><trkpt lat="43.8898474" lon="12.4058345"><ele>391.3333333333333</ele><time>2026-04-26T13:11:37.024Z</time></trkpt><trkpt lat="43.8898" lon="12.4057649"><ele>389.0</ele><time>2026-04-26T13:11:38.023Z</time></trkpt><trkpt lat="43.889779" lon="12.4056591"><ele>389.0</ele><time>2026-04-26T13:11:39.024Z</time></trkpt><trkpt lat="43.8898021" lon="12.4054963"><ele>389.0</ele><time>2026-04-26T13:11:40.026Z</time></trkpt><trkpt lat="43.8898575" lon="12.4053022"><ele>389.0</ele><time>2026-04-26T13:11:41.028Z</time></trkpt><trkpt lat="43.8899108" lon="12.4051165"><ele>389.0</ele><time>2026-04-26T13:11:42.026Z</time></trkpt><trkpt lat="43.8899478" lon="12.4049496"><ele>387.3333333333333</ele><time>2026-04-26T13:11:43.024Z</time></trkpt><trkpt lat="43.8899612" lon="12.4048043"><ele>385.66666666666663</ele><time>2026-04-26T13:11:44.026Z</time></trkpt><trkpt lat="43.8899488" lon="12.4046855"><ele>384.0</ele><time>2026-04-26T13:11:45.027Z</time></trkpt><trkpt lat="43.8899066" lon="12.4045911"><ele>382.3333333333333</ele><time>2026-04-26T13:11:46.023Z</time></trkpt><trkpt lat="43.8898512" lon="12.4045149"><ele>380.66666666666663</ele><time>2026-04-26T13:11:47.027Z</time></trkpt><trkpt lat="43.8897842" lon="12.4044611"><ele>379.0</ele><time>2026-04-26T13:11:48.024Z</time></trkpt><trkpt lat="43.8896946" lon="12.4044673"><ele>378.79999999999995</ele><time>2026-04-26T13:11:49.027Z</time></trkpt><trkpt lat="43.8895982" lon="12.4045012"><ele>378.59999999999997</ele><time>2026-04-26T13:11:50.023Z</time></trkpt><trkpt lat="43.8894988" lon="12.404555"><ele>378.4</ele><time>2026-04-26T13:11:51.026Z</time></trkpt><trkpt lat="43.8894038" lon="12.4046038"><ele>378.2</ele><time>2026-04-26T13:11:52.03Z</time></trkpt><trkpt lat="43.8893087" lon="12.4046403"><ele>378.0</ele><time>2026-04-26T13:11:53.026Z</time></trkpt><trkpt lat="43.8892171" lon="12.404664"><ele>378.0</ele><time>2026-04-26T13:11:54.026Z</time></trkpt><trkpt lat="43.8891333" lon="12.4046749"><ele>378.0</ele><time>2026-04-26T13:11:55.026Z</time></trkpt><trkpt lat="43.8890515" lon="12.4046952"><ele>378.0</ele><time>2026-04-26T13:11:56.026Z</time></trkpt><trkpt lat="43.8889641" lon="12.4047114"><ele>378.0</ele><time>2026-04-26T13:11:57.026Z</time></trkpt><trkpt lat="43.8888466" lon="12.4046811"><ele>378.0</ele><time>2026-04-26T13:11:58.026Z</time></trkpt><trkpt lat="43.8887129" lon="12.4046426"><ele>375.25</ele><time>2026-04-26T13:11:59.023Z</time></trkpt><trkpt lat="43.88857" lon="12.404598"><ele>372.5</ele><time>2026-04-26T13:12:00.023Z</time></trkpt><trkpt lat="43.8884264" lon="12.4045664"><ele>369.75</ele><time>2026-04-26T13:12:01.024Z</time></trkpt><trkpt lat="43.8882959" lon="12.4045352"><ele>367.0</ele><time>2026-04-26T13:12:02.026Z</time></trkpt><trkpt lat="43.8881777" lon="12.4044905"><ele>366.25</ele><time>2026-04-26T13:12:03.029Z</time></trkpt><trkpt lat="43.8880606" lon="12.4044324"><ele>365.5</ele><time>2026-04-26T13:12:04.025Z</time></trkpt><trkpt lat="43.8879467" lon="12.4043594"><ele>364.75</ele><time>2026-04-26T13:12:05.023Z</time></trkpt><trkpt lat="43.8878371" lon="12.4042871"><ele>364.0</ele><time>2026-04-26T13:12:06.025Z</time></trkpt><trkpt lat="43.887728" lon="12.4042471"><ele>364.0</ele><time>2026-04-26T13:12:07.027Z</time></trkpt><trkpt lat="43.8876283" lon="12.4042183"><ele>364.0</ele><time>2026-04-26T13:12:08.024Z</time></trkpt><trkpt lat="43.8875358" lon="12.4041873"><ele>364.0</ele><time>2026-04-26T13:12:09.027Z</time></trkpt><trkpt lat="43.8874448" lon="12.4041584"><ele>364.0</ele><time>2026-04-26T13:12:10.025Z</time></trkpt><trkpt lat="43.8873544" lon="12.4041459"><ele>364.0</ele><time>2026-04-26T13:12:11.023Z</time></trkpt><trkpt lat="43.8872675" lon="12.4041196"><ele>364.3333333333333</ele><time>2026-04-26T13:12:12.023Z</time></trkpt><trkpt lat="43.8871888" lon="12.4040808"><ele>364.66666666666663</ele><time>2026-04-26T13:12:13.024Z</time></trkpt><trkpt lat="43.8871296" lon="12.4040132"><ele>365.0</ele><time>2026-04-26T13:12:14.025Z</time></trkpt><trkpt lat="43.8870975" lon="12.4039143"><ele>365.3333333333333</ele><time>2026-04-26T13:12:15.024Z</time></trkpt><trkpt lat="43.887096" lon="12.4037938"><ele>365.6666666666667</ele><time>2026-04-26T13:12:16.03Z</time></trkpt><trkpt lat="43.8871205" lon="12.403668"><ele>366.0</ele><time>2026-04-26T13:12:17.024Z</time></trkpt><trkpt lat="43.887155" lon="12.4035336"><ele>363.6</ele><time>2026-04-26T13:12:18.025Z</time></trkpt><trkpt lat="43.8871887" lon="12.4033984"><ele>361.20000000000005</ele><time>2026-04-26T13:12:19.023Z</time></trkpt><trkpt lat="43.887235" lon="12.4032567"><ele>358.79999999999995</ele><time>2026-04-26T13:12:20.023Z</time></trkpt><trkpt lat="43.8872833" lon="12.403115"><ele>356.4</ele><time>2026-04-26T13:12:21.026Z</time></trkpt><trkpt lat="43.88735" lon="12.4029783"><ele>354.0</ele><time>2026-04-26T13:12:22.024Z</time></trkpt><trkpt lat="43.8874033" lon="12.4028383"><ele>351.79999999999995</ele><time>2026-04-26T13:12:23.026Z</time></trkpt><trkpt lat="43.8874483" lon="12.4026967"><ele>349.59999999999997</ele><time>2026-04-26T13:12:24.023Z</time></trkpt><trkpt lat="43.887485" lon="12.4025633"><ele>347.4</ele><time>2026-04-26T13:12:25.026Z</time></trkpt><trkpt lat="43.8875067" lon="12.4024183"><ele>345.2</ele><time>2026-04-26T13:12:26.023Z</time></trkpt><trkpt lat="43.8875017" lon="12.4022683"><ele>343.0</ele><time>2026-04-26T13:12:27.031Z</time></trkpt><trkpt lat="43.8874833" lon="12.4021233"><ele>340.75</ele><time>2026-04-26T13:12:28.025Z</time></trkpt><trkpt lat="43.8874383" lon="12.40196"><ele>338.5</ele><time>2026-04-26T13:12:29.024Z</time></trkpt><trkpt lat="43.887385" lon="12.401795"><ele>336.25</ele><time>2026-04-26T13:12:30.025Z</time></trkpt><trkpt lat="43.88734" lon="12.4016067"><ele>334.0</ele><time>2026-04-26T13:12:31.023Z</time></trkpt><trkpt lat="43.8872783" lon="12.4014183"><ele>333.75</ele><time>2026-04-26T13:12:32.028Z</time></trkpt><trkpt lat="43.8872183" lon="12.4012267"><ele>333.5</ele><time>2026-04-26T13:12:33.023Z</time></trkpt><trkpt lat="43.8871617" lon="12.4010583"><ele>333.25</ele><time>2026-04-26T13:12:34.025Z</time></trkpt><trkpt lat="43.8871233" lon="12.400915"><ele>333.0</ele><time>2026-04-26T13:12:35.024Z</time></trkpt><trkpt lat="43.8870783" lon="12.4007983"><ele>333.0</ele><time>2026-04-26T13:12:36.024Z</time></trkpt><trkpt lat="43.8870217" lon="12.40072"><ele>333.0</ele><time>2026-04-26T13:12:37.026Z</time></trkpt><trkpt lat="43.886965" lon="12.4006567"><ele>333.0</ele><time>2026-04-26T13:12:38.024Z</time></trkpt><trkpt lat="43.8869067" lon="12.4006167"><ele>333.0</ele><time>2026-04-26T13:12:39.027Z</time></trkpt><trkpt lat="43.8868333" lon="12.40061"><ele>333.0</ele><time>2026-04-26T13:12:40.023Z</time></trkpt><trkpt lat="43.8867617" lon="12.4006167"><ele>333.0</ele><time>2026-04-26T13:12:41.025Z</time></trkpt><trkpt lat="43.88669" lon="12.4006133"><ele>333.0</ele><time>2026-04-26T13:12:42.024Z</time></trkpt><trkpt lat="43.8866267" lon="12.4005917"><ele>334.2</ele><time>2026-04-26T13:12:43.025Z</time></trkpt><trkpt lat="43.8865417" lon="12.4005233"><ele>335.4</ele><time>2026-04-26T13:12:45.029Z</time></trkpt><trkpt lat="43.8865183" lon="12.4004017"><ele>336.59999999999997</ele><time>2026-04-26T13:12:47.023Z</time></trkpt><trkpt lat="43.886565" lon="12.4002683"><ele>337.79999999999995</ele><time>2026-04-26T13:12:49.024Z</time></trkpt><trkpt lat="43.8866433" lon="12.4002"><ele>339.0</ele><time>2026-04-26T13:12:51.023Z</time></trkpt><trkpt lat="43.8867533" lon="12.4002417"><ele>340.1666666666667</ele><time>2026-04-26T13:12:52.024Z</time></trkpt><trkpt lat="43.88684" lon="12.4002567"><ele>341.3333333333333</ele><time>2026-04-26T13:12:53.03Z</time></trkpt><trkpt lat="43.8869267" lon="12.4002267"><ele>342.5</ele><time>2026-04-26T13:12:54.022Z</time></trkpt><trkpt lat="43.8869996" lon="12.4001949"><ele>343.66666666666663</ele><time>2026-04-26T13:12:55.025Z</time></trkpt><trkpt lat="43.8870607" lon="12.4001579"><ele>344.8333333333333</ele><time>2026-04-26T13:12:56.024Z</time></trkpt><trkpt lat="43.8871436" lon="12.4000776"><ele>346.0</ele><time>2026-04-26T13:12:58.024Z</time></trkpt><trkpt lat="43.887131" lon="12.3999724"><ele>346.0</ele><time>2026-04-26T13:13:00.024Z</time></trkpt><trkpt lat="43.8870362" lon="12.3998719"><ele>346.0</ele><time>2026-04-26T13:13:02.022Z</time></trkpt><trkpt lat="43.8869571" lon="12.3998205"><ele>346.0</ele><time>2026-04-26T13:13:03.026Z</time></trkpt><trkpt lat="43.8868827" lon="12.3997596"><ele>346.0</ele><time>2026-04-26T13:13:04.024Z</time></trkpt><trkpt lat="43.886824" lon="12.3996908"><ele>346.0</ele><time>2026-04-26T13:13:05.024Z</time></trkpt><trkpt lat="43.8867834" lon="12.399617"><ele>346.0</ele><time>2026-04-26T13:13:06.025Z</time></trkpt><trkpt lat="43.8867524" lon="12.3994893"><ele>349.4</ele><time>2026-04-26T13:13:08.028Z</time></trkpt><trkpt lat="43.8867946" lon="12.3993811"><ele>352.8</ele><time>2026-04-26T13:13:10.024Z</time></trkpt><trkpt lat="43.8868995" lon="12.399291"><ele>356.2</ele><time>2026-04-26T13:13:12.024Z</time></trkpt><trkpt lat="43.8869763" lon="12.399255"><ele>359.59999999999997</ele><time>2026-04-26T13:13:13.026Z</time></trkpt><trkpt lat="43.8870672" lon="12.3992258"><ele>363.0</ele><time>2026-04-26T13:13:14.023Z</time></trkpt><trkpt lat="43.8871705" lon="12.3992002"><ele>363.0</ele><time>2026-04-26T13:13:15.03Z</time></trkpt><trkpt lat="43.8872739" lon="12.3991758"><ele>363.0</ele><time>2026-04-26T13:13:16.025Z</time></trkpt><trkpt lat="43.8873653" lon="12.3991395"><ele>363.0</ele><time>2026-04-26T13:13:17.025Z</time></trkpt><trkpt lat="43.8874438" lon="12.3990922"><ele>363.0</ele><time>2026-04-26T13:13:18.026Z</time></trkpt><trkpt lat="43.8875116" lon="12.3990401"><ele>363.0</ele><time>2026-04-26T13:13:19.024Z</time></trkpt><trkpt lat="43.8875582" lon="12.3989645"><ele>363.0</ele><time>2026-04-26T13:13:20.024Z</time></trkpt><trkpt lat="43.8875818" lon="12.3988724"><ele>365.79999999999995</ele><time>2026-04-26T13:13:21.024Z</time></trkpt><trkpt lat="43.8875909" lon="12.3987825"><ele>368.6</ele><time>2026-04-26T13:13:22.023Z</time></trkpt><trkpt lat="43.8875898" lon="12.398694"><ele>371.4</ele><time>2026-04-26T13:13:23.025Z</time></trkpt><trkpt lat="43.8875628" lon="12.3985242"><ele>374.20000000000005</ele><time>2026-04-26T13:13:25.026Z</time></trkpt><trkpt lat="43.8875356" lon="12.3983734"><ele>377.0</ele><time>2026-04-26T13:13:27.024Z</time></trkpt><trkpt lat="43.8874948" lon="12.3982331"><ele>376.99999999999994</ele><time>2026-04-26T13:13:29.027Z</time></trkpt><trkpt lat="43.8874668" lon="12.3981468"><ele>377.0</ele><time>2026-04-26T13:13:30.022Z</time></trkpt><trkpt lat="43.887442" lon="12.3980491"><ele>377.0</ele><time>2026-04-26T13:13:31.023Z</time></trkpt><trkpt lat="43.8874251" lon="12.3979387"><ele>377.0</ele><time>2026-04-26T13:13:32.026Z</time></trkpt><trkpt lat="43.8874212" lon="12.3978274"><ele>377.0</ele><time>2026-04-26T13:13:33.024Z</time></trkpt><trkpt lat="43.8874304" lon="12.3977228"><ele>376.99999999999994</ele><time>2026-04-26T13:13:34.028Z</time></trkpt><trkpt lat="43.8874479" lon="12.397632"><ele>377.0</ele><time>2026-04-26T13:13:35.022Z</time></trkpt><trkpt lat="43.8874763" lon="12.3974725"><ele>379.0</ele><time>2026-04-26T13:13:37.025Z</time></trkpt><trkpt lat="43.8874664" lon="12.3973514"><ele>381.0</ele><time>2026-04-26T13:13:39.023Z</time></trkpt><trkpt lat="43.8873873" lon="12.3972618"><ele>383.0</ele><time>2026-04-26T13:13:41.023Z</time></trkpt><trkpt lat="43.887323" lon="12.3972316"><ele>385.0</ele><time>2026-04-26T13:13:42.024Z</time></trkpt><trkpt lat="43.8872387" lon="12.3972108"><ele>386.99999999999994</ele><time>2026-04-26T13:13:43.024Z</time></trkpt><trkpt lat="43.8871448" lon="12.397191"><ele>389.0</ele><time>2026-04-26T13:13:44.023Z</time></trkpt><trkpt lat="43.8870454" lon="12.39717"><ele>390.79999999999995</ele><time>2026-04-26T13:13:45.024Z</time></trkpt><trkpt lat="43.8869483" lon="12.3971472"><ele>392.59999999999997</ele><time>2026-04-26T13:13:46.024Z</time></trkpt><trkpt lat="43.8868493" lon="12.3971221"><ele>394.4</ele><time>2026-04-26T13:13:47.023Z</time></trkpt><trkpt lat="43.8867461" lon="12.3970911"><ele>396.2</ele><time>2026-04-26T13:13:48.029Z</time></trkpt><trkpt lat="43.8866384" lon="12.3970692"><ele>398.0</ele><time>2026-04-26T13:13:49.025Z</time></trkpt><trkpt lat="43.8865246" lon="12.3970516"><ele>399.25</ele><time>2026-04-26T13:13:50.023Z</time></trkpt><trkpt lat="43.8864055" lon="12.3970284"><ele>400.5</ele><time>2026-04-26T13:13:51.026Z</time></trkpt><trkpt lat="43.8862821" lon="12.3970009"><ele>401.75</ele><time>2026-04-26T13:13:52.024Z</time></trkpt><trkpt lat="43.8861582" lon="12.3969746"><ele>403.0</ele><time>2026-04-26T13:13:53.022Z</time></trkpt><trkpt lat="43.8860412" lon="12.3969581"><ele>403.0</ele><time>2026-04-26T13:13:54.028Z</time></trkpt><trkpt lat="43.8859329" lon="12.3969481"><ele>403.0</ele><time>2026-04-26T13:13:55.025Z</time></trkpt><trkpt lat="43.8858346" lon="12.396944"><ele>403.0</ele><time>2026-04-26T13:13:56.025Z</time></trkpt><trkpt lat="43.8857443" lon="12.3969388"><ele>403.0</ele><time>2026-04-26T13:13:57.025Z</time></trkpt><trkpt lat="43.8856573" lon="12.3969235"><ele>403.0</ele><time>2026-04-26T13:13:58.025Z</time></trkpt><trkpt lat="43.8855701" lon="12.3968952"><ele>404.59999999999997</ele><time>2026-04-26T13:13:59.025Z</time></trkpt><trkpt lat="43.885475" lon="12.3968395"><ele>406.2</ele><time>2026-04-26T13:14:00.026Z</time></trkpt><trkpt lat="43.8853749" lon="12.3967687"><ele>407.8</ele><time>2026-04-26T13:14:01.024Z</time></trkpt><trkpt lat="43.8852718" lon="12.3967016"><ele>409.4</ele><time>2026-04-26T13:14:02.024Z</time></trkpt><trkpt lat="43.8851602" lon="12.3966512"><ele>411.0</ele><time>2026-04-26T13:14:03.031Z</time></trkpt><trkpt lat="43.8850387" lon="12.396612"><ele>411.25</ele><time>2026-04-26T13:14:04.023Z</time></trkpt><trkpt lat="43.8849204" lon="12.3965787"><ele>411.5</ele><time>2026-04-26T13:14:05.024Z</time></trkpt><trkpt lat="43.8848081" lon="12.3965423"><ele>411.75</ele><time>2026-04-26T13:14:06.027Z</time></trkpt><trkpt lat="43.8847008" lon="12.3964976"><ele>412.0</ele><time>2026-04-26T13:14:07.025Z</time></trkpt><trkpt lat="43.8846001" lon="12.3964344"><ele>412.0</ele><time>2026-04-26T13:14:08.024Z</time></trkpt><trkpt lat="43.8845022" lon="12.3963493"><ele>412.0</ele><time>2026-04-26T13:14:09.026Z</time></trkpt><trkpt lat="43.884398" lon="12.3962435"><ele>412.0</ele><time>2026-04-26T13:14:10.031Z</time></trkpt><trkpt lat="43.8842876" lon="12.3961194"><ele>412.0</ele><time>2026-04-26T13:14:11.025Z</time></trkpt><trkpt lat="43.8841787" lon="12.3959859"><ele>413.75</ele><time>2026-04-26T13:14:12.027Z</time></trkpt><trkpt lat="43.8840703" lon="12.3958502"><ele>415.5</ele><time>2026-04-26T13:14:13.024Z</time></trkpt><trkpt lat="43.883962" lon="12.3957148"><ele>417.25</ele><time>2026-04-26T13:14:14.025Z</time></trkpt><trkpt lat="43.8838596" lon="12.3955781"><ele>419.0</ele><time>2026-04-26T13:14:15.025Z</time></trkpt><trkpt lat="43.8837632" lon="12.3954467"><ele>422.0</ele><time>2026-04-26T13:14:16.025Z</time></trkpt><trkpt lat="43.8836698" lon="12.3953225"><ele>425.0</ele><time>2026-04-26T13:14:17.028Z</time></trkpt><trkpt lat="43.8835812" lon="12.3952042"><ele>428.0</ele><time>2026-04-26T13:14:18.026Z</time></trkpt><trkpt lat="43.8834966" lon="12.3950872"><ele>431.0</ele><time>2026-04-26T13:14:19.024Z</time></trkpt><trkpt lat="43.8834075" lon="12.394986"><ele>431.8</ele><time>2026-04-26T13:14:20.025Z</time></trkpt><trkpt lat="43.8833163" lon="12.3948979"><ele>432.6</ele><time>2026-04-26T13:14:21.025Z</time></trkpt><trkpt lat="43.8832293" lon="12.394813"><ele>433.4</ele><time>2026-04-26T13:14:22.024Z</time></trkpt><trkpt lat="43.8831456" lon="12.394726"><ele>434.2</ele><time>2026-04-26T13:14:23.026Z</time></trkpt><trkpt lat="43.883075" lon="12.394648"><ele>435.0</ele><time>2026-04-26T13:14:24.024Z</time></trkpt><trkpt lat="43.8830203" lon="12.3945865"><ele>436.3333333333333</ele><time>2026-04-26T13:14:25.025Z</time></trkpt><trkpt lat="43.8829659" lon="12.3945255"><ele>437.66666666666663</ele><time>2026-04-26T13:14:27.026Z</time></trkpt><trkpt lat="43.88296" lon="12.39443"><ele>439.0</ele><time>2026-04-26T13:14:41.026Z</time></trkpt><trkpt lat="43.88304" lon="12.394305"><ele>440.3333333333333</ele><time>2026-04-26T13:14:43.029Z</time></trkpt><trkpt lat="43.8831067" lon="12.394235"><ele>441.66666666666663</ele><time>2026-04-26T13:14:44.026Z</time></trkpt><trkpt lat="43.883195" lon="12.39417"><ele>443.0</ele><time>2026-04-26T13:14:45.024Z</time></trkpt><trkpt lat="43.8832967" lon="12.3941067"><ele>443.0</ele><time>2026-04-26T13:14:46.025Z</time></trkpt><trkpt lat="43.883405" lon="12.3940717"><ele>442.99999999999994</ele><time>2026-04-26T13:14:47.024Z</time></trkpt><trkpt lat="43.8835083" lon="12.3940233"><ele>442.99999999999994</ele><time>2026-04-26T13:14:48.028Z</time></trkpt><trkpt lat="43.8836067" lon="12.3939917"><ele>443.0</ele><time>2026-04-26T13:14:49.025Z</time></trkpt><trkpt lat="43.883695" lon="12.3939667"><ele>443.0</ele><time>2026-04-26T13:14:50.024Z</time></trkpt><trkpt lat="43.88378" lon="12.3939367"><ele>442.66666666666663</ele><time>2026-04-26T13:14:51.03Z</time></trkpt><trkpt lat="43.8838617" lon="12.3938983"><ele>442.3333333333333</ele><time>2026-04-26T13:14:52.027Z</time></trkpt><trkpt lat="43.8839417" lon="12.39386"><ele>442.0</ele><time>2026-04-26T13:14:53.029Z</time></trkpt><trkpt lat="43.8840267" lon="12.3938133"><ele>441.66666666666663</ele><time>2026-04-26T13:14:54.025Z</time></trkpt><trkpt lat="43.8841067" lon="12.39377"><ele>441.3333333333333</ele><time>2026-04-26T13:14:55.024Z</time></trkpt><trkpt lat="43.8841717" lon="12.393735"><ele>441.0</ele><time>2026-04-26T13:14:56.025Z</time></trkpt><trkpt lat="43.8842568" lon="12.3936779"><ele>440.0</ele><time>2026-04-26T13:14:58.029Z</time></trkpt><trkpt lat="43.8843175" lon="12.3935717"><ele>439.0</ele><time>2026-04-26T13:15:00.025Z</time></trkpt><trkpt lat="43.8843723" lon="12.3933965"><ele>438.0</ele><time>2026-04-26T13:15:02.026Z</time></trkpt><trkpt lat="43.8843955" lon="12.3932787"><ele>437.0</ele><time>2026-04-26T13:15:03.033Z</time></trkpt><trkpt lat="43.8844195" lon="12.3931604"><ele>436.0</ele><time>2026-04-26T13:15:04.025Z</time></trkpt><trkpt lat="43.8844418" lon="12.3930367"><ele>433.8</ele><time>2026-04-26T13:15:05.025Z</time></trkpt><trkpt lat="43.8844545" lon="12.3929101"><ele>431.6</ele><time>2026-04-26T13:15:06.025Z</time></trkpt><trkpt lat="43.8844561" lon="12.3927812"><ele>429.4</ele><time>2026-04-26T13:15:07.031Z</time></trkpt><trkpt lat="43.8844482" lon="12.3926537"><ele>427.2</ele><time>2026-04-26T13:15:08.027Z</time></trkpt><trkpt lat="43.8844319" lon="12.3925185"><ele>425.0</ele><time>2026-04-26T13:15:09.027Z</time></trkpt><trkpt lat="43.8844132" lon="12.3923795"><ele>425.0</ele><time>2026-04-26T13:15:10.025Z</time></trkpt><trkpt lat="43.8843983" lon="12.392239"><ele>425.0</ele><time>2026-04-26T13:15:11.026Z</time></trkpt><trkpt lat="43.8843912" lon="12.3920995"><ele>425.0</ele><time>2026-04-26T13:15:12.025Z</time></trkpt><trkpt lat="43.8843886" lon="12.3919607"><ele>425.0</ele><time>2026-04-26T13:15:13.026Z</time></trkpt><trkpt lat="43.8843902" lon="12.3918179"><ele>425.0</ele><time>2026-04-26T13:15:14.026Z</time></trkpt><trkpt lat="43.8843916" lon="12.391668"><ele>424.4</ele><time>2026-04-26T13:15:15.026Z</time></trkpt><trkpt lat="43.8843891" lon="12.3915105"><ele>423.8</ele><time>2026-04-26T13:15:16.025Z</time></trkpt><trkpt lat="43.8843839" lon="12.3913491"><ele>423.20000000000005</ele><time>2026-04-26T13:15:17.024Z</time></trkpt><trkpt lat="43.8843711" lon="12.3912039"><ele>422.6</ele><time>2026-04-26T13:15:18.029Z</time></trkpt><trkpt lat="43.884352" lon="12.3910673"><ele>422.0</ele><time>2026-04-26T13:15:19.026Z</time></trkpt><trkpt lat="43.8843287" lon="12.3909378"><ele>421.99999999999994</ele><time>2026-04-26T13:15:20.026Z</time></trkpt><trkpt lat="43.884301" lon="12.3908184"><ele>422.0</ele><time>2026-04-26T13:15:21.027Z</time></trkpt><trkpt lat="43.8842698" lon="12.3907053"><ele>422.0</ele><time>2026-04-26T13:15:22.025Z</time></trkpt><trkpt lat="43.884236" lon="12.3905929"><ele>422.0</ele><time>2026-04-26T13:15:23.029Z</time></trkpt><trkpt lat="43.8841996" lon="12.3904791"><ele>421.99999999999994</ele><time>2026-04-26T13:15:24.027Z</time></trkpt><trkpt lat="43.8841627" lon="12.3903626"><ele>422.0</ele><time>2026-04-26T13:15:25.026Z</time></trkpt><trkpt lat="43.8841321" lon="12.3902417"><ele>422.0</ele><time>2026-04-26T13:15:26.026Z</time></trkpt><trkpt lat="43.8841039" lon="12.3901172"><ele>422.0</ele><time>2026-04-26T13:15:27.026Z</time></trkpt><trkpt lat="43.8840784" lon="12.3899852"><ele>422.0</ele><time>2026-04-26T13:15:28.03Z</time></trkpt><trkpt lat="43.8840488" lon="12.3898568"><ele>422.0</ele><time>2026-04-26T13:15:29.026Z</time></trkpt><trkpt lat="43.8840158" lon="12.3897316"><ele>422.0</ele><time>2026-04-26T13:15:30.025Z</time></trkpt><trkpt lat="43.8839794" lon="12.3896128"><ele>419.66666666666663</ele><time>2026-04-26T13:15:31.026Z</time></trkpt><trkpt lat="43.8839451" lon="12.3894988"><ele>417.3333333333333</ele><time>2026-04-26T13:15:32.023Z</time></trkpt><trkpt lat="43.8839142" lon="12.3893936"><ele>415.0</ele><time>2026-04-26T13:15:33.024Z</time></trkpt><trkpt lat="43.8838884" lon="12.3892978"><ele>412.66666666666663</ele><time>2026-04-26T13:15:34.022Z</time></trkpt><trkpt lat="43.8838646" lon="12.3892042"><ele>410.3333333333333</ele><time>2026-04-26T13:15:35.024Z</time></trkpt><trkpt lat="43.8838374" lon="12.389117"><ele>408.0</ele><time>2026-04-26T13:15:36.023Z</time></trkpt><trkpt lat="43.8838038" lon="12.3890357"><ele>408.0</ele><time>2026-04-26T13:15:37.028Z</time></trkpt><trkpt lat="43.8837178" lon="12.3889107"><ele>408.0</ele><time>2026-04-26T13:15:39.029Z</time></trkpt><trkpt lat="43.8836257" lon="12.3887976"><ele>408.0</ele><time>2026-04-26T13:15:41.023Z</time></trkpt><trkpt lat="43.8835895" lon="12.3887235"><ele>408.0</ele><time>2026-04-26T13:15:42.024Z</time></trkpt><trkpt lat="43.8835726" lon="12.3886327"><ele>408.0</ele><time>2026-04-26T13:15:43.023Z</time></trkpt><trkpt lat="43.883589" lon="12.3885259"><ele>406.3333333333333</ele><time>2026-04-26T13:15:44.029Z</time></trkpt><trkpt lat="43.8836082" lon="12.3884116"><ele>404.66666666666663</ele><time>2026-04-26T13:15:45.025Z</time></trkpt><trkpt lat="43.8836195" lon="12.388291"><ele>403.0</ele><time>2026-04-26T13:15:46.022Z</time></trkpt><trkpt lat="43.8836253" lon="12.3881645"><ele>401.3333333333333</ele><time>2026-04-26T13:15:47.024Z</time></trkpt><trkpt lat="43.8836104" lon="12.3880431"><ele>399.66666666666663</ele><time>2026-04-26T13:15:48.024Z</time></trkpt><trkpt lat="43.883569" lon="12.3879262"><ele>398.0</ele><time>2026-04-26T13:15:49.025Z</time></trkpt><trkpt lat="43.8835274" lon="12.3878162"><ele>397.99999999999994</ele><time>2026-04-26T13:15:50.024Z</time></trkpt><trkpt lat="43.8835053" lon="12.3877115"><ele>398.0</ele><time>2026-04-26T13:15:51.029Z</time></trkpt><trkpt lat="43.8835034" lon="12.3876199"><ele>398.0</ele><time>2026-04-26T13:15:52.023Z</time></trkpt><trkpt lat="43.8835634" lon="12.3874795"><ele>398.0</ele><time>2026-04-26T13:15:54.023Z</time></trkpt><trkpt lat="43.8836216" lon="12.3874372"><ele>397.99999999999994</ele><time>2026-04-26T13:15:55.106Z</time></trkpt><trkpt lat="43.8836774" lon="12.3873964"><ele>398.0</ele><time>2026-04-26T13:15:56.025Z</time></trkpt><trkpt lat="43.8837369" lon="12.3873563"><ele>398.0</ele><time>2026-04-26T13:15:57.026Z</time></trkpt><trkpt lat="43.8838216" lon="12.3872602"><ele>398.0</ele><time>2026-04-26T13:15:59.023Z</time></trkpt><trkpt lat="43.8838313" lon="12.3871433"><ele>398.0</ele><time>2026-04-26T13:16:01.023Z</time></trkpt><trkpt lat="43.88376" lon="12.3870421"><ele>398.0</ele><time>2026-04-26T13:16:03.026Z</time></trkpt><trkpt lat="43.883652" lon="12.3869823"><ele>398.0</ele><time>2026-04-26T13:16:05.022Z</time></trkpt><trkpt lat="43.8835383" lon="12.3869103"><ele>399.99999999999994</ele><time>2026-04-26T13:16:07.027Z</time></trkpt><trkpt lat="43.8834796" lon="12.3868565"><ele>402.0</ele><time>2026-04-26T13:16:08.028Z</time></trkpt><trkpt lat="43.8834178" lon="12.3867934"><ele>404.0</ele><time>2026-04-26T13:16:09.025Z</time></trkpt><trkpt lat="43.8833521" lon="12.3867279"><ele>406.0</ele><time>2026-04-26T13:16:10.028Z</time></trkpt><trkpt lat="43.8832879" lon="12.386657"><ele>407.99999999999994</ele><time>2026-04-26T13:16:11.024Z</time></trkpt><trkpt lat="43.8832252" lon="12.3865831"><ele>410.0</ele><time>2026-04-26T13:16:12.024Z</time></trkpt><trkpt lat="43.8831623" lon="12.3865033"><ele>410.0</ele><time>2026-04-26T13:16:13.025Z</time></trkpt><trkpt lat="43.8830967" lon="12.3864181"><ele>410.0</ele><time>2026-04-26T13:16:14.022Z</time></trkpt><trkpt lat="43.8830281" lon="12.3863199"><ele>410.0</ele><time>2026-04-26T13:16:15.028Z</time></trkpt><trkpt lat="43.8829564" lon="12.3862187"><ele>410.0</ele><time>2026-04-26T13:16:16.024Z</time></trkpt><trkpt lat="43.882879" lon="12.3861234"><ele>410.0</ele><time>2026-04-26T13:16:17.025Z</time></trkpt><trkpt lat="43.8828059" lon="12.3860396"><ele>412.0</ele><time>2026-04-26T13:16:18.026Z</time></trkpt><trkpt lat="43.8827294" lon="12.3859592"><ele>414.0</ele><time>2026-04-26T13:16:19.024Z</time></trkpt><trkpt lat="43.8826478" lon="12.385869"><ele>416.0</ele><time>2026-04-26T13:16:20.028Z</time></trkpt><trkpt lat="43.8825744" lon="12.385771"><ele>418.0</ele><time>2026-04-26T13:16:21.024Z</time></trkpt><trkpt lat="43.8825138" lon="12.38566"><ele>420.0</ele><time>2026-04-26T13:16:22.031Z</time></trkpt><trkpt lat="43.8824674" lon="12.3855334"><ele>421.8</ele><time>2026-04-26T13:16:23.024Z</time></trkpt><trkpt lat="43.8824249" lon="12.3853965"><ele>423.6</ele><time>2026-04-26T13:16:24.025Z</time></trkpt><trkpt lat="43.8823836" lon="12.3852542"><ele>425.4</ele><time>2026-04-26T13:16:25.024Z</time></trkpt><trkpt lat="43.882343" lon="12.3851132"><ele>427.2</ele><time>2026-04-26T13:16:26.029Z</time></trkpt><trkpt lat="43.8823109" lon="12.3849861"><ele>429.0</ele><time>2026-04-26T13:16:27.023Z</time></trkpt><trkpt lat="43.8822872" lon="12.3848666"><ele>429.0</ele><time>2026-04-26T13:16:28.023Z</time></trkpt><trkpt lat="43.8822729" lon="12.3847462"><ele>429.0</ele><time>2026-04-26T13:16:29.026Z</time></trkpt><trkpt lat="43.8822754" lon="12.3846214"><ele>429.0</ele><time>2026-04-26T13:16:30.024Z</time></trkpt><trkpt lat="43.8822985" lon="12.3844866"><ele>429.0</ele><time>2026-04-26T13:16:31.023Z</time></trkpt><trkpt lat="43.8823009" lon="12.3842439"><ele>430.2</ele><time>2026-04-26T13:16:32.851Z</time></trkpt><trkpt lat="43.8824171" lon="12.3841579"><ele>431.4</ele><time>2026-04-26T13:16:34.058Z</time></trkpt><trkpt lat="43.882492" lon="12.3840189"><ele>432.6</ele><time>2026-04-26T13:16:36.028Z</time></trkpt><trkpt lat="43.8825615" lon="12.3840199"><ele>433.8</ele><time>2026-04-26T13:16:38.023Z</time></trkpt><trkpt lat="43.882667" lon="12.3840716"><ele>435.0</ele><time>2026-04-26T13:16:40.025Z</time></trkpt><trkpt lat="43.8827312" lon="12.3841008"><ele>437.6</ele><time>2026-04-26T13:16:41.027Z</time></trkpt><trkpt lat="43.88281" lon="12.3841428"><ele>440.2</ele><time>2026-04-26T13:16:42.025Z</time></trkpt><trkpt lat="43.8828991" lon="12.3841971"><ele>442.79999999999995</ele><time>2026-04-26T13:16:43.026Z</time></trkpt><trkpt lat="43.8829984" lon="12.3842604"><ele>445.4</ele><time>2026-04-26T13:16:44.026Z</time></trkpt><trkpt lat="43.8831069" lon="12.3843288"><ele>448.0</ele><time>2026-04-26T13:16:45.028Z</time></trkpt><trkpt lat="43.8832246" lon="12.3844045"><ele>448.0</ele><time>2026-04-26T13:16:46.024Z</time></trkpt><trkpt lat="43.8833348" lon="12.3844738"><ele>447.99999999999994</ele><time>2026-04-26T13:16:47.026Z</time></trkpt><trkpt lat="43.883431" lon="12.3845236"><ele>447.99999999999994</ele><time>2026-04-26T13:16:48.023Z</time></trkpt><trkpt lat="43.8835173" lon="12.3845513"><ele>448.0</ele><time>2026-04-26T13:16:49.026Z</time></trkpt><trkpt lat="43.8836075" lon="12.3845606"><ele>448.0</ele><time>2026-04-26T13:16:50.024Z</time></trkpt><trkpt lat="43.8836961" lon="12.3845512"><ele>450.25</ele><time>2026-04-26T13:16:51.03Z</time></trkpt><trkpt lat="43.883789" lon="12.3845211"><ele>452.5</ele><time>2026-04-26T13:16:52.024Z</time></trkpt><trkpt lat="43.8838974" lon="12.3844635"><ele>454.75</ele><time>2026-04-26T13:16:53.024Z</time></trkpt><trkpt lat="43.8840072" lon="12.3843956"><ele>457.0</ele><time>2026-04-26T13:16:54.027Z</time></trkpt><trkpt lat="43.8841186" lon="12.3843268"><ele>457.0</ele><time>2026-04-26T13:16:55.024Z</time></trkpt><trkpt lat="43.8842312" lon="12.384257"><ele>457.0</ele><time>2026-04-26T13:16:56.031Z</time></trkpt><trkpt lat="43.8843418" lon="12.3841899"><ele>457.0</ele><time>2026-04-26T13:16:57.025Z</time></trkpt><trkpt lat="43.877175" lon="12.3994733"><ele>449.33333333333337</ele><time>2026-04-26T13:04:23.025Z</time></trkpt><trkpt lat="43.8772583" lon="12.3994633"><ele>441.6666666666667</ele><time>2026-04-26T13:04:24.024Z</time></trkpt><trkpt lat="43.8773367" lon="12.39947"><ele>434.0</ele><time>2026-04-26T13:04:25.028Z</time></trkpt><trkpt lat="43.8774133" lon="12.3994983"><ele>426.33333333333337</ele><time>2026-04-26T13:04:26.025Z</time></trkpt><trkpt lat="43.87747" lon="12.3995417"><ele>418.6666666666667</ele><time>2026-04-26T13:04:27.028Z</time></trkpt><trkpt lat="43.877535" lon="12.399665"><ele>411.0</ele><time>2026-04-26T13:04:29.023Z</time></trkpt><trkpt lat="43.8775533" lon="12.3998217"><ele>408.8</ele><time>2026-04-26T13:04:31.025Z</time></trkpt><trkpt lat="43.877545" lon="12.3999083"><ele>406.6</ele><time>2026-04-26T13:04:32.028Z</time></trkpt><trkpt lat="43.8775117" lon="12.400055"><ele>404.4</ele><time>2026-04-26T13:04:34.027Z</time></trkpt><trkpt lat="43.87748" lon="12.4001783"><ele>402.2</ele><time>2026-04-26T13:04:36.026Z</time></trkpt><trkpt lat="43.8774633" lon="12.4003167"><ele>400.0</ele><time>2026-04-26T13:04:38.023Z</time></trkpt><trkpt lat="43.877485" lon="12.40048"><ele>398.33333333333337</ele><time>2026-04-26T13:04:40.028Z</time></trkpt><trkpt lat="43.877515" lon="12.4005667"><ele>396.6666666666667</ele><time>2026-04-26T13:04:41.026Z</time></trkpt><trkpt lat="43.8775567" lon="12.4006583"><ele>395.0</ele><time>2026-04-26T13:04:42.027Z</time></trkpt><trkpt lat="43.8776083" lon="12.4007583"><ele>393.33333333333337</ele><time>2026-04-26T13:04:43.023Z</time></trkpt><trkpt lat="43.8776633" lon="12.4008633"><ele>391.6666666666667</ele><time>2026-04-26T13:04:44.031Z</time></trkpt><trkpt lat="43.87773" lon="12.400965"><ele>390.0</ele><time>2026-04-26T13:04:45.025Z</time></trkpt><trkpt lat="43.8777967" lon="12.4010667"><ele>388.4</ele><time>2026-04-26T13:04:46.026Z</time></trkpt><trkpt lat="43.877865" lon="12.4011717"><ele>386.8</ele><time>2026-04-26T13:04:47.023Z</time></trkpt><trkpt lat="43.8779417" lon="12.4012817"><ele>385.20000000000005</ele><time>2026-04-26T13:04:48.023Z</time></trkpt><trkpt lat="43.87802" lon="12.401395"><ele>383.6</ele><time>2026-04-26T13:04:49.035Z</time></trkpt><trkpt lat="43.8780967" lon="12.4015083"><ele>382.0</ele><time>2026-04-26T13:04:50.024Z</time></trkpt><trkpt lat="43.878175" lon="12.4016183"><ele>381.8</ele><time>2026-04-26T13:04:51.024Z</time></trkpt><trkpt lat="43.87826" lon="12.4017217"><ele>381.6</ele><time>2026-04-26T13:04:52.023Z</time></trkpt><trkpt lat="43.87835" lon="12.4018083"><ele>381.40000000000003</ele><time>2026-04-26T13:04:53.025Z</time></trkpt><trkpt lat="43.8784433" lon="12.4018567"><ele>381.20000000000005</ele><time>2026-04-26T13:04:54.025Z</time></trkpt><trkpt lat="43.8785417" lon="12.4018783"><ele>381.0</ele><time>2026-04-26T13:04:55.022Z</time></trkpt><trkpt lat="43.878645" lon="12.4018883"><ele>380.5</ele><time>2026-04-26T13:04:56.028Z</time></trkpt><trkpt lat="43.87874" lon="12.4019133"><ele>380.0</ele><time>2026-04-26T13:04:57.025Z</time></trkpt><trkpt lat="43.8788183" lon="12.4019583"><ele>379.5</ele><time>2026-04-26T13:04:58.025Z</time></trkpt><trkpt lat="43.8788883" lon="12.4020233"><ele>379.0</ele><time>2026-04-26T13:04:59.023Z</time></trkpt><trkpt lat="43.8789567" lon="12.4021033"><ele>378.5</ele><time>2026-04-26T13:05:00.023Z</time></trkpt><trkpt lat="43.87902" lon="12.4021917"><ele>378.0</ele><time>2026-04-26T13:05:01.031Z</time></trkpt><trkpt lat="43.8790717" lon="12.402285"><ele>380.59999999999997</ele><time>2026-04-26T13:05:02.024Z</time></trkpt><trkpt lat="43.87912" lon="12.402385"><ele>383.2</ele><time>2026-04-26T13:05:03.027Z</time></trkpt><trkpt lat="43.87917" lon="12.4024883"><ele>385.8</ele><time>2026-04-26T13:05:04.025Z</time></trkpt><trkpt lat="43.8792183" lon="12.4025967"><ele>388.4</ele><time>2026-04-26T13:05:05.024Z</time></trkpt><trkpt lat="43.8792667" lon="12.402715"><ele>391.0</ele><time>2026-04-26T13:05:06.027Z</time></trkpt><trkpt lat="43.8793167" lon="12.4028367"><ele>391.0</ele><time>2026-04-26T13:05:07.025Z</time></trkpt><trkpt lat="43.8793667" lon="12.40295"><ele>391.0</ele><time>2026-04-26T13:05:08.025Z</time></trkpt><trkpt lat="43.8794183" lon="12.40307"><ele>391.0</ele><time>2026-04-26T13:05:09.026Z</time></trkpt><trkpt lat="43.8794767" lon="12.4032033"><ele>391.0</ele><time>2026-04-26T13:05:10.027Z</time></trkpt><trkpt lat="43.8795317" lon="12.4033467"><ele>391.0</ele><time>2026-04-26T13:05:11.024Z</time></trkpt><trkpt lat="43.8795867" lon="12.4034917"><ele>393.4</ele><time>2026-04-26T13:05:12.027Z</time></trkpt><trkpt lat="43.87964" lon="12.4036267"><ele>395.8</ele><time>2026-04-26T13:05:13.025Z</time></trkpt><trkpt lat="43.87969" lon="12.4037317"><ele>398.2</ele><time>2026-04-26T13:05:14.03Z</time></trkpt><trkpt lat="43.8797467" lon="12.40382"><ele>400.59999999999997</ele><time>2026-04-26T13:05:15.026Z</time></trkpt><trkpt lat="43.87981" lon="12.4038917"><ele>403.0</ele><time>2026-04-26T13:05:16.026Z</time></trkpt><trkpt lat="43.8798833" lon="12.40396"><ele>405.2</ele><time>2026-04-26T13:05:17.026Z</time></trkpt><trkpt lat="43.87997" lon="12.40402"><ele>407.4</ele><time>2026-04-26T13:05:18.026Z</time></trkpt><trkpt lat="43.8800733" lon="12.4040717"><ele>409.59999999999997</ele><time>2026-04-26T13:05:19.024Z</time></trkpt><trkpt lat="43.8801883" lon="12.4041083"><ele>411.79999999999995</ele><time>2026-04-26T13:05:20.024Z</time></trkpt><trkpt lat="43.88031" lon="12.4041133"><ele>414.0</ele><time>2026-04-26T13:05:21.029Z</time></trkpt><trkpt lat="43.8804183" lon="12.4041083"><ele>414.0</ele><time>2026-04-26T13:05:22.115Z</time></trkpt><trkpt lat="43.88052" lon="12.4041"><ele>414.0</ele><time>2026-04-26T13:05:23.023Z</time></trkpt><trkpt lat="43.8806117" lon="12.4041017"><ele>414.0</ele><time>2026-04-26T13:05:24.031Z</time></trkpt><trkpt lat="43.8807017" lon="12.404105"><ele>414.0</ele><time>2026-04-26T13:05:25.025Z</time></trkpt><trkpt lat="43.8807967" lon="12.4041117"><ele>414.0</ele><time>2026-04-26T13:05:26.024Z</time></trkpt><trkpt lat="43.8808922" lon="12.4041159"><ele>413.4</ele><time>2026-04-26T13:05:27.024Z</time></trkpt><trkpt lat="43.880986" lon="12.4041296"><ele>412.79999999999995</ele><time>2026-04-26T13:05:28.025Z</time></trkpt><trkpt lat="43.8810768" lon="12.4041632"><ele>412.20000000000005</ele><time>2026-04-26T13:05:29.023Z</time></trkpt><trkpt lat="43.8811696" lon="12.4042176"><ele>411.6</ele><time>2026-04-26T13:05:30.025Z</time></trkpt><trkpt lat="43.8812593" lon="12.4042881"><ele>411.0</ele><time>2026-04-26T13:05:31.025Z</time></trkpt><trkpt lat="43.8813454" lon="12.4043666"><ele>411.0</ele><time>2026-04-26T13:05:32.024Z</time></trkpt><trkpt lat="43.8814281" lon="12.4044505"><ele>411.0</ele><time>2026-04-26T13:05:33.024Z</time></trkpt><trkpt lat="43.8815134" lon="12.4045354"><ele>411.0</ele><time>2026-04-26T13:05:34.023Z</time></trkpt><trkpt lat="43.8816016" lon="12.4046086"><ele>411.0</ele><time>2026-04-26T13:05:35.023Z</time></trkpt><trkpt lat="43.8816913" lon="12.4046667"><ele>411.0</ele><time>2026-04-26T13:05:36.023Z</time></trkpt><trkpt lat="43.8817825" lon="12.4047124"><ele>409.0</ele><time>2026-04-26T13:05:37.024Z</time></trkpt><trkpt lat="43.8818667" lon="12.4047511"><ele>407.0</ele><time>2026-04-26T13:05:38.024Z</time></trkpt><trkpt lat="43.8819425" lon="12.4047955"><ele>405.0</ele><time>2026-04-26T13:05:39.027Z</time></trkpt><trkpt lat="43.8820096" lon="12.4048462"><ele>403.0</ele><time>2026-04-26T13:05:40.023Z</time></trkpt><trkpt lat="43.8820645" lon="12.4049175"><ele>401.0</ele><time>2026-04-26T13:05:41.027Z</time></trkpt><trkpt lat="43.8821059" lon="12.4050099"><ele>399.0</ele><time>2026-04-26T13:05:42.023Z</time></trkpt><trkpt lat="43.8821278" lon="12.4051346"><ele>399.0</ele><time>2026-04-26T13:05:43.023Z</time></trkpt><trkpt lat="43.8821301" lon="12.4052809"><ele>399.0</ele><time>2026-04-26T13:05:44.023Z</time></trkpt><trkpt lat="43.882128" lon="12.4054282"><ele>399.0</ele><time>2026-04-26T13:05:45.024Z</time></trkpt><trkpt lat="43.8821308" lon="12.4055732"><ele>399.0</ele><time>2026-04-26T13:05:46.026Z</time></trkpt><trkpt lat="43.8821377" lon="12.4057156"><ele>399.0</ele><time>2026-04-26T13:05:47.023Z</time></trkpt><trkpt lat="43.8821551" lon="12.4058486"><ele>398.25</ele><time>2026-04-26T13:05:48.024Z</time></trkpt><trkpt lat="43.8821947" lon="12.4059809"><ele>397.5</ele><time>2026-04-26T13:05:49.024Z</time></trkpt><trkpt lat="43.8822617" lon="12.4061227"><ele>396.75</ele><time>2026-04-26T13:05:50.024Z</time></trkpt><trkpt lat="43.8823534" lon="12.4062671"><ele>396.0</ele><time>2026-04-26T13:05:51.023Z</time></trkpt><trkpt lat="43.8824485" lon="12.4064029"><ele>395.75</ele><time>2026-04-26T13:05:52.022Z</time></trkpt><trkpt lat="43.8825404" lon="12.4065282"><ele>395.5</ele><time>2026-04-26T13:05:53.023Z</time></trkpt><trkpt lat="43.8826365" lon="12.4066478"><ele>395.25</ele><time>2026-04-26T13:05:54.023Z</time></trkpt><trkpt lat="43.8827388" lon="12.4067577"><ele>395.0</ele><time>2026-04-26T13:05:55.028Z</time></trkpt><trkpt lat="43.8828319" lon="12.4068461"><ele>393.8</ele><time>2026-04-26T13:05:56.024Z</time></trkpt><trkpt lat="43.8828984" lon="12.4069108"><ele>392.6</ele><time>2026-04-26T13:05:57.026Z</time></trkpt><trkpt lat="43.8829805" lon="12.4070246"><ele>391.4</ele><time>2026-04-26T13:05:59.024Z</time></trkpt><trkpt lat="43.8830054" lon="12.407141"><ele>390.2</ele><time>2026-04-26T13:06:01.024Z</time></trkpt><trkpt lat="43.8829506" lon="12.4072969"><ele>389.0</ele><time>2026-04-26T13:06:03.026Z</time></trkpt><trkpt lat="43.8829034" lon="12.4074009"><ele>389.0</ele><time>2026-04-26T13:06:04.025Z</time></trkpt><trkpt lat="43.882861" lon="12.4075149"><ele>389.0</ele><time>2026-04-26T13:06:05.023Z</time></trkpt><trkpt lat="43.8828296" lon="12.4076398"><ele>389.0</ele><time>2026-04-26T13:06:06.023Z</time></trkpt><trkpt lat="43.8828209" lon="12.4077838"><ele>389.0</ele><time>2026-04-26T13:06:07.024Z</time></trkpt><trkpt lat="43.8828208" lon="12.4079409"><ele>389.0</ele><time>2026-04-26T13:06:08.026Z</time></trkpt><trkpt lat="43.8828053" lon="12.4080946"><ele>391.4</ele><time>2026-04-26T13:06:09.03Z</time></trkpt><trkpt lat="43.8827662" lon="12.4082308"><ele>393.79999999999995</ele><time>2026-04-26T13:06:10.023Z</time></trkpt><trkpt lat="43.8827109" lon="12.4083422"><ele>396.20000000000005</ele><time>2026-04-26T13:06:11.024Z</time></trkpt><trkpt lat="43.882648" lon="12.4084327"><ele>398.6</ele><time>2026-04-26T13:06:12.024Z</time></trkpt><trkpt lat="43.882581" lon="12.4085001"><ele>401.0</ele><time>2026-04-26T13:06:13.025Z</time></trkpt><trkpt lat="43.8825157" lon="12.4085547"><ele>401.16666666666663</ele><time>2026-04-26T13:06:14.024Z</time></trkpt><trkpt lat="43.8824596" lon="12.4086147"><ele>401.3333333333333</ele><time>2026-04-26T13:06:15.028Z</time></trkpt><trkpt lat="43.8824135" lon="12.4086839"><ele>401.5</ele><time>2026-04-26T13:06:16.026Z</time></trkpt><trkpt lat="43.8823688" lon="12.4088099"><ele>401.66666666666663</ele><time>2026-04-26T13:06:18.024Z</time></trkpt><trkpt lat="43.8824244" lon="12.4088566"><ele>401.8333333333333</ele><time>2026-04-26T13:06:19.023Z</time></trkpt><trkpt lat="43.8824952" lon="12.4088856"><ele>402.0</ele><time>2026-04-26T13:06:20.025Z</time></trkpt><trkpt lat="43.8825901" lon="12.4088972"><ele>404.6</ele><time>2026-04-26T13:06:21.03Z</time></trkpt><trkpt lat="43.8826896" lon="12.4089006"><ele>407.20000000000005</ele><time>2026-04-26T13:06:22.023Z</time></trkpt><trkpt lat="43.8827962" lon="12.4089059"><ele>409.8</ele><time>2026-04-26T13:06:23.028Z</time></trkpt><trkpt lat="43.8829055" lon="12.4089133"><ele>412.4</ele><time>2026-04-26T13:06:24.025Z</time></trkpt><trkpt lat="43.8830202" lon="12.4089222"><ele>415.0</ele><time>2026-04-26T13:06:25.027Z</time></trkpt><trkpt lat="43.883133" lon="12.4089308"><ele>415.0</ele><time>2026-04-26T13:06:26.024Z</time></trkpt><trkpt lat="43.8832462" lon="12.4089443"><ele>415.0</ele><time>2026-04-26T13:06:27.025Z</time></trkpt><trkpt lat="43.8833624" lon="12.4089638"><ele>415.0</ele><time>2026-04-26T13:06:28.023Z</time></trkpt><trkpt lat="43.8834803" lon="12.4089942"><ele>415.0</ele><time>2026-04-26T13:06:29.026Z</time></trkpt><trkpt lat="43.8835949" lon="12.4090424"><ele>416.5</ele><time>2026-04-26T13:06:30.024Z</time></trkpt><trkpt lat="43.883707" lon="12.4091018"><ele>418.0</ele><time>2026-04-26T13:06:31.026Z</time></trkpt><trkpt lat="43.8838143" lon="12.409163"><ele>419.5</ele><time>2026-04-26T13:06:32.023Z</time></trkpt><trkpt lat="43.8839221" lon="12.4092236"><ele>421.0</ele><time>2026-04-26T13:06:33.025Z</time></trkpt><trkpt lat="43.88403" lon="12.40928"><ele>421.0</ele><time>2026-04-26T13:06:34.025Z</time></trkpt><trkpt lat="43.8841367" lon="12.4093383"><ele>421.0</ele><time>2026-04-26T13:06:35.024Z</time></trkpt><trkpt lat="43.8842467" lon="12.4093917"><ele>421.0</ele><time>2026-04-26T13:06:36.022Z</time></trkpt><trkpt lat="43.8843583" lon="12.4094417"><ele>421.0</ele><time>2026-04-26T13:06:37.024Z</time></trkpt><trkpt lat="43.8844733" lon="12.40949"><ele>420.8</ele><time>2026-04-26T13:06:38.022Z</time></trkpt><trkpt lat="43.8845783" lon="12.4095483"><ele>420.6</ele><time>2026-04-26T13:06:39.025Z</time></trkpt><trkpt lat="43.884665" lon="12.4096233"><ele>420.4</ele><time>2026-04-26T13:06:40.025Z</time></trkpt><trkpt lat="43.8847317" lon="12.4097217"><ele>420.2</ele><time>2026-04-26T13:06:41.024Z</time></trkpt><trkpt lat="43.884775" lon="12.4098417"><ele>420.0</ele><time>2026-04-26T13:06:42.022Z</time></trkpt><trkpt lat="43.884795" lon="12.4099767"><ele>423.0</ele><time>2026-04-26T13:06:43.028Z</time></trkpt><trkpt lat="43.88478" lon="12.41013"><ele>426.0</ele><time>2026-04-26T13:06:44.026Z</time></trkpt><trkpt lat="43.88474" lon="12.4102833"><ele>429.0</ele><time>2026-04-26T13:06:45.027Z</time></trkpt><trkpt lat="43.884695" lon="12.41043"><ele>432.0</ele><time>2026-04-26T13:06:46.022Z</time></trkpt><trkpt lat="43.8846667" lon="12.410575"><ele>433.75</ele><time>2026-04-26T13:06:47.023Z</time></trkpt><trkpt lat="43.8846633" lon="12.4107317"><ele>435.5</ele><time>2026-04-26T13:06:48.024Z</time></trkpt><trkpt lat="43.884695" lon="12.410885"><ele>437.25</ele><time>2026-04-26T13:06:49.024Z</time></trkpt><trkpt lat="43.88475" lon="12.411035"><ele>439.0</ele><time>2026-04-26T13:06:50.028Z</time></trkpt><trkpt lat="43.8848083" lon="12.4111933"><ele>441.0</ele><time>2026-04-26T13:06:51.022Z</time></trkpt><trkpt lat="43.8848433" lon="12.4113467"><ele>443.0</ele><time>2026-04-26T13:06:52.023Z</time></trkpt><trkpt lat="43.88488" lon="12.4114833"><ele>445.0</ele><time>2026-04-26T13:06:53.022Z</time></trkpt><trkpt lat="43.8849133" lon="12.4115983"><ele>447.0</ele><time>2026-04-26T13:06:54.024Z</time></trkpt><trkpt lat="43.8849483" lon="12.411695"><ele>449.0</ele><time>2026-04-26T13:06:55.026Z</time></trkpt><trkpt lat="43.8849883" lon="12.411775"><ele>449.0</ele><time>2026-04-26T13:06:56.024Z</time></trkpt><trkpt lat="43.885035" lon="12.41186"><ele>449.0</ele><time>2026-04-26T13:06:57.03Z</time></trkpt><trkpt lat="43.885095" lon="12.41196"><ele>449.0</ele><time>2026-04-26T13:06:58.023Z</time></trkpt><trkpt lat="43.885175" lon="12.4120767"><ele>449.0</ele><time>2026-04-26T13:06:59.026Z</time></trkpt><trkpt lat="43.885255" lon="12.4121983"><ele>449.0</ele><time>2026-04-26T13:07:00.024Z</time></trkpt><trkpt lat="43.8853317" lon="12.41231"><ele>449.16666666666663</ele><time>2026-04-26T13:07:01.024Z</time></trkpt><trkpt lat="43.8854033" lon="12.4124133"><ele>449.3333333333333</ele><time>2026-04-26T13:07:02.023Z</time></trkpt><trkpt lat="43.885465" lon="12.4125033"><ele>449.5</ele><time>2026-04-26T13:07:03.024Z</time></trkpt><trkpt lat="43.8855183" lon="12.412585"><ele>449.66666666666663</ele><time>2026-04-26T13:07:04.025Z</time></trkpt><trkpt lat="43.88557" lon="12.41266"><ele>449.8333333333333</ele><time>2026-04-26T13:07:05.025Z</time></trkpt><trkpt lat="43.885615" lon="12.4127417"><ele>450.0</ele><time>2026-04-26T13:07:06.024Z</time></trkpt><trkpt lat="43.8856683" lon="12.4128417"><ele>450.0</ele><time>2026-04-26T13:07:07.025Z</time></trkpt><trkpt lat="43.885725" lon="12.4129467"><ele>450.0</ele><time>2026-04-26T13:07:08.024Z</time></trkpt><trkpt lat="43.8858267" lon="12.4130733"><ele>450.0</ele><time>2026-04-26T13:07:09.024Z</time></trkpt><trkpt lat="43.8859283" lon="12.4131883"><ele>450.0</ele><time>2026-04-26T13:07:10.025Z</time></trkpt><trkpt lat="43.8860317" lon="12.4132917"><ele>449.75</ele><time>2026-04-26T13:07:11.023Z</time></trkpt><trkpt lat="43.8861283" lon="12.4133767"><ele>449.5</ele><time>2026-04-26T13:07:12.023Z</time></trkpt><trkpt lat="43.8862367" lon="12.4134667"><ele>449.25</ele><time>2026-04-26T13:07:13.029Z</time></trkpt><trkpt lat="43.886355" lon="12.413565"><ele>449.0</ele><time>2026-04-26T13:07:14.023Z</time></trkpt><trkpt lat="43.886475" lon="12.4136783"><ele>449.0</ele><time>2026-04-26T13:07:15.022Z</time></trkpt><trkpt lat="43.8865933" lon="12.4138067"><ele>449.0</ele><time>2026-04-26T13:07:16.023Z</time></trkpt><trkpt lat="43.8867083" lon="12.4139317"><ele>449.0</ele><time>2026-04-26T13:07:17.024Z</time></trkpt><trkpt lat="43.8868183" lon="12.4140417"><ele>449.0</ele><time>2026-04-26T13:07:18.022Z</time></trkpt><trkpt lat="43.8869167" lon="12.414135"><ele>450.79999999999995</ele><time>2026-04-26T13:07:19.023Z</time></trkpt><trkpt lat="43.8870033" lon="12.414225"><ele>452.59999999999997</ele><time>2026-04-26T13:07:20.025Z</time></trkpt><trkpt lat="43.8870883" lon="12.41432"><ele>454.4</ele><time>2026-04-26T13:07:21.025Z</time></trkpt><trkpt lat="43.8871617" lon="12.4144167"><ele>456.2</ele><time>2026-04-26T13:07:22.029Z</time></trkpt><trkpt lat="43.88723" lon="12.4145233"><ele>458.0</ele><time>2026-04-26T13:07:23.023Z</time></trkpt><trkpt lat="43.8873083" lon="12.4146267"><ele>459.59999999999997</ele><time>2026-04-26T13:07:24.028Z</time></trkpt><trkpt lat="43.887395" lon="12.414705"><ele>461.19999999999993</ele><time>2026-04-26T13:07:25.023Z</time></trkpt><trkpt lat="43.8874983" lon="12.4147583"><ele>462.8</ele><time>2026-04-26T13:07:26.027Z</time></trkpt><trkpt lat="43.8876033" lon="12.4148"><ele>464.4</ele><time>2026-04-26T13:07:27.025Z</time></trkpt><trkpt lat="43.8877033" lon="12.4148583"><ele>466.0</ele><time>2026-04-26T13:07:28.024Z</time></trkpt><trkpt lat="43.8877933" lon="12.41496"><ele>467.0</ele><time>2026-04-26T13:07:29.024Z</time></trkpt><trkpt lat="43.8878733" lon="12.41507"><ele>468.0</ele><time>2026-04-26T13:07:30.023Z</time></trkpt><trkpt lat="43.8879417" lon="12.4151683"><ele>469.0</ele><time>2026-04-26T13:07:31.024Z</time></trkpt><trkpt lat="43.888005" lon="12.41524"><ele>470.0</ele><time>2026-04-26T13:07:32.023Z</time></trkpt><trkpt lat="43.88808" lon="12.4152883"><ele>471.0</ele><time>2026-04-26T13:07:33.026Z</time></trkpt><trkpt lat="43.88817" lon="12.4153017"><ele>471.0</ele><time>2026-04-26T13:07:34.026Z</time></trkpt><trkpt lat="43.888305" lon="12.4152417"><ele>471.0</ele><time>2026-04-26T13:07:35.023Z</time></trkpt><trkpt lat="43.8884417" lon="12.4151733"><ele>471.0</ele><time>2026-04-26T13:07:36.023Z</time></trkpt><trkpt lat="43.8885933" lon="12.4151083"><ele>471.0</ele><time>2026-04-26T13:07:37.024Z</time></trkpt><trkpt lat="43.8887467" lon="12.4150517"><ele>473.75</ele><time>2026-04-26T13:07:38.023Z</time></trkpt><trkpt lat="43.8888817" lon="12.415005"><ele>476.5</ele><time>2026-04-26T13:07:39.023Z</time></trkpt><trkpt lat="43.889" lon="12.4149433"><ele>479.25</ele><time>2026-04-26T13:07:40.03Z</time></trkpt><trkpt lat="43.8891033" lon="12.41485"><ele>482.0</ele><time>2026-04-26T13:07:41.025Z</time></trkpt><trkpt lat="43.8891967" lon="12.4147233"><ele>483.0</ele><time>2026-04-26T13:07:42.024Z</time></trkpt><trkpt lat="43.8892817" lon="12.414565"><ele>484.0</ele><time>2026-04-26T13:07:43.026Z</time></trkpt><trkpt lat="43.8893667" lon="12.4143783"><ele>485.0</ele><time>2026-04-26T13:07:44.023Z</time></trkpt><trkpt lat="43.88944" lon="12.414195"><ele>485.0</ele><time>2026-04-26T13:07:45.024Z</time></trkpt><trkpt lat="43.8894983" lon="12.4140217"><ele>485.0</ele><time>2026-04-26T13:07:46.026Z</time></trkpt><trkpt lat="43.8895283" lon="12.4138667"><ele>485.0</ele><time>2026-04-26T13:07:47.026Z</time></trkpt><trkpt lat="43.8895467" lon="12.4137233"><ele>485.0</ele><time>2026-04-26T13:07:48.022Z</time></trkpt><trkpt lat="43.88957" lon="12.4135983"><ele>484.25</ele><time>2026-04-26T13:07:49.024Z</time></trkpt><trkpt lat="43.8896133" lon="12.4134767"><ele>483.5</ele><time>2026-04-26T13:07:50.025Z</time></trkpt><trkpt lat="43.8896833" lon="12.4133617"><ele>482.75</ele><time>2026-04-26T13:07:51.024Z</time></trkpt><trkpt lat="43.8897783" lon="12.4132467"><ele>482.0</ele><time>2026-04-26T13:07:52.026Z</time></trkpt><trkpt lat="43.8899" lon="12.41313"><ele>482.0</ele><time>2026-04-26T13:07:53.024Z</time></trkpt><trkpt lat="43.8900367" lon="12.4130183"><ele>482.0</ele><time>2026-04-26T13:07:54.029Z</time></trkpt><trkpt lat="43.8901767" lon="12.4128967"><ele>482.0</ele><time>2026-04-26T13:07:55.025Z</time></trkpt><trkpt lat="43.8903133" lon="12.412785"><ele>484.0</ele><time>2026-04-26T13:07:56.024Z</time></trkpt><trkpt lat="43.890435" lon="12.412685"><ele>486.00000000000006</ele><time>2026-04-26T13:07:57.025Z</time></trkpt><trkpt lat="43.890535" lon="12.4126017"><ele>488.00000000000006</ele><time>2026-04-26T13:07:58.024Z</time></trkpt><trkpt lat="43.89061" lon="12.412535"><ele>490.0</ele><time>2026-04-26T13:07:59.023Z</time></trkpt><trkpt lat="43.8906683" lon="12.4124917"><ele>492.0</ele><time>2026-04-26T13:08:00.034Z</time></trkpt><trkpt lat="43.89073" lon="12.41242"><ele>492.0</ele><time>2026-04-26T13:08:02.024Z</time></trkpt><trkpt lat="43.8907583" lon="12.412325"><ele>492.0</ele><time>2026-04-26T13:08:04.023Z</time></trkpt><trkpt lat="43.890675" lon="12.4121467"><ele>492.0</ele><time>2026-04-26T13:08:06.023Z</time></trkpt><trkpt lat="43.890595" lon="12.4119933"><ele>492.0</ele><time>2026-04-26T13:08:07.024Z</time></trkpt><trkpt lat="43.890515" lon="12.4118067"><ele>492.0</ele><time>2026-04-26T13:08:08.024Z</time></trkpt><trkpt lat="43.8904433" lon="12.4116183"><ele>492.0</ele><time>2026-04-26T13:08:09.024Z</time></trkpt><trkpt lat="43.890385" lon="12.4114433"><ele>492.0</ele><time>2026-04-26T13:08:10.024Z</time></trkpt><trkpt lat="43.89034" lon="12.4112733"><ele>492.0</ele><time>2026-04-26T13:08:11.027Z</time></trkpt><trkpt lat="43.8903017" lon="12.4111133"><ele>491.0</ele><time>2026-04-26T13:08:12.025Z</time></trkpt><trkpt lat="43.8902667" lon="12.410975"><ele>490.0</ele><time>2026-04-26T13:08:13.025Z</time></trkpt><trkpt lat="43.89024" lon="12.4108617"><ele>489.0</ele><time>2026-04-26T13:08:14.023Z</time></trkpt><trkpt lat="43.8902133" lon="12.41076"><ele>488.0</ele><time>2026-04-26T13:08:15.023Z</time></trkpt><trkpt lat="43.8901917" lon="12.4106567"><ele>487.0</ele><time>2026-04-26T13:08:16.023Z</time></trkpt><trkpt lat="43.8901783" lon="12.4105433"><ele>486.0</ele><time>2026-04-26T13:08:17.026Z</time></trkpt><trkpt lat="43.8901767" lon="12.41043"><ele>484.6666666666667</ele><time>2026-04-26T13:08:18.022Z</time></trkpt><trkpt lat="43.8901817" lon="12.4103317"><ele>483.33333333333337</ele><time>2026-04-26T13:08:19.028Z</time></trkpt><trkpt lat="43.8902083" lon="12.41018"><ele>482.0</ele><time>2026-04-26T13:08:21.025Z</time></trkpt><trkpt lat="43.89024" lon="12.4100467"><ele>480.6666666666667</ele><time>2026-04-26T13:08:23.023Z</time></trkpt><trkpt lat="43.8902533" lon="12.4099433"><ele>479.33333333333337</ele><time>2026-04-26T13:08:25.023Z</time></trkpt><trkpt lat="43.8902167" lon="12.4098633"><ele>478.0</ele><time>2026-04-26T13:08:27.024Z</time></trkpt><trkpt lat="43.8901483" lon="12.4098483"><ele>474.6666666666667</ele><time>2026-04-26T13:08:29.029Z</time></trkpt><trkpt lat="43.8900583" lon="12.4099217"><ele>471.33333333333337</ele><time>2026-04-26T13:08:31.024Z</time></trkpt><trkpt lat="43.8900083" lon="12.40999"><ele>468.0</ele><time>2026-04-26T13:08:32.023Z</time></trkpt><trkpt lat="43.8899617" lon="12.4100533"><ele>464.66666666666663</ele><time>2026-04-26T13:08:33.025Z</time></trkpt><trkpt lat="43.8898767" lon="12.4101617"><ele>461.3333333333333</ele><time>2026-04-26T13:08:35.023Z</time></trkpt><trkpt lat="43.8898133" lon="12.41024"><ele>458.0</ele><time>2026-04-26T13:08:37.023Z</time></trkpt><trkpt lat="43.8897483" lon="12.4103183"><ele>457.99999999999994</ele><time>2026-04-26T13:08:41.024Z</time></trkpt><trkpt lat="43.889795" lon="12.41024"><ele>458.0</ele><time>2026-04-26T13:09:04.025Z</time></trkpt><trkpt lat="43.8898867" lon="12.41012"><ele>458.0</ele><time>2026-04-26T13:09:06.03Z</time></trkpt><trkpt lat="43.8899417" lon="12.4100533"><ele>458.0</ele><time>2026-04-26T13:09:07.027Z</time></trkpt><trkpt lat="43.88999" lon="12.4099933"><ele>457.99999999999994</ele><time>2026-04-26T13:09:08.031Z</time></trkpt><trkpt lat="43.8900433" lon="12.4099383"><ele>458.0</ele><time>2026-04-26T13:09:09.029Z</time></trkpt><trkpt lat="43.89013" lon="12.40987"><ele>461.3333333333333</ele><time>2026-04-26T13:09:11.022Z</time></trkpt><trkpt lat="43.8901967" lon="12.40984"><ele>464.66666666666663</ele><time>2026-04-26T13:09:13.023Z</time></trkpt><trkpt lat="43.8902606" lon="12.4098683"><ele>468.0</ele><time>2026-04-26T13:09:17.026Z</time></trkpt><trkpt lat="43.890249" lon="12.4099882"><ele>471.33333333333337</ele><time>2026-04-26T13:09:22.061Z</time></trkpt><trkpt lat="43.890214" lon="12.4100818"><ele>474.6666666666667</ele><time>2026-04-26T13:09:24.078Z</time></trkpt><trkpt lat="43.8901999" lon="12.4101724"><ele>478.0</ele><time>2026-04-26T13:09:26.075Z</time></trkpt><trkpt lat="43.8901797" lon="12.4103763"><ele>479.59999999999997</ele><time>2026-04-26T13:09:28.076Z</time></trkpt><trkpt lat="43.8901983" lon="12.4105521"><ele>481.19999999999993</ele><time>2026-04-26T13:09:29.029Z</time></trkpt><trkpt lat="43.8902274" lon="12.4106875"><ele>482.8</ele><time>2026-04-26T13:09:30.022Z</time></trkpt><trkpt lat="43.8902542" lon="12.4108172"><ele>484.4</ele><time>2026-04-26T13:09:31.022Z</time></trkpt><trkpt lat="43.8902839" lon="12.410964"><ele>486.0</ele><time>2026-04-26T13:09:32.023Z</time></trkpt><trkpt lat="43.8903185" lon="12.4111267"><ele>486.0</ele><time>2026-04-26T13:09:33.025Z</time></trkpt><trkpt lat="43.8903576" lon="12.411298"><ele>486.0</ele><time>2026-04-26T13:09:34.03Z</time></trkpt><trkpt lat="43.8904041" lon="12.4114714"><ele>486.0</ele><time>2026-04-26T13:09:35.024Z</time></trkpt><trkpt lat="43.8904494" lon="12.4116369"><ele>486.0</ele><time>2026-04-26T13:09:36.03Z</time></trkpt><trkpt lat="43.8904968" lon="12.4117994"><ele>487.20000000000005</ele><time>2026-04-26T13:09:37.025Z</time></trkpt><trkpt lat="43.8905426" lon="12.4119526"><ele>488.40000000000003</ele><time>2026-04-26T13:09:38.024Z</time></trkpt><trkpt lat="43.8905831" lon="12.4120701"><ele>489.6</ele><time>2026-04-26T13:09:39.024Z</time></trkpt><trkpt lat="43.8906253" lon="12.4121637"><ele>490.8</ele><time>2026-04-26T13:09:40.022Z</time></trkpt><trkpt lat="43.8906683" lon="12.4122333"><ele>492.0</ele><time>2026-04-26T13:09:41.025Z</time></trkpt><trkpt lat="43.8907565" lon="12.4123228"><ele>492.0</ele><time>2026-04-26T13:09:43.025Z</time></trkpt><trkpt lat="43.8908195" lon="12.4123508"><ele>492.0</ele><time>2026-04-26T13:09:44.023Z</time></trkpt><trkpt lat="43.8908992" lon="12.4123775"><ele>492.0</ele><time>2026-04-26T13:09:45.029Z</time></trkpt><trkpt lat="43.8909856" lon="12.4124163"><ele>492.0</ele><time>2026-04-26T13:09:46.023Z</time></trkpt><trkpt lat="43.8910749" lon="12.4124665"><ele>492.0</ele><time>2026-04-26T13:09:47.023Z</time></trkpt><trkpt lat="43.8911654" lon="12.4125232"><ele>492.0</ele><time>2026-04-26T13:09:48.024Z</time></trkpt><trkpt lat="43.8912469" lon="12.4125836"><ele>493.6666666666667</ele><time>2026-04-26T13:09:49.022Z</time></trkpt><trkpt lat="43.8913198" lon="12.4126586"><ele>495.33333333333337</ele><time>2026-04-26T13:09:50.027Z</time></trkpt><trkpt lat="43.8913956" lon="12.4127529"><ele>497.0</ele><time>2026-04-26T13:09:51.024Z</time></trkpt><trkpt lat="43.8914608" lon="12.4128602"><ele>498.6666666666667</ele><time>2026-04-26T13:09:52.024Z</time></trkpt><trkpt lat="43.8915081" lon="12.4129569"><ele>500.33333333333337</ele><time>2026-04-26T13:09:53.025Z</time></trkpt><trkpt lat="43.8915447" lon="12.4130407"><ele>502.0</ele><time>2026-04-26T13:09:54.023Z</time></trkpt><trkpt lat="43.8916072" lon="12.4131518"><ele>502.0</ele><time>2026-04-26T13:09:56.024Z</time></trkpt><trkpt lat="43.8916792" lon="12.4131668"><ele>502.00000000000006</ele><time>2026-04-26T13:09:58.024Z</time></trkpt><trkpt lat="43.8916851" lon="12.4130493"><ele>502.00000000000006</ele><time>2026-04-26T13:10:00.026Z</time></trkpt><trkpt lat="43.8916456" lon="12.4129349"><ele>502.0</ele><time>2026-04-26T13:10:01.024Z</time></trkpt><trkpt lat="43.8915372" lon="12.4127552"><ele>502.0</ele><time>2026-04-26T13:10:02.023Z</time></trkpt><trkpt lat="43.8914162" lon="12.4125988"><ele>502.00000000000006</ele><time>2026-04-26T13:10:03.023Z</time></trkpt><trkpt lat="43.8913298" lon="12.412469"><ele>502.0</ele><time>2026-04-26T13:10:04.031Z</time></trkpt><trkpt lat="43.8912733" lon="12.4123667"><ele>502.0</ele><time>2026-04-26T13:10:05.022Z</time></trkpt><trkpt lat="43.8912383" lon="12.4122783"><ele>502.0</ele><time>2026-04-26T13:10:06.024Z</time></trkpt><trkpt lat="43.891195" lon="12.4122067"><ele>502.00000000000006</ele><time>2026-04-26T13:10:07.026Z</time></trkpt><trkpt lat="43.8911517" lon="12.4121233"><ele>502.0</ele><time>2026-04-26T13:10:08.022Z</time></trkpt><trkpt lat="43.8911183" lon="12.4120283"><ele>502.00000000000006</ele><time>2026-04-26T13:10:09.023Z</time></trkpt><trkpt lat="43.8910917" lon="12.4119183"><ele>502.0</ele><time>2026-04-26T13:10:10.024Z</time></trkpt><trkpt lat="43.8910783" lon="12.4117983"><ele>502.0</ele><time>2026-04-26T13:10:11.022Z</time></trkpt><trkpt lat="43.8910667" lon="12.4116817"><ele>502.0</ele><time>2026-04-26T13:10:12.023Z</time></trkpt><trkpt lat="43.8910733" lon="12.4115633"><ele>502.00000000000006</ele><time>2026-04-26T13:10:13.026Z</time></trkpt><trkpt lat="43.8911" lon="12.4114467"><ele>502.0</ele><time>2026-04-26T13:10:14.031Z</time></trkpt><trkpt lat="43.8911133" lon="12.4113217"><ele>500.6666666666667</ele><time>2026-04-26T13:10:15.024Z</time></trkpt><trkpt lat="43.89113" lon="12.4112133"><ele>499.33333333333337</ele><time>2026-04-26T13:10:16.025Z</time></trkpt><trkpt lat="43.89115" lon="12.4111133"><ele>498.0</ele><time>2026-04-26T13:10:17.025Z</time></trkpt><trkpt lat="43.8911767" lon="12.4110183"><ele>496.66666666666663</ele><time>2026-04-26T13:10:18.025Z</time></trkpt><trkpt lat="43.8912367" lon="12.4109533"><ele>495.3333333333333</ele><time>2026-04-26T13:10:19.025Z</time></trkpt><trkpt lat="43.891315" lon="12.4109117"><ele>494.0</ele><time>2026-04-26T13:10:20.031Z</time></trkpt><trkpt lat="43.8913933" lon="12.4108667"><ele>494.0</ele><time>2026-04-26T13:10:21.026Z</time></trkpt><trkpt lat="43.891475" lon="12.4108233"><ele>494.0</ele><time>2026-04-26T13:10:22.025Z</time></trkpt><trkpt lat="43.89154" lon="12.4107433"><ele>494.0</ele><time>2026-04-26T13:10:23.023Z</time></trkpt><trkpt lat="43.8915717" lon="12.41061"><ele>494.0</ele><time>2026-04-26T13:10:24.025Z</time></trkpt><trkpt lat="43.8916" lon="12.4104617"><ele>494.0</ele><time>2026-04-26T13:10:25.028Z</time></trkpt><trkpt lat="43.8916417" lon="12.41031"><ele>491.5</ele><time>2026-04-26T13:10:26.025Z</time></trkpt><trkpt lat="43.891665" lon="12.4101367"><ele>489.0</ele><time>2026-04-26T13:10:27.026Z</time></trkpt><trkpt lat="43.8916883" lon="12.409965"><ele>486.5</ele><time>2026-04-26T13:10:28.027Z</time></trkpt><trkpt lat="43.8917133" lon="12.40979"><ele>484.0</ele><time>2026-04-26T13:10:29.025Z</time></trkpt><trkpt lat="43.8917567" lon="12.4096317"><ele>476.25</ele><time>2026-04-26T13:10:30.028Z</time></trkpt><trkpt lat="43.891805" lon="12.40948"><ele>468.5</ele><time>2026-04-26T13:10:31.027Z</time></trkpt><trkpt lat="43.89186" lon="12.4093383"><ele>460.75</ele><time>2026-04-26T13:10:32.024Z</time></trkpt><trkpt lat="43.8918983" lon="12.4091867"><ele>453.0</ele><time>2026-04-26T13:10:33.026Z</time></trkpt><trkpt lat="43.891925" lon="12.4090317"><ele>453.0</ele><time>2026-04-26T13:10:34.028Z</time></trkpt><trkpt lat="43.8919467" lon="12.4088733"><ele>453.0</ele><time>2026-04-26T13:10:35.026Z</time></trkpt><trkpt lat="43.891965" lon="12.408705"><ele>453.0</ele><time>2026-04-26T13:10:36.031Z</time></trkpt><trkpt lat="43.8919783" lon="12.4085317"><ele>453.0</ele><time>2026-04-26T13:10:37.026Z</time></trkpt><trkpt lat="43.8919817" lon="12.408365"><ele>450.79999999999995</ele><time>2026-04-26T13:10:38.026Z</time></trkpt><trkpt lat="43.8919567" lon="12.4082067"><ele>448.59999999999997</ele><time>2026-04-26T13:10:39.027Z</time></trkpt><trkpt lat="43.8919102" lon="12.4080641"><ele>446.40000000000003</ele><time>2026-04-26T13:10:40.027Z</time></trkpt><trkpt lat="43.8918598" lon="12.4079549"><ele>444.20000000000005</ele><time>2026-04-26T13:10:41.028Z</time></trkpt><trkpt lat="43.8918071" lon="12.4078711"><ele>442.0</ele><time>2026-04-26T13:10:42.025Z</time></trkpt><trkpt lat="43.8917581" lon="12.4078052"><ele>443.6</ele><time>2026-04-26T13:10:43.026Z</time></trkpt><trkpt lat="43.8916671" lon="12.4077894"><ele>445.20000000000005</ele><time>2026-04-26T13:10:45.027Z</time></trkpt><trkpt lat="43.8915632" lon="12.4078677"><ele>446.8</ele><time>2026-04-26T13:10:47.025Z</time></trkpt><trkpt lat="43.8914945" lon="12.4079143"><ele>448.4</ele><time>2026-04-26T13:10:48.026Z</time></trkpt><trkpt lat="43.891414" lon="12.4079651"><ele>450.0</ele><time>2026-04-26T13:10:49.026Z</time></trkpt><trkpt lat="43.8913333" lon="12.4080214"><ele>450.1666666666667</ele><time>2026-04-26T13:10:50.026Z</time></trkpt><trkpt lat="43.8912514" lon="12.4080687"><ele>450.33333333333337</ele><time>2026-04-26T13:10:51.028Z</time></trkpt><trkpt lat="43.8911722" lon="12.4081106"><ele>450.5</ele><time>2026-04-26T13:10:52.027Z</time></trkpt><trkpt lat="43.8910999" lon="12.408145"><ele>450.6666666666667</ele><time>2026-04-26T13:10:53.024Z</time></trkpt><trkpt lat="43.8910248" lon="12.4081638"><ele>450.83333333333337</ele><time>2026-04-26T13:10:54.025Z</time></trkpt><trkpt lat="43.8909459" lon="12.4081841"><ele>451.0</ele><time>2026-04-26T13:10:55.026Z</time></trkpt><trkpt lat="43.8908672" lon="12.4081964"><ele>451.00000000000006</ele><time>2026-04-26T13:10:56.03Z</time></trkpt><trkpt lat="43.8907859" lon="12.4081874"><ele>451.0</ele><time>2026-04-26T13:10:57.026Z</time></trkpt><trkpt lat="43.8907105" lon="12.4081488"><ele>451.0</ele><time>2026-04-26T13:10:58.023Z</time></trkpt><trkpt lat="43.8906534" lon="12.4080799"><ele>451.0</ele><time>2026-04-26T13:10:59.027Z</time></trkpt><trkpt lat="43.8906473" lon="12.4079498"><ele>451.00000000000006</ele><time>2026-04-26T13:11:00.027Z</time></trkpt><trkpt lat="43.8906722" lon="12.4077973"><ele>451.0</ele><time>2026-04-26T13:11:01.026Z</time></trkpt><trkpt lat="43.8906835" lon="12.4076337"><ele>447.33333333333337</ele><time>2026-04-26T13:11:02.033Z</time></trkpt><trkpt lat="43.8907202" lon="12.4074347"><ele>443.66666666666663</ele><time>2026-04-26T13:11:03.027Z</time></trkpt><trkpt lat="43.8907715" lon="12.4072263"><ele>440.0</ele><time>2026-04-26T13:11:04.027Z</time></trkpt><trkpt lat="43.8908473" lon="12.4070158"><ele>437.75</ele><time>2026-04-26T13:11:05.025Z</time></trkpt><trkpt lat="43.8909266" lon="12.4068171"><ele>435.5</ele><time>2026-04-26T13:11:06.026Z</time></trkpt><trkpt lat="43.8909932" lon="12.406629"><ele>433.25</ele><time>2026-04-26T13:11:07.026Z</time></trkpt><trkpt lat="43.8910432" lon="12.4064838"><ele>431.0</ele><time>2026-04-26T13:11:08.025Z</time></trkpt><trkpt lat="43.8910819" lon="12.4063769"><ele>426.20000000000005</ele><time>2026-04-26T13:11:09.024Z</time></trkpt><trkpt lat="43.8911184" lon="12.4062877"><ele>421.40000000000003</ele><time>2026-04-26T13:11:10.032Z</time></trkpt><trkpt lat="43.8911071" lon="12.4061223"><ele>416.6</ele><time>2026-04-26T13:11:12.026Z</time></trkpt><trkpt lat="43.8910264" lon="12.4060032"><ele>411.8</ele><time>2026-04-26T13:11:14.027Z</time></trkpt><trkpt lat="43.890964" lon="12.4059906"><ele>407.0</ele><time>2026-04-26T13:11:15.031Z</time></trkpt><trkpt lat="43.8908784" lon="12.4060289"><ele>406.20000000000005</ele><time>2026-04-26T13:11:16.026Z</time></trkpt><trkpt lat="43.890794" lon="12.4060779"><ele>405.4</ele><time>2026-04-26T13:11:17.025Z</time></trkpt><trkpt lat="43.8907278" lon="12.4061051"><ele>404.6</ele><time>2026-04-26T13:11:18.025Z</time></trkpt><trkpt lat="43.8906272" lon="12.4060646"><ele>403.79999999999995</ele><time>2026-04-26T13:11:20.029Z</time></trkpt><trkpt lat="43.8905918" lon="12.4059158"><ele>403.0</ele><time>2026-04-26T13:11:22.023Z</time></trkpt><trkpt lat="43.8906134" lon="12.405735"><ele>403.00000000000006</ele><time>2026-04-26T13:11:24.027Z</time></trkpt><trkpt lat="43.8906422" lon="12.405634"><ele>403.0</ele><time>2026-04-26T13:11:25.027Z</time></trkpt><trkpt lat="43.8906536" lon="12.405547"><ele>403.0</ele><time>2026-04-26T13:11:26.027Z</time></trkpt><trkpt lat="43.890585" lon="12.405428"><ele>403.0</ele><time>2026-04-26T13:11:28.028Z</time></trkpt><trkpt lat="43.8905187" lon="12.4054158"><ele>403.00000000000006</ele><time>2026-04-26T13:11:29.029Z</time></trkpt><trkpt lat="43.8904212" lon="12.4054901"><ele>403.0</ele><time>2026-04-26T13:11:30.023Z</time></trkpt><trkpt lat="43.8903299" lon="12.4056046"><ele>403.0</ele><time>2026-04-26T13:11:31.027Z</time></trkpt><trkpt lat="43.8902468" lon="12.4057032"><ele>403.0</ele><time>2026-04-26T13:11:32.026Z</time></trkpt><trkpt lat="43.8901675" lon="12.4057918"><ele>403.0</ele><time>2026-04-26T13:11:33.024Z</time></trkpt><trkpt lat="43.8900855" lon="12.4058567"><ele>403.0</ele><time>2026-04-26T13:11:34.023Z</time></trkpt><trkpt lat="43.8900007" lon="12.4058854"><ele>403.0</ele><time>2026-04-26T13:11:35.026Z</time></trkpt><trkpt lat="43.8899169" lon="12.4058774"><ele>400.2</ele><time>2026-04-26T13:11:36.025Z</time></trkpt><trkpt lat="43.8898474" lon="12.4058345"><ele>397.4</ele><time>2026-04-26T13:11:37.024Z</time></trkpt><trkpt lat="43.8898" lon="12.4057649"><ele>394.59999999999997</ele><time>2026-04-26T13:11:38.023Z</time></trkpt><trkpt lat="43.889779" lon="12.4056591"><ele>391.79999999999995</ele><time>2026-04-26T13:11:39.024Z</time></trkpt><trkpt lat="43.8898021" lon="12.4054963"><ele>389.0</ele><time>2026-04-26T13:11:40.026Z</time></trkpt><trkpt lat="43.8898575" lon="12.4053022"><ele>386.5</ele><time>2026-04-26T13:11:41.028Z</time></trkpt><trkpt lat="43.8899108" lon="12.4051165"><ele>384.0</ele><time>2026-04-26T13:11:42.026Z</time></trkpt><trkpt lat="43.8899478" lon="12.4049496"><ele>381.5</ele><time>2026-04-26T13:11:43.024Z</time></trkpt><trkpt lat="43.8899612" lon="12.4048043"><ele>379.0</ele><time>2026-04-26T13:11:44.026Z</time></trkpt><trkpt lat="43.8899488" lon="12.4046855"><ele>377.16666666666663</ele><time>2026-04-26T13:11:45.027Z</time></trkpt><trkpt lat="43.8899066" lon="12.4045911"><ele>375.3333333333333</ele><time>2026-04-26T13:11:46.023Z</time></trkpt><trkpt lat="43.8898512" lon="12.4045149"><ele>373.5</ele><time>2026-04-26T13:11:47.027Z</time></trkpt><trkpt lat="43.8897842" lon="12.4044611"><ele>371.6666666666667</ele><time>2026-04-26T13:11:48.024Z</time></trkpt><trkpt lat="43.8896946" lon="12.4044673"><ele>369.83333333333337</ele><time>2026-04-26T13:11:49.027Z</time></trkpt><trkpt lat="43.8895982" lon="12.4045012"><ele>368.0</ele><time>2026-04-26T13:11:50.023Z</time></trkpt><trkpt lat="43.8894988" lon="12.404555"><ele>368.0</ele><time>2026-04-26T13:11:51.026Z</time></trkpt><trkpt lat="43.8894038" lon="12.4046038"><ele>368.0</ele><time>2026-04-26T13:11:52.03Z</time></trkpt><trkpt lat="43.8893087" lon="12.4046403"><ele>368.0</ele><time>2026-04-26T13:11:53.026Z</time></trkpt><trkpt lat="43.8892171" lon="12.404664"><ele>368.0</ele><time>2026-04-26T13:11:54.026Z</time></trkpt><trkpt lat="43.8891333" lon="12.4046749"><ele>368.0</ele><time>2026-04-26T13:11:55.026Z</time></trkpt><trkpt lat="43.8890515" lon="12.4046952"><ele>367.75</ele><time>2026-04-26T13:11:56.026Z</time></trkpt><trkpt lat="43.8889641" lon="12.4047114"><ele>367.5</ele><time>2026-04-26T13:11:57.026Z</time></trkpt><trkpt lat="43.8888466" lon="12.4046811"><ele>367.25</ele><time>2026-04-26T13:11:58.026Z</time></trkpt><trkpt lat="43.8887129" lon="12.4046426"><ele>367.0</ele><time>2026-04-26T13:11:59.023Z</time></trkpt><trkpt lat="43.88857" lon="12.404598"><ele>367.0</ele><time>2026-04-26T13:12:00.023Z</time></trkpt><trkpt lat="43.8884264" lon="12.4045664"><ele>367.0</ele><time>2026-04-26T13:12:01.024Z</time></trkpt><trkpt lat="43.8882959" lon="12.4045352"><ele>367.0</ele><time>2026-04-26T13:12:02.026Z</time></trkpt><trkpt lat="43.8881777" lon="12.4044905"><ele>367.0</ele><time>2026-04-26T13:12:03.029Z</time></trkpt><trkpt lat="43.8880606" lon="12.4044324"><ele>366.25</ele><time>2026-04-26T13:12:04.025Z</time></trkpt><trkpt lat="43.8879467" lon="12.4043594"><ele>365.5</ele><time>2026-04-26T13:12:05.023Z</time></trkpt><trkpt lat="43.8878371" lon="12.4042871"><ele>364.75</ele><time>2026-04-26T13:12:06.025Z</time></trkpt><trkpt lat="43.887728" lon="12.4042471"><ele>364.0</ele><time>2026-04-26T13:12:07.027Z</time></trkpt><trkpt lat="43.8876283" lon="12.4042183"><ele>364.4</ele><time>2026-04-26T13:12:08.024Z</time></trkpt><trkpt lat="43.8875358" lon="12.4041873"><ele>364.79999999999995</ele><time>2026-04-26T13:12:09.027Z</time></trkpt><trkpt lat="43.8874448" lon="12.4041584"><ele>365.20000000000005</ele><time>2026-04-26T13:12:10.025Z</time></trkpt><trkpt lat="43.8873544" lon="12.4041459"><ele>365.6</ele><time>2026-04-26T13:12:11.023Z</time></trkpt><trkpt lat="43.8872675" lon="12.4041196"><ele>366.0</ele><time>2026-04-26T13:12:12.023Z</time></trkpt><trkpt lat="43.8871888" lon="12.4040808"><ele>366.0</ele><time>2026-04-26T13:12:13.024Z</time></trkpt><trkpt lat="43.8871296" lon="12.4040132"><ele>366.0</ele><time>2026-04-26T13:12:14.025Z</time></trkpt><trkpt lat="43.8870975" lon="12.4039143"><ele>366.0</ele><time>2026-04-26T13:12:15.024Z</time></trkpt><trkpt lat="43.887096" lon="12.4037938"><ele>366.0</ele><time>2026-04-26T13:12:16.03Z</time></trkpt><trkpt lat="43.8871205" lon="12.403668"><ele>366.0</ele><time>2026-04-26T13:12:17.024Z</time></trkpt><trkpt lat="43.887155" lon="12.4035336"><ele>366.0</ele><time>2026-04-26T13:12:18.025Z</time></trkpt><trkpt lat="43.8871887" lon="12.4033984"><ele>363.0</ele><time>2026-04-26T13:12:19.023Z</time></trkpt><trkpt lat="43.887235" lon="12.4032567"><ele>360.0</ele><time>2026-04-26T13:12:20.023Z</time></trkpt><trkpt lat="43.8872833" lon="12.403115"><ele>357.0</ele><time>2026-04-26T13:12:21.026Z</time></trkpt><trkpt lat="43.88735" lon="12.4029783"><ele>354.0</ele><time>2026-04-26T13:12:22.024Z</time></trkpt><trkpt lat="43.8874033" lon="12.4028383"><ele>351.79999999999995</ele><time>2026-04-26T13:12:23.026Z</time></trkpt><trkpt lat="43.8874483" lon="12.4026967"><ele>349.59999999999997</ele><time>2026-04-26T13:12:24.023Z</time></trkpt><trkpt lat="43.887485" lon="12.4025633"><ele>347.4</ele><time>2026-04-26T13:12:25.026Z</time></trkpt><trkpt lat="43.8875067" lon="12.4024183"><ele>345.2</ele><time>2026-04-26T13:12:26.023Z</time></trkpt><trkpt lat="43.8875017" lon="12.4022683"><ele>343.0</ele><time>2026-04-26T13:12:27.031Z</time></trkpt><trkpt lat="43.8874833" lon="12.4021233"><ele>340.75</ele><time>2026-04-26T13:12:28.025Z</time></trkpt><trkpt lat="43.8874383" lon="12.40196"><ele>338.5</ele><time>2026-04-26T13:12:29.024Z</time></trkpt><trkpt lat="43.887385" lon="12.401795"><ele>336.25</ele><time>2026-04-26T13:12:30.025Z</time></trkpt><trkpt lat="43.88734" lon="12.4016067"><ele>334.0</ele><time>2026-04-26T13:12:31.023Z</time></trkpt><trkpt lat="43.8872783" lon="12.4014183"><ele>333.75</ele><time>2026-04-26T13:12:32.028Z</time></trkpt><trkpt lat="43.8872183" lon="12.4012267"><ele>333.5</ele><time>2026-04-26T13:12:33.023Z</time></trkpt><trkpt lat="43.8871617" lon="12.4010583"><ele>333.25</ele><time>2026-04-26T13:12:34.025Z</time></trkpt><trkpt lat="43.8871233" lon="12.400915"><ele>333.0</ele><time>2026-04-26T13:12:35.024Z</time></trkpt><trkpt lat="43.8870783" lon="12.4007983"><ele>333.0</ele><time>2026-04-26T13:12:36.024Z</time></trkpt><trkpt lat="43.8870217" lon="12.40072"><ele>333.0</ele><time>2026-04-26T13:12:37.026Z</time></trkpt><trkpt lat="43.886965" lon="12.4006567"><ele>333.0</ele><time>2026-04-26T13:12:38.024Z</time></trkpt><trkpt lat="43.8869067" lon="12.4006167"><ele>333.0</ele><time>2026-04-26T13:12:39.027Z</time></trkpt><trkpt lat="43.8868333" lon="12.40061"><ele>333.0</ele><time>2026-04-26T13:12:40.023Z</time></trkpt><trkpt lat="43.8867617" lon="12.4006167"><ele>333.0</ele><time>2026-04-26T13:12:41.025Z</time></trkpt><trkpt lat="43.88669" lon="12.4006133"><ele>333.0</ele><time>2026-04-26T13:12:42.024Z</time></trkpt><trkpt lat="43.8866267" lon="12.4005917"><ele>334.2</ele><time>2026-04-26T13:12:43.025Z</time></trkpt><trkpt lat="43.8865417" lon="12.4005233"><ele>335.4</ele><time>2026-04-26T13:12:45.029Z</time></trkpt><trkpt lat="43.8865183" lon="12.4004017"><ele>336.59999999999997</ele><time>2026-04-26T13:12:47.023Z</time></trkpt><trkpt lat="43.886565" lon="12.4002683"><ele>337.79999999999995</ele><time>2026-04-26T13:12:49.024Z</time></trkpt><trkpt lat="43.8866433" lon="12.4002"><ele>339.0</ele><time>2026-04-26T13:12:51.023Z</time></trkpt><trkpt lat="43.8867533" lon="12.4002417"><ele>340.1666666666667</ele><time>2026-04-26T13:12:52.024Z</time></trkpt><trkpt lat="43.88684" lon="12.4002567"><ele>341.3333333333333</ele><time>2026-04-26T13:12:53.03Z</time></trkpt><trkpt lat="43.8869267" lon="12.4002267"><ele>342.5</ele><time>2026-04-26T13:12:54.022Z</time></trkpt><trkpt lat="43.8869996" lon="12.4001949"><ele>343.66666666666663</ele><time>2026-04-26T13:12:55.025Z</time></trkpt><trkpt lat="43.8870607" lon="12.4001579"><ele>344.8333333333333</ele><time>2026-04-26T13:12:56.024Z</time></trkpt><trkpt lat="43.8871436" lon="12.4000776"><ele>346.0</ele><time>2026-04-26T13:12:58.024Z</time></trkpt><trkpt lat="43.887131" lon="12.3999724"><ele>346.0</ele><time>2026-04-26T13:13:00.024Z</time></trkpt><trkpt lat="43.8870362" lon="12.3998719"><ele>346.0</ele><time>2026-04-26T13:13:02.022Z</time></trkpt><trkpt lat="43.8869571" lon="12.3998205"><ele>346.0</ele><time>2026-04-26T13:13:03.026Z</time></trkpt><trkpt lat="43.8868827" lon="12.3997596"><ele>346.0</ele><time>2026-04-26T13:13:04.024Z</time></trkpt><trkpt lat="43.886824" lon="12.3996908"><ele>346.0</ele><time>2026-04-26T13:13:05.024Z</time></trkpt><trkpt lat="43.8867834" lon="12.399617"><ele>346.0</ele><time>2026-04-26T13:13:06.025Z</time></trkpt><trkpt lat="43.8867524" lon="12.3994893"><ele>349.4</ele><time>2026-04-26T13:13:08.028Z</time></trkpt><trkpt lat="43.8867946" lon="12.3993811"><ele>352.8</ele><time>2026-04-26T13:13:10.024Z</time></trkpt><trkpt lat="43.8868995" lon="12.399291"><ele>356.2</ele><time>2026-04-26T13:13:12.024Z</time></trkpt><trkpt lat="43.8869763" lon="12.399255"><ele>359.59999999999997</ele><time>2026-04-26T13:13:13.026Z</time></trkpt><trkpt lat="43.8870672" lon="12.3992258"><ele>363.0</ele><time>2026-04-26T13:13:14.023Z</time></trkpt><trkpt lat="43.8871705" lon="12.3992002"><ele>363.0</ele><time>2026-04-26T13:13:15.03Z</time></trkpt><trkpt lat="43.8872739" lon="12.3991758"><ele>363.0</ele><time>2026-04-26T13:13:16.025Z</time></trkpt><trkpt lat="43.8873653" lon="12.3991395"><ele>363.0</ele><time>2026-04-26T13:13:17.025Z</time></trkpt><trkpt lat="43.8874438" lon="12.3990922"><ele>363.0</ele><time>2026-04-26T13:13:18.026Z</time></trkpt><trkpt lat="43.8875116" lon="12.3990401"><ele>363.0</ele><time>2026-04-26T13:13:19.024Z</time></trkpt><trkpt lat="43.8875582" lon="12.3989645"><ele>363.0</ele><time>2026-04-26T13:13:20.024Z</time></trkpt><trkpt lat="43.8875818" lon="12.3988724"><ele>365.79999999999995</ele><time>2026-04-26T13:13:21.024Z</time></trkpt><trkpt lat="43.8875909" lon="12.3987825"><ele>368.6</ele><time>2026-04-26T13:13:22.023Z</time></trkpt><trkpt lat="43.8875898" lon="12.398694"><ele>371.4</ele><time>2026-04-26T13:13:23.025Z</time></trkpt><trkpt lat="43.8875628" lon="12.3985242"><ele>374.20000000000005</ele><time>2026-04-26T13:13:25.026Z</time></trkpt><trkpt lat="43.8875356" lon="12.3983734"><ele>377.0</ele><time>2026-04-26T13:13:27.024Z</time></trkpt><trkpt lat="43.8874948" lon="12.3982331"><ele>376.99999999999994</ele><time>2026-04-26T13:13:29.027Z</time></trkpt><trkpt lat="43.8874668" lon="12.3981468"><ele>377.0</ele><time>2026-04-26T13:13:30.022Z</time></trkpt><trkpt lat="43.887442" lon="12.3980491"><ele>377.0</ele><time>2026-04-26T13:13:31.023Z</time></trkpt><trkpt lat="43.8874251" lon="12.3979387"><ele>377.0</ele><time>2026-04-26T13:13:32.026Z</time></trkpt><trkpt lat="43.8874212" lon="12.3978274"><ele>377.0</ele><time>2026-04-26T13:13:33.024Z</time></trkpt><trkpt lat="43.8874304" lon="12.3977228"><ele>376.99999999999994</ele><time>2026-04-26T13:13:34.028Z</time></trkpt><trkpt lat="43.8874479" lon="12.397632"><ele>377.0</ele><time>2026-04-26T13:13:35.022Z</time></trkpt><trkpt lat="43.8874763" lon="12.3974725"><ele>379.0</ele><time>2026-04-26T13:13:37.025Z</time></trkpt><trkpt lat="43.8874664" lon="12.3973514"><ele>381.0</ele><time>2026-04-26T13:13:39.023Z</time></trkpt><trkpt lat="43.8873873" lon="12.3972618"><ele>383.0</ele><time>2026-04-26T13:13:41.023Z</time></trkpt><trkpt lat="43.887323" lon="12.3972316"><ele>385.0</ele><time>2026-04-26T13:13:42.024Z</time></trkpt><trkpt lat="43.8872387" lon="12.3972108"><ele>386.99999999999994</ele><time>2026-04-26T13:13:43.024Z</time></trkpt><trkpt lat="43.8871448" lon="12.397191"><ele>389.0</ele><time>2026-04-26T13:13:44.023Z</time></trkpt><trkpt lat="43.8870454" lon="12.39717"><ele>390.79999999999995</ele><time>2026-04-26T13:13:45.024Z</time></trkpt><trkpt lat="43.8869483" lon="12.3971472"><ele>392.59999999999997</ele><time>2026-04-26T13:13:46.024Z</time></trkpt><trkpt lat="43.8868493" lon="12.3971221"><ele>394.4</ele><time>2026-04-26T13:13:47.023Z</time></trkpt><trkpt lat="43.8867461" lon="12.3970911"><ele>396.2</ele><time>2026-04-26T13:13:48.029Z</time></trkpt><trkpt lat="43.8866384" lon="12.3970692"><ele>398.0</ele><time>2026-04-26T13:13:49.025Z</time></trkpt><trkpt lat="43.8865246" lon="12.3970516"><ele>399.25</ele><time>2026-04-26T13:13:50.023Z</time></trkpt><trkpt lat="43.8864055" lon="12.3970284"><ele>400.5</ele><time>2026-04-26T13:13:51.026Z</time></trkpt><trkpt lat="43.8862821" lon="12.3970009"><ele>401.75</ele><time>2026-04-26T13:13:52.024Z</time></trkpt><trkpt lat="43.8861582" lon="12.3969746"><ele>403.0</ele><time>2026-04-26T13:13:53.022Z</time></trkpt><trkpt lat="43.8860412" lon="12.3969581"><ele>403.0</ele><time>2026-04-26T13:13:54.028Z</time></trkpt><trkpt lat="43.8859329" lon="12.3969481"><ele>403.0</ele><time>2026-04-26T13:13:55.025Z</time></trkpt><trkpt lat="43.8858346" lon="12.396944"><ele>403.0</ele><time>2026-04-26T13:13:56.025Z</time></trkpt><trkpt lat="43.8857443" lon="12.3969388"><ele>403.0</ele><time>2026-04-26T13:13:57.025Z</time></trkpt><trkpt lat="43.8856573" lon="12.3969235"><ele>403.0</ele><time>2026-04-26T13:13:58.025Z</time></trkpt><trkpt lat="43.8855701" lon="12.3968952"><ele>404.59999999999997</ele><time>2026-04-26T13:13:59.025Z</time></trkpt><trkpt lat="43.885475" lon="12.3968395"><ele>406.2</ele><time>2026-04-26T13:14:00.026Z</time></trkpt><trkpt lat="43.8853749" lon="12.3967687"><ele>407.8</ele><time>2026-04-26T13:14:01.024Z</time></trkpt><trkpt lat="43.8852718" lon="12.3967016"><ele>409.4</ele><time>2026-04-26T13:14:02.024Z</time></trkpt><trkpt lat="43.8851602" lon="12.3966512"><ele>411.0</ele><time>2026-04-26T13:14:03.031Z</time></trkpt><trkpt lat="43.8850387" lon="12.396612"><ele>411.25</ele><time>2026-04-26T13:14:04.023Z</time></trkpt><trkpt lat="43.8849204" lon="12.3965787"><ele>411.5</ele><time>2026-04-26T13:14:05.024Z</time></trkpt><trkpt lat="43.8848081" lon="12.3965423"><ele>411.75</ele><time>2026-04-26T13:14:06.027Z</time></trkpt><trkpt lat="43.8847008" lon="12.3964976"><ele>412.0</ele><time>2026-04-26T13:14:07.025Z</time></trkpt><trkpt lat="43.8846001" lon="12.3964344"><ele>412.0</ele><time>2026-04-26T13:14:08.024Z</time></trkpt><trkpt lat="43.8845022" lon="12.3963493"><ele>412.0</ele><time>2026-04-26T13:14:09.026Z</time></trkpt><trkpt lat="43.884398" lon="12.3962435"><ele>412.0</ele><time>2026-04-26T13:14:10.031Z</time></trkpt><trkpt lat="43.8842876" lon="12.3961194"><ele>412.0</ele><time>2026-04-26T13:14:11.025Z</time></trkpt><trkpt lat="43.8841787" lon="12.3959859"><ele>413.75</ele><time>2026-04-26T13:14:12.027Z</time></trkpt><trkpt lat="43.8840703" lon="12.3958502"><ele>415.5</ele><time>2026-04-26T13:14:13.024Z</time></trkpt><trkpt lat="43.883962" lon="12.3957148"><ele>417.25</ele><time>2026-04-26T13:14:14.025Z</time></trkpt><trkpt lat="43.8838596" lon="12.3955781"><ele>419.0</ele><time>2026-04-26T13:14:15.025Z</time></trkpt><trkpt lat="43.8837632" lon="12.3954467"><ele>422.0</ele><time>2026-04-26T13:14:16.025Z</time></trkpt><trkpt lat="43.8836698" lon="12.3953225"><ele>425.0</ele><time>2026-04-26T13:14:17.028Z</time></trkpt><trkpt lat="43.8835812" lon="12.3952042"><ele>428.0</ele><time>2026-04-26T13:14:18.026Z</time></trkpt><trkpt lat="43.8834966" lon="12.3950872"><ele>431.0</ele><time>2026-04-26T13:14:19.024Z</time></trkpt><trkpt lat="43.8834075" lon="12.394986"><ele>431.8</ele><time>2026-04-26T13:14:20.025Z</time></trkpt><trkpt lat="43.8833163" lon="12.3948979"><ele>432.6</ele><time>2026-04-26T13:14:21.025Z</time></trkpt><trkpt lat="43.8832293" lon="12.394813"><ele>433.4</ele><time>2026-04-26T13:14:22.024Z</time></trkpt><trkpt lat="43.8831456" lon="12.394726"><ele>434.2</ele><time>2026-04-26T13:14:23.026Z</time></trkpt><trkpt lat="43.883075" lon="12.394648"><ele>435.0</ele><time>2026-04-26T13:14:24.024Z</time></trkpt><trkpt lat="43.8830203" lon="12.3945865"><ele>436.3333333333333</ele><time>2026-04-26T13:14:25.025Z</time></trkpt><trkpt lat="43.8829659" lon="12.3945255"><ele>437.66666666666663</ele><time>2026-04-26T13:14:27.026Z</time></trkpt><trkpt lat="43.88296" lon="12.39443"><ele>439.0</ele><time>2026-04-26T13:14:41.026Z</time></trkpt><trkpt lat="43.88304" lon="12.394305"><ele>440.3333333333333</ele><time>2026-04-26T13:14:43.029Z</time></trkpt><trkpt lat="43.8831067" lon="12.394235"><ele>441.66666666666663</ele><time>2026-04-26T13:14:44.026Z</time></trkpt><trkpt lat="43.883195" lon="12.39417"><ele>443.0</ele><time>2026-04-26T13:14:45.024Z</time></trkpt><trkpt lat="43.8832967" lon="12.3941067"><ele>443.0</ele><time>2026-04-26T13:14:46.025Z</time></trkpt><trkpt lat="43.883405" lon="12.3940717"><ele>442.99999999999994</ele><time>2026-04-26T13:14:47.024Z</time></trkpt><trkpt lat="43.8835083" lon="12.3940233"><ele>442.99999999999994</ele><time>2026-04-26T13:14:48.028Z</time></trkpt><trkpt lat="43.8836067" lon="12.3939917"><ele>443.0</ele><time>2026-04-26T13:14:49.025Z</time></trkpt><trkpt lat="43.883695" lon="12.3939667"><ele>443.0</ele><time>2026-04-26T13:14:50.024Z</time></trkpt><trkpt lat="43.88378" lon="12.3939367"><ele>442.66666666666663</ele><time>2026-04-26T13:14:51.03Z</time></trkpt><trkpt lat="43.8838617" lon="12.3938983"><ele>442.3333333333333</ele><time>2026-04-26T13:14:52.027Z</time></trkpt><trkpt lat="43.8839417" lon="12.39386"><ele>442.0</ele><time>2026-04-26T13:14:53.029Z</time></trkpt><trkpt lat="43.8840267" lon="12.3938133"><ele>441.66666666666663</ele><time>2026-04-26T13:14:54.025Z</time></trkpt><trkpt lat="43.8841067" lon="12.39377"><ele>441.3333333333333</ele><time>2026-04-26T13:14:55.024Z</time></trkpt><trkpt lat="43.8841717" lon="12.393735"><ele>441.0</ele><time>2026-04-26T13:14:56.025Z</time></trkpt><trkpt lat="43.8842568" lon="12.3936779"><ele>440.0</ele><time>2026-04-26T13:14:58.029Z</time></trkpt><trkpt lat="43.8843175" lon="12.3935717"><ele>439.0</ele><time>2026-04-26T13:15:00.025Z</time></trkpt><trkpt lat="43.8843723" lon="12.3933965"><ele>438.0</ele><time>2026-04-26T13:15:02.026Z</time></trkpt><trkpt lat="43.8843955" lon="12.3932787"><ele>437.0</ele><time>2026-04-26T13:15:03.033Z</time></trkpt><trkpt lat="43.8844195" lon="12.3931604"><ele>436.0</ele><time>2026-04-26T13:15:04.025Z</time></trkpt><trkpt lat="43.8844418" lon="12.3930367"><ele>433.8</ele><time>2026-04-26T13:15:05.025Z</time></trkpt><trkpt lat="43.8844545" lon="12.3929101"><ele>431.6</ele><time>2026-04-26T13:15:06.025Z</time></trkpt><trkpt lat="43.8844561" lon="12.3927812"><ele>429.4</ele><time>2026-04-26T13:15:07.031Z</time></trkpt><trkpt lat="43.8844482" lon="12.3926537"><ele>427.2</ele><time>2026-04-26T13:15:08.027Z</time></trkpt><trkpt lat="43.8844319" lon="12.3925185"><ele>425.0</ele><time>2026-04-26T13:15:09.027Z</time></trkpt><trkpt lat="43.8844132" lon="12.3923795"><ele>425.0</ele><time>2026-04-26T13:15:10.025Z</time></trkpt><trkpt lat="43.8843983" lon="12.392239"><ele>425.0</ele><time>2026-04-26T13:15:11.026Z</time></trkpt><trkpt lat="43.8843912" lon="12.3920995"><ele>425.0</ele><time>2026-04-26T13:15:12.025Z</time></trkpt><trkpt lat="43.8843886" lon="12.3919607"><ele>425.0</ele><time>2026-04-26T13:15:13.026Z</time></trkpt><trkpt lat="43.8843902" lon="12.3918179"><ele>425.0</ele><time>2026-04-26T13:15:14.026Z</time></trkpt><trkpt lat="43.8843916" lon="12.391668"><ele>424.4</ele><time>2026-04-26T13:15:15.026Z</time></trkpt><trkpt lat="43.8843891" lon="12.3915105"><ele>423.8</ele><time>2026-04-26T13:15:16.025Z</time></trkpt><trkpt lat="43.8843839" lon="12.3913491"><ele>423.20000000000005</ele><time>2026-04-26T13:15:17.024Z</time></trkpt><trkpt lat="43.8843711" lon="12.3912039"><ele>422.6</ele><time>2026-04-26T13:15:18.029Z</time></trkpt><trkpt lat="43.884352" lon="12.3910673"><ele>422.0</ele><time>2026-04-26T13:15:19.026Z</time></trkpt><trkpt lat="43.8843287" lon="12.3909378"><ele>421.99999999999994</ele><time>2026-04-26T13:15:20.026Z</time></trkpt><trkpt lat="43.884301" lon="12.3908184"><ele>422.0</ele><time>2026-04-26T13:15:21.027Z</time></trkpt><trkpt lat="43.8842698" lon="12.3907053"><ele>422.0</ele><time>2026-04-26T13:15:22.025Z</time></trkpt><trkpt lat="43.884236" lon="12.3905929"><ele>422.0</ele><time>2026-04-26T13:15:23.029Z</time></trkpt><trkpt lat="43.8841996" lon="12.3904791"><ele>421.99999999999994</ele><time>2026-04-26T13:15:24.027Z</time></trkpt><trkpt lat="43.8841627" lon="12.3903626"><ele>422.0</ele><time>2026-04-26T13:15:25.026Z</time></trkpt><trkpt lat="43.8841321" lon="12.3902417"><ele>422.0</ele><time>2026-04-26T13:15:26.026Z</time></trkpt><trkpt lat="43.8841039" lon="12.3901172"><ele>422.0</ele><time>2026-04-26T13:15:27.026Z</time></trkpt><trkpt lat="43.8840784" lon="12.3899852"><ele>422.0</ele><time>2026-04-26T13:15:28.03Z</time></trkpt><trkpt lat="43.8840488" lon="12.3898568"><ele>422.0</ele><time>2026-04-26T13:15:29.026Z</time></trkpt><trkpt lat="43.8840158" lon="12.3897316"><ele>422.0</ele><time>2026-04-26T13:15:30.025Z</time></trkpt><trkpt lat="43.8839794" lon="12.3896128"><ele>419.66666666666663</ele><time>2026-04-26T13:15:31.026Z</time></trkpt><trkpt lat="43.8839451" lon="12.3894988"><ele>417.3333333333333</ele><time>2026-04-26T13:15:32.023Z</time></trkpt><trkpt lat="43.8839142" lon="12.3893936"><ele>415.0</ele><time>2026-04-26T13:15:33.024Z</time></trkpt><trkpt lat="43.8838884" lon="12.3892978"><ele>412.66666666666663</ele><time>2026-04-26T13:15:34.022Z</time></trkpt><trkpt lat="43.8838646" lon="12.3892042"><ele>410.3333333333333</ele><time>2026-04-26T13:15:35.024Z</time></trkpt><trkpt lat="43.8838374" lon="12.389117"><ele>408.0</ele><time>2026-04-26T13:15:36.023Z</time></trkpt><trkpt lat="43.8838038" lon="12.3890357"><ele>408.0</ele><time>2026-04-26T13:15:37.028Z</time></trkpt><trkpt lat="43.8837178" lon="12.3889107"><ele>408.0</ele><time>2026-04-26T13:15:39.029Z</time></trkpt><trkpt lat="43.8836257" lon="12.3887976"><ele>408.0</ele><time>2026-04-26T13:15:41.023Z</time></trkpt><trkpt lat="43.8835895" lon="12.3887235"><ele>408.0</ele><time>2026-04-26T13:15:42.024Z</time></trkpt><trkpt lat="43.8835726" lon="12.3886327"><ele>408.0</ele><time>2026-04-26T13:15:43.023Z</time></trkpt><trkpt lat="43.883589" lon="12.3885259"><ele>406.3333333333333</ele><time>2026-04-26T13:15:44.029Z</time></trkpt><trkpt lat="43.8836082" lon="12.3884116"><ele>404.66666666666663</ele><time>2026-04-26T13:15:45.025Z</time></trkpt><trkpt lat="43.8836195" lon="12.388291"><ele>403.0</ele><time>2026-04-26T13:15:46.022Z</time></trkpt><trkpt lat="43.8836253" lon="12.3881645"><ele>401.3333333333333</ele><time>2026-04-26T13:15:47.024Z</time></trkpt><trkpt lat="43.8836104" lon="12.3880431"><ele>399.66666666666663</ele><time>2026-04-26T13:15:48.024Z</time></trkpt><trkpt lat="43.883569" lon="12.3879262"><ele>398.0</ele><time>2026-04-26T13:15:49.025Z</time></trkpt><trkpt lat="43.8835274" lon="12.3878162"><ele>397.99999999999994</ele><time>2026-04-26T13:15:50.024Z</time></trkpt><trkpt lat="43.8835053" lon="12.3877115"><ele>398.0</ele><time>2026-04-26T13:15:51.029Z</time></trkpt><trkpt lat="43.8835034" lon="12.3876199"><ele>398.0</ele><time>2026-04-26T13:15:52.023Z</time></trkpt><trkpt lat="43.8835634" lon="12.3874795"><ele>398.0</ele><time>2026-04-26T13:15:54.023Z</time></trkpt><trkpt lat="43.8836216" lon="12.3874372"><ele>397.99999999999994</ele><time>2026-04-26T13:15:55.106Z</time></trkpt><trkpt lat="43.8836774" lon="12.3873964"><ele>398.0</ele><time>2026-04-26T13:15:56.025Z</time></trkpt><trkpt lat="43.8837369" lon="12.3873563"><ele>398.0</ele><time>2026-04-26T13:15:57.026Z</time></trkpt><trkpt lat="43.8838216" lon="12.3872602"><ele>398.0</ele><time>2026-04-26T13:15:59.023Z</time></trkpt><trkpt lat="43.8838313" lon="12.3871433"><ele>398.0</ele><time>2026-04-26T13:16:01.023Z</time></trkpt><trkpt lat="43.88376" lon="12.3870421"><ele>398.0</ele><time>2026-04-26T13:16:03.026Z</time></trkpt><trkpt lat="43.883652" lon="12.3869823"><ele>398.0</ele><time>2026-04-26T13:16:05.022Z</time></trkpt><trkpt lat="43.8835383" lon="12.3869103"><ele>399.99999999999994</ele><time>2026-04-26T13:16:07.027Z</time></trkpt><trkpt lat="43.8834796" lon="12.3868565"><ele>402.0</ele><time>2026-04-26T13:16:08.028Z</time></trkpt><trkpt lat="43.8834178" lon="12.3867934"><ele>404.0</ele><time>2026-04-26T13:16:09.025Z</time></trkpt><trkpt lat="43.8833521" lon="12.3867279"><ele>406.0</ele><time>2026-04-26T13:16:10.028Z</time></trkpt><trkpt lat="43.8832879" lon="12.386657"><ele>407.99999999999994</ele><time>2026-04-26T13:16:11.024Z</time></trkpt><trkpt lat="43.8832252" lon="12.3865831"><ele>410.0</ele><time>2026-04-26T13:16:12.024Z</time></trkpt><trkpt lat="43.8831623" lon="12.3865033"><ele>410.0</ele><time>2026-04-26T13:16:13.025Z</time></trkpt><trkpt lat="43.8830967" lon="12.3864181"><ele>410.0</ele><time>2026-04-26T13:16:14.022Z</time></trkpt><trkpt lat="43.8830281" lon="12.3863199"><ele>410.0</ele><time>2026-04-26T13:16:15.028Z</time></trkpt><trkpt lat="43.8829564" lon="12.3862187"><ele>410.0</ele><time>2026-04-26T13:16:16.024Z</time></trkpt><trkpt lat="43.882879" lon="12.3861234"><ele>410.0</ele><time>2026-04-26T13:16:17.025Z</time></trkpt><trkpt lat="43.8828059" lon="12.3860396"><ele>412.0</ele><time>2026-04-26T13:16:18.026Z</time></trkpt><trkpt lat="43.8827294" lon="12.3859592"><ele>414.0</ele><time>2026-04-26T13:16:19.024Z</time></trkpt><trkpt lat="43.8826478" lon="12.385869"><ele>416.0</ele><time>2026-04-26T13:16:20.028Z</time></trkpt><trkpt lat="43.8825744" lon="12.385771"><ele>418.0</ele><time>2026-04-26T13:16:21.024Z</time></trkpt><trkpt lat="43.8825138" lon="12.38566"><ele>420.0</ele><time>2026-04-26T13:16:22.031Z</time></trkpt><trkpt lat="43.8824674" lon="12.3855334"><ele>421.8</ele><time>2026-04-26T13:16:23.024Z</time></trkpt><trkpt lat="43.8824249" lon="12.3853965"><ele>423.6</ele><time>2026-04-26T13:16:24.025Z</time></trkpt><trkpt lat="43.8823836" lon="12.3852542"><ele>425.4</ele><time>2026-04-26T13:16:25.024Z</time></trkpt><trkpt lat="43.882343" lon="12.3851132"><ele>427.2</ele><time>2026-04-26T13:16:26.029Z</time></trkpt><trkpt lat="43.8823109" lon="12.3849861"><ele>429.0</ele><time>2026-04-26T13:16:27.023Z</time></trkpt><trkpt lat="43.8822872" lon="12.3848666"><ele>429.0</ele><time>2026-04-26T13:16:28.023Z</time></trkpt><trkpt lat="43.8822729" lon="12.3847462"><ele>429.0</ele><time>2026-04-26T13:16:29.026Z</time></trkpt><trkpt lat="43.8822754" lon="12.3846214"><ele>429.0</ele><time>2026-04-26T13:16:30.024Z</time></trkpt><trkpt lat="43.8822985" lon="12.3844866"><ele>429.0</ele><time>2026-04-26T13:16:31.023Z</time></trkpt><trkpt lat="43.8823009" lon="12.3842439"><ele>430.2</ele><time>2026-04-26T13:16:32.851Z</time></trkpt><trkpt lat="43.8824171" lon="12.3841579"><ele>431.4</ele><time>2026-04-26T13:16:34.058Z</time></trkpt><trkpt lat="43.882492" lon="12.3840189"><ele>432.6</ele><time>2026-04-26T13:16:36.028Z</time></trkpt><trkpt lat="43.8825615" lon="12.3840199"><ele>433.8</ele><time>2026-04-26T13:16:38.023Z</time></trkpt><trkpt lat="43.882667" lon="12.3840716"><ele>435.0</ele><time>2026-04-26T13:16:40.025Z</time></trkpt><trkpt lat="43.8827312" lon="12.3841008"><ele>437.6</ele><time>2026-04-26T13:16:41.027Z</time></trkpt><trkpt lat="43.88281" lon="12.3841428"><ele>440.2</ele><time>2026-04-26T13:16:42.025Z</time></trkpt><trkpt lat="43.8828991" lon="12.3841971"><ele>442.79999999999995</ele><time>2026-04-26T13:16:43.026Z</time></trkpt><trkpt lat="43.8829984" lon="12.3842604"><ele>445.4</ele><time>2026-04-26T13:16:44.026Z</time></trkpt><trkpt lat="43.8831069" lon="12.3843288"><ele>448.0</ele><time>2026-04-26T13:16:45.028Z</time></trkpt><trkpt lat="43.8832246" lon="12.3844045"><ele>448.0</ele><time>2026-04-26T13:16:46.024Z</time></trkpt><trkpt lat="43.8833348" lon="12.3844738"><ele>447.99999999999994</ele><time>2026-04-26T13:16:47.026Z</time></trkpt><trkpt lat="43.883431" lon="12.3845236"><ele>447.99999999999994</ele><time>2026-04-26T13:16:48.023Z</time></trkpt><trkpt lat="43.8835173" lon="12.3845513"><ele>448.0</ele><time>2026-04-26T13:16:49.026Z</time></trkpt><trkpt lat="43.8836075" lon="12.3845606"><ele>448.0</ele><time>2026-04-26T13:16:50.024Z</time></trkpt><trkpt lat="43.8836961" lon="12.3845512"><ele>450.25</ele><time>2026-04-26T13:16:51.03Z</time></trkpt><trkpt lat="43.883789" lon="12.3845211"><ele>452.5</ele><time>2026-04-26T13:16:52.024Z</time></trkpt><trkpt lat="43.8838974" lon="12.3844635"><ele>454.75</ele><time>2026-04-26T13:16:53.024Z</time></trkpt><trkpt lat="43.8840072" lon="12.3843956"><ele>457.0</ele><time>2026-04-26T13:16:54.027Z</time></trkpt><trkpt lat="43.8841186" lon="12.3843268"><ele>457.0</ele><time>2026-04-26T13:16:55.024Z</time></trkpt><trkpt lat="43.8842312" lon="12.384257"><ele>457.0</ele><time>2026-04-26T13:16:56.031Z</time></trkpt><trkpt lat="43.8843418" lon="12.3841899"><ele>457.0</ele><time>2026-04-26T13:16:57.025Z</time></trkpt><trkpt lat="43.8844457" lon="12.3841294"><ele>457.0</ele><time>2026-04-26T13:16:58.024Z</time></trkpt><trkpt lat="43.8845374" lon="12.3840731"><ele>456.6666666666667</ele><time>2026-04-26T13:16:59.025Z</time></trkpt><trkpt lat="43.8846171" lon="12.3840162"><ele>456.33333333333337</ele><time>2026-04-26T13:17:00.024Z</time></trkpt><trkpt lat="43.8846864" lon="12.3839487"><ele>456.0</ele><time>2026-04-26T13:17:01.027Z</time></trkpt><trkpt lat="43.8847445" lon="12.3838736"><ele>455.66666666666663</ele><time>2026-04-26T13:17:02.023Z</time></trkpt><trkpt lat="43.8847972" lon="12.3837944"><ele>455.3333333333333</ele><time>2026-04-26T13:17:03.029Z</time></trkpt><trkpt lat="43.8848563" lon="12.3837094"><ele>455.0</ele><time>2026-04-26T13:17:04.028Z</time></trkpt><trkpt lat="43.8849255" lon="12.3836217"><ele>455.0</ele><time>2026-04-26T13:17:05.024Z</time></trkpt><trkpt lat="43.8850106" lon="12.3835156"><ele>455.0</ele><time>2026-04-26T13:17:06.026Z</time></trkpt><trkpt lat="43.8851013" lon="12.3833903"><ele>455.0</ele><time>2026-04-26T13:17:07.025Z</time></trkpt><trkpt lat="43.8851885" lon="12.3832484"><ele>455.0</ele><time>2026-04-26T13:17:08.024Z</time></trkpt><trkpt lat="43.885272" lon="12.3830968"><ele>457.5</ele><time>2026-04-26T13:17:09.024Z</time></trkpt><trkpt lat="43.8853553" lon="12.3829411"><ele>460.0</ele><time>2026-04-26T13:17:10.024Z</time></trkpt><trkpt lat="43.8854305" lon="12.3827996"><ele>462.5</ele><time>2026-04-26T13:17:11.024Z</time></trkpt><trkpt lat="43.8854989" lon="12.3826695"><ele>465.0</ele><time>2026-04-26T13:17:12.025Z</time></trkpt><trkpt lat="43.885564" lon="12.3825445"><ele>465.0</ele><time>2026-04-26T13:17:13.026Z</time></trkpt><trkpt lat="43.8856201" lon="12.3824358"><ele>465.0</ele><time>2026-04-26T13:17:14.024Z</time></trkpt><trkpt lat="43.8856699" lon="12.3823442"><ele>465.0</ele><time>2026-04-26T13:17:15.026Z</time></trkpt><trkpt lat="43.8857146" lon="12.3822671"><ele>465.0</ele><time>2026-04-26T13:17:16.024Z</time></trkpt><trkpt lat="43.8857996" lon="12.3821836"><ele>465.0</ele><time>2026-04-26T13:17:18.024Z</time></trkpt><trkpt lat="43.8858973" lon="12.3822422"><ele>464.8</ele><time>2026-04-26T13:17:20.033Z</time></trkpt><trkpt lat="43.8859677" lon="12.3822995"><ele>464.6</ele><time>2026-04-26T13:17:21.023Z</time></trkpt><trkpt lat="43.886048" lon="12.3823733"><ele>464.4</ele><time>2026-04-26T13:17:22.025Z</time></trkpt><trkpt lat="43.8861388" lon="12.3824614"><ele>464.2</ele><time>2026-04-26T13:17:23.023Z</time></trkpt><trkpt lat="43.8862261" lon="12.3825867"><ele>464.0</ele><time>2026-04-26T13:17:24.023Z</time></trkpt><trkpt lat="43.8862987" lon="12.3827108"><ele>463.99999999999994</ele><time>2026-04-26T13:17:25.029Z</time></trkpt><trkpt lat="43.886366" lon="12.3828288"><ele>464.0</ele><time>2026-04-26T13:17:26.023Z</time></trkpt><trkpt lat="43.8864266" lon="12.382933"><ele>464.0</ele><time>2026-04-26T13:17:27.024Z</time></trkpt><trkpt lat="43.8864795" lon="12.3830197"><ele>464.0</ele><time>2026-04-26T13:17:28.024Z</time></trkpt><trkpt lat="43.8865296" lon="12.3830985"><ele>463.99999999999994</ele><time>2026-04-26T13:17:29.029Z</time></trkpt><trkpt lat="43.8865826" lon="12.3831801"><ele>464.0</ele><time>2026-04-26T13:17:30.028Z</time></trkpt><trkpt lat="43.886636" lon="12.3832689"><ele>462.8333333333333</ele><time>2026-04-26T13:17:31.026Z</time></trkpt><trkpt lat="43.8866866" lon="12.3833647"><ele>461.66666666666663</ele><time>2026-04-26T13:17:32.025Z</time></trkpt><trkpt lat="43.8867293" lon="12.383465"><ele>460.5</ele><time>2026-04-26T13:17:33.025Z</time></trkpt><trkpt lat="43.8867665" lon="12.3835654"><ele>459.33333333333337</ele><time>2026-04-26T13:17:34.024Z</time></trkpt><trkpt lat="43.886795" lon="12.3836643"><ele>458.1666666666667</ele><time>2026-04-26T13:17:35.027Z</time></trkpt><trkpt lat="43.8868165" lon="12.3837638"><ele>457.0</ele><time>2026-04-26T13:17:36.026Z</time></trkpt><trkpt lat="43.886836" lon="12.3838602"><ele>454.6666666666667</ele><time>2026-04-26T13:17:37.025Z</time></trkpt><trkpt lat="43.8868575" lon="12.3839566"><ele>452.33333333333337</ele><time>2026-04-26T13:17:38.025Z</time></trkpt><trkpt lat="43.8868815" lon="12.3840449"><ele>450.0</ele><time>2026-04-26T13:17:39.027Z</time></trkpt><trkpt lat="43.8869278" lon="12.3841903"><ele>447.66666666666663</ele><time>2026-04-26T13:17:41.022Z</time></trkpt><trkpt lat="43.8869676" lon="12.3842881"><ele>445.3333333333333</ele><time>2026-04-26T13:17:43.026Z</time></trkpt><trkpt lat="43.8870481" lon="12.384343"><ele>443.0</ele><time>2026-04-26T13:17:45.023Z</time></trkpt><trkpt lat="43.8871522" lon="12.3842918"><ele>443.0</ele><time>2026-04-26T13:17:47.024Z</time></trkpt><trkpt lat="43.8872775" lon="12.384204"><ele>443.0</ele><time>2026-04-26T13:17:49.029Z</time></trkpt><trkpt lat="43.8873602" lon="12.3841333"><ele>443.0</ele><time>2026-04-26T13:17:50.024Z</time></trkpt><trkpt lat="43.8874733" lon="12.38405"><ele>443.0</ele><time>2026-04-26T13:17:51.026Z</time></trkpt><trkpt lat="43.8875933" lon="12.3839833"><ele>442.25</ele><time>2026-04-26T13:17:52.026Z</time></trkpt><trkpt lat="43.8877183" lon="12.3838983"><ele>441.5</ele><time>2026-04-26T13:17:53.024Z</time></trkpt><trkpt lat="43.8878467" lon="12.3837967"><ele>440.75</ele><time>2026-04-26T13:17:54.022Z</time></trkpt><trkpt lat="43.8879733" lon="12.3836783"><ele>440.0</ele><time>2026-04-26T13:17:55.024Z</time></trkpt><trkpt lat="43.888085" lon="12.3835633"><ele>442.5</ele><time>2026-04-26T13:17:56.027Z</time></trkpt><trkpt lat="43.88819" lon="12.3834667"><ele>445.0</ele><time>2026-04-26T13:17:57.023Z</time></trkpt><trkpt lat="43.888295" lon="12.3833733"><ele>447.5</ele><time>2026-04-26T13:17:58.024Z</time></trkpt><trkpt lat="43.8883983" lon="12.38327"><ele>450.0</ele><time>2026-04-26T13:17:59.023Z</time></trkpt><trkpt lat="43.8884933" lon="12.3831567"><ele>450.5</ele><time>2026-04-26T13:18:00.023Z</time></trkpt><trkpt lat="43.8885867" lon="12.383035"><ele>451.0</ele><time>2026-04-26T13:18:01.026Z</time></trkpt><trkpt lat="43.8886833" lon="12.38291"><ele>451.5</ele><time>2026-04-26T13:18:02.024Z</time></trkpt><trkpt lat="43.8887833" lon="12.382795"><ele>452.0</ele><time>2026-04-26T13:18:03.024Z</time></trkpt><trkpt lat="43.8888883" lon="12.3826933"><ele>455.0</ele><time>2026-04-26T13:18:04.025Z</time></trkpt><trkpt lat="43.88899" lon="12.38261"><ele>458.00000000000006</ele><time>2026-04-26T13:18:05.024Z</time></trkpt><trkpt lat="43.88909" lon="12.382535"><ele>461.00000000000006</ele><time>2026-04-26T13:18:06.023Z</time></trkpt><trkpt lat="43.8891867" lon="12.3824683"><ele>464.0</ele><time>2026-04-26T13:18:07.026Z</time></trkpt><trkpt lat="43.8892783" lon="12.3824117"><ele>467.0</ele><time>2026-04-26T13:18:08.023Z</time></trkpt><trkpt lat="43.8893667" lon="12.38238"><ele>467.20000000000005</ele><time>2026-04-26T13:18:09.026Z</time></trkpt><trkpt lat="43.88946" lon="12.3823867"><ele>467.40000000000003</ele><time>2026-04-26T13:18:10.025Z</time></trkpt><trkpt lat="43.8895617" lon="12.3824333"><ele>467.59999999999997</ele><time>2026-04-26T13:18:11.022Z</time></trkpt><trkpt lat="43.8896633" lon="12.3825033"><ele>467.79999999999995</ele><time>2026-04-26T13:18:12.028Z</time></trkpt><trkpt lat="43.88975" lon="12.3825983"><ele>468.0</ele><time>2026-04-26T13:18:13.028Z</time></trkpt><trkpt lat="43.8898317" lon="12.3827183"><ele>468.0</ele><time>2026-04-26T13:18:14.022Z</time></trkpt><trkpt lat="43.88992" lon="12.3828667"><ele>468.0</ele><time>2026-04-26T13:18:15.024Z</time></trkpt><trkpt lat="43.8900117" lon="12.383035"><ele>468.0</ele><time>2026-04-26T13:18:16.023Z</time></trkpt><trkpt lat="43.8901" lon="12.3831983"><ele>468.0</ele><time>2026-04-26T13:18:17.028Z</time></trkpt><trkpt lat="43.89018" lon="12.383345"><ele>469.5</ele><time>2026-04-26T13:18:18.024Z</time></trkpt><trkpt lat="43.8902567" lon="12.383485"><ele>471.0</ele><time>2026-04-26T13:18:19.025Z</time></trkpt><trkpt lat="43.8903317" lon="12.3836183"><ele>472.5</ele><time>2026-04-26T13:18:20.022Z</time></trkpt><trkpt lat="43.8904017" lon="12.3837433"><ele>474.0</ele><time>2026-04-26T13:18:21.025Z</time></trkpt><trkpt lat="43.8904633" lon="12.38384"><ele>472.8333333333333</ele><time>2026-04-26T13:18:22.024Z</time></trkpt><trkpt lat="43.89052" lon="12.38392"><ele>471.66666666666663</ele><time>2026-04-26T13:18:23.024Z</time></trkpt><trkpt lat="43.8905733" lon="12.3839817"><ele>470.5</ele><time>2026-04-26T13:18:24.025Z</time></trkpt><trkpt lat="43.89063" lon="12.3840317"><ele>469.3333333333333</ele><time>2026-04-26T13:18:25.024Z</time></trkpt><trkpt lat="43.8907433" lon="12.384095"><ele>468.16666666666663</ele><time>2026-04-26T13:18:27.023Z</time></trkpt><trkpt lat="43.89085" lon="12.384085"><ele>467.0</ele><time>2026-04-26T13:18:29.024Z</time></trkpt><trkpt lat="43.8909408" lon="12.3839747"><ele>465.99999999999994</ele><time>2026-04-26T13:18:31.024Z</time></trkpt><trkpt lat="43.8909701" lon="12.3838839"><ele>465.0</ele><time>2026-04-26T13:18:32.024Z</time></trkpt><trkpt lat="43.8909998" lon="12.3837942"><ele>464.0</ele><time>2026-04-26T13:18:33.028Z</time></trkpt><trkpt lat="43.8910332" lon="12.3836931"><ele>463.0</ele><time>2026-04-26T13:18:34.024Z</time></trkpt><trkpt lat="43.8910692" lon="12.383599"><ele>461.99999999999994</ele><time>2026-04-26T13:18:35.023Z</time></trkpt><trkpt lat="43.8911084" lon="12.3835128"><ele>461.0</ele><time>2026-04-26T13:18:36.025Z</time></trkpt><trkpt lat="43.8911544" lon="12.3834232"><ele>464.16666666666663</ele><time>2026-04-26T13:18:37.024Z</time></trkpt><trkpt lat="43.8912088" lon="12.3833313"><ele>467.3333333333333</ele><time>2026-04-26T13:18:38.023Z</time></trkpt><trkpt lat="43.8912667" lon="12.3832387"><ele>470.5</ele><time>2026-04-26T13:18:39.031Z</time></trkpt><trkpt lat="43.8913267" lon="12.3831469"><ele>473.66666666666663</ele><time>2026-04-26T13:18:40.023Z</time></trkpt><trkpt lat="43.8913862" lon="12.3830576"><ele>476.8333333333333</ele><time>2026-04-26T13:18:41.024Z</time></trkpt><trkpt lat="43.8914464" lon="12.3829661"><ele>480.0</ele><time>2026-04-26T13:18:42.024Z</time></trkpt><trkpt lat="43.8915075" lon="12.3828702"><ele>481.8</ele><time>2026-04-26T13:18:43.024Z</time></trkpt><trkpt lat="43.8915721" lon="12.3827695"><ele>483.6</ele><time>2026-04-26T13:18:44.024Z</time></trkpt><trkpt lat="43.8916405" lon="12.382667"><ele>485.4</ele><time>2026-04-26T13:18:45.025Z</time></trkpt><trkpt lat="43.8917108" lon="12.3825545"><ele>487.2</ele><time>2026-04-26T13:18:46.025Z</time></trkpt><trkpt lat="43.8917864" lon="12.3824369"><ele>489.0</ele><time>2026-04-26T13:18:47.026Z</time></trkpt><trkpt lat="43.8918699" lon="12.3823144"><ele>489.5</ele><time>2026-04-26T13:18:48.024Z</time></trkpt><trkpt lat="43.8919568" lon="12.3821954"><ele>490.0</ele><time>2026-04-26T13:18:49.024Z</time></trkpt><trkpt lat="43.8920473" lon="12.3820799"><ele>490.5</ele><time>2026-04-26T13:18:50.028Z</time></trkpt><trkpt lat="43.8921396" lon="12.3819602"><ele>491.0</ele><time>2026-04-26T13:18:51.024Z</time></trkpt><trkpt lat="43.8922337" lon="12.3818376"><ele>494.25</ele><time>2026-04-26T13:18:52.024Z</time></trkpt><trkpt lat="43.8923359" lon="12.381712"><ele>497.5</ele><time>2026-04-26T13:18:53.023Z</time></trkpt><trkpt lat="43.8924474" lon="12.3815797"><ele>500.75</ele><time>2026-04-26T13:18:54.025Z</time></trkpt><trkpt lat="43.8925649" lon="12.3814422"><ele>504.0</ele><time>2026-04-26T13:18:55.031Z</time></trkpt><trkpt lat="43.892677" lon="12.3813134"><ele>506.5</ele><time>2026-04-26T13:18:56.025Z</time></trkpt><trkpt lat="43.8927853" lon="12.3811915"><ele>509.0</ele><time>2026-04-26T13:18:57.024Z</time></trkpt><trkpt lat="43.8928922" lon="12.3810744"><ele>511.5</ele><time>2026-04-26T13:18:58.025Z</time></trkpt><trkpt lat="43.8929972" lon="12.3809608"><ele>514.0</ele><time>2026-04-26T13:18:59.024Z</time></trkpt><trkpt lat="43.8930962" lon="12.3808577"><ele>514.0</ele><time>2026-04-26T13:19:00.024Z</time></trkpt><trkpt lat="43.8931939" lon="12.3807604"><ele>514.0</ele><time>2026-04-26T13:19:01.029Z</time></trkpt><trkpt lat="43.8932988" lon="12.3806588"><ele>514.0</ele><time>2026-04-26T13:19:02.025Z</time></trkpt><trkpt lat="43.8934145" lon="12.3805521"><ele>514.0</ele><time>2026-04-26T13:19:03.023Z</time></trkpt><trkpt lat="43.8935313" lon="12.3804421"><ele>516.25</ele><time>2026-04-26T13:19:04.024Z</time></trkpt><trkpt lat="43.8936444" lon="12.3803261"><ele>518.5</ele><time>2026-04-26T13:19:05.026Z</time></trkpt><trkpt lat="43.8937539" lon="12.38021"><ele>520.75</ele><time>2026-04-26T13:19:06.024Z</time></trkpt><trkpt lat="43.893861" lon="12.380096"><ele>523.0</ele><time>2026-04-26T13:19:07.025Z</time></trkpt><trkpt lat="43.8939593" lon="12.3799933"><ele>523.0</ele><time>2026-04-26T13:19:08.031Z</time></trkpt><trkpt lat="43.8940497" lon="12.379913"><ele>523.0</ele><time>2026-04-26T13:19:09.025Z</time></trkpt><trkpt lat="43.8941308" lon="12.3798452"><ele>523.0</ele><time>2026-04-26T13:19:10.028Z</time></trkpt><trkpt lat="43.8941989" lon="12.3797818"><ele>523.0</ele><time>2026-04-26T13:19:11.025Z</time></trkpt><trkpt lat="43.8942496" lon="12.3797293"><ele>523.0</ele><time>2026-04-26T13:19:12.025Z</time></trkpt><trkpt lat="43.8943045" lon="12.3796303"><ele>523.0</ele><time>2026-04-26T13:19:14.024Z</time></trkpt><trkpt lat="43.8943042" lon="12.3795252"><ele>523.5</ele><time>2026-04-26T13:19:16.026Z</time></trkpt><trkpt lat="43.8942476" lon="12.379445"><ele>524.0</ele><time>2026-04-26T13:19:18.027Z</time></trkpt><trkpt lat="43.8941631" lon="12.3794419"><ele>524.5</ele><time>2026-04-26T13:19:20.025Z</time></trkpt><trkpt lat="43.8941005" lon="12.3795079"><ele>525.0</ele><time>2026-04-26T13:19:22.032Z</time></trkpt><trkpt lat="43.8940249" lon="12.3794695"><ele>525.5</ele><time>2026-04-26T13:19:25.865Z</time></trkpt><trkpt lat="43.8940154" lon="12.3793811"><ele>526.0</ele><time>2026-04-26T13:19:38.024Z</time></trkpt><trkpt lat="43.8941316" lon="12.3792547"><ele>526.0</ele><time>2026-04-26T13:19:40.024Z</time></trkpt><trkpt lat="43.8942368" lon="12.3791593"><ele>526.0</ele><time>2026-04-26T13:19:41.025Z</time></trkpt><trkpt lat="43.8943454" lon="12.3790871"><ele>526.0</ele><time>2026-04-26T13:19:42.025Z</time></trkpt><trkpt lat="43.8944436" lon="12.3790485"><ele>526.0</ele><time>2026-04-26T13:19:43.024Z</time></trkpt><trkpt lat="43.89453" lon="12.379034"><ele>526.0</ele><time>2026-04-26T13:19:44.029Z</time></trkpt><trkpt lat="43.894613" lon="12.3790384"><ele>523.0</ele><time>2026-04-26T13:19:45.026Z</time></trkpt><trkpt lat="43.8946972" lon="12.3790615"><ele>520.0</ele><time>2026-04-26T13:19:46.027Z</time></trkpt><trkpt lat="43.89478" lon="12.3791045"><ele>517.0</ele><time>2026-04-26T13:19:47.025Z</time></trkpt><trkpt lat="43.894858" lon="12.3791749"><ele>514.0</ele><time>2026-04-26T13:19:48.026Z</time></trkpt><trkpt lat="43.8949223" lon="12.3792704"><ele>511.0</ele><time>2026-04-26T13:19:49.024Z</time></trkpt><trkpt lat="43.8949727" lon="12.3793738"><ele>511.00000000000006</ele><time>2026-04-26T13:19:50.03Z</time></trkpt><trkpt lat="43.8950141" lon="12.3794686"><ele>511.0</ele><time>2026-04-26T13:19:51.025Z</time></trkpt><trkpt lat="43.8950569" lon="12.3795512"><ele>511.0</ele><time>2026-04-26T13:19:52.028Z</time></trkpt><trkpt lat="43.8951447" lon="12.3796385"><ele>511.0</ele><time>2026-04-26T13:19:54.024Z</time></trkpt><trkpt lat="43.8951985" lon="12.3795728"><ele>511.00000000000006</ele><time>2026-04-26T13:19:56.029Z</time></trkpt><trkpt lat="43.8951802" lon="12.3794669"><ele>511.0</ele><time>2026-04-26T13:19:57.023Z</time></trkpt><trkpt lat="43.8951485" lon="12.3793501"><ele>511.0</ele><time>2026-04-26T13:19:58.025Z</time></trkpt><trkpt lat="43.8950944" lon="12.3792222"><ele>511.0</ele><time>2026-04-26T13:19:59.026Z</time></trkpt><trkpt lat="43.8950182" lon="12.3790853"><ele>511.0</ele><time>2026-04-26T13:20:00.027Z</time></trkpt><trkpt lat="43.8949438" lon="12.378956"><ele>511.0</ele><time>2026-04-26T13:20:01.03Z</time></trkpt><trkpt lat="43.8948713" lon="12.378836"><ele>508.20000000000005</ele><time>2026-04-26T13:20:02.025Z</time></trkpt><trkpt lat="43.894799" lon="12.3787186"><ele>505.40000000000003</ele><time>2026-04-26T13:20:03.029Z</time></trkpt><trkpt lat="43.8947213" lon="12.3786052"><ele>502.6</ele><time>2026-04-26T13:20:04.024Z</time></trkpt><trkpt lat="43.8946497" lon="12.3784996"><ele>499.8</ele><time>2026-04-26T13:20:05.025Z</time></trkpt><trkpt lat="43.8945793" lon="12.3783989"><ele>497.0</ele><time>2026-04-26T13:20:06.027Z</time></trkpt><trkpt lat="43.8945127" lon="12.3782949"><ele>497.0</ele><time>2026-04-26T13:20:07.024Z</time></trkpt><trkpt lat="43.8944591" lon="12.3781777"><ele>497.00000000000006</ele><time>2026-04-26T13:20:08.028Z</time></trkpt><trkpt lat="43.8944355" lon="12.378051"><ele>497.00000000000006</ele><time>2026-04-26T13:20:09.026Z</time></trkpt><trkpt lat="43.8944467" lon="12.3779163"><ele>497.0</ele><time>2026-04-26T13:20:10.029Z</time></trkpt><trkpt lat="43.8944922" lon="12.3777787"><ele>497.0</ele><time>2026-04-26T13:20:11.023Z</time></trkpt><trkpt lat="43.8945653" lon="12.3776362"><ele>496.0</ele><time>2026-04-26T13:20:12.028Z</time></trkpt><trkpt lat="43.8946379" lon="12.3774901"><ele>495.0</ele><time>2026-04-26T13:20:13.021Z</time></trkpt><trkpt lat="43.8946958" lon="12.3773383"><ele>494.0</ele><time>2026-04-26T13:20:14.025Z</time></trkpt><trkpt lat="43.8947275" lon="12.3771794"><ele>493.0</ele><time>2026-04-26T13:20:15.025Z</time></trkpt><trkpt lat="43.8947352" lon="12.3770173"><ele>491.75</ele><time>2026-04-26T13:20:16.023Z</time></trkpt><trkpt lat="43.8947239" lon="12.3768471"><ele>490.5</ele><time>2026-04-26T13:20:17.025Z</time></trkpt><trkpt lat="43.8947043" lon="12.3766681"><ele>489.25</ele><time>2026-04-26T13:20:18.023Z</time></trkpt><trkpt lat="43.8946743" lon="12.3764835"><ele>488.0</ele><time>2026-04-26T13:20:19.028Z</time></trkpt><trkpt lat="43.8946412" lon="12.3762932"><ele>487.25</ele><time>2026-04-26T13:20:20.025Z</time></trkpt><trkpt lat="43.8946146" lon="12.3760993"><ele>486.5</ele><time>2026-04-26T13:20:21.023Z</time></trkpt><trkpt lat="43.8945853" lon="12.3759066"><ele>485.75</ele><time>2026-04-26T13:20:22.023Z</time></trkpt><trkpt lat="43.8945478" lon="12.3757111"><ele>485.0</ele><time>2026-04-26T13:20:23.025Z</time></trkpt><trkpt lat="43.8944973" lon="12.3755014"><ele>484.0</ele><time>2026-04-26T13:20:24.025Z</time></trkpt><trkpt lat="43.894435" lon="12.3752935"><ele>483.0</ele><time>2026-04-26T13:20:25.024Z</time></trkpt><trkpt lat="43.8943676" lon="12.3750983"><ele>482.0</ele><time>2026-04-26T13:20:26.027Z</time></trkpt><trkpt lat="43.8943036" lon="12.374916"><ele>487.75</ele><time>2026-04-26T13:20:27.024Z</time></trkpt><trkpt lat="43.8942536" lon="12.3747352"><ele>493.5</ele><time>2026-04-26T13:20:28.024Z</time></trkpt><trkpt lat="43.894222" lon="12.3745614"><ele>499.25</ele><time>2026-04-26T13:20:29.024Z</time></trkpt><trkpt lat="43.8942121" lon="12.3744007"><ele>505.0</ele><time>2026-04-26T13:20:30.024Z</time></trkpt><trkpt lat="43.894223" lon="12.3742504"><ele>501.25</ele><time>2026-04-26T13:20:31.031Z</time></trkpt><trkpt lat="43.8942607" lon="12.3741028"><ele>497.5</ele><time>2026-04-26T13:20:32.021Z</time></trkpt><trkpt lat="43.8943133" lon="12.3739631"><ele>493.75</ele><time>2026-04-26T13:20:33.027Z</time></trkpt><trkpt lat="43.8943663" lon="12.3738245"><ele>490.0</ele><time>2026-04-26T13:20:34.024Z</time></trkpt><trkpt lat="43.8944132" lon="12.3736707"><ele>490.0</ele><time>2026-04-26T13:20:35.022Z</time></trkpt><trkpt lat="43.8944552" lon="12.3735017"><ele>490.0</ele><time>2026-04-26T13:20:36.029Z</time></trkpt><trkpt lat="43.8944994" lon="12.3733415"><ele>490.0</ele><time>2026-04-26T13:20:37.024Z</time></trkpt><trkpt lat="43.8945445" lon="12.373204"><ele>490.0</ele><time>2026-04-26T13:20:38.026Z</time></trkpt><trkpt lat="43.8946054" lon="12.373098"><ele>490.0</ele><time>2026-04-26T13:20:39.027Z</time></trkpt><trkpt lat="43.8946918" lon="12.3730343"><ele>490.0</ele><time>2026-04-26T13:20:40.023Z</time></trkpt><trkpt lat="43.8948027" lon="12.3730044"><ele>490.0</ele><time>2026-04-26T13:20:41.024Z</time></trkpt><trkpt lat="43.8949151" lon="12.3729942"><ele>490.0</ele><time>2026-04-26T13:20:42.029Z</time></trkpt><trkpt lat="43.8950184" lon="12.3729833"><ele>490.0</ele><time>2026-04-26T13:20:43.026Z</time></trkpt><trkpt lat="43.8951097" lon="12.3729553"><ele>487.8</ele><time>2026-04-26T13:20:44.03Z</time></trkpt><trkpt lat="43.895185" lon="12.3728972"><ele>485.6</ele><time>2026-04-26T13:20:45.024Z</time></trkpt><trkpt lat="43.895245" lon="12.3728109"><ele>483.4</ele><time>2026-04-26T13:20:46.024Z</time></trkpt><trkpt lat="43.8952695" lon="12.3726877"><ele>481.2</ele><time>2026-04-26T13:20:47.023Z</time></trkpt><trkpt lat="43.8952746" lon="12.3725454"><ele>479.0</ele><time>2026-04-26T13:20:48.024Z</time></trkpt><trkpt lat="43.8952652" lon="12.3723998"><ele>479.0</ele><time>2026-04-26T13:20:49.025Z</time></trkpt><trkpt lat="43.895242" lon="12.3722267"><ele>479.0</ele><time>2026-04-26T13:20:50.03Z</time></trkpt><trkpt lat="43.8952092" lon="12.3720275"><ele>479.0</ele><time>2026-04-26T13:20:51.025Z</time></trkpt><trkpt lat="43.8951788" lon="12.3718134"><ele>479.0</ele><time>2026-04-26T13:20:52.025Z</time></trkpt><trkpt lat="43.895154" lon="12.3715851"><ele>483.3333333333333</ele><time>2026-04-26T13:20:53.025Z</time></trkpt><trkpt lat="43.895126" lon="12.3713524"><ele>487.66666666666663</ele><time>2026-04-26T13:20:54.025Z</time></trkpt><trkpt lat="43.8951005" lon="12.3711269"><ele>492.0</ele><time>2026-04-26T13:20:55.026Z</time></trkpt><trkpt lat="43.8950794" lon="12.3709135"><ele>492.0</ele><time>2026-04-26T13:20:56.024Z</time></trkpt><trkpt lat="43.8950621" lon="12.3707175"><ele>492.0</ele><time>2026-04-26T13:20:57.025Z</time></trkpt><trkpt lat="43.8950471" lon="12.3705435"><ele>492.0</ele><time>2026-04-26T13:20:58.025Z</time></trkpt><trkpt lat="43.8950297" lon="12.3703873"><ele>492.0</ele><time>2026-04-26T13:20:59.024Z</time></trkpt><trkpt lat="43.8950116" lon="12.3702361"><ele>491.6</ele><time>2026-04-26T13:21:00.025Z</time></trkpt><trkpt lat="43.8949896" lon="12.3700964"><ele>491.20000000000005</ele><time>2026-04-26T13:21:01.025Z</time></trkpt><trkpt lat="43.8949617" lon="12.3699605"><ele>490.8</ele><time>2026-04-26T13:21:02.025Z</time></trkpt><trkpt lat="43.8949246" lon="12.3698325"><ele>490.4</ele><time>2026-04-26T13:21:03.023Z</time></trkpt><trkpt lat="43.8948723" lon="12.369714"><ele>490.0</ele><time>2026-04-26T13:21:04.027Z</time></trkpt><trkpt lat="43.894798" lon="12.3696182"><ele>487.8</ele><time>2026-04-26T13:21:05.024Z</time></trkpt><trkpt lat="43.8947122" lon="12.3695459"><ele>485.6</ele><time>2026-04-26T13:21:06.025Z</time></trkpt><trkpt lat="43.8946168" lon="12.3695027"><ele>483.4</ele><time>2026-04-26T13:21:07.025Z</time></trkpt><trkpt lat="43.8945043" lon="12.3694792"><ele>481.2</ele><time>2026-04-26T13:21:08.025Z</time></trkpt><trkpt lat="43.8943892" lon="12.3694636"><ele>479.0</ele><time>2026-04-26T13:21:09.031Z</time></trkpt><trkpt lat="43.8942784" lon="12.3694371"><ele>482.0</ele><time>2026-04-26T13:21:10.025Z</time></trkpt><trkpt lat="43.8941718" lon="12.3693795"><ele>485.0</ele><time>2026-04-26T13:21:11.025Z</time></trkpt><trkpt lat="43.8940787" lon="12.3692797"><ele>488.0</ele><time>2026-04-26T13:21:12.025Z</time></trkpt><trkpt lat="43.8940034" lon="12.3691504"><ele>491.0</ele><time>2026-04-26T13:21:13.026Z</time></trkpt><trkpt lat="43.8939531" lon="12.3689975"><ele>488.8</ele><time>2026-04-26T13:21:14.027Z</time></trkpt><trkpt lat="43.8939171" lon="12.36884"><ele>486.6</ele><time>2026-04-26T13:21:15.027Z</time></trkpt><trkpt lat="43.8938863" lon="12.3686964"><ele>484.4</ele><time>2026-04-26T13:21:16.024Z</time></trkpt><trkpt lat="43.8938553" lon="12.3685576"><ele>482.2</ele><time>2026-04-26T13:21:17.028Z</time></trkpt><trkpt lat="43.8938308" lon="12.3684172"><ele>480.0</ele><time>2026-04-26T13:21:18.026Z</time></trkpt><trkpt lat="43.8938193" lon="12.3682566"><ele>480.0</ele><time>2026-04-26T13:21:19.029Z</time></trkpt><trkpt lat="43.8938171" lon="12.3680886"><ele>480.0</ele><time>2026-04-26T13:21:20.025Z</time></trkpt><trkpt lat="43.8938127" lon="12.3679229"><ele>480.0</ele><time>2026-04-26T13:21:21.027Z</time></trkpt><trkpt lat="43.893804" lon="12.3677604"><ele>480.0</ele><time>2026-04-26T13:21:22.023Z</time></trkpt><trkpt lat="43.8937883" lon="12.3676157"><ele>481.8</ele><time>2026-04-26T13:21:23.025Z</time></trkpt><trkpt lat="43.8937588" lon="12.3674943"><ele>483.6</ele><time>2026-04-26T13:21:24.025Z</time></trkpt><trkpt lat="43.8937108" lon="12.3673867"><ele>485.4</ele><time>2026-04-26T13:21:25.025Z</time></trkpt><trkpt lat="43.8936364" lon="12.3672966"><ele>487.2</ele><time>2026-04-26T13:21:26.026Z</time></trkpt><trkpt lat="43.8935247" lon="12.3672369"><ele>489.0</ele><time>2026-04-26T13:21:27.026Z</time></trkpt><trkpt lat="43.8934069" lon="12.3671987"><ele>487.2</ele><time>2026-04-26T13:21:28.026Z</time></trkpt><trkpt lat="43.8932971" lon="12.3671609"><ele>485.4</ele><time>2026-04-26T13:21:29.024Z</time></trkpt><trkpt lat="43.8931982" lon="12.3671047"><ele>483.6</ele><time>2026-04-26T13:21:30.032Z</time></trkpt><trkpt lat="43.8931244" lon="12.3670201"><ele>481.8</ele><time>2026-04-26T13:21:31.026Z</time></trkpt><trkpt lat="43.8930818" lon="12.3669057"><ele>480.0</ele><time>2026-04-26T13:21:32.026Z</time></trkpt><trkpt lat="43.8930598" lon="12.366784"><ele>480.0</ele><time>2026-04-26T13:21:33.025Z</time></trkpt><trkpt lat="43.8930498" lon="12.3666576"><ele>480.0</ele><time>2026-04-26T13:21:34.024Z</time></trkpt><trkpt lat="43.8930747" lon="12.3665185"><ele>480.0</ele><time>2026-04-26T13:21:35.024Z</time></trkpt><trkpt lat="43.8931443" lon="12.3663692"><ele>480.0</ele><time>2026-04-26T13:21:36.031Z</time></trkpt><trkpt lat="43.8932238" lon="12.3662252"><ele>480.0</ele><time>2026-04-26T13:21:37.024Z</time></trkpt><trkpt lat="43.8933077" lon="12.3660936"><ele>480.0</ele><time>2026-04-26T13:21:38.024Z</time></trkpt><trkpt lat="43.8933894" lon="12.365976"><ele>480.0</ele><time>2026-04-26T13:21:39.027Z</time></trkpt><trkpt lat="43.8934749" lon="12.3658738"><ele>480.0</ele><time>2026-04-26T13:21:40.023Z</time></trkpt><trkpt lat="43.8935661" lon="12.365778"><ele>474.25</ele><time>2026-04-26T13:21:41.023Z</time></trkpt><trkpt lat="43.8936544" lon="12.3656712"><ele>468.5</ele><time>2026-04-26T13:21:42.023Z</time></trkpt><trkpt lat="43.8937314" lon="12.3655548"><ele>462.75</ele><time>2026-04-26T13:21:43.023Z</time></trkpt><trkpt lat="43.8937948" lon="12.3654217"><ele>457.0</ele><time>2026-04-26T13:21:44.026Z</time></trkpt><trkpt lat="43.8938435" lon="12.3652748"><ele>455.25</ele><time>2026-04-26T13:21:45.029Z</time></trkpt><trkpt lat="43.8938762" lon="12.3651093"><ele>453.5</ele><time>2026-04-26T13:21:46.022Z</time></trkpt><trkpt lat="43.8939013" lon="12.3649387"><ele>451.75</ele><time>2026-04-26T13:21:47.024Z</time></trkpt><trkpt lat="43.8939116" lon="12.3647669"><ele>450.0</ele><time>2026-04-26T13:21:48.025Z</time></trkpt><trkpt lat="43.8939123" lon="12.3646079"><ele>448.6</ele><time>2026-04-26T13:21:49.023Z</time></trkpt><trkpt lat="43.8939026" lon="12.3644676"><ele>447.2</ele><time>2026-04-26T13:21:50.03Z</time></trkpt><trkpt lat="43.8938795" lon="12.3643445"><ele>445.79999999999995</ele><time>2026-04-26T13:21:51.024Z</time></trkpt><trkpt lat="43.8938466" lon="12.3642328"><ele>444.4</ele><time>2026-04-26T13:21:52.023Z</time></trkpt><trkpt lat="43.8937984" lon="12.3641316"><ele>443.0</ele><time>2026-04-26T13:21:53.023Z</time></trkpt><trkpt lat="43.8937403" lon="12.364048"><ele>442.99999999999994</ele><time>2026-04-26T13:21:54.025Z</time></trkpt><trkpt lat="43.8936896" lon="12.3639623"><ele>443.0</ele><time>2026-04-26T13:21:55.029Z</time></trkpt><trkpt lat="43.8936612" lon="12.3638672"><ele>443.0</ele><time>2026-04-26T13:21:56.022Z</time></trkpt><trkpt lat="43.8936551" lon="12.3637711"><ele>443.0</ele><time>2026-04-26T13:21:57.025Z</time></trkpt><trkpt lat="43.8937246" lon="12.3636916"><ele>442.99999999999994</ele><time>2026-04-26T13:21:58.025Z</time></trkpt><trkpt lat="43.8938083" lon="12.3636316"><ele>443.0</ele><time>2026-04-26T13:21:59.023Z</time></trkpt><trkpt lat="43.8938995" lon="12.3635946"><ele>442.0</ele><time>2026-04-26T13:22:00.026Z</time></trkpt><trkpt lat="43.8940068" lon="12.363586"><ele>441.0</ele><time>2026-04-26T13:22:01.023Z</time></trkpt><trkpt lat="43.8941535" lon="12.3636476"><ele>440.0</ele><time>2026-04-26T13:22:02.024Z</time></trkpt><trkpt lat="43.8943093" lon="12.363742"><ele>439.0</ele><time>2026-04-26T13:22:03.024Z</time></trkpt><trkpt lat="43.8944625" lon="12.3638654"><ele>436.33333333333337</ele><time>2026-04-26T13:22:04.026Z</time></trkpt><trkpt lat="43.8946088" lon="12.3639872"><ele>433.66666666666663</ele><time>2026-04-26T13:22:05.027Z</time></trkpt><trkpt lat="43.8947469" lon="12.3640964"><ele>431.0</ele><time>2026-04-26T13:22:06.027Z</time></trkpt><trkpt lat="43.8948833" lon="12.3642039"><ele>431.0</ele><time>2026-04-26T13:22:07.027Z</time></trkpt><trkpt lat="43.8950099" lon="12.3643016"><ele>431.0</ele><time>2026-04-26T13:22:08.025Z</time></trkpt><trkpt lat="43.8951227" lon="12.364391"><ele>431.0</ele><time>2026-04-26T13:22:09.028Z</time></trkpt><trkpt lat="43.8952237" lon="12.3644661"><ele>431.0</ele><time>2026-04-26T13:22:10.022Z</time></trkpt><trkpt lat="43.8953134" lon="12.3645089"><ele>432.49999999999994</ele><time>2026-04-26T13:22:11.024Z</time></trkpt><trkpt lat="43.8953944" lon="12.3645273"><ele>434.0</ele><time>2026-04-26T13:22:12.023Z</time></trkpt><trkpt lat="43.8954573" lon="12.3645057"><ele>435.5</ele><time>2026-04-26T13:22:13.023Z</time></trkpt><trkpt lat="43.8954659" lon="12.3644009"><ele>437.0</ele><time>2026-04-26T13:22:14.027Z</time></trkpt><trkpt lat="43.8954632" lon="12.3642749"><ele>438.49999999999994</ele><time>2026-04-26T13:22:15.024Z</time></trkpt><trkpt lat="43.8954714" lon="12.3641666"><ele>440.0</ele><time>2026-04-26T13:22:16.025Z</time></trkpt><trkpt lat="43.8955211" lon="12.364063"><ele>440.0</ele><time>2026-04-26T13:22:18.024Z</time></trkpt><trkpt lat="43.8956036" lon="12.3641622"><ele>440.0</ele><time>2026-04-26T13:22:20.024Z</time></trkpt><trkpt lat="43.8956376" lon="12.3642796"><ele>440.0</ele><time>2026-04-26T13:22:21.024Z</time></trkpt><trkpt lat="43.8956757" lon="12.3644048"><ele>440.0</ele><time>2026-04-26T13:22:22.029Z</time></trkpt><trkpt lat="43.8957243" lon="12.364524"><ele>440.0</ele><time>2026-04-26T13:22:23.024Z</time></trkpt><trkpt lat="43.8957851" lon="12.3646225"><ele>439.0</ele><time>2026-04-26T13:22:24.023Z</time></trkpt><trkpt lat="43.895855" lon="12.3647021"><ele>438.0</ele><time>2026-04-26T13:22:25.026Z</time></trkpt><trkpt lat="43.8959473" lon="12.3647546"><ele>437.0</ele><time>2026-04-26T13:22:26.025Z</time></trkpt><trkpt lat="43.8960851" lon="12.364781"><ele>436.0</ele><time>2026-04-26T13:22:27.024Z</time></trkpt><trkpt lat="43.8962379" lon="12.3648019"><ele>438.5</ele><time>2026-04-26T13:22:28.026Z</time></trkpt><trkpt lat="43.8963936" lon="12.3648221"><ele>441.0</ele><time>2026-04-26T13:22:29.024Z</time></trkpt><trkpt lat="43.8965322" lon="12.3648278"><ele>443.5</ele><time>2026-04-26T13:22:30.023Z</time></trkpt><trkpt lat="43.8966449" lon="12.3648119"><ele>446.0</ele><time>2026-04-26T13:22:31.026Z</time></trkpt><trkpt lat="43.8967351" lon="12.3647636"><ele>445.99999999999994</ele><time>2026-04-26T13:22:32.024Z</time></trkpt><trkpt lat="43.8968077" lon="12.3647025"><ele>446.0</ele><time>2026-04-26T13:22:33.026Z</time></trkpt><trkpt lat="43.8968502" lon="12.3646224"><ele>446.0</ele><time>2026-04-26T13:22:34.025Z</time></trkpt><trkpt lat="43.8968723" lon="12.364507"><ele>446.0</ele><time>2026-04-26T13:22:36.023Z</time></trkpt><trkpt lat="43.8968595" lon="12.3644016"><ele>445.99999999999994</ele><time>2026-04-26T13:22:39.025Z</time></trkpt><trkpt lat="43.8968234" lon="12.3642523"><ele>446.0</ele><time>2026-04-26T13:22:41.023Z</time></trkpt><trkpt lat="43.8968108" lon="12.364155"><ele>447.99999999999994</ele><time>2026-04-26T13:22:42.027Z</time></trkpt><trkpt lat="43.8968042" lon="12.3640561"><ele>450.0</ele><time>2026-04-26T13:22:43.025Z</time></trkpt><trkpt lat="43.8968015" lon="12.3639589"><ele>452.0</ele><time>2026-04-26T13:22:44.025Z</time></trkpt><trkpt lat="43.8967983" lon="12.3638681"><ele>454.0</ele><time>2026-04-26T13:22:45.025Z</time></trkpt><trkpt lat="43.8967921" lon="12.3637791"><ele>455.99999999999994</ele><time>2026-04-26T13:22:46.033Z</time></trkpt><trkpt lat="43.8967801" lon="12.3636216"><ele>458.0</ele><time>2026-04-26T13:22:48.026Z</time></trkpt><trkpt lat="43.8967805" lon="12.3635313"><ele>458.0</ele><time>2026-04-26T13:22:50.025Z</time></trkpt><trkpt lat="43.8967883" lon="12.3634167"><ele>457.99999999999994</ele><time>2026-04-26T13:23:01.024Z</time></trkpt><trkpt lat="43.8967733" lon="12.3635117"><ele>457.99999999999994</ele><time>2026-04-26T13:23:17.023Z</time></trkpt><trkpt lat="43.8967733" lon="12.36361"><ele>458.0</ele><time>2026-04-26T13:23:18.025Z</time></trkpt><trkpt lat="43.896785" lon="12.3637917"><ele>458.0</ele><time>2026-04-26T13:23:19.023Z</time></trkpt><trkpt lat="43.896785" lon="12.3639483"><ele>458.0</ele><time>2026-04-26T13:23:20.031Z</time></trkpt><trkpt lat="43.8967867" lon="12.364085"><ele>457.99999999999994</ele><time>2026-04-26T13:23:21.026Z</time></trkpt><trkpt lat="43.8967833" lon="12.364195"><ele>457.99999999999994</ele><time>2026-04-26T13:23:22.024Z</time></trkpt><trkpt lat="43.8967933" lon="12.3643533"><ele>458.0</ele><time>2026-04-26T13:23:24.028Z</time></trkpt><trkpt lat="43.8968483" lon="12.3644583"><ele>458.0</ele><time>2026-04-26T13:23:26.026Z</time></trkpt><trkpt lat="43.8969633" lon="12.3644783"><ele>458.0</ele><time>2026-04-26T13:23:28.026Z</time></trkpt><trkpt lat="43.8970417" lon="12.3644883"><ele>457.99999999999994</ele><time>2026-04-26T13:23:29.026Z</time></trkpt><trkpt lat="43.897145" lon="12.3644817"><ele>457.99999999999994</ele><time>2026-04-26T13:23:30.026Z</time></trkpt><trkpt lat="43.8972517" lon="12.3644683"><ele>458.0</ele><time>2026-04-26T13:23:31.025Z</time></trkpt><trkpt lat="43.8973433" lon="12.3644733"><ele>458.0</ele><time>2026-04-26T13:23:32.026Z</time></trkpt><trkpt lat="43.8974317" lon="12.3644967"><ele>457.99999999999994</ele><time>2026-04-26T13:23:33.027Z</time></trkpt><trkpt lat="43.89752" lon="12.3645167"><ele>458.0</ele><time>2026-04-26T13:23:34.023Z</time></trkpt><trkpt lat="43.8975983" lon="12.36453"><ele>458.0</ele><time>2026-04-26T13:23:35.028Z</time></trkpt><trkpt lat="43.89767" lon="12.3645467"><ele>458.0</ele><time>2026-04-26T13:23:36.026Z</time></trkpt><trkpt lat="43.89774" lon="12.3645867"><ele>457.99999999999994</ele><time>2026-04-26T13:23:37.027Z</time></trkpt><trkpt lat="43.8978" lon="12.3646533"><ele>458.0</ele><time>2026-04-26T13:23:38.027Z</time></trkpt><trkpt lat="43.89786" lon="12.364745"><ele>454.75</ele><time>2026-04-26T13:23:39.024Z</time></trkpt><trkpt lat="43.8979283" lon="12.36489"><ele>451.5</ele><time>2026-04-26T13:23:40.025Z</time></trkpt><trkpt lat="43.8980033" lon="12.3650333"><ele>448.25</ele><time>2026-04-26T13:23:41.024Z</time></trkpt><trkpt lat="43.8980783" lon="12.36517"><ele>445.0</ele><time>2026-04-26T13:23:42.024Z</time></trkpt><trkpt lat="43.8981467" lon="12.36529"><ele>445.0</ele><time>2026-04-26T13:23:43.026Z</time></trkpt><trkpt lat="43.8982117" lon="12.3654067"><ele>445.0</ele><time>2026-04-26T13:23:44.028Z</time></trkpt><trkpt lat="43.898275" lon="12.365515"><ele>445.0</ele><time>2026-04-26T13:23:45.025Z</time></trkpt><trkpt lat="43.8983417" lon="12.3656117"><ele>445.0</ele><time>2026-04-26T13:23:46.021Z</time></trkpt><trkpt lat="43.898415" lon="12.3656867"><ele>445.0</ele><time>2026-04-26T13:23:47.024Z</time></trkpt><trkpt lat="43.8985017" lon="12.3657467"><ele>443.6</ele><time>2026-04-26T13:23:48.022Z</time></trkpt><trkpt lat="43.8985933" lon="12.365795"><ele>442.2</ele><time>2026-04-26T13:23:49.023Z</time></trkpt><trkpt lat="43.89869" lon="12.3658417"><ele>440.79999999999995</ele><time>2026-04-26T13:23:50.026Z</time></trkpt><trkpt lat="43.8987817" lon="12.3658883"><ele>439.4</ele><time>2026-04-26T13:23:51.023Z</time></trkpt><trkpt lat="43.8988667" lon="12.365935"><ele>438.0</ele><time>2026-04-26T13:23:52.026Z</time></trkpt><trkpt lat="43.898945" lon="12.36597"><ele>438.0</ele><time>2026-04-26T13:23:53.025Z</time></trkpt><trkpt lat="43.899025" lon="12.3660033"><ele>437.99999999999994</ele><time>2026-04-26T13:23:54.029Z</time></trkpt><trkpt lat="43.8991067" lon="12.3660417"><ele>437.99999999999994</ele><time>2026-04-26T13:23:55.025Z</time></trkpt><trkpt lat="43.8991883" lon="12.36609"><ele>438.0</ele><time>2026-04-26T13:23:56.025Z</time></trkpt><trkpt lat="43.8992833" lon="12.3661533"><ele>438.0</ele><time>2026-04-26T13:23:57.025Z</time></trkpt><trkpt lat="43.8993817" lon="12.366225"><ele>437.2</ele><time>2026-04-26T13:23:58.025Z</time></trkpt><trkpt lat="43.8994767" lon="12.3662967"><ele>436.4</ele><time>2026-04-26T13:23:59.028Z</time></trkpt><trkpt lat="43.899565" lon="12.3663733"><ele>435.59999999999997</ele><time>2026-04-26T13:24:00.027Z</time></trkpt><trkpt lat="43.8996467" lon="12.3664467"><ele>434.79999999999995</ele><time>2026-04-26T13:24:01.025Z</time></trkpt><trkpt lat="43.8997217" lon="12.366515"><ele>434.0</ele><time>2026-04-26T13:24:02.024Z</time></trkpt><trkpt lat="43.899795" lon="12.3665783"><ele>431.66666666666663</ele><time>2026-04-26T13:24:03.032Z</time></trkpt><trkpt lat="43.8998633" lon="12.3666367"><ele>429.3333333333333</ele><time>2026-04-26T13:24:04.026Z</time></trkpt><trkpt lat="43.8999217" lon="12.36669"><ele>427.0</ele><time>2026-04-26T13:24:05.024Z</time></trkpt><trkpt lat="43.90002" lon="12.3667717"><ele>424.66666666666663</ele><time>2026-04-26T13:24:07.026Z</time></trkpt><trkpt lat="43.90008" lon="12.3668033"><ele>422.3333333333333</ele><time>2026-04-26T13:24:08.026Z</time></trkpt><trkpt lat="43.9001517" lon="12.366835"><ele>420.0</ele><time>2026-04-26T13:24:09.024Z</time></trkpt><trkpt lat="43.900235" lon="12.3668633"><ele>417.4</ele><time>2026-04-26T13:24:10.025Z</time></trkpt><trkpt lat="43.900325" lon="12.36689"><ele>414.8</ele><time>2026-04-26T13:24:11.023Z</time></trkpt><trkpt lat="43.9004233" lon="12.36692"><ele>412.20000000000005</ele><time>2026-04-26T13:24:12.022Z</time></trkpt><trkpt lat="43.900525" lon="12.366955"><ele>409.6</ele><time>2026-04-26T13:24:13.027Z</time></trkpt><trkpt lat="43.900625" lon="12.3669967"><ele>407.0</ele><time>2026-04-26T13:24:14.024Z</time></trkpt><trkpt lat="43.90072" lon="12.3670433"><ele>406.99999999999994</ele><time>2026-04-26T13:24:15.024Z</time></trkpt><trkpt lat="43.9008133" lon="12.3670867"><ele>407.0</ele><time>2026-04-26T13:24:16.031Z</time></trkpt><trkpt lat="43.9009033" lon="12.3671283"><ele>407.0</ele><time>2026-04-26T13:24:17.022Z</time></trkpt><trkpt lat="43.900985" lon="12.3671633"><ele>407.0</ele><time>2026-04-26T13:24:18.024Z</time></trkpt><trkpt lat="43.90106" lon="12.367195"><ele>406.99999999999994</ele><time>2026-04-26T13:24:19.024Z</time></trkpt><trkpt lat="43.9011283" lon="12.367225"><ele>407.0</ele><time>2026-04-26T13:24:20.023Z</time></trkpt><trkpt lat="43.9011967" lon="12.3672533"><ele>405.99999999999994</ele><time>2026-04-26T13:24:21.024Z</time></trkpt><trkpt lat="43.9012617" lon="12.367285"><ele>405.0</ele><time>2026-04-26T13:24:22.023Z</time></trkpt><trkpt lat="43.9013233" lon="12.367335"><ele>404.0</ele><time>2026-04-26T13:24:23.026Z</time></trkpt><trkpt lat="43.90138" lon="12.36741"><ele>403.0</ele><time>2026-04-26T13:24:24.025Z</time></trkpt><trkpt lat="43.9014367" lon="12.3674917"><ele>401.99999999999994</ele><time>2026-04-26T13:24:25.028Z</time></trkpt><trkpt lat="43.901495" lon="12.36757"><ele>401.0</ele><time>2026-04-26T13:24:26.024Z</time></trkpt><trkpt lat="43.90156" lon="12.3676417"><ele>401.0</ele><time>2026-04-26T13:24:27.025Z</time></trkpt><trkpt lat="43.9016217" lon="12.3677083"><ele>401.0</ele><time>2026-04-26T13:24:28.026Z</time></trkpt><trkpt lat="43.9016783" lon="12.3677733"><ele>401.0</ele><time>2026-04-26T13:24:29.023Z</time></trkpt><trkpt lat="43.90178" lon="12.36784"><ele>401.0</ele><time>2026-04-26T13:24:31.025Z</time></trkpt><trkpt lat="43.9019017" lon="12.36784"><ele>401.0</ele><time>2026-04-26T13:24:33.023Z</time></trkpt><trkpt lat="43.9019733" lon="12.3678333"><ele>401.66666666666663</ele><time>2026-04-26T13:24:34.023Z</time></trkpt><trkpt lat="43.9020583" lon="12.3678117"><ele>402.3333333333333</ele><time>2026-04-26T13:24:35.024Z</time></trkpt><trkpt lat="43.9021483" lon="12.3677933"><ele>403.0</ele><time>2026-04-26T13:24:36.027Z</time></trkpt><trkpt lat="43.9022333" lon="12.3677783"><ele>403.66666666666663</ele><time>2026-04-26T13:24:37.025Z</time></trkpt><trkpt lat="43.902315" lon="12.3677633"><ele>404.3333333333333</ele><time>2026-04-26T13:24:38.025Z</time></trkpt><trkpt lat="43.90239" lon="12.367755"><ele>405.0</ele><time>2026-04-26T13:24:39.026Z</time></trkpt><trkpt lat="43.9024617" lon="12.3677583"><ele>405.0</ele><time>2026-04-26T13:24:40.024Z</time></trkpt><trkpt lat="43.9025383" lon="12.3677867"><ele>405.0</ele><time>2026-04-26T13:24:41.031Z</time></trkpt><trkpt lat="43.9026283" lon="12.3678517"><ele>405.0</ele><time>2026-04-26T13:24:42.024Z</time></trkpt><trkpt lat="43.90274" lon="12.36796"><ele>405.0</ele><time>2026-04-26T13:24:43.023Z</time></trkpt><trkpt lat="43.902865" lon="12.3680733"><ele>404.0</ele><time>2026-04-26T13:24:44.025Z</time></trkpt><trkpt lat="43.9029833" lon="12.3681917"><ele>403.0</ele><time>2026-04-26T13:24:45.025Z</time></trkpt><trkpt lat="43.9030967" lon="12.3683013"><ele>402.0</ele><time>2026-04-26T13:24:46.025Z</time></trkpt><trkpt lat="43.903208" lon="12.3683989"><ele>401.0</ele><time>2026-04-26T13:24:47.03Z</time></trkpt><trkpt lat="43.9033177" lon="12.3684823"><ele>400.25</ele><time>2026-04-26T13:24:48.026Z</time></trkpt><trkpt lat="43.9034294" lon="12.3685549"><ele>399.5</ele><time>2026-04-26T13:24:49.024Z</time></trkpt><trkpt lat="43.9035477" lon="12.3686215"><ele>398.75</ele><time>2026-04-26T13:24:50.025Z</time></trkpt><trkpt lat="43.9036691" lon="12.3686884"><ele>398.0</ele><time>2026-04-26T13:24:51.027Z</time></trkpt><trkpt lat="43.9037956" lon="12.3687567"><ele>398.0</ele><time>2026-04-26T13:24:52.028Z</time></trkpt><trkpt lat="43.9039199" lon="12.3688256"><ele>398.0</ele><time>2026-04-26T13:24:53.024Z</time></trkpt><trkpt lat="43.9040404" lon="12.3688943"><ele>398.0</ele><time>2026-04-26T13:24:54.024Z</time></trkpt><trkpt lat="43.9041598" lon="12.3689525"><ele>398.0</ele><time>2026-04-26T13:24:55.022Z</time></trkpt><trkpt lat="43.90428" lon="12.3689834"><ele>397.0</ele><time>2026-04-26T13:24:56.023Z</time></trkpt><trkpt lat="43.9044058" lon="12.3689805"><ele>396.0</ele><time>2026-04-26T13:24:57.025Z</time></trkpt><trkpt lat="43.9045332" lon="12.3689591"><ele>395.0</ele><time>2026-04-26T13:24:58.024Z</time></trkpt><trkpt lat="43.9046515" lon="12.3689384"><ele>394.0</ele><time>2026-04-26T13:24:59.024Z</time></trkpt><trkpt lat="43.904759" lon="12.3689241"><ele>394.00000000000006</ele><time>2026-04-26T13:25:00.025Z</time></trkpt><trkpt lat="43.9048535" lon="12.3689147"><ele>394.0</ele><time>2026-04-26T13:25:01.025Z</time></trkpt><trkpt lat="43.9049349" lon="12.3688864"><ele>394.0</ele><time>2026-04-26T13:25:02.683Z</time></trkpt><trkpt lat="43.9049934" lon="12.3689275"><ele>394.0</ele><time>2026-04-26T13:25:03.867Z</time></trkpt><trkpt lat="43.9050767" lon="12.3690066"><ele>394.00000000000006</ele><time>2026-04-26T13:25:06.021Z</time></trkpt><trkpt lat="43.905155" lon="12.3689929"><ele>394.0</ele><time>2026-04-26T13:25:09.1Z</time></trkpt><trkpt lat="43.9051529" lon="12.3688429"><ele>397.0</ele><time>2026-04-26T13:25:11.028Z</time></trkpt><trkpt lat="43.9051351" lon="12.3686983"><ele>400.0</ele><time>2026-04-26T13:25:12.024Z</time></trkpt><trkpt lat="43.9051211" lon="12.368531"><ele>403.0</ele><time>2026-04-26T13:25:13.026Z</time></trkpt><trkpt lat="43.9051121" lon="12.3683698"><ele>406.0</ele><time>2026-04-26T13:25:14.024Z</time></trkpt><trkpt lat="43.9051145" lon="12.368235"><ele>409.0</ele><time>2026-04-26T13:25:15.024Z</time></trkpt><trkpt lat="43.9051282" lon="12.368129"><ele>409.00000000000006</ele><time>2026-04-26T13:25:16.025Z</time></trkpt><trkpt lat="43.90515" lon="12.3680359"><ele>409.0</ele><time>2026-04-26T13:25:17.025Z</time></trkpt><trkpt lat="43.9051801" lon="12.3679575"><ele>409.0</ele><time>2026-04-26T13:25:18.027Z</time></trkpt><trkpt lat="43.9052953" lon="12.3678686"><ele>409.0</ele><time>2026-04-26T13:25:20.024Z</time></trkpt><trkpt lat="43.9053725" lon="12.3678258"><ele>409.00000000000006</ele><time>2026-04-26T13:25:21.024Z</time></trkpt><trkpt lat="43.9054589" lon="12.367758"><ele>409.0</ele><time>2026-04-26T13:25:22.024Z</time></trkpt><trkpt lat="43.9055506" lon="12.3676775"><ele>410.6</ele><time>2026-04-26T13:25:23.023Z</time></trkpt><trkpt lat="43.9056373" lon="12.3675777"><ele>412.2</ele><time>2026-04-26T13:25:24.026Z</time></trkpt><trkpt lat="43.9057241" lon="12.3674744"><ele>413.8</ele><time>2026-04-26T13:25:25.024Z</time></trkpt><trkpt lat="43.9058025" lon="12.3673759"><ele>415.40000000000003</ele><time>2026-04-26T13:25:26.028Z</time></trkpt><trkpt lat="43.9058762" lon="12.3672974"><ele>417.0</ele><time>2026-04-26T13:25:27.028Z</time></trkpt><trkpt lat="43.9059522" lon="12.3672451"><ele>418.8</ele><time>2026-04-26T13:25:28.024Z</time></trkpt><trkpt lat="43.9060352" lon="12.3672209"><ele>420.6</ele><time>2026-04-26T13:25:29.024Z</time></trkpt><trkpt lat="43.9061303" lon="12.3672251"><ele>422.40000000000003</ele><time>2026-04-26T13:25:30.025Z</time></trkpt><trkpt lat="43.9062314" lon="12.3672545"><ele>424.20000000000005</ele><time>2026-04-26T13:25:31.023Z</time></trkpt><trkpt lat="43.906336" lon="12.3673612"><ele>426.0</ele><time>2026-04-26T13:25:32.026Z</time></trkpt><trkpt lat="43.9064183" lon="12.3674723"><ele>426.0</ele><time>2026-04-26T13:25:33.024Z</time></trkpt><trkpt lat="43.9064892" lon="12.3675711"><ele>426.0</ele><time>2026-04-26T13:25:34.026Z</time></trkpt><trkpt lat="43.906555" lon="12.3676645"><ele>426.0</ele><time>2026-04-26T13:25:35.029Z</time></trkpt><trkpt lat="43.906632" lon="12.3676587"><ele>426.0</ele><time>2026-04-26T13:25:37.024Z</time></trkpt><trkpt lat="43.9066504" lon="12.367521"><ele>426.0</ele><time>2026-04-26T13:25:39.026Z</time></trkpt><trkpt lat="43.9066466" lon="12.3674058"><ele>426.0</ele><time>2026-04-26T13:25:40.024Z</time></trkpt><trkpt lat="43.9066528" lon="12.367307"><ele>426.0</ele><time>2026-04-26T13:25:41.027Z</time></trkpt><trkpt lat="43.906675" lon="12.3672033"><ele>426.0</ele><time>2026-04-26T13:25:42.026Z</time></trkpt><trkpt lat="43.9067146" lon="12.3671076"><ele>426.0</ele><time>2026-04-26T13:25:43.022Z</time></trkpt><trkpt lat="43.9067638" lon="12.367031"><ele>426.0</ele><time>2026-04-26T13:25:44.029Z</time></trkpt><trkpt lat="43.9068241" lon="12.3669677"><ele>426.0</ele><time>2026-04-26T13:25:45.025Z</time></trkpt><trkpt lat="43.9068961" lon="12.3669179"><ele>428.8333333333333</ele><time>2026-04-26T13:25:46.022Z</time></trkpt><trkpt lat="43.9069897" lon="12.3669077"><ele>431.66666666666663</ele><time>2026-04-26T13:25:47.024Z</time></trkpt><trkpt lat="43.9070759" lon="12.3668952"><ele>434.5</ele><time>2026-04-26T13:25:48.023Z</time></trkpt><trkpt lat="43.9071534" lon="12.3668968"><ele>437.3333333333333</ele><time>2026-04-26T13:25:49.024Z</time></trkpt><trkpt lat="43.907263" lon="12.3668979"><ele>440.16666666666663</ele><time>2026-04-26T13:25:51.025Z</time></trkpt><trkpt lat="43.9073351" lon="12.3668887"><ele>443.0</ele><time>2026-04-26T13:25:53.023Z</time></trkpt><trkpt lat="43.907415" lon="12.3668233"><ele>443.0</ele><time>2026-04-26T13:25:55.024Z</time></trkpt><trkpt lat="43.9074635" lon="12.3667673"><ele>442.99999999999994</ele><time>2026-04-26T13:25:56.022Z</time></trkpt><trkpt lat="43.9075227" lon="12.3666753"><ele>442.99999999999994</ele><time>2026-04-26T13:25:57.024Z</time></trkpt><trkpt lat="43.9075921" lon="12.3665274"><ele>443.0</ele><time>2026-04-26T13:25:58.028Z</time></trkpt><trkpt lat="43.9076618" lon="12.366361"><ele>443.0</ele><time>2026-04-26T13:25:59.023Z</time></trkpt><trkpt lat="43.9077195" lon="12.3661978"><ele>444.25</ele><time>2026-04-26T13:26:00.024Z</time></trkpt><trkpt lat="43.9077426" lon="12.3660404"><ele>445.5</ele><time>2026-04-26T13:26:01.023Z</time></trkpt><trkpt lat="43.9077247" lon="12.3658766"><ele>446.75</ele><time>2026-04-26T13:26:02.025Z</time></trkpt><trkpt lat="43.9076636" lon="12.3657116"><ele>448.0</ele><time>2026-04-26T13:26:03.024Z</time></trkpt><trkpt lat="43.9075732" lon="12.3655586"><ele>450.75</ele><time>2026-04-26T13:26:04.023Z</time></trkpt><trkpt lat="43.9074646" lon="12.3654104"><ele>453.5</ele><time>2026-04-26T13:26:05.024Z</time></trkpt><trkpt lat="43.9073561" lon="12.3652694"><ele>456.25</ele><time>2026-04-26T13:26:06.025Z</time></trkpt><trkpt lat="43.9072585" lon="12.3651379"><ele>459.0</ele><time>2026-04-26T13:26:07.027Z</time></trkpt><trkpt lat="43.9071739" lon="12.3650021"><ele>462.0</ele><time>2026-04-26T13:26:08.026Z</time></trkpt><trkpt lat="43.9069763" lon="12.364696"><ele>465.0</ele><time>2026-04-26T13:26:09.992Z</time></trkpt><trkpt lat="43.9069833" lon="12.364426"><ele>465.0</ele><time>2026-04-26T13:26:11.706Z</time></trkpt><trkpt lat="43.9071102" lon="12.3642352"><ele>465.0</ele><time>2026-04-26T13:26:12.706Z</time></trkpt><trkpt lat="43.9071763" lon="12.3640241"><ele>465.0</ele><time>2026-04-26T13:26:14.025Z</time></trkpt><trkpt lat="43.9071783" lon="12.363883"><ele>466.75</ele><time>2026-04-26T13:26:15.024Z</time></trkpt><trkpt lat="43.9071147" lon="12.3637188"><ele>468.5</ele><time>2026-04-26T13:26:16.021Z</time></trkpt><trkpt lat="43.907031" lon="12.3635809"><ele>470.25</ele><time>2026-04-26T13:26:17.023Z</time></trkpt><trkpt lat="43.9069229" lon="12.3634986"><ele>472.0</ele><time>2026-04-26T13:26:18.024Z</time></trkpt><trkpt lat="43.9067637" lon="12.3634846"><ele>472.25</ele><time>2026-04-26T13:26:19.026Z</time></trkpt><trkpt lat="43.9066135" lon="12.3634866"><ele>472.5</ele><time>2026-04-26T13:26:20.023Z</time></trkpt><trkpt lat="43.9064799" lon="12.363487"><ele>472.75</ele><time>2026-04-26T13:26:21.024Z</time></trkpt><trkpt lat="43.9063596" lon="12.3634779"><ele>473.0</ele><time>2026-04-26T13:26:22.026Z</time></trkpt><trkpt lat="43.9062432" lon="12.3634466"><ele>473.0</ele><time>2026-04-26T13:26:23.025Z</time></trkpt><trkpt lat="43.9061417" lon="12.3633962"><ele>472.99999999999994</ele><time>2026-04-26T13:26:24.026Z</time></trkpt><trkpt lat="43.9060471" lon="12.3633429"><ele>472.99999999999994</ele><time>2026-04-26T13:26:25.025Z</time></trkpt><trkpt lat="43.9060273" lon="12.363222"><ele>473.0</ele><time>2026-04-26T13:26:26.022Z</time></trkpt><trkpt lat="43.9060377" lon="12.3630455"><ele>473.0</ele><time>2026-04-26T13:26:27.024Z</time></trkpt><trkpt lat="43.9060497" lon="12.3628458"><ele>476.3333333333333</ele><time>2026-04-26T13:26:28.023Z</time></trkpt><trkpt lat="43.906055" lon="12.3626284"><ele>479.66666666666663</ele><time>2026-04-26T13:26:29.023Z</time></trkpt><trkpt lat="43.9060591" lon="12.3623937"><ele>483.0</ele><time>2026-04-26T13:26:30.023Z</time></trkpt><trkpt lat="43.906043" lon="12.3621497"><ele>483.33333333333337</ele><time>2026-04-26T13:26:31.023Z</time></trkpt><trkpt lat="43.9060018" lon="12.3619045"><ele>483.6666666666667</ele><time>2026-04-26T13:26:32.024Z</time></trkpt><trkpt lat="43.9059399" lon="12.3616537"><ele>484.0</ele><time>2026-04-26T13:26:33.029Z</time></trkpt><trkpt lat="43.9058599" lon="12.3614019"><ele>488.33333333333337</ele><time>2026-04-26T13:26:34.03Z</time></trkpt><trkpt lat="43.9057632" lon="12.3611579"><ele>492.66666666666663</ele><time>2026-04-26T13:26:35.026Z</time></trkpt><trkpt lat="43.9056531" lon="12.3609239"><ele>497.0</ele><time>2026-04-26T13:26:36.022Z</time></trkpt><trkpt lat="43.9055333" lon="12.3606933"><ele>501.0</ele><time>2026-04-26T13:26:37.025Z</time></trkpt><trkpt lat="43.9054217" lon="12.3604683"><ele>505.0</ele><time>2026-04-26T13:26:38.025Z</time></trkpt><trkpt lat="43.90531" lon="12.3602417"><ele>509.0</ele><time>2026-04-26T13:26:39.026Z</time></trkpt><trkpt lat="43.9052017" lon="12.3600133"><ele>509.0</ele><time>2026-04-26T13:26:40.023Z</time></trkpt><trkpt lat="43.9050967" lon="12.3597867"><ele>509.0</ele><time>2026-04-26T13:26:41.028Z</time></trkpt><trkpt lat="43.9049867" lon="12.3595667"><ele>509.0</ele><time>2026-04-26T13:26:42.023Z</time></trkpt><trkpt lat="43.9048783" lon="12.3593583"><ele>510.0</ele><time>2026-04-26T13:26:43.027Z</time></trkpt><trkpt lat="43.904785" lon="12.3591617"><ele>511.0</ele><time>2026-04-26T13:26:44.023Z</time></trkpt><trkpt lat="43.9047017" lon="12.3589817"><ele>512.0</ele><time>2026-04-26T13:26:45.025Z</time></trkpt><trkpt lat="43.904625" lon="12.3588233"><ele>516.4</ele><time>2026-04-26T13:26:46.024Z</time></trkpt><trkpt lat="43.90455" lon="12.3586817"><ele>520.8000000000001</ele><time>2026-04-26T13:26:47.023Z</time></trkpt><trkpt lat="43.904475" lon="12.35856"><ele>525.2</ele><time>2026-04-26T13:26:48.028Z</time></trkpt><trkpt lat="43.9044017" lon="12.3584683"><ele>529.6</ele><time>2026-04-26T13:26:49.025Z</time></trkpt><trkpt lat="43.90434" lon="12.3584033"><ele>534.0</ele><time>2026-04-26T13:26:50.022Z</time></trkpt><trkpt lat="43.904275" lon="12.3583"><ele>534.0</ele><time>2026-04-26T13:26:52.024Z</time></trkpt><trkpt lat="43.9043317" lon="12.3582383"><ele>534.0</ele><time>2026-04-26T13:26:55.026Z</time></trkpt><trkpt lat="43.9044183" lon="12.358305"><ele>534.0</ele><time>2026-04-26T13:26:56.025Z</time></trkpt><trkpt lat="43.9044933" lon="12.358345"><ele>534.0</ele><time>2026-04-26T13:26:57.028Z</time></trkpt><trkpt lat="43.9045917" lon="12.3583967"><ele>534.0</ele><time>2026-04-26T13:26:58.03Z</time></trkpt><trkpt lat="43.9047283" lon="12.358475"><ele>534.0</ele><time>2026-04-26T13:26:59.023Z</time></trkpt><trkpt lat="43.9048783" lon="12.3585683"><ele>534.0</ele><time>2026-04-26T13:27:00.026Z</time></trkpt><trkpt lat="43.905015" lon="12.3586583"><ele>534.0</ele><time>2026-04-26T13:27:01.024Z</time></trkpt><trkpt lat="43.9051417" lon="12.3587417"><ele>540.75</ele><time>2026-04-26T13:27:02.024Z</time></trkpt><trkpt lat="43.9052533" lon="12.3588033"><ele>547.5</ele><time>2026-04-26T13:27:03.025Z</time></trkpt><trkpt lat="43.9053617" lon="12.3588317"><ele>554.25</ele><time>2026-04-26T13:27:04.024Z</time></trkpt><trkpt lat="43.90547" lon="12.3588183"><ele>561.0</ele><time>2026-04-26T13:27:05.027Z</time></trkpt><trkpt lat="43.905585" lon="12.3587917"><ele>561.0</ele><time>2026-04-26T13:27:06.026Z</time></trkpt><trkpt lat="43.9057017" lon="12.358785"><ele>561.0</ele><time>2026-04-26T13:27:07.023Z</time></trkpt><trkpt lat="43.9058083" lon="12.35882"><ele>561.0</ele><time>2026-04-26T13:27:08.024Z</time></trkpt><trkpt lat="43.9059167" lon="12.3588867"><ele>561.0</ele><time>2026-04-26T13:27:09.027Z</time></trkpt><trkpt lat="43.9060317" lon="12.3589733"><ele>552.5</ele><time>2026-04-26T13:27:10.023Z</time></trkpt><trkpt lat="43.90616" lon="12.3590667"><ele>544.0</ele><time>2026-04-26T13:27:11.024Z</time></trkpt><trkpt lat="43.906295" lon="12.3591633"><ele>535.5</ele><time>2026-04-26T13:27:12.027Z</time></trkpt><trkpt lat="43.9064233" lon="12.3592517"><ele>527.0</ele><time>2026-04-26T13:27:13.024Z</time></trkpt><trkpt lat="43.90655" lon="12.3593267"><ele>527.0</ele><time>2026-04-26T13:27:14.025Z</time></trkpt><trkpt lat="43.90667" lon="12.35939"><ele>527.0</ele><time>2026-04-26T13:27:15.026Z</time></trkpt><trkpt lat="43.9067833" lon="12.3594383"><ele>527.0</ele><time>2026-04-26T13:27:16.027Z</time></trkpt><trkpt lat="43.90689" lon="12.3594633"><ele>527.0</ele><time>2026-04-26T13:27:17.022Z</time></trkpt><trkpt lat="43.9069883" lon="12.3594817"><ele>526.2</ele><time>2026-04-26T13:27:18.028Z</time></trkpt><trkpt lat="43.9070933" lon="12.3594533"><ele>525.4000000000001</ele><time>2026-04-26T13:27:19.025Z</time></trkpt><trkpt lat="43.9071917" lon="12.3593917"><ele>524.5999999999999</ele><time>2026-04-26T13:27:20.024Z</time></trkpt><trkpt lat="43.907295" lon="12.3593217"><ele>523.8</ele><time>2026-04-26T13:27:21.027Z</time></trkpt><trkpt lat="43.9073967" lon="12.3592367"><ele>523.0</ele><time>2026-04-26T13:27:22.024Z</time></trkpt><trkpt lat="43.9075133" lon="12.3591417"><ele>524.5</ele><time>2026-04-26T13:27:23.024Z</time></trkpt><trkpt lat="43.9076133" lon="12.3590267"><ele>526.0</ele><time>2026-04-26T13:27:24.028Z</time></trkpt><trkpt lat="43.9077017" lon="12.35889"><ele>527.5</ele><time>2026-04-26T13:27:25.024Z</time></trkpt><trkpt lat="43.9078083" lon="12.358765"><ele>529.0</ele><time>2026-04-26T13:27:26.024Z</time></trkpt><trkpt lat="43.9079267" lon="12.3586617"><ele>529.0</ele><time>2026-04-26T13:27:27.026Z</time></trkpt><trkpt lat="43.9080467" lon="12.35859"><ele>529.0</ele><time>2026-04-26T13:27:28.023Z</time></trkpt><trkpt lat="43.9081533" lon="12.3584917"><ele>529.0</ele><time>2026-04-26T13:27:29.027Z</time></trkpt><trkpt lat="43.9082617" lon="12.3584067"><ele>529.0</ele><time>2026-04-26T13:27:30.024Z</time></trkpt><trkpt lat="43.9083717" lon="12.3583317"><ele>525.4</ele><time>2026-04-26T13:27:31.028Z</time></trkpt><trkpt lat="43.9084833" lon="12.3582617"><ele>521.8</ele><time>2026-04-26T13:27:32.024Z</time></trkpt><trkpt lat="43.9085933" lon="12.3582183"><ele>518.2</ele><time>2026-04-26T13:27:33.023Z</time></trkpt><trkpt lat="43.908695" lon="12.3582033"><ele>514.6</ele><time>2026-04-26T13:27:34.024Z</time></trkpt><trkpt lat="43.9087883" lon="12.3582017"><ele>511.0</ele><time>2026-04-26T13:27:35.023Z</time></trkpt><trkpt lat="43.9088833" lon="12.358165"><ele>511.0</ele><time>2026-04-26T13:27:36.026Z</time></trkpt><trkpt lat="43.9089767" lon="12.3581"><ele>511.0</ele><time>2026-04-26T13:27:37.026Z</time></trkpt><trkpt lat="43.9090633" lon="12.3580333"><ele>511.0</ele><time>2026-04-26T13:27:38.029Z</time></trkpt><trkpt lat="43.9091383" lon="12.3579333"><ele>511.0</ele><time>2026-04-26T13:27:39.026Z</time></trkpt><trkpt lat="43.9091933" lon="12.3578117"><ele>511.0</ele><time>2026-04-26T13:27:40.026Z</time></trkpt><trkpt lat="43.9092467" lon="12.3577617"><ele>512.1666666666667</ele><time>2026-04-26T13:27:41.026Z</time></trkpt><trkpt lat="43.9093117" lon="12.35773"><ele>513.3333333333334</ele><time>2026-04-26T13:27:42.027Z</time></trkpt><trkpt lat="43.90939" lon="12.35768"><ele>514.5</ele><time>2026-04-26T13:27:43.026Z</time></trkpt><trkpt lat="43.9094717" lon="12.3576517"><ele>515.6666666666666</ele><time>2026-04-26T13:27:44.029Z</time></trkpt><trkpt lat="43.9095733" lon="12.3576083"><ele>516.8333333333333</ele><time>2026-04-26T13:27:45.024Z</time></trkpt><trkpt lat="43.9096554" lon="12.3576109"><ele>518.0</ele><time>2026-04-26T13:27:46.025Z</time></trkpt><trkpt lat="43.9097371" lon="12.3576133"><ele>518.0</ele><time>2026-04-26T13:27:47.023Z</time></trkpt><trkpt lat="43.9098445" lon="12.3575379"><ele>518.0</ele><time>2026-04-26T13:27:48.026Z</time></trkpt><trkpt lat="43.909956" lon="12.3574082"><ele>518.0</ele><time>2026-04-26T13:27:49.026Z</time></trkpt><trkpt lat="43.9100547" lon="12.3572975"><ele>518.0</ele><time>2026-04-26T13:27:50.031Z</time></trkpt><trkpt lat="43.910149" lon="12.3571989"><ele>521.4</ele><time>2026-04-26T13:27:51.026Z</time></trkpt><trkpt lat="43.9102366" lon="12.3571083"><ele>524.8</ele><time>2026-04-26T13:27:52.024Z</time></trkpt><trkpt lat="43.9103163" lon="12.3570712"><ele>528.2</ele><time>2026-04-26T13:27:53.025Z</time></trkpt><trkpt lat="43.9103922" lon="12.3570935"><ele>531.6</ele><time>2026-04-26T13:27:54.023Z</time></trkpt><trkpt lat="43.9105121" lon="12.3570721"><ele>535.0</ele><time>2026-04-26T13:27:55.03Z</time></trkpt><trkpt lat="43.9106696" lon="12.3570617"><ele>535.0</ele><time>2026-04-26T13:27:56.025Z</time></trkpt><trkpt lat="43.9108257" lon="12.3570625"><ele>535.0</ele><time>2026-04-26T13:27:57.026Z</time></trkpt><trkpt lat="43.9109824" lon="12.3570452"><ele>535.0</ele><time>2026-04-26T13:27:58.024Z</time></trkpt><trkpt lat="43.9111306" lon="12.3570183"><ele>530.5</ele><time>2026-04-26T13:27:59.024Z</time></trkpt><trkpt lat="43.9112628" lon="12.3569994"><ele>526.0</ele><time>2026-04-26T13:28:00.026Z</time></trkpt><trkpt lat="43.9113855" lon="12.3569644"><ele>521.5</ele><time>2026-04-26T13:28:01.024Z</time></trkpt><trkpt lat="43.9115034" lon="12.3569405"><ele>517.0</ele><time>2026-04-26T13:28:02.023Z</time></trkpt><trkpt lat="43.9116242" lon="12.3568883"><ele>514.5</ele><time>2026-04-26T13:28:03.031Z</time></trkpt><trkpt lat="43.9117463" lon="12.3568175"><ele>512.0</ele><time>2026-04-26T13:28:04.024Z</time></trkpt><trkpt lat="43.9118673" lon="12.3567455"><ele>509.5</ele><time>2026-04-26T13:28:05.026Z</time></trkpt><trkpt lat="43.9119797" lon="12.3566734"><ele>507.0</ele><time>2026-04-26T13:28:06.025Z</time></trkpt><trkpt lat="43.912081" lon="12.3565958"><ele>507.0</ele><time>2026-04-26T13:28:07.027Z</time></trkpt><trkpt lat="43.9121789" lon="12.3565216"><ele>507.0</ele><time>2026-04-26T13:28:08.025Z</time></trkpt><trkpt lat="43.9122782" lon="12.3564564"><ele>507.0</ele><time>2026-04-26T13:28:09.026Z</time></trkpt><trkpt lat="43.9123831" lon="12.356395"><ele>507.0</ele><time>2026-04-26T13:28:10.025Z</time></trkpt><trkpt lat="43.9124924" lon="12.356347"><ele>507.0</ele><time>2026-04-26T13:28:11.025Z</time></trkpt><trkpt lat="43.9126038" lon="12.3563025"><ele>507.0</ele><time>2026-04-26T13:28:12.028Z</time></trkpt><trkpt lat="43.9127134" lon="12.3562492"><ele>507.0</ele><time>2026-04-26T13:28:13.025Z</time></trkpt><trkpt lat="43.9128237" lon="12.356187"><ele>507.0</ele><time>2026-04-26T13:28:14.024Z</time></trkpt><trkpt lat="43.9129296" lon="12.3561174"><ele>507.0</ele><time>2026-04-26T13:28:15.025Z</time></trkpt><trkpt lat="43.9130271" lon="12.3560423"><ele>507.00000000000006</ele><time>2026-04-26T13:28:16.026Z</time></trkpt><trkpt lat="43.9131116" lon="12.3559702"><ele>507.00000000000006</ele><time>2026-04-26T13:28:17.03Z</time></trkpt><trkpt lat="43.9131878" lon="12.3559052"><ele>507.0</ele><time>2026-04-26T13:28:18.03Z</time></trkpt><trkpt lat="43.9132585" lon="12.3558563"><ele>507.0</ele><time>2026-04-26T13:28:19.025Z</time></trkpt><trkpt lat="43.9133309" lon="12.3558187"><ele>502.3333333333333</ele><time>2026-04-26T13:28:20.023Z</time></trkpt><trkpt lat="43.913408" lon="12.3558147"><ele>497.66666666666663</ele><time>2026-04-26T13:28:21.027Z</time></trkpt><trkpt lat="43.9134843" lon="12.3558309"><ele>493.0</ele><time>2026-04-26T13:28:22.025Z</time></trkpt><trkpt lat="43.9135633" lon="12.3558746"><ele>488.3333333333333</ele><time>2026-04-26T13:28:23.024Z</time></trkpt><trkpt lat="43.9136396" lon="12.3559378"><ele>483.66666666666663</ele><time>2026-04-26T13:28:24.025Z</time></trkpt><trkpt lat="43.9137206" lon="12.3559946"><ele>479.0</ele><time>2026-04-26T13:28:25.025Z</time></trkpt><trkpt lat="43.9138093" lon="12.3560645"><ele>479.0</ele><time>2026-04-26T13:28:26.024Z</time></trkpt><trkpt lat="43.9139079" lon="12.356151"><ele>479.0</ele><time>2026-04-26T13:28:27.03Z</time></trkpt><trkpt lat="43.9140196" lon="12.3562467"><ele>479.0</ele><time>2026-04-26T13:28:28.024Z</time></trkpt><trkpt lat="43.9141351" lon="12.3563556"><ele>479.0</ele><time>2026-04-26T13:28:29.029Z</time></trkpt><trkpt lat="43.914246" lon="12.35647"><ele>479.25</ele><time>2026-04-26T13:28:30.024Z</time></trkpt><trkpt lat="43.9143568" lon="12.3565913"><ele>479.5</ele><time>2026-04-26T13:28:31.023Z</time></trkpt><trkpt lat="43.9144691" lon="12.3567135"><ele>479.75</ele><time>2026-04-26T13:28:32.03Z</time></trkpt><trkpt lat="43.9145852" lon="12.3568301"><ele>480.0</ele><time>2026-04-26T13:28:33.024Z</time></trkpt><trkpt lat="43.9147049" lon="12.3569429"><ele>480.0</ele><time>2026-04-26T13:28:34.022Z</time></trkpt><trkpt lat="43.9148263" lon="12.3570469"><ele>480.0</ele><time>2026-04-26T13:28:35.024Z</time></trkpt><trkpt lat="43.9149413" lon="12.3571366"><ele>480.0</ele><time>2026-04-26T13:28:36.025Z</time></trkpt><trkpt lat="43.9150492" lon="12.3572171"><ele>480.0</ele><time>2026-04-26T13:28:37.026Z</time></trkpt><trkpt lat="43.9151503" lon="12.357293"><ele>483.2</ele><time>2026-04-26T13:28:38.025Z</time></trkpt><trkpt lat="43.915253" lon="12.3573513"><ele>486.4</ele><time>2026-04-26T13:28:39.102Z</time></trkpt><trkpt lat="43.9153554" lon="12.3573853"><ele>489.6</ele><time>2026-04-26T13:28:40.026Z</time></trkpt><trkpt lat="43.915465" lon="12.3573984"><ele>492.8</ele><time>2026-04-26T13:28:41.028Z</time></trkpt><trkpt lat="43.9155787" lon="12.3573928"><ele>496.0</ele><time>2026-04-26T13:28:42.025Z</time></trkpt><trkpt lat="43.9156899" lon="12.3573746"><ele>496.0</ele><time>2026-04-26T13:28:43.03Z</time></trkpt><trkpt lat="43.9157967" lon="12.3573456"><ele>496.0</ele><time>2026-04-26T13:28:44.027Z</time></trkpt><trkpt lat="43.9158948" lon="12.3573096"><ele>496.0</ele><time>2026-04-26T13:28:45.024Z</time></trkpt><trkpt lat="43.9159872" lon="12.3572692"><ele>496.0</ele><time>2026-04-26T13:28:46.027Z</time></trkpt><trkpt lat="43.9160781" lon="12.3572359"><ele>496.0</ele><time>2026-04-26T13:28:47.027Z</time></trkpt><trkpt lat="43.9161704" lon="12.3572122"><ele>493.20000000000005</ele><time>2026-04-26T13:28:48.03Z</time></trkpt><trkpt lat="43.9162672" lon="12.3572036"><ele>490.40000000000003</ele><time>2026-04-26T13:28:49.026Z</time></trkpt><trkpt lat="43.9163641" lon="12.3572115"><ele>487.6</ele><time>2026-04-26T13:28:50.025Z</time></trkpt><trkpt lat="43.9164607" lon="12.3572403"><ele>484.8</ele><time>2026-04-26T13:28:51.024Z</time></trkpt><trkpt lat="43.9165549" lon="12.3572991"><ele>482.0</ele><time>2026-04-26T13:28:52.025Z</time></trkpt><trkpt lat="43.9166402" lon="12.3573817"><ele>482.0</ele><time>2026-04-26T13:28:53.028Z</time></trkpt><trkpt lat="43.9167166" lon="12.3574692"><ele>482.00000000000006</ele><time>2026-04-26T13:28:54.026Z</time></trkpt><trkpt lat="43.9167814" lon="12.3575609"><ele>482.00000000000006</ele><time>2026-04-26T13:28:55.025Z</time></trkpt><trkpt lat="43.9168399" lon="12.3576641"><ele>482.0</ele><time>2026-04-26T13:28:56.026Z</time></trkpt><trkpt lat="43.9168887" lon="12.3577895"><ele>482.0</ele><time>2026-04-26T13:28:57.024Z</time></trkpt><trkpt lat="43.9169329" lon="12.3579267"><ele>483.6</ele><time>2026-04-26T13:28:58.022Z</time></trkpt><trkpt lat="43.9169822" lon="12.3580614"><ele>485.20000000000005</ele><time>2026-04-26T13:28:59.024Z</time></trkpt><trkpt lat="43.9170451" lon="12.3581769"><ele>486.8</ele><time>2026-04-26T13:29:00.023Z</time></trkpt><trkpt lat="43.9171113" lon="12.3582633"><ele>488.4</ele><time>2026-04-26T13:29:01.027Z</time></trkpt><trkpt lat="43.9171916" lon="12.3583141"><ele>490.0</ele><time>2026-04-26T13:29:02.023Z</time></trkpt><trkpt lat="43.9172777" lon="12.3583457"><ele>490.00000000000006</ele><time>2026-04-26T13:29:03.026Z</time></trkpt><trkpt lat="43.9173587" lon="12.3583528"><ele>490.0</ele><time>2026-04-26T13:29:04.024Z</time></trkpt><trkpt lat="43.9174406" lon="12.3583496"><ele>490.0</ele><time>2026-04-26T13:29:05.024Z</time></trkpt><trkpt lat="43.9175188" lon="12.3583192"><ele>490.0</ele><time>2026-04-26T13:29:06.025Z</time></trkpt><trkpt lat="43.9175832" lon="12.3582574"><ele>490.00000000000006</ele><time>2026-04-26T13:29:07.028Z</time></trkpt><trkpt lat="43.917645" lon="12.3581905"><ele>490.0</ele><time>2026-04-26T13:29:08.029Z</time></trkpt><trkpt lat="43.9177138" lon="12.358129"><ele>488.6</ele><time>2026-04-26T13:29:09.026Z</time></trkpt><trkpt lat="43.9177926" lon="12.3580903"><ele>487.2</ele><time>2026-04-26T13:29:10.024Z</time></trkpt><trkpt lat="43.9178861" lon="12.358081"><ele>485.79999999999995</ele><time>2026-04-26T13:29:11.022Z</time></trkpt><trkpt lat="43.9179926" lon="12.3581031"><ele>484.4</ele><time>2026-04-26T13:29:12.024Z</time></trkpt><trkpt lat="43.9180932" lon="12.3581516"><ele>483.0</ele><time>2026-04-26T13:29:13.024Z</time></trkpt><trkpt lat="43.9181883" lon="12.3582194"><ele>483.0</ele><time>2026-04-26T13:29:14.024Z</time></trkpt><trkpt lat="43.9182781" lon="12.3583029"><ele>482.99999999999994</ele><time>2026-04-26T13:29:15.024Z</time></trkpt><trkpt lat="43.9183638" lon="12.3583882"><ele>482.99999999999994</ele><time>2026-04-26T13:29:16.025Z</time></trkpt><trkpt lat="43.9184435" lon="12.3584722"><ele>483.0</ele><time>2026-04-26T13:29:17.025Z</time></trkpt><trkpt lat="43.9185232" lon="12.3585562"><ele>483.0</ele><time>2026-04-26T13:29:18.033Z</time></trkpt><trkpt lat="43.9185975" lon="12.3586398"><ele>482.8333333333333</ele><time>2026-04-26T13:29:19.026Z</time></trkpt><trkpt lat="43.9186628" lon="12.358719"><ele>482.66666666666663</ele><time>2026-04-26T13:29:20.027Z</time></trkpt><trkpt lat="43.9187277" lon="12.3587939"><ele>482.5</ele><time>2026-04-26T13:29:21.026Z</time></trkpt><trkpt lat="43.9187937" lon="12.3588585"><ele>482.3333333333333</ele><time>2026-04-26T13:29:22.025Z</time></trkpt><trkpt lat="43.9188618" lon="12.3589045"><ele>482.16666666666663</ele><time>2026-04-26T13:29:23.026Z</time></trkpt><trkpt lat="43.9189328" lon="12.3589315"><ele>482.0</ele><time>2026-04-26T13:29:24.029Z</time></trkpt><trkpt lat="43.9190208" lon="12.358934"><ele>482.0</ele><time>2026-04-26T13:29:25.027Z</time></trkpt><trkpt lat="43.91913" lon="12.358916"><ele>482.00000000000006</ele><time>2026-04-26T13:29:26.025Z</time></trkpt><trkpt lat="43.9192398" lon="12.3589036"><ele>482.00000000000006</ele><time>2026-04-26T13:29:27.026Z</time></trkpt><trkpt lat="43.9193434" lon="12.3588896"><ele>482.0</ele><time>2026-04-26T13:29:28.028Z</time></trkpt><trkpt lat="43.9194444" lon="12.3588723"><ele>482.0</ele><time>2026-04-26T13:29:29.025Z</time></trkpt><trkpt lat="43.9195502" lon="12.3588479"><ele>475.25</ele><time>2026-04-26T13:29:30.03Z</time></trkpt><trkpt lat="43.9196575" lon="12.3588119"><ele>468.5</ele><time>2026-04-26T13:29:31.024Z</time></trkpt><trkpt lat="43.9197702" lon="12.3587632"><ele>461.75</ele><time>2026-04-26T13:29:32.025Z</time></trkpt><trkpt lat="43.919892" lon="12.3587075"><ele>455.0</ele><time>2026-04-26T13:29:33.026Z</time></trkpt><trkpt lat="43.9200219" lon="12.3586424"><ele>453.25</ele><time>2026-04-26T13:29:34.025Z</time></trkpt><trkpt lat="43.9201499" lon="12.3585625"><ele>451.5</ele><time>2026-04-26T13:29:35.027Z</time></trkpt><trkpt lat="43.9202673" lon="12.358483"><ele>449.75</ele><time>2026-04-26T13:29:36.025Z</time></trkpt><trkpt lat="43.9203714" lon="12.3584189"><ele>448.0</ele><time>2026-04-26T13:29:37.023Z</time></trkpt><trkpt lat="43.9204574" lon="12.3583831"><ele>448.0</ele><time>2026-04-26T13:29:38.023Z</time></trkpt><trkpt lat="43.9205301" lon="12.3583721"><ele>447.99999999999994</ele><time>2026-04-26T13:29:39.025Z</time></trkpt><trkpt lat="43.9205914" lon="12.3584734"><ele>447.99999999999994</ele><time>2026-04-26T13:29:41.027Z</time></trkpt><trkpt lat="43.9205782" lon="12.3585731"><ele>448.0</ele><time>2026-04-26T13:29:42.024Z</time></trkpt><trkpt lat="43.9205352" lon="12.3587141"><ele>448.0</ele><time>2026-04-26T13:29:43.027Z</time></trkpt><trkpt lat="43.9204726" lon="12.3588843"><ele>446.75</ele><time>2026-04-26T13:29:44.024Z</time></trkpt><trkpt lat="43.9204334" lon="12.3590577"><ele>445.5</ele><time>2026-04-26T13:29:45.022Z</time></trkpt><trkpt lat="43.9203877" lon="12.3592231"><ele>444.25</ele><time>2026-04-26T13:29:46.025Z</time></trkpt><trkpt lat="43.9203415" lon="12.3593772"><ele>443.0</ele><time>2026-04-26T13:29:47.023Z</time></trkpt><trkpt lat="43.9203128" lon="12.359525"><ele>442.99999999999994</ele><time>2026-04-26T13:29:48.027Z</time></trkpt><trkpt lat="43.9203079" lon="12.3596616"><ele>443.0</ele><time>2026-04-26T13:29:49.025Z</time></trkpt><trkpt lat="43.9203315" lon="12.3597753"><ele>443.0</ele><time>2026-04-26T13:29:50.026Z</time></trkpt><trkpt lat="43.9203837" lon="12.3598629"><ele>443.0</ele><time>2026-04-26T13:29:51.023Z</time></trkpt><trkpt lat="43.9204435" lon="12.3599364"><ele>442.99999999999994</ele><time>2026-04-26T13:29:52.021Z</time></trkpt><trkpt lat="43.9205303" lon="12.3600044"><ele>443.0</ele><time>2026-04-26T13:29:53.022Z</time></trkpt><trkpt lat="43.9206692" lon="12.3600295"><ele>439.66666666666663</ele><time>2026-04-26T13:29:54.026Z</time></trkpt><trkpt lat="43.9208349" lon="12.360038"><ele>436.33333333333337</ele><time>2026-04-26T13:29:55.022Z</time></trkpt><trkpt lat="43.9209905" lon="12.3600474"><ele>433.0</ele><time>2026-04-26T13:29:56.028Z</time></trkpt><trkpt lat="43.9211291" lon="12.3600635"><ele>433.0</ele><time>2026-04-26T13:29:57.022Z</time></trkpt><trkpt lat="43.9212519" lon="12.3601085"><ele>433.0</ele><time>2026-04-26T13:29:58.024Z</time></trkpt><trkpt lat="43.9213566" lon="12.360181"><ele>433.0</ele><time>2026-04-26T13:29:59.024Z</time></trkpt><trkpt lat="43.9214468" lon="12.3602948"><ele>433.0</ele><time>2026-04-26T13:30:00.024Z</time></trkpt><trkpt lat="43.9215358" lon="12.3604353"><ele>436.25</ele><time>2026-04-26T13:30:01.023Z</time></trkpt><trkpt lat="43.9216234" lon="12.3605625"><ele>439.5</ele><time>2026-04-26T13:30:02.027Z</time></trkpt><trkpt lat="43.9217058" lon="12.3606892"><ele>442.75</ele><time>2026-04-26T13:30:03.024Z</time></trkpt><trkpt lat="43.9217915" lon="12.3608045"><ele>446.0</ele><time>2026-04-26T13:30:04.022Z</time></trkpt><trkpt lat="43.9218717" lon="12.3609008"><ele>446.0</ele><time>2026-04-26T13:30:05.025Z</time></trkpt><trkpt lat="43.9219577" lon="12.3609556"><ele>446.0</ele><time>2026-04-26T13:30:06.025Z</time></trkpt><trkpt lat="43.9220563" lon="12.3609444"><ele>446.0</ele><time>2026-04-26T13:30:07.026Z</time></trkpt><trkpt lat="43.9221477" lon="12.3608875"><ele>446.0</ele><time>2026-04-26T13:30:08.024Z</time></trkpt><trkpt lat="43.9222496" lon="12.3608498"><ele>446.0</ele><time>2026-04-26T13:30:09.022Z</time></trkpt><trkpt lat="43.9223451" lon="12.3608437"><ele>446.0</ele><time>2026-04-26T13:30:10.023Z</time></trkpt><trkpt lat="43.9224464" lon="12.360886"><ele>446.0</ele><time>2026-04-26T13:30:11.029Z</time></trkpt><trkpt lat="43.9225532" lon="12.360938"><ele>446.0</ele><time>2026-04-26T13:30:12.027Z</time></trkpt><trkpt lat="43.9226644" lon="12.3609586"><ele>446.0</ele><time>2026-04-26T13:30:13.024Z</time></trkpt><trkpt lat="43.9227793" lon="12.360968"><ele>446.0</ele><time>2026-04-26T13:30:14.025Z</time></trkpt><trkpt lat="43.9229013" lon="12.3610127"><ele>442.25</ele><time>2026-04-26T13:30:15.025Z</time></trkpt><trkpt lat="43.9230252" lon="12.3611101"><ele>438.5</ele><time>2026-04-26T13:30:16.027Z</time></trkpt><trkpt lat="43.9231564" lon="12.3611865"><ele>434.75</ele><time>2026-04-26T13:30:17.026Z</time></trkpt><trkpt lat="43.9232846" lon="12.3612524"><ele>431.0</ele><time>2026-04-26T13:30:18.027Z</time></trkpt><trkpt lat="43.9234104" lon="12.3612872"><ele>426.75</ele><time>2026-04-26T13:30:19.025Z</time></trkpt><trkpt lat="43.9235286" lon="12.3613063"><ele>422.5</ele><time>2026-04-26T13:30:20.024Z</time></trkpt><trkpt lat="43.9236434" lon="12.3613033"><ele>418.25</ele><time>2026-04-26T13:30:21.025Z</time></trkpt><trkpt lat="43.9237545" lon="12.3612867"><ele>414.0</ele><time>2026-04-26T13:30:22.025Z</time></trkpt><trkpt lat="43.92386" lon="12.361275"><ele>414.0</ele><time>2026-04-26T13:30:23.024Z</time></trkpt><trkpt lat="43.9239642" lon="12.3612796"><ele>414.0</ele><time>2026-04-26T13:30:24.028Z</time></trkpt><trkpt lat="43.9240712" lon="12.3612916"><ele>414.0</ele><time>2026-04-26T13:30:25.025Z</time></trkpt><trkpt lat="43.9241815" lon="12.3613289"><ele>414.0</ele><time>2026-04-26T13:30:26.021Z</time></trkpt><trkpt lat="43.9242994" lon="12.3613898"><ele>419.75</ele><time>2026-04-26T13:30:27.026Z</time></trkpt><trkpt lat="43.9244277" lon="12.3614288"><ele>425.5</ele><time>2026-04-26T13:30:28.025Z</time></trkpt><trkpt lat="43.9245573" lon="12.3614348"><ele>431.25</ele><time>2026-04-26T13:30:29.025Z</time></trkpt><trkpt lat="43.9246804" lon="12.3614359"><ele>437.0</ele><time>2026-04-26T13:30:30.023Z</time></trkpt><trkpt lat="43.9248018" lon="12.3614599"><ele>437.0</ele><time>2026-04-26T13:30:31.023Z</time></trkpt><trkpt lat="43.9249303" lon="12.3615139"><ele>437.0</ele><time>2026-04-26T13:30:32.022Z</time></trkpt><trkpt lat="43.9250535" lon="12.3615884"><ele>437.0</ele><time>2026-04-26T13:30:33.023Z</time></trkpt><trkpt lat="43.9251687" lon="12.361654"><ele>437.0</ele><time>2026-04-26T13:30:34.024Z</time></trkpt><trkpt lat="43.9252759" lon="12.3616953"><ele>438.40000000000003</ele><time>2026-04-26T13:30:35.025Z</time></trkpt><trkpt lat="43.9253781" lon="12.3616949"><ele>439.80000000000007</ele><time>2026-04-26T13:30:36.027Z</time></trkpt><trkpt lat="43.9254686" lon="12.3616428"><ele>441.2</ele><time>2026-04-26T13:30:37.024Z</time></trkpt><trkpt lat="43.9255389" lon="12.3615268"><ele>442.6</ele><time>2026-04-26T13:30:38.024Z</time></trkpt><trkpt lat="43.9255844" lon="12.3613683"><ele>444.0</ele><time>2026-04-26T13:30:39.024Z</time></trkpt><trkpt lat="43.9256212" lon="12.361225"><ele>439.0</ele><time>2026-04-26T13:30:40.022Z</time></trkpt><trkpt lat="43.9256678" lon="12.3611167"><ele>434.0</ele><time>2026-04-26T13:30:41.024Z</time></trkpt><trkpt lat="43.9257206" lon="12.3610512"><ele>429.0</ele><time>2026-04-26T13:30:42.024Z</time></trkpt><trkpt lat="43.9257851" lon="12.3610256"><ele>424.0</ele><time>2026-04-26T13:30:43.028Z</time></trkpt><trkpt lat="43.9258882" lon="12.3610654"><ele>419.0</ele><time>2026-04-26T13:30:44.023Z</time></trkpt><trkpt lat="43.9259994" lon="12.3611205"><ele>418.25</ele><time>2026-04-26T13:30:45.025Z</time></trkpt><trkpt lat="43.926127" lon="12.3611701"><ele>417.5</ele><time>2026-04-26T13:30:46.024Z</time></trkpt><trkpt lat="43.9262737" lon="12.3612456"><ele>416.75</ele><time>2026-04-26T13:30:47.027Z</time></trkpt><trkpt lat="43.9264109" lon="12.3613258"><ele>416.0</ele><time>2026-04-26T13:30:48.028Z</time></trkpt><trkpt lat="43.9265343" lon="12.3613893"><ele>418.5</ele><time>2026-04-26T13:30:49.021Z</time></trkpt><trkpt lat="43.926651" lon="12.3614565"><ele>421.0</ele><time>2026-04-26T13:30:50.026Z</time></trkpt><trkpt lat="43.9267588" lon="12.361542"><ele>423.5</ele><time>2026-04-26T13:30:51.024Z</time></trkpt><trkpt lat="43.9268522" lon="12.3616332"><ele>426.0</ele><time>2026-04-26T13:30:52.024Z</time></trkpt><trkpt lat="43.9269393" lon="12.3617168"><ele>426.0</ele><time>2026-04-26T13:30:53.033Z</time></trkpt><trkpt lat="43.9270181" lon="12.3617893"><ele>426.0</ele><time>2026-04-26T13:30:54.024Z</time></trkpt><trkpt lat="43.9271055" lon="12.3618485"><ele>426.0</ele><time>2026-04-26T13:30:55.025Z</time></trkpt><trkpt lat="43.9272051" lon="12.3619037"><ele>426.0</ele><time>2026-04-26T13:30:56.022Z</time></trkpt><trkpt lat="43.9273178" lon="12.3619673"><ele>426.0</ele><time>2026-04-26T13:30:57.022Z</time></trkpt><trkpt lat="43.9274403" lon="12.3620289"><ele>427.0</ele><time>2026-04-26T13:30:58.022Z</time></trkpt><trkpt lat="43.9275607" lon="12.3620634"><ele>428.0</ele><time>2026-04-26T13:30:59.021Z</time></trkpt><trkpt lat="43.9276775" lon="12.3620555"><ele>429.0</ele><time>2026-04-26T13:31:00.023Z</time></trkpt><trkpt lat="43.9277878" lon="12.3620051"><ele>430.0</ele><time>2026-04-26T13:31:01.023Z</time></trkpt><trkpt lat="43.9278861" lon="12.3619203"><ele>430.0</ele><time>2026-04-26T13:31:02.026Z</time></trkpt><trkpt lat="43.9279648" lon="12.3618003"><ele>430.0</ele><time>2026-04-26T13:31:03.023Z</time></trkpt><trkpt lat="43.9280378" lon="12.3616835"><ele>430.0</ele><time>2026-04-26T13:31:04.028Z</time></trkpt><trkpt lat="43.9281135" lon="12.3615825"><ele>430.0</ele><time>2026-04-26T13:31:05.024Z</time></trkpt><trkpt lat="43.9281998" lon="12.3615091"><ele>430.0</ele><time>2026-04-26T13:31:06.024Z</time></trkpt><trkpt lat="43.928297" lon="12.361468"><ele>429.8</ele><time>2026-04-26T13:31:07.025Z</time></trkpt><trkpt lat="43.9283998" lon="12.3614302"><ele>429.6</ele><time>2026-04-26T13:31:08.023Z</time></trkpt><trkpt lat="43.9284898" lon="12.3613601"><ele>429.4</ele><time>2026-04-26T13:31:09.025Z</time></trkpt><trkpt lat="43.9285677" lon="12.3612627"><ele>429.2</ele><time>2026-04-26T13:31:10.025Z</time></trkpt><trkpt lat="43.92864" lon="12.361157"><ele>429.0</ele><time>2026-04-26T13:31:11.025Z</time></trkpt><trkpt lat="43.9286914" lon="12.361031"><ele>426.25</ele><time>2026-04-26T13:31:12.025Z</time></trkpt><trkpt lat="43.9287431" lon="12.3609002"><ele>423.5</ele><time>2026-04-26T13:31:13.024Z</time></trkpt><trkpt lat="43.9287974" lon="12.3607645"><ele>420.75</ele><time>2026-04-26T13:31:14.025Z</time></trkpt><trkpt lat="43.9288697" lon="12.3606317"><ele>418.0</ele><time>2026-04-26T13:31:15.025Z</time></trkpt><trkpt lat="43.9289519" lon="12.360508"><ele>415.4</ele><time>2026-04-26T13:31:16.024Z</time></trkpt><trkpt lat="43.9290408" lon="12.3604063"><ele>412.79999999999995</ele><time>2026-04-26T13:31:17.023Z</time></trkpt><trkpt lat="43.9291269" lon="12.3603228"><ele>410.2</ele><time>2026-04-26T13:31:18.03Z</time></trkpt><trkpt lat="43.9292201" lon="12.3602658"><ele>407.6</ele><time>2026-04-26T13:31:19.027Z</time></trkpt><trkpt lat="43.9293243" lon="12.3602494"><ele>405.0</ele><time>2026-04-26T13:31:20.027Z</time></trkpt><trkpt lat="43.9294294" lon="12.3602186"><ele>405.0</ele><time>2026-04-26T13:31:21.026Z</time></trkpt><trkpt lat="43.9295219" lon="12.3601399"><ele>405.0</ele><time>2026-04-26T13:31:22.023Z</time></trkpt><trkpt lat="43.9296058" lon="12.3600202"><ele>405.0</ele><time>2026-04-26T13:31:23.025Z</time></trkpt><trkpt lat="43.9296907" lon="12.3598749"><ele>405.0</ele><time>2026-04-26T13:31:24.022Z</time></trkpt><trkpt lat="43.9297848" lon="12.3596891"><ele>399.66666666666663</ele><time>2026-04-26T13:31:25.023Z</time></trkpt><trkpt lat="43.9298907" lon="12.3595124"><ele>394.3333333333333</ele><time>2026-04-26T13:31:26.024Z</time></trkpt><trkpt lat="43.929992" lon="12.3593542"><ele>389.0</ele><time>2026-04-26T13:31:27.024Z</time></trkpt><trkpt lat="43.9300748" lon="12.3591956"><ele>388.0</ele><time>2026-04-26T13:31:28.026Z</time></trkpt><trkpt lat="43.9301466" lon="12.3590352"><ele>387.0</ele><time>2026-04-26T13:31:29.028Z</time></trkpt><trkpt lat="43.9302253" lon="12.3589037"><ele>386.0</ele><time>2026-04-26T13:31:30.025Z</time></trkpt><trkpt lat="43.9303166" lon="12.3588009"><ele>385.0</ele><time>2026-04-26T13:31:31.025Z</time></trkpt><trkpt lat="43.9304288" lon="12.3587265"><ele>385.0</ele><time>2026-04-26T13:31:32.026Z</time></trkpt><trkpt lat="43.9305566" lon="12.3586786"><ele>385.0</ele><time>2026-04-26T13:31:33.024Z</time></trkpt><trkpt lat="43.9306746" lon="12.358589"><ele>385.0</ele><time>2026-04-26T13:31:34.026Z</time></trkpt><trkpt lat="43.9307745" lon="12.3584635"><ele>385.0</ele><time>2026-04-26T13:31:35.025Z</time></trkpt><trkpt lat="43.9308584" lon="12.3583315"><ele>382.6</ele><time>2026-04-26T13:31:36.026Z</time></trkpt><trkpt lat="43.9309295" lon="12.3582144"><ele>380.2</ele><time>2026-04-26T13:31:37.022Z</time></trkpt><trkpt lat="43.9309832" lon="12.3581149"><ele>377.79999999999995</ele><time>2026-04-26T13:31:38.026Z</time></trkpt><trkpt lat="43.9310285" lon="12.3580391"><ele>375.4</ele><time>2026-04-26T13:31:39.028Z</time></trkpt><trkpt lat="43.9311264" lon="12.3580052"><ele>373.0</ele><time>2026-04-26T13:31:41.023Z</time></trkpt><trkpt lat="43.9311636" lon="12.3581379"><ele>367.0</ele><time>2026-04-26T13:31:43.025Z</time></trkpt><trkpt lat="43.9311064" lon="12.3582619"><ele>361.0</ele><time>2026-04-26T13:31:44.024Z</time></trkpt><trkpt lat="43.9310504" lon="12.3583924"><ele>355.0</ele><time>2026-04-26T13:31:45.023Z</time></trkpt><trkpt lat="43.9310041" lon="12.3585467"><ele>349.0</ele><time>2026-04-26T13:31:46.024Z</time></trkpt><trkpt lat="43.9310042" lon="12.3587251"><ele>346.25</ele><time>2026-04-26T13:31:47.027Z</time></trkpt><trkpt lat="43.9310078" lon="12.3589153"><ele>343.5</ele><time>2026-04-26T13:31:48.025Z</time></trkpt><trkpt lat="43.9310231" lon="12.3590919"><ele>340.75</ele><time>2026-04-26T13:31:49.023Z</time></trkpt><trkpt lat="43.9310388" lon="12.3592395"><ele>338.0</ele><time>2026-04-26T13:31:50.023Z</time></trkpt><trkpt lat="43.9310599" lon="12.3593624"><ele>338.0</ele><time>2026-04-26T13:31:51.024Z</time></trkpt><trkpt lat="43.9310791" lon="12.359464"><ele>338.0</ele><time>2026-04-26T13:31:52.022Z</time></trkpt><trkpt lat="43.931164" lon="12.3595515"><ele>338.0</ele><time>2026-04-26T13:31:54.024Z</time></trkpt><trkpt lat="43.9312243" lon="12.3594473"><ele>338.0</ele><time>2026-04-26T13:31:56.025Z</time></trkpt><trkpt lat="43.9311926" lon="12.3592572"><ele>338.0</ele><time>2026-04-26T13:31:57.022Z</time></trkpt><trkpt lat="43.9311704" lon="12.3590592"><ele>338.0</ele><time>2026-04-26T13:31:58.026Z</time></trkpt><trkpt lat="43.9311979" lon="12.3588905"><ele>338.0</ele><time>2026-04-26T13:31:59.022Z</time></trkpt><trkpt lat="43.9312332" lon="12.3587354"><ele>338.0</ele><time>2026-04-26T13:32:00.034Z</time></trkpt><trkpt lat="43.9312723" lon="12.3585888"><ele>338.0</ele><time>2026-04-26T13:32:01.024Z</time></trkpt><trkpt lat="43.9313148" lon="12.3584417"><ele>340.2</ele><time>2026-04-26T13:32:02.024Z</time></trkpt><trkpt lat="43.9313817" lon="12.358316"><ele>342.4</ele><time>2026-04-26T13:32:03.025Z</time></trkpt><trkpt lat="43.9314571" lon="12.3582122"><ele>344.59999999999997</ele><time>2026-04-26T13:32:04.024Z</time></trkpt><trkpt lat="43.9315333" lon="12.3581304"><ele>346.79999999999995</ele><time>2026-04-26T13:32:05.028Z</time></trkpt><trkpt lat="43.9316139" lon="12.3580796"><ele>349.0</ele><time>2026-04-26T13:32:06.026Z</time></trkpt><trkpt lat="43.9316822" lon="12.3580308"><ele>349.0</ele><time>2026-04-26T13:32:07.025Z</time></trkpt><trkpt lat="43.9317894" lon="12.3579956"><ele>349.0</ele><time>2026-04-26T13:32:09.023Z</time></trkpt><trkpt lat="43.9318233" lon="12.3580753"><ele>349.0</ele><time>2026-04-26T13:32:11.026Z</time></trkpt><trkpt lat="43.9317224" lon="12.3582009"><ele>349.0</ele><time>2026-04-26T13:32:13.024Z</time></trkpt><trkpt lat="43.9316418" lon="12.3582656"><ele>349.0</ele><time>2026-04-26T13:32:14.023Z</time></trkpt><trkpt lat="43.9315838" lon="12.3583704"><ele>349.0</ele><time>2026-04-26T13:32:15.023Z</time></trkpt><trkpt lat="43.931542" lon="12.3585302"><ele>349.0</ele><time>2026-04-26T13:32:16.024Z</time></trkpt><trkpt lat="43.931503" lon="12.3587117"><ele>349.0</ele><time>2026-04-26T13:32:17.026Z</time></trkpt><trkpt lat="43.9314605" lon="12.3588962"><ele>349.0</ele><time>2026-04-26T13:32:18.023Z</time></trkpt><trkpt lat="43.9314427" lon="12.3590832"><ele>346.79999999999995</ele><time>2026-04-26T13:32:19.024Z</time></trkpt><trkpt lat="43.9314339" lon="12.3592553"><ele>344.59999999999997</ele><time>2026-04-26T13:32:20.024Z</time></trkpt><trkpt lat="43.931416" lon="12.3594013"><ele>342.4</ele><time>2026-04-26T13:32:21.023Z</time></trkpt><trkpt lat="43.9314043" lon="12.3595233"><ele>340.2</ele><time>2026-04-26T13:32:22.029Z</time></trkpt><trkpt lat="43.9314011" lon="12.3596229"><ele>338.0</ele><time>2026-04-26T13:32:23.021Z</time></trkpt><trkpt lat="43.9314203" lon="12.3597094"><ele>337.59999999999997</ele><time>2026-04-26T13:32:24.025Z</time></trkpt><trkpt lat="43.9314564" lon="12.359784"><ele>337.2</ele><time>2026-04-26T13:32:25.027Z</time></trkpt><trkpt lat="43.9315008" lon="12.3598533"><ele>336.8</ele><time>2026-04-26T13:32:26.029Z</time></trkpt><trkpt lat="43.9315659" lon="12.3599114"><ele>336.4</ele><time>2026-04-26T13:32:27.027Z</time></trkpt><trkpt lat="43.9316606" lon="12.3599601"><ele>336.0</ele><time>2026-04-26T13:32:28.026Z</time></trkpt><trkpt lat="43.9318381" lon="12.3599705"><ele>331.0</ele><time>2026-04-26T13:32:29.024Z</time></trkpt><trkpt lat="43.9320178" lon="12.3599802"><ele>326.0</ele><time>2026-04-26T13:32:30.023Z</time></trkpt><trkpt lat="43.9321767" lon="12.3600073"><ele>321.0</ele><time>2026-04-26T13:32:31.023Z</time></trkpt><trkpt lat="43.9323214" lon="12.360054"><ele>321.0</ele><time>2026-04-26T13:32:32.025Z</time></trkpt><trkpt lat="43.9324539" lon="12.3601243"><ele>321.0</ele><time>2026-04-26T13:32:33.031Z</time></trkpt><trkpt lat="43.9325838" lon="12.3602074"><ele>321.0</ele><time>2026-04-26T13:32:34.023Z</time></trkpt><trkpt lat="43.9327242" lon="12.3602891"><ele>321.0</ele><time>2026-04-26T13:32:35.026Z</time></trkpt><trkpt lat="43.93287" lon="12.3603772"><ele>318.0</ele><time>2026-04-26T13:32:36.027Z</time></trkpt><trkpt lat="43.9330183" lon="12.3604755"><ele>315.0</ele><time>2026-04-26T13:32:37.025Z</time></trkpt><trkpt lat="43.9331769" lon="12.3605699"><ele>312.0</ele><time>2026-04-26T13:32:38.026Z</time></trkpt><trkpt lat="43.9333364" lon="12.3606634"><ele>309.0</ele><time>2026-04-26T13:32:39.025Z</time></trkpt><trkpt lat="43.9334991" lon="12.3607576"><ele>306.0</ele><time>2026-04-26T13:32:40.028Z</time></trkpt><trkpt lat="43.9336531" lon="12.3608465"><ele>303.0</ele><time>2026-04-26T13:32:41.026Z</time></trkpt><trkpt lat="43.9337973" lon="12.3609241"><ele>303.0</ele><time>2026-04-26T13:32:42.023Z</time></trkpt><trkpt lat="43.9339329" lon="12.3609933"><ele>303.0</ele><time>2026-04-26T13:32:43.025Z</time></trkpt><trkpt lat="43.9340729" lon="12.3610437"><ele>303.0</ele><time>2026-04-26T13:32:44.026Z</time></trkpt><trkpt lat="43.9342213" lon="12.3610707"><ele>303.0</ele><time>2026-04-26T13:32:45.031Z</time></trkpt><trkpt lat="43.9343716" lon="12.3610715"><ele>301.75</ele><time>2026-04-26T13:32:46.025Z</time></trkpt><trkpt lat="43.9345195" lon="12.3610868"><ele>300.5</ele><time>2026-04-26T13:32:47.026Z</time></trkpt><trkpt lat="43.9346565" lon="12.3611179"><ele>299.25</ele><time>2026-04-26T13:32:48.025Z</time></trkpt><trkpt lat="43.9347707" lon="12.3611661"><ele>298.0</ele><time>2026-04-26T13:32:49.024Z</time></trkpt><trkpt lat="43.9348554" lon="12.3612327"><ele>298.0</ele><time>2026-04-26T13:32:50.026Z</time></trkpt><trkpt lat="43.9349127" lon="12.361321"><ele>298.0</ele><time>2026-04-26T13:32:51.024Z</time></trkpt><trkpt lat="43.9349679" lon="12.3613933"><ele>298.0</ele><time>2026-04-26T13:32:52.024Z</time></trkpt><trkpt lat="43.9350226" lon="12.3614539"><ele>298.0</ele><time>2026-04-26T13:32:53.025Z</time></trkpt><trkpt lat="43.935093" lon="12.3615056"><ele>298.0</ele><time>2026-04-26T13:32:54.023Z</time></trkpt><trkpt lat="43.9351779" lon="12.3614802"><ele>298.0</ele><time>2026-04-26T13:32:55.024Z</time></trkpt><trkpt lat="43.9352607" lon="12.3614206"><ele>296.6</ele><time>2026-04-26T13:32:56.024Z</time></trkpt><trkpt lat="43.9353381" lon="12.3613394"><ele>295.20000000000005</ele><time>2026-04-26T13:32:57.024Z</time></trkpt><trkpt lat="43.9354124" lon="12.3612458"><ele>293.8</ele><time>2026-04-26T13:32:58.024Z</time></trkpt><trkpt lat="43.9354885" lon="12.3611526"><ele>292.40000000000003</ele><time>2026-04-26T13:32:59.024Z</time></trkpt><trkpt lat="43.9355734" lon="12.3610588"><ele>291.0</ele><time>2026-04-26T13:33:00.024Z</time></trkpt><trkpt lat="43.9356653" lon="12.3609608"><ele>291.0</ele><time>2026-04-26T13:33:01.025Z</time></trkpt><trkpt lat="43.9357686" lon="12.3608572"><ele>291.0</ele><time>2026-04-26T13:33:02.026Z</time></trkpt><trkpt lat="43.9358749" lon="12.3607433"><ele>291.0</ele><time>2026-04-26T13:33:03.023Z</time></trkpt><trkpt lat="43.935982" lon="12.3606115"><ele>291.0</ele><time>2026-04-26T13:33:04.025Z</time></trkpt><trkpt lat="43.9360877" lon="12.3604642"><ele>287.5</ele><time>2026-04-26T13:33:05.03Z</time></trkpt><trkpt lat="43.9361856" lon="12.3603141"><ele>284.0</ele><time>2026-04-26T13:33:06.023Z</time></trkpt><trkpt lat="43.9362772" lon="12.3601541"><ele>280.5</ele><time>2026-04-26T13:33:07.028Z</time></trkpt><trkpt lat="43.9363638" lon="12.3599938"><ele>277.0</ele><time>2026-04-26T13:33:08.024Z</time></trkpt><trkpt lat="43.936448" lon="12.3598324"><ele>275.25</ele><time>2026-04-26T13:33:09.025Z</time></trkpt><trkpt lat="43.9365323" lon="12.3596762"><ele>273.5</ele><time>2026-04-26T13:33:10.024Z</time></trkpt><trkpt lat="43.936619" lon="12.3595232"><ele>271.75</ele><time>2026-04-26T13:33:11.023Z</time></trkpt><trkpt lat="43.9367059" lon="12.3593702"><ele>270.0</ele><time>2026-04-26T13:33:12.024Z</time></trkpt><trkpt lat="43.9367927" lon="12.35922"><ele>268.0</ele><time>2026-04-26T13:33:13.024Z</time></trkpt><trkpt lat="43.9368795" lon="12.3590717"><ele>266.0</ele><time>2026-04-26T13:33:14.027Z</time></trkpt><trkpt lat="43.9369613" lon="12.358925"><ele>264.0</ele><time>2026-04-26T13:33:15.029Z</time></trkpt><trkpt lat="43.9370397" lon="12.3587779"><ele>262.0</ele><time>2026-04-26T13:33:16.026Z</time></trkpt><trkpt lat="43.9371139" lon="12.3586393"><ele>261.3333333333333</ele><time>2026-04-26T13:33:17.024Z</time></trkpt><trkpt lat="43.9371756" lon="12.3585209"><ele>260.66666666666663</ele><time>2026-04-26T13:33:18.024Z</time></trkpt><trkpt lat="43.9372287" lon="12.3584273"><ele>260.0</ele><time>2026-04-26T13:33:19.024Z</time></trkpt><trkpt lat="43.937274" lon="12.3583615"><ele>259.3333333333333</ele><time>2026-04-26T13:33:20.027Z</time></trkpt><trkpt lat="43.9373904" lon="12.3583556"><ele>258.6666666666667</ele><time>2026-04-26T13:33:22.023Z</time></trkpt><trkpt lat="43.9374517" lon="12.3584157"><ele>258.0</ele><time>2026-04-26T13:33:23.024Z</time></trkpt><trkpt lat="43.9375223" lon="12.3585733"><ele>256.0</ele><time>2026-04-26T13:33:24.024Z</time></trkpt><trkpt lat="43.937581" lon="12.3587563"><ele>254.0</ele><time>2026-04-26T13:33:25.029Z</time></trkpt><trkpt lat="43.9376385" lon="12.3589198"><ele>252.0</ele><time>2026-04-26T13:33:26.025Z</time></trkpt><trkpt lat="43.9376838" lon="12.359063"><ele>250.0</ele><time>2026-04-26T13:33:27.025Z</time></trkpt><trkpt lat="43.9377031" lon="12.3592088"><ele>249.99999999999997</ele><time>2026-04-26T13:33:28.025Z</time></trkpt><trkpt lat="43.9377205" lon="12.3593474"><ele>250.0</ele><time>2026-04-26T13:33:29.025Z</time></trkpt><trkpt lat="43.9377634" lon="12.3594604"><ele>250.0</ele><time>2026-04-26T13:33:30.023Z</time></trkpt><trkpt lat="43.9378155" lon="12.3595444"><ele>250.0</ele><time>2026-04-26T13:33:31.023Z</time></trkpt><trkpt lat="43.9378791" lon="12.3596149"><ele>249.99999999999997</ele><time>2026-04-26T13:33:32.029Z</time></trkpt><trkpt lat="43.9379633" lon="12.3596665"><ele>250.0</ele><time>2026-04-26T13:33:33.028Z</time></trkpt><trkpt lat="43.9380609" lon="12.3597092"><ele>250.75</ele><time>2026-04-26T13:33:34.027Z</time></trkpt><trkpt lat="43.9381747" lon="12.3597509"><ele>251.5</ele><time>2026-04-26T13:33:35.023Z</time></trkpt><trkpt lat="43.9383114" lon="12.3598"><ele>252.25</ele><time>2026-04-26T13:33:36.03Z</time></trkpt><trkpt lat="43.938452" lon="12.3598644"><ele>253.0</ele><time>2026-04-26T13:33:37.027Z</time></trkpt><trkpt lat="43.938584" lon="12.3599521"><ele>253.0</ele><time>2026-04-26T13:33:38.025Z</time></trkpt><trkpt lat="43.9386992" lon="12.3600563"><ele>253.0</ele><time>2026-04-26T13:33:39.026Z</time></trkpt><trkpt lat="43.9388082" lon="12.360147"><ele>253.0</ele><time>2026-04-26T13:33:40.028Z</time></trkpt><trkpt lat="43.9389131" lon="12.3602193"><ele>253.0</ele><time>2026-04-26T13:33:41.024Z</time></trkpt><trkpt lat="43.939005" lon="12.3603017"><ele>253.0</ele><time>2026-04-26T13:33:42.023Z</time></trkpt><trkpt lat="43.9390963" lon="12.3603851"><ele>253.0</ele><time>2026-04-26T13:33:43.023Z</time></trkpt><trkpt lat="43.9391863" lon="12.3604535"><ele>253.0</ele><time>2026-04-26T13:33:44.025Z</time></trkpt><trkpt lat="43.939275" lon="12.3604992"><ele>253.0</ele><time>2026-04-26T13:33:45.024Z</time></trkpt><trkpt lat="43.9393705" lon="12.3604969"><ele>253.0</ele><time>2026-04-26T13:33:46.024Z</time></trkpt><trkpt lat="43.9394754" lon="12.3604537"><ele>249.25</ele><time>2026-04-26T13:33:47.024Z</time></trkpt><trkpt lat="43.9395891" lon="12.3604033"><ele>245.5</ele><time>2026-04-26T13:33:48.024Z</time></trkpt><trkpt lat="43.9397103" lon="12.3603908"><ele>241.75</ele><time>2026-04-26T13:33:49.026Z</time></trkpt><trkpt lat="43.9398314" lon="12.3603629"><ele>238.0</ele><time>2026-04-26T13:33:50.024Z</time></trkpt><trkpt lat="43.9399498" lon="12.3603171"><ele>233.75</ele><time>2026-04-26T13:33:51.023Z</time></trkpt><trkpt lat="43.9400724" lon="12.3602944"><ele>229.5</ele><time>2026-04-26T13:33:52.025Z</time></trkpt><trkpt lat="43.9402031" lon="12.3603019"><ele>225.25</ele><time>2026-04-26T13:33:53.025Z</time></trkpt><trkpt lat="43.9403421" lon="12.36034"><ele>221.0</ele><time>2026-04-26T13:33:54.024Z</time></trkpt><trkpt lat="43.9404817" lon="12.3603958"><ele>221.0</ele><time>2026-04-26T13:33:55.028Z</time></trkpt><trkpt lat="43.940608" lon="12.3604482"><ele>221.0</ele><time>2026-04-26T13:33:56.023Z</time></trkpt><trkpt lat="43.9407234" lon="12.3605067"><ele>221.0</ele><time>2026-04-26T13:33:57.027Z</time></trkpt><trkpt lat="43.9408247" lon="12.3605887"><ele>221.0</ele><time>2026-04-26T13:33:58.029Z</time></trkpt><trkpt lat="43.9409267" lon="12.3606852"><ele>219.5</ele><time>2026-04-26T13:33:59.026Z</time></trkpt><trkpt lat="43.9410369" lon="12.3607985"><ele>218.0</ele><time>2026-04-26T13:34:00.035Z</time></trkpt><trkpt lat="43.9411637" lon="12.3609026"><ele>216.5</ele><time>2026-04-26T13:34:01.025Z</time></trkpt><trkpt lat="43.9412955" lon="12.3610059"><ele>215.0</ele><time>2026-04-26T13:34:02.024Z</time></trkpt><trkpt lat="43.9414246" lon="12.3611036"><ele>215.0</ele><time>2026-04-26T13:34:03.024Z</time></trkpt><trkpt lat="43.9415562" lon="12.3611769"><ele>215.0</ele><time>2026-04-26T13:34:04.028Z</time></trkpt><trkpt lat="43.9416886" lon="12.3612247"><ele>215.0</ele><time>2026-04-26T13:34:05.024Z</time></trkpt><trkpt lat="43.9418154" lon="12.361275"><ele>215.0</ele><time>2026-04-26T13:34:06.029Z</time></trkpt><trkpt lat="43.9419359" lon="12.3613456"><ele>213.75</ele><time>2026-04-26T13:34:07.025Z</time></trkpt><trkpt lat="43.9420493" lon="12.3614285"><ele>212.5</ele><time>2026-04-26T13:34:08.028Z</time></trkpt><trkpt lat="43.9421611" lon="12.3615036"><ele>211.25</ele><time>2026-04-26T13:34:09.024Z</time></trkpt><trkpt lat="43.9422817" lon="12.3615571"><ele>210.0</ele><time>2026-04-26T13:34:10.026Z</time></trkpt><trkpt lat="43.9424142" lon="12.3615817"><ele>207.75</ele><time>2026-04-26T13:34:11.025Z</time></trkpt><trkpt lat="43.9425538" lon="12.3616034"><ele>205.5</ele><time>2026-04-26T13:34:12.024Z</time></trkpt><trkpt lat="43.9426925" lon="12.3616321"><ele>203.25</ele><time>2026-04-26T13:34:13.024Z</time></trkpt><trkpt lat="43.9428285" lon="12.3616482"><ele>201.0</ele><time>2026-04-26T13:34:14.025Z</time></trkpt><trkpt lat="43.942957" lon="12.3616687"><ele>201.0</ele><time>2026-04-26T13:34:15.027Z</time></trkpt><trkpt lat="43.9430709" lon="12.3617155"><ele>201.0</ele><time>2026-04-26T13:34:16.024Z</time></trkpt><trkpt lat="43.9431701" lon="12.3618018"><ele>201.0</ele><time>2026-04-26T13:34:17.026Z</time></trkpt><trkpt lat="43.943269" lon="12.3618796"><ele>201.0</ele><time>2026-04-26T13:34:18.024Z</time></trkpt><trkpt lat="43.9433842" lon="12.3619163"><ele>197.66666666666666</ele><time>2026-04-26T13:34:19.024Z</time></trkpt><trkpt lat="43.9435093" lon="12.3619333"><ele>194.33333333333331</ele><time>2026-04-26T13:34:20.03Z</time></trkpt><trkpt lat="43.943647" lon="12.3619482"><ele>191.0</ele><time>2026-04-26T13:34:21.408Z</time></trkpt><trkpt lat="43.9438846" lon="12.3619551"><ele>191.0</ele><time>2026-04-26T13:34:23.024Z</time></trkpt><trkpt lat="43.9440127" lon="12.3619406"><ele>191.0</ele><time>2026-04-26T13:34:24.023Z</time></trkpt><trkpt lat="43.9441342" lon="12.3619"><ele>191.0</ele><time>2026-04-26T13:34:25.03Z</time></trkpt><trkpt lat="43.9442486" lon="12.3618456"><ele>191.0</ele><time>2026-04-26T13:34:26.027Z</time></trkpt><trkpt lat="43.9443629" lon="12.3618106"><ele>189.0</ele><time>2026-04-26T13:34:27.025Z</time></trkpt><trkpt lat="43.94448" lon="12.3618297"><ele>187.0</ele><time>2026-04-26T13:34:28.027Z</time></trkpt><trkpt lat="43.9445954" lon="12.3618651"><ele>185.0</ele><time>2026-04-26T13:34:29.026Z</time></trkpt><trkpt lat="43.9447089" lon="12.3619046"><ele>183.0</ele><time>2026-04-26T13:34:30.027Z</time></trkpt><trkpt lat="43.9448196" lon="12.361944"><ele>183.0</ele><time>2026-04-26T13:34:31.036Z</time></trkpt><trkpt lat="43.9449276" lon="12.3619814"><ele>183.0</ele><time>2026-04-26T13:34:32.028Z</time></trkpt><trkpt lat="43.9450342" lon="12.3620262"><ele>183.0</ele><time>2026-04-26T13:34:33.027Z</time></trkpt><trkpt lat="43.9451347" lon="12.3620827"><ele>183.0</ele><time>2026-04-26T13:34:34.025Z</time></trkpt><trkpt lat="43.9452263" lon="12.3621576"><ele>183.0</ele><time>2026-04-26T13:34:35.024Z</time></trkpt><trkpt lat="43.945305" lon="12.3622684"><ele>182.25</ele><time>2026-04-26T13:34:36.023Z</time></trkpt><trkpt lat="43.945375" lon="12.3624077"><ele>181.5</ele><time>2026-04-26T13:34:37.026Z</time></trkpt><trkpt lat="43.9454476" lon="12.3625595"><ele>180.75</ele><time>2026-04-26T13:34:38.029Z</time></trkpt><trkpt lat="43.9455196" lon="12.3627176"><ele>180.0</ele><time>2026-04-26T13:34:39.026Z</time></trkpt><trkpt lat="43.9455919" lon="12.3628782"><ele>180.25</ele><time>2026-04-26T13:34:40.024Z</time></trkpt><trkpt lat="43.9456676" lon="12.3630397"><ele>180.5</ele><time>2026-04-26T13:34:41.023Z</time></trkpt><trkpt lat="43.9457557" lon="12.3631915"><ele>180.75</ele><time>2026-04-26T13:34:42.029Z</time></trkpt><trkpt lat="43.9458563" lon="12.3633299"><ele>181.0</ele><time>2026-04-26T13:34:43.028Z</time></trkpt><trkpt lat="43.945968" lon="12.3634597"><ele>179.66666666666669</ele><time>2026-04-26T13:34:44.027Z</time></trkpt><trkpt lat="43.9460886" lon="12.3635846"><ele>178.33333333333334</ele><time>2026-04-26T13:34:45.025Z</time></trkpt><trkpt lat="43.9462118" lon="12.3637153"><ele>177.0</ele><time>2026-04-26T13:34:46.028Z</time></trkpt><trkpt lat="43.9463383" lon="12.3638467"><ele>177.25</ele><time>2026-04-26T13:34:47.026Z</time></trkpt><trkpt lat="43.9464567" lon="12.3639733"><ele>177.5</ele><time>2026-04-26T13:34:48.026Z</time></trkpt><trkpt lat="43.9465733" lon="12.3640983"><ele>177.75</ele><time>2026-04-26T13:34:49.026Z</time></trkpt><trkpt lat="43.9466867" lon="12.364215"><ele>178.0</ele><time>2026-04-26T13:34:50.028Z</time></trkpt><trkpt lat="43.946785" lon="12.3643367"><ele>177.5</ele><time>2026-04-26T13:34:51.032Z</time></trkpt><trkpt lat="43.946885" lon="12.3644433"><ele>177.0</ele><time>2026-04-26T13:34:52.025Z</time></trkpt><trkpt lat="43.9469967" lon="12.36454"><ele>176.5</ele><time>2026-04-26T13:34:53.025Z</time></trkpt><trkpt lat="43.9471183" lon="12.3646333"><ele>176.0</ele><time>2026-04-26T13:34:54.026Z</time></trkpt><trkpt lat="43.9472483" lon="12.3647133"><ele>176.0</ele><time>2026-04-26T13:34:55.024Z</time></trkpt><trkpt lat="43.94737" lon="12.3647933"><ele>176.0</ele><time>2026-04-26T13:34:56.031Z</time></trkpt><trkpt lat="43.947485" lon="12.3648833"><ele>176.0</ele><time>2026-04-26T13:34:57.025Z</time></trkpt><trkpt lat="43.94759" lon="12.3649667"><ele>176.0</ele><time>2026-04-26T13:34:58.028Z</time></trkpt><trkpt lat="43.9476833" lon="12.3650433"><ele>174.8</ele><time>2026-04-26T13:34:59.025Z</time></trkpt><trkpt lat="43.94776" lon="12.3651033"><ele>173.60000000000002</ele><time>2026-04-26T13:35:00.025Z</time></trkpt><trkpt lat="43.9478167" lon="12.36515"><ele>172.4</ele><time>2026-04-26T13:35:01.026Z</time></trkpt><trkpt lat="43.9478783" lon="12.3651967"><ele>171.2</ele><time>2026-04-26T13:35:04.03Z</time></trkpt><trkpt lat="43.947975" lon="12.3651033"><ele>170.0</ele><time>2026-04-26T13:35:44.023Z</time></trkpt><trkpt lat="43.94805" lon="12.3649233"><ele>170.0</ele><time>2026-04-26T13:35:45.025Z</time></trkpt><trkpt lat="43.9481183" lon="12.3647867"><ele>170.0</ele><time>2026-04-26T13:35:46.024Z</time></trkpt><trkpt lat="43.9481833" lon="12.3646617"><ele>170.0</ele><time>2026-04-26T13:35:47.025Z</time></trkpt><trkpt lat="43.9482567" lon="12.36455"><ele>170.0</ele><time>2026-04-26T13:35:48.024Z</time></trkpt><trkpt lat="43.94834" lon="12.364455"><ele>170.0</ele><time>2026-04-26T13:35:49.024Z</time></trkpt><trkpt lat="43.9484183" lon="12.3643933"><ele>168.5</ele><time>2026-04-26T13:35:50.023Z</time></trkpt><trkpt lat="43.9484933" lon="12.3643483"><ele>167.0</ele><time>2026-04-26T13:35:51.024Z</time></trkpt><trkpt lat="43.9485533" lon="12.3643167"><ele>165.5</ele><time>2026-04-26T13:35:52.023Z</time></trkpt><trkpt lat="43.9486383" lon="12.3643117"><ele>164.0</ele><time>2026-04-26T13:35:54.024Z</time></trkpt><trkpt lat="43.9487083" lon="12.3643767"><ele>162.5</ele><time>2026-04-26T13:35:57.023Z</time></trkpt><trkpt lat="43.9487667" lon="12.36449"><ele>161.0</ele><time>2026-04-26T13:35:59.025Z</time></trkpt><trkpt lat="43.948815" lon="12.364595"><ele>163.0</ele><time>2026-04-26T13:36:00.026Z</time></trkpt><trkpt lat="43.9488733" lon="12.3647517"><ele>165.0</ele><time>2026-04-26T13:36:01.025Z</time></trkpt><trkpt lat="43.9489717" lon="12.36495"><ele>167.0</ele><time>2026-04-26T13:36:02.023Z</time></trkpt><trkpt lat="43.9490983" lon="12.3651533"><ele>167.0</ele><time>2026-04-26T13:36:03.024Z</time></trkpt><trkpt lat="43.949235" lon="12.3653483"><ele>167.0</ele><time>2026-04-26T13:36:04.025Z</time></trkpt><trkpt lat="43.949375" lon="12.3655433"><ele>167.0</ele><time>2026-04-26T13:36:05.029Z</time></trkpt><trkpt lat="43.9495233" lon="12.3657333"><ele>167.0</ele><time>2026-04-26T13:36:06.025Z</time></trkpt><trkpt lat="43.9496733" lon="12.3659333"><ele>167.0</ele><time>2026-04-26T13:36:07.025Z</time></trkpt><trkpt lat="43.9498317" lon="12.3661283"><ele>167.0</ele><time>2026-04-26T13:36:08.024Z</time></trkpt><trkpt lat="43.949995" lon="12.366325"><ele>163.66666666666666</ele><time>2026-04-26T13:36:09.026Z</time></trkpt><trkpt lat="43.9501583" lon="12.36652"><ele>160.33333333333334</ele><time>2026-04-26T13:36:10.024Z</time></trkpt><trkpt lat="43.9503217" lon="12.3667117"><ele>157.0</ele><time>2026-04-26T13:36:11.027Z</time></trkpt><trkpt lat="43.9504817" lon="12.3668967"><ele>157.0</ele><time>2026-04-26T13:36:12.024Z</time></trkpt><trkpt lat="43.95064" lon="12.3670817"><ele>157.0</ele><time>2026-04-26T13:36:13.024Z</time></trkpt><trkpt lat="43.9507917" lon="12.367255"><ele>157.0</ele><time>2026-04-26T13:36:14.023Z</time></trkpt><trkpt lat="43.95094" lon="12.3674183"><ele>158.0</ele><time>2026-04-26T13:36:15.024Z</time></trkpt><trkpt lat="43.9510767" lon="12.367565"><ele>159.0</ele><time>2026-04-26T13:36:16.024Z</time></trkpt><trkpt lat="43.9512" lon="12.3677017"><ele>160.0</ele><time>2026-04-26T13:36:17.022Z</time></trkpt><trkpt lat="43.9513133" lon="12.36783"><ele>160.0</ele><time>2026-04-26T13:36:18.022Z</time></trkpt><trkpt lat="43.9514183" lon="12.367955"><ele>160.0</ele><time>2026-04-26T13:36:19.022Z</time></trkpt><trkpt lat="43.95152" lon="12.3680717"><ele>160.0</ele><time>2026-04-26T13:36:20.025Z</time></trkpt><trkpt lat="43.9516217" lon="12.3681883"><ele>160.0</ele><time>2026-04-26T13:36:21.025Z</time></trkpt><trkpt lat="43.9517217" lon="12.36831"><ele>161.0</ele><time>2026-04-26T13:36:22.026Z</time></trkpt><trkpt lat="43.951815" lon="12.3684433"><ele>162.0</ele><time>2026-04-26T13:36:23.024Z</time></trkpt><trkpt lat="43.9518967" lon="12.3685667"><ele>163.0</ele><time>2026-04-26T13:36:24.024Z</time></trkpt><trkpt lat="43.9519683" lon="12.3686583"><ele>164.0</ele><time>2026-04-26T13:36:25.026Z</time></trkpt><trkpt lat="43.9520383" lon="12.3687217"><ele>165.0</ele><time>2026-04-26T13:36:26.025Z</time></trkpt><trkpt lat="43.9521167" lon="12.368745"><ele>165.0</ele><time>2026-04-26T13:36:27.03Z</time></trkpt><trkpt lat="43.9521933" lon="12.3687617"><ele>165.0</ele><time>2026-04-26T13:36:28.023Z</time></trkpt><trkpt lat="43.9522533" lon="12.3687883"><ele>165.0</ele><time>2026-04-26T13:36:29.024Z</time></trkpt><trkpt lat="43.952315" lon="12.3688317"><ele>165.0</ele><time>2026-04-26T13:36:30.024Z</time></trkpt><trkpt lat="43.9523783" lon="12.3689033"><ele>165.0</ele><time>2026-04-26T13:36:31.024Z</time></trkpt><trkpt lat="43.9524417" lon="12.368985"><ele>165.0</ele><time>2026-04-26T13:36:32.024Z</time></trkpt><trkpt lat="43.9525083" lon="12.3690733"><ele>164.0</ele><time>2026-04-26T13:36:33.028Z</time></trkpt><trkpt lat="43.952565" lon="12.3691717"><ele>163.0</ele><time>2026-04-26T13:36:34.026Z</time></trkpt><trkpt lat="43.9526183" lon="12.3692767"><ele>162.0</ele><time>2026-04-26T13:36:35.022Z</time></trkpt><trkpt lat="43.9526667" lon="12.3693917"><ele>161.0</ele><time>2026-04-26T13:36:36.023Z</time></trkpt><trkpt lat="43.9527183" lon="12.3695133"><ele>160.0</ele><time>2026-04-26T13:36:37.024Z</time></trkpt><trkpt lat="43.9527583" lon="12.36963"><ele>160.33333333333334</ele><time>2026-04-26T13:36:38.024Z</time></trkpt><trkpt lat="43.9528012" lon="12.3697412"><ele>160.66666666666669</ele><time>2026-04-26T13:36:39.025Z</time></trkpt><trkpt lat="43.9528498" lon="12.3698477"><ele>161.0</ele><time>2026-04-26T13:36:40.025Z</time></trkpt><trkpt lat="43.9529018" lon="12.3699501"><ele>161.33333333333334</ele><time>2026-04-26T13:36:41.023Z</time></trkpt><trkpt lat="43.9529491" lon="12.3700515"><ele>161.66666666666666</ele><time>2026-04-26T13:36:42.024Z</time></trkpt><trkpt lat="43.9529877" lon="12.3701535"><ele>162.0</ele><time>2026-04-26T13:36:43.023Z</time></trkpt><trkpt lat="43.9530297" lon="12.3702501"><ele>162.0</ele><time>2026-04-26T13:36:44.024Z</time></trkpt><trkpt lat="43.9530756" lon="12.3703409"><ele>162.0</ele><time>2026-04-26T13:36:45.029Z</time></trkpt><trkpt lat="43.9531248" lon="12.3704365"><ele>162.0</ele><time>2026-04-26T13:36:46.023Z</time></trkpt><trkpt lat="43.9531757" lon="12.3705414"><ele>162.0</ele><time>2026-04-26T13:36:47.026Z</time></trkpt><trkpt lat="43.9532256" lon="12.3706453"><ele>162.0</ele><time>2026-04-26T13:36:48.023Z</time></trkpt><trkpt lat="43.9532821" lon="12.3707546"><ele>162.0</ele><time>2026-04-26T13:36:49.024Z</time></trkpt><trkpt lat="43.9533365" lon="12.3708738"><ele>161.5</ele><time>2026-04-26T13:36:50.024Z</time></trkpt><trkpt lat="43.9533874" lon="12.3709945"><ele>161.0</ele><time>2026-04-26T13:36:51.025Z</time></trkpt><trkpt lat="43.9534361" lon="12.3711053"><ele>160.5</ele><time>2026-04-26T13:36:52.024Z</time></trkpt><trkpt lat="43.9534831" lon="12.3712103"><ele>160.0</ele><time>2026-04-26T13:36:53.025Z</time></trkpt><trkpt lat="43.9535305" lon="12.3713085"><ele>159.5</ele><time>2026-04-26T13:36:54.028Z</time></trkpt><trkpt lat="43.9535751" lon="12.3713981"><ele>159.0</ele><time>2026-04-26T13:36:55.024Z</time></trkpt><trkpt lat="43.9536131" lon="12.37148"><ele>159.0</ele><time>2026-04-26T13:36:56.025Z</time></trkpt><trkpt lat="43.9536597" lon="12.3716003"><ele>159.0</ele><time>2026-04-26T13:36:58.024Z</time></trkpt><trkpt lat="43.9537055" lon="12.3716844"><ele>159.0</ele><time>2026-04-26T13:37:00.021Z</time></trkpt><trkpt lat="43.9537665" lon="12.3717735"><ele>159.0</ele><time>2026-04-26T13:37:02.023Z</time></trkpt><trkpt lat="43.9538143" lon="12.3718768"><ele>159.0</ele><time>2026-04-26T13:37:04.029Z</time></trkpt><trkpt lat="43.9538725" lon="12.3720038"><ele>159.0</ele><time>2026-04-26T13:37:06.025Z</time></trkpt><trkpt lat="43.9539311" lon="12.3721448"><ele>159.0</ele><time>2026-04-26T13:37:08.025Z</time></trkpt><trkpt lat="43.9539532" lon="12.372256"><ele>159.0</ele><time>2026-04-26T13:37:11.023Z</time></trkpt><trkpt lat="43.9539179" lon="12.3723401"><ele>159.0</ele><time>2026-04-26T13:37:13.025Z</time></trkpt><trkpt lat="43.9538282" lon="12.3724453"><ele>159.0</ele><time>2026-04-26T13:37:15.022Z</time></trkpt><trkpt lat="43.9537518" lon="12.3725082"><ele>159.0</ele><time>2026-04-26T13:37:16.023Z</time></trkpt><trkpt lat="43.9536982" lon="12.3725712"><ele>159.0</ele><time>2026-04-26T13:37:17.025Z</time></trkpt><trkpt lat="43.9536651" lon="12.3727158"><ele>159.0</ele><time>2026-04-26T13:37:19.022Z</time></trkpt><trkpt lat="43.9536719" lon="12.3728796"><ele>159.0</ele><time>2026-04-26T13:37:21.025Z</time></trkpt><trkpt lat="43.9536837" lon="12.3730284"><ele>159.0</ele><time>2026-04-26T13:37:23.026Z</time></trkpt><trkpt lat="43.9536593" lon="12.373129"><ele>159.0</ele><time>2026-04-26T13:37:25.028Z</time></trkpt><trkpt lat="43.9535604" lon="12.3730794"><ele>159.0</ele><time>2026-04-26T13:37:28.024Z</time></trkpt><trkpt lat="43.9534953" lon="12.3729533"><ele>159.0</ele><time>2026-04-26T13:37:30.022Z</time></trkpt><trkpt lat="43.9534903" lon="12.3728283"><ele>159.0</ele><time>2026-04-26T13:37:31.024Z</time></trkpt><trkpt lat="43.953472" lon="12.3727113"><ele>159.0</ele><time>2026-04-26T13:37:32.027Z</time></trkpt><trkpt lat="43.9534341" lon="12.3726082"><ele>159.0</ele><time>2026-04-26T13:37:33.026Z</time></trkpt><trkpt lat="43.9533982" lon="12.3725079"><ele>159.0</ele><time>2026-04-26T13:37:34.021Z</time></trkpt><trkpt lat="43.9533662" lon="12.3724063"><ele>159.0</ele><time>2026-04-26T13:37:35.025Z</time></trkpt><trkpt lat="43.953331" lon="12.3723017"><ele>159.0</ele><time>2026-04-26T13:37:36.023Z</time></trkpt><trkpt lat="43.9533077" lon="12.37219"><ele>159.0</ele><time>2026-04-26T13:37:37.024Z</time></trkpt><trkpt lat="43.9532729" lon="12.372093"><ele>159.0</ele><time>2026-04-26T13:37:38.023Z</time></trkpt><trkpt lat="43.9532396" lon="12.3720094"><ele>164.0</ele><time>2026-04-26T13:37:39.033Z</time></trkpt><trkpt lat="43.9532034" lon="12.3718791"><ele>164.0</ele><time>2026-04-26T13:37:41.022Z</time></trkpt><trkpt lat="43.9531568" lon="12.3717824"><ele>164.0</ele><time>2026-04-26T13:37:44.028Z</time></trkpt></trkseg><trkseg><trkpt lat="43.953152" lon="12.3716402"><ele>164.0</ele><time>2026-04-26T14:06:59.025Z</time></trkpt><trkpt lat="43.9531249" lon="12.3715114"><ele>164.0</ele><time>2026-04-26T14:07:00.024Z</time></trkpt><trkpt lat="43.9530903" lon="12.3713754"><ele>164.0</ele><time>2026-04-26T14:07:01.024Z</time></trkpt><trkpt lat="43.9530453" lon="12.3712312"><ele>164.0</ele><time>2026-04-26T14:07:02.025Z</time></trkpt><trkpt lat="43.953006" lon="12.3711003"><ele>164.0</ele><time>2026-04-26T14:07:03.025Z</time></trkpt><trkpt lat="43.9529727" lon="12.3709868"><ele>164.0</ele><time>2026-04-26T14:07:04.026Z</time></trkpt><trkpt lat="43.952947" lon="12.3708927"><ele>164.0</ele><time>2026-04-26T14:07:05.026Z</time></trkpt><trkpt lat="43.9528765" lon="12.3707669"><ele>164.0</ele><time>2026-04-26T14:07:07.024Z</time></trkpt><trkpt lat="43.952827" lon="12.3707041"><ele>164.0</ele><time>2026-04-26T14:07:08.027Z</time></trkpt><trkpt lat="43.952778" lon="12.3706012"><ele>164.0</ele><time>2026-04-26T14:07:09.026Z</time></trkpt><trkpt lat="43.9527203" lon="12.3704659"><ele>163.33333333333331</ele><time>2026-04-26T14:07:10.023Z</time></trkpt><trkpt lat="43.9526524" lon="12.3702524"><ele>162.66666666666666</ele><time>2026-04-26T14:07:11.025Z</time></trkpt><trkpt lat="43.9525783" lon="12.3700143"><ele>162.0</ele><time>2026-04-26T14:07:12.023Z</time></trkpt><trkpt lat="43.9525074" lon="12.3697771"><ele>163.66666666666666</ele><time>2026-04-26T14:07:13.032Z</time></trkpt><trkpt lat="43.9524396" lon="12.3695671"><ele>165.33333333333331</ele><time>2026-04-26T14:07:14.024Z</time></trkpt><trkpt lat="43.9523733" lon="12.3693833"><ele>167.0</ele><time>2026-04-26T14:07:15.023Z</time></trkpt><trkpt lat="43.952305" lon="12.36922"><ele>167.0</ele><time>2026-04-26T14:07:16.024Z</time></trkpt><trkpt lat="43.952235" lon="12.3690667"><ele>167.0</ele><time>2026-04-26T14:07:17.023Z</time></trkpt><trkpt lat="43.9521567" lon="12.3689067"><ele>167.0</ele><time>2026-04-26T14:07:18.024Z</time></trkpt><trkpt lat="43.952065" lon="12.3687417"><ele>167.0</ele><time>2026-04-26T14:07:19.025Z</time></trkpt><trkpt lat="43.9519583" lon="12.368565"><ele>167.33333333333331</ele><time>2026-04-26T14:07:20.027Z</time></trkpt><trkpt lat="43.95184" lon="12.3683867"><ele>167.66666666666666</ele><time>2026-04-26T14:07:21.024Z</time></trkpt><trkpt lat="43.951715" lon="12.3682183"><ele>168.0</ele><time>2026-04-26T14:07:22.024Z</time></trkpt><trkpt lat="43.9515833" lon="12.3680517"><ele>165.33333333333334</ele><time>2026-04-26T14:07:23.025Z</time></trkpt><trkpt lat="43.9514433" lon="12.3678867"><ele>162.66666666666669</ele><time>2026-04-26T14:07:24.025Z</time></trkpt><trkpt lat="43.95131" lon="12.3677267"><ele>160.0</ele><time>2026-04-26T14:07:25.03Z</time></trkpt><trkpt lat="43.951185" lon="12.3675683"><ele>160.0</ele><time>2026-04-26T14:07:26.027Z</time></trkpt><trkpt lat="43.9510667" lon="12.36743"><ele>160.0</ele><time>2026-04-26T14:07:27.025Z</time></trkpt><trkpt lat="43.95095" lon="12.3673017"><ele>160.0</ele><time>2026-04-26T14:07:28.024Z</time></trkpt><trkpt lat="43.9508383" lon="12.3671833"><ele>160.0</ele><time>2026-04-26T14:07:29.023Z</time></trkpt><trkpt lat="43.95073" lon="12.3670683"><ele>159.25</ele><time>2026-04-26T14:07:30.024Z</time></trkpt><trkpt lat="43.95063" lon="12.36696"><ele>158.5</ele><time>2026-04-26T14:07:31.023Z</time></trkpt><trkpt lat="43.9505333" lon="12.36685"><ele>157.75</ele><time>2026-04-26T14:07:32.027Z</time></trkpt><trkpt lat="43.950435" lon="12.36673"><ele>157.0</ele><time>2026-04-26T14:07:33.024Z</time></trkpt><trkpt lat="43.95033" lon="12.3666133"><ele>157.0</ele><time>2026-04-26T14:07:34.025Z</time></trkpt><trkpt lat="43.9502217" lon="12.3664967"><ele>157.0</ele><time>2026-04-26T14:07:35.026Z</time></trkpt><trkpt lat="43.9501133" lon="12.366375"><ele>157.0</ele><time>2026-04-26T14:07:36.026Z</time></trkpt><trkpt lat="43.9500033" lon="12.3662517"><ele>157.0</ele><time>2026-04-26T14:07:37.024Z</time></trkpt><trkpt lat="43.9498917" lon="12.366125"><ele>160.33333333333334</ele><time>2026-04-26T14:07:38.029Z</time></trkpt><trkpt lat="43.949785" lon="12.3659883"><ele>163.66666666666666</ele><time>2026-04-26T14:07:39.026Z</time></trkpt><trkpt lat="43.9496717" lon="12.365845"><ele>167.0</ele><time>2026-04-26T14:07:40.024Z</time></trkpt><trkpt lat="43.9495583" lon="12.365695"><ele>167.0</ele><time>2026-04-26T14:07:41.024Z</time></trkpt><trkpt lat="43.9494467" lon="12.3655433"><ele>167.0</ele><time>2026-04-26T14:07:42.025Z</time></trkpt><trkpt lat="43.94933" lon="12.3653883"><ele>167.0</ele><time>2026-04-26T14:07:43.033Z</time></trkpt><trkpt lat="43.9492133" lon="12.3652167"><ele>167.0</ele><time>2026-04-26T14:07:44.025Z</time></trkpt><trkpt lat="43.9491033" lon="12.3650383"><ele>167.0</ele><time>2026-04-26T14:07:45.025Z</time></trkpt><trkpt lat="43.9490117" lon="12.364855"><ele>167.0</ele><time>2026-04-26T14:07:46.024Z</time></trkpt><trkpt lat="43.9489217" lon="12.3646733"><ele>165.0</ele><time>2026-04-26T14:07:47.025Z</time></trkpt><trkpt lat="43.9488433" lon="12.364485"><ele>163.0</ele><time>2026-04-26T14:07:48.026Z</time></trkpt><trkpt lat="43.94877" lon="12.3643017"><ele>161.0</ele><time>2026-04-26T14:07:49.022Z</time></trkpt><trkpt lat="43.9486967" lon="12.3641117"><ele>161.0</ele><time>2026-04-26T14:07:50.025Z</time></trkpt><trkpt lat="43.9486233" lon="12.363915"><ele>161.0</ele><time>2026-04-26T14:07:51.025Z</time></trkpt><trkpt lat="43.9485467" lon="12.36372"><ele>161.0</ele><time>2026-04-26T14:07:52.025Z</time></trkpt><trkpt lat="43.9484717" lon="12.3635217"><ele>161.0</ele><time>2026-04-26T14:07:53.023Z</time></trkpt><trkpt lat="43.9483867" lon="12.3633067"><ele>161.0</ele><time>2026-04-26T14:07:54.029Z</time></trkpt><trkpt lat="43.9482833" lon="12.3630817"><ele>161.0</ele><time>2026-04-26T14:07:55.024Z</time></trkpt><trkpt lat="43.9481667" lon="12.362855"><ele>161.66666666666666</ele><time>2026-04-26T14:07:56.023Z</time></trkpt><trkpt lat="43.9480417" lon="12.3626417"><ele>162.33333333333334</ele><time>2026-04-26T14:07:57.022Z</time></trkpt><trkpt lat="43.9479117" lon="12.3624467"><ele>163.0</ele><time>2026-04-26T14:07:58.022Z</time></trkpt><trkpt lat="43.9477817" lon="12.3622683"><ele>163.0</ele><time>2026-04-26T14:07:59.025Z</time></trkpt><trkpt lat="43.9476483" lon="12.3620983"><ele>163.0</ele><time>2026-04-26T14:08:00.028Z</time></trkpt><trkpt lat="43.9475133" lon="12.3619367"><ele>163.0</ele><time>2026-04-26T14:08:01.025Z</time></trkpt><trkpt lat="43.9473767" lon="12.3617917"><ele>163.0</ele><time>2026-04-26T14:08:02.023Z</time></trkpt><trkpt lat="43.9472367" lon="12.3616567"><ele>163.0</ele><time>2026-04-26T14:08:03.023Z</time></trkpt><trkpt lat="43.9471" lon="12.361525"><ele>163.0</ele><time>2026-04-26T14:08:04.024Z</time></trkpt><trkpt lat="43.9469683" lon="12.3613883"><ele>162.33333333333334</ele><time>2026-04-26T14:08:05.022Z</time></trkpt><trkpt lat="43.9468317" lon="12.3612533"><ele>161.66666666666666</ele><time>2026-04-26T14:08:06.023Z</time></trkpt><trkpt lat="43.946685" lon="12.3611283"><ele>161.0</ele><time>2026-04-26T14:08:07.023Z</time></trkpt><trkpt lat="43.94653" lon="12.361005"><ele>161.0</ele><time>2026-04-26T14:08:08.024Z</time></trkpt><trkpt lat="43.9463733" lon="12.360885"><ele>161.0</ele><time>2026-04-26T14:08:09.025Z</time></trkpt><trkpt lat="43.94621" lon="12.3607667"><ele>161.0</ele><time>2026-04-26T14:08:10.025Z</time></trkpt><trkpt lat="43.94605" lon="12.3606417"><ele>160.66666666666666</ele><time>2026-04-26T14:08:11.025Z</time></trkpt><trkpt lat="43.9458833" lon="12.3605133"><ele>160.33333333333334</ele><time>2026-04-26T14:08:12.023Z</time></trkpt><trkpt lat="43.9457217" lon="12.3603733"><ele>160.0</ele><time>2026-04-26T14:08:13.027Z</time></trkpt><trkpt lat="43.9455683" lon="12.3602183"><ele>160.0</ele><time>2026-04-26T14:08:14.024Z</time></trkpt><trkpt lat="43.9454283" lon="12.36006"><ele>160.0</ele><time>2026-04-26T14:08:15.027Z</time></trkpt><trkpt lat="43.9453033" lon="12.3598967"><ele>160.0</ele><time>2026-04-26T14:08:16.029Z</time></trkpt><trkpt lat="43.9451883" lon="12.3597233"><ele>160.0</ele><time>2026-04-26T14:08:17.024Z</time></trkpt><trkpt lat="43.9450733" lon="12.3595517"><ele>160.0</ele><time>2026-04-26T14:08:18.024Z</time></trkpt><trkpt lat="43.944965" lon="12.3593767"><ele>160.0</ele><time>2026-04-26T14:08:19.023Z</time></trkpt><trkpt lat="43.9448567" lon="12.359205"><ele>160.0</ele><time>2026-04-26T14:08:20.024Z</time></trkpt><trkpt lat="43.9447467" lon="12.3590317"><ele>160.0</ele><time>2026-04-26T14:08:21.026Z</time></trkpt><trkpt lat="43.9446367" lon="12.3588617"><ele>160.0</ele><time>2026-04-26T14:08:22.023Z</time></trkpt><trkpt lat="43.94453" lon="12.3586867"><ele>159.33333333333334</ele><time>2026-04-26T14:08:23.022Z</time></trkpt><trkpt lat="43.94442" lon="12.3585133"><ele>158.66666666666666</ele><time>2026-04-26T14:08:24.021Z</time></trkpt><trkpt lat="43.94431" lon="12.35834"><ele>158.0</ele><time>2026-04-26T14:08:25.024Z</time></trkpt><trkpt lat="43.944205" lon="12.3581617"><ele>158.66666666666666</ele><time>2026-04-26T14:08:26.025Z</time></trkpt><trkpt lat="43.9440967" lon="12.357985"><ele>159.33333333333334</ele><time>2026-04-26T14:08:27.026Z</time></trkpt><trkpt lat="43.9439917" lon="12.3578117"><ele>160.0</ele><time>2026-04-26T14:08:28.023Z</time></trkpt><trkpt lat="43.9438833" lon="12.3576367"><ele>160.0</ele><time>2026-04-26T14:08:29.023Z</time></trkpt><trkpt lat="43.94377" lon="12.357465"><ele>160.0</ele><time>2026-04-26T14:08:30.024Z</time></trkpt><trkpt lat="43.9436567" lon="12.357285"><ele>160.0</ele><time>2026-04-26T14:08:31.022Z</time></trkpt><trkpt lat="43.9435467" lon="12.3571017"><ele>160.33333333333334</ele><time>2026-04-26T14:08:32.023Z</time></trkpt><trkpt lat="43.9434333" lon="12.3569183"><ele>160.66666666666666</ele><time>2026-04-26T14:08:33.022Z</time></trkpt><trkpt lat="43.9433133" lon="12.3567383"><ele>161.0</ele><time>2026-04-26T14:08:34.022Z</time></trkpt><trkpt lat="43.9431867" lon="12.3565733"><ele>161.0</ele><time>2026-04-26T14:08:35.024Z</time></trkpt><trkpt lat="43.9430467" lon="12.3564283"><ele>161.0</ele><time>2026-04-26T14:08:36.028Z</time></trkpt><trkpt lat="43.9429083" lon="12.3562833"><ele>161.0</ele><time>2026-04-26T14:08:37.024Z</time></trkpt><trkpt lat="43.942765" lon="12.356145"><ele>161.0</ele><time>2026-04-26T14:08:38.022Z</time></trkpt><trkpt lat="43.9426217" lon="12.3560067"><ele>161.0</ele><time>2026-04-26T14:08:39.026Z</time></trkpt><trkpt lat="43.9424767" lon="12.3558667"><ele>161.0</ele><time>2026-04-26T14:08:40.025Z</time></trkpt><trkpt lat="43.94233" lon="12.3557267"><ele>161.0</ele><time>2026-04-26T14:08:41.024Z</time></trkpt><trkpt lat="43.9421833" lon="12.3555917"><ele>161.0</ele><time>2026-04-26T14:08:42.023Z</time></trkpt><trkpt lat="43.9420367" lon="12.35546"><ele>161.0</ele><time>2026-04-26T14:08:43.026Z</time></trkpt><trkpt lat="43.9418883" lon="12.3553267"><ele>161.0</ele><time>2026-04-26T14:08:44.022Z</time></trkpt><trkpt lat="43.94174" lon="12.3551983"><ele>161.0</ele><time>2026-04-26T14:08:45.026Z</time></trkpt><trkpt lat="43.941595" lon="12.3550667"><ele>161.0</ele><time>2026-04-26T14:08:46.021Z</time></trkpt><trkpt lat="43.9414483" lon="12.354935"><ele>161.0</ele><time>2026-04-26T14:08:47.022Z</time></trkpt><trkpt lat="43.9413" lon="12.3548033"><ele>161.0</ele><time>2026-04-26T14:08:48.025Z</time></trkpt><trkpt lat="43.94115" lon="12.354675"><ele>161.0</ele><time>2026-04-26T14:08:49.023Z</time></trkpt><trkpt lat="43.941005" lon="12.354545"><ele>161.66666666666666</ele><time>2026-04-26T14:08:50.024Z</time></trkpt><trkpt lat="43.94086" lon="12.354415"><ele>162.33333333333334</ele><time>2026-04-26T14:08:51.023Z</time></trkpt><trkpt lat="43.9407167" lon="12.354285"><ele>163.0</ele><time>2026-04-26T14:08:52.026Z</time></trkpt><trkpt lat="43.9405717" lon="12.3541567"><ele>163.0</ele><time>2026-04-26T14:08:53.024Z</time></trkpt><trkpt lat="43.9404267" lon="12.35403"><ele>163.0</ele><time>2026-04-26T14:08:54.023Z</time></trkpt><trkpt lat="43.94028" lon="12.3539083"><ele>163.0</ele><time>2026-04-26T14:08:55.023Z</time></trkpt><trkpt lat="43.9401417" lon="12.353775"><ele>164.0</ele><time>2026-04-26T14:08:56.025Z</time></trkpt><trkpt lat="43.9400033" lon="12.35365"><ele>165.0</ele><time>2026-04-26T14:08:57.027Z</time></trkpt><trkpt lat="43.9398633" lon="12.3535117"><ele>166.0</ele><time>2026-04-26T14:08:58.022Z</time></trkpt><trkpt lat="43.939725" lon="12.353365"><ele>166.0</ele><time>2026-04-26T14:08:59.023Z</time></trkpt><trkpt lat="43.9395867" lon="12.3532117"><ele>166.0</ele><time>2026-04-26T14:09:00.026Z</time></trkpt><trkpt lat="43.939455" lon="12.3530517"><ele>166.0</ele><time>2026-04-26T14:09:01.023Z</time></trkpt><trkpt lat="43.9393317" lon="12.3528817"><ele>167.66666666666669</ele><time>2026-04-26T14:09:02.027Z</time></trkpt><trkpt lat="43.9392133" lon="12.352715"><ele>169.33333333333334</ele><time>2026-04-26T14:09:03.024Z</time></trkpt><trkpt lat="43.9390967" lon="12.35255"><ele>171.0</ele><time>2026-04-26T14:09:04.025Z</time></trkpt><trkpt lat="43.93898" lon="12.3523833"><ele>171.0</ele><time>2026-04-26T14:09:05.023Z</time></trkpt><trkpt lat="43.93887" lon="12.3522117"><ele>171.0</ele><time>2026-04-26T14:09:06.024Z</time></trkpt><trkpt lat="43.9387617" lon="12.3520417"><ele>171.0</ele><time>2026-04-26T14:09:07.024Z</time></trkpt><trkpt lat="43.9386533" lon="12.3518817"><ele>170.0</ele><time>2026-04-26T14:09:08.026Z</time></trkpt><trkpt lat="43.93855" lon="12.351735"><ele>169.0</ele><time>2026-04-26T14:09:09.024Z</time></trkpt><trkpt lat="43.93845" lon="12.3515917"><ele>168.0</ele><time>2026-04-26T14:09:10.024Z</time></trkpt><trkpt lat="43.93836" lon="12.35143"><ele>167.0</ele><time>2026-04-26T14:09:11.024Z</time></trkpt><trkpt lat="43.9382867" lon="12.3512467"><ele>170.0</ele><time>2026-04-26T14:09:12.024Z</time></trkpt><trkpt lat="43.938235" lon="12.3510367"><ele>173.0</ele><time>2026-04-26T14:09:13.024Z</time></trkpt><trkpt lat="43.9382" lon="12.3508167"><ele>176.0</ele><time>2026-04-26T14:09:14.028Z</time></trkpt><trkpt lat="43.93819" lon="12.3506033"><ele>176.75</ele><time>2026-04-26T14:09:15.022Z</time></trkpt><trkpt lat="43.9382033" lon="12.3504083"><ele>177.5</ele><time>2026-04-26T14:09:16.025Z</time></trkpt><trkpt lat="43.9382267" lon="12.3502267"><ele>178.25</ele><time>2026-04-26T14:09:17.022Z</time></trkpt><trkpt lat="43.9382567" lon="12.350045"><ele>179.0</ele><time>2026-04-26T14:09:18.023Z</time></trkpt><trkpt lat="43.9382817" lon="12.349865"><ele>180.0</ele><time>2026-04-26T14:09:19.029Z</time></trkpt><trkpt lat="43.938305" lon="12.3496883"><ele>181.0</ele><time>2026-04-26T14:09:20.023Z</time></trkpt><trkpt lat="43.93832" lon="12.3495133"><ele>182.0</ele><time>2026-04-26T14:09:21.025Z</time></trkpt><trkpt lat="43.938335" lon="12.3493317"><ele>183.0</ele><time>2026-04-26T14:09:22.022Z</time></trkpt><trkpt lat="43.9383467" lon="12.3491433"><ele>183.0</ele><time>2026-04-26T14:09:23.023Z</time></trkpt><trkpt lat="43.93834" lon="12.3489433"><ele>183.0</ele><time>2026-04-26T14:09:24.022Z</time></trkpt><trkpt lat="43.9383167" lon="12.3487467"><ele>183.0</ele><time>2026-04-26T14:09:25.024Z</time></trkpt><trkpt lat="43.9382833" lon="12.3485617"><ele>183.0</ele><time>2026-04-26T14:09:26.022Z</time></trkpt><trkpt lat="43.9382367" lon="12.348385"><ele>182.75</ele><time>2026-04-26T14:09:27.023Z</time></trkpt><trkpt lat="43.938175" lon="12.3482167"><ele>182.5</ele><time>2026-04-26T14:09:28.024Z</time></trkpt><trkpt lat="43.9380933" lon="12.348065"><ele>182.25</ele><time>2026-04-26T14:09:29.023Z</time></trkpt><trkpt lat="43.9379967" lon="12.3479233"><ele>182.0</ele><time>2026-04-26T14:09:30.028Z</time></trkpt><trkpt lat="43.9378833" lon="12.3477883"><ele>182.66666666666666</ele><time>2026-04-26T14:09:31.022Z</time></trkpt><trkpt lat="43.9377617" lon="12.34766"><ele>183.33333333333334</ele><time>2026-04-26T14:09:32.023Z</time></trkpt><trkpt lat="43.9376417" lon="12.3475333"><ele>184.0</ele><time>2026-04-26T14:09:33.023Z</time></trkpt><trkpt lat="43.9375183" lon="12.3474033"><ele>184.0</ele><time>2026-04-26T14:09:34.023Z</time></trkpt><trkpt lat="43.937385" lon="12.347285"><ele>184.0</ele><time>2026-04-26T14:09:35.026Z</time></trkpt><trkpt lat="43.9372533" lon="12.3471633"><ele>184.0</ele><time>2026-04-26T14:09:36.025Z</time></trkpt><trkpt lat="43.937115" lon="12.34705"><ele>183.66666666666669</ele><time>2026-04-26T14:09:37.024Z</time></trkpt><trkpt lat="43.9369717" lon="12.3469383"><ele>183.33333333333334</ele><time>2026-04-26T14:09:38.029Z</time></trkpt><trkpt lat="43.9368183" lon="12.3468483"><ele>183.0</ele><time>2026-04-26T14:09:39.024Z</time></trkpt><trkpt lat="43.9366733" lon="12.3467733"><ele>183.0</ele><time>2026-04-26T14:09:40.026Z</time></trkpt><trkpt lat="43.936535" lon="12.3466983"><ele>183.0</ele><time>2026-04-26T14:09:41.023Z</time></trkpt><trkpt lat="43.9364033" lon="12.3466233"><ele>183.0</ele><time>2026-04-26T14:09:42.023Z</time></trkpt><trkpt lat="43.9362683" lon="12.3465617"><ele>183.0</ele><time>2026-04-26T14:09:43.023Z</time></trkpt><trkpt lat="43.9361333" lon="12.3464917"><ele>183.0</ele><time>2026-04-26T14:09:44.023Z</time></trkpt><trkpt lat="43.9359933" lon="12.3464183"><ele>183.0</ele><time>2026-04-26T14:09:45.03Z</time></trkpt><trkpt lat="43.9358517" lon="12.3463433"><ele>183.0</ele><time>2026-04-26T14:09:46.021Z</time></trkpt><trkpt lat="43.9357117" lon="12.34627"><ele>181.75</ele><time>2026-04-26T14:09:47.023Z</time></trkpt><trkpt lat="43.9355833" lon="12.3461933"><ele>180.5</ele><time>2026-04-26T14:09:48.024Z</time></trkpt><trkpt lat="43.9354617" lon="12.3461233"><ele>179.25</ele><time>2026-04-26T14:09:49.024Z</time></trkpt><trkpt lat="43.935345" lon="12.3460483"><ele>178.0</ele><time>2026-04-26T14:09:50.023Z</time></trkpt><trkpt lat="43.9352367" lon="12.3459533"><ele>178.0</ele><time>2026-04-26T14:09:51.024Z</time></trkpt><trkpt lat="43.9351417" lon="12.345835"><ele>178.0</ele><time>2026-04-26T14:09:52.022Z</time></trkpt><trkpt lat="43.9350533" lon="12.345705"><ele>178.0</ele><time>2026-04-26T14:09:53.025Z</time></trkpt><trkpt lat="43.934975" lon="12.3455583"><ele>178.0</ele><time>2026-04-26T14:09:54.025Z</time></trkpt><trkpt lat="43.9349017" lon="12.3454183"><ele>179.0</ele><time>2026-04-26T14:09:55.024Z</time></trkpt><trkpt lat="43.9348417" lon="12.3452817"><ele>180.0</ele><time>2026-04-26T14:09:56.024Z</time></trkpt><trkpt lat="43.93478" lon="12.3451517"><ele>181.0</ele><time>2026-04-26T14:09:57.022Z</time></trkpt><trkpt lat="43.93472" lon="12.3450117"><ele>182.0</ele><time>2026-04-26T14:09:58.022Z</time></trkpt><trkpt lat="43.9346633" lon="12.344865"><ele>182.0</ele><time>2026-04-26T14:09:59.022Z</time></trkpt><trkpt lat="43.9346067" lon="12.344725"><ele>182.0</ele><time>2026-04-26T14:10:00.023Z</time></trkpt><trkpt lat="43.93456" lon="12.3445817"><ele>182.0</ele><time>2026-04-26T14:10:01.023Z</time></trkpt><trkpt lat="43.934535" lon="12.34442"><ele>182.0</ele><time>2026-04-26T14:10:02.025Z</time></trkpt><trkpt lat="43.9345283" lon="12.3442567"><ele>181.25</ele><time>2026-04-26T14:10:03.026Z</time></trkpt><trkpt lat="43.9345383" lon="12.3440983"><ele>180.5</ele><time>2026-04-26T14:10:04.023Z</time></trkpt><trkpt lat="43.934556" lon="12.3439389"><ele>179.75</ele><time>2026-04-26T14:10:05.025Z</time></trkpt><trkpt lat="43.9345813" lon="12.3437848"><ele>179.0</ele><time>2026-04-26T14:10:06.023Z</time></trkpt><trkpt lat="43.9346186" lon="12.3436342"><ele>179.0</ele><time>2026-04-26T14:10:07.028Z</time></trkpt><trkpt lat="43.9346721" lon="12.3434886"><ele>179.0</ele><time>2026-04-26T14:10:08.023Z</time></trkpt><trkpt lat="43.9347534" lon="12.3433574"><ele>179.0</ele><time>2026-04-26T14:10:09.026Z</time></trkpt><trkpt lat="43.9348532" lon="12.343249"><ele>179.0</ele><time>2026-04-26T14:10:10.023Z</time></trkpt><trkpt lat="43.9349716" lon="12.3431681"><ele>179.75</ele><time>2026-04-26T14:10:11.023Z</time></trkpt><trkpt lat="43.9350912" lon="12.3430925"><ele>180.5</ele><time>2026-04-26T14:10:12.023Z</time></trkpt><trkpt lat="43.935205" lon="12.3430167"><ele>181.25</ele><time>2026-04-26T14:10:13.025Z</time></trkpt><trkpt lat="43.9353144" lon="12.3429404"><ele>182.0</ele><time>2026-04-26T14:10:14.023Z</time></trkpt><trkpt lat="43.9354229" lon="12.3428689"><ele>182.0</ele><time>2026-04-26T14:10:15.025Z</time></trkpt><trkpt lat="43.9355337" lon="12.3428017"><ele>182.0</ele><time>2026-04-26T14:10:16.023Z</time></trkpt><trkpt lat="43.935648" lon="12.3427298"><ele>182.0</ele><time>2026-04-26T14:10:17.022Z</time></trkpt><trkpt lat="43.9357668" lon="12.3426514"><ele>182.0</ele><time>2026-04-26T14:10:18.023Z</time></trkpt><trkpt lat="43.9358822" lon="12.3425538"><ele>185.0</ele><time>2026-04-26T14:10:19.025Z</time></trkpt><trkpt lat="43.9359878" lon="12.3424351"><ele>188.0</ele><time>2026-04-26T14:10:20.027Z</time></trkpt><trkpt lat="43.9360785" lon="12.3422949"><ele>191.0</ele><time>2026-04-26T14:10:21.024Z</time></trkpt><trkpt lat="43.9361497" lon="12.3421281"><ele>194.0</ele><time>2026-04-26T14:10:22.022Z</time></trkpt><trkpt lat="43.936194" lon="12.3419394"><ele>194.0</ele><time>2026-04-26T14:10:23.023Z</time></trkpt><trkpt lat="43.936216" lon="12.3417437"><ele>194.0</ele><time>2026-04-26T14:10:24.022Z</time></trkpt><trkpt lat="43.936217" lon="12.3415427"><ele>194.0</ele><time>2026-04-26T14:10:25.022Z</time></trkpt><trkpt lat="43.9361909" lon="12.3413413"><ele>194.0</ele><time>2026-04-26T14:10:26.023Z</time></trkpt><trkpt lat="43.936149" lon="12.3411453"><ele>194.5</ele><time>2026-04-26T14:10:27.028Z</time></trkpt><trkpt lat="43.9361049" lon="12.3409518"><ele>195.0</ele><time>2026-04-26T14:10:28.023Z</time></trkpt><trkpt lat="43.9360669" lon="12.3407551"><ele>195.5</ele><time>2026-04-26T14:10:29.022Z</time></trkpt><trkpt lat="43.9360243" lon="12.3405599"><ele>196.0</ele><time>2026-04-26T14:10:30.023Z</time></trkpt><trkpt lat="43.9359864" lon="12.3403664"><ele>194.0</ele><time>2026-04-26T14:10:31.024Z</time></trkpt><trkpt lat="43.9359485" lon="12.3401767"><ele>192.0</ele><time>2026-04-26T14:10:32.023Z</time></trkpt><trkpt lat="43.9359079" lon="12.3399936"><ele>190.0</ele><time>2026-04-26T14:10:33.024Z</time></trkpt><trkpt lat="43.9358746" lon="12.3398135"><ele>188.0</ele><time>2026-04-26T14:10:34.029Z</time></trkpt><trkpt lat="43.9358449" lon="12.3396382"><ele>187.5</ele><time>2026-04-26T14:10:35.022Z</time></trkpt><trkpt lat="43.9358226" lon="12.3394627"><ele>187.0</ele><time>2026-04-26T14:10:36.024Z</time></trkpt><trkpt lat="43.935815" lon="12.3392823"><ele>186.5</ele><time>2026-04-26T14:10:37.022Z</time></trkpt><trkpt lat="43.9358212" lon="12.3390985"><ele>186.0</ele><time>2026-04-26T14:10:38.024Z</time></trkpt><trkpt lat="43.9358316" lon="12.3389119"><ele>185.75</ele><time>2026-04-26T14:10:39.023Z</time></trkpt><trkpt lat="43.9358388" lon="12.3387234"><ele>185.5</ele><time>2026-04-26T14:10:40.023Z</time></trkpt><trkpt lat="43.9358444" lon="12.3385354"><ele>185.25</ele><time>2026-04-26T14:10:41.024Z</time></trkpt><trkpt lat="43.9358441" lon="12.3383434"><ele>185.0</ele><time>2026-04-26T14:10:42.023Z</time></trkpt><trkpt lat="43.9358405" lon="12.3381488"><ele>186.0</ele><time>2026-04-26T14:10:43.023Z</time></trkpt><trkpt lat="43.9358263" lon="12.337951"><ele>187.0</ele><time>2026-04-26T14:10:44.023Z</time></trkpt><trkpt lat="43.9357996" lon="12.3377548"><ele>188.0</ele><time>2026-04-26T14:10:45.03Z</time></trkpt><trkpt lat="43.9357607" lon="12.3375623"><ele>189.0</ele><time>2026-04-26T14:10:46.023Z</time></trkpt><trkpt lat="43.9357089" lon="12.3373745"><ele>191.33333333333331</ele><time>2026-04-26T14:10:47.023Z</time></trkpt><trkpt lat="43.9356411" lon="12.3371919"><ele>193.66666666666666</ele><time>2026-04-26T14:10:48.025Z</time></trkpt><trkpt lat="43.9355504" lon="12.3370248"><ele>196.0</ele><time>2026-04-26T14:10:49.023Z</time></trkpt><trkpt lat="43.9354407" lon="12.3368696"><ele>196.0</ele><time>2026-04-26T14:10:50.029Z</time></trkpt><trkpt lat="43.93533" lon="12.3367163"><ele>196.0</ele><time>2026-04-26T14:10:51.023Z</time></trkpt><trkpt lat="43.9352179" lon="12.3365594"><ele>196.0</ele><time>2026-04-26T14:10:52.023Z</time></trkpt><trkpt lat="43.9351035" lon="12.3363974"><ele>192.66666666666666</ele><time>2026-04-26T14:10:53.024Z</time></trkpt><trkpt lat="43.9349886" lon="12.3362262"><ele>189.33333333333331</ele><time>2026-04-26T14:10:54.024Z</time></trkpt><trkpt lat="43.9348726" lon="12.3360521"><ele>186.0</ele><time>2026-04-26T14:10:55.026Z</time></trkpt><trkpt lat="43.9347561" lon="12.3358821"><ele>186.0</ele><time>2026-04-26T14:10:56.023Z</time></trkpt><trkpt lat="43.9346443" lon="12.3357194"><ele>186.0</ele><time>2026-04-26T14:10:57.025Z</time></trkpt><trkpt lat="43.9345361" lon="12.3355691"><ele>186.0</ele><time>2026-04-26T14:10:58.027Z</time></trkpt><trkpt lat="43.9344334" lon="12.3354273"><ele>186.25</ele><time>2026-04-26T14:10:59.022Z</time></trkpt><trkpt lat="43.9343329" lon="12.3352814"><ele>186.5</ele><time>2026-04-26T14:11:00.023Z</time></trkpt><trkpt lat="43.9342301" lon="12.3351396"><ele>186.75</ele><time>2026-04-26T14:11:01.024Z</time></trkpt><trkpt lat="43.9341308" lon="12.3349959"><ele>187.0</ele><time>2026-04-26T14:11:02.023Z</time></trkpt><trkpt lat="43.9340314" lon="12.3348553"><ele>186.0</ele><time>2026-04-26T14:11:03.024Z</time></trkpt><trkpt lat="43.9339374" lon="12.3347218"><ele>185.0</ele><time>2026-04-26T14:11:04.023Z</time></trkpt><trkpt lat="43.9338569" lon="12.3345975"><ele>184.0</ele><time>2026-04-26T14:11:05.024Z</time></trkpt><trkpt lat="43.9337957" lon="12.3344929"><ele>183.0</ele><time>2026-04-26T14:11:06.026Z</time></trkpt><trkpt lat="43.9337435" lon="12.334408"><ele>182.0</ele><time>2026-04-26T14:11:07.024Z</time></trkpt><trkpt lat="43.9336918" lon="12.3343311"><ele>182.0</ele><time>2026-04-26T14:11:08.026Z</time></trkpt><trkpt lat="43.9336396" lon="12.3342574"><ele>182.0</ele><time>2026-04-26T14:11:09.024Z</time></trkpt><trkpt lat="43.9335813" lon="12.3341792"><ele>182.0</ele><time>2026-04-26T14:11:10.025Z</time></trkpt><trkpt lat="43.9335209" lon="12.334095"><ele>182.0</ele><time>2026-04-26T14:11:11.024Z</time></trkpt><trkpt lat="43.933461" lon="12.3340066"><ele>182.0</ele><time>2026-04-26T14:11:12.031Z</time></trkpt><trkpt lat="43.9334058" lon="12.3339199"><ele>182.0</ele><time>2026-04-26T14:11:13.023Z</time></trkpt><trkpt lat="43.9333607" lon="12.3338325"><ele>182.66666666666666</ele><time>2026-04-26T14:11:14.025Z</time></trkpt><trkpt lat="43.9333376" lon="12.3337389"><ele>183.33333333333331</ele><time>2026-04-26T14:11:15.024Z</time></trkpt><trkpt lat="43.9333351" lon="12.3336467"><ele>184.0</ele><time>2026-04-26T14:11:16.023Z</time></trkpt><trkpt lat="43.933332" lon="12.333501"><ele>184.66666666666666</ele><time>2026-04-26T14:11:18.024Z</time></trkpt><trkpt lat="43.9332842" lon="12.3334329"><ele>185.33333333333334</ele><time>2026-04-26T14:11:20.024Z</time></trkpt><trkpt lat="43.9332279" lon="12.3334743"><ele>186.0</ele><time>2026-04-26T14:11:22.024Z</time></trkpt><trkpt lat="43.9331367" lon="12.3335467"><ele>186.0</ele><time>2026-04-26T14:12:16.024Z</time></trkpt><trkpt lat="43.93308" lon="12.3334667"><ele>186.0</ele><time>2026-04-26T14:12:17.024Z</time></trkpt><trkpt lat="43.93301" lon="12.3333867"><ele>186.0</ele><time>2026-04-26T14:12:18.023Z</time></trkpt><trkpt lat="43.93292" lon="12.33327"><ele>186.0</ele><time>2026-04-26T14:12:19.025Z</time></trkpt><trkpt lat="43.932815" lon="12.333125"><ele>186.0</ele><time>2026-04-26T14:12:20.023Z</time></trkpt><trkpt lat="43.93269" lon="12.332965"><ele>185.0</ele><time>2026-04-26T14:12:21.024Z</time></trkpt><trkpt lat="43.9325533" lon="12.3327883"><ele>184.0</ele><time>2026-04-26T14:12:22.026Z</time></trkpt><trkpt lat="43.9324117" lon="12.33259"><ele>183.0</ele><time>2026-04-26T14:12:23.023Z</time></trkpt><trkpt lat="43.9322683" lon="12.3323783"><ele>183.0</ele><time>2026-04-26T14:12:24.023Z</time></trkpt><trkpt lat="43.93212" lon="12.332165"><ele>183.0</ele><time>2026-04-26T14:12:25.025Z</time></trkpt><trkpt lat="43.9319783" lon="12.3319433"><ele>183.0</ele><time>2026-04-26T14:12:26.023Z</time></trkpt><trkpt lat="43.9318517" lon="12.33171"><ele>183.0</ele><time>2026-04-26T14:12:27.023Z</time></trkpt><trkpt lat="43.9317567" lon="12.3314483"><ele>183.0</ele><time>2026-04-26T14:12:28.024Z</time></trkpt><trkpt lat="43.9317067" lon="12.331165"><ele>183.0</ele><time>2026-04-26T14:12:29.024Z</time></trkpt><trkpt lat="43.9316517" lon="12.3309"><ele>184.33333333333334</ele><time>2026-04-26T14:12:30.024Z</time></trkpt><trkpt lat="43.9316017" lon="12.330635"><ele>185.66666666666669</ele><time>2026-04-26T14:12:31.024Z</time></trkpt><trkpt lat="43.9315483" lon="12.3303633"><ele>187.0</ele><time>2026-04-26T14:12:32.023Z</time></trkpt><trkpt lat="43.9314967" lon="12.3300833"><ele>188.66666666666669</ele><time>2026-04-26T14:12:33.023Z</time></trkpt><trkpt lat="43.9314383" lon="12.3297967"><ele>190.33333333333334</ele><time>2026-04-26T14:12:34.023Z</time></trkpt><trkpt lat="43.9313967" lon="12.3294917"><ele>192.0</ele><time>2026-04-26T14:12:35.027Z</time></trkpt><trkpt lat="43.9313433" lon="12.3291833"><ele>193.5</ele><time>2026-04-26T14:12:36.022Z</time></trkpt><trkpt lat="43.9312933" lon="12.32886"><ele>195.0</ele><time>2026-04-26T14:12:37.025Z</time></trkpt><trkpt lat="43.9312483" lon="12.3285317"><ele>195.0</ele><time>2026-04-26T14:12:38.024Z</time></trkpt><trkpt lat="43.931205" lon="12.3282033"><ele>195.0</ele><time>2026-04-26T14:12:39.025Z</time></trkpt><trkpt lat="43.9311567" lon="12.3278833"><ele>196.0</ele><time>2026-04-26T14:12:40.027Z</time></trkpt><trkpt lat="43.9311033" lon="12.3275633"><ele>197.0</ele><time>2026-04-26T14:12:41.024Z</time></trkpt><trkpt lat="43.9310533" lon="12.3272533"><ele>196.66666666666669</ele><time>2026-04-26T14:12:42.025Z</time></trkpt><trkpt lat="43.9309967" lon="12.3269683"><ele>196.33333333333331</ele><time>2026-04-26T14:12:43.024Z</time></trkpt><trkpt lat="43.9309383" lon="12.3267017"><ele>196.0</ele><time>2026-04-26T14:12:44.027Z</time></trkpt><trkpt lat="43.9308517" lon="12.3264533"><ele>197.0</ele><time>2026-04-26T14:12:45.025Z</time></trkpt><trkpt lat="43.930735" lon="12.3262183"><ele>198.0</ele><time>2026-04-26T14:12:46.024Z</time></trkpt><trkpt lat="43.9306133" lon="12.3259767"><ele>199.0</ele><time>2026-04-26T14:12:47.027Z</time></trkpt><trkpt lat="43.9304917" lon="12.3257333"><ele>199.66666666666666</ele><time>2026-04-26T14:12:48.024Z</time></trkpt><trkpt lat="43.930365" lon="12.3254867"><ele>200.33333333333331</ele><time>2026-04-26T14:12:49.023Z</time></trkpt><trkpt lat="43.9302283" lon="12.3252433"><ele>201.0</ele><time>2026-04-26T14:12:50.024Z</time></trkpt><trkpt lat="43.930085" lon="12.3249983"><ele>201.0</ele><time>2026-04-26T14:12:51.026Z</time></trkpt><trkpt lat="43.929935" lon="12.3247617"><ele>201.0</ele><time>2026-04-26T14:12:52.025Z</time></trkpt><trkpt lat="43.9297783" lon="12.324555"><ele>201.0</ele><time>2026-04-26T14:12:53.026Z</time></trkpt><trkpt lat="43.9296283" lon="12.3243617"><ele>201.0</ele><time>2026-04-26T14:12:54.025Z</time></trkpt><trkpt lat="43.9294817" lon="12.3241767"><ele>201.0</ele><time>2026-04-26T14:12:55.023Z</time></trkpt><trkpt lat="43.929335" lon="12.3240067"><ele>201.0</ele><time>2026-04-26T14:12:56.026Z</time></trkpt><trkpt lat="43.9292033" lon="12.3238433"><ele>201.5</ele><time>2026-04-26T14:12:57.025Z</time></trkpt><trkpt lat="43.92909" lon="12.32369"><ele>202.0</ele><time>2026-04-26T14:12:58.025Z</time></trkpt><trkpt lat="43.9289883" lon="12.3235483"><ele>202.5</ele><time>2026-04-26T14:12:59.024Z</time></trkpt><trkpt lat="43.9288933" lon="12.3234183"><ele>203.0</ele><time>2026-04-26T14:13:00.034Z</time></trkpt><trkpt lat="43.92881" lon="12.3232867"><ele>203.0</ele><time>2026-04-26T14:13:01.023Z</time></trkpt><trkpt lat="43.928745" lon="12.3231333"><ele>203.0</ele><time>2026-04-26T14:13:02.023Z</time></trkpt><trkpt lat="43.9286567" lon="12.323005"><ele>203.0</ele><time>2026-04-26T14:13:03.023Z</time></trkpt><trkpt lat="43.9285383" lon="12.3229233"><ele>203.0</ele><time>2026-04-26T14:13:04.024Z</time></trkpt><trkpt lat="43.9284183" lon="12.3228333"><ele>202.75</ele><time>2026-04-26T14:13:05.024Z</time></trkpt><trkpt lat="43.928305" lon="12.3227233"><ele>202.5</ele><time>2026-04-26T14:13:06.024Z</time></trkpt><trkpt lat="43.92819" lon="12.3226"><ele>202.25</ele><time>2026-04-26T14:13:07.031Z</time></trkpt><trkpt lat="43.9280717" lon="12.3224617"><ele>202.0</ele><time>2026-04-26T14:13:08.025Z</time></trkpt><trkpt lat="43.9279533" lon="12.322305"><ele>202.66666666666666</ele><time>2026-04-26T14:13:09.024Z</time></trkpt><trkpt lat="43.9278283" lon="12.3221533"><ele>203.33333333333331</ele><time>2026-04-26T14:13:10.024Z</time></trkpt><trkpt lat="43.9276983" lon="12.3219967"><ele>204.0</ele><time>2026-04-26T14:13:11.024Z</time></trkpt><trkpt lat="43.9275783" lon="12.32184"><ele>204.5</ele><time>2026-04-26T14:13:12.024Z</time></trkpt><trkpt lat="43.9274783" lon="12.3216767"><ele>205.0</ele><time>2026-04-26T14:13:13.024Z</time></trkpt><trkpt lat="43.9273783" lon="12.3215317"><ele>205.5</ele><time>2026-04-26T14:13:14.022Z</time></trkpt><trkpt lat="43.92728" lon="12.3213783"><ele>206.0</ele><time>2026-04-26T14:13:15.023Z</time></trkpt><trkpt lat="43.9271783" lon="12.3212167"><ele>206.5</ele><time>2026-04-26T14:13:16.023Z</time></trkpt><trkpt lat="43.9270817" lon="12.3210533"><ele>207.0</ele><time>2026-04-26T14:13:17.023Z</time></trkpt><trkpt lat="43.9269917" lon="12.3208967"><ele>207.5</ele><time>2026-04-26T14:13:18.027Z</time></trkpt><trkpt lat="43.9269083" lon="12.3207583"><ele>208.0</ele><time>2026-04-26T14:13:19.023Z</time></trkpt><trkpt lat="43.9268333" lon="12.3206283"><ele>208.60000000000002</ele><time>2026-04-26T14:13:20.026Z</time></trkpt><trkpt lat="43.9267667" lon="12.3205083"><ele>209.20000000000002</ele><time>2026-04-26T14:13:21.023Z</time></trkpt><trkpt lat="43.926705" lon="12.32039"><ele>209.8</ele><time>2026-04-26T14:13:22.025Z</time></trkpt><trkpt lat="43.9266333" lon="12.32028"><ele>210.4</ele><time>2026-04-26T14:13:23.023Z</time></trkpt><trkpt lat="43.9265617" lon="12.3201633"><ele>211.0</ele><time>2026-04-26T14:13:24.027Z</time></trkpt><trkpt lat="43.9264817" lon="12.320045"><ele>211.0</ele><time>2026-04-26T14:13:25.024Z</time></trkpt><trkpt lat="43.9264083" lon="12.3199133"><ele>211.0</ele><time>2026-04-26T14:13:26.027Z</time></trkpt><trkpt lat="43.9263483" lon="12.319765"><ele>211.0</ele><time>2026-04-26T14:13:27.024Z</time></trkpt><trkpt lat="43.92627" lon="12.31962"><ele>211.0</ele><time>2026-04-26T14:13:28.021Z</time></trkpt><trkpt lat="43.9261833" lon="12.3194717"><ele>211.25</ele><time>2026-04-26T14:13:29.029Z</time></trkpt><trkpt lat="43.9260883" lon="12.31932"><ele>211.5</ele><time>2026-04-26T14:13:30.023Z</time></trkpt><trkpt lat="43.9259917" lon="12.3191633"><ele>211.75</ele><time>2026-04-26T14:13:31.022Z</time></trkpt><trkpt lat="43.9258983" lon="12.318995"><ele>212.0</ele><time>2026-04-26T14:13:32.025Z</time></trkpt><trkpt lat="43.9257983" lon="12.31883"><ele>212.0</ele><time>2026-04-26T14:13:33.027Z</time></trkpt><trkpt lat="43.9257" lon="12.318655"><ele>212.0</ele><time>2026-04-26T14:13:34.022Z</time></trkpt><trkpt lat="43.9255933" lon="12.318485"><ele>212.0</ele><time>2026-04-26T14:13:35.023Z</time></trkpt><trkpt lat="43.925475" lon="12.3183317"><ele>212.0</ele><time>2026-04-26T14:13:36.026Z</time></trkpt><trkpt lat="43.925335" lon="12.3182083"><ele>212.0</ele><time>2026-04-26T14:13:37.028Z</time></trkpt><trkpt lat="43.925185" lon="12.31811"><ele>212.0</ele><time>2026-04-26T14:13:38.028Z</time></trkpt><trkpt lat="43.9250467" lon="12.31804"><ele>212.75</ele><time>2026-04-26T14:13:39.024Z</time></trkpt><trkpt lat="43.9249183" lon="12.3179733"><ele>213.5</ele><time>2026-04-26T14:13:40.023Z</time></trkpt><trkpt lat="43.9248017" lon="12.31791"><ele>214.25</ele><time>2026-04-26T14:13:41.023Z</time></trkpt><trkpt lat="43.924695" lon="12.3178433"><ele>215.0</ele><time>2026-04-26T14:13:42.023Z</time></trkpt><trkpt lat="43.9245833" lon="12.3177767"><ele>215.0</ele><time>2026-04-26T14:13:43.022Z</time></trkpt><trkpt lat="43.9244683" lon="12.317695"><ele>215.0</ele><time>2026-04-26T14:13:44.024Z</time></trkpt><trkpt lat="43.9243467" lon="12.3175933"><ele>215.0</ele><time>2026-04-26T14:13:45.025Z</time></trkpt><trkpt lat="43.9242267" lon="12.3174767"><ele>215.0</ele><time>2026-04-26T14:13:46.028Z</time></trkpt><trkpt lat="43.9241233" lon="12.317335"><ele>214.33333333333334</ele><time>2026-04-26T14:13:47.024Z</time></trkpt><trkpt lat="43.92402" lon="12.317195"><ele>213.66666666666669</ele><time>2026-04-26T14:13:48.024Z</time></trkpt><trkpt lat="43.9239133" lon="12.3170483"><ele>213.0</ele><time>2026-04-26T14:13:49.024Z</time></trkpt><trkpt lat="43.9237967" lon="12.316895"><ele>213.0</ele><time>2026-04-26T14:13:50.024Z</time></trkpt><trkpt lat="43.9236667" lon="12.316725"><ele>213.0</ele><time>2026-04-26T14:13:51.031Z</time></trkpt><trkpt lat="43.9235333" lon="12.3165533"><ele>213.0</ele><time>2026-04-26T14:13:52.023Z</time></trkpt><trkpt lat="43.923415" lon="12.3163833"><ele>214.33333333333331</ele><time>2026-04-26T14:13:53.028Z</time></trkpt><trkpt lat="43.9233033" lon="12.3162083"><ele>215.66666666666666</ele><time>2026-04-26T14:13:54.023Z</time></trkpt><trkpt lat="43.9232" lon="12.316025"><ele>217.0</ele><time>2026-04-26T14:13:55.024Z</time></trkpt><trkpt lat="43.9231317" lon="12.3158233"><ele>217.0</ele><time>2026-04-26T14:13:56.023Z</time></trkpt><trkpt lat="43.9230867" lon="12.3156183"><ele>217.0</ele><time>2026-04-26T14:13:57.028Z</time></trkpt><trkpt lat="43.9230383" lon="12.3154367"><ele>217.0</ele><time>2026-04-26T14:13:58.027Z</time></trkpt><trkpt lat="43.9229883" lon="12.3152783"><ele>217.0</ele><time>2026-04-26T14:13:59.021Z</time></trkpt><trkpt lat="43.9229283" lon="12.31513"><ele>217.0</ele><time>2026-04-26T14:14:00.022Z</time></trkpt><trkpt lat="43.92285" lon="12.3149917"><ele>217.0</ele><time>2026-04-26T14:14:01.024Z</time></trkpt><trkpt lat="43.9227717" lon="12.3148267"><ele>217.0</ele><time>2026-04-26T14:14:02.024Z</time></trkpt><trkpt lat="43.9226767" lon="12.3146583"><ele>217.0</ele><time>2026-04-26T14:14:03.023Z</time></trkpt><trkpt lat="43.9225733" lon="12.3144783"><ele>215.33333333333331</ele><time>2026-04-26T14:14:04.022Z</time></trkpt><trkpt lat="43.9224617" lon="12.3143"><ele>213.66666666666669</ele><time>2026-04-26T14:14:05.025Z</time></trkpt><trkpt lat="43.922345" lon="12.3141167"><ele>212.0</ele><time>2026-04-26T14:14:06.025Z</time></trkpt><trkpt lat="43.9222233" lon="12.3139267"><ele>212.33333333333334</ele><time>2026-04-26T14:14:07.024Z</time></trkpt><trkpt lat="43.9221033" lon="12.3137333"><ele>212.66666666666669</ele><time>2026-04-26T14:14:08.024Z</time></trkpt><trkpt lat="43.92199" lon="12.3135533"><ele>213.0</ele><time>2026-04-26T14:14:09.025Z</time></trkpt><trkpt lat="43.9218783" lon="12.3133917"><ele>213.0</ele><time>2026-04-26T14:14:10.028Z</time></trkpt><trkpt lat="43.9217733" lon="12.3132333"><ele>213.0</ele><time>2026-04-26T14:14:11.024Z</time></trkpt><trkpt lat="43.9216667" lon="12.3130917"><ele>213.0</ele><time>2026-04-26T14:14:12.025Z</time></trkpt><trkpt lat="43.92155" lon="12.3129783"><ele>213.0</ele><time>2026-04-26T14:14:13.024Z</time></trkpt><trkpt lat="43.9214333" lon="12.31287"><ele>211.75</ele><time>2026-04-26T14:14:14.026Z</time></trkpt><trkpt lat="43.9213283" lon="12.3127617"><ele>210.5</ele><time>2026-04-26T14:14:15.024Z</time></trkpt><trkpt lat="43.9212233" lon="12.3126583"><ele>209.25</ele><time>2026-04-26T14:14:16.028Z</time></trkpt><trkpt lat="43.9211167" lon="12.312555"><ele>208.0</ele><time>2026-04-26T14:14:17.023Z</time></trkpt><trkpt lat="43.921005" lon="12.31245"><ele>208.0</ele><time>2026-04-26T14:14:18.025Z</time></trkpt><trkpt lat="43.9208917" lon="12.31235"><ele>208.0</ele><time>2026-04-26T14:14:19.023Z</time></trkpt><trkpt lat="43.9207933" lon="12.3122483"><ele>208.0</ele><time>2026-04-26T14:14:20.025Z</time></trkpt><trkpt lat="43.920695" lon="12.3121567"><ele>208.0</ele><time>2026-04-26T14:14:21.023Z</time></trkpt><trkpt lat="43.9205983" lon="12.3120567"><ele>210.25</ele><time>2026-04-26T14:14:22.027Z</time></trkpt><trkpt lat="43.9204983" lon="12.3119567"><ele>212.5</ele><time>2026-04-26T14:14:23.024Z</time></trkpt><trkpt lat="43.9203917" lon="12.3118567"><ele>214.75</ele><time>2026-04-26T14:14:24.024Z</time></trkpt><trkpt lat="43.9202717" lon="12.311765"><ele>217.0</ele><time>2026-04-26T14:14:25.022Z</time></trkpt><trkpt lat="43.920155" lon="12.3116483"><ele>217.33333333333331</ele><time>2026-04-26T14:14:26.029Z</time></trkpt><trkpt lat="43.9200433" lon="12.3115017"><ele>217.66666666666669</ele><time>2026-04-26T14:14:27.024Z</time></trkpt><trkpt lat="43.91996" lon="12.31133"><ele>218.0</ele><time>2026-04-26T14:14:28.022Z</time></trkpt><trkpt lat="43.9198883" lon="12.3111383"><ele>218.0</ele><time>2026-04-26T14:14:29.024Z</time></trkpt><trkpt lat="43.9198167" lon="12.3109417"><ele>218.0</ele><time>2026-04-26T14:14:30.024Z</time></trkpt><trkpt lat="43.9197317" lon="12.3107517"><ele>218.0</ele><time>2026-04-26T14:14:31.03Z</time></trkpt><trkpt lat="43.9196367" lon="12.3105717"><ele>220.0</ele><time>2026-04-26T14:14:32.026Z</time></trkpt><trkpt lat="43.9195333" lon="12.3104"><ele>222.0</ele><time>2026-04-26T14:14:33.023Z</time></trkpt><trkpt lat="43.9194283" lon="12.3102433"><ele>224.0</ele><time>2026-04-26T14:14:34.026Z</time></trkpt><trkpt lat="43.919325" lon="12.3100933"><ele>224.0</ele><time>2026-04-26T14:14:35.023Z</time></trkpt><trkpt lat="43.9192267" lon="12.3099467"><ele>224.0</ele><time>2026-04-26T14:14:36.024Z</time></trkpt><trkpt lat="43.9191283" lon="12.3098"><ele>224.0</ele><time>2026-04-26T14:14:37.026Z</time></trkpt><trkpt lat="43.9190317" lon="12.3096533"><ele>224.0</ele><time>2026-04-26T14:14:38.029Z</time></trkpt><trkpt lat="43.9189283" lon="12.30951"><ele>224.0</ele><time>2026-04-26T14:14:39.023Z</time></trkpt><trkpt lat="43.9188233" lon="12.3093567"><ele>224.0</ele><time>2026-04-26T14:14:40.022Z</time></trkpt><trkpt lat="43.9187133" lon="12.3091983"><ele>224.0</ele><time>2026-04-26T14:14:41.025Z</time></trkpt><trkpt lat="43.9186033" lon="12.3090433"><ele>224.66666666666669</ele><time>2026-04-26T14:14:42.025Z</time></trkpt><trkpt lat="43.9184933" lon="12.3088883"><ele>225.33333333333331</ele><time>2026-04-26T14:14:43.029Z</time></trkpt><trkpt lat="43.9183817" lon="12.3087383"><ele>226.0</ele><time>2026-04-26T14:14:44.023Z</time></trkpt><trkpt lat="43.918275" lon="12.3085883"><ele>226.0</ele><time>2026-04-26T14:14:45.026Z</time></trkpt><trkpt lat="43.918175" lon="12.3084433"><ele>226.0</ele><time>2026-04-26T14:14:46.025Z</time></trkpt><trkpt lat="43.9180833" lon="12.3083117"><ele>226.0</ele><time>2026-04-26T14:14:47.023Z</time></trkpt><trkpt lat="43.9179967" lon="12.3081783"><ele>226.0</ele><time>2026-04-26T14:14:48.025Z</time></trkpt><trkpt lat="43.9179133" lon="12.3080383"><ele>226.25</ele><time>2026-04-26T14:14:49.025Z</time></trkpt><trkpt lat="43.9178267" lon="12.3079033"><ele>226.5</ele><time>2026-04-26T14:14:50.024Z</time></trkpt><trkpt lat="43.917735" lon="12.307765"><ele>226.75</ele><time>2026-04-26T14:14:51.023Z</time></trkpt><trkpt lat="43.91764" lon="12.3076367"><ele>227.0</ele><time>2026-04-26T14:14:52.023Z</time></trkpt><trkpt lat="43.9175517" lon="12.3074983"><ele>227.0</ele><time>2026-04-26T14:14:53.027Z</time></trkpt><trkpt lat="43.9174533" lon="12.3073583"><ele>227.0</ele><time>2026-04-26T14:14:54.025Z</time></trkpt><trkpt lat="43.91735" lon="12.3072133"><ele>227.0</ele><time>2026-04-26T14:14:55.025Z</time></trkpt><trkpt lat="43.91724" lon="12.3070633"><ele>227.0</ele><time>2026-04-26T14:14:56.026Z</time></trkpt><trkpt lat="43.9171167" lon="12.30691"><ele>228.0</ele><time>2026-04-26T14:14:57.024Z</time></trkpt><trkpt lat="43.9169967" lon="12.3067367"><ele>229.0</ele><time>2026-04-26T14:14:58.026Z</time></trkpt><trkpt lat="43.916875" lon="12.306555"><ele>230.0</ele><time>2026-04-26T14:14:59.026Z</time></trkpt><trkpt lat="43.9167333" lon="12.3063933"><ele>231.33333333333334</ele><time>2026-04-26T14:15:00.025Z</time></trkpt><trkpt lat="43.91657" lon="12.30625"><ele>232.66666666666669</ele><time>2026-04-26T14:15:01.025Z</time></trkpt><trkpt lat="43.9163833" lon="12.30614"><ele>234.0</ele><time>2026-04-26T14:15:02.026Z</time></trkpt><trkpt lat="43.9161867" lon="12.3060517"><ele>234.0</ele><time>2026-04-26T14:15:03.023Z</time></trkpt><trkpt lat="43.9159883" lon="12.3059717"><ele>234.0</ele><time>2026-04-26T14:15:04.025Z</time></trkpt><trkpt lat="43.9157967" lon="12.3058933"><ele>234.0</ele><time>2026-04-26T14:15:05.025Z</time></trkpt><trkpt lat="43.9156133" lon="12.30581"><ele>233.33333333333331</ele><time>2026-04-26T14:15:06.029Z</time></trkpt><trkpt lat="43.9154367" lon="12.3057283"><ele>232.66666666666666</ele><time>2026-04-26T14:15:07.025Z</time></trkpt><trkpt lat="43.9152667" lon="12.30565"><ele>232.0</ele><time>2026-04-26T14:15:08.025Z</time></trkpt><trkpt lat="43.9151017" lon="12.3055767"><ele>232.0</ele><time>2026-04-26T14:15:09.025Z</time></trkpt><trkpt lat="43.9149383" lon="12.3055"><ele>232.0</ele><time>2026-04-26T14:15:10.023Z</time></trkpt><trkpt lat="43.91478" lon="12.3054067"><ele>232.0</ele><time>2026-04-26T14:15:11.024Z</time></trkpt><trkpt lat="43.9146167" lon="12.3053133"><ele>232.0</ele><time>2026-04-26T14:15:12.024Z</time></trkpt><trkpt lat="43.91445" lon="12.30522"><ele>232.0</ele><time>2026-04-26T14:15:13.023Z</time></trkpt><trkpt lat="43.9142817" lon="12.305135"><ele>232.0</ele><time>2026-04-26T14:15:14.024Z</time></trkpt><trkpt lat="43.9141167" lon="12.3050533"><ele>231.66666666666666</ele><time>2026-04-26T14:15:15.024Z</time></trkpt><trkpt lat="43.91395" lon="12.3049717"><ele>231.33333333333331</ele><time>2026-04-26T14:15:16.027Z</time></trkpt><trkpt lat="43.913785" lon="12.3048867"><ele>231.0</ele><time>2026-04-26T14:15:17.023Z</time></trkpt><trkpt lat="43.9136167" lon="12.304805"><ele>230.0</ele><time>2026-04-26T14:15:18.024Z</time></trkpt><trkpt lat="43.9134533" lon="12.30473"><ele>229.0</ele><time>2026-04-26T14:15:19.029Z</time></trkpt><trkpt lat="43.91329" lon="12.3046417"><ele>228.0</ele><time>2026-04-26T14:15:20.025Z</time></trkpt><trkpt lat="43.9131167" lon="12.3045517"><ele>228.0</ele><time>2026-04-26T14:15:21.028Z</time></trkpt><trkpt lat="43.9129483" lon="12.3044667"><ele>228.0</ele><time>2026-04-26T14:15:22.026Z</time></trkpt><trkpt lat="43.9127783" lon="12.304385"><ele>228.0</ele><time>2026-04-26T14:15:23.024Z</time></trkpt><trkpt lat="43.9126017" lon="12.3043083"><ele>229.0</ele><time>2026-04-26T14:15:24.026Z</time></trkpt><trkpt lat="43.9124233" lon="12.3042383"><ele>230.0</ele><time>2026-04-26T14:15:25.025Z</time></trkpt><trkpt lat="43.9122433" lon="12.304195"><ele>231.0</ele><time>2026-04-26T14:15:26.024Z</time></trkpt><trkpt lat="43.9120617" lon="12.3041683"><ele>231.0</ele><time>2026-04-26T14:15:27.029Z</time></trkpt><trkpt lat="43.9118817" lon="12.3041433"><ele>231.0</ele><time>2026-04-26T14:15:28.023Z</time></trkpt><trkpt lat="43.9117033" lon="12.3041167"><ele>231.0</ele><time>2026-04-26T14:15:29.023Z</time></trkpt><trkpt lat="43.9115283" lon="12.3041"><ele>231.0</ele><time>2026-04-26T14:15:30.024Z</time></trkpt><trkpt lat="43.9113567" lon="12.3040817"><ele>231.0</ele><time>2026-04-26T14:15:31.024Z</time></trkpt><trkpt lat="43.91119" lon="12.3040533"><ele>231.0</ele><time>2026-04-26T14:15:32.023Z</time></trkpt><trkpt lat="43.91103" lon="12.303995"><ele>231.33333333333331</ele><time>2026-04-26T14:15:33.025Z</time></trkpt><trkpt lat="43.9108733" lon="12.3039233"><ele>231.66666666666666</ele><time>2026-04-26T14:15:34.024Z</time></trkpt><trkpt lat="43.91073" lon="12.3038233"><ele>232.0</ele><time>2026-04-26T14:15:35.024Z</time></trkpt><trkpt lat="43.9106" lon="12.3037067"><ele>234.25</ele><time>2026-04-26T14:15:36.023Z</time></trkpt><trkpt lat="43.9104817" lon="12.30358"><ele>236.5</ele><time>2026-04-26T14:15:37.029Z</time></trkpt><trkpt lat="43.9103733" lon="12.3034583"><ele>238.75</ele><time>2026-04-26T14:15:38.023Z</time></trkpt><trkpt lat="43.9102767" lon="12.30334"><ele>241.0</ele><time>2026-04-26T14:15:39.023Z</time></trkpt><trkpt lat="43.91019" lon="12.303235"><ele>241.0</ele><time>2026-04-26T14:15:40.023Z</time></trkpt><trkpt lat="43.910115" lon="12.30314"><ele>241.00000000000003</ele><time>2026-04-26T14:15:41.023Z</time></trkpt><trkpt lat="43.9100583" lon="12.303035"><ele>241.00000000000003</ele><time>2026-04-26T14:15:42.024Z</time></trkpt><trkpt lat="43.910025" lon="12.302925"><ele>241.0</ele><time>2026-04-26T14:15:43.026Z</time></trkpt><trkpt lat="43.9100233" lon="12.3028067"><ele>241.0</ele><time>2026-04-26T14:15:44.026Z</time></trkpt><trkpt lat="43.9100467" lon="12.3026833"><ele>242.0</ele><time>2026-04-26T14:15:45.025Z</time></trkpt><trkpt lat="43.9100917" lon="12.30255"><ele>243.0</ele><time>2026-04-26T14:15:46.024Z</time></trkpt><trkpt lat="43.9101567" lon="12.302395"><ele>244.0</ele><time>2026-04-26T14:15:47.025Z</time></trkpt><trkpt lat="43.9101983" lon="12.3022233"><ele>245.0</ele><time>2026-04-26T14:15:48.025Z</time></trkpt><trkpt lat="43.91023" lon="12.3020417"><ele>246.0</ele><time>2026-04-26T14:15:49.024Z</time></trkpt><trkpt lat="43.9102467" lon="12.3018617"><ele>247.0</ele><time>2026-04-26T14:15:50.023Z</time></trkpt><trkpt lat="43.9102717" lon="12.3016783"><ele>248.0</ele><time>2026-04-26T14:15:51.024Z</time></trkpt><trkpt lat="43.9103117" lon="12.30148"><ele>249.0</ele><time>2026-04-26T14:15:52.026Z</time></trkpt><trkpt lat="43.91036" lon="12.3012583"><ele>249.0</ele><time>2026-04-26T14:15:53.024Z</time></trkpt><trkpt lat="43.9104017" lon="12.3009983"><ele>249.0</ele><time>2026-04-26T14:15:54.024Z</time></trkpt><trkpt lat="43.9104483" lon="12.300715"><ele>249.0</ele><time>2026-04-26T14:15:55.027Z</time></trkpt><trkpt lat="43.9104783" lon="12.3004333"><ele>248.0</ele><time>2026-04-26T14:15:56.027Z</time></trkpt><trkpt lat="43.910515" lon="12.300155"><ele>247.0</ele><time>2026-04-26T14:15:57.024Z</time></trkpt><trkpt lat="43.91054" lon="12.29988"><ele>246.0</ele><time>2026-04-26T14:15:58.024Z</time></trkpt><trkpt lat="43.9105533" lon="12.29961"><ele>246.0</ele><time>2026-04-26T14:15:59.027Z</time></trkpt><trkpt lat="43.9105517" lon="12.2993567"><ele>246.0</ele><time>2026-04-26T14:16:00.023Z</time></trkpt><trkpt lat="43.910545" lon="12.2991217"><ele>246.0</ele><time>2026-04-26T14:16:01.025Z</time></trkpt><trkpt lat="43.910535" lon="12.2989067"><ele>246.5</ele><time>2026-04-26T14:16:02.026Z</time></trkpt><trkpt lat="43.9105067" lon="12.29872"><ele>247.0</ele><time>2026-04-26T14:16:03.026Z</time></trkpt><trkpt lat="43.910425" lon="12.2985633"><ele>247.5</ele><time>2026-04-26T14:16:04.025Z</time></trkpt><trkpt lat="43.9103083" lon="12.2984267"><ele>248.0</ele><time>2026-04-26T14:16:05.027Z</time></trkpt><trkpt lat="43.9101667" lon="12.2983017"><ele>247.33333333333334</ele><time>2026-04-26T14:16:06.024Z</time></trkpt><trkpt lat="43.9100267" lon="12.2981883"><ele>246.66666666666669</ele><time>2026-04-26T14:16:07.024Z</time></trkpt><trkpt lat="43.9098933" lon="12.298085"><ele>246.0</ele><time>2026-04-26T14:16:08.024Z</time></trkpt><trkpt lat="43.9097733" lon="12.2979783"><ele>246.0</ele><time>2026-04-26T14:16:09.023Z</time></trkpt><trkpt lat="43.9096683" lon="12.2978567"><ele>246.0</ele><time>2026-04-26T14:16:10.024Z</time></trkpt><trkpt lat="43.909575" lon="12.2977133"><ele>246.0</ele><time>2026-04-26T14:16:11.023Z</time></trkpt><trkpt lat="43.9094783" lon="12.2975817"><ele>246.0</ele><time>2026-04-26T14:16:12.028Z</time></trkpt><trkpt lat="43.9093883" lon="12.297435"><ele>246.0</ele><time>2026-04-26T14:16:13.022Z</time></trkpt><trkpt lat="43.9093067" lon="12.297285"><ele>246.0</ele><time>2026-04-26T14:16:14.024Z</time></trkpt><trkpt lat="43.9092283" lon="12.2971483"><ele>246.0</ele><time>2026-04-26T14:16:15.025Z</time></trkpt><trkpt lat="43.90916" lon="12.2970083"><ele>246.0</ele><time>2026-04-26T14:16:16.026Z</time></trkpt><trkpt lat="43.909105" lon="12.2968717"><ele>245.0</ele><time>2026-04-26T14:16:17.028Z</time></trkpt><trkpt lat="43.90906" lon="12.296715"><ele>244.0</ele><time>2026-04-26T14:16:18.025Z</time></trkpt><trkpt lat="43.9090217" lon="12.2965383"><ele>243.0</ele><time>2026-04-26T14:16:19.026Z</time></trkpt><trkpt lat="43.908975" lon="12.2963417"><ele>242.0</ele><time>2026-04-26T14:16:20.023Z</time></trkpt><trkpt lat="43.9089067" lon="12.2961267"><ele>242.0</ele><time>2026-04-26T14:16:21.025Z</time></trkpt><trkpt lat="43.90883" lon="12.2958917"><ele>242.0</ele><time>2026-04-26T14:16:22.024Z</time></trkpt><trkpt lat="43.908755" lon="12.295655"><ele>242.0</ele><time>2026-04-26T14:16:23.026Z</time></trkpt><trkpt lat="43.9086867" lon="12.2954283"><ele>242.66666666666669</ele><time>2026-04-26T14:16:24.025Z</time></trkpt><trkpt lat="43.9086283" lon="12.2952067"><ele>243.33333333333331</ele><time>2026-04-26T14:16:25.025Z</time></trkpt><trkpt lat="43.908575" lon="12.2949933"><ele>244.0</ele><time>2026-04-26T14:16:26.027Z</time></trkpt><trkpt lat="43.9085167" lon="12.2947983"><ele>245.25</ele><time>2026-04-26T14:16:27.025Z</time></trkpt><trkpt lat="43.90847" lon="12.2946167"><ele>246.5</ele><time>2026-04-26T14:16:28.024Z</time></trkpt><trkpt lat="43.9084167" lon="12.2944467"><ele>247.75</ele><time>2026-04-26T14:16:29.024Z</time></trkpt><trkpt lat="43.9083367" lon="12.294295"><ele>249.0</ele><time>2026-04-26T14:16:30.024Z</time></trkpt><trkpt lat="43.9082167" lon="12.2941817"><ele>245.66666666666669</ele><time>2026-04-26T14:16:31.026Z</time></trkpt><trkpt lat="43.9080683" lon="12.2940967"><ele>242.33333333333334</ele><time>2026-04-26T14:16:32.025Z</time></trkpt><trkpt lat="43.907905" lon="12.2940367"><ele>239.0</ele><time>2026-04-26T14:16:33.031Z</time></trkpt><trkpt lat="43.9077417" lon="12.293995"><ele>239.0</ele><time>2026-04-26T14:16:34.023Z</time></trkpt><trkpt lat="43.90759" lon="12.2939567"><ele>239.0</ele><time>2026-04-26T14:16:35.023Z</time></trkpt><trkpt lat="43.9074433" lon="12.293925"><ele>239.0</ele><time>2026-04-26T14:16:36.023Z</time></trkpt><trkpt lat="43.90729" lon="12.293895"><ele>238.66666666666669</ele><time>2026-04-26T14:16:37.026Z</time></trkpt><trkpt lat="43.9071333" lon="12.2938517"><ele>238.33333333333331</ele><time>2026-04-26T14:16:38.026Z</time></trkpt><trkpt lat="43.9069717" lon="12.2938067"><ele>238.0</ele><time>2026-04-26T14:16:39.025Z</time></trkpt><trkpt lat="43.90681" lon="12.293765"><ele>239.0</ele><time>2026-04-26T14:16:40.029Z</time></trkpt><trkpt lat="43.90665" lon="12.2937233"><ele>240.0</ele><time>2026-04-26T14:16:41.024Z</time></trkpt><trkpt lat="43.9064933" lon="12.2937"><ele>241.0</ele><time>2026-04-26T14:16:42.022Z</time></trkpt><trkpt lat="43.9063317" lon="12.293665"><ele>241.0</ele><time>2026-04-26T14:16:43.026Z</time></trkpt><trkpt lat="43.90616" lon="12.2936283"><ele>241.0</ele><time>2026-04-26T14:16:44.022Z</time></trkpt><trkpt lat="43.9059767" lon="12.2936017"><ele>241.0</ele><time>2026-04-26T14:16:45.027Z</time></trkpt><trkpt lat="43.9057867" lon="12.2935617"><ele>241.33333333333331</ele><time>2026-04-26T14:16:46.024Z</time></trkpt><trkpt lat="43.9055867" lon="12.293525"><ele>241.66666666666669</ele><time>2026-04-26T14:16:47.023Z</time></trkpt><trkpt lat="43.9053867" lon="12.2934683"><ele>242.0</ele><time>2026-04-26T14:16:48.024Z</time></trkpt><trkpt lat="43.905195" lon="12.293405"><ele>241.33333333333334</ele><time>2026-04-26T14:16:49.024Z</time></trkpt><trkpt lat="43.9050117" lon="12.293345"><ele>240.66666666666669</ele><time>2026-04-26T14:16:50.029Z</time></trkpt><trkpt lat="43.904835" lon="12.2932917"><ele>240.0</ele><time>2026-04-26T14:16:51.023Z</time></trkpt><trkpt lat="43.9046667" lon="12.29326"><ele>240.0</ele><time>2026-04-26T14:16:52.023Z</time></trkpt><trkpt lat="43.9045033" lon="12.2932517"><ele>240.0</ele><time>2026-04-26T14:16:53.023Z</time></trkpt><trkpt lat="43.9043483" lon="12.293285"><ele>240.0</ele><time>2026-04-26T14:16:54.023Z</time></trkpt><trkpt lat="43.9041933" lon="12.293385"><ele>243.0</ele><time>2026-04-26T14:16:55.028Z</time></trkpt><trkpt lat="43.9040367" lon="12.2935317"><ele>246.0</ele><time>2026-04-26T14:16:56.026Z</time></trkpt><trkpt lat="43.9038867" lon="12.293705"><ele>249.0</ele><time>2026-04-26T14:16:57.025Z</time></trkpt><trkpt lat="43.9037467" lon="12.29388"><ele>247.33333333333331</ele><time>2026-04-26T14:16:58.025Z</time></trkpt><trkpt lat="43.9036067" lon="12.2940617"><ele>245.66666666666666</ele><time>2026-04-26T14:16:59.024Z</time></trkpt><trkpt lat="43.9034867" lon="12.2942717"><ele>244.0</ele><time>2026-04-26T14:17:00.028Z</time></trkpt><trkpt lat="43.9033883" lon="12.2944833"><ele>244.0</ele><time>2026-04-26T14:17:01.026Z</time></trkpt><trkpt lat="43.903295" lon="12.29468"><ele>244.0</ele><time>2026-04-26T14:17:02.024Z</time></trkpt><trkpt lat="43.903195" lon="12.294835"><ele>244.0</ele><time>2026-04-26T14:17:03.023Z</time></trkpt><trkpt lat="43.903085" lon="12.294945"><ele>242.5</ele><time>2026-04-26T14:17:04.024Z</time></trkpt><trkpt lat="43.9029717" lon="12.2950267"><ele>241.0</ele><time>2026-04-26T14:17:05.023Z</time></trkpt><trkpt lat="43.9028533" lon="12.29507"><ele>239.5</ele><time>2026-04-26T14:17:06.025Z</time></trkpt><trkpt lat="43.90274" lon="12.2950867"><ele>238.0</ele><time>2026-04-26T14:17:07.024Z</time></trkpt><trkpt lat="43.902615" lon="12.29508"><ele>238.5</ele><time>2026-04-26T14:17:08.024Z</time></trkpt><trkpt lat="43.9024833" lon="12.2950533"><ele>239.0</ele><time>2026-04-26T14:17:09.027Z</time></trkpt><trkpt lat="43.9023567" lon="12.295015"><ele>239.5</ele><time>2026-04-26T14:17:10.025Z</time></trkpt><trkpt lat="43.9022317" lon="12.294975"><ele>240.0</ele><time>2026-04-26T14:17:11.03Z</time></trkpt><trkpt lat="43.902105" lon="12.294935"><ele>240.0</ele><time>2026-04-26T14:17:12.025Z</time></trkpt><trkpt lat="43.9019733" lon="12.2948917"><ele>240.0</ele><time>2026-04-26T14:17:13.027Z</time></trkpt><trkpt lat="43.9018383" lon="12.294855"><ele>240.0</ele><time>2026-04-26T14:17:14.025Z</time></trkpt><trkpt lat="43.901705" lon="12.2948117"><ele>240.0</ele><time>2026-04-26T14:17:15.026Z</time></trkpt><trkpt lat="43.9015833" lon="12.29475"><ele>241.4</ele><time>2026-04-26T14:17:16.024Z</time></trkpt><trkpt lat="43.9014767" lon="12.2946683"><ele>242.8</ele><time>2026-04-26T14:17:17.023Z</time></trkpt><trkpt lat="43.901385" lon="12.294585"><ele>244.2</ele><time>2026-04-26T14:17:18.024Z</time></trkpt><trkpt lat="43.9013033" lon="12.2945"><ele>245.6</ele><time>2026-04-26T14:17:19.026Z</time></trkpt><trkpt lat="43.901225" lon="12.2944133"><ele>247.0</ele><time>2026-04-26T14:17:20.023Z</time></trkpt><trkpt lat="43.9011367" lon="12.2943267"><ele>247.0</ele><time>2026-04-26T14:17:21.028Z</time></trkpt><trkpt lat="43.9010483" lon="12.2942367"><ele>247.0</ele><time>2026-04-26T14:17:22.023Z</time></trkpt><trkpt lat="43.9009567" lon="12.2941517"><ele>247.0</ele><time>2026-04-26T14:17:23.025Z</time></trkpt><trkpt lat="43.9008683" lon="12.2940583"><ele>247.0</ele><time>2026-04-26T14:17:24.024Z</time></trkpt><trkpt lat="43.90078" lon="12.2939683"><ele>247.0</ele><time>2026-04-26T14:17:25.024Z</time></trkpt><trkpt lat="43.900695" lon="12.2938767"><ele>248.0</ele><time>2026-04-26T14:17:26.024Z</time></trkpt><trkpt lat="43.9006117" lon="12.293785"><ele>249.0</ele><time>2026-04-26T14:17:27.023Z</time></trkpt><trkpt lat="43.9005417" lon="12.2937017"><ele>250.0</ele><time>2026-04-26T14:17:28.024Z</time></trkpt><trkpt lat="43.900475" lon="12.29362"><ele>251.0</ele><time>2026-04-26T14:17:29.024Z</time></trkpt><trkpt lat="43.9004067" lon="12.2935333"><ele>252.0</ele><time>2026-04-26T14:17:30.026Z</time></trkpt><trkpt lat="43.9003517" lon="12.2934233"><ele>252.0</ele><time>2026-04-26T14:17:31.027Z</time></trkpt><trkpt lat="43.90031" lon="12.2932917"><ele>252.0</ele><time>2026-04-26T14:17:32.022Z</time></trkpt><trkpt lat="43.9002783" lon="12.2931467"><ele>252.0</ele><time>2026-04-26T14:17:33.023Z</time></trkpt><trkpt lat="43.90026" lon="12.2929867"><ele>252.0</ele><time>2026-04-26T14:17:34.025Z</time></trkpt><trkpt lat="43.9002533" lon="12.2928167"><ele>253.0</ele><time>2026-04-26T14:17:35.025Z</time></trkpt><trkpt lat="43.9002467" lon="12.2926417"><ele>254.0</ele><time>2026-04-26T14:17:36.027Z</time></trkpt><trkpt lat="43.9002383" lon="12.2924633"><ele>255.0</ele><time>2026-04-26T14:17:37.023Z</time></trkpt><trkpt lat="43.90023" lon="12.2922867"><ele>256.0</ele><time>2026-04-26T14:17:38.023Z</time></trkpt><trkpt lat="43.90022" lon="12.29211"><ele>256.8</ele><time>2026-04-26T14:17:39.024Z</time></trkpt><trkpt lat="43.900205" lon="12.2919433"><ele>257.6</ele><time>2026-04-26T14:17:40.026Z</time></trkpt><trkpt lat="43.9001917" lon="12.2917933"><ele>258.4</ele><time>2026-04-26T14:17:41.027Z</time></trkpt><trkpt lat="43.9001767" lon="12.2916533"><ele>259.2</ele><time>2026-04-26T14:17:42.023Z</time></trkpt><trkpt lat="43.90016" lon="12.2915233"><ele>260.0</ele><time>2026-04-26T14:17:43.024Z</time></trkpt><trkpt lat="43.9001417" lon="12.2913967"><ele>259.8</ele><time>2026-04-26T14:17:44.025Z</time></trkpt><trkpt lat="43.9001133" lon="12.2912717"><ele>259.6</ele><time>2026-04-26T14:17:45.023Z</time></trkpt><trkpt lat="43.9000683" lon="12.2911483"><ele>259.4</ele><time>2026-04-26T14:17:46.024Z</time></trkpt><trkpt lat="43.900015" lon="12.2910267"><ele>259.2</ele><time>2026-04-26T14:17:47.022Z</time></trkpt><trkpt lat="43.899955" lon="12.2909033"><ele>259.0</ele><time>2026-04-26T14:17:48.028Z</time></trkpt><trkpt lat="43.8998933" lon="12.2907767"><ele>259.0</ele><time>2026-04-26T14:17:49.023Z</time></trkpt><trkpt lat="43.8998283" lon="12.2906517"><ele>259.0</ele><time>2026-04-26T14:17:50.023Z</time></trkpt><trkpt lat="43.8997583" lon="12.290525"><ele>259.0</ele><time>2026-04-26T14:17:51.024Z</time></trkpt><trkpt lat="43.8996817" lon="12.2903867"><ele>259.0</ele><time>2026-04-26T14:17:52.022Z</time></trkpt><trkpt lat="43.8996" lon="12.2902333"><ele>260.25</ele><time>2026-04-26T14:17:53.023Z</time></trkpt><trkpt lat="43.8995183" lon="12.290075"><ele>261.5</ele><time>2026-04-26T14:17:54.023Z</time></trkpt><trkpt lat="43.89944" lon="12.2899167"><ele>262.75</ele><time>2026-04-26T14:17:55.024Z</time></trkpt><trkpt lat="43.899355" lon="12.2897717"><ele>264.0</ele><time>2026-04-26T14:17:56.027Z</time></trkpt><trkpt lat="43.899265" lon="12.2896333"><ele>263.75</ele><time>2026-04-26T14:17:57.026Z</time></trkpt><trkpt lat="43.89918" lon="12.289485"><ele>263.5</ele><time>2026-04-26T14:17:58.024Z</time></trkpt><trkpt lat="43.89909" lon="12.2893483"><ele>263.25</ele><time>2026-04-26T14:17:59.025Z</time></trkpt><trkpt lat="43.8989917" lon="12.2892217"><ele>263.0</ele><time>2026-04-26T14:18:00.026Z</time></trkpt><trkpt lat="43.8988817" lon="12.2891167"><ele>263.0</ele><time>2026-04-26T14:18:01.022Z</time></trkpt><trkpt lat="43.898765" lon="12.289035"><ele>263.0</ele><time>2026-04-26T14:18:02.024Z</time></trkpt><trkpt lat="43.8986483" lon="12.2889717"><ele>263.0</ele><time>2026-04-26T14:18:03.025Z</time></trkpt><trkpt lat="43.8985433" lon="12.2889183"><ele>263.0</ele><time>2026-04-26T14:18:04.024Z</time></trkpt><trkpt lat="43.8984417" lon="12.28888"><ele>265.2</ele><time>2026-04-26T14:18:05.026Z</time></trkpt><trkpt lat="43.8983517" lon="12.2888583"><ele>267.4</ele><time>2026-04-26T14:18:06.023Z</time></trkpt><trkpt lat="43.8982767" lon="12.2888533"><ele>269.59999999999997</ele><time>2026-04-26T14:18:07.022Z</time></trkpt><trkpt lat="43.8981583" lon="12.2888533"><ele>271.8</ele><time>2026-04-26T14:18:09.022Z</time></trkpt><trkpt lat="43.89806" lon="12.2888633"><ele>274.0</ele><time>2026-04-26T14:18:11.025Z</time></trkpt><trkpt lat="43.8979633" lon="12.2888733"><ele>274.0</ele><time>2026-04-26T14:18:13.022Z</time></trkpt><trkpt lat="43.8978483" lon="12.2888733"><ele>274.0</ele><time>2026-04-26T14:18:15.022Z</time></trkpt><trkpt lat="43.89773" lon="12.288925"><ele>274.0</ele><time>2026-04-26T14:18:17.022Z</time></trkpt><trkpt lat="43.8976733" lon="12.2889717"><ele>274.0</ele><time>2026-04-26T14:18:18.028Z</time></trkpt><trkpt lat="43.8976033" lon="12.2889883"><ele>274.0</ele><time>2026-04-26T14:18:19.026Z</time></trkpt><trkpt lat="43.897525" lon="12.2889717"><ele>275.0</ele><time>2026-04-26T14:18:20.022Z</time></trkpt><trkpt lat="43.897435" lon="12.2889133"><ele>276.0</ele><time>2026-04-26T14:18:21.025Z</time></trkpt><trkpt lat="43.897345" lon="12.2888417"><ele>277.0</ele><time>2026-04-26T14:18:22.021Z</time></trkpt><trkpt lat="43.8972417" lon="12.2887783"><ele>278.0</ele><time>2026-04-26T14:18:23.025Z</time></trkpt><trkpt lat="43.8971167" lon="12.2886633"><ele>278.0</ele><time>2026-04-26T14:18:24.025Z</time></trkpt><trkpt lat="43.8969817" lon="12.2885267"><ele>278.0</ele><time>2026-04-26T14:18:25.029Z</time></trkpt><trkpt lat="43.8968217" lon="12.288365"><ele>278.0</ele><time>2026-04-26T14:18:26.021Z</time></trkpt><trkpt lat="43.8966617" lon="12.2882217"><ele>279.0</ele><time>2026-04-26T14:18:27.024Z</time></trkpt><trkpt lat="43.8965133" lon="12.2880917"><ele>280.0</ele><time>2026-04-26T14:18:28.023Z</time></trkpt><trkpt lat="43.8963767" lon="12.2879717"><ele>281.0</ele><time>2026-04-26T14:18:29.024Z</time></trkpt><trkpt lat="43.8962467" lon="12.2878567"><ele>281.0</ele><time>2026-04-26T14:18:30.022Z</time></trkpt><trkpt lat="43.8961233" lon="12.2877383"><ele>281.0</ele><time>2026-04-26T14:18:31.023Z</time></trkpt><trkpt lat="43.896005" lon="12.2876467"><ele>281.0</ele><time>2026-04-26T14:18:32.021Z</time></trkpt><trkpt lat="43.8959133" lon="12.28758"><ele>281.0</ele><time>2026-04-26T14:18:33.028Z</time></trkpt><trkpt lat="43.895815" lon="12.2875633"><ele>281.2</ele><time>2026-04-26T14:18:34.025Z</time></trkpt><trkpt lat="43.8957267" lon="12.2875767"><ele>281.40000000000003</ele><time>2026-04-26T14:18:35.022Z</time></trkpt><trkpt lat="43.8956433" lon="12.287605"><ele>281.6</ele><time>2026-04-26T14:18:36.024Z</time></trkpt><trkpt lat="43.89556" lon="12.2876483"><ele>281.8</ele><time>2026-04-26T14:18:37.023Z</time></trkpt><trkpt lat="43.8954717" lon="12.2877167"><ele>282.0</ele><time>2026-04-26T14:18:38.028Z</time></trkpt><trkpt lat="43.8953867" lon="12.2878183"><ele>282.0</ele><time>2026-04-26T14:18:39.023Z</time></trkpt><trkpt lat="43.8952983" lon="12.2879317"><ele>282.0</ele><time>2026-04-26T14:18:40.023Z</time></trkpt><trkpt lat="43.8952183" lon="12.288055"><ele>282.0</ele><time>2026-04-26T14:18:41.024Z</time></trkpt><trkpt lat="43.89515" lon="12.288185"><ele>282.0</ele><time>2026-04-26T14:18:42.026Z</time></trkpt><trkpt lat="43.8950967" lon="12.2883133"><ele>283.2</ele><time>2026-04-26T14:18:43.024Z</time></trkpt><trkpt lat="43.89505" lon="12.2884267"><ele>284.4</ele><time>2026-04-26T14:18:44.024Z</time></trkpt><trkpt lat="43.89502" lon="12.2885267"><ele>285.6</ele><time>2026-04-26T14:18:45.022Z</time></trkpt><trkpt lat="43.894955" lon="12.2886517"><ele>286.8</ele><time>2026-04-26T14:18:47.022Z</time></trkpt><trkpt lat="43.8948733" lon="12.288595"><ele>288.0</ele><time>2026-04-26T14:18:49.028Z</time></trkpt><trkpt lat="43.89486" lon="12.2884683"><ele>288.0</ele><time>2026-04-26T14:18:50.025Z</time></trkpt><trkpt lat="43.8948717" lon="12.28828"><ele>288.0</ele><time>2026-04-26T14:18:51.023Z</time></trkpt><trkpt lat="43.8948333" lon="12.2881133"><ele>288.0</ele><time>2026-04-26T14:18:52.023Z</time></trkpt><trkpt lat="43.89481" lon="12.28796"><ele>288.0</ele><time>2026-04-26T14:18:53.023Z</time></trkpt><trkpt lat="43.8948217" lon="12.2877983"><ele>289.0</ele><time>2026-04-26T14:18:54.023Z</time></trkpt><trkpt lat="43.8947983" lon="12.2876433"><ele>290.0</ele><time>2026-04-26T14:18:55.023Z</time></trkpt><trkpt lat="43.8947483" lon="12.2875017"><ele>291.0</ele><time>2026-04-26T14:18:56.03Z</time></trkpt><trkpt lat="43.8946783" lon="12.2873933"><ele>292.0</ele><time>2026-04-26T14:18:57.027Z</time></trkpt><trkpt lat="43.8945783" lon="12.2873467"><ele>293.0</ele><time>2026-04-26T14:18:58.026Z</time></trkpt><trkpt lat="43.8944817" lon="12.28735"><ele>293.0</ele><time>2026-04-26T14:18:59.025Z</time></trkpt><trkpt lat="43.894395" lon="12.28739"><ele>293.0</ele><time>2026-04-26T14:19:00.023Z</time></trkpt><trkpt lat="43.8943117" lon="12.28746"><ele>293.0</ele><time>2026-04-26T14:19:01.025Z</time></trkpt><trkpt lat="43.8942233" lon="12.287595"><ele>293.0</ele><time>2026-04-26T14:19:02.024Z</time></trkpt><trkpt lat="43.8941683" lon="12.2878433"><ele>294.0</ele><time>2026-04-26T14:19:03.023Z</time></trkpt><trkpt lat="43.8940967" lon="12.2880333"><ele>295.0</ele><time>2026-04-26T14:19:04.027Z</time></trkpt><trkpt lat="43.8940217" lon="12.28819"><ele>296.0</ele><time>2026-04-26T14:19:05.023Z</time></trkpt><trkpt lat="43.893945" lon="12.2883"><ele>297.0</ele><time>2026-04-26T14:19:06.025Z</time></trkpt><trkpt lat="43.89386" lon="12.28836"><ele>297.0</ele><time>2026-04-26T14:19:07.025Z</time></trkpt><trkpt lat="43.893775" lon="12.2883817"><ele>297.0</ele><time>2026-04-26T14:19:08.023Z</time></trkpt><trkpt lat="43.89369" lon="12.2883667"><ele>297.0</ele><time>2026-04-26T14:19:09.024Z</time></trkpt><trkpt lat="43.893625" lon="12.2882283"><ele>297.0</ele><time>2026-04-26T14:19:10.024Z</time></trkpt><trkpt lat="43.893595" lon="12.2880517"><ele>297.0</ele><time>2026-04-26T14:19:11.025Z</time></trkpt><trkpt lat="43.893575" lon="12.2878767"><ele>300.25</ele><time>2026-04-26T14:19:12.026Z</time></trkpt><trkpt lat="43.8935233" lon="12.2877233"><ele>303.5</ele><time>2026-04-26T14:19:13.025Z</time></trkpt><trkpt lat="43.8934333" lon="12.2875983"><ele>306.75</ele><time>2026-04-26T14:19:14.026Z</time></trkpt><trkpt lat="43.8933267" lon="12.2875117"><ele>310.0</ele><time>2026-04-26T14:19:15.023Z</time></trkpt><trkpt lat="43.89321" lon="12.28748"><ele>310.25</ele><time>2026-04-26T14:19:16.024Z</time></trkpt><trkpt lat="43.8930833" lon="12.2874967"><ele>310.5</ele><time>2026-04-26T14:19:17.026Z</time></trkpt><trkpt lat="43.8929633" lon="12.28755"><ele>310.75</ele><time>2026-04-26T14:19:18.024Z</time></trkpt><trkpt lat="43.8928617" lon="12.2876133"><ele>311.0</ele><time>2026-04-26T14:19:19.031Z</time></trkpt><trkpt lat="43.8927517" lon="12.287615"><ele>311.0</ele><time>2026-04-26T14:19:20.026Z</time></trkpt><trkpt lat="43.8926517" lon="12.28757"><ele>311.0</ele><time>2026-04-26T14:19:21.022Z</time></trkpt><trkpt lat="43.89255" lon="12.2874783"><ele>311.0</ele><time>2026-04-26T14:19:22.024Z</time></trkpt><trkpt lat="43.8924433" lon="12.2873567"><ele>311.0</ele><time>2026-04-26T14:19:23.025Z</time></trkpt><trkpt lat="43.8923333" lon="12.287245"><ele>314.75</ele><time>2026-04-26T14:19:24.028Z</time></trkpt><trkpt lat="43.8922383" lon="12.2871333"><ele>318.5</ele><time>2026-04-26T14:19:25.026Z</time></trkpt><trkpt lat="43.892165" lon="12.2870217"><ele>322.25</ele><time>2026-04-26T14:19:26.024Z</time></trkpt><trkpt lat="43.8921017" lon="12.2868917"><ele>326.0</ele><time>2026-04-26T14:19:27.023Z</time></trkpt><trkpt lat="43.8920567" lon="12.2867267"><ele>326.0</ele><time>2026-04-26T14:19:28.026Z</time></trkpt><trkpt lat="43.89201" lon="12.2865367"><ele>326.0</ele><time>2026-04-26T14:19:29.023Z</time></trkpt><trkpt lat="43.89195" lon="12.2863217"><ele>326.0</ele><time>2026-04-26T14:19:30.025Z</time></trkpt><trkpt lat="43.891895" lon="12.28609"><ele>327.75</ele><time>2026-04-26T14:19:31.025Z</time></trkpt><trkpt lat="43.8918533" lon="12.2858667"><ele>329.5</ele><time>2026-04-26T14:19:32.025Z</time></trkpt><trkpt lat="43.891825" lon="12.2856733"><ele>331.25</ele><time>2026-04-26T14:19:33.022Z</time></trkpt><trkpt lat="43.8918133" lon="12.2854983"><ele>333.0</ele><time>2026-04-26T14:19:34.023Z</time></trkpt><trkpt lat="43.8918267" lon="12.28535"><ele>334.0</ele><time>2026-04-26T14:19:35.023Z</time></trkpt><trkpt lat="43.89188" lon="12.2852267"><ele>335.0</ele><time>2026-04-26T14:19:36.022Z</time></trkpt><trkpt lat="43.8919533" lon="12.285135"><ele>336.0</ele><time>2026-04-26T14:19:37.029Z</time></trkpt><trkpt lat="43.89204" lon="12.2851067"><ele>337.0</ele><time>2026-04-26T14:19:38.025Z</time></trkpt><trkpt lat="43.8921417" lon="12.2851117"><ele>338.0</ele><time>2026-04-26T14:19:39.026Z</time></trkpt><trkpt lat="43.8922583" lon="12.2852"><ele>338.0</ele><time>2026-04-26T14:19:40.025Z</time></trkpt><trkpt lat="43.892375" lon="12.2853833"><ele>338.0</ele><time>2026-04-26T14:19:41.027Z</time></trkpt><trkpt lat="43.89251" lon="12.285525"><ele>338.0</ele><time>2026-04-26T14:19:42.024Z</time></trkpt><trkpt lat="43.8926583" lon="12.2856017"><ele>337.25</ele><time>2026-04-26T14:19:43.025Z</time></trkpt><trkpt lat="43.8928033" lon="12.285635"><ele>336.5</ele><time>2026-04-26T14:19:44.023Z</time></trkpt><trkpt lat="43.892935" lon="12.285655"><ele>335.75</ele><time>2026-04-26T14:19:45.024Z</time></trkpt><trkpt lat="43.8930617" lon="12.2856"><ele>335.0</ele><time>2026-04-26T14:19:46.024Z</time></trkpt><trkpt lat="43.8931767" lon="12.2854317"><ele>337.6666666666667</ele><time>2026-04-26T14:19:47.022Z</time></trkpt><trkpt lat="43.8932817" lon="12.2852433"><ele>340.3333333333333</ele><time>2026-04-26T14:19:48.03Z</time></trkpt><trkpt lat="43.8933817" lon="12.28503"><ele>343.0</ele><time>2026-04-26T14:19:49.026Z</time></trkpt><trkpt lat="43.893495" lon="12.2848167"><ele>345.3333333333333</ele><time>2026-04-26T14:19:50.024Z</time></trkpt><trkpt lat="43.893615" lon="12.2845967"><ele>347.6666666666667</ele><time>2026-04-26T14:19:51.025Z</time></trkpt><trkpt lat="43.8937333" lon="12.284365"><ele>350.0</ele><time>2026-04-26T14:19:52.025Z</time></trkpt><trkpt lat="43.893855" lon="12.2841433"><ele>350.0</ele><time>2026-04-26T14:19:53.023Z</time></trkpt><trkpt lat="43.893965" lon="12.28394"><ele>350.0</ele><time>2026-04-26T14:19:54.023Z</time></trkpt><trkpt lat="43.89407" lon="12.2837483"><ele>350.0</ele><time>2026-04-26T14:19:55.026Z</time></trkpt><trkpt lat="43.8941733" lon="12.28354"><ele>349.6666666666667</ele><time>2026-04-26T14:19:56.024Z</time></trkpt><trkpt lat="43.8942583" lon="12.28332"><ele>349.3333333333333</ele><time>2026-04-26T14:19:57.029Z</time></trkpt><trkpt lat="43.89432" lon="12.2830667"><ele>349.0</ele><time>2026-04-26T14:19:58.023Z</time></trkpt><trkpt lat="43.8943683" lon="12.28279"><ele>350.3333333333333</ele><time>2026-04-26T14:19:59.027Z</time></trkpt><trkpt lat="43.894415" lon="12.2824967"><ele>351.6666666666667</ele><time>2026-04-26T14:20:00.025Z</time></trkpt><trkpt lat="43.8944633" lon="12.28219"><ele>353.0</ele><time>2026-04-26T14:20:01.024Z</time></trkpt><trkpt lat="43.8945117" lon="12.2818683"><ele>356.0</ele><time>2026-04-26T14:20:02.027Z</time></trkpt><trkpt lat="43.89458" lon="12.2815383"><ele>359.0</ele><time>2026-04-26T14:20:03.026Z</time></trkpt><trkpt lat="43.894635" lon="12.2812083"><ele>359.5</ele><time>2026-04-26T14:20:04.025Z</time></trkpt><trkpt lat="43.8946967" lon="12.2808967"><ele>360.0</ele><time>2026-04-26T14:20:05.026Z</time></trkpt><trkpt lat="43.894745" lon="12.2806"><ele>361.6666666666667</ele><time>2026-04-26T14:20:06.024Z</time></trkpt><trkpt lat="43.894795" lon="12.2803133"><ele>363.33333333333337</ele><time>2026-04-26T14:20:07.029Z</time></trkpt><trkpt lat="43.8948317" lon="12.28003"><ele>365.0</ele><time>2026-04-26T14:20:08.026Z</time></trkpt><trkpt lat="43.8948633" lon="12.2797517"><ele>367.0</ele><time>2026-04-26T14:20:09.023Z</time></trkpt><trkpt lat="43.8948483" lon="12.279485"><ele>369.0</ele><time>2026-04-26T14:20:10.022Z</time></trkpt><trkpt lat="43.89484" lon="12.2792333"><ele>371.0</ele><time>2026-04-26T14:20:11.023Z</time></trkpt><trkpt lat="43.894835" lon="12.2790067"><ele>372.25</ele><time>2026-04-26T14:20:12.025Z</time></trkpt><trkpt lat="43.8948417" lon="12.2787983"><ele>373.5</ele><time>2026-04-26T14:20:13.028Z</time></trkpt><trkpt lat="43.89486" lon="12.2786167"><ele>374.75</ele><time>2026-04-26T14:20:14.026Z</time></trkpt><trkpt lat="43.8948883" lon="12.2784667"><ele>376.0</ele><time>2026-04-26T14:20:15.026Z</time></trkpt><trkpt lat="43.894955" lon="12.2783533"><ele>376.0</ele><time>2026-04-26T14:20:16.025Z</time></trkpt><trkpt lat="43.8950467" lon="12.2782817"><ele>376.0</ele><time>2026-04-26T14:20:17.023Z</time></trkpt><trkpt lat="43.89516" lon="12.2782517"><ele>376.0</ele><time>2026-04-26T14:20:18.024Z</time></trkpt><trkpt lat="43.8952833" lon="12.2782733"><ele>376.0</ele><time>2026-04-26T14:20:19.023Z</time></trkpt><trkpt lat="43.89542" lon="12.278345"><ele>378.66666666666663</ele><time>2026-04-26T14:20:20.025Z</time></trkpt><trkpt lat="43.8955717" lon="12.278445"><ele>381.3333333333333</ele><time>2026-04-26T14:20:21.023Z</time></trkpt><trkpt lat="43.89573" lon="12.2785483"><ele>384.0</ele><time>2026-04-26T14:20:22.024Z</time></trkpt><trkpt lat="43.8958883" lon="12.2786333"><ele>385.0</ele><time>2026-04-26T14:20:23.027Z</time></trkpt><trkpt lat="43.8960367" lon="12.2786917"><ele>386.0</ele><time>2026-04-26T14:20:24.03Z</time></trkpt><trkpt lat="43.896175" lon="12.27872"><ele>387.0</ele><time>2026-04-26T14:20:25.025Z</time></trkpt><trkpt lat="43.8963133" lon="12.2787017"><ele>388.0</ele><time>2026-04-26T14:20:26.024Z</time></trkpt><trkpt lat="43.8964583" lon="12.2786333"><ele>388.0</ele><time>2026-04-26T14:20:27.023Z</time></trkpt><trkpt lat="43.8966033" lon="12.27853"><ele>388.0</ele><time>2026-04-26T14:20:28.022Z</time></trkpt><trkpt lat="43.8967433" lon="12.27843"><ele>388.0</ele><time>2026-04-26T14:20:29.026Z</time></trkpt><trkpt lat="43.8968817" lon="12.27837"><ele>390.25</ele><time>2026-04-26T14:20:30.025Z</time></trkpt><trkpt lat="43.897015" lon="12.278355"><ele>392.5</ele><time>2026-04-26T14:20:31.025Z</time></trkpt><trkpt lat="43.8971367" lon="12.2783867"><ele>394.75</ele><time>2026-04-26T14:20:32.024Z</time></trkpt><trkpt lat="43.89726" lon="12.2784717"><ele>397.0</ele><time>2026-04-26T14:20:33.028Z</time></trkpt><trkpt lat="43.89738" lon="12.2786117"><ele>397.0</ele><time>2026-04-26T14:20:34.024Z</time></trkpt><trkpt lat="43.8974817" lon="12.2787983"><ele>397.0</ele><time>2026-04-26T14:20:35.022Z</time></trkpt><trkpt lat="43.8975733" lon="12.278985"><ele>397.0</ele><time>2026-04-26T14:20:36.023Z</time></trkpt><trkpt lat="43.8976667" lon="12.2791533"><ele>396.6666666666667</ele><time>2026-04-26T14:20:37.025Z</time></trkpt><trkpt lat="43.8977767" lon="12.279285"><ele>396.33333333333337</ele><time>2026-04-26T14:20:38.03Z</time></trkpt><trkpt lat="43.897915" lon="12.279385"><ele>396.0</ele><time>2026-04-26T14:20:39.023Z</time></trkpt><trkpt lat="43.898065" lon="12.2794533"><ele>396.0</ele><time>2026-04-26T14:20:40.022Z</time></trkpt><trkpt lat="43.89821" lon="12.2795"><ele>396.0</ele><time>2026-04-26T14:20:41.022Z</time></trkpt><trkpt lat="43.8983417" lon="12.2795183"><ele>396.0</ele><time>2026-04-26T14:20:42.027Z</time></trkpt><trkpt lat="43.8984533" lon="12.2794883"><ele>396.0</ele><time>2026-04-26T14:20:43.024Z</time></trkpt><trkpt lat="43.8985383" lon="12.2794067"><ele>397.20000000000005</ele><time>2026-04-26T14:20:44.022Z</time></trkpt><trkpt lat="43.8985967" lon="12.2792933"><ele>398.40000000000003</ele><time>2026-04-26T14:20:45.023Z</time></trkpt><trkpt lat="43.8986233" lon="12.2791617"><ele>399.6</ele><time>2026-04-26T14:20:46.023Z</time></trkpt><trkpt lat="43.8985967" lon="12.2790333"><ele>400.8</ele><time>2026-04-26T14:20:47.023Z</time></trkpt><trkpt lat="43.8985333" lon="12.2789067"><ele>402.0</ele><time>2026-04-26T14:20:48.024Z</time></trkpt><trkpt lat="43.8984433" lon="12.2788217"><ele>405.40000000000003</ele><time>2026-04-26T14:20:49.022Z</time></trkpt><trkpt lat="43.8983367" lon="12.2787633"><ele>408.8</ele><time>2026-04-26T14:20:50.024Z</time></trkpt><trkpt lat="43.8982313" lon="12.278736"><ele>412.2</ele><time>2026-04-26T14:20:51.022Z</time></trkpt><trkpt lat="43.8981304" lon="12.2787182"><ele>415.6</ele><time>2026-04-26T14:20:52.025Z</time></trkpt><trkpt lat="43.8980429" lon="12.278649"><ele>419.0</ele><time>2026-04-26T14:20:53.028Z</time></trkpt><trkpt lat="43.8979721" lon="12.2785272"><ele>419.0</ele><time>2026-04-26T14:20:54.023Z</time></trkpt><trkpt lat="43.8979135" lon="12.2783855"><ele>419.0</ele><time>2026-04-26T14:20:55.023Z</time></trkpt><trkpt lat="43.8978671" lon="12.2782142"><ele>419.0</ele><time>2026-04-26T14:20:56.022Z</time></trkpt><trkpt lat="43.897825" lon="12.2779906"><ele>419.0</ele><time>2026-04-26T14:20:57.028Z</time></trkpt><trkpt lat="43.8977791" lon="12.2777295"><ele>421.66666666666663</ele><time>2026-04-26T14:20:58.023Z</time></trkpt><trkpt lat="43.8977239" lon="12.277472"><ele>424.33333333333337</ele><time>2026-04-26T14:20:59.022Z</time></trkpt><trkpt lat="43.897655" lon="12.277216"><ele>427.0</ele><time>2026-04-26T14:21:00.024Z</time></trkpt><trkpt lat="43.8975678" lon="12.276979"><ele>427.0</ele><time>2026-04-26T14:21:01.021Z</time></trkpt><trkpt lat="43.8974734" lon="12.2767543"><ele>427.0</ele><time>2026-04-26T14:21:02.028Z</time></trkpt><trkpt lat="43.8973671" lon="12.276554"><ele>427.0</ele><time>2026-04-26T14:21:03.024Z</time></trkpt><trkpt lat="43.8972489" lon="12.2763813"><ele>430.25</ele><time>2026-04-26T14:21:04.024Z</time></trkpt><trkpt lat="43.897131" lon="12.2762395"><ele>433.5</ele><time>2026-04-26T14:21:05.022Z</time></trkpt><trkpt lat="43.8970246" lon="12.2761225"><ele>436.75</ele><time>2026-04-26T14:21:06.022Z</time></trkpt><trkpt lat="43.8969392" lon="12.2760097"><ele>440.0</ele><time>2026-04-26T14:21:07.034Z</time></trkpt><trkpt lat="43.8968668" lon="12.2758946"><ele>440.0</ele><time>2026-04-26T14:21:08.022Z</time></trkpt><trkpt lat="43.8968139" lon="12.2757608"><ele>440.0</ele><time>2026-04-26T14:21:09.024Z</time></trkpt><trkpt lat="43.8968029" lon="12.275599"><ele>440.0</ele><time>2026-04-26T14:21:10.022Z</time></trkpt><trkpt lat="43.896836" lon="12.2754157"><ele>440.0</ele><time>2026-04-26T14:21:11.025Z</time></trkpt><trkpt lat="43.8969085" lon="12.2752116"><ele>445.3333333333333</ele><time>2026-04-26T14:21:12.023Z</time></trkpt><trkpt lat="43.8969865" lon="12.2750027"><ele>450.66666666666663</ele><time>2026-04-26T14:21:13.025Z</time></trkpt><trkpt lat="43.8970375" lon="12.2747765"><ele>456.0</ele><time>2026-04-26T14:21:14.027Z</time></trkpt><trkpt lat="43.8970544" lon="12.2745411"><ele>459.33333333333337</ele><time>2026-04-26T14:21:15.022Z</time></trkpt><trkpt lat="43.8970594" lon="12.27432"><ele>462.6666666666667</ele><time>2026-04-26T14:21:16.025Z</time></trkpt><trkpt lat="43.8970525" lon="12.2741148"><ele>466.0</ele><time>2026-04-26T14:21:17.022Z</time></trkpt><trkpt lat="43.8970497" lon="12.2739063"><ele>467.33333333333337</ele><time>2026-04-26T14:21:18.023Z</time></trkpt><trkpt lat="43.8970394" lon="12.2736931"><ele>468.66666666666663</ele><time>2026-04-26T14:21:19.024Z</time></trkpt><trkpt lat="43.8970197" lon="12.2734686"><ele>470.0</ele><time>2026-04-26T14:21:20.022Z</time></trkpt><trkpt lat="43.8969789" lon="12.2732379"><ele>471.0</ele><time>2026-04-26T14:21:21.025Z</time></trkpt><trkpt lat="43.8968978" lon="12.2730187"><ele>472.0</ele><time>2026-04-26T14:21:22.023Z</time></trkpt><trkpt lat="43.8968074" lon="12.2728016"><ele>473.0</ele><time>2026-04-26T14:21:23.021Z</time></trkpt><trkpt lat="43.8967394" lon="12.2725767"><ele>467.0</ele><time>2026-04-26T14:21:24.021Z</time></trkpt><trkpt lat="43.8967065" lon="12.2723295"><ele>461.0</ele><time>2026-04-26T14:21:25.023Z</time></trkpt><trkpt lat="43.8967061" lon="12.2720688"><ele>455.0</ele><time>2026-04-26T14:21:26.022Z</time></trkpt><trkpt lat="43.8967252" lon="12.2718062"><ele>455.0</ele><time>2026-04-26T14:21:27.022Z</time></trkpt><trkpt lat="43.8967523" lon="12.2715567"><ele>455.0</ele><time>2026-04-26T14:21:28.023Z</time></trkpt><trkpt lat="43.8967792" lon="12.2713276"><ele>455.0</ele><time>2026-04-26T14:21:29.023Z</time></trkpt><trkpt lat="43.8968048" lon="12.2711025"><ele>462.0</ele><time>2026-04-26T14:21:30.023Z</time></trkpt><trkpt lat="43.8968295" lon="12.2708683"><ele>469.0</ele><time>2026-04-26T14:21:31.029Z</time></trkpt><trkpt lat="43.8968564" lon="12.2706246"><ele>476.0</ele><time>2026-04-26T14:21:32.022Z</time></trkpt><trkpt lat="43.8968827" lon="12.270365"><ele>478.3333333333333</ele><time>2026-04-26T14:21:33.024Z</time></trkpt><trkpt lat="43.8969071" lon="12.2701062"><ele>480.66666666666663</ele><time>2026-04-26T14:21:34.022Z</time></trkpt><trkpt lat="43.8969316" lon="12.2698549"><ele>483.0</ele><time>2026-04-26T14:21:35.023Z</time></trkpt><trkpt lat="43.8969534" lon="12.2696019"><ele>486.66666666666663</ele><time>2026-04-26T14:21:36.023Z</time></trkpt><trkpt lat="43.8969576" lon="12.2693429"><ele>490.3333333333333</ele><time>2026-04-26T14:21:37.024Z</time></trkpt><trkpt lat="43.8969316" lon="12.2690823"><ele>494.0</ele><time>2026-04-26T14:21:38.027Z</time></trkpt><trkpt lat="43.8968931" lon="12.2688207"><ele>496.66666666666663</ele><time>2026-04-26T14:21:39.024Z</time></trkpt><trkpt lat="43.8968538" lon="12.2685567"><ele>499.33333333333337</ele><time>2026-04-26T14:21:40.024Z</time></trkpt><trkpt lat="43.8968132" lon="12.2682864"><ele>502.0</ele><time>2026-04-26T14:21:41.024Z</time></trkpt><trkpt lat="43.8967738" lon="12.268016"><ele>495.6666666666667</ele><time>2026-04-26T14:21:42.025Z</time></trkpt><trkpt lat="43.8967343" lon="12.2677533"><ele>489.33333333333337</ele><time>2026-04-26T14:21:43.024Z</time></trkpt><trkpt lat="43.8966979" lon="12.2675052"><ele>483.0</ele><time>2026-04-26T14:21:44.023Z</time></trkpt><trkpt lat="43.8966719" lon="12.2672787"><ele>485.25</ele><time>2026-04-26T14:21:45.027Z</time></trkpt><trkpt lat="43.8966476" lon="12.2670737"><ele>487.5</ele><time>2026-04-26T14:21:46.025Z</time></trkpt><trkpt lat="43.8966224" lon="12.2668901"><ele>489.75</ele><time>2026-04-26T14:21:47.021Z</time></trkpt><trkpt lat="43.8966007" lon="12.2667255"><ele>492.0</ele><time>2026-04-26T14:21:48.023Z</time></trkpt><trkpt lat="43.8965855" lon="12.2665699"><ele>492.8333333333333</ele><time>2026-04-26T14:21:49.022Z</time></trkpt><trkpt lat="43.8965601" lon="12.2664283"><ele>493.66666666666663</ele><time>2026-04-26T14:21:50.028Z</time></trkpt><trkpt lat="43.8965331" lon="12.2663034"><ele>494.5</ele><time>2026-04-26T14:21:51.022Z</time></trkpt><trkpt lat="43.896502" lon="12.2661975"><ele>495.3333333333333</ele><time>2026-04-26T14:21:52.022Z</time></trkpt><trkpt lat="43.8964685" lon="12.2661025"><ele>496.16666666666663</ele><time>2026-04-26T14:21:53.023Z</time></trkpt><trkpt lat="43.8964166" lon="12.2660189"><ele>497.0</ele><time>2026-04-26T14:21:54.025Z</time></trkpt><trkpt lat="43.8963414" lon="12.2659525"><ele>497.0</ele><time>2026-04-26T14:21:55.024Z</time></trkpt><trkpt lat="43.8962507" lon="12.2658871"><ele>497.00000000000006</ele><time>2026-04-26T14:21:56.029Z</time></trkpt><trkpt lat="43.8961622" lon="12.2658077"><ele>497.00000000000006</ele><time>2026-04-26T14:21:57.026Z</time></trkpt><trkpt lat="43.8960774" lon="12.2657247"><ele>497.0</ele><time>2026-04-26T14:21:58.023Z</time></trkpt><trkpt lat="43.89599" lon="12.2656363"><ele>497.0</ele><time>2026-04-26T14:21:59.023Z</time></trkpt><trkpt lat="43.8958996" lon="12.2655527"><ele>492.66666666666663</ele><time>2026-04-26T14:22:00.023Z</time></trkpt><trkpt lat="43.8958061" lon="12.2654703"><ele>488.3333333333333</ele><time>2026-04-26T14:22:01.024Z</time></trkpt><trkpt lat="43.8957203" lon="12.2654099"><ele>484.0</ele><time>2026-04-26T14:22:02.023Z</time></trkpt><trkpt lat="43.8956412" lon="12.2653666"><ele>479.66666666666663</ele><time>2026-04-26T14:22:03.024Z</time></trkpt><trkpt lat="43.8955832" lon="12.2653256"><ele>475.3333333333333</ele><time>2026-04-26T14:22:04.028Z</time></trkpt><trkpt lat="43.8955287" lon="12.2652622"><ele>471.0</ele><time>2026-04-26T14:22:06.022Z</time></trkpt><trkpt lat="43.895453" lon="12.2653092"><ele>471.0</ele><time>2026-04-26T14:22:16.022Z</time></trkpt><trkpt lat="43.8953378" lon="12.2652351"><ele>471.0</ele><time>2026-04-26T14:22:18.03Z</time></trkpt><trkpt lat="43.8952725" lon="12.2651548"><ele>471.0</ele><time>2026-04-26T14:22:19.023Z</time></trkpt><trkpt lat="43.8952209" lon="12.2650661"><ele>471.0</ele><time>2026-04-26T14:22:20.023Z</time></trkpt><trkpt lat="43.8951922" lon="12.2649619"><ele>471.0</ele><time>2026-04-26T14:22:21.024Z</time></trkpt><trkpt lat="43.8951844" lon="12.2648484"><ele>471.0</ele><time>2026-04-26T14:22:22.023Z</time></trkpt><trkpt lat="43.8951821" lon="12.2647308"><ele>471.0</ele><time>2026-04-26T14:22:23.024Z</time></trkpt><trkpt lat="43.8951718" lon="12.2646191"><ele>471.0</ele><time>2026-04-26T14:22:24.023Z</time></trkpt><trkpt lat="43.8951475" lon="12.2645185"><ele>471.0</ele><time>2026-04-26T14:22:25.027Z</time></trkpt><trkpt lat="43.895109" lon="12.2644289"><ele>471.0</ele><time>2026-04-26T14:22:26.023Z</time></trkpt><trkpt lat="43.8950538" lon="12.2643446"><ele>471.0</ele><time>2026-04-26T14:22:27.023Z</time></trkpt><trkpt lat="43.8949889" lon="12.2642692"><ele>469.1666666666667</ele><time>2026-04-26T14:22:28.024Z</time></trkpt><trkpt lat="43.8949273" lon="12.2642143"><ele>467.33333333333337</ele><time>2026-04-26T14:22:29.023Z</time></trkpt><trkpt lat="43.8948606" lon="12.2641897"><ele>465.5</ele><time>2026-04-26T14:22:30.027Z</time></trkpt><trkpt lat="43.8947512" lon="12.2642257"><ele>463.6666666666667</ele><time>2026-04-26T14:22:32.024Z</time></trkpt><trkpt lat="43.8947064" lon="12.2642918"><ele>461.83333333333337</ele><time>2026-04-26T14:22:33.024Z</time></trkpt><trkpt lat="43.8946735" lon="12.2643869"><ele>460.0</ele><time>2026-04-26T14:22:34.023Z</time></trkpt><trkpt lat="43.8946426" lon="12.2644898"><ele>460.0</ele><time>2026-04-26T14:22:35.025Z</time></trkpt><trkpt lat="43.8946054" lon="12.2645975"><ele>460.0</ele><time>2026-04-26T14:22:36.026Z</time></trkpt><trkpt lat="43.8945573" lon="12.2647103"><ele>460.0</ele><time>2026-04-26T14:22:37.023Z</time></trkpt><trkpt lat="43.8945004" lon="12.2648114"><ele>460.0</ele><time>2026-04-26T14:22:38.023Z</time></trkpt><trkpt lat="43.8944341" lon="12.2649001"><ele>460.0</ele><time>2026-04-26T14:22:39.022Z</time></trkpt><trkpt lat="43.8943658" lon="12.264975"><ele>459.4</ele><time>2026-04-26T14:22:40.025Z</time></trkpt><trkpt lat="43.8942907" lon="12.2650346"><ele>458.8</ele><time>2026-04-26T14:22:41.023Z</time></trkpt><trkpt lat="43.8942089" lon="12.2650805"><ele>458.20000000000005</ele><time>2026-04-26T14:22:42.024Z</time></trkpt><trkpt lat="43.8941156" lon="12.2651181"><ele>457.6</ele><time>2026-04-26T14:22:43.028Z</time></trkpt><trkpt lat="43.8940047" lon="12.2651431"><ele>457.0</ele><time>2026-04-26T14:22:44.024Z</time></trkpt><trkpt lat="43.8938739" lon="12.2651553"><ele>455.6666666666667</ele><time>2026-04-26T14:22:45.025Z</time></trkpt><trkpt lat="43.893726" lon="12.2651669"><ele>454.33333333333337</ele><time>2026-04-26T14:22:46.024Z</time></trkpt><trkpt lat="43.8935615" lon="12.2651815"><ele>453.0</ele><time>2026-04-26T14:22:47.022Z</time></trkpt><trkpt lat="43.893402" lon="12.2652005"><ele>454.59999999999997</ele><time>2026-04-26T14:22:48.023Z</time></trkpt><trkpt lat="43.8932562" lon="12.2652166"><ele>456.19999999999993</ele><time>2026-04-26T14:22:49.023Z</time></trkpt><trkpt lat="43.8931333" lon="12.2652423"><ele>457.8</ele><time>2026-04-26T14:22:50.027Z</time></trkpt><trkpt lat="43.8930381" lon="12.2652723"><ele>459.4</ele><time>2026-04-26T14:22:51.024Z</time></trkpt><trkpt lat="43.8929657" lon="12.2652993"><ele>461.0</ele><time>2026-04-26T14:22:52.025Z</time></trkpt><trkpt lat="43.8928843" lon="12.265327"><ele>461.0</ele><time>2026-04-26T14:22:54.024Z</time></trkpt><trkpt lat="43.8927983" lon="12.2653117"><ele>461.0</ele><time>2026-04-26T14:23:04.024Z</time></trkpt><trkpt lat="43.89267" lon="12.2652383"><ele>461.0</ele><time>2026-04-26T14:23:06.025Z</time></trkpt><trkpt lat="43.8925733" lon="12.2651767"><ele>461.0</ele><time>2026-04-26T14:23:07.024Z</time></trkpt><trkpt lat="43.8924683" lon="12.2651"><ele>462.0</ele><time>2026-04-26T14:23:08.023Z</time></trkpt><trkpt lat="43.89236" lon="12.2649983"><ele>463.0</ele><time>2026-04-26T14:23:09.023Z</time></trkpt><trkpt lat="43.89227" lon="12.2648933"><ele>464.0</ele><time>2026-04-26T14:23:10.023Z</time></trkpt><trkpt lat="43.8921733" lon="12.26478"><ele>465.0</ele><time>2026-04-26T14:23:11.023Z</time></trkpt><trkpt lat="43.8920933" lon="12.264655"><ele>465.8333333333333</ele><time>2026-04-26T14:23:12.022Z</time></trkpt><trkpt lat="43.8920267" lon="12.264535"><ele>466.66666666666663</ele><time>2026-04-26T14:23:13.031Z</time></trkpt><trkpt lat="43.8919817" lon="12.2644267"><ele>467.5</ele><time>2026-04-26T14:23:14.024Z</time></trkpt><trkpt lat="43.8919583" lon="12.2643233"><ele>468.3333333333333</ele><time>2026-04-26T14:23:15.024Z</time></trkpt><trkpt lat="43.8919533" lon="12.2642183"><ele>469.16666666666663</ele><time>2026-04-26T14:23:16.025Z</time></trkpt><trkpt lat="43.89197" lon="12.2641067"><ele>470.0</ele><time>2026-04-26T14:23:17.023Z</time></trkpt><trkpt lat="43.8920117" lon="12.2639917"><ele>472.25</ele><time>2026-04-26T14:23:18.023Z</time></trkpt><trkpt lat="43.8920767" lon="12.2638667"><ele>474.5</ele><time>2026-04-26T14:23:19.022Z</time></trkpt><trkpt lat="43.8921517" lon="12.2637183"><ele>476.75</ele><time>2026-04-26T14:23:20.024Z</time></trkpt><trkpt lat="43.892235" lon="12.2635567"><ele>479.0</ele><time>2026-04-26T14:23:21.022Z</time></trkpt><trkpt lat="43.89232" lon="12.2633783"><ele>479.0</ele><time>2026-04-26T14:23:22.022Z</time></trkpt><trkpt lat="43.892405" lon="12.2632067"><ele>479.0</ele><time>2026-04-26T14:23:23.022Z</time></trkpt><trkpt lat="43.8924933" lon="12.2630467"><ele>479.0</ele><time>2026-04-26T14:23:24.023Z</time></trkpt><trkpt lat="43.8925867" lon="12.2628917"><ele>479.0</ele><time>2026-04-26T14:23:25.029Z</time></trkpt><trkpt lat="43.892685" lon="12.26274"><ele>480.75</ele><time>2026-04-26T14:23:26.023Z</time></trkpt><trkpt lat="43.8927783" lon="12.2625883"><ele>482.5</ele><time>2026-04-26T14:23:27.024Z</time></trkpt><trkpt lat="43.892865" lon="12.2624317"><ele>484.25</ele><time>2026-04-26T14:23:28.025Z</time></trkpt><trkpt lat="43.8929483" lon="12.2622633"><ele>486.0</ele><time>2026-04-26T14:23:29.024Z</time></trkpt><trkpt lat="43.8930367" lon="12.2620933"><ele>491.0</ele><time>2026-04-26T14:23:30.023Z</time></trkpt><trkpt lat="43.893135" lon="12.2619283"><ele>496.0</ele><time>2026-04-26T14:23:31.023Z</time></trkpt><trkpt lat="43.8932417" lon="12.26178"><ele>501.0</ele><time>2026-04-26T14:23:32.024Z</time></trkpt><trkpt lat="43.8933567" lon="12.2616483"><ele>501.0</ele><time>2026-04-26T14:23:33.023Z</time></trkpt><trkpt lat="43.8934667" lon="12.2615217"><ele>501.0</ele><time>2026-04-26T14:23:34.024Z</time></trkpt><trkpt lat="43.8935667" lon="12.2613967"><ele>501.0</ele><time>2026-04-26T14:23:35.022Z</time></trkpt><trkpt lat="43.8936583" lon="12.2612783"><ele>501.0</ele><time>2026-04-26T14:23:36.025Z</time></trkpt><trkpt lat="43.89373" lon="12.2611783"><ele>501.0</ele><time>2026-04-26T14:23:37.026Z</time></trkpt><trkpt lat="43.8937817" lon="12.2610867"><ele>501.0</ele><time>2026-04-26T14:23:38.026Z</time></trkpt><trkpt lat="43.8938083" lon="12.2610017"><ele>501.0</ele><time>2026-04-26T14:23:39.025Z</time></trkpt><trkpt lat="43.8938067" lon="12.2608367"><ele>501.0</ele><time>2026-04-26T14:23:41.024Z</time></trkpt><trkpt lat="43.8936983" lon="12.2607267"><ele>501.0</ele><time>2026-04-26T14:23:43.033Z</time></trkpt><trkpt lat="43.8936267" lon="12.2606783"><ele>501.0</ele><time>2026-04-26T14:23:44.023Z</time></trkpt><trkpt lat="43.893525" lon="12.260625"><ele>501.0</ele><time>2026-04-26T14:23:45.025Z</time></trkpt><trkpt lat="43.89344" lon="12.260565"><ele>501.0</ele><time>2026-04-26T14:23:46.024Z</time></trkpt><trkpt lat="43.8933667" lon="12.2605033"><ele>501.0</ele><time>2026-04-26T14:23:47.023Z</time></trkpt><trkpt lat="43.8933067" lon="12.2604467"><ele>501.0</ele><time>2026-04-26T14:23:48.024Z</time></trkpt><trkpt lat="43.893265" lon="12.2603233"><ele>504.0</ele><time>2026-04-26T14:23:50.026Z</time></trkpt><trkpt lat="43.89328" lon="12.2602333"><ele>507.0</ele><time>2026-04-26T14:23:51.026Z</time></trkpt><trkpt lat="43.8933" lon="12.2601467"><ele>510.0</ele><time>2026-04-26T14:23:53.024Z</time></trkpt><trkpt lat="43.8933867" lon="12.2600317"><ele>513.0</ele><time>2026-04-26T14:26:05.024Z</time></trkpt><trkpt lat="43.8934" lon="12.2598933"><ele>516.0</ele><time>2026-04-26T14:26:52.025Z</time></trkpt><trkpt lat="43.893435" lon="12.2597617"><ele>516.0</ele><time>2026-04-26T14:26:55.028Z</time></trkpt><trkpt lat="43.8934867" lon="12.2596217"><ele>516.0</ele><time>2026-04-26T14:26:57.024Z</time></trkpt><trkpt lat="43.8935083" lon="12.259535"><ele>516.0</ele><time>2026-04-26T14:26:58.024Z</time></trkpt><trkpt lat="43.893535" lon="12.2594367"><ele>516.0</ele><time>2026-04-26T14:26:59.022Z</time></trkpt><trkpt lat="43.893555" lon="12.259345"><ele>516.0</ele><time>2026-04-26T14:27:00.028Z</time></trkpt><trkpt lat="43.8935767" lon="12.2592567"><ele>516.0</ele><time>2026-04-26T14:27:01.024Z</time></trkpt><trkpt lat="43.893595" lon="12.2591683"><ele>516.0</ele><time>2026-04-26T14:27:02.025Z</time></trkpt><trkpt lat="43.8936083" lon="12.25902"><ele>516.0</ele><time>2026-04-26T14:27:04.023Z</time></trkpt><trkpt lat="43.8935954" lon="12.2589278"><ele>516.0</ele><time>2026-04-26T14:27:07.025Z</time></trkpt><trkpt lat="43.8935205" lon="12.258868"><ele>516.0</ele><time>2026-04-26T14:27:23.058Z</time></trkpt><trkpt lat="43.893444" lon="12.2588205"><ele>516.0</ele><time>2026-04-26T14:27:25.065Z</time></trkpt><trkpt lat="43.8933828" lon="12.2587841"><ele>516.0</ele><time>2026-04-26T14:27:28.074Z</time></trkpt><trkpt lat="43.8932883" lon="12.25873"><ele>519.75</ele><time>2026-04-26T14:28:32.023Z</time></trkpt><trkpt lat="43.8931967" lon="12.258665"><ele>523.5</ele><time>2026-04-26T14:28:33.028Z</time></trkpt><trkpt lat="43.8930933" lon="12.258595"><ele>527.25</ele><time>2026-04-26T14:28:34.023Z</time></trkpt><trkpt lat="43.8929817" lon="12.2585167"><ele>531.0</ele><time>2026-04-26T14:28:35.026Z</time></trkpt><trkpt lat="43.892865" lon="12.2584367"><ele>531.0</ele><time>2026-04-26T14:28:36.026Z</time></trkpt><trkpt lat="43.8927533" lon="12.2583533"><ele>531.0</ele><time>2026-04-26T14:28:37.026Z</time></trkpt><trkpt lat="43.8926417" lon="12.258265"><ele>531.0</ele><time>2026-04-26T14:28:38.023Z</time></trkpt><trkpt lat="43.892539" lon="12.258179"><ele>531.0</ele><time>2026-04-26T14:28:39.024Z</time></trkpt><trkpt lat="43.8924491" lon="12.2581067"><ele>533.3333333333334</ele><time>2026-04-26T14:28:40.023Z</time></trkpt><trkpt lat="43.8923674" lon="12.258053"><ele>535.6666666666666</ele><time>2026-04-26T14:28:41.024Z</time></trkpt><trkpt lat="43.8922814" lon="12.2580228"><ele>538.0</ele><time>2026-04-26T14:28:42.03Z</time></trkpt><trkpt lat="43.8921914" lon="12.2580128"><ele>540.3333333333333</ele><time>2026-04-26T14:28:43.023Z</time></trkpt><trkpt lat="43.8921072" lon="12.2580406"><ele>542.6666666666666</ele><time>2026-04-26T14:28:44.026Z</time></trkpt><trkpt lat="43.8920394" lon="12.2580892"><ele>545.0</ele><time>2026-04-26T14:28:45.028Z</time></trkpt><trkpt lat="43.8919332" lon="12.2580994"><ele>545.0</ele><time>2026-04-26T14:28:47.023Z</time></trkpt><trkpt lat="43.8918583" lon="12.2579651"><ele>545.0</ele><time>2026-04-26T14:28:49.025Z</time></trkpt><trkpt lat="43.8918226" lon="12.2578556"><ele>545.0</ele><time>2026-04-26T14:28:50.025Z</time></trkpt><trkpt lat="43.8917926" lon="12.2577258"><ele>545.0</ele><time>2026-04-26T14:28:51.024Z</time></trkpt><trkpt lat="43.8917638" lon="12.2576097"><ele>545.0</ele><time>2026-04-26T14:28:52.024Z</time></trkpt><trkpt lat="43.891723" lon="12.2575123"><ele>547.3333333333333</ele><time>2026-04-26T14:28:53.023Z</time></trkpt><trkpt lat="43.8916674" lon="12.2574576"><ele>549.6666666666666</ele><time>2026-04-26T14:28:54.023Z</time></trkpt><trkpt lat="43.8916028" lon="12.2574326"><ele>552.0</ele><time>2026-04-26T14:28:55.028Z</time></trkpt><trkpt lat="43.8915321" lon="12.2574341"><ele>554.3333333333334</ele><time>2026-04-26T14:28:56.027Z</time></trkpt><trkpt lat="43.8914443" lon="12.2574759"><ele>556.6666666666667</ele><time>2026-04-26T14:28:57.023Z</time></trkpt><trkpt lat="43.8913179" lon="12.2575845"><ele>559.0</ele><time>2026-04-26T14:28:58.024Z</time></trkpt><trkpt lat="43.8911978" lon="12.2576923"><ele>559.0</ele><time>2026-04-26T14:28:59.024Z</time></trkpt><trkpt lat="43.8910939" lon="12.2577838"><ele>559.0</ele><time>2026-04-26T14:29:00.024Z</time></trkpt><trkpt lat="43.8909922" lon="12.2578507"><ele>559.0</ele><time>2026-04-26T14:29:01.024Z</time></trkpt><trkpt lat="43.8908963" lon="12.2578833"><ele>559.0</ele><time>2026-04-26T14:29:02.025Z</time></trkpt><trkpt lat="43.8907891" lon="12.2578909"><ele>559.0</ele><time>2026-04-26T14:29:03.022Z</time></trkpt><trkpt lat="43.890662" lon="12.257889"><ele>562.75</ele><time>2026-04-26T14:29:04.024Z</time></trkpt><trkpt lat="43.8905295" lon="12.257884"><ele>566.5</ele><time>2026-04-26T14:29:05.023Z</time></trkpt><trkpt lat="43.8903832" lon="12.2578841"><ele>570.25</ele><time>2026-04-26T14:29:06.03Z</time></trkpt><trkpt lat="43.8902253" lon="12.2578945"><ele>574.0</ele><time>2026-04-26T14:29:07.024Z</time></trkpt><trkpt lat="43.8900673" lon="12.2579281"><ele>576.6666666666667</ele><time>2026-04-26T14:29:08.023Z</time></trkpt><trkpt lat="43.8899122" lon="12.2579704"><ele>579.3333333333334</ele><time>2026-04-26T14:29:09.024Z</time></trkpt><trkpt lat="43.8897579" lon="12.2580164"><ele>582.0</ele><time>2026-04-26T14:29:10.026Z</time></trkpt><trkpt lat="43.8896193" lon="12.2580585"><ele>582.0</ele><time>2026-04-26T14:29:11.025Z</time></trkpt><trkpt lat="43.8895063" lon="12.2580831"><ele>582.0</ele><time>2026-04-26T14:29:12.023Z</time></trkpt><trkpt lat="43.8894091" lon="12.2580943"><ele>582.0</ele><time>2026-04-26T14:29:13.029Z</time></trkpt><trkpt lat="43.8893328" lon="12.2580837"><ele>582.0</ele><time>2026-04-26T14:29:14.025Z</time></trkpt><trkpt lat="43.8892671" lon="12.2580556"><ele>582.0</ele><time>2026-04-26T14:29:15.024Z</time></trkpt><trkpt lat="43.8892092" lon="12.2580124"><ele>582.0</ele><time>2026-04-26T14:29:16.025Z</time></trkpt><trkpt lat="43.8891483" lon="12.2578988"><ele>582.0</ele><time>2026-04-26T14:29:18.025Z</time></trkpt><trkpt lat="43.8891449" lon="12.2577872"><ele>582.0</ele><time>2026-04-26T14:29:20.023Z</time></trkpt><trkpt lat="43.8891767" lon="12.2576256"><ele>582.0</ele><time>2026-04-26T14:29:22.023Z</time></trkpt><trkpt lat="43.8892036" lon="12.2575198"><ele>582.0</ele><time>2026-04-26T14:29:23.024Z</time></trkpt><trkpt lat="43.8892409" lon="12.2574071"><ele>582.0</ele><time>2026-04-26T14:29:24.024Z</time></trkpt><trkpt lat="43.8892959" lon="12.257297"><ele>583.8333333333334</ele><time>2026-04-26T14:29:25.023Z</time></trkpt><trkpt lat="43.8893502" lon="12.2572055"><ele>585.6666666666666</ele><time>2026-04-26T14:29:26.024Z</time></trkpt><trkpt lat="43.8894038" lon="12.2571273"><ele>587.5</ele><time>2026-04-26T14:29:27.026Z</time></trkpt><trkpt lat="43.8894543" lon="12.2570574"><ele>589.3333333333333</ele><time>2026-04-26T14:29:28.029Z</time></trkpt><trkpt lat="43.8895046" lon="12.2569979"><ele>591.1666666666666</ele><time>2026-04-26T14:29:29.026Z</time></trkpt><trkpt lat="43.8895856" lon="12.2569262"><ele>593.0</ele><time>2026-04-26T14:29:31.024Z</time></trkpt><trkpt lat="43.8896594" lon="12.2568755"><ele>593.0</ele><time>2026-04-26T14:29:34.023Z</time></trkpt><trkpt lat="43.8897348" lon="12.256807"><ele>593.0</ele><time>2026-04-26T14:29:37.024Z</time></trkpt><trkpt lat="43.889796" lon="12.2567346"><ele>593.0</ele><time>2026-04-26T14:29:40.089Z</time></trkpt><trkpt lat="43.8898701" lon="12.2566727"><ele>593.0</ele><time>2026-04-26T14:29:42.025Z</time></trkpt><trkpt lat="43.8899393" lon="12.256612"><ele>593.0</ele><time>2026-04-26T14:29:44.024Z</time></trkpt><trkpt lat="43.8900149" lon="12.2565457"><ele>593.0</ele><time>2026-04-26T14:29:46.024Z</time></trkpt><trkpt lat="43.8901025" lon="12.2564626"><ele>593.0</ele><time>2026-04-26T14:29:48.028Z</time></trkpt><trkpt lat="43.8902129" lon="12.2563719"><ele>593.0</ele><time>2026-04-26T14:29:50.025Z</time></trkpt><trkpt lat="43.8902845" lon="12.2563168"><ele>593.0</ele><time>2026-04-26T14:29:51.025Z</time></trkpt><trkpt lat="43.8903684" lon="12.2562527"><ele>593.0</ele><time>2026-04-26T14:29:52.023Z</time></trkpt><trkpt lat="43.8904641" lon="12.2561756"><ele>593.0</ele><time>2026-04-26T14:29:53.023Z</time></trkpt><trkpt lat="43.8905626" lon="12.2560794"><ele>593.0</ele><time>2026-04-26T14:29:54.024Z</time></trkpt><trkpt lat="43.8906485" lon="12.2559728"><ele>593.0</ele><time>2026-04-26T14:29:55.024Z</time></trkpt><trkpt lat="43.8907259" lon="12.2558476"><ele>593.0</ele><time>2026-04-26T14:29:56.024Z</time></trkpt><trkpt lat="43.8908131" lon="12.2557233"><ele>593.0</ele><time>2026-04-26T14:29:57.028Z</time></trkpt><trkpt lat="43.8909029" lon="12.2556044"><ele>590.1999999999999</ele><time>2026-04-26T14:29:58.026Z</time></trkpt><trkpt lat="43.8909795" lon="12.2554828"><ele>587.4</ele><time>2026-04-26T14:29:59.024Z</time></trkpt><trkpt lat="43.8910353" lon="12.2553691"><ele>584.5999999999999</ele><time>2026-04-26T14:30:00.025Z</time></trkpt><trkpt lat="43.8910819" lon="12.2552476"><ele>581.8</ele><time>2026-04-26T14:30:01.028Z</time></trkpt><trkpt lat="43.8911227" lon="12.2551297"><ele>579.0</ele><time>2026-04-26T14:30:02.027Z</time></trkpt><trkpt lat="43.8911667" lon="12.2550173"><ele>579.0</ele><time>2026-04-26T14:30:03.022Z</time></trkpt><trkpt lat="43.8912068" lon="12.2549149"><ele>579.0</ele><time>2026-04-26T14:30:04.023Z</time></trkpt><trkpt lat="43.8912411" lon="12.2548097"><ele>579.0</ele><time>2026-04-26T14:30:05.025Z</time></trkpt><trkpt lat="43.8912779" lon="12.2546958"><ele>579.0</ele><time>2026-04-26T14:30:06.025Z</time></trkpt><trkpt lat="43.8913087" lon="12.2545702"><ele>579.0</ele><time>2026-04-26T14:30:07.022Z</time></trkpt><trkpt lat="43.8913297" lon="12.2544456"><ele>579.0</ele><time>2026-04-26T14:30:08.025Z</time></trkpt><trkpt lat="43.8913377" lon="12.2543285"><ele>580.2</ele><time>2026-04-26T14:30:09.026Z</time></trkpt><trkpt lat="43.8913353" lon="12.254217"><ele>581.4</ele><time>2026-04-26T14:30:10.026Z</time></trkpt><trkpt lat="43.8913193" lon="12.2541058"><ele>582.6</ele><time>2026-04-26T14:30:11.025Z</time></trkpt><trkpt lat="43.891291" lon="12.2539849"><ele>583.8</ele><time>2026-04-26T14:30:12.022Z</time></trkpt><trkpt lat="43.8912605" lon="12.2538462"><ele>585.0</ele><time>2026-04-26T14:30:13.023Z</time></trkpt><trkpt lat="43.8912373" lon="12.2536996"><ele>586.8</ele><time>2026-04-26T14:30:14.023Z</time></trkpt><trkpt lat="43.8912302" lon="12.2535573"><ele>588.6</ele><time>2026-04-26T14:30:15.028Z</time></trkpt><trkpt lat="43.8912465" lon="12.253432"><ele>590.4</ele><time>2026-04-26T14:30:16.024Z</time></trkpt><trkpt lat="43.8912759" lon="12.2533193"><ele>592.2</ele><time>2026-04-26T14:30:17.023Z</time></trkpt><trkpt lat="43.8913273" lon="12.2532171"><ele>594.0</ele><time>2026-04-26T14:30:18.024Z</time></trkpt><trkpt lat="43.8913895" lon="12.2530926"><ele>595.6</ele><time>2026-04-26T14:30:19.026Z</time></trkpt><trkpt lat="43.8914504" lon="12.2529512"><ele>597.2</ele><time>2026-04-26T14:30:20.024Z</time></trkpt><trkpt lat="43.8915022" lon="12.2528087"><ele>598.8000000000001</ele><time>2026-04-26T14:30:21.023Z</time></trkpt><trkpt lat="43.8915529" lon="12.2526867"><ele>600.4</ele><time>2026-04-26T14:30:22.023Z</time></trkpt><trkpt lat="43.8916212" lon="12.2525954"><ele>602.0</ele><time>2026-04-26T14:30:23.024Z</time></trkpt><trkpt lat="43.8917032" lon="12.2525231"><ele>602.8000000000001</ele><time>2026-04-26T14:30:24.024Z</time></trkpt><trkpt lat="43.8917937" lon="12.2524597"><ele>603.6</ele><time>2026-04-26T14:30:25.024Z</time></trkpt><trkpt lat="43.8918843" lon="12.2523928"><ele>604.4000000000001</ele><time>2026-04-26T14:30:26.027Z</time></trkpt><trkpt lat="43.8919691" lon="12.2523164"><ele>605.2</ele><time>2026-04-26T14:30:27.024Z</time></trkpt><trkpt lat="43.8920365" lon="12.2522355"><ele>606.0</ele><time>2026-04-26T14:30:28.025Z</time></trkpt><trkpt lat="43.8920857" lon="12.2521548"><ele>606.0</ele><time>2026-04-26T14:30:29.023Z</time></trkpt><trkpt lat="43.8921166" lon="12.2520683"><ele>606.0</ele><time>2026-04-26T14:30:30.024Z</time></trkpt><trkpt lat="43.8921306" lon="12.2519765"><ele>606.0</ele><time>2026-04-26T14:30:31.024Z</time></trkpt><trkpt lat="43.8921276" lon="12.2518716"><ele>606.0</ele><time>2026-04-26T14:30:32.023Z</time></trkpt><trkpt lat="43.8921278" lon="12.2517621"><ele>606.0</ele><time>2026-04-26T14:30:33.024Z</time></trkpt><trkpt lat="43.8921358" lon="12.2516537"><ele>606.0</ele><time>2026-04-26T14:30:34.023Z</time></trkpt><trkpt lat="43.8921555" lon="12.2515496"><ele>606.0</ele><time>2026-04-26T14:30:35.026Z</time></trkpt><trkpt lat="43.8921926" lon="12.2514453"><ele>606.0</ele><time>2026-04-26T14:30:36.025Z</time></trkpt><trkpt lat="43.8922733" lon="12.2513363"><ele>606.0</ele><time>2026-04-26T14:30:37.024Z</time></trkpt><trkpt lat="43.8923667" lon="12.2512114"><ele>606.0</ele><time>2026-04-26T14:30:38.025Z</time></trkpt><trkpt lat="43.8924734" lon="12.2510739"><ele>606.0</ele><time>2026-04-26T14:30:39.025Z</time></trkpt><trkpt lat="43.8925905" lon="12.2509413"><ele>606.0</ele><time>2026-04-26T14:30:40.024Z</time></trkpt><trkpt lat="43.8927044" lon="12.2508239"><ele>606.0</ele><time>2026-04-26T14:30:41.025Z</time></trkpt><trkpt lat="43.8928178" lon="12.2507315"><ele>606.0</ele><time>2026-04-26T14:30:42.029Z</time></trkpt><trkpt lat="43.8929209" lon="12.2506502"><ele>606.0</ele><time>2026-04-26T14:30:43.024Z</time></trkpt><trkpt lat="43.8930131" lon="12.2505701"><ele>607.2</ele><time>2026-04-26T14:30:44.022Z</time></trkpt><trkpt lat="43.8931032" lon="12.2504964"><ele>608.4000000000001</ele><time>2026-04-26T14:30:45.027Z</time></trkpt><trkpt lat="43.8931957" lon="12.2504162"><ele>609.6</ele><time>2026-04-26T14:30:46.025Z</time></trkpt><trkpt lat="43.8932899" lon="12.2503349"><ele>610.8000000000001</ele><time>2026-04-26T14:30:47.024Z</time></trkpt><trkpt lat="43.893382" lon="12.2502593"><ele>612.0</ele><time>2026-04-26T14:30:48.024Z</time></trkpt><trkpt lat="43.8934728" lon="12.2501884"><ele>612.0</ele><time>2026-04-26T14:30:49.027Z</time></trkpt><trkpt lat="43.8935571" lon="12.2501087"><ele>612.0</ele><time>2026-04-26T14:30:50.025Z</time></trkpt><trkpt lat="43.8936307" lon="12.2500093"><ele>612.0</ele><time>2026-04-26T14:30:51.027Z</time></trkpt><trkpt lat="43.8936973" lon="12.2498821"><ele>612.0</ele><time>2026-04-26T14:30:52.025Z</time></trkpt><trkpt lat="43.8937625" lon="12.2497298"><ele>612.0</ele><time>2026-04-26T14:30:53.025Z</time></trkpt><trkpt lat="43.8938214" lon="12.2495655"><ele>614.25</ele><time>2026-04-26T14:30:54.023Z</time></trkpt><trkpt lat="43.893874" lon="12.2493941"><ele>616.5</ele><time>2026-04-26T14:30:55.024Z</time></trkpt><trkpt lat="43.8939279" lon="12.2492346"><ele>618.75</ele><time>2026-04-26T14:30:56.023Z</time></trkpt><trkpt lat="43.8939853" lon="12.2491014"><ele>621.0</ele><time>2026-04-26T14:30:57.024Z</time></trkpt><trkpt lat="43.8940531" lon="12.2489984"><ele>623.3333333333334</ele><time>2026-04-26T14:30:58.025Z</time></trkpt><trkpt lat="43.8941303" lon="12.2489222"><ele>625.6666666666666</ele><time>2026-04-26T14:30:59.025Z</time></trkpt><trkpt lat="43.8942081" lon="12.248866"><ele>628.0</ele><time>2026-04-26T14:31:00.025Z</time></trkpt><trkpt lat="43.8942814" lon="12.2488244"><ele>630.3333333333333</ele><time>2026-04-26T14:31:01.025Z</time></trkpt><trkpt lat="43.8943477" lon="12.2487837"><ele>632.6666666666666</ele><time>2026-04-26T14:31:02.025Z</time></trkpt><trkpt lat="43.8944069" lon="12.2487223"><ele>635.0</ele><time>2026-04-26T14:31:03.027Z</time></trkpt><trkpt lat="43.8944613" lon="12.2486337"><ele>635.0</ele><time>2026-04-26T14:31:04.025Z</time></trkpt><trkpt lat="43.8945114" lon="12.2485244"><ele>635.0</ele><time>2026-04-26T14:31:05.023Z</time></trkpt><trkpt lat="43.8945585" lon="12.2483969"><ele>635.0</ele><time>2026-04-26T14:31:06.024Z</time></trkpt><trkpt lat="43.8946113" lon="12.2482631"><ele>635.0</ele><time>2026-04-26T14:31:07.025Z</time></trkpt><trkpt lat="43.8946687" lon="12.248144"><ele>635.0</ele><time>2026-04-26T14:31:08.029Z</time></trkpt><trkpt lat="43.8947411" lon="12.2480461"><ele>638.75</ele><time>2026-04-26T14:31:09.025Z</time></trkpt><trkpt lat="43.8948303" lon="12.2479626"><ele>642.5</ele><time>2026-04-26T14:31:10.025Z</time></trkpt><trkpt lat="43.8949359" lon="12.2478954"><ele>646.25</ele><time>2026-04-26T14:31:11.025Z</time></trkpt><trkpt lat="43.8950487" lon="12.2478419"><ele>650.0</ele><time>2026-04-26T14:31:12.031Z</time></trkpt><trkpt lat="43.8951668" lon="12.2478165"><ele>651.0</ele><time>2026-04-26T14:31:13.023Z</time></trkpt><trkpt lat="43.8952864" lon="12.2478114"><ele>652.0</ele><time>2026-04-26T14:31:14.022Z</time></trkpt><trkpt lat="43.8954107" lon="12.2478235"><ele>653.0</ele><time>2026-04-26T14:31:15.026Z</time></trkpt><trkpt lat="43.8955297" lon="12.2478455"><ele>654.0</ele><time>2026-04-26T14:31:16.025Z</time></trkpt><trkpt lat="43.8956401" lon="12.247871"><ele>654.0</ele><time>2026-04-26T14:31:17.025Z</time></trkpt><trkpt lat="43.8957459" lon="12.2478999"><ele>654.0</ele><time>2026-04-26T14:31:18.025Z</time></trkpt><trkpt lat="43.895852" lon="12.2479264"><ele>654.0</ele><time>2026-04-26T14:31:19.027Z</time></trkpt><trkpt lat="43.8959558" lon="12.247944"><ele>654.0</ele><time>2026-04-26T14:31:20.029Z</time></trkpt><trkpt lat="43.8960576" lon="12.2479521"><ele>654.0</ele><time>2026-04-26T14:31:21.026Z</time></trkpt><trkpt lat="43.8961563" lon="12.2479447"><ele>654.4000000000001</ele><time>2026-04-26T14:31:22.024Z</time></trkpt><trkpt lat="43.8962501" lon="12.2479179"><ele>654.8</ele><time>2026-04-26T14:31:23.024Z</time></trkpt><trkpt lat="43.89634" lon="12.247875"><ele>655.2</ele><time>2026-04-26T14:31:24.026Z</time></trkpt><trkpt lat="43.8964266" lon="12.2478135"><ele>655.5999999999999</ele><time>2026-04-26T14:31:25.024Z</time></trkpt><trkpt lat="43.8965121" lon="12.2477302"><ele>656.0</ele><time>2026-04-26T14:31:26.028Z</time></trkpt><trkpt lat="43.8965842" lon="12.2476268"><ele>656.0</ele><time>2026-04-26T14:31:27.023Z</time></trkpt><trkpt lat="43.8966375" lon="12.2475014"><ele>656.0</ele><time>2026-04-26T14:31:28.025Z</time></trkpt><trkpt lat="43.896674" lon="12.247367"><ele>656.0</ele><time>2026-04-26T14:31:29.024Z</time></trkpt><trkpt lat="43.8966945" lon="12.2472223"><ele>656.0</ele><time>2026-04-26T14:31:30.028Z</time></trkpt><trkpt lat="43.8967213" lon="12.2470801"><ele>656.0</ele><time>2026-04-26T14:31:31.024Z</time></trkpt><trkpt lat="43.896768" lon="12.2469511"><ele>655.8333333333333</ele><time>2026-04-26T14:31:32.024Z</time></trkpt><trkpt lat="43.8968246" lon="12.2468514"><ele>655.6666666666666</ele><time>2026-04-26T14:31:33.024Z</time></trkpt><trkpt lat="43.8968789" lon="12.2467772"><ele>655.5</ele><time>2026-04-26T14:31:34.023Z</time></trkpt><trkpt lat="43.8969567" lon="12.2466961"><ele>655.3333333333334</ele><time>2026-04-26T14:31:36.024Z</time></trkpt><trkpt lat="43.8970291" lon="12.2466512"><ele>655.1666666666667</ele><time>2026-04-26T14:31:38.024Z</time></trkpt><trkpt lat="43.8970948" lon="12.2466402"><ele>655.0</ele><time>2026-04-26T14:31:39.029Z</time></trkpt><trkpt lat="43.8971808" lon="12.2466542"><ele>655.0</ele><time>2026-04-26T14:31:40.026Z</time></trkpt><trkpt lat="43.8972905" lon="12.2467005"><ele>655.0</ele><time>2026-04-26T14:31:41.025Z</time></trkpt><trkpt lat="43.897423" lon="12.2467635"><ele>655.0</ele><time>2026-04-26T14:31:42.025Z</time></trkpt><trkpt lat="43.8975517" lon="12.2468225"><ele>655.0</ele><time>2026-04-26T14:31:43.025Z</time></trkpt><trkpt lat="43.8976709" lon="12.246874"><ele>655.25</ele><time>2026-04-26T14:31:44.022Z</time></trkpt><trkpt lat="43.8977781" lon="12.2469207"><ele>655.5</ele><time>2026-04-26T14:31:45.028Z</time></trkpt><trkpt lat="43.8978798" lon="12.2469529"><ele>655.75</ele><time>2026-04-26T14:31:46.023Z</time></trkpt><trkpt lat="43.8979923" lon="12.2469604"><ele>656.0</ele><time>2026-04-26T14:31:47.026Z</time></trkpt><trkpt lat="43.8981208" lon="12.2469437"><ele>656.0</ele><time>2026-04-26T14:31:48.025Z</time></trkpt><trkpt lat="43.898261" lon="12.2469088"><ele>656.0</ele><time>2026-04-26T14:31:49.024Z</time></trkpt><trkpt lat="43.8984118" lon="12.2468594"><ele>656.0</ele><time>2026-04-26T14:31:50.03Z</time></trkpt><trkpt lat="43.8985682" lon="12.2467989"><ele>656.3333333333333</ele><time>2026-04-26T14:31:51.026Z</time></trkpt><trkpt lat="43.8987262" lon="12.2467324"><ele>656.6666666666666</ele><time>2026-04-26T14:31:52.028Z</time></trkpt><trkpt lat="43.8988802" lon="12.2466686"><ele>657.0</ele><time>2026-04-26T14:31:53.024Z</time></trkpt><trkpt lat="43.8990338" lon="12.2466037"><ele>657.0</ele><time>2026-04-26T14:31:54.025Z</time></trkpt><trkpt lat="43.8991851" lon="12.2465398"><ele>657.0</ele><time>2026-04-26T14:31:55.025Z</time></trkpt><trkpt lat="43.8993302" lon="12.2464842"><ele>657.0</ele><time>2026-04-26T14:31:56.023Z</time></trkpt><trkpt lat="43.8994769" lon="12.2464465"><ele>655.3333333333334</ele><time>2026-04-26T14:31:57.03Z</time></trkpt><trkpt lat="43.8996307" lon="12.2464275"><ele>653.6666666666667</ele><time>2026-04-26T14:31:58.022Z</time></trkpt><trkpt lat="43.8997984" lon="12.2464392"><ele>652.0</ele><time>2026-04-26T14:31:59.026Z</time></trkpt><trkpt lat="43.8999707" lon="12.2464696"><ele>652.0</ele><time>2026-04-26T14:32:00.025Z</time></trkpt><trkpt lat="43.9001397" lon="12.2464935"><ele>652.0</ele><time>2026-04-26T14:32:01.025Z</time></trkpt><trkpt lat="43.900308" lon="12.2464871"><ele>652.0</ele><time>2026-04-26T14:32:02.026Z</time></trkpt><trkpt lat="43.9004767" lon="12.24644"><ele>652.0</ele><time>2026-04-26T14:32:03.027Z</time></trkpt><trkpt lat="43.9006417" lon="12.24637"><ele>652.0</ele><time>2026-04-26T14:32:04.028Z</time></trkpt><trkpt lat="43.90079" lon="12.2462833"><ele>652.0</ele><time>2026-04-26T14:32:05.024Z</time></trkpt><trkpt lat="43.90093" lon="12.2461917"><ele>654.0</ele><time>2026-04-26T14:32:06.024Z</time></trkpt><trkpt lat="43.9010633" lon="12.2461"><ele>656.0</ele><time>2026-04-26T14:32:07.024Z</time></trkpt><trkpt lat="43.9011983" lon="12.2460117"><ele>658.0</ele><time>2026-04-26T14:32:08.026Z</time></trkpt><trkpt lat="43.901335" lon="12.24593"><ele>660.0</ele><time>2026-04-26T14:32:09.024Z</time></trkpt><trkpt lat="43.9014817" lon="12.2458733"><ele>660.0</ele><time>2026-04-26T14:32:10.024Z</time></trkpt><trkpt lat="43.901635" lon="12.245845"><ele>660.0</ele><time>2026-04-26T14:32:11.028Z</time></trkpt><trkpt lat="43.901795" lon="12.245845"><ele>660.0</ele><time>2026-04-26T14:32:12.023Z</time></trkpt><trkpt lat="43.9019583" lon="12.2458483"><ele>662.6666666666666</ele><time>2026-04-26T14:32:13.024Z</time></trkpt><trkpt lat="43.9021267" lon="12.2458467"><ele>665.3333333333333</ele><time>2026-04-26T14:32:14.023Z</time></trkpt><trkpt lat="43.9022933" lon="12.245845"><ele>668.0</ele><time>2026-04-26T14:32:15.024Z</time></trkpt><trkpt lat="43.902455" lon="12.2458383"><ele>670.0</ele><time>2026-04-26T14:32:16.025Z</time></trkpt><trkpt lat="43.9026167" lon="12.2458067"><ele>672.0</ele><time>2026-04-26T14:32:17.024Z</time></trkpt><trkpt lat="43.9027717" lon="12.2457417"><ele>674.0</ele><time>2026-04-26T14:32:18.025Z</time></trkpt><trkpt lat="43.9029267" lon="12.2456367"><ele>670.6666666666666</ele><time>2026-04-26T14:32:19.025Z</time></trkpt><trkpt lat="43.9030783" lon="12.2455267"><ele>667.3333333333334</ele><time>2026-04-26T14:32:20.024Z</time></trkpt><trkpt lat="43.9032233" lon="12.24543"><ele>664.0</ele><time>2026-04-26T14:32:21.025Z</time></trkpt><trkpt lat="43.9033717" lon="12.2453567"><ele>665.25</ele><time>2026-04-26T14:32:22.024Z</time></trkpt><trkpt lat="43.9035183" lon="12.2453033"><ele>666.5</ele><time>2026-04-26T14:32:23.024Z</time></trkpt><trkpt lat="43.9036633" lon="12.24526"><ele>667.75</ele><time>2026-04-26T14:32:24.025Z</time></trkpt><trkpt lat="43.9038017" lon="12.2452017"><ele>669.0</ele><time>2026-04-26T14:32:25.023Z</time></trkpt><trkpt lat="43.9039383" lon="12.2451283"><ele>669.0</ele><time>2026-04-26T14:32:26.027Z</time></trkpt><trkpt lat="43.9040733" lon="12.2450733"><ele>669.0</ele><time>2026-04-26T14:32:27.023Z</time></trkpt><trkpt lat="43.9042083" lon="12.24505"><ele>669.0</ele><time>2026-04-26T14:32:28.023Z</time></trkpt><trkpt lat="43.904335" lon="12.245045"><ele>669.0</ele><time>2026-04-26T14:32:29.024Z</time></trkpt><trkpt lat="43.90447" lon="12.2450717"><ele>668.3333333333334</ele><time>2026-04-26T14:32:30.025Z</time></trkpt><trkpt lat="43.9046133" lon="12.2451133"><ele>667.6666666666667</ele><time>2026-04-26T14:32:31.029Z</time></trkpt><trkpt lat="43.9047633" lon="12.245155"><ele>667.0</ele><time>2026-04-26T14:32:32.025Z</time></trkpt><trkpt lat="43.904915" lon="12.2451833"><ele>667.0</ele><time>2026-04-26T14:32:33.025Z</time></trkpt><trkpt lat="43.905055" lon="12.2452017"><ele>667.0</ele><time>2026-04-26T14:32:34.023Z</time></trkpt><trkpt lat="43.90519" lon="12.2452067"><ele>667.0</ele><time>2026-04-26T14:32:35.022Z</time></trkpt><trkpt lat="43.9053217" lon="12.2451783"><ele>667.0</ele><time>2026-04-26T14:32:36.023Z</time></trkpt><trkpt lat="43.9054455" lon="12.2451172"><ele>666.6666666666667</ele><time>2026-04-26T14:32:37.026Z</time></trkpt><trkpt lat="43.905571" lon="12.2450199"><ele>666.3333333333334</ele><time>2026-04-26T14:32:38.024Z</time></trkpt><trkpt lat="43.9056975" lon="12.2449028"><ele>666.0</ele><time>2026-04-26T14:32:39.023Z</time></trkpt><trkpt lat="43.9058217" lon="12.2447768"><ele>671.3333333333334</ele><time>2026-04-26T14:32:40.024Z</time></trkpt><trkpt lat="43.9059341" lon="12.2446234"><ele>676.6666666666667</ele><time>2026-04-26T14:32:41.024Z</time></trkpt><trkpt lat="43.9060202" lon="12.2444455"><ele>682.0</ele><time>2026-04-26T14:32:42.024Z</time></trkpt><trkpt lat="43.906077" lon="12.2442597"><ele>682.0</ele><time>2026-04-26T14:32:43.024Z</time></trkpt><trkpt lat="43.9061223" lon="12.244078"><ele>682.0</ele><time>2026-04-26T14:32:44.024Z</time></trkpt><trkpt lat="43.9061745" lon="12.2439114"><ele>682.0</ele><time>2026-04-26T14:32:45.023Z</time></trkpt><trkpt lat="43.9062378" lon="12.2437588"><ele>682.0</ele><time>2026-04-26T14:32:46.023Z</time></trkpt><trkpt lat="43.9063037" lon="12.2436152"><ele>678.6</ele><time>2026-04-26T14:32:47.026Z</time></trkpt><trkpt lat="43.9063746" lon="12.2434852"><ele>675.2</ele><time>2026-04-26T14:32:48.026Z</time></trkpt><trkpt lat="43.9064427" lon="12.2433622"><ele>671.8</ele><time>2026-04-26T14:32:49.026Z</time></trkpt><trkpt lat="43.9065026" lon="12.2432404"><ele>668.4</ele><time>2026-04-26T14:32:50.023Z</time></trkpt><trkpt lat="43.9065589" lon="12.2431197"><ele>665.0</ele><time>2026-04-26T14:32:51.025Z</time></trkpt><trkpt lat="43.9066113" lon="12.2430068"><ele>664.6</ele><time>2026-04-26T14:32:52.023Z</time></trkpt><trkpt lat="43.9066616" lon="12.2428977"><ele>664.2</ele><time>2026-04-26T14:32:53.024Z</time></trkpt><trkpt lat="43.9067134" lon="12.2427764"><ele>663.8</ele><time>2026-04-26T14:32:54.023Z</time></trkpt><trkpt lat="43.9067595" lon="12.2426202"><ele>663.4</ele><time>2026-04-26T14:32:55.025Z</time></trkpt><trkpt lat="43.9067928" lon="12.242446"><ele>663.0</ele><time>2026-04-26T14:32:56.028Z</time></trkpt><trkpt lat="43.9067985" lon="12.2422681"><ele>663.0</ele><time>2026-04-26T14:32:57.024Z</time></trkpt><trkpt lat="43.906766" lon="12.2420775"><ele>663.0</ele><time>2026-04-26T14:32:58.026Z</time></trkpt><trkpt lat="43.9067059" lon="12.2418751"><ele>663.0</ele><time>2026-04-26T14:32:59.025Z</time></trkpt><trkpt lat="43.9066414" lon="12.2416827"><ele>661.5</ele><time>2026-04-26T14:33:00.025Z</time></trkpt><trkpt lat="43.9065767" lon="12.2415104"><ele>660.0</ele><time>2026-04-26T14:33:01.025Z</time></trkpt><trkpt lat="43.9065142" lon="12.2413517"><ele>658.5</ele><time>2026-04-26T14:33:02.024Z</time></trkpt><trkpt lat="43.9064706" lon="12.2411986"><ele>657.0</ele><time>2026-04-26T14:33:03.023Z</time></trkpt><trkpt lat="43.9064385" lon="12.2410503"><ele>656.2</ele><time>2026-04-26T14:33:04.026Z</time></trkpt><trkpt lat="43.9064068" lon="12.2409047"><ele>655.4000000000001</ele><time>2026-04-26T14:33:05.024Z</time></trkpt><trkpt lat="43.9063762" lon="12.2407706"><ele>654.5999999999999</ele><time>2026-04-26T14:33:06.023Z</time></trkpt><trkpt lat="43.906364" lon="12.2406476"><ele>653.8</ele><time>2026-04-26T14:33:07.023Z</time></trkpt><trkpt lat="43.9063679" lon="12.240545"><ele>653.0</ele><time>2026-04-26T14:33:08.022Z</time></trkpt><trkpt lat="43.906429" lon="12.2404205"><ele>652.5</ele><time>2026-04-26T14:33:10.025Z</time></trkpt><trkpt lat="43.9066017" lon="12.2404956"><ele>652.0</ele><time>2026-04-26T14:33:12.024Z</time></trkpt><trkpt lat="43.9067011" lon="12.2405971"><ele>651.5</ele><time>2026-04-26T14:33:13.027Z</time></trkpt><trkpt lat="43.9067797" lon="12.2406927"><ele>651.0</ele><time>2026-04-26T14:33:14.023Z</time></trkpt><trkpt lat="43.9068437" lon="12.2407686"><ele>651.0</ele><time>2026-04-26T14:33:15.024Z</time></trkpt><trkpt lat="43.9068937" lon="12.2408252"><ele>651.0</ele><time>2026-04-26T14:33:16.024Z</time></trkpt><trkpt lat="43.9069451" lon="12.2408963"><ele>651.0</ele><time>2026-04-26T14:33:18.026Z</time></trkpt><trkpt lat="43.9069926" lon="12.2410188"><ele>651.0</ele><time>2026-04-26T14:35:58.025Z</time></trkpt><trkpt lat="43.9070393" lon="12.2410788"><ele>651.0</ele><time>2026-04-26T14:35:59.023Z</time></trkpt><trkpt lat="43.9071236" lon="12.2411812"><ele>651.0</ele><time>2026-04-26T14:36:01.028Z</time></trkpt><trkpt lat="43.9071882" lon="12.2412424"><ele>651.0</ele><time>2026-04-26T14:36:03.025Z</time></trkpt><trkpt lat="43.9072608" lon="12.2413064"><ele>651.0</ele><time>2026-04-26T14:36:06.024Z</time></trkpt><trkpt lat="43.9073242" lon="12.2413312"><ele>651.0</ele><time>2026-04-26T14:36:09.024Z</time></trkpt><trkpt lat="43.9074024" lon="12.2412676"><ele>651.0</ele><time>2026-04-26T14:36:12.023Z</time></trkpt><trkpt lat="43.907525" lon="12.24125"><ele>651.0</ele><time>2026-04-26T14:36:14.023Z</time></trkpt><trkpt lat="43.907585" lon="12.2412033"><ele>651.0</ele><time>2026-04-26T14:36:15.024Z</time></trkpt><trkpt lat="43.9076483" lon="12.2411433"><ele>652.3333333333334</ele><time>2026-04-26T14:36:16.029Z</time></trkpt><trkpt lat="43.9077" lon="12.2410767"><ele>653.6666666666666</ele><time>2026-04-26T14:36:17.025Z</time></trkpt><trkpt lat="43.907755" lon="12.2410217"><ele>655.0</ele><time>2026-04-26T14:36:18.024Z</time></trkpt><trkpt lat="43.90784" lon="12.2409117"><ele>656.3333333333333</ele><time>2026-04-26T14:36:20.024Z</time></trkpt><trkpt lat="43.90792" lon="12.2407917"><ele>657.6666666666666</ele><time>2026-04-26T14:36:22.022Z</time></trkpt><trkpt lat="43.9079733" lon="12.24073"><ele>659.0</ele><time>2026-04-26T14:36:23.026Z</time></trkpt><trkpt lat="43.9080233" lon="12.24066"><ele>656.2</ele><time>2026-04-26T14:36:24.025Z</time></trkpt><trkpt lat="43.9080733" lon="12.24057"><ele>653.4000000000001</ele><time>2026-04-26T14:36:25.022Z</time></trkpt><trkpt lat="43.90813" lon="12.24046"><ele>650.6</ele><time>2026-04-26T14:36:26.025Z</time></trkpt><trkpt lat="43.9082083" lon="12.2403317"><ele>647.8</ele><time>2026-04-26T14:36:27.025Z</time></trkpt><trkpt lat="43.908275" lon="12.2401917"><ele>645.0</ele><time>2026-04-26T14:36:28.022Z</time></trkpt><trkpt lat="43.90838" lon="12.240085"><ele>648.0</ele><time>2026-04-26T14:36:29.025Z</time></trkpt><trkpt lat="43.9085183" lon="12.240015"><ele>651.0</ele><time>2026-04-26T14:36:30.022Z</time></trkpt><trkpt lat="43.908655" lon="12.239915"><ele>654.0</ele><time>2026-04-26T14:36:31.022Z</time></trkpt><trkpt lat="43.90879" lon="12.2397967"><ele>647.0</ele><time>2026-04-26T14:36:32.027Z</time></trkpt><trkpt lat="43.908935" lon="12.2397017"><ele>640.0</ele><time>2026-04-26T14:36:33.027Z</time></trkpt><trkpt lat="43.9090817" lon="12.23964"><ele>633.0</ele><time>2026-04-26T14:36:34.023Z</time></trkpt><trkpt lat="43.9092283" lon="12.2396217"><ele>631.75</ele><time>2026-04-26T14:36:35.023Z</time></trkpt><trkpt lat="43.9093717" lon="12.2396283"><ele>630.5</ele><time>2026-04-26T14:36:36.025Z</time></trkpt><trkpt lat="43.9095167" lon="12.2396417"><ele>629.25</ele><time>2026-04-26T14:36:37.025Z</time></trkpt><trkpt lat="43.9096717" lon="12.239655"><ele>628.0</ele><time>2026-04-26T14:36:38.03Z</time></trkpt><trkpt lat="43.909845" lon="12.2396667"><ele>628.0</ele><time>2026-04-26T14:36:39.026Z</time></trkpt><trkpt lat="43.91002" lon="12.239665"><ele>628.0</ele><time>2026-04-26T14:36:40.025Z</time></trkpt><trkpt lat="43.9101833" lon="12.2396783"><ele>628.0</ele><time>2026-04-26T14:36:41.026Z</time></trkpt><trkpt lat="43.9103417" lon="12.2396633"><ele>625.75</ele><time>2026-04-26T14:36:42.026Z</time></trkpt><trkpt lat="43.9104867" lon="12.2396383"><ele>623.5</ele><time>2026-04-26T14:36:43.023Z</time></trkpt><trkpt lat="43.9106317" lon="12.239625"><ele>621.25</ele><time>2026-04-26T14:36:44.024Z</time></trkpt><trkpt lat="43.910775" lon="12.23966"><ele>619.0</ele><time>2026-04-26T14:36:45.024Z</time></trkpt><trkpt lat="43.9109033" lon="12.2397383"><ele>621.6666666666667</ele><time>2026-04-26T14:36:46.025Z</time></trkpt><trkpt lat="43.9110367" lon="12.2398033"><ele>624.3333333333334</ele><time>2026-04-26T14:36:47.023Z</time></trkpt><trkpt lat="43.9111917" lon="12.23984"><ele>627.0</ele><time>2026-04-26T14:36:48.024Z</time></trkpt><trkpt lat="43.911355" lon="12.239845"><ele>627.0</ele><time>2026-04-26T14:36:49.029Z</time></trkpt><trkpt lat="43.91151" lon="12.23985"><ele>627.0</ele><time>2026-04-26T14:36:50.025Z</time></trkpt><trkpt lat="43.9116533" lon="12.239865"><ele>627.0</ele><time>2026-04-26T14:36:51.027Z</time></trkpt><trkpt lat="43.9117833" lon="12.2398717"><ele>627.0</ele><time>2026-04-26T14:36:52.022Z</time></trkpt><trkpt lat="43.9119133" lon="12.2398683"><ele>625.5</ele><time>2026-04-26T14:36:53.026Z</time></trkpt><trkpt lat="43.9120367" lon="12.239815"><ele>624.0</ele><time>2026-04-26T14:36:54.022Z</time></trkpt><trkpt lat="43.9121483" lon="12.23971"><ele>622.5</ele><time>2026-04-26T14:36:55.023Z</time></trkpt><trkpt lat="43.91226" lon="12.2395983"><ele>621.0</ele><time>2026-04-26T14:36:56.027Z</time></trkpt><trkpt lat="43.9123733" lon="12.2395233"><ele>619.25</ele><time>2026-04-26T14:36:57.026Z</time></trkpt><trkpt lat="43.9124917" lon="12.2394967"><ele>617.5</ele><time>2026-04-26T14:36:58.026Z</time></trkpt><trkpt lat="43.912615" lon="12.2395267"><ele>615.75</ele><time>2026-04-26T14:36:59.026Z</time></trkpt><trkpt lat="43.9127283" lon="12.239575"><ele>614.0</ele><time>2026-04-26T14:37:00.028Z</time></trkpt><trkpt lat="43.912855" lon="12.2396017"><ele>612.5</ele><time>2026-04-26T14:37:01.03Z</time></trkpt><trkpt lat="43.9129917" lon="12.239585"><ele>611.0</ele><time>2026-04-26T14:37:02.024Z</time></trkpt><trkpt lat="43.9131233" lon="12.2395083"><ele>609.5</ele><time>2026-04-26T14:37:03.026Z</time></trkpt><trkpt lat="43.9132517" lon="12.239395"><ele>608.0</ele><time>2026-04-26T14:37:04.027Z</time></trkpt><trkpt lat="43.9133733" lon="12.2392433"><ele>608.3333333333333</ele><time>2026-04-26T14:37:05.027Z</time></trkpt><trkpt lat="43.9134867" lon="12.2390683"><ele>608.6666666666666</ele><time>2026-04-26T14:37:06.025Z</time></trkpt><trkpt lat="43.9135883" lon="12.2388817"><ele>609.0</ele><time>2026-04-26T14:37:07.022Z</time></trkpt><trkpt lat="43.91368" lon="12.2386917"><ele>610.3333333333334</ele><time>2026-04-26T14:37:08.025Z</time></trkpt><trkpt lat="43.913775" lon="12.2385083"><ele>611.6666666666667</ele><time>2026-04-26T14:37:09.025Z</time></trkpt><trkpt lat="43.9138717" lon="12.2383417"><ele>613.0</ele><time>2026-04-26T14:37:10.026Z</time></trkpt><trkpt lat="43.9139783" lon="12.2381933"><ele>614.6666666666667</ele><time>2026-04-26T14:37:11.025Z</time></trkpt><trkpt lat="43.9141083" lon="12.238065"><ele>616.3333333333334</ele><time>2026-04-26T14:37:12.025Z</time></trkpt><trkpt lat="43.9142483" lon="12.237935"><ele>618.0</ele><time>2026-04-26T14:37:13.025Z</time></trkpt><trkpt lat="43.9143867" lon="12.2377967"><ele>618.0</ele><time>2026-04-26T14:37:14.026Z</time></trkpt><trkpt lat="43.9145167" lon="12.2376483"><ele>618.0</ele><time>2026-04-26T14:37:15.026Z</time></trkpt><trkpt lat="43.9146417" lon="12.2375017"><ele>618.0</ele><time>2026-04-26T14:37:16.025Z</time></trkpt><trkpt lat="43.9147667" lon="12.2373617"><ele>619.0</ele><time>2026-04-26T14:37:17.027Z</time></trkpt><trkpt lat="43.9148983" lon="12.2372483"><ele>620.0</ele><time>2026-04-26T14:37:18.022Z</time></trkpt><trkpt lat="43.9150467" lon="12.2371817"><ele>621.0</ele><time>2026-04-26T14:37:19.026Z</time></trkpt><trkpt lat="43.9151833" lon="12.2371183"><ele>621.0</ele><time>2026-04-26T14:37:20.026Z</time></trkpt><trkpt lat="43.9153017" lon="12.2370533"><ele>621.0</ele><time>2026-04-26T14:37:21.026Z</time></trkpt><trkpt lat="43.9153983" lon="12.2369617"><ele>621.0</ele><time>2026-04-26T14:37:22.025Z</time></trkpt><trkpt lat="43.9154633" lon="12.2368167"><ele>621.0</ele><time>2026-04-26T14:37:23.024Z</time></trkpt><trkpt lat="43.9155017" lon="12.23665"><ele>621.0</ele><time>2026-04-26T14:37:24.023Z</time></trkpt><trkpt lat="43.9155333" lon="12.23648"><ele>621.0</ele><time>2026-04-26T14:37:25.03Z</time></trkpt><trkpt lat="43.9155883" lon="12.236355"><ele>621.0</ele><time>2026-04-26T14:37:26.023Z</time></trkpt><trkpt lat="43.9156717" lon="12.23628"><ele>621.0</ele><time>2026-04-26T14:37:27.024Z</time></trkpt><trkpt lat="43.9157817" lon="12.236245"><ele>621.0</ele><time>2026-04-26T14:37:28.024Z</time></trkpt><trkpt lat="43.9159067" lon="12.236245"><ele>618.75</ele><time>2026-04-26T14:37:29.022Z</time></trkpt><trkpt lat="43.9160483" lon="12.2362433"><ele>616.5</ele><time>2026-04-26T14:37:30.028Z</time></trkpt><trkpt lat="43.9161917" lon="12.23622"><ele>614.25</ele><time>2026-04-26T14:37:31.024Z</time></trkpt><trkpt lat="43.9163367" lon="12.2362033"><ele>612.0</ele><time>2026-04-26T14:37:32.024Z</time></trkpt><trkpt lat="43.9164867" lon="12.2362017"><ele>612.0</ele><time>2026-04-26T14:37:33.029Z</time></trkpt><trkpt lat="43.91663" lon="12.2362317"><ele>612.0</ele><time>2026-04-26T14:37:34.025Z</time></trkpt><trkpt lat="43.91677" lon="12.2362617"><ele>612.0</ele><time>2026-04-26T14:37:35.024Z</time></trkpt><trkpt lat="43.916915" lon="12.2362433"><ele>612.0</ele><time>2026-04-26T14:37:36.027Z</time></trkpt><trkpt lat="43.9170667" lon="12.236185"><ele>614.0</ele><time>2026-04-26T14:37:37.025Z</time></trkpt><trkpt lat="43.91722" lon="12.2360833"><ele>616.0</ele><time>2026-04-26T14:37:38.027Z</time></trkpt><trkpt lat="43.9173833" lon="12.2359583"><ele>618.0</ele><time>2026-04-26T14:37:39.024Z</time></trkpt><trkpt lat="43.917545" lon="12.2358133"><ele>616.3333333333334</ele><time>2026-04-26T14:37:40.025Z</time></trkpt><trkpt lat="43.9177017" lon="12.2356633"><ele>614.6666666666667</ele><time>2026-04-26T14:37:41.025Z</time></trkpt><trkpt lat="43.9178383" lon="12.2355"><ele>613.0</ele><time>2026-04-26T14:37:42.024Z</time></trkpt><trkpt lat="43.917955" lon="12.2353217"><ele>612.6666666666667</ele><time>2026-04-26T14:37:43.023Z</time></trkpt><trkpt lat="43.9180733" lon="12.235155"><ele>612.3333333333334</ele><time>2026-04-26T14:37:44.028Z</time></trkpt><trkpt lat="43.9182033" lon="12.235015"><ele>612.0</ele><time>2026-04-26T14:37:45.028Z</time></trkpt><trkpt lat="43.918355" lon="12.2348983"><ele>608.0</ele><time>2026-04-26T14:37:46.024Z</time></trkpt><trkpt lat="43.918535" lon="12.2347817"><ele>604.0</ele><time>2026-04-26T14:37:47.025Z</time></trkpt><trkpt lat="43.9187317" lon="12.234665"><ele>600.0</ele><time>2026-04-26T14:37:48.027Z</time></trkpt><trkpt lat="43.9189417" lon="12.2345317"><ele>600.0</ele><time>2026-04-26T14:37:49.026Z</time></trkpt><trkpt lat="43.9191567" lon="12.2343867"><ele>600.0</ele><time>2026-04-26T14:37:50.03Z</time></trkpt><trkpt lat="43.91937" lon="12.234245"><ele>598.3333333333334</ele><time>2026-04-26T14:37:51.024Z</time></trkpt><trkpt lat="43.919575" lon="12.2341117"><ele>596.6666666666667</ele><time>2026-04-26T14:37:52.023Z</time></trkpt><trkpt lat="43.9197733" lon="12.2339917"><ele>595.0</ele><time>2026-04-26T14:37:53.024Z</time></trkpt><trkpt lat="43.9199583" lon="12.23387"><ele>596.6666666666667</ele><time>2026-04-26T14:37:54.023Z</time></trkpt><trkpt lat="43.9201267" lon="12.2337417"><ele>598.3333333333334</ele><time>2026-04-26T14:37:55.026Z</time></trkpt><trkpt lat="43.9202733" lon="12.2336133"><ele>600.0</ele><time>2026-04-26T14:37:56.025Z</time></trkpt><trkpt lat="43.9203983" lon="12.233455"><ele>600.0</ele><time>2026-04-26T14:37:57.029Z</time></trkpt><trkpt lat="43.9205017" lon="12.2332833"><ele>600.0</ele><time>2026-04-26T14:37:58.024Z</time></trkpt><trkpt lat="43.920605" lon="12.2331283"><ele>600.0</ele><time>2026-04-26T14:37:59.023Z</time></trkpt><trkpt lat="43.920715" lon="12.233"><ele>599.75</ele><time>2026-04-26T14:38:00.025Z</time></trkpt><trkpt lat="43.9208117" lon="12.232885"><ele>599.5</ele><time>2026-04-26T14:38:01.026Z</time></trkpt><trkpt lat="43.92089" lon="12.2327567"><ele>599.25</ele><time>2026-04-26T14:38:02.026Z</time></trkpt><trkpt lat="43.920935" lon="12.2325967"><ele>599.0</ele><time>2026-04-26T14:38:03.025Z</time></trkpt><trkpt lat="43.92093" lon="12.2323933"><ele>597.5</ele><time>2026-04-26T14:38:04.024Z</time></trkpt><trkpt lat="43.9209" lon="12.23219"><ele>596.0</ele><time>2026-04-26T14:38:05.025Z</time></trkpt><trkpt lat="43.9208683" lon="12.23202"><ele>594.5</ele><time>2026-04-26T14:38:06.029Z</time></trkpt><trkpt lat="43.920855" lon="12.2318783"><ele>593.0</ele><time>2026-04-26T14:38:07.026Z</time></trkpt><trkpt lat="43.9208683" lon="12.2317583"><ele>592.5</ele><time>2026-04-26T14:38:08.024Z</time></trkpt><trkpt lat="43.9209033" lon="12.2316567"><ele>592.0</ele><time>2026-04-26T14:38:09.028Z</time></trkpt><trkpt lat="43.9209917" lon="12.231585"><ele>591.5</ele><time>2026-04-26T14:38:10.024Z</time></trkpt><trkpt lat="43.921115" lon="12.23153"><ele>591.0</ele><time>2026-04-26T14:38:11.023Z</time></trkpt><trkpt lat="43.9212733" lon="12.2314783"><ele>587.6666666666666</ele><time>2026-04-26T14:38:12.025Z</time></trkpt><trkpt lat="43.9214383" lon="12.2314183"><ele>584.3333333333333</ele><time>2026-04-26T14:38:13.022Z</time></trkpt><trkpt lat="43.9215983" lon="12.2313517"><ele>581.0</ele><time>2026-04-26T14:38:14.028Z</time></trkpt><trkpt lat="43.92175" lon="12.23126"><ele>581.0</ele><time>2026-04-26T14:38:15.027Z</time></trkpt><trkpt lat="43.9219" lon="12.2311317"><ele>581.0</ele><time>2026-04-26T14:38:16.025Z</time></trkpt><trkpt lat="43.9220517" lon="12.2309583"><ele>581.0</ele><time>2026-04-26T14:38:17.024Z</time></trkpt><trkpt lat="43.9221967" lon="12.2307717"><ele>580.3333333333333</ele><time>2026-04-26T14:38:18.024Z</time></trkpt><trkpt lat="43.9223267" lon="12.23057"><ele>579.6666666666666</ele><time>2026-04-26T14:38:19.026Z</time></trkpt><trkpt lat="43.9224317" lon="12.23035"><ele>579.0</ele><time>2026-04-26T14:38:20.026Z</time></trkpt><trkpt lat="43.9225217" lon="12.23014"><ele>578.0</ele><time>2026-04-26T14:38:21.023Z</time></trkpt><trkpt lat="43.9226217" lon="12.229945"><ele>577.0</ele><time>2026-04-26T14:38:22.024Z</time></trkpt><trkpt lat="43.9227417" lon="12.2297717"><ele>576.0</ele><time>2026-04-26T14:38:23.025Z</time></trkpt><trkpt lat="43.9228733" lon="12.2296233"><ele>576.0</ele><time>2026-04-26T14:38:24.024Z</time></trkpt><trkpt lat="43.922995" lon="12.22949"><ele>576.0</ele><time>2026-04-26T14:38:25.023Z</time></trkpt><trkpt lat="43.92309" lon="12.2293517"><ele>576.0</ele><time>2026-04-26T14:38:26.026Z</time></trkpt><trkpt lat="43.923155" lon="12.2291867"><ele>576.0</ele><time>2026-04-26T14:38:27.023Z</time></trkpt><trkpt lat="43.9231883" lon="12.2289983"><ele>577.3333333333334</ele><time>2026-04-26T14:38:28.029Z</time></trkpt><trkpt lat="43.9232133" lon="12.2287967"><ele>578.6666666666667</ele><time>2026-04-26T14:38:29.023Z</time></trkpt><trkpt lat="43.9232683" lon="12.2285967"><ele>580.0</ele><time>2026-04-26T14:38:30.023Z</time></trkpt><trkpt lat="43.9233733" lon="12.2284183"><ele>579.3333333333334</ele><time>2026-04-26T14:38:31.025Z</time></trkpt><trkpt lat="43.9235067" lon="12.22825"><ele>578.6666666666666</ele><time>2026-04-26T14:38:32.024Z</time></trkpt><trkpt lat="43.9236417" lon="12.228065"><ele>578.0</ele><time>2026-04-26T14:38:33.025Z</time></trkpt><trkpt lat="43.9237717" lon="12.2278733"><ele>578.0</ele><time>2026-04-26T14:38:34.026Z</time></trkpt><trkpt lat="43.9239017" lon="12.22768"><ele>578.0</ele><time>2026-04-26T14:38:35.026Z</time></trkpt><trkpt lat="43.92404" lon="12.2275067"><ele>578.0</ele><time>2026-04-26T14:38:36.028Z</time></trkpt><trkpt lat="43.9241817" lon="12.2273667"><ele>576.0</ele><time>2026-04-26T14:38:37.023Z</time></trkpt><trkpt lat="43.9243133" lon="12.227245"><ele>574.0</ele><time>2026-04-26T14:38:38.026Z</time></trkpt><trkpt lat="43.92443" lon="12.22713"><ele>572.0</ele><time>2026-04-26T14:38:39.026Z</time></trkpt><trkpt lat="43.9245317" lon="12.22701"><ele>570.0</ele><time>2026-04-26T14:38:40.023Z</time></trkpt><trkpt lat="43.9246083" lon="12.2268883"><ele>570.0</ele><time>2026-04-26T14:38:41.027Z</time></trkpt><trkpt lat="43.9246369" lon="12.2267429"><ele>570.0</ele><time>2026-04-26T14:38:42.028Z</time></trkpt><trkpt lat="43.924635" lon="12.2265953"><ele>570.0</ele><time>2026-04-26T14:38:43.026Z</time></trkpt><trkpt lat="43.9246121" lon="12.2264455"><ele>570.0</ele><time>2026-04-26T14:38:44.026Z</time></trkpt><trkpt lat="43.9245798" lon="12.2262965"><ele>570.0</ele><time>2026-04-26T14:38:45.026Z</time></trkpt><trkpt lat="43.9245471" lon="12.2261426"><ele>571.75</ele><time>2026-04-26T14:38:46.025Z</time></trkpt><trkpt lat="43.9245196" lon="12.2259815"><ele>573.5</ele><time>2026-04-26T14:38:47.026Z</time></trkpt><trkpt lat="43.9245" lon="12.2258059"><ele>575.25</ele><time>2026-04-26T14:38:48.027Z</time></trkpt><trkpt lat="43.9244939" lon="12.2256218"><ele>577.0</ele><time>2026-04-26T14:38:49.029Z</time></trkpt><trkpt lat="43.9244966" lon="12.225446"><ele>579.25</ele><time>2026-04-26T14:38:50.03Z</time></trkpt><trkpt lat="43.9245071" lon="12.2252768"><ele>581.5</ele><time>2026-04-26T14:38:51.024Z</time></trkpt><trkpt lat="43.9245128" lon="12.2250966"><ele>583.75</ele><time>2026-04-26T14:38:52.026Z</time></trkpt><trkpt lat="43.9245276" lon="12.2249118"><ele>586.0</ele><time>2026-04-26T14:38:53.027Z</time></trkpt><trkpt lat="43.9245475" lon="12.224719"><ele>588.6666666666667</ele><time>2026-04-26T14:38:54.025Z</time></trkpt><trkpt lat="43.9245605" lon="12.2245098"><ele>591.3333333333334</ele><time>2026-04-26T14:38:55.024Z</time></trkpt><trkpt lat="43.9245432" lon="12.224286"><ele>594.0</ele><time>2026-04-26T14:38:56.022Z</time></trkpt><trkpt lat="43.9245076" lon="12.224057"><ele>595.0</ele><time>2026-04-26T14:38:57.028Z</time></trkpt><trkpt lat="43.9244542" lon="12.2238376"><ele>596.0</ele><time>2026-04-26T14:38:58.028Z</time></trkpt><trkpt lat="43.9244023" lon="12.2236302"><ele>597.0</ele><time>2026-04-26T14:38:59.03Z</time></trkpt><trkpt lat="43.924357" lon="12.2234346"><ele>597.0</ele><time>2026-04-26T14:39:00.028Z</time></trkpt><trkpt lat="43.9243204" lon="12.2232574"><ele>597.0</ele><time>2026-04-26T14:39:01.023Z</time></trkpt><trkpt lat="43.9243032" lon="12.2230814"><ele>597.0</ele><time>2026-04-26T14:39:02.025Z</time></trkpt><trkpt lat="43.9243107" lon="12.2229053"><ele>597.0</ele><time>2026-04-26T14:39:03.024Z</time></trkpt><trkpt lat="43.9243197" lon="12.2227415"><ele>596.4</ele><time>2026-04-26T14:39:04.029Z</time></trkpt><trkpt lat="43.924332" lon="12.2225958"><ele>595.8000000000001</ele><time>2026-04-26T14:39:05.026Z</time></trkpt><trkpt lat="43.9243463" lon="12.2224599"><ele>595.2</ele><time>2026-04-26T14:39:06.024Z</time></trkpt><trkpt lat="43.9243579" lon="12.2223318"><ele>594.6</ele><time>2026-04-26T14:39:07.026Z</time></trkpt><trkpt lat="43.9243722" lon="12.2222139"><ele>594.0</ele><time>2026-04-26T14:39:08.023Z</time></trkpt><trkpt lat="43.9243954" lon="12.2221079"><ele>591.2</ele><time>2026-04-26T14:39:09.029Z</time></trkpt><trkpt lat="43.9244266" lon="12.2220025"><ele>588.4</ele><time>2026-04-26T14:39:10.025Z</time></trkpt><trkpt lat="43.9244685" lon="12.2218899"><ele>585.6</ele><time>2026-04-26T14:39:11.024Z</time></trkpt><trkpt lat="43.9245292" lon="12.2217709"><ele>582.8</ele><time>2026-04-26T14:39:12.022Z</time></trkpt><trkpt lat="43.9246041" lon="12.2216654"><ele>580.0</ele><time>2026-04-26T14:39:13.024Z</time></trkpt><trkpt lat="43.9246943" lon="12.2215905"><ele>580.0</ele><time>2026-04-26T14:39:14.024Z</time></trkpt><trkpt lat="43.9247941" lon="12.221567"><ele>580.0</ele><time>2026-04-26T14:39:15.024Z</time></trkpt><trkpt lat="43.9249035" lon="12.2215985"><ele>580.0</ele><time>2026-04-26T14:39:16.024Z</time></trkpt><trkpt lat="43.925014" lon="12.2216534"><ele>580.0</ele><time>2026-04-26T14:39:17.031Z</time></trkpt><trkpt lat="43.9251307" lon="12.2217224"><ele>579.25</ele><time>2026-04-26T14:39:18.026Z</time></trkpt><trkpt lat="43.9252603" lon="12.2217946"><ele>578.5</ele><time>2026-04-26T14:39:19.024Z</time></trkpt><trkpt lat="43.9253874" lon="12.2218597"><ele>577.75</ele><time>2026-04-26T14:39:20.024Z</time></trkpt><trkpt lat="43.9255131" lon="12.2218992"><ele>577.0</ele><time>2026-04-26T14:39:21.023Z</time></trkpt><trkpt lat="43.9256277" lon="12.2219253"><ele>577.0</ele><time>2026-04-26T14:39:22.023Z</time></trkpt><trkpt lat="43.925733" lon="12.2219454"><ele>577.0</ele><time>2026-04-26T14:39:23.023Z</time></trkpt><trkpt lat="43.9258402" lon="12.2219669"><ele>577.0</ele><time>2026-04-26T14:39:24.031Z</time></trkpt><trkpt lat="43.92595" lon="12.2220065"><ele>577.0</ele><time>2026-04-26T14:39:25.022Z</time></trkpt><trkpt lat="43.9260605" lon="12.2220862"><ele>577.75</ele><time>2026-04-26T14:39:26.029Z</time></trkpt><trkpt lat="43.9261696" lon="12.222189"><ele>578.5</ele><time>2026-04-26T14:39:27.026Z</time></trkpt><trkpt lat="43.9262838" lon="12.2222985"><ele>579.25</ele><time>2026-04-26T14:39:28.024Z</time></trkpt><trkpt lat="43.9264025" lon="12.2224123"><ele>580.0</ele><time>2026-04-26T14:39:29.023Z</time></trkpt><trkpt lat="43.9265216" lon="12.2225106"><ele>585.25</ele><time>2026-04-26T14:39:30.028Z</time></trkpt><trkpt lat="43.9266394" lon="12.2225975"><ele>590.5</ele><time>2026-04-26T14:39:31.023Z</time></trkpt><trkpt lat="43.9267684" lon="12.2226362"><ele>595.75</ele><time>2026-04-26T14:39:32.024Z</time></trkpt><trkpt lat="43.9268994" lon="12.222644"><ele>601.0</ele><time>2026-04-26T14:39:33.026Z</time></trkpt><trkpt lat="43.9270208" lon="12.2226384"><ele>602.0</ele><time>2026-04-26T14:39:34.028Z</time></trkpt><trkpt lat="43.9271365" lon="12.2226137"><ele>603.0</ele><time>2026-04-26T14:39:35.023Z</time></trkpt><trkpt lat="43.9272445" lon="12.2225662"><ele>604.0</ele><time>2026-04-26T14:39:36.023Z</time></trkpt><trkpt lat="43.9273402" lon="12.2225102"><ele>605.0</ele><time>2026-04-26T14:39:37.025Z</time></trkpt><trkpt lat="43.9274235" lon="12.2224401"><ele>606.0</ele><time>2026-04-26T14:39:38.024Z</time></trkpt><trkpt lat="43.9275002" lon="12.2223457"><ele>606.6</ele><time>2026-04-26T14:39:39.031Z</time></trkpt><trkpt lat="43.9275735" lon="12.2222337"><ele>607.2</ele><time>2026-04-26T14:39:40.024Z</time></trkpt><trkpt lat="43.9276364" lon="12.222112"><ele>607.8</ele><time>2026-04-26T14:39:41.023Z</time></trkpt><trkpt lat="43.9276875" lon="12.2219762"><ele>608.4</ele><time>2026-04-26T14:39:42.024Z</time></trkpt><trkpt lat="43.9277311" lon="12.2218318"><ele>609.0</ele><time>2026-04-26T14:39:43.024Z</time></trkpt><trkpt lat="43.9277956" lon="12.2217095"><ele>609.0</ele><time>2026-04-26T14:39:44.024Z</time></trkpt><trkpt lat="43.9278847" lon="12.2216167"><ele>609.0</ele><time>2026-04-26T14:39:45.023Z</time></trkpt><trkpt lat="43.9279716" lon="12.2215315"><ele>609.0</ele><time>2026-04-26T14:39:46.025Z</time></trkpt><trkpt lat="43.9280578" lon="12.2214583"><ele>609.0</ele><time>2026-04-26T14:39:47.023Z</time></trkpt><trkpt lat="43.9281479" lon="12.22138"><ele>609.0</ele><time>2026-04-26T14:39:48.026Z</time></trkpt><trkpt lat="43.9282378" lon="12.2212962"><ele>607.75</ele><time>2026-04-26T14:39:49.024Z</time></trkpt><trkpt lat="43.9283169" lon="12.2211864"><ele>606.5</ele><time>2026-04-26T14:39:50.027Z</time></trkpt><trkpt lat="43.9283974" lon="12.2210682"><ele>605.25</ele><time>2026-04-26T14:39:51.022Z</time></trkpt><trkpt lat="43.9284898" lon="12.2209608"><ele>604.0</ele><time>2026-04-26T14:39:52.023Z</time></trkpt><trkpt lat="43.9285914" lon="12.2208753"><ele>603.4</ele><time>2026-04-26T14:39:53.023Z</time></trkpt><trkpt lat="43.9286928" lon="12.2208127"><ele>602.8</ele><time>2026-04-26T14:39:54.025Z</time></trkpt><trkpt lat="43.9287983" lon="12.2207789"><ele>602.2</ele><time>2026-04-26T14:39:55.025Z</time></trkpt><trkpt lat="43.9289074" lon="12.2207566"><ele>601.6</ele><time>2026-04-26T14:39:56.025Z</time></trkpt><trkpt lat="43.92901" lon="12.2207244"><ele>601.0</ele><time>2026-04-26T14:39:57.024Z</time></trkpt><trkpt lat="43.9291162" lon="12.2206858"><ele>602.25</ele><time>2026-04-26T14:39:58.024Z</time></trkpt><trkpt lat="43.929229" lon="12.2206387"><ele>603.5</ele><time>2026-04-26T14:39:59.023Z</time></trkpt><trkpt lat="43.9293434" lon="12.2205914"><ele>604.75</ele><time>2026-04-26T14:40:00.024Z</time></trkpt><trkpt lat="43.9294577" lon="12.2205486"><ele>606.0</ele><time>2026-04-26T14:40:01.026Z</time></trkpt><trkpt lat="43.9295709" lon="12.2205284"><ele>606.0</ele><time>2026-04-26T14:40:02.024Z</time></trkpt><trkpt lat="43.9296901" lon="12.2205364"><ele>606.0</ele><time>2026-04-26T14:40:03.025Z</time></trkpt><trkpt lat="43.9298104" lon="12.2206063"><ele>606.0</ele><time>2026-04-26T14:40:04.025Z</time></trkpt><trkpt lat="43.9299249" lon="12.2207253"><ele>606.0</ele><time>2026-04-26T14:40:05.023Z</time></trkpt><trkpt lat="43.9300495" lon="12.2208632"><ele>611.3333333333334</ele><time>2026-04-26T14:40:06.025Z</time></trkpt><trkpt lat="43.9301704" lon="12.2210132"><ele>616.6666666666667</ele><time>2026-04-26T14:40:07.025Z</time></trkpt><trkpt lat="43.9302815" lon="12.2211584"><ele>622.0</ele><time>2026-04-26T14:40:08.024Z</time></trkpt><trkpt lat="43.9303787" lon="12.2213005"><ele>622.0</ele><time>2026-04-26T14:40:09.024Z</time></trkpt><trkpt lat="43.9304565" lon="12.2214464"><ele>622.0</ele><time>2026-04-26T14:40:10.028Z</time></trkpt><trkpt lat="43.9305203" lon="12.2215933"><ele>622.0</ele><time>2026-04-26T14:40:11.024Z</time></trkpt><trkpt lat="43.9305829" lon="12.2217276"><ele>622.0</ele><time>2026-04-26T14:40:12.025Z</time></trkpt><trkpt lat="43.9306488" lon="12.22186"><ele>622.75</ele><time>2026-04-26T14:40:13.021Z</time></trkpt><trkpt lat="43.9307167" lon="12.2219896"><ele>623.5</ele><time>2026-04-26T14:40:14.025Z</time></trkpt><trkpt lat="43.9308017" lon="12.2220933"><ele>624.25</ele><time>2026-04-26T14:40:15.025Z</time></trkpt><trkpt lat="43.9308957" lon="12.2221801"><ele>625.0</ele><time>2026-04-26T14:40:16.026Z</time></trkpt><trkpt lat="43.9309847" lon="12.2222705"><ele>622.0</ele><time>2026-04-26T14:40:17.028Z</time></trkpt><trkpt lat="43.9310718" lon="12.2223703"><ele>619.0</ele><time>2026-04-26T14:40:18.024Z</time></trkpt><trkpt lat="43.9311652" lon="12.2224646"><ele>616.0</ele><time>2026-04-26T14:40:19.023Z</time></trkpt><trkpt lat="43.9312661" lon="12.2225342"><ele>613.0</ele><time>2026-04-26T14:40:20.023Z</time></trkpt><trkpt lat="43.9313681" lon="12.2225832"><ele>610.0</ele><time>2026-04-26T14:40:21.023Z</time></trkpt><trkpt lat="43.9314639" lon="12.2226152"><ele>610.0</ele><time>2026-04-26T14:40:22.027Z</time></trkpt><trkpt lat="43.9315614" lon="12.2226304"><ele>610.0</ele><time>2026-04-26T14:40:23.025Z</time></trkpt><trkpt lat="43.931665" lon="12.2226089"><ele>610.0</ele><time>2026-04-26T14:40:24.028Z</time></trkpt><trkpt lat="43.9317702" lon="12.2225781"><ele>610.0</ele><time>2026-04-26T14:40:25.024Z</time></trkpt><trkpt lat="43.9318799" lon="12.2225523"><ele>610.0</ele><time>2026-04-26T14:40:26.022Z</time></trkpt><trkpt lat="43.931996" lon="12.2225227"><ele>607.5</ele><time>2026-04-26T14:40:27.023Z</time></trkpt><trkpt lat="43.9321189" lon="12.2224962"><ele>605.0</ele><time>2026-04-26T14:40:28.026Z</time></trkpt><trkpt lat="43.9322428" lon="12.2224682"><ele>602.5</ele><time>2026-04-26T14:40:29.023Z</time></trkpt><trkpt lat="43.9323652" lon="12.2224459"><ele>600.0</ele><time>2026-04-26T14:40:30.023Z</time></trkpt><trkpt lat="43.9324804" lon="12.2224325"><ele>598.6</ele><time>2026-04-26T14:40:31.024Z</time></trkpt><trkpt lat="43.9325884" lon="12.2224257"><ele>597.2</ele><time>2026-04-26T14:40:32.024Z</time></trkpt><trkpt lat="43.9326921" lon="12.2224125"><ele>595.8</ele><time>2026-04-26T14:40:33.026Z</time></trkpt><trkpt lat="43.9327918" lon="12.2223885"><ele>594.4</ele><time>2026-04-26T14:40:34.022Z</time></trkpt><trkpt lat="43.9328882" lon="12.2223232"><ele>593.0</ele><time>2026-04-26T14:40:35.028Z</time></trkpt><trkpt lat="43.9329645" lon="12.2222233"><ele>595.8</ele><time>2026-04-26T14:40:36.024Z</time></trkpt><trkpt lat="43.9330205" lon="12.2220834"><ele>598.5999999999999</ele><time>2026-04-26T14:40:37.023Z</time></trkpt><trkpt lat="43.9330824" lon="12.221952"><ele>601.4000000000001</ele><time>2026-04-26T14:40:38.023Z</time></trkpt><trkpt lat="43.9331456" lon="12.2218397"><ele>604.2</ele><time>2026-04-26T14:40:39.026Z</time></trkpt><trkpt lat="43.9332162" lon="12.2217409"><ele>607.0</ele><time>2026-04-26T14:40:40.025Z</time></trkpt><trkpt lat="43.9333006" lon="12.2216597"><ele>604.8000000000001</ele><time>2026-04-26T14:40:41.026Z</time></trkpt><trkpt lat="43.9333914" lon="12.2215911"><ele>602.6</ele><time>2026-04-26T14:40:42.024Z</time></trkpt><trkpt lat="43.9334799" lon="12.2215332"><ele>600.4000000000001</ele><time>2026-04-26T14:40:43.024Z</time></trkpt><trkpt lat="43.933567" lon="12.2214879"><ele>598.2</ele><time>2026-04-26T14:40:44.024Z</time></trkpt><trkpt lat="43.9336525" lon="12.2214531"><ele>596.0</ele><time>2026-04-26T14:40:45.024Z</time></trkpt><trkpt lat="43.9337404" lon="12.2214252"><ele>596.0</ele><time>2026-04-26T14:40:46.023Z</time></trkpt><trkpt lat="43.9338313" lon="12.2213935"><ele>596.0</ele><time>2026-04-26T14:40:47.024Z</time></trkpt><trkpt lat="43.9339244" lon="12.2213221"><ele>596.0</ele><time>2026-04-26T14:40:48.024Z</time></trkpt><trkpt lat="43.934004" lon="12.2212169"><ele>596.0</ele><time>2026-04-26T14:40:49.026Z</time></trkpt><trkpt lat="43.9340626" lon="12.2210932"><ele>596.0</ele><time>2026-04-26T14:40:50.025Z</time></trkpt><trkpt lat="43.9340959" lon="12.220959"><ele>596.0</ele><time>2026-04-26T14:40:51.028Z</time></trkpt><trkpt lat="43.9340843" lon="12.2208101"><ele>596.0</ele><time>2026-04-26T14:40:52.022Z</time></trkpt><trkpt lat="43.9340474" lon="12.2206552"><ele>596.0</ele><time>2026-04-26T14:40:53.026Z</time></trkpt><trkpt lat="43.9340362" lon="12.2205051"><ele>596.0</ele><time>2026-04-26T14:40:54.026Z</time></trkpt><trkpt lat="43.934061" lon="12.2203602"><ele>596.0</ele><time>2026-04-26T14:40:55.024Z</time></trkpt><trkpt lat="43.9341046" lon="12.220212"><ele>594.8</ele><time>2026-04-26T14:40:56.027Z</time></trkpt><trkpt lat="43.9341581" lon="12.2200674"><ele>593.6</ele><time>2026-04-26T14:40:57.025Z</time></trkpt><trkpt lat="43.9342091" lon="12.2199376"><ele>592.4</ele><time>2026-04-26T14:40:58.023Z</time></trkpt><trkpt lat="43.9342558" lon="12.219819"><ele>591.2</ele><time>2026-04-26T14:40:59.028Z</time></trkpt><trkpt lat="43.9343034" lon="12.2197049"><ele>590.0</ele><time>2026-04-26T14:41:00.026Z</time></trkpt><trkpt lat="43.934365" lon="12.2196031"><ele>589.5</ele><time>2026-04-26T14:41:01.025Z</time></trkpt><trkpt lat="43.9344424" lon="12.219528"><ele>589.0</ele><time>2026-04-26T14:41:02.023Z</time></trkpt><trkpt lat="43.9345305" lon="12.219488"><ele>588.5</ele><time>2026-04-26T14:41:03.022Z</time></trkpt><trkpt lat="43.9346219" lon="12.2194772"><ele>588.0</ele><time>2026-04-26T14:41:04.027Z</time></trkpt><trkpt lat="43.9347048" lon="12.219489"><ele>587.5</ele><time>2026-04-26T14:41:05.023Z</time></trkpt><trkpt lat="43.9347824" lon="12.2195197"><ele>587.0</ele><time>2026-04-26T14:41:06.024Z</time></trkpt><trkpt lat="43.9348481" lon="12.2195616"><ele>587.0</ele><time>2026-04-26T14:41:07.028Z</time></trkpt><trkpt lat="43.934942" lon="12.2196318"><ele>587.0</ele><time>2026-04-26T14:41:09.025Z</time></trkpt><trkpt lat="43.9350272" lon="12.2196123"><ele>587.0</ele><time>2026-04-26T14:41:11.03Z</time></trkpt><trkpt lat="43.9351695" lon="12.2196074"><ele>587.0</ele><time>2026-04-26T14:41:13.024Z</time></trkpt><trkpt lat="43.935261" lon="12.2195912"><ele>587.0</ele><time>2026-04-26T14:41:14.025Z</time></trkpt><trkpt lat="43.9353521" lon="12.219567"><ele>588.6666666666666</ele><time>2026-04-26T14:41:15.023Z</time></trkpt><trkpt lat="43.9354317" lon="12.219556"><ele>590.3333333333333</ele><time>2026-04-26T14:41:16.029Z</time></trkpt><trkpt lat="43.9355257" lon="12.2195272"><ele>592.0</ele><time>2026-04-26T14:41:18.024Z</time></trkpt><trkpt lat="43.935597" lon="12.2194974"><ele>593.6666666666666</ele><time>2026-04-26T14:41:22.024Z</time></trkpt><trkpt lat="43.9355517" lon="12.2194347"><ele>595.3333333333334</ele><time>2026-04-26T14:41:26.025Z</time></trkpt><trkpt lat="43.9354848" lon="12.2194878"><ele>597.0</ele><time>2026-04-26T14:41:28.025Z</time></trkpt><trkpt lat="43.935374" lon="12.2195344"><ele>597.0</ele><time>2026-04-26T14:41:30.023Z</time></trkpt><trkpt lat="43.9352902" lon="12.2195595"><ele>597.0</ele><time>2026-04-26T14:41:31.025Z</time></trkpt><trkpt lat="43.9352049" lon="12.2195862"><ele>597.0</ele><time>2026-04-26T14:41:32.023Z</time></trkpt><trkpt lat="43.9351291" lon="12.2196037"><ele>597.0</ele><time>2026-04-26T14:41:33.03Z</time></trkpt><trkpt lat="43.935035" lon="12.2196031"><ele>597.0</ele><time>2026-04-26T14:41:35.026Z</time></trkpt><trkpt lat="43.9349709" lon="12.2195752"><ele>597.0</ele><time>2026-04-26T14:41:38.024Z</time></trkpt><trkpt lat="43.9349549" lon="12.2194367"><ele>595.0</ele><time>2026-04-26T14:41:41.025Z</time></trkpt><trkpt lat="43.9349503" lon="12.2192958"><ele>593.0</ele><time>2026-04-26T14:41:43.027Z</time></trkpt><trkpt lat="43.9349195" lon="12.2191604"><ele>591.0</ele><time>2026-04-26T14:41:45.03Z</time></trkpt><trkpt lat="43.934859" lon="12.2190194"><ele>589.0</ele><time>2026-04-26T14:41:47.021Z</time></trkpt><trkpt lat="43.9348189" lon="12.2189294"><ele>587.0</ele><time>2026-04-26T14:41:48.025Z</time></trkpt><trkpt lat="43.9347681" lon="12.2188268"><ele>584.6</ele><time>2026-04-26T14:41:49.024Z</time></trkpt><trkpt lat="43.9347148" lon="12.2187114"><ele>582.2</ele><time>2026-04-26T14:41:50.026Z</time></trkpt><trkpt lat="43.9346798" lon="12.218581"><ele>579.8</ele><time>2026-04-26T14:41:51.025Z</time></trkpt><trkpt lat="43.9346568" lon="12.2184436"><ele>577.4</ele><time>2026-04-26T14:41:52.024Z</time></trkpt><trkpt lat="43.9346343" lon="12.2183149"><ele>575.0</ele><time>2026-04-26T14:41:53.023Z</time></trkpt><trkpt lat="43.9346099" lon="12.2181956"><ele>572.5</ele><time>2026-04-26T14:41:54.026Z</time></trkpt><trkpt lat="43.9345864" lon="12.2180862"><ele>570.0</ele><time>2026-04-26T14:41:55.028Z</time></trkpt><trkpt lat="43.9345787" lon="12.2179748"><ele>567.5</ele><time>2026-04-26T14:41:56.024Z</time></trkpt><trkpt lat="43.9345847" lon="12.2178572"><ele>565.0</ele><time>2026-04-26T14:41:57.023Z</time></trkpt><trkpt lat="43.9346104" lon="12.2177369"><ele>562.5</ele><time>2026-04-26T14:41:58.025Z</time></trkpt><trkpt lat="43.9346546" lon="12.2176119"><ele>560.0</ele><time>2026-04-26T14:41:59.024Z</time></trkpt><trkpt lat="43.9347041" lon="12.2174791"><ele>560.0</ele><time>2026-04-26T14:42:00.03Z</time></trkpt><trkpt lat="43.9347503" lon="12.2173409"><ele>560.0</ele><time>2026-04-26T14:42:01.023Z</time></trkpt><trkpt lat="43.9347932" lon="12.2172018"><ele>560.0</ele><time>2026-04-26T14:42:02.025Z</time></trkpt><trkpt lat="43.9348416" lon="12.2170803"><ele>560.0</ele><time>2026-04-26T14:42:03.023Z</time></trkpt><trkpt lat="43.9348842" lon="12.21698"><ele>560.0</ele><time>2026-04-26T14:42:04.026Z</time></trkpt><trkpt lat="43.9349255" lon="12.2169013"><ele>560.1666666666666</ele><time>2026-04-26T14:42:05.023Z</time></trkpt><trkpt lat="43.9350249" lon="12.2168301"><ele>560.3333333333333</ele><time>2026-04-26T14:42:07.028Z</time></trkpt><trkpt lat="43.9351246" lon="12.2168193"><ele>560.5</ele><time>2026-04-26T14:42:09.028Z</time></trkpt><trkpt lat="43.935144" lon="12.2167055"><ele>560.6666666666666</ele><time>2026-04-26T14:42:11.023Z</time></trkpt><trkpt lat="43.9350908" lon="12.2166555"><ele>560.8333333333334</ele><time>2026-04-26T14:42:12.023Z</time></trkpt><trkpt lat="43.9350201" lon="12.2165817"><ele>561.0</ele><time>2026-04-26T14:42:14.021Z</time></trkpt><trkpt lat="43.9349467" lon="12.2165249"><ele>558.8333333333334</ele><time>2026-04-26T14:42:16.026Z</time></trkpt><trkpt lat="43.9349825" lon="12.2163883"><ele>556.6666666666666</ele><time>2026-04-26T14:42:19.025Z</time></trkpt><trkpt lat="43.9350395" lon="12.2163459"><ele>554.5</ele><time>2026-04-26T14:42:20.023Z</time></trkpt><trkpt lat="43.935107" lon="12.2163259"><ele>552.3333333333333</ele><time>2026-04-26T14:42:21.024Z</time></trkpt><trkpt lat="43.9351774" lon="12.2163488"><ele>550.1666666666666</ele><time>2026-04-26T14:42:22.024Z</time></trkpt><trkpt lat="43.9352498" lon="12.2163839"><ele>548.0</ele><time>2026-04-26T14:42:23.022Z</time></trkpt><trkpt lat="43.9353161" lon="12.2163857"><ele>548.0</ele><time>2026-04-26T14:42:24.026Z</time></trkpt><trkpt lat="43.9354094" lon="12.2162946"><ele>548.0</ele><time>2026-04-26T14:42:26.024Z</time></trkpt><trkpt lat="43.9354315" lon="12.2161884"><ele>548.0</ele><time>2026-04-26T14:42:27.025Z</time></trkpt><trkpt lat="43.935452" lon="12.2160894"><ele>548.0</ele><time>2026-04-26T14:42:28.026Z</time></trkpt><trkpt lat="43.9354905" lon="12.2159964"><ele>548.0</ele><time>2026-04-26T14:42:29.024Z</time></trkpt><trkpt lat="43.935543" lon="12.2158892"><ele>548.0</ele><time>2026-04-26T14:42:30.022Z</time></trkpt><trkpt lat="43.9356015" lon="12.2157509"><ele>548.6</ele><time>2026-04-26T14:42:31.023Z</time></trkpt><trkpt lat="43.9356848" lon="12.2156326"><ele>549.1999999999999</ele><time>2026-04-26T14:42:32.025Z</time></trkpt><trkpt lat="43.9357678" lon="12.2155377"><ele>549.8</ele><time>2026-04-26T14:42:33.025Z</time></trkpt><trkpt lat="43.9358439" lon="12.215461"><ele>550.4</ele><time>2026-04-26T14:42:34.028Z</time></trkpt><trkpt lat="43.9359134" lon="12.2154021"><ele>551.0</ele><time>2026-04-26T14:42:35.023Z</time></trkpt><trkpt lat="43.9359778" lon="12.2153354"><ele>551.0</ele><time>2026-04-26T14:42:36.028Z</time></trkpt><trkpt lat="43.9360376" lon="12.2152473"><ele>551.0</ele><time>2026-04-26T14:42:37.025Z</time></trkpt><trkpt lat="43.9360963" lon="12.2151478"><ele>551.0</ele><time>2026-04-26T14:42:38.023Z</time></trkpt><trkpt lat="43.93615" lon="12.2150323"><ele>551.0</ele><time>2026-04-26T14:42:39.026Z</time></trkpt><trkpt lat="43.9362113" lon="12.2149131"><ele>551.0</ele><time>2026-04-26T14:42:40.024Z</time></trkpt><trkpt lat="43.9362905" lon="12.2148119"><ele>545.0</ele><time>2026-04-26T14:42:41.029Z</time></trkpt><trkpt lat="43.9363825" lon="12.2147221"><ele>539.0</ele><time>2026-04-26T14:42:42.025Z</time></trkpt><trkpt lat="43.9364665" lon="12.214633"><ele>533.0</ele><time>2026-04-26T14:42:43.025Z</time></trkpt><trkpt lat="43.9365368" lon="12.2145443"><ele>527.0</ele><time>2026-04-26T14:42:44.024Z</time></trkpt><trkpt lat="43.9366054" lon="12.2144679"><ele>521.0</ele><time>2026-04-26T14:42:45.026Z</time></trkpt><trkpt lat="43.9366762" lon="12.2144134"><ele>519.4</ele><time>2026-04-26T14:42:46.024Z</time></trkpt><trkpt lat="43.9367591" lon="12.2143618"><ele>517.8</ele><time>2026-04-26T14:42:47.023Z</time></trkpt><trkpt lat="43.9368506" lon="12.2143014"><ele>516.1999999999999</ele><time>2026-04-26T14:42:48.023Z</time></trkpt><trkpt lat="43.9369318" lon="12.2142259"><ele>514.6</ele><time>2026-04-26T14:42:49.025Z</time></trkpt><trkpt lat="43.9370033" lon="12.2141408"><ele>513.0</ele><time>2026-04-26T14:42:50.025Z</time></trkpt><trkpt lat="43.9370651" lon="12.2140405"><ele>509.4</ele><time>2026-04-26T14:42:51.028Z</time></trkpt><trkpt lat="43.9371143" lon="12.2139107"><ele>505.79999999999995</ele><time>2026-04-26T14:42:52.023Z</time></trkpt><trkpt lat="43.9371605" lon="12.2137694"><ele>502.2</ele><time>2026-04-26T14:42:53.024Z</time></trkpt><trkpt lat="43.9372175" lon="12.2136324"><ele>498.6</ele><time>2026-04-26T14:42:54.025Z</time></trkpt><trkpt lat="43.9372678" lon="12.2134928"><ele>495.0</ele><time>2026-04-26T14:42:55.024Z</time></trkpt><trkpt lat="43.9373151" lon="12.2133478"><ele>495.0</ele><time>2026-04-26T14:42:56.028Z</time></trkpt><trkpt lat="43.9373605" lon="12.2132102"><ele>495.0</ele><time>2026-04-26T14:42:57.028Z</time></trkpt><trkpt lat="43.9374004" lon="12.2130945"><ele>495.0</ele><time>2026-04-26T14:42:58.022Z</time></trkpt><trkpt lat="43.9374391" lon="12.2129922"><ele>495.0</ele><time>2026-04-26T14:42:59.026Z</time></trkpt><trkpt lat="43.9374772" lon="12.2129054"><ele>495.0</ele><time>2026-04-26T14:43:00.024Z</time></trkpt><trkpt lat="43.9375122" lon="12.2128153"><ele>495.0</ele><time>2026-04-26T14:43:01.029Z</time></trkpt><trkpt lat="43.9375355" lon="12.2127153"><ele>489.8</ele><time>2026-04-26T14:43:02.024Z</time></trkpt><trkpt lat="43.9375587" lon="12.2125933"><ele>484.6</ele><time>2026-04-26T14:43:03.023Z</time></trkpt><trkpt lat="43.9375825" lon="12.2124634"><ele>479.4</ele><time>2026-04-26T14:43:04.026Z</time></trkpt><trkpt lat="43.9376191" lon="12.2123358"><ele>474.2</ele><time>2026-04-26T14:43:05.023Z</time></trkpt><trkpt lat="43.9376682" lon="12.2122051"><ele>469.0</ele><time>2026-04-26T14:43:06.028Z</time></trkpt><trkpt lat="43.9377222" lon="12.2120753"><ele>469.0</ele><time>2026-04-26T14:43:07.026Z</time></trkpt><trkpt lat="43.9377723" lon="12.2119508"><ele>469.0</ele><time>2026-04-26T14:43:08.022Z</time></trkpt><trkpt lat="43.9378216" lon="12.2118356"><ele>469.0</ele><time>2026-04-26T14:43:09.025Z</time></trkpt><trkpt lat="43.9378787" lon="12.2117285"><ele>469.0</ele><time>2026-04-26T14:43:10.024Z</time></trkpt><trkpt lat="43.937946" lon="12.2116237"><ele>469.0</ele><time>2026-04-26T14:43:11.028Z</time></trkpt><trkpt lat="43.938007" lon="12.2115248"><ele>467.0</ele><time>2026-04-26T14:43:12.027Z</time></trkpt><trkpt lat="43.9380584" lon="12.2114136"><ele>465.0</ele><time>2026-04-26T14:43:13.024Z</time></trkpt><trkpt lat="43.9381239" lon="12.2113079"><ele>463.0</ele><time>2026-04-26T14:43:14.022Z</time></trkpt><trkpt lat="43.9381887" lon="12.2111908"><ele>461.0</ele><time>2026-04-26T14:43:15.022Z</time></trkpt><trkpt lat="43.9382435" lon="12.2110477"><ele>459.0</ele><time>2026-04-26T14:43:16.025Z</time></trkpt><trkpt lat="43.9382835" lon="12.2108766"><ele>459.0</ele><time>2026-04-26T14:43:17.025Z</time></trkpt><trkpt lat="43.938308" lon="12.2107084"><ele>459.0</ele><time>2026-04-26T14:43:18.025Z</time></trkpt><trkpt lat="43.9383304" lon="12.2105462"><ele>459.0</ele><time>2026-04-26T14:43:19.025Z</time></trkpt><trkpt lat="43.9383568" lon="12.2103909"><ele>459.0</ele><time>2026-04-26T14:43:20.025Z</time></trkpt><trkpt lat="43.9383915" lon="12.2102577"><ele>453.5</ele><time>2026-04-26T14:43:21.026Z</time></trkpt><trkpt lat="43.9384252" lon="12.21014"><ele>448.0</ele><time>2026-04-26T14:43:22.028Z</time></trkpt><trkpt lat="43.9384574" lon="12.2100366"><ele>442.5</ele><time>2026-04-26T14:43:23.027Z</time></trkpt><trkpt lat="43.9384927" lon="12.2099434"><ele>437.0</ele><time>2026-04-26T14:43:24.024Z</time></trkpt><trkpt lat="43.9385657" lon="12.2098878"><ele>431.5</ele><time>2026-04-26T14:43:25.028Z</time></trkpt><trkpt lat="43.9386332" lon="12.2098229"><ele>426.0</ele><time>2026-04-26T14:43:26.022Z</time></trkpt><trkpt lat="43.9386983" lon="12.2097458"><ele>426.0</ele><time>2026-04-26T14:43:27.025Z</time></trkpt><trkpt lat="43.9387645" lon="12.2096592"><ele>426.0</ele><time>2026-04-26T14:43:28.023Z</time></trkpt><trkpt lat="43.9388361" lon="12.2095685"><ele>426.0</ele><time>2026-04-26T14:43:29.022Z</time></trkpt><trkpt lat="43.9389111" lon="12.2094722"><ele>426.0</ele><time>2026-04-26T14:43:30.03Z</time></trkpt><trkpt lat="43.9389886" lon="12.2093765"><ele>426.0</ele><time>2026-04-26T14:43:31.025Z</time></trkpt><trkpt lat="43.939075" lon="12.2092882"><ele>426.0</ele><time>2026-04-26T14:43:32.027Z</time></trkpt><trkpt lat="43.9391602" lon="12.2092029"><ele>426.0</ele><time>2026-04-26T14:43:33.025Z</time></trkpt><trkpt lat="43.939252" lon="12.2091331"><ele>426.0</ele><time>2026-04-26T14:43:34.023Z</time></trkpt><trkpt lat="43.9393478" lon="12.2090788"><ele>426.0</ele><time>2026-04-26T14:43:35.025Z</time></trkpt><trkpt lat="43.9394439" lon="12.2090601"><ele>426.0</ele><time>2026-04-26T14:43:36.023Z</time></trkpt><trkpt lat="43.9395267" lon="12.2090683"><ele>422.1666666666667</ele><time>2026-04-26T14:43:37.03Z</time></trkpt><trkpt lat="43.9395933" lon="12.2090467"><ele>418.33333333333337</ele><time>2026-04-26T14:43:38.023Z</time></trkpt><trkpt lat="43.93969" lon="12.2090033"><ele>414.5</ele><time>2026-04-26T14:43:40.026Z</time></trkpt><trkpt lat="43.939745" lon="12.20892"><ele>410.6666666666667</ele><time>2026-04-26T14:43:42.025Z</time></trkpt><trkpt lat="43.939775" lon="12.208765"><ele>406.83333333333337</ele><time>2026-04-26T14:43:44.023Z</time></trkpt><trkpt lat="43.9397967" lon="12.2086683"><ele>403.0</ele><time>2026-04-26T14:43:45.023Z</time></trkpt><trkpt lat="43.9398517" lon="12.2085633"><ele>402.50000000000006</ele><time>2026-04-26T14:43:46.025Z</time></trkpt><trkpt lat="43.9399167" lon="12.2084583"><ele>402.0</ele><time>2026-04-26T14:43:47.024Z</time></trkpt><trkpt lat="43.9399733" lon="12.2083667"><ele>401.5</ele><time>2026-04-26T14:43:48.029Z</time></trkpt><trkpt lat="43.9400183" lon="12.20829"><ele>401.0</ele><time>2026-04-26T14:43:49.023Z</time></trkpt><trkpt lat="43.9400883" lon="12.2081767"><ele>400.50000000000006</ele><time>2026-04-26T14:43:51.024Z</time></trkpt><trkpt lat="43.940155" lon="12.20819"><ele>400.0</ele><time>2026-04-26T14:43:53.022Z</time></trkpt><trkpt lat="43.94018" lon="12.208275"><ele>397.33333333333337</ele><time>2026-04-26T14:43:55.023Z</time></trkpt><trkpt lat="43.9401733" lon="12.2084017"><ele>394.6666666666667</ele><time>2026-04-26T14:43:57.024Z</time></trkpt><trkpt lat="43.94022" lon="12.208485"><ele>392.0</ele><time>2026-04-26T14:44:00.025Z</time></trkpt><trkpt lat="43.940285" lon="12.208455"><ele>389.33333333333337</ele><time>2026-04-26T14:44:02.023Z</time></trkpt><trkpt lat="43.9403517" lon="12.2083717"><ele>386.6666666666667</ele><time>2026-04-26T14:44:03.025Z</time></trkpt><trkpt lat="43.9404267" lon="12.208295"><ele>384.0</ele><time>2026-04-26T14:44:04.022Z</time></trkpt><trkpt lat="43.9405217" lon="12.2082533"><ele>384.0</ele><time>2026-04-26T14:44:05.026Z</time></trkpt><trkpt lat="43.9406217" lon="12.208205"><ele>384.0</ele><time>2026-04-26T14:44:06.024Z</time></trkpt><trkpt lat="43.94072" lon="12.2081583"><ele>384.0</ele><time>2026-04-26T14:44:07.025Z</time></trkpt><trkpt lat="43.9408133" lon="12.2081333"><ele>384.0</ele><time>2026-04-26T14:44:08.028Z</time></trkpt><trkpt lat="43.9409033" lon="12.2081133"><ele>384.0</ele><time>2026-04-26T14:44:09.025Z</time></trkpt><trkpt lat="43.9409817" lon="12.20808"><ele>380.0</ele><time>2026-04-26T14:44:10.029Z</time></trkpt><trkpt lat="43.941035" lon="12.2080083"><ele>376.0</ele><time>2026-04-26T14:44:11.024Z</time></trkpt><trkpt lat="43.9410678" lon="12.2079245"><ele>372.0</ele><time>2026-04-26T14:44:12.026Z</time></trkpt><trkpt lat="43.9410785" lon="12.2078321"><ele>368.0</ele><time>2026-04-26T14:44:13.025Z</time></trkpt><trkpt lat="43.9410538" lon="12.2077282"><ele>364.0</ele><time>2026-04-26T14:44:14.025Z</time></trkpt><trkpt lat="43.9409954" lon="12.2076147"><ele>360.0</ele><time>2026-04-26T14:44:15.027Z</time></trkpt><trkpt lat="43.9409062" lon="12.2075004"><ele>360.25</ele><time>2026-04-26T14:44:16.023Z</time></trkpt><trkpt lat="43.9408025" lon="12.2073992"><ele>360.5</ele><time>2026-04-26T14:44:17.027Z</time></trkpt><trkpt lat="43.9407009" lon="12.2072893"><ele>360.75</ele><time>2026-04-26T14:44:18.024Z</time></trkpt><trkpt lat="43.9406144" lon="12.2071521"><ele>361.0</ele><time>2026-04-26T14:44:19.023Z</time></trkpt><trkpt lat="43.9405525" lon="12.2069845"><ele>361.0</ele><time>2026-04-26T14:44:20.024Z</time></trkpt><trkpt lat="43.9404963" lon="12.2068192"><ele>361.0</ele><time>2026-04-26T14:44:21.026Z</time></trkpt><trkpt lat="43.9404444" lon="12.2066702"><ele>361.0</ele><time>2026-04-26T14:44:22.029Z</time></trkpt><trkpt lat="43.9403994" lon="12.2065428"><ele>361.0</ele><time>2026-04-26T14:44:23.024Z</time></trkpt><trkpt lat="43.9403597" lon="12.2064337"><ele>361.0</ele><time>2026-04-26T14:44:24.03Z</time></trkpt><trkpt lat="43.9403231" lon="12.2063385"><ele>360.66666666666663</ele><time>2026-04-26T14:44:25.024Z</time></trkpt><trkpt lat="43.9402628" lon="12.2062666"><ele>360.3333333333333</ele><time>2026-04-26T14:44:26.025Z</time></trkpt><trkpt lat="43.9401826" lon="12.2062197"><ele>360.0</ele><time>2026-04-26T14:44:27.025Z</time></trkpt><trkpt lat="43.9400961" lon="12.20618"><ele>359.6666666666667</ele><time>2026-04-26T14:44:28.024Z</time></trkpt><trkpt lat="43.9400147" lon="12.2061494"><ele>359.33333333333337</ele><time>2026-04-26T14:44:29.03Z</time></trkpt><trkpt lat="43.9399491" lon="12.2061059"><ele>359.0</ele><time>2026-04-26T14:44:30.023Z</time></trkpt><trkpt lat="43.9398453" lon="12.2060178"><ele>359.0</ele><time>2026-04-26T14:44:32.025Z</time></trkpt><trkpt lat="43.9397809" lon="12.205878"><ele>359.0</ele><time>2026-04-26T14:44:34.024Z</time></trkpt><trkpt lat="43.9398043" lon="12.2057097"><ele>359.0</ele><time>2026-04-26T14:44:36.024Z</time></trkpt><trkpt lat="43.9398762" lon="12.205622"><ele>359.0</ele><time>2026-04-26T14:44:37.024Z</time></trkpt><trkpt lat="43.9399532" lon="12.2055227"><ele>359.0</ele><time>2026-04-26T14:44:38.025Z</time></trkpt><trkpt lat="43.940032" lon="12.2053905"><ele>355.75</ele><time>2026-04-26T14:44:39.027Z</time></trkpt><trkpt lat="43.940136" lon="12.2052553"><ele>352.5</ele><time>2026-04-26T14:44:40.024Z</time></trkpt><trkpt lat="43.940234" lon="12.2051128"><ele>349.25</ele><time>2026-04-26T14:44:41.03Z</time></trkpt><trkpt lat="43.9403252" lon="12.2049732"><ele>346.0</ele><time>2026-04-26T14:44:42.026Z</time></trkpt><trkpt lat="43.940415" lon="12.2048305"><ele>345.66666666666663</ele><time>2026-04-26T14:44:43.025Z</time></trkpt><trkpt lat="43.9404933" lon="12.2046579"><ele>345.3333333333333</ele><time>2026-04-26T14:44:44.024Z</time></trkpt><trkpt lat="43.9405559" lon="12.2044537"><ele>345.0</ele><time>2026-04-26T14:44:45.027Z</time></trkpt><trkpt lat="43.9406189" lon="12.2042197"><ele>345.6666666666667</ele><time>2026-04-26T14:44:46.024Z</time></trkpt><trkpt lat="43.9406812" lon="12.2039605"><ele>346.33333333333337</ele><time>2026-04-26T14:44:47.028Z</time></trkpt><trkpt lat="43.94075" lon="12.2036884"><ele>347.0</ele><time>2026-04-26T14:44:48.024Z</time></trkpt><trkpt lat="43.9408163" lon="12.2034118"><ele>347.0</ele><time>2026-04-26T14:44:49.024Z</time></trkpt><trkpt lat="43.9408686" lon="12.2031376"><ele>347.0</ele><time>2026-04-26T14:44:50.025Z</time></trkpt><trkpt lat="43.940906" lon="12.2028681"><ele>347.0</ele><time>2026-04-26T14:44:51.024Z</time></trkpt><trkpt lat="43.9409402" lon="12.2025924"><ele>350.0</ele><time>2026-04-26T14:44:52.027Z</time></trkpt><trkpt lat="43.9409579" lon="12.2023103"><ele>353.0</ele><time>2026-04-26T14:44:53.024Z</time></trkpt><trkpt lat="43.9409696" lon="12.2020436"><ele>356.0</ele><time>2026-04-26T14:44:54.029Z</time></trkpt><trkpt lat="43.9409767" lon="12.2018061"><ele>356.0</ele><time>2026-04-26T14:44:55.024Z</time></trkpt><trkpt lat="43.9409767" lon="12.201601"><ele>356.0</ele><time>2026-04-26T14:44:56.025Z</time></trkpt><trkpt lat="43.9409785" lon="12.2014269"><ele>356.0</ele><time>2026-04-26T14:44:57.025Z</time></trkpt><trkpt lat="43.9409867" lon="12.2012822"><ele>356.0</ele><time>2026-04-26T14:44:58.027Z</time></trkpt><trkpt lat="43.9410163" lon="12.2011663"><ele>357.83333333333337</ele><time>2026-04-26T14:44:59.026Z</time></trkpt><trkpt lat="43.9410597" lon="12.201065"><ele>359.6666666666667</ele><time>2026-04-26T14:45:00.026Z</time></trkpt><trkpt lat="43.9411198" lon="12.2009849"><ele>361.5</ele><time>2026-04-26T14:45:01.025Z</time></trkpt><trkpt lat="43.9411872" lon="12.2009268"><ele>363.3333333333333</ele><time>2026-04-26T14:45:02.023Z</time></trkpt><trkpt lat="43.9412486" lon="12.2008688"><ele>365.16666666666663</ele><time>2026-04-26T14:45:03.024Z</time></trkpt><trkpt lat="43.9412936" lon="12.2008017"><ele>367.0</ele><time>2026-04-26T14:45:04.025Z</time></trkpt><trkpt lat="43.9413059" lon="12.2006171"><ele>369.75</ele><time>2026-04-26T14:45:06.031Z</time></trkpt><trkpt lat="43.9412933" lon="12.2004902"><ele>372.5</ele><time>2026-04-26T14:45:07.025Z</time></trkpt><trkpt lat="43.9412828" lon="12.2003404"><ele>375.25</ele><time>2026-04-26T14:45:08.029Z</time></trkpt><trkpt lat="43.94128" lon="12.2001363"><ele>378.0</ele><time>2026-04-26T14:45:09.025Z</time></trkpt><trkpt lat="43.9412833" lon="12.1999392"><ele>378.0</ele><time>2026-04-26T14:45:10.027Z</time></trkpt><trkpt lat="43.9412998" lon="12.1997892"><ele>378.0</ele><time>2026-04-26T14:45:11.026Z</time></trkpt><trkpt lat="43.9413198" lon="12.1996718"><ele>378.0</ele><time>2026-04-26T14:45:12.029Z</time></trkpt><trkpt lat="43.9413449" lon="12.1995561"><ele>378.0</ele><time>2026-04-26T14:45:14.027Z</time></trkpt><trkpt lat="43.9413251" lon="12.199463"><ele>378.0</ele><time>2026-04-26T14:45:17.029Z</time></trkpt><trkpt lat="43.9413336" lon="12.1993738"><ele>378.0</ele><time>2026-04-26T14:45:18.026Z</time></trkpt><trkpt lat="43.9413534" lon="12.1992702"><ele>378.0</ele><time>2026-04-26T14:45:19.027Z</time></trkpt><trkpt lat="43.9413967" lon="12.1991608"><ele>378.0</ele><time>2026-04-26T14:45:20.026Z</time></trkpt><trkpt lat="43.9414426" lon="12.1990566"><ele>378.0</ele><time>2026-04-26T14:45:21.027Z</time></trkpt><trkpt lat="43.9414799" lon="12.1989593"><ele>378.0</ele><time>2026-04-26T14:45:22.03Z</time></trkpt><trkpt lat="43.9414975" lon="12.1988552"><ele>378.0</ele><time>2026-04-26T14:45:23.026Z</time></trkpt><trkpt lat="43.9414988" lon="12.1987466"><ele>378.0</ele><time>2026-04-26T14:45:24.026Z</time></trkpt><trkpt lat="43.9414886" lon="12.1986361"><ele>375.8333333333333</ele><time>2026-04-26T14:45:25.026Z</time></trkpt><trkpt lat="43.9414743" lon="12.1985131"><ele>373.6666666666667</ele><time>2026-04-26T14:45:26.025Z</time></trkpt><trkpt lat="43.9414673" lon="12.1983804"><ele>371.5</ele><time>2026-04-26T14:45:27.025Z</time></trkpt><trkpt lat="43.941467" lon="12.1982545"><ele>369.33333333333337</ele><time>2026-04-26T14:45:28.03Z</time></trkpt><trkpt lat="43.9414889" lon="12.1981449"><ele>367.1666666666667</ele><time>2026-04-26T14:45:29.025Z</time></trkpt><trkpt lat="43.9415192" lon="12.1980454"><ele>365.0</ele><time>2026-04-26T14:45:30.026Z</time></trkpt><trkpt lat="43.941565" lon="12.1979618"><ele>363.83333333333337</ele><time>2026-04-26T14:45:31.024Z</time></trkpt><trkpt lat="43.9416254" lon="12.197901"><ele>362.6666666666667</ele><time>2026-04-26T14:45:32.025Z</time></trkpt><trkpt lat="43.9416983" lon="12.1978583"><ele>361.5</ele><time>2026-04-26T14:45:33.025Z</time></trkpt><trkpt lat="43.9417792" lon="12.1978432"><ele>360.3333333333333</ele><time>2026-04-26T14:45:34.025Z</time></trkpt><trkpt lat="43.9418604" lon="12.1978446"><ele>359.16666666666663</ele><time>2026-04-26T14:45:35.03Z</time></trkpt><trkpt lat="43.9419351" lon="12.1978528"><ele>358.0</ele><time>2026-04-26T14:45:36.026Z</time></trkpt><trkpt lat="43.9419986" lon="12.1978377"><ele>357.2</ele><time>2026-04-26T14:45:37.026Z</time></trkpt><trkpt lat="43.9421042" lon="12.1977721"><ele>356.4</ele><time>2026-04-26T14:45:39.024Z</time></trkpt><trkpt lat="43.9421372" lon="12.1976704"><ele>355.59999999999997</ele><time>2026-04-26T14:45:41.027Z</time></trkpt><trkpt lat="43.942043" lon="12.1975406"><ele>354.79999999999995</ele><time>2026-04-26T14:45:43.025Z</time></trkpt><trkpt lat="43.9419606" lon="12.1974817"><ele>354.0</ele><time>2026-04-26T14:45:44.025Z</time></trkpt><trkpt lat="43.9418848" lon="12.1974059"><ele>351.6666666666667</ele><time>2026-04-26T14:45:45.025Z</time></trkpt><trkpt lat="43.9418332" lon="12.1973262"><ele>349.3333333333333</ele><time>2026-04-26T14:45:46.024Z</time></trkpt><trkpt lat="43.9418105" lon="12.1971983"><ele>347.0</ele><time>2026-04-26T14:45:48.026Z</time></trkpt><trkpt lat="43.9418788" lon="12.1971319"><ele>344.66666666666663</ele><time>2026-04-26T14:45:50.025Z</time></trkpt><trkpt lat="43.9419833" lon="12.1971467"><ele>342.3333333333333</ele><time>2026-04-26T14:45:52.024Z</time></trkpt><trkpt lat="43.9420683" lon="12.197175"><ele>340.0</ele><time>2026-04-26T14:45:53.024Z</time></trkpt><trkpt lat="43.9421567" lon="12.1971783"><ele>340.0</ele><time>2026-04-26T14:45:54.026Z</time></trkpt><trkpt lat="43.94227" lon="12.1971483"><ele>340.0</ele><time>2026-04-26T14:45:55.026Z</time></trkpt><trkpt lat="43.9423867" lon="12.1970917"><ele>340.0</ele><time>2026-04-26T14:45:56.026Z</time></trkpt><trkpt lat="43.94251" lon="12.1970383"><ele>340.0</ele><time>2026-04-26T14:45:57.025Z</time></trkpt><trkpt lat="43.9426087" lon="12.1969713"><ele>340.0</ele><time>2026-04-26T14:45:58.029Z</time></trkpt><trkpt lat="43.9427363" lon="12.1969245"><ele>340.0</ele><time>2026-04-26T14:45:59.026Z</time></trkpt><trkpt lat="43.9428516" lon="12.1968786"><ele>340.0</ele><time>2026-04-26T14:46:00.025Z</time></trkpt><trkpt lat="43.9429588" lon="12.1968411"><ele>340.0</ele><time>2026-04-26T14:46:01.026Z</time></trkpt><trkpt lat="43.9430619" lon="12.1968117"><ele>340.0</ele><time>2026-04-26T14:46:02.025Z</time></trkpt><trkpt lat="43.9431567" lon="12.1967703"><ele>340.0</ele><time>2026-04-26T14:46:03.029Z</time></trkpt><trkpt lat="43.9432437" lon="12.1967143"><ele>340.0</ele><time>2026-04-26T14:46:04.027Z</time></trkpt><trkpt lat="43.9433278" lon="12.1966427"><ele>340.0</ele><time>2026-04-26T14:46:05.025Z</time></trkpt><trkpt lat="43.9434133" lon="12.196564"><ele>340.0</ele><time>2026-04-26T14:46:06.025Z</time></trkpt><trkpt lat="43.9434904" lon="12.1964724"><ele>338.3333333333333</ele><time>2026-04-26T14:46:07.026Z</time></trkpt><trkpt lat="43.9435663" lon="12.1963828"><ele>336.66666666666663</ele><time>2026-04-26T14:46:08.026Z</time></trkpt><trkpt lat="43.943641" lon="12.1962989"><ele>335.0</ele><time>2026-04-26T14:46:09.025Z</time></trkpt><trkpt lat="43.9437156" lon="12.1962343"><ele>333.3333333333333</ele><time>2026-04-26T14:46:10.03Z</time></trkpt><trkpt lat="43.9437791" lon="12.1961746"><ele>331.6666666666667</ele><time>2026-04-26T14:46:11.025Z</time></trkpt><trkpt lat="43.943842" lon="12.19614"><ele>330.0</ele><time>2026-04-26T14:46:12.026Z</time></trkpt><trkpt lat="43.9439064" lon="12.1961396"><ele>330.0</ele><time>2026-04-26T14:46:13.024Z</time></trkpt><trkpt lat="43.9439755" lon="12.1961626"><ele>330.0</ele><time>2026-04-26T14:46:14.026Z</time></trkpt><trkpt lat="43.9440495" lon="12.1962228"><ele>330.0</ele><time>2026-04-26T14:46:15.026Z</time></trkpt><trkpt lat="43.9441366" lon="12.1963013"><ele>330.0</ele><time>2026-04-26T14:46:16.024Z</time></trkpt><trkpt lat="43.9442404" lon="12.1963926"><ele>330.0</ele><time>2026-04-26T14:46:17.027Z</time></trkpt><trkpt lat="43.9443467" lon="12.1964711"><ele>328.0</ele><time>2026-04-26T14:46:18.025Z</time></trkpt><trkpt lat="43.9444544" lon="12.196533"><ele>326.0</ele><time>2026-04-26T14:46:19.025Z</time></trkpt><trkpt lat="43.9445708" lon="12.1965822"><ele>324.0</ele><time>2026-04-26T14:46:20.026Z</time></trkpt><trkpt lat="43.9446899" lon="12.1966402"><ele>322.0</ele><time>2026-04-26T14:46:21.026Z</time></trkpt><trkpt lat="43.9448007" lon="12.1967009"><ele>322.0</ele><time>2026-04-26T14:46:22.025Z</time></trkpt><trkpt lat="43.9449025" lon="12.1967632"><ele>322.0</ele><time>2026-04-26T14:46:23.024Z</time></trkpt><trkpt lat="43.9449962" lon="12.1968366"><ele>322.0</ele><time>2026-04-26T14:46:24.025Z</time></trkpt><trkpt lat="43.9450809" lon="12.1969316"><ele>322.0</ele><time>2026-04-26T14:46:25.03Z</time></trkpt><trkpt lat="43.9451674" lon="12.1970302"><ele>322.0</ele><time>2026-04-26T14:46:26.026Z</time></trkpt><trkpt lat="43.9452621" lon="12.1971203"><ele>318.5</ele><time>2026-04-26T14:46:27.024Z</time></trkpt><trkpt lat="43.9453617" lon="12.1971841"><ele>315.0</ele><time>2026-04-26T14:46:28.025Z</time></trkpt><trkpt lat="43.9454709" lon="12.1972211"><ele>311.5</ele><time>2026-04-26T14:46:29.025Z</time></trkpt><trkpt lat="43.9455905" lon="12.1972135"><ele>308.0</ele><time>2026-04-26T14:46:30.025Z</time></trkpt><trkpt lat="43.9457177" lon="12.1971736"><ele>308.0</ele><time>2026-04-26T14:46:31.024Z</time></trkpt><trkpt lat="43.9458374" lon="12.197133"><ele>308.0</ele><time>2026-04-26T14:46:32.025Z</time></trkpt><trkpt lat="43.9459485" lon="12.1970846"><ele>308.0</ele><time>2026-04-26T14:46:33.024Z</time></trkpt><trkpt lat="43.9460565" lon="12.1970341"><ele>308.0</ele><time>2026-04-26T14:46:34.026Z</time></trkpt><trkpt lat="43.9461553" lon="12.1969499"><ele>308.0</ele><time>2026-04-26T14:46:35.029Z</time></trkpt><trkpt lat="43.94624" lon="12.1968679"><ele>308.0</ele><time>2026-04-26T14:46:36.025Z</time></trkpt><trkpt lat="43.9463121" lon="12.1967846"><ele>308.0</ele><time>2026-04-26T14:46:37.025Z</time></trkpt><trkpt lat="43.9463724" lon="12.196698"><ele>308.0</ele><time>2026-04-26T14:46:38.024Z</time></trkpt><trkpt lat="43.9464369" lon="12.1966291"><ele>308.0</ele><time>2026-04-26T14:46:39.026Z</time></trkpt><trkpt lat="43.9465103" lon="12.1965847"><ele>308.0</ele><time>2026-04-26T14:46:40.027Z</time></trkpt><trkpt lat="43.94658" lon="12.1965523"><ele>308.0</ele><time>2026-04-26T14:46:41.025Z</time></trkpt><trkpt lat="43.9466475" lon="12.1965551"><ele>308.0</ele><time>2026-04-26T14:46:42.029Z</time></trkpt><trkpt lat="43.9467469" lon="12.1966608"><ele>308.0</ele><time>2026-04-26T14:46:44.026Z</time></trkpt><trkpt lat="43.9467747" lon="12.1967595"><ele>308.0</ele><time>2026-04-26T14:46:45.025Z</time></trkpt><trkpt lat="43.9467667" lon="12.1969167"><ele>308.0</ele><time>2026-04-26T14:46:46.025Z</time></trkpt><trkpt lat="43.9467408" lon="12.1970962"><ele>308.0</ele><time>2026-04-26T14:46:47.026Z</time></trkpt><trkpt lat="43.9466785" lon="12.1972756"><ele>308.0</ele><time>2026-04-26T14:46:48.027Z</time></trkpt><trkpt lat="43.9466138" lon="12.1974284"><ele>308.0</ele><time>2026-04-26T14:46:49.027Z</time></trkpt><trkpt lat="43.946553" lon="12.1975561"><ele>308.0</ele><time>2026-04-26T14:46:50.025Z</time></trkpt><trkpt lat="43.9465022" lon="12.1976643"><ele>308.1666666666667</ele><time>2026-04-26T14:46:51.028Z</time></trkpt><trkpt lat="43.9464619" lon="12.1977545"><ele>308.33333333333337</ele><time>2026-04-26T14:46:52.028Z</time></trkpt><trkpt lat="43.9464105" lon="12.1978863"><ele>308.5</ele><time>2026-04-26T14:46:54.025Z</time></trkpt><trkpt lat="43.9464238" lon="12.197973"><ele>308.6666666666667</ele><time>2026-04-26T14:46:56.024Z</time></trkpt><trkpt lat="43.9464941" lon="12.1979859"><ele>308.8333333333333</ele><time>2026-04-26T14:46:58.026Z</time></trkpt><trkpt lat="43.9465534" lon="12.1979221"><ele>309.0</ele><time>2026-04-26T14:46:59.025Z</time></trkpt><trkpt lat="43.946625" lon="12.1978274"><ele>309.0</ele><time>2026-04-26T14:47:00.025Z</time></trkpt><trkpt lat="43.9467062" lon="12.1977477"><ele>309.0</ele><time>2026-04-26T14:47:01.023Z</time></trkpt><trkpt lat="43.9467964" lon="12.197702"><ele>309.0</ele><time>2026-04-26T14:47:02.028Z</time></trkpt><trkpt lat="43.9468856" lon="12.1976636"><ele>309.0</ele><time>2026-04-26T14:47:03.025Z</time></trkpt><trkpt lat="43.9469773" lon="12.1976293"><ele>309.0</ele><time>2026-04-26T14:47:04.022Z</time></trkpt><trkpt lat="43.9470594" lon="12.1975774"><ele>303.0</ele><time>2026-04-26T14:47:05.025Z</time></trkpt><trkpt lat="43.9471398" lon="12.1975025"><ele>297.0</ele><time>2026-04-26T14:47:06.025Z</time></trkpt><trkpt lat="43.9472098" lon="12.1973986"><ele>291.0</ele><time>2026-04-26T14:47:07.028Z</time></trkpt><trkpt lat="43.9472567" lon="12.1972785"><ele>285.0</ele><time>2026-04-26T14:47:08.025Z</time></trkpt><trkpt lat="43.9472965" lon="12.1971655"><ele>279.0</ele><time>2026-04-26T14:47:09.028Z</time></trkpt><trkpt lat="43.9473343" lon="12.1970584"><ele>279.0</ele><time>2026-04-26T14:47:10.024Z</time></trkpt><trkpt lat="43.9473605" lon="12.1969455"><ele>279.0</ele><time>2026-04-26T14:47:11.025Z</time></trkpt><trkpt lat="43.9473673" lon="12.1968285"><ele>279.0</ele><time>2026-04-26T14:47:12.026Z</time></trkpt><trkpt lat="43.9473592" lon="12.1967139"><ele>279.0</ele><time>2026-04-26T14:47:13.025Z</time></trkpt><trkpt lat="43.9473507" lon="12.1965935"><ele>279.0</ele><time>2026-04-26T14:47:14.023Z</time></trkpt><trkpt lat="43.9473263" lon="12.1964629"><ele>279.0</ele><time>2026-04-26T14:47:15.029Z</time></trkpt><trkpt lat="43.9472972" lon="12.1963388"><ele>277.6666666666667</ele><time>2026-04-26T14:47:16.025Z</time></trkpt><trkpt lat="43.9472633" lon="12.196229"><ele>276.3333333333333</ele><time>2026-04-26T14:47:17.023Z</time></trkpt><trkpt lat="43.9472276" lon="12.1961349"><ele>275.0</ele><time>2026-04-26T14:47:18.023Z</time></trkpt><trkpt lat="43.947185" lon="12.1960667"><ele>273.66666666666663</ele><time>2026-04-26T14:47:19.024Z</time></trkpt><trkpt lat="43.9471065" lon="12.1959708"><ele>272.3333333333333</ele><time>2026-04-26T14:47:21.023Z</time></trkpt><trkpt lat="43.9470965" lon="12.1958613"><ele>271.0</ele><time>2026-04-26T14:47:23.024Z</time></trkpt><trkpt lat="43.9471453" lon="12.1958022"><ele>271.0</ele><time>2026-04-26T14:47:25.023Z</time></trkpt><trkpt lat="43.9472717" lon="12.1958856"><ele>271.0</ele><time>2026-04-26T14:47:27.027Z</time></trkpt><trkpt lat="43.9473579" lon="12.1959693"><ele>271.0</ele><time>2026-04-26T14:47:28.023Z</time></trkpt><trkpt lat="43.9474507" lon="12.1960653"><ele>271.0</ele><time>2026-04-26T14:47:29.03Z</time></trkpt><trkpt lat="43.9475457" lon="12.1961673"><ele>267.25</ele><time>2026-04-26T14:47:30.023Z</time></trkpt><trkpt lat="43.9476439" lon="12.1962729"><ele>263.5</ele><time>2026-04-26T14:47:31.022Z</time></trkpt><trkpt lat="43.9477531" lon="12.1963703"><ele>259.75</ele><time>2026-04-26T14:47:32.025Z</time></trkpt><trkpt lat="43.9478766" lon="12.1964441"><ele>256.0</ele><time>2026-04-26T14:47:33.024Z</time></trkpt><trkpt lat="43.9480005" lon="12.1964963"><ele>255.60000000000002</ele><time>2026-04-26T14:47:34.028Z</time></trkpt><trkpt lat="43.9481125" lon="12.1965513"><ele>255.20000000000002</ele><time>2026-04-26T14:47:35.023Z</time></trkpt><trkpt lat="43.9482228" lon="12.1965912"><ele>254.79999999999998</ele><time>2026-04-26T14:47:36.023Z</time></trkpt><trkpt lat="43.9483282" lon="12.1966227"><ele>254.39999999999998</ele><time>2026-04-26T14:47:37.025Z</time></trkpt><trkpt lat="43.9484273" lon="12.1966507"><ele>254.0</ele><time>2026-04-26T14:47:38.026Z</time></trkpt><trkpt lat="43.9485227" lon="12.1966673"><ele>254.0</ele><time>2026-04-26T14:47:39.031Z</time></trkpt><trkpt lat="43.9486112" lon="12.1966625"><ele>253.99999999999997</ele><time>2026-04-26T14:47:40.023Z</time></trkpt><trkpt lat="43.9486906" lon="12.1966343"><ele>253.99999999999997</ele><time>2026-04-26T14:47:41.026Z</time></trkpt><trkpt lat="43.9487727" lon="12.1965899"><ele>254.0</ele><time>2026-04-26T14:47:42.024Z</time></trkpt><trkpt lat="43.9488518" lon="12.196507"><ele>254.0</ele><time>2026-04-26T14:47:43.025Z</time></trkpt><trkpt lat="43.9489152" lon="12.1963848"><ele>253.83333333333334</ele><time>2026-04-26T14:47:44.025Z</time></trkpt><trkpt lat="43.948962" lon="12.1962625"><ele>253.66666666666669</ele><time>2026-04-26T14:47:45.029Z</time></trkpt><trkpt lat="43.9490105" lon="12.1961597"><ele>253.5</ele><time>2026-04-26T14:47:46.026Z</time></trkpt><trkpt lat="43.9490573" lon="12.196065"><ele>253.33333333333331</ele><time>2026-04-26T14:47:47.022Z</time></trkpt><trkpt lat="43.9490943" lon="12.1959784"><ele>253.16666666666666</ele><time>2026-04-26T14:47:48.025Z</time></trkpt><trkpt lat="43.9491322" lon="12.1959085"><ele>253.0</ele><time>2026-04-26T14:47:49.029Z</time></trkpt><trkpt lat="43.9491572" lon="12.195783"><ele>252.99999999999997</ele><time>2026-04-26T14:47:51.025Z</time></trkpt><trkpt lat="43.9490728" lon="12.1957401"><ele>253.0</ele><time>2026-04-26T14:47:53.024Z</time></trkpt><trkpt lat="43.9489936" lon="12.1957857"><ele>253.0</ele><time>2026-04-26T14:47:54.024Z</time></trkpt><trkpt lat="43.9489058" lon="12.1958156"><ele>253.0</ele><time>2026-04-26T14:47:55.025Z</time></trkpt><trkpt lat="43.948818" lon="12.1958132"><ele>252.99999999999997</ele><time>2026-04-26T14:47:56.029Z</time></trkpt><trkpt lat="43.9487344" lon="12.1957913"><ele>253.0</ele><time>2026-04-26T14:47:57.023Z</time></trkpt><trkpt lat="43.9486525" lon="12.1957431"><ele>249.60000000000002</ele><time>2026-04-26T14:47:58.023Z</time></trkpt><trkpt lat="43.9485869" lon="12.1956477"><ele>246.20000000000002</ele><time>2026-04-26T14:47:59.023Z</time></trkpt><trkpt lat="43.9485335" lon="12.1955299"><ele>242.8</ele><time>2026-04-26T14:48:00.026Z</time></trkpt><trkpt lat="43.9484991" lon="12.1953995"><ele>239.4</ele><time>2026-04-26T14:48:01.029Z</time></trkpt><trkpt lat="43.9484757" lon="12.1952728"><ele>236.0</ele><time>2026-04-26T14:48:02.023Z</time></trkpt><trkpt lat="43.9484505" lon="12.195154"><ele>236.0</ele><time>2026-04-26T14:48:03.024Z</time></trkpt><trkpt lat="43.948491" lon="12.1949718"><ele>236.0</ele><time>2026-04-26T14:48:04.023Z</time></trkpt><trkpt lat="43.9485452" lon="12.1947935"><ele>236.0</ele><time>2026-04-26T14:48:05.024Z</time></trkpt><trkpt lat="43.9485973" lon="12.1946326"><ele>236.0</ele><time>2026-04-26T14:48:06.024Z</time></trkpt><trkpt lat="43.9486496" lon="12.1944996"><ele>233.66666666666669</ele><time>2026-04-26T14:48:07.024Z</time></trkpt><trkpt lat="43.9486885" lon="12.1943817"><ele>231.33333333333334</ele><time>2026-04-26T14:48:08.029Z</time></trkpt><trkpt lat="43.9487135" lon="12.1942742"><ele>229.0</ele><time>2026-04-26T14:48:09.024Z</time></trkpt><trkpt lat="43.9487153" lon="12.1941692"><ele>226.66666666666669</ele><time>2026-04-26T14:48:10.024Z</time></trkpt><trkpt lat="43.9487137" lon="12.1940706"><ele>224.33333333333334</ele><time>2026-04-26T14:48:11.023Z</time></trkpt><trkpt lat="43.9487009" lon="12.1939825"><ele>222.0</ele><time>2026-04-26T14:48:12.022Z</time></trkpt><trkpt lat="43.9486263" lon="12.1938643"><ele>220.39999999999998</ele><time>2026-04-26T14:48:13.025Z</time></trkpt><trkpt lat="43.9485581" lon="12.1937479"><ele>218.79999999999998</ele><time>2026-04-26T14:48:14.023Z</time></trkpt><trkpt lat="43.9485215" lon="12.1936238"><ele>217.2</ele><time>2026-04-26T14:48:15.022Z</time></trkpt><trkpt lat="43.9484841" lon="12.1934942"><ele>215.6</ele><time>2026-04-26T14:48:16.025Z</time></trkpt><trkpt lat="43.948452" lon="12.1933634"><ele>214.0</ele><time>2026-04-26T14:48:17.025Z</time></trkpt><trkpt lat="43.9484153" lon="12.1932289"><ele>215.2</ele><time>2026-04-26T14:48:18.023Z</time></trkpt><trkpt lat="43.9483787" lon="12.193097"><ele>216.39999999999998</ele><time>2026-04-26T14:48:19.029Z</time></trkpt><trkpt lat="43.9483397" lon="12.192964"><ele>217.6</ele><time>2026-04-26T14:48:20.022Z</time></trkpt><trkpt lat="43.9482877" lon="12.1928207"><ele>218.8</ele><time>2026-04-26T14:48:21.027Z</time></trkpt><trkpt lat="43.9482377" lon="12.1926791"><ele>220.0</ele><time>2026-04-26T14:48:22.025Z</time></trkpt><trkpt lat="43.9481844" lon="12.1925343"><ele>220.0</ele><time>2026-04-26T14:48:23.022Z</time></trkpt><trkpt lat="43.9481352" lon="12.1923873"><ele>220.0</ele><time>2026-04-26T14:48:24.028Z</time></trkpt><trkpt lat="43.9480959" lon="12.1922444"><ele>220.0</ele><time>2026-04-26T14:48:25.024Z</time></trkpt><trkpt lat="43.9480593" lon="12.1921035"><ele>220.0</ele><time>2026-04-26T14:48:26.023Z</time></trkpt><trkpt lat="43.9480268" lon="12.1919692"><ele>220.0</ele><time>2026-04-26T14:48:27.023Z</time></trkpt><trkpt lat="43.947993" lon="12.1918422"><ele>218.66666666666666</ele><time>2026-04-26T14:48:28.025Z</time></trkpt><trkpt lat="43.9479614" lon="12.1917235"><ele>217.33333333333331</ele><time>2026-04-26T14:48:29.024Z</time></trkpt><trkpt lat="43.9479355" lon="12.1916103"><ele>216.0</ele><time>2026-04-26T14:48:30.024Z</time></trkpt><trkpt lat="43.9479107" lon="12.1915047"><ele>214.66666666666669</ele><time>2026-04-26T14:48:31.025Z</time></trkpt><trkpt lat="43.9478885" lon="12.1914114"><ele>213.33333333333334</ele><time>2026-04-26T14:48:32.025Z</time></trkpt><trkpt lat="43.9478818" lon="12.1912588"><ele>212.0</ele><time>2026-04-26T14:48:34.025Z</time></trkpt><trkpt lat="43.9479394" lon="12.1911642"><ele>210.33333333333334</ele><time>2026-04-26T14:48:36.024Z</time></trkpt><trkpt lat="43.9480558" lon="12.1911797"><ele>208.66666666666669</ele><time>2026-04-26T14:48:38.024Z</time></trkpt><trkpt lat="43.9481895" lon="12.1912874"><ele>207.0</ele><time>2026-04-26T14:48:39.029Z</time></trkpt><trkpt lat="43.9483503" lon="12.1914034"><ele>204.33333333333331</ele><time>2026-04-26T14:48:40.026Z</time></trkpt><trkpt lat="43.9485295" lon="12.1915111"><ele>201.66666666666666</ele><time>2026-04-26T14:48:41.023Z</time></trkpt><trkpt lat="43.9487134" lon="12.1916089"><ele>199.0</ele><time>2026-04-26T14:48:42.028Z</time></trkpt><trkpt lat="43.9488932" lon="12.1916944"><ele>199.0</ele><time>2026-04-26T14:48:43.027Z</time></trkpt><trkpt lat="43.9490653" lon="12.1917665"><ele>199.0</ele><time>2026-04-26T14:48:44.025Z</time></trkpt><trkpt lat="43.9492295" lon="12.1918112"><ele>199.0</ele><time>2026-04-26T14:48:45.024Z</time></trkpt><trkpt lat="43.9493835" lon="12.1918427"><ele>197.5</ele><time>2026-04-26T14:48:46.026Z</time></trkpt><trkpt lat="43.9495268" lon="12.1918775"><ele>196.0</ele><time>2026-04-26T14:48:47.023Z</time></trkpt><trkpt lat="43.9496624" lon="12.1919029"><ele>194.5</ele><time>2026-04-26T14:48:48.025Z</time></trkpt><trkpt lat="43.9497896" lon="12.1919336"><ele>193.0</ele><time>2026-04-26T14:48:49.03Z</time></trkpt><trkpt lat="43.949911" lon="12.1919654"><ele>193.0</ele><time>2026-04-26T14:48:50.024Z</time></trkpt><trkpt lat="43.9500293" lon="12.1919992"><ele>193.0</ele><time>2026-04-26T14:48:51.025Z</time></trkpt><trkpt lat="43.9501479" lon="12.1920318"><ele>193.0</ele><time>2026-04-26T14:48:52.022Z</time></trkpt><trkpt lat="43.9502591" lon="12.1920765"><ele>193.0</ele><time>2026-04-26T14:48:53.022Z</time></trkpt><trkpt lat="43.9503685" lon="12.1921255"><ele>193.0</ele><time>2026-04-26T14:48:54.024Z</time></trkpt><trkpt lat="43.9504777" lon="12.1921938"><ele>193.0</ele><time>2026-04-26T14:48:55.023Z</time></trkpt><trkpt lat="43.9505862" lon="12.1922889"><ele>193.0</ele><time>2026-04-26T14:48:56.023Z</time></trkpt><trkpt lat="43.9506998" lon="12.192418"><ele>193.0</ele><time>2026-04-26T14:48:57.026Z</time></trkpt><trkpt lat="43.9508268" lon="12.1925484"><ele>191.0</ele><time>2026-04-26T14:48:58.025Z</time></trkpt><trkpt lat="43.9509541" lon="12.1926827"><ele>189.0</ele><time>2026-04-26T14:48:59.026Z</time></trkpt><trkpt lat="43.9510694" lon="12.1928201"><ele>187.0</ele><time>2026-04-26T14:49:00.024Z</time></trkpt><trkpt lat="43.9511714" lon="12.192969"><ele>187.0</ele><time>2026-04-26T14:49:01.028Z</time></trkpt><trkpt lat="43.9512708" lon="12.1931325"><ele>187.0</ele><time>2026-04-26T14:49:02.024Z</time></trkpt><trkpt lat="43.9513748" lon="12.1933071"><ele>187.0</ele><time>2026-04-26T14:49:03.027Z</time></trkpt><trkpt lat="43.951482" lon="12.1934872"><ele>187.66666666666669</ele><time>2026-04-26T14:49:04.029Z</time></trkpt><trkpt lat="43.9515952" lon="12.1936757"><ele>188.33333333333334</ele><time>2026-04-26T14:49:05.025Z</time></trkpt><trkpt lat="43.9517061" lon="12.19386"><ele>189.0</ele><time>2026-04-26T14:49:06.025Z</time></trkpt><trkpt lat="43.9518096" lon="12.1940331"><ele>188.0</ele><time>2026-04-26T14:49:07.026Z</time></trkpt><trkpt lat="43.9519071" lon="12.1941948"><ele>187.0</ele><time>2026-04-26T14:49:08.025Z</time></trkpt><trkpt lat="43.9519976" lon="12.1943435"><ele>186.0</ele><time>2026-04-26T14:49:09.026Z</time></trkpt><trkpt lat="43.9520739" lon="12.1944738"><ele>185.0</ele><time>2026-04-26T14:49:10.026Z</time></trkpt><trkpt lat="43.9521312" lon="12.1945771"><ele>185.0</ele><time>2026-04-26T14:49:11.024Z</time></trkpt><trkpt lat="43.9521844" lon="12.1946642"><ele>185.0</ele><time>2026-04-26T14:49:12.023Z</time></trkpt><trkpt lat="43.9522297" lon="12.1947495"><ele>185.0</ele><time>2026-04-26T14:49:13.022Z</time></trkpt><trkpt lat="43.952276" lon="12.1948408"><ele>185.0</ele><time>2026-04-26T14:49:14.023Z</time></trkpt><trkpt lat="43.9523244" lon="12.1949335"><ele>185.0</ele><time>2026-04-26T14:49:15.026Z</time></trkpt><trkpt lat="43.9523751" lon="12.195032"><ele>185.0</ele><time>2026-04-26T14:49:16.024Z</time></trkpt><trkpt lat="43.9524215" lon="12.1951289"><ele>184.66666666666666</ele><time>2026-04-26T14:49:17.027Z</time></trkpt><trkpt lat="43.9524718" lon="12.1952141"><ele>184.33333333333331</ele><time>2026-04-26T14:49:18.024Z</time></trkpt><trkpt lat="43.9525248" lon="12.1952758"><ele>184.0</ele><time>2026-04-26T14:49:19.026Z</time></trkpt><trkpt lat="43.9525819" lon="12.1953184"><ele>183.66666666666666</ele><time>2026-04-26T14:49:20.023Z</time></trkpt><trkpt lat="43.9526508" lon="12.1953268"><ele>183.33333333333334</ele><time>2026-04-26T14:49:21.027Z</time></trkpt><trkpt lat="43.9527302" lon="12.1953055"><ele>183.0</ele><time>2026-04-26T14:49:22.024Z</time></trkpt><trkpt lat="43.9528381" lon="12.1952417"><ele>178.0</ele><time>2026-04-26T14:49:23.026Z</time></trkpt><trkpt lat="43.9529728" lon="12.1951445"><ele>173.0</ele><time>2026-04-26T14:49:24.024Z</time></trkpt><trkpt lat="43.9531317" lon="12.1950358"><ele>168.0</ele><time>2026-04-26T14:49:25.029Z</time></trkpt><trkpt lat="43.953274" lon="12.1949471"><ele>166.0</ele><time>2026-04-26T14:49:26.024Z</time></trkpt><trkpt lat="43.9534003" lon="12.1948763"><ele>164.0</ele><time>2026-04-26T14:49:27.026Z</time></trkpt><trkpt lat="43.9535102" lon="12.1948225"><ele>162.0</ele><time>2026-04-26T14:49:28.027Z</time></trkpt><trkpt lat="43.953612" lon="12.1947695"><ele>160.0</ele><time>2026-04-26T14:49:29.027Z</time></trkpt><trkpt lat="43.9536972" lon="12.1947185"><ele>160.0</ele><time>2026-04-26T14:49:30.024Z</time></trkpt><trkpt lat="43.9537722" lon="12.1946744"><ele>160.0</ele><time>2026-04-26T14:49:31.027Z</time></trkpt><trkpt lat="43.9538407" lon="12.1946392"><ele>160.0</ele><time>2026-04-26T14:49:32.03Z</time></trkpt><trkpt lat="43.9539084" lon="12.1946156"><ele>160.0</ele><time>2026-04-26T14:49:33.025Z</time></trkpt><trkpt lat="43.9540099" lon="12.1946171"><ele>160.0</ele><time>2026-04-26T14:49:35.024Z</time></trkpt><trkpt lat="43.9539613" lon="12.1947539"><ele>160.0</ele><time>2026-04-26T14:49:38.024Z</time></trkpt><trkpt lat="43.953857" lon="12.194803"><ele>160.0</ele><time>2026-04-26T14:49:39.025Z</time></trkpt><trkpt lat="43.9537386" lon="12.1948375"><ele>160.0</ele><time>2026-04-26T14:49:40.025Z</time></trkpt><trkpt lat="43.9536275" lon="12.1948695"><ele>160.0</ele><time>2026-04-26T14:49:41.029Z</time></trkpt><trkpt lat="43.9535378" lon="12.1949174"><ele>160.0</ele><time>2026-04-26T14:49:42.024Z</time></trkpt><trkpt lat="43.9534735" lon="12.194982"><ele>160.0</ele><time>2026-04-26T14:49:43.026Z</time></trkpt><trkpt lat="43.9534362" lon="12.1950557"><ele>159.66666666666669</ele><time>2026-04-26T14:49:44.022Z</time></trkpt><trkpt lat="43.9534352" lon="12.1952121"><ele>159.33333333333334</ele><time>2026-04-26T14:49:46.024Z</time></trkpt><trkpt lat="43.9534735" lon="12.195297"><ele>159.0</ele><time>2026-04-26T14:49:47.024Z</time></trkpt><trkpt lat="43.9535387" lon="12.1953721"><ele>158.66666666666666</ele><time>2026-04-26T14:49:48.029Z</time></trkpt><trkpt lat="43.953598" lon="12.1954262"><ele>158.33333333333331</ele><time>2026-04-26T14:49:49.024Z</time></trkpt><trkpt lat="43.953681" lon="12.1954866"><ele>158.0</ele><time>2026-04-26T14:49:51.023Z</time></trkpt><trkpt lat="43.9537493" lon="12.1955054"><ele>158.0</ele><time>2026-04-26T14:49:54.022Z</time></trkpt><trkpt lat="43.9538178" lon="12.1954694"><ele>158.0</ele><time>2026-04-26T14:49:57.026Z</time></trkpt><trkpt lat="43.9539173" lon="12.1954051"><ele>158.0</ele><time>2026-04-26T14:49:59.026Z</time></trkpt><trkpt lat="43.953982" lon="12.1953816"><ele>158.0</ele><time>2026-04-26T14:50:00.026Z</time></trkpt><trkpt lat="43.9540564" lon="12.1953769"><ele>158.0</ele><time>2026-04-26T14:50:01.03Z</time></trkpt><trkpt lat="43.9541422" lon="12.1954"><ele>158.0</ele><time>2026-04-26T14:50:02.025Z</time></trkpt><trkpt lat="43.954234" lon="12.1954404"><ele>154.0</ele><time>2026-04-26T14:50:03.028Z</time></trkpt><trkpt lat="43.954328" lon="12.1954802"><ele>150.0</ele><time>2026-04-26T14:50:04.026Z</time></trkpt><trkpt lat="43.9544219" lon="12.1955222"><ele>146.0</ele><time>2026-04-26T14:50:05.026Z</time></trkpt><trkpt lat="43.9545142" lon="12.1955628"><ele>142.0</ele><time>2026-04-26T14:50:06.025Z</time></trkpt><trkpt lat="43.9546011" lon="12.1956084"><ele>138.0</ele><time>2026-04-26T14:50:07.026Z</time></trkpt><trkpt lat="43.9546885" lon="12.1956578"><ele>137.20000000000002</ele><time>2026-04-26T14:50:08.026Z</time></trkpt><trkpt lat="43.954772" lon="12.1957191"><ele>136.4</ele><time>2026-04-26T14:50:09.027Z</time></trkpt><trkpt lat="43.9548533" lon="12.1957936"><ele>135.60000000000002</ele><time>2026-04-26T14:50:10.025Z</time></trkpt><trkpt lat="43.954935" lon="12.1958443"><ele>134.8</ele><time>2026-04-26T14:50:11.029Z</time></trkpt><trkpt lat="43.9550204" lon="12.1958732"><ele>134.0</ele><time>2026-04-26T14:50:12.024Z</time></trkpt><trkpt lat="43.9551086" lon="12.1958816"><ele>134.0</ele><time>2026-04-26T14:50:13.026Z</time></trkpt><trkpt lat="43.955192" lon="12.1958662"><ele>134.0</ele><time>2026-04-26T14:50:14.024Z</time></trkpt><trkpt lat="43.9552657" lon="12.1958355"><ele>134.0</ele><time>2026-04-26T14:50:15.026Z</time></trkpt><trkpt lat="43.9553364" lon="12.1958007"><ele>134.0</ele><time>2026-04-26T14:50:16.028Z</time></trkpt><trkpt lat="43.9554041" lon="12.1957613"><ele>134.0</ele><time>2026-04-26T14:50:17.027Z</time></trkpt><trkpt lat="43.9554686" lon="12.195721"><ele>134.0</ele><time>2026-04-26T14:50:18.025Z</time></trkpt><trkpt lat="43.9555289" lon="12.195687"><ele>134.0</ele><time>2026-04-26T14:50:19.026Z</time></trkpt><trkpt lat="43.9556474" lon="12.1956304"><ele>134.0</ele><time>2026-04-26T14:50:21.025Z</time></trkpt><trkpt lat="43.9557412" lon="12.1956083"><ele>134.0</ele><time>2026-04-26T14:50:23.024Z</time></trkpt><trkpt lat="43.9558134" lon="12.1956504"><ele>134.0</ele><time>2026-04-26T14:50:25.029Z</time></trkpt><trkpt lat="43.9558701" lon="12.1957874"><ele>134.0</ele><time>2026-04-26T14:50:27.026Z</time></trkpt><trkpt lat="43.9559031" lon="12.1958805"><ele>134.0</ele><time>2026-04-26T14:50:28.027Z</time></trkpt><trkpt lat="43.9559462" lon="12.1959617"><ele>134.0</ele><time>2026-04-26T14:50:29.025Z</time></trkpt><trkpt lat="43.9559966" lon="12.1960285"><ele>135.0</ele><time>2026-04-26T14:50:30.025Z</time></trkpt><trkpt lat="43.9560489" lon="12.1960818"><ele>136.0</ele><time>2026-04-26T14:50:31.03Z</time></trkpt><trkpt lat="43.9561096" lon="12.1961126"><ele>137.0</ele><time>2026-04-26T14:50:32.023Z</time></trkpt><trkpt lat="43.95618" lon="12.19612"><ele>138.0</ele><time>2026-04-26T14:50:33.025Z</time></trkpt><trkpt lat="43.95626" lon="12.1961217"><ele>139.0</ele><time>2026-04-26T14:50:34.025Z</time></trkpt><trkpt lat="43.9563383" lon="12.196105"><ele>140.0</ele><time>2026-04-26T14:50:35.025Z</time></trkpt><trkpt lat="43.9564133" lon="12.1960817"><ele>141.0</ele><time>2026-04-26T14:50:36.032Z</time></trkpt><trkpt lat="43.9564917" lon="12.19606"><ele>141.0</ele><time>2026-04-26T14:50:37.025Z</time></trkpt><trkpt lat="43.9565633" lon="12.196045"><ele>141.0</ele><time>2026-04-26T14:50:38.026Z</time></trkpt><trkpt lat="43.9566283" lon="12.1960333"><ele>141.0</ele><time>2026-04-26T14:50:39.026Z</time></trkpt><trkpt lat="43.95675" lon="12.1960467"><ele>141.0</ele><time>2026-04-26T14:50:41.026Z</time></trkpt><trkpt lat="43.9568667" lon="12.19606"><ele>141.0</ele><time>2026-04-26T14:50:43.024Z</time></trkpt><trkpt lat="43.9569317" lon="12.1960433"><ele>141.0</ele><time>2026-04-26T14:50:44.024Z</time></trkpt><trkpt lat="43.9570067" lon="12.1960083"><ele>141.33333333333334</ele><time>2026-04-26T14:50:45.026Z</time></trkpt><trkpt lat="43.957085" lon="12.19597"><ele>141.66666666666666</ele><time>2026-04-26T14:50:46.025Z</time></trkpt><trkpt lat="43.957165" lon="12.19593"><ele>142.0</ele><time>2026-04-26T14:50:47.027Z</time></trkpt><trkpt lat="43.9572467" lon="12.1959167"><ele>142.33333333333331</ele><time>2026-04-26T14:50:48.023Z</time></trkpt><trkpt lat="43.9573317" lon="12.1959067"><ele>142.66666666666666</ele><time>2026-04-26T14:50:49.024Z</time></trkpt><trkpt lat="43.9574233" lon="12.1959183"><ele>143.0</ele><time>2026-04-26T14:50:50.025Z</time></trkpt><trkpt lat="43.957515" lon="12.1959433"><ele>145.4</ele><time>2026-04-26T14:50:51.024Z</time></trkpt><trkpt lat="43.9576167" lon="12.1959733"><ele>147.8</ele><time>2026-04-26T14:50:52.025Z</time></trkpt><trkpt lat="43.9577033" lon="12.1959983"><ele>150.2</ele><time>2026-04-26T14:50:53.024Z</time></trkpt><trkpt lat="43.9577933" lon="12.1960167"><ele>152.6</ele><time>2026-04-26T14:50:54.023Z</time></trkpt><trkpt lat="43.95789" lon="12.1960417"><ele>155.0</ele><time>2026-04-26T14:50:55.028Z</time></trkpt><trkpt lat="43.958" lon="12.1960867"><ele>155.0</ele><time>2026-04-26T14:50:56.023Z</time></trkpt><trkpt lat="43.9581183" lon="12.19615"><ele>155.0</ele><time>2026-04-26T14:50:57.028Z</time></trkpt><trkpt lat="43.95823" lon="12.1961983"><ele>155.0</ele><time>2026-04-26T14:50:58.023Z</time></trkpt><trkpt lat="43.9583517" lon="12.196245"><ele>155.0</ele><time>2026-04-26T14:50:59.024Z</time></trkpt><trkpt lat="43.9584917" lon="12.196285"><ele>155.75</ele><time>2026-04-26T14:51:00.023Z</time></trkpt><trkpt lat="43.95863" lon="12.19633"><ele>156.5</ele><time>2026-04-26T14:51:01.024Z</time></trkpt><trkpt lat="43.95876" lon="12.196375"><ele>157.25</ele><time>2026-04-26T14:51:02.032Z</time></trkpt><trkpt lat="43.9588767" lon="12.196435"><ele>158.0</ele><time>2026-04-26T14:51:03.026Z</time></trkpt><trkpt lat="43.958975" lon="12.1964883"><ele>158.0</ele><time>2026-04-26T14:51:04.025Z</time></trkpt><trkpt lat="43.9590533" lon="12.196535"><ele>158.0</ele><time>2026-04-26T14:51:05.023Z</time></trkpt><trkpt lat="43.9591233" lon="12.1965783"><ele>158.0</ele><time>2026-04-26T14:51:06.024Z</time></trkpt><trkpt lat="43.9592117" lon="12.1966283"><ele>158.0</ele><time>2026-04-26T14:51:08.023Z</time></trkpt><trkpt lat="43.9592983" lon="12.1966583"><ele>158.0</ele><time>2026-04-26T14:51:10.026Z</time></trkpt><trkpt lat="43.9594117" lon="12.19669"><ele>158.0</ele><time>2026-04-26T14:51:12.032Z</time></trkpt><trkpt lat="43.9594833" lon="12.1967117"><ele>158.0</ele><time>2026-04-26T14:51:13.027Z</time></trkpt><trkpt lat="43.9595667" lon="12.1967283"><ele>158.0</ele><time>2026-04-26T14:51:14.027Z</time></trkpt><trkpt lat="43.9596667" lon="12.196745"><ele>158.0</ele><time>2026-04-26T14:51:15.028Z</time></trkpt><trkpt lat="43.959805" lon="12.1967683"><ele>158.0</ele><time>2026-04-26T14:51:16.026Z</time></trkpt><trkpt lat="43.9599667" lon="12.19679"><ele>160.33333333333331</ele><time>2026-04-26T14:51:17.024Z</time></trkpt><trkpt lat="43.960135" lon="12.1968117"><ele>162.66666666666666</ele><time>2026-04-26T14:51:18.028Z</time></trkpt><trkpt lat="43.9603033" lon="12.19683"><ele>165.0</ele><time>2026-04-26T14:51:19.025Z</time></trkpt><trkpt lat="43.9604833" lon="12.1968333"><ele>165.0</ele><time>2026-04-26T14:51:20.027Z</time></trkpt><trkpt lat="43.96066" lon="12.1968133"><ele>165.0</ele><time>2026-04-26T14:51:21.026Z</time></trkpt><trkpt lat="43.960835" lon="12.19678"><ele>165.0</ele><time>2026-04-26T14:51:22.028Z</time></trkpt><trkpt lat="43.9609933" lon="12.1967483"><ele>166.5</ele><time>2026-04-26T14:51:23.027Z</time></trkpt><trkpt lat="43.96114" lon="12.19672"><ele>168.0</ele><time>2026-04-26T14:51:24.023Z</time></trkpt><trkpt lat="43.961275" lon="12.1966967"><ele>169.5</ele><time>2026-04-26T14:51:25.029Z</time></trkpt><trkpt lat="43.9613983" lon="12.1966667"><ele>171.0</ele><time>2026-04-26T14:51:26.026Z</time></trkpt><trkpt lat="43.9615117" lon="12.19664"><ele>171.0</ele><time>2026-04-26T14:51:27.024Z</time></trkpt><trkpt lat="43.9616167" lon="12.1966167"><ele>171.0</ele><time>2026-04-26T14:51:28.024Z</time></trkpt><trkpt lat="43.9617117" lon="12.1965933"><ele>171.0</ele><time>2026-04-26T14:51:29.026Z</time></trkpt><trkpt lat="43.9618067" lon="12.1965633"><ele>171.0</ele><time>2026-04-26T14:51:30.025Z</time></trkpt><trkpt lat="43.9619033" lon="12.1964917"><ele>171.0</ele><time>2026-04-26T14:51:31.027Z</time></trkpt><trkpt lat="43.962005" lon="12.1963817"><ele>172.33333333333334</ele><time>2026-04-26T14:51:32.026Z</time></trkpt><trkpt lat="43.9620867" lon="12.19626"><ele>173.66666666666666</ele><time>2026-04-26T14:51:33.027Z</time></trkpt><trkpt lat="43.9621483" lon="12.1961417"><ele>175.0</ele><time>2026-04-26T14:51:34.023Z</time></trkpt><trkpt lat="43.9621917" lon="12.1960333"><ele>176.33333333333331</ele><time>2026-04-26T14:51:35.026Z</time></trkpt><trkpt lat="43.962215" lon="12.1959433"><ele>177.66666666666666</ele><time>2026-04-26T14:51:36.024Z</time></trkpt><trkpt lat="43.9621933" lon="12.1958583"><ele>179.0</ele><time>2026-04-26T14:51:37.025Z</time></trkpt><trkpt lat="43.9621567" lon="12.1957867"><ele>179.0</ele><time>2026-04-26T14:51:38.024Z</time></trkpt><trkpt lat="43.962095" lon="12.1957167"><ele>179.0</ele><time>2026-04-26T14:51:39.023Z</time></trkpt><trkpt lat="43.9619833" lon="12.195645"><ele>179.0</ele><time>2026-04-26T14:51:40.027Z</time></trkpt><trkpt lat="43.9618367" lon="12.1955767"><ele>179.0</ele><time>2026-04-26T14:51:41.027Z</time></trkpt><trkpt lat="43.9616867" lon="12.1954983"><ele>181.33333333333331</ele><time>2026-04-26T14:51:42.026Z</time></trkpt><trkpt lat="43.9615333" lon="12.1954167"><ele>183.66666666666666</ele><time>2026-04-26T14:51:43.024Z</time></trkpt><trkpt lat="43.9613867" lon="12.1953217"><ele>186.0</ele><time>2026-04-26T14:51:44.024Z</time></trkpt><trkpt lat="43.9612367" lon="12.1952283"><ele>186.0</ele><time>2026-04-26T14:51:45.024Z</time></trkpt><trkpt lat="43.9610917" lon="12.1951433"><ele>186.0</ele><time>2026-04-26T14:51:46.024Z</time></trkpt><trkpt lat="43.960945" lon="12.1950567"><ele>186.0</ele><time>2026-04-26T14:51:47.026Z</time></trkpt><trkpt lat="43.9607967" lon="12.1949733"><ele>185.66666666666666</ele><time>2026-04-26T14:51:48.025Z</time></trkpt><trkpt lat="43.9606583" lon="12.19489"><ele>185.33333333333331</ele><time>2026-04-26T14:51:49.026Z</time></trkpt><trkpt lat="43.9605233" lon="12.1948"><ele>185.0</ele><time>2026-04-26T14:51:50.028Z</time></trkpt><trkpt lat="43.96038" lon="12.1947183"><ele>187.33333333333331</ele><time>2026-04-26T14:51:51.026Z</time></trkpt><trkpt lat="43.9602333" lon="12.1946333"><ele>189.66666666666666</ele><time>2026-04-26T14:51:52.023Z</time></trkpt><trkpt lat="43.9600883" lon="12.19455"><ele>192.0</ele><time>2026-04-26T14:51:53.027Z</time></trkpt><trkpt lat="43.95995" lon="12.1944683"><ele>192.0</ele><time>2026-04-26T14:51:54.026Z</time></trkpt><trkpt lat="43.9598183" lon="12.1943917"><ele>192.0</ele><time>2026-04-26T14:51:55.033Z</time></trkpt><trkpt lat="43.9596883" lon="12.1943167"><ele>192.0</ele><time>2026-04-26T14:51:56.025Z</time></trkpt><trkpt lat="43.9595617" lon="12.1942417"><ele>192.0</ele><time>2026-04-26T14:51:57.028Z</time></trkpt><trkpt lat="43.959425" lon="12.1941717"><ele>192.0</ele><time>2026-04-26T14:51:58.024Z</time></trkpt><trkpt lat="43.95928" lon="12.194095"><ele>192.0</ele><time>2026-04-26T14:51:59.025Z</time></trkpt><trkpt lat="43.9591283" lon="12.1940067"><ele>192.0</ele><time>2026-04-26T14:52:00.024Z</time></trkpt><trkpt lat="43.9589783" lon="12.1939133"><ele>197.33333333333331</ele><time>2026-04-26T14:52:01.025Z</time></trkpt><trkpt lat="43.958825" lon="12.1938317"><ele>202.66666666666666</ele><time>2026-04-26T14:52:02.025Z</time></trkpt><trkpt lat="43.9586817" lon="12.1937517"><ele>208.0</ele><time>2026-04-26T14:52:03.03Z</time></trkpt><trkpt lat="43.9585583" lon="12.1936583"><ele>208.0</ele><time>2026-04-26T14:52:04.024Z</time></trkpt><trkpt lat="43.958465" lon="12.1935567"><ele>208.0</ele><time>2026-04-26T14:52:05.025Z</time></trkpt><trkpt lat="43.9584" lon="12.1934417"><ele>208.0</ele><time>2026-04-26T14:52:06.025Z</time></trkpt><trkpt lat="43.9583583" lon="12.1933067"><ele>208.0</ele><time>2026-04-26T14:52:07.025Z</time></trkpt><trkpt lat="43.95834" lon="12.1931583"><ele>208.0</ele><time>2026-04-26T14:52:08.026Z</time></trkpt><trkpt lat="43.95836" lon="12.1929817"><ele>211.0</ele><time>2026-04-26T14:52:09.025Z</time></trkpt><trkpt lat="43.9584183" lon="12.192805"><ele>214.0</ele><time>2026-04-26T14:52:10.029Z</time></trkpt><trkpt lat="43.9585167" lon="12.1926367"><ele>217.0</ele><time>2026-04-26T14:52:11.024Z</time></trkpt><trkpt lat="43.9586133" lon="12.1924783"><ele>220.0</ele><time>2026-04-26T14:52:12.025Z</time></trkpt><trkpt lat="43.958705" lon="12.19231"><ele>221.0</ele><time>2026-04-26T14:52:13.024Z</time></trkpt><trkpt lat="43.9587683" lon="12.1921183"><ele>222.0</ele><time>2026-04-26T14:52:14.024Z</time></trkpt><trkpt lat="43.95881" lon="12.1919183"><ele>223.0</ele><time>2026-04-26T14:52:15.025Z</time></trkpt><trkpt lat="43.9588267" lon="12.1917083"><ele>223.25</ele><time>2026-04-26T14:52:16.026Z</time></trkpt><trkpt lat="43.9588183" lon="12.1915017"><ele>223.5</ele><time>2026-04-26T14:52:17.025Z</time></trkpt><trkpt lat="43.9587917" lon="12.1913117"><ele>223.75</ele><time>2026-04-26T14:52:18.025Z</time></trkpt><trkpt lat="43.958765" lon="12.1911417"><ele>224.0</ele><time>2026-04-26T14:52:19.029Z</time></trkpt><trkpt lat="43.958765" lon="12.1909917"><ele>224.00000000000003</ele><time>2026-04-26T14:52:20.026Z</time></trkpt><trkpt lat="43.9588017" lon="12.190865"><ele>224.0</ele><time>2026-04-26T14:52:21.025Z</time></trkpt><trkpt lat="43.95886" lon="12.1907883"><ele>224.0</ele><time>2026-04-26T14:52:22.025Z</time></trkpt><trkpt lat="43.9589283" lon="12.190745"><ele>224.0</ele><time>2026-04-26T14:52:23.026Z</time></trkpt><trkpt lat="43.958995" lon="12.1907683"><ele>224.00000000000003</ele><time>2026-04-26T14:52:24.024Z</time></trkpt><trkpt lat="43.9590433" lon="12.19086"><ele>224.0</ele><time>2026-04-26T14:52:25.029Z</time></trkpt><trkpt lat="43.9590683" lon="12.19097"><ele>224.00000000000003</ele><time>2026-04-26T14:52:26.027Z</time></trkpt><trkpt lat="43.9590733" lon="12.1910833"><ele>224.0</ele><time>2026-04-26T14:52:27.026Z</time></trkpt><trkpt lat="43.95906" lon="12.1912067"><ele>224.0</ele><time>2026-04-26T14:52:28.025Z</time></trkpt><trkpt lat="43.95906" lon="12.1913167"><ele>224.0</ele><time>2026-04-26T14:52:29.024Z</time></trkpt><trkpt lat="43.9590617" lon="12.1914317"><ele>224.00000000000003</ele><time>2026-04-26T14:52:30.028Z</time></trkpt><trkpt lat="43.95908" lon="12.1915383"><ele>224.0</ele><time>2026-04-26T14:52:31.026Z</time></trkpt><trkpt lat="43.9591067" lon="12.1916333"><ele>223.83333333333334</ele><time>2026-04-26T14:52:32.025Z</time></trkpt><trkpt lat="43.9591383" lon="12.1917117"><ele>223.66666666666669</ele><time>2026-04-26T14:52:33.027Z</time></trkpt><trkpt lat="43.9592033" lon="12.1918183"><ele>223.5</ele><time>2026-04-26T14:52:35.024Z</time></trkpt><trkpt lat="43.9592817" lon="12.191915"><ele>223.33333333333331</ele><time>2026-04-26T14:52:37.025Z</time></trkpt><trkpt lat="43.9593417" lon="12.191975"><ele>223.16666666666666</ele><time>2026-04-26T14:52:38.029Z</time></trkpt><trkpt lat="43.9594067" lon="12.1920417"><ele>223.0</ele><time>2026-04-26T14:52:39.025Z</time></trkpt><trkpt lat="43.959475" lon="12.1921167"><ele>225.60000000000002</ele><time>2026-04-26T14:52:40.026Z</time></trkpt><trkpt lat="43.9595483" lon="12.1921983"><ele>228.20000000000002</ele><time>2026-04-26T14:52:41.025Z</time></trkpt><trkpt lat="43.9596233" lon="12.19228"><ele>230.8</ele><time>2026-04-26T14:52:42.024Z</time></trkpt><trkpt lat="43.9597" lon="12.19236"><ele>233.4</ele><time>2026-04-26T14:52:43.026Z</time></trkpt><trkpt lat="43.9597833" lon="12.1924467"><ele>236.0</ele><time>2026-04-26T14:52:44.029Z</time></trkpt><trkpt lat="43.9598783" lon="12.1925433"><ele>236.0</ele><time>2026-04-26T14:52:45.027Z</time></trkpt><trkpt lat="43.959985" lon="12.1926283"><ele>236.0</ele><time>2026-04-26T14:52:46.026Z</time></trkpt><trkpt lat="43.9601117" lon="12.19269"><ele>236.0</ele><time>2026-04-26T14:52:47.025Z</time></trkpt><trkpt lat="43.9602567" lon="12.1927267"><ele>236.0</ele><time>2026-04-26T14:52:48.025Z</time></trkpt><trkpt lat="43.9604067" lon="12.19274"><ele>239.75</ele><time>2026-04-26T14:52:49.025Z</time></trkpt><trkpt lat="43.96055" lon="12.1927483"><ele>243.5</ele><time>2026-04-26T14:52:50.028Z</time></trkpt><trkpt lat="43.9606883" lon="12.1927517"><ele>247.25</ele><time>2026-04-26T14:52:51.026Z</time></trkpt><trkpt lat="43.9608217" lon="12.1927567"><ele>251.0</ele><time>2026-04-26T14:52:52.026Z</time></trkpt><trkpt lat="43.96096" lon="12.1927483"><ele>252.0</ele><time>2026-04-26T14:52:53.025Z</time></trkpt><trkpt lat="43.961095" lon="12.1927383"><ele>253.0</ele><time>2026-04-26T14:52:54.027Z</time></trkpt><trkpt lat="43.961245" lon="12.192705"><ele>254.0</ele><time>2026-04-26T14:52:55.024Z</time></trkpt><trkpt lat="43.961385" lon="12.1926683"><ele>255.0</ele><time>2026-04-26T14:52:56.027Z</time></trkpt><trkpt lat="43.9615267" lon="12.19262"><ele>255.0</ele><time>2026-04-26T14:52:57.027Z</time></trkpt><trkpt lat="43.9616633" lon="12.19258"><ele>255.0</ele><time>2026-04-26T14:52:58.025Z</time></trkpt><trkpt lat="43.9617917" lon="12.19254"><ele>255.0</ele><time>2026-04-26T14:52:59.023Z</time></trkpt><trkpt lat="43.96192" lon="12.192495"><ele>255.0</ele><time>2026-04-26T14:53:00.025Z</time></trkpt><trkpt lat="43.962045" lon="12.1924517"><ele>253.0</ele><time>2026-04-26T14:53:01.023Z</time></trkpt><trkpt lat="43.9621617" lon="12.192405"><ele>251.0</ele><time>2026-04-26T14:53:02.024Z</time></trkpt><trkpt lat="43.96226" lon="12.1923583"><ele>249.0</ele><time>2026-04-26T14:53:03.024Z</time></trkpt><trkpt lat="43.9623467" lon="12.1922767"><ele>247.0</ele><time>2026-04-26T14:53:04.029Z</time></trkpt><trkpt lat="43.9624133" lon="12.19216"><ele>245.0</ele><time>2026-04-26T14:53:05.023Z</time></trkpt><trkpt lat="43.9624633" lon="12.192015"><ele>251.0</ele><time>2026-04-26T14:53:06.024Z</time></trkpt><trkpt lat="43.96251" lon="12.191855"><ele>257.0</ele><time>2026-04-26T14:53:07.024Z</time></trkpt><trkpt lat="43.962545" lon="12.19169"><ele>263.0</ele><time>2026-04-26T14:53:08.024Z</time></trkpt><trkpt lat="43.96258" lon="12.191545"><ele>269.0</ele><time>2026-04-26T14:53:09.026Z</time></trkpt><trkpt lat="43.9626183" lon="12.1914183"><ele>274.6666666666667</ele><time>2026-04-26T14:53:10.022Z</time></trkpt><trkpt lat="43.9626667" lon="12.191325"><ele>280.33333333333337</ele><time>2026-04-26T14:53:11.023Z</time></trkpt><trkpt lat="43.96272" lon="12.1912517"><ele>286.0</ele><time>2026-04-26T14:53:12.025Z</time></trkpt><trkpt lat="43.96278" lon="12.1912"><ele>291.6666666666667</ele><time>2026-04-26T14:53:13.022Z</time></trkpt><trkpt lat="43.962905" lon="12.1911967"><ele>297.3333333333333</ele><time>2026-04-26T14:53:15.023Z</time></trkpt><trkpt lat="43.9629733" lon="12.191245"><ele>303.0</ele><time>2026-04-26T14:53:16.026Z</time></trkpt><trkpt lat="43.9630517" lon="12.1913317"><ele>303.0</ele><time>2026-04-26T14:53:17.024Z</time></trkpt><trkpt lat="43.9631417" lon="12.1914367"><ele>303.0</ele><time>2026-04-26T14:53:18.025Z</time></trkpt><trkpt lat="43.9632667" lon="12.1915117"><ele>303.0</ele><time>2026-04-26T14:53:19.025Z</time></trkpt><trkpt lat="43.963415" lon="12.19157"><ele>303.0</ele><time>2026-04-26T14:53:20.024Z</time></trkpt><trkpt lat="43.9635717" lon="12.191635"><ele>297.0</ele><time>2026-04-26T14:53:21.026Z</time></trkpt><trkpt lat="43.9637367" lon="12.1916917"><ele>291.0</ele><time>2026-04-26T14:53:22.025Z</time></trkpt><trkpt lat="43.9639217" lon="12.1917383"><ele>285.0</ele><time>2026-04-26T14:53:23.024Z</time></trkpt><trkpt lat="43.9641133" lon="12.191765"><ele>284.0</ele><time>2026-04-26T14:53:24.025Z</time></trkpt><trkpt lat="43.964295" lon="12.1917733"><ele>283.0</ele><time>2026-04-26T14:53:25.029Z</time></trkpt><trkpt lat="43.964465" lon="12.19176"><ele>282.0</ele><time>2026-04-26T14:53:26.025Z</time></trkpt><trkpt lat="43.964615" lon="12.1917417"><ele>282.0</ele><time>2026-04-26T14:53:27.026Z</time></trkpt><trkpt lat="43.9647467" lon="12.1917183"><ele>282.0</ele><time>2026-04-26T14:53:28.025Z</time></trkpt><trkpt lat="43.9648733" lon="12.1916817"><ele>282.0</ele><time>2026-04-26T14:53:29.025Z</time></trkpt><trkpt lat="43.9650067" lon="12.191595"><ele>282.0</ele><time>2026-04-26T14:53:30.028Z</time></trkpt><trkpt lat="43.9651533" lon="12.1914767"><ele>291.0</ele><time>2026-04-26T14:53:31.024Z</time></trkpt><trkpt lat="43.9653167" lon="12.1913567"><ele>300.0</ele><time>2026-04-26T14:53:32.026Z</time></trkpt><trkpt lat="43.9654983" lon="12.191265"><ele>309.0</ele><time>2026-04-26T14:53:33.025Z</time></trkpt><trkpt lat="43.96568" lon="12.1912183"><ele>309.0</ele><time>2026-04-26T14:53:34.023Z</time></trkpt><trkpt lat="43.9658417" lon="12.1911867"><ele>309.0</ele><time>2026-04-26T14:53:35.025Z</time></trkpt><trkpt lat="43.96599" lon="12.1911583"><ele>309.0</ele><time>2026-04-26T14:53:36.024Z</time></trkpt><trkpt lat="43.9661317" lon="12.1911"><ele>302.6666666666667</ele><time>2026-04-26T14:53:37.024Z</time></trkpt><trkpt lat="43.96628" lon="12.191005"><ele>296.33333333333337</ele><time>2026-04-26T14:53:38.029Z</time></trkpt><trkpt lat="43.96642" lon="12.1909"><ele>290.0</ele><time>2026-04-26T14:53:39.024Z</time></trkpt><trkpt lat="43.9665417" lon="12.1908"><ele>290.0</ele><time>2026-04-26T14:53:40.023Z</time></trkpt><trkpt lat="43.9666367" lon="12.1907017"><ele>290.0</ele><time>2026-04-26T14:53:41.025Z</time></trkpt><trkpt lat="43.9667033" lon="12.19059"><ele>290.0</ele><time>2026-04-26T14:53:42.024Z</time></trkpt><trkpt lat="43.966735" lon="12.1904917"><ele>290.0</ele><time>2026-04-26T14:53:43.025Z</time></trkpt><trkpt lat="43.9667433" lon="12.1904017"><ele>290.0</ele><time>2026-04-26T14:53:44.025Z</time></trkpt><trkpt lat="43.9666967" lon="12.190335"><ele>290.0</ele><time>2026-04-26T14:53:45.026Z</time></trkpt><trkpt lat="43.9666467" lon="12.1902783"><ele>296.33333333333337</ele><time>2026-04-26T14:53:46.028Z</time></trkpt><trkpt lat="43.9664567" lon="12.1903983"><ele>302.6666666666667</ele><time>2026-04-26T14:53:48.026Z</time></trkpt><trkpt lat="43.9663267" lon="12.190545"><ele>309.0</ele><time>2026-04-26T14:53:49.027Z</time></trkpt><trkpt lat="43.966195" lon="12.1906633"><ele>309.0</ele><time>2026-04-26T14:53:50.025Z</time></trkpt><trkpt lat="43.9660583" lon="12.1907383"><ele>309.0</ele><time>2026-04-26T14:53:51.026Z</time></trkpt><trkpt lat="43.9659083" lon="12.19077"><ele>309.0</ele><time>2026-04-26T14:53:52.023Z</time></trkpt><trkpt lat="43.9657483" lon="12.1907583"><ele>309.0</ele><time>2026-04-26T14:53:53.026Z</time></trkpt><trkpt lat="43.9655733" lon="12.1907417"><ele>309.0</ele><time>2026-04-26T14:53:54.029Z</time></trkpt><trkpt lat="43.9653833" lon="12.190735"><ele>309.0</ele><time>2026-04-26T14:53:55.024Z</time></trkpt><trkpt lat="43.9651833" lon="12.19072"><ele>312.0</ele><time>2026-04-26T14:53:56.025Z</time></trkpt><trkpt lat="43.96499" lon="12.1907017"><ele>315.0</ele><time>2026-04-26T14:53:57.027Z</time></trkpt><trkpt lat="43.9648033" lon="12.190705"><ele>318.0</ele><time>2026-04-26T14:53:58.023Z</time></trkpt><trkpt lat="43.9646167" lon="12.1907533"><ele>318.0</ele><time>2026-04-26T14:53:59.031Z</time></trkpt><trkpt lat="43.9644367" lon="12.1908067"><ele>318.0</ele><time>2026-04-26T14:54:00.025Z</time></trkpt><trkpt lat="43.9642767" lon="12.19084"><ele>318.0</ele><time>2026-04-26T14:54:01.024Z</time></trkpt><trkpt lat="43.9641333" lon="12.19084"><ele>319.0</ele><time>2026-04-26T14:54:02.026Z</time></trkpt><trkpt lat="43.9640083" lon="12.1908083"><ele>320.0</ele><time>2026-04-26T14:54:03.023Z</time></trkpt><trkpt lat="43.9639017" lon="12.1907517"><ele>321.0</ele><time>2026-04-26T14:54:04.026Z</time></trkpt><trkpt lat="43.9638167" lon="12.1906533"><ele>322.0</ele><time>2026-04-26T14:54:05.025Z</time></trkpt><trkpt lat="43.963755" lon="12.1905067"><ele>328.3333333333333</ele><time>2026-04-26T14:54:06.028Z</time></trkpt><trkpt lat="43.96372" lon="12.19032"><ele>334.6666666666667</ele><time>2026-04-26T14:54:07.024Z</time></trkpt><trkpt lat="43.9637017" lon="12.1901"><ele>341.0</ele><time>2026-04-26T14:54:08.029Z</time></trkpt><trkpt lat="43.9636817" lon="12.1898417"><ele>343.33333333333337</ele><time>2026-04-26T14:54:09.027Z</time></trkpt><trkpt lat="43.9636567" lon="12.1895667"><ele>345.6666666666667</ele><time>2026-04-26T14:54:10.025Z</time></trkpt><trkpt lat="43.9636317" lon="12.1893067"><ele>348.0</ele><time>2026-04-26T14:54:11.025Z</time></trkpt><trkpt lat="43.9636067" lon="12.18903"><ele>348.6666666666667</ele><time>2026-04-26T14:54:12.027Z</time></trkpt><trkpt lat="43.9635733" lon="12.1887583"><ele>349.33333333333337</ele><time>2026-04-26T14:54:13.025Z</time></trkpt><trkpt lat="43.9635417" lon="12.188485"><ele>350.0</ele><time>2026-04-26T14:54:14.03Z</time></trkpt><trkpt lat="43.9635083" lon="12.1881983"><ele>351.0</ele><time>2026-04-26T14:54:15.026Z</time></trkpt><trkpt lat="43.96348" lon="12.1879167"><ele>352.0</ele><time>2026-04-26T14:54:16.026Z</time></trkpt><trkpt lat="43.96345" lon="12.1876383"><ele>353.0</ele><time>2026-04-26T14:54:17.028Z</time></trkpt><trkpt lat="43.9634317" lon="12.187365"><ele>355.0</ele><time>2026-04-26T14:54:18.026Z</time></trkpt><trkpt lat="43.96343" lon="12.1870933"><ele>357.0</ele><time>2026-04-26T14:54:19.025Z</time></trkpt><trkpt lat="43.9634517" lon="12.1868233"><ele>359.0</ele><time>2026-04-26T14:54:20.029Z</time></trkpt><trkpt lat="43.9634867" lon="12.1865533"><ele>360.33333333333337</ele><time>2026-04-26T14:54:21.025Z</time></trkpt><trkpt lat="43.9635283" lon="12.1862833"><ele>361.6666666666667</ele><time>2026-04-26T14:54:22.024Z</time></trkpt><trkpt lat="43.9635717" lon="12.1860283"><ele>363.0</ele><time>2026-04-26T14:54:23.027Z</time></trkpt><trkpt lat="43.96361" lon="12.1857967"><ele>364.3333333333333</ele><time>2026-04-26T14:54:24.024Z</time></trkpt><trkpt lat="43.9636417" lon="12.1855667"><ele>365.66666666666663</ele><time>2026-04-26T14:54:25.032Z</time></trkpt><trkpt lat="43.963665" lon="12.185335"><ele>367.0</ele><time>2026-04-26T14:54:26.028Z</time></trkpt><trkpt lat="43.9636533" lon="12.18511"><ele>367.0</ele><time>2026-04-26T14:54:27.024Z</time></trkpt><trkpt lat="43.9636017" lon="12.1849"><ele>367.0</ele><time>2026-04-26T14:54:28.024Z</time></trkpt><trkpt lat="43.9635133" lon="12.1847083"><ele>367.0</ele><time>2026-04-26T14:54:29.025Z</time></trkpt><trkpt lat="43.9633917" lon="12.184535"><ele>367.66666666666663</ele><time>2026-04-26T14:54:30.025Z</time></trkpt><trkpt lat="43.96324" lon="12.1843683"><ele>368.3333333333333</ele><time>2026-04-26T14:54:31.025Z</time></trkpt><trkpt lat="43.963075" lon="12.184195"><ele>369.0</ele><time>2026-04-26T14:54:32.03Z</time></trkpt><trkpt lat="43.9629167" lon="12.1840267"><ele>371.0</ele><time>2026-04-26T14:54:33.026Z</time></trkpt><trkpt lat="43.9627783" lon="12.1838733"><ele>373.0</ele><time>2026-04-26T14:54:34.027Z</time></trkpt><trkpt lat="43.96266" lon="12.1837417"><ele>375.0</ele><time>2026-04-26T14:54:35.026Z</time></trkpt><trkpt lat="43.962575" lon="12.1836233"><ele>377.0</ele><time>2026-04-26T14:54:36.023Z</time></trkpt><trkpt lat="43.96253" lon="12.1835033"><ele>377.8</ele><time>2026-04-26T14:54:37.03Z</time></trkpt><trkpt lat="43.9625383" lon="12.1833867"><ele>378.6</ele><time>2026-04-26T14:54:38.024Z</time></trkpt><trkpt lat="43.96257" lon="12.1832867"><ele>379.40000000000003</ele><time>2026-04-26T14:54:39.028Z</time></trkpt><trkpt lat="43.9626633" lon="12.1832483"><ele>380.20000000000005</ele><time>2026-04-26T14:54:40.026Z</time></trkpt><trkpt lat="43.9627583" lon="12.1832283"><ele>381.0</ele><time>2026-04-26T14:54:41.025Z</time></trkpt><trkpt lat="43.96289" lon="12.18327"><ele>381.0</ele><time>2026-04-26T14:54:42.023Z</time></trkpt><trkpt lat="43.9630333" lon="12.18329"><ele>381.0</ele><time>2026-04-26T14:54:43.026Z</time></trkpt><trkpt lat="43.96319" lon="12.1833083"><ele>381.0</ele><time>2026-04-26T14:54:44.027Z</time></trkpt><trkpt lat="43.9633733" lon="12.1833117"><ele>383.66666666666663</ele><time>2026-04-26T14:54:45.026Z</time></trkpt><trkpt lat="43.9635683" lon="12.18331"><ele>386.3333333333333</ele><time>2026-04-26T14:54:46.023Z</time></trkpt><trkpt lat="43.9637817" lon="12.1833033"><ele>389.0</ele><time>2026-04-26T14:54:47.032Z</time></trkpt><trkpt lat="43.9640033" lon="12.1833067"><ele>391.0</ele><time>2026-04-26T14:54:48.025Z</time></trkpt><trkpt lat="43.9642367" lon="12.18331"><ele>393.0</ele><time>2026-04-26T14:54:49.027Z</time></trkpt><trkpt lat="43.9644767" lon="12.183315"><ele>393.0</ele><time>2026-04-26T14:54:50.026Z</time></trkpt><trkpt lat="43.9647217" lon="12.1833167"><ele>393.0</ele><time>2026-04-26T14:54:51.03Z</time></trkpt><trkpt lat="43.96496" lon="12.1833167"><ele>395.66666666666663</ele><time>2026-04-26T14:54:52.03Z</time></trkpt><trkpt lat="43.9651783" lon="12.183315"><ele>398.3333333333333</ele><time>2026-04-26T14:54:53.026Z</time></trkpt><trkpt lat="43.9653917" lon="12.1833117"><ele>401.0</ele><time>2026-04-26T14:54:54.027Z</time></trkpt><trkpt lat="43.9656083" lon="12.183315"><ele>401.0</ele><time>2026-04-26T14:54:55.026Z</time></trkpt><trkpt lat="43.96582" lon="12.183345"><ele>401.0</ele><time>2026-04-26T14:54:56.026Z</time></trkpt><trkpt lat="43.9660033" lon="12.183405"><ele>401.0</ele><time>2026-04-26T14:54:57.026Z</time></trkpt><trkpt lat="43.9661683" lon="12.1835017"><ele>404.66666666666663</ele><time>2026-04-26T14:54:58.031Z</time></trkpt><trkpt lat="43.966325" lon="12.1836317"><ele>408.33333333333337</ele><time>2026-04-26T14:54:59.025Z</time></trkpt><trkpt lat="43.9664933" lon="12.1837817"><ele>412.0</ele><time>2026-04-26T14:55:00.026Z</time></trkpt><trkpt lat="43.9666733" lon="12.18392"><ele>412.6666666666667</ele><time>2026-04-26T14:55:01.025Z</time></trkpt><trkpt lat="43.9668517" lon="12.1840467"><ele>413.33333333333337</ele><time>2026-04-26T14:55:02.025Z</time></trkpt><trkpt lat="43.967015" lon="12.184155"><ele>414.0</ele><time>2026-04-26T14:55:03.027Z</time></trkpt><trkpt lat="43.9671567" lon="12.1842317"><ele>414.0</ele><time>2026-04-26T14:55:04.026Z</time></trkpt><trkpt lat="43.96729" lon="12.1842733"><ele>414.0</ele><time>2026-04-26T14:55:05.024Z</time></trkpt><trkpt lat="43.9674383" lon="12.184285"><ele>414.0</ele><time>2026-04-26T14:55:06.026Z</time></trkpt><trkpt lat="43.9675983" lon="12.1842583"><ele>414.0</ele><time>2026-04-26T14:55:07.025Z</time></trkpt><trkpt lat="43.9677467" lon="12.1842067"><ele>414.0</ele><time>2026-04-26T14:55:08.031Z</time></trkpt><trkpt lat="43.967875" lon="12.18415"><ele>414.0</ele><time>2026-04-26T14:55:09.026Z</time></trkpt><trkpt lat="43.9679817" lon="12.1840683"><ele>414.0</ele><time>2026-04-26T14:55:10.026Z</time></trkpt><trkpt lat="43.96808" lon="12.18395"><ele>414.0</ele><time>2026-04-26T14:55:11.026Z</time></trkpt><trkpt lat="43.9681717" lon="12.1838033"><ele>416.0</ele><time>2026-04-26T14:55:12.025Z</time></trkpt><trkpt lat="43.96828" lon="12.1836467"><ele>418.0</ele><time>2026-04-26T14:55:13.025Z</time></trkpt><trkpt lat="43.9684167" lon="12.1834983"><ele>420.0</ele><time>2026-04-26T14:55:14.024Z</time></trkpt><trkpt lat="43.9685467" lon="12.1833483"><ele>420.0</ele><time>2026-04-26T14:55:15.03Z</time></trkpt><trkpt lat="43.9686633" lon="12.18319"><ele>420.0</ele><time>2026-04-26T14:55:16.023Z</time></trkpt><trkpt lat="43.96877" lon="12.1830067"><ele>420.0</ele><time>2026-04-26T14:55:17.025Z</time></trkpt><trkpt lat="43.9688617" lon="12.18278"><ele>421.33333333333337</ele><time>2026-04-26T14:55:18.026Z</time></trkpt><trkpt lat="43.9689483" lon="12.1825383"><ele>422.6666666666667</ele><time>2026-04-26T14:55:19.028Z</time></trkpt><trkpt lat="43.9690383" lon="12.1823"><ele>424.0</ele><time>2026-04-26T14:55:20.026Z</time></trkpt><trkpt lat="43.9691283" lon="12.182085"><ele>420.5</ele><time>2026-04-26T14:55:21.026Z</time></trkpt><trkpt lat="43.9691967" lon="12.181885"><ele>417.0</ele><time>2026-04-26T14:55:22.026Z</time></trkpt><trkpt lat="43.9692367" lon="12.1816917"><ele>413.5</ele><time>2026-04-26T14:55:23.025Z</time></trkpt><trkpt lat="43.9692383" lon="12.1814967"><ele>410.0</ele><time>2026-04-26T14:55:24.023Z</time></trkpt><trkpt lat="43.9691983" lon="12.1813017"><ele>418.3333333333333</ele><time>2026-04-26T14:55:25.025Z</time></trkpt><trkpt lat="43.969135" lon="12.1811083"><ele>426.66666666666663</ele><time>2026-04-26T14:55:26.026Z</time></trkpt><trkpt lat="43.9690767" lon="12.18091"><ele>435.0</ele><time>2026-04-26T14:55:27.026Z</time></trkpt><trkpt lat="43.9690417" lon="12.1806933"><ele>436.0</ele><time>2026-04-26T14:55:28.024Z</time></trkpt><trkpt lat="43.96904" lon="12.180455"><ele>437.0</ele><time>2026-04-26T14:55:29.028Z</time></trkpt><trkpt lat="43.9690733" lon="12.1802017"><ele>438.0</ele><time>2026-04-26T14:55:30.026Z</time></trkpt><trkpt lat="43.9691333" lon="12.17996"><ele>433.33333333333337</ele><time>2026-04-26T14:55:31.026Z</time></trkpt><trkpt lat="43.96921" lon="12.1797467"><ele>428.6666666666667</ele><time>2026-04-26T14:55:32.026Z</time></trkpt><trkpt lat="43.9693083" lon="12.1795517"><ele>424.0</ele><time>2026-04-26T14:55:33.026Z</time></trkpt><trkpt lat="43.9694183" lon="12.1793617"><ele>424.0</ele><time>2026-04-26T14:55:34.026Z</time></trkpt><trkpt lat="43.9695467" lon="12.1791817"><ele>424.0</ele><time>2026-04-26T14:55:35.03Z</time></trkpt><trkpt lat="43.9696617" lon="12.1789783"><ele>424.0</ele><time>2026-04-26T14:55:36.03Z</time></trkpt><trkpt lat="43.9697883" lon="12.1787767"><ele>426.0</ele><time>2026-04-26T14:55:37.025Z</time></trkpt><trkpt lat="43.9698883" lon="12.1785783"><ele>428.0</ele><time>2026-04-26T14:55:38.027Z</time></trkpt><trkpt lat="43.96997" lon="12.1783817"><ele>430.0</ele><time>2026-04-26T14:55:39.027Z</time></trkpt><trkpt lat="43.970035" lon="12.1781683"><ele>430.0</ele><time>2026-04-26T14:55:40.029Z</time></trkpt><trkpt lat="43.9700967" lon="12.17792"><ele>430.0</ele><time>2026-04-26T14:55:41.024Z</time></trkpt><trkpt lat="43.970175" lon="12.1776567"><ele>430.0</ele><time>2026-04-26T14:55:42.026Z</time></trkpt><trkpt lat="43.9702867" lon="12.1774"><ele>435.6666666666667</ele><time>2026-04-26T14:55:43.026Z</time></trkpt><trkpt lat="43.9704117" lon="12.1771433"><ele>441.33333333333337</ele><time>2026-04-26T14:55:44.026Z</time></trkpt><trkpt lat="43.9705383" lon="12.17691"><ele>447.0</ele><time>2026-04-26T14:55:45.026Z</time></trkpt><trkpt lat="43.9706483" lon="12.1767"><ele>446.66666666666663</ele><time>2026-04-26T14:55:46.026Z</time></trkpt><trkpt lat="43.9707517" lon="12.1764917"><ele>446.3333333333333</ele><time>2026-04-26T14:55:47.03Z</time></trkpt><trkpt lat="43.970835" lon="12.1762833"><ele>446.0</ele><time>2026-04-26T14:55:48.024Z</time></trkpt><trkpt lat="43.9708883" lon="12.1760633"><ele>449.6</ele><time>2026-04-26T14:55:49.025Z</time></trkpt><trkpt lat="43.9709317" lon="12.17587"><ele>453.20000000000005</ele><time>2026-04-26T14:55:50.024Z</time></trkpt><trkpt lat="43.97097" lon="12.17572"><ele>456.79999999999995</ele><time>2026-04-26T14:55:51.025Z</time></trkpt><trkpt lat="43.9710033" lon="12.1756067"><ele>460.4</ele><time>2026-04-26T14:55:52.025Z</time></trkpt><trkpt lat="43.9710317" lon="12.1755067"><ele>464.0</ele><time>2026-04-26T14:55:53.023Z</time></trkpt><trkpt lat="43.9710883" lon="12.1754167"><ele>464.0</ele><time>2026-04-26T14:55:55.031Z</time></trkpt><trkpt lat="43.9711217" lon="12.1755333"><ele>464.0</ele><time>2026-04-26T14:55:57.025Z</time></trkpt><trkpt lat="43.971105" lon="12.1756733"><ele>464.0</ele><time>2026-04-26T14:55:58.024Z</time></trkpt><trkpt lat="43.97106" lon="12.17591"><ele>464.0</ele><time>2026-04-26T14:55:59.024Z</time></trkpt><trkpt lat="43.9710333" lon="12.17617"><ele>464.0</ele><time>2026-04-26T14:56:00.03Z</time></trkpt><trkpt lat="43.97103" lon="12.1763667"><ele>464.0</ele><time>2026-04-26T14:56:01.026Z</time></trkpt><trkpt lat="43.971065" lon="12.17653"><ele>464.0</ele><time>2026-04-26T14:56:02.023Z</time></trkpt><trkpt lat="43.9711167" lon="12.1766233"><ele>464.0</ele><time>2026-04-26T14:56:03.026Z</time></trkpt><trkpt lat="43.971195" lon="12.1766517"><ele>464.0</ele><time>2026-04-26T14:56:04.025Z</time></trkpt><trkpt lat="43.971285" lon="12.1766367"><ele>464.0</ele><time>2026-04-26T14:56:05.026Z</time></trkpt><trkpt lat="43.971375" lon="12.1765517"><ele>464.0</ele><time>2026-04-26T14:56:06.024Z</time></trkpt><trkpt lat="43.9714417" lon="12.1764183"><ele>464.0</ele><time>2026-04-26T14:56:07.026Z</time></trkpt><trkpt lat="43.9714817" lon="12.1762417"><ele>464.0</ele><time>2026-04-26T14:56:08.024Z</time></trkpt><trkpt lat="43.97152" lon="12.1760467"><ele>464.0</ele><time>2026-04-26T14:56:09.03Z</time></trkpt><trkpt lat="43.97157" lon="12.1758433"><ele>464.0</ele><time>2026-04-26T14:56:10.024Z</time></trkpt><trkpt lat="43.9716433" lon="12.17568"><ele>464.0</ele><time>2026-04-26T14:56:11.024Z</time></trkpt><trkpt lat="43.9717417" lon="12.1755667"><ele>464.0</ele><time>2026-04-26T14:56:12.023Z</time></trkpt><trkpt lat="43.97185" lon="12.175525"><ele>465.0</ele><time>2026-04-26T14:56:13.027Z</time></trkpt><trkpt lat="43.971955" lon="12.1755283"><ele>466.0</ele><time>2026-04-26T14:56:14.03Z</time></trkpt><trkpt lat="43.972065" lon="12.1755817"><ele>467.0</ele><time>2026-04-26T14:56:15.031Z</time></trkpt><trkpt lat="43.9721867" lon="12.1756867"><ele>468.0</ele><time>2026-04-26T14:56:16.023Z</time></trkpt><trkpt lat="43.9722967" lon="12.175805"><ele>468.0</ele><time>2026-04-26T14:56:17.025Z</time></trkpt><trkpt lat="43.972405" lon="12.1758833"><ele>467.99999999999994</ele><time>2026-04-26T14:56:18.025Z</time></trkpt><trkpt lat="43.9724983" lon="12.17595"><ele>467.99999999999994</ele><time>2026-04-26T14:56:19.026Z</time></trkpt><trkpt lat="43.9725767" lon="12.17599"><ele>468.0</ele><time>2026-04-26T14:56:20.03Z</time></trkpt><trkpt lat="43.9726383" lon="12.1759633"><ele>468.0</ele><time>2026-04-26T14:56:21.025Z</time></trkpt><trkpt lat="43.9726633" lon="12.1758117"><ele>470.0</ele><time>2026-04-26T14:56:23.026Z</time></trkpt><trkpt lat="43.97258" lon="12.1757067"><ele>472.0</ele><time>2026-04-26T14:56:24.026Z</time></trkpt><trkpt lat="43.9724783" lon="12.1756083"><ele>474.0</ele><time>2026-04-26T14:56:25.025Z</time></trkpt><trkpt lat="43.9723717" lon="12.17547"><ele>476.0</ele><time>2026-04-26T14:56:26.024Z</time></trkpt><trkpt lat="43.972245" lon="12.1753117"><ele>476.0</ele><time>2026-04-26T14:56:27.026Z</time></trkpt><trkpt lat="43.9721283" lon="12.1751517"><ele>476.0</ele><time>2026-04-26T14:56:28.025Z</time></trkpt><trkpt lat="43.9720283" lon="12.175"><ele>476.0</ele><time>2026-04-26T14:56:29.032Z</time></trkpt><trkpt lat="43.9719533" lon="12.17485"><ele>476.0</ele><time>2026-04-26T14:56:30.023Z</time></trkpt><trkpt lat="43.9719133" lon="12.1746717"><ele>477.0</ele><time>2026-04-26T14:56:31.028Z</time></trkpt><trkpt lat="43.9719017" lon="12.17445"><ele>478.0</ele><time>2026-04-26T14:56:32.026Z</time></trkpt><trkpt lat="43.9718933" lon="12.1742217"><ele>479.0</ele><time>2026-04-26T14:56:33.028Z</time></trkpt><trkpt lat="43.9719167" lon="12.1739967"><ele>479.0</ele><time>2026-04-26T14:56:34.025Z</time></trkpt><trkpt lat="43.9719483" lon="12.1737867"><ele>479.0</ele><time>2026-04-26T14:56:35.025Z</time></trkpt><trkpt lat="43.9720233" lon="12.1735783"><ele>479.0</ele><time>2026-04-26T14:56:36.025Z</time></trkpt><trkpt lat="43.97209" lon="12.1733467"><ele>480.66666666666663</ele><time>2026-04-26T14:56:37.025Z</time></trkpt><trkpt lat="43.9721217" lon="12.1730933"><ele>482.33333333333337</ele><time>2026-04-26T14:56:38.025Z</time></trkpt><trkpt lat="43.9721383" lon="12.172815"><ele>484.0</ele><time>2026-04-26T14:56:39.028Z</time></trkpt><trkpt lat="43.9721817" lon="12.1725283"><ele>486.33333333333337</ele><time>2026-04-26T14:56:40.026Z</time></trkpt><trkpt lat="43.9722433" lon="12.1722383"><ele>488.66666666666663</ele><time>2026-04-26T14:56:41.025Z</time></trkpt><trkpt lat="43.97232" lon="12.171965"><ele>491.0</ele><time>2026-04-26T14:56:42.028Z</time></trkpt><trkpt lat="43.972385" lon="12.1717117"><ele>492.0</ele><time>2026-04-26T14:56:43.025Z</time></trkpt><trkpt lat="43.9724617" lon="12.1714767"><ele>493.0</ele><time>2026-04-26T14:56:44.024Z</time></trkpt><trkpt lat="43.972535" lon="12.1712417"><ele>494.0</ele><time>2026-04-26T14:56:45.025Z</time></trkpt><trkpt lat="43.97262" lon="12.1710167"><ele>495.66666666666663</ele><time>2026-04-26T14:56:46.028Z</time></trkpt><trkpt lat="43.972705" lon="12.1708017"><ele>497.33333333333337</ele><time>2026-04-26T14:56:47.025Z</time></trkpt><trkpt lat="43.972785" lon="12.1705867"><ele>499.0</ele><time>2026-04-26T14:56:48.026Z</time></trkpt><trkpt lat="43.9728533" lon="12.17037"><ele>499.0</ele><time>2026-04-26T14:56:49.026Z</time></trkpt><trkpt lat="43.9728983" lon="12.17014"><ele>499.0</ele><time>2026-04-26T14:56:50.025Z</time></trkpt><trkpt lat="43.9729183" lon="12.1698967"><ele>499.0</ele><time>2026-04-26T14:56:51.03Z</time></trkpt><trkpt lat="43.9729067" lon="12.1696683"><ele>500.5</ele><time>2026-04-26T14:56:52.024Z</time></trkpt><trkpt lat="43.9728883" lon="12.1694683"><ele>502.0</ele><time>2026-04-26T14:56:53.026Z</time></trkpt><trkpt lat="43.9728883" lon="12.169305"><ele>503.5</ele><time>2026-04-26T14:56:54.024Z</time></trkpt><trkpt lat="43.9729333" lon="12.169185"><ele>505.0</ele><time>2026-04-26T14:56:55.026Z</time></trkpt><trkpt lat="43.9729917" lon="12.16909"><ele>503.8</ele><time>2026-04-26T14:56:56.026Z</time></trkpt><trkpt lat="43.9730783" lon="12.16902"><ele>502.6</ele><time>2026-04-26T14:56:57.025Z</time></trkpt><trkpt lat="43.97318" lon="12.1689433"><ele>501.4</ele><time>2026-04-26T14:56:58.03Z</time></trkpt><trkpt lat="43.973265" lon="12.1688333"><ele>500.2</ele><time>2026-04-26T14:56:59.023Z</time></trkpt><trkpt lat="43.97333" lon="12.1686983"><ele>499.0</ele><time>2026-04-26T14:57:00.025Z</time></trkpt><trkpt lat="43.9734" lon="12.1685917"><ele>499.0</ele><time>2026-04-26T14:57:01.024Z</time></trkpt><trkpt lat="43.9734883" lon="12.1685333"><ele>499.0</ele><time>2026-04-26T14:57:02.027Z</time></trkpt><trkpt lat="43.9735967" lon="12.1685217"><ele>499.0</ele><time>2026-04-26T14:57:03.029Z</time></trkpt><trkpt lat="43.97372" lon="12.168545"><ele>499.0</ele><time>2026-04-26T14:57:04.026Z</time></trkpt><trkpt lat="43.97387" lon="12.168515"><ele>499.0</ele><time>2026-04-26T14:57:05.031Z</time></trkpt><trkpt lat="43.97403" lon="12.1684367"><ele>499.0</ele><time>2026-04-26T14:57:06.025Z</time></trkpt><trkpt lat="43.9741983" lon="12.1683217"><ele>499.0</ele><time>2026-04-26T14:57:07.025Z</time></trkpt><trkpt lat="43.9743617" lon="12.1681617"><ele>497.0</ele><time>2026-04-26T14:57:08.026Z</time></trkpt><trkpt lat="43.9745117" lon="12.167985"><ele>495.0</ele><time>2026-04-26T14:57:09.026Z</time></trkpt><trkpt lat="43.9746383" lon="12.1677883"><ele>493.0</ele><time>2026-04-26T14:57:10.028Z</time></trkpt><trkpt lat="43.9747467" lon="12.167595"><ele>493.0</ele><time>2026-04-26T14:57:11.024Z</time></trkpt><trkpt lat="43.9748083" lon="12.1673867"><ele>493.0</ele><time>2026-04-26T14:57:12.023Z</time></trkpt><trkpt lat="43.97483" lon="12.1671417"><ele>493.0</ele><time>2026-04-26T14:57:13.028Z</time></trkpt><trkpt lat="43.9748167" lon="12.1668667"><ele>489.33333333333337</ele><time>2026-04-26T14:57:14.025Z</time></trkpt><trkpt lat="43.9748433" lon="12.166585"><ele>485.66666666666663</ele><time>2026-04-26T14:57:15.025Z</time></trkpt><trkpt lat="43.9748883" lon="12.1662917"><ele>482.0</ele><time>2026-04-26T14:57:16.027Z</time></trkpt><trkpt lat="43.97494" lon="12.1660167"><ele>482.0</ele><time>2026-04-26T14:57:17.025Z</time></trkpt><trkpt lat="43.9749917" lon="12.1657583"><ele>482.0</ele><time>2026-04-26T14:57:18.03Z</time></trkpt><trkpt lat="43.9750617" lon="12.1655267"><ele>482.0</ele><time>2026-04-26T14:57:19.025Z</time></trkpt><trkpt lat="43.9751154" lon="12.1653057"><ele>482.3333333333333</ele><time>2026-04-26T14:57:20.028Z</time></trkpt><trkpt lat="43.9751811" lon="12.1651036"><ele>482.66666666666663</ele><time>2026-04-26T14:57:21.025Z</time></trkpt><trkpt lat="43.9752421" lon="12.1649006"><ele>483.0</ele><time>2026-04-26T14:57:22.026Z</time></trkpt><trkpt lat="43.9753139" lon="12.1646998"><ele>483.0</ele><time>2026-04-26T14:57:23.025Z</time></trkpt><trkpt lat="43.9753905" lon="12.1644982"><ele>483.0</ele><time>2026-04-26T14:57:24.027Z</time></trkpt><trkpt lat="43.9754679" lon="12.1643009"><ele>483.0</ele><time>2026-04-26T14:57:25.024Z</time></trkpt><trkpt lat="43.9755456" lon="12.1641254"><ele>481.0</ele><time>2026-04-26T14:57:26.026Z</time></trkpt><trkpt lat="43.9756286" lon="12.163964"><ele>479.0</ele><time>2026-04-26T14:57:27.026Z</time></trkpt><trkpt lat="43.9757171" lon="12.1638045"><ele>477.0</ele><time>2026-04-26T14:57:28.026Z</time></trkpt><trkpt lat="43.9758253" lon="12.1636565"><ele>475.0</ele><time>2026-04-26T14:57:29.03Z</time></trkpt><trkpt lat="43.9759577" lon="12.1635425"><ele>475.0</ele><time>2026-04-26T14:57:30.025Z</time></trkpt><trkpt lat="43.9760908" lon="12.1634466"><ele>475.0</ele><time>2026-04-26T14:57:31.025Z</time></trkpt><trkpt lat="43.9761959" lon="12.1633451"><ele>475.0</ele><time>2026-04-26T14:57:32.026Z</time></trkpt><trkpt lat="43.9762618" lon="12.1632338"><ele>475.0</ele><time>2026-04-26T14:57:33.027Z</time></trkpt><trkpt lat="43.9762865" lon="12.16311"><ele>476.50000000000006</ele><time>2026-04-26T14:57:34.026Z</time></trkpt><trkpt lat="43.9762752" lon="12.1629838"><ele>478.0</ele><time>2026-04-26T14:57:35.024Z</time></trkpt><trkpt lat="43.97624" lon="12.1628653"><ele>479.5</ele><time>2026-04-26T14:57:36.029Z</time></trkpt><trkpt lat="43.9761826" lon="12.1627736"><ele>481.0</ele><time>2026-04-26T14:57:37.026Z</time></trkpt><trkpt lat="43.9761158" lon="12.1627015"><ele>482.50000000000006</ele><time>2026-04-26T14:57:38.026Z</time></trkpt><trkpt lat="43.976044" lon="12.1626542"><ele>484.0</ele><time>2026-04-26T14:57:39.024Z</time></trkpt><trkpt lat="43.9759766" lon="12.1626297"><ele>484.0</ele><time>2026-04-26T14:57:40.025Z</time></trkpt><trkpt lat="43.9758914" lon="12.1625433"><ele>484.0</ele><time>2026-04-26T14:57:42.027Z</time></trkpt><trkpt lat="43.9759468" lon="12.1624876"><ele>484.0</ele><time>2026-04-26T14:57:44.025Z</time></trkpt><trkpt lat="43.9760327" lon="12.1625014"><ele>484.0</ele><time>2026-04-26T14:57:45.03Z</time></trkpt><trkpt lat="43.9761308" lon="12.1625165"><ele>484.0</ele><time>2026-04-26T14:57:46.024Z</time></trkpt><trkpt lat="43.9762415" lon="12.1625201"><ele>484.0</ele><time>2026-04-26T14:57:47.024Z</time></trkpt><trkpt lat="43.9763533" lon="12.1624623"><ele>484.0</ele><time>2026-04-26T14:57:48.027Z</time></trkpt><trkpt lat="43.9764536" lon="12.1623427"><ele>484.0</ele><time>2026-04-26T14:57:49.025Z</time></trkpt><trkpt lat="43.97653" lon="12.162196"><ele>484.0</ele><time>2026-04-26T14:57:50.029Z</time></trkpt><trkpt lat="43.9765666" lon="12.1620274"><ele>482.25</ele><time>2026-04-26T14:57:51.025Z</time></trkpt><trkpt lat="43.9765605" lon="12.1618533"><ele>480.5</ele><time>2026-04-26T14:57:52.025Z</time></trkpt><trkpt lat="43.9765417" lon="12.1616817"><ele>478.75</ele><time>2026-04-26T14:57:53.023Z</time></trkpt><trkpt lat="43.9765467" lon="12.1615217"><ele>477.0</ele><time>2026-04-26T14:57:54.026Z</time></trkpt><trkpt lat="43.9766067" lon="12.1613567"><ele>473.5</ele><time>2026-04-26T14:57:55.026Z</time></trkpt><trkpt lat="43.9766983" lon="12.1612033"><ele>470.0</ele><time>2026-04-26T14:57:56.025Z</time></trkpt><trkpt lat="43.976775" lon="12.1610533"><ele>466.5</ele><time>2026-04-26T14:57:57.025Z</time></trkpt><trkpt lat="43.9768233" lon="12.1608967"><ele>463.0</ele><time>2026-04-26T14:57:58.025Z</time></trkpt><trkpt lat="43.976815" lon="12.1607267"><ele>459.5</ele><time>2026-04-26T14:57:59.024Z</time></trkpt><trkpt lat="43.97677" lon="12.1605467"><ele>456.0</ele><time>2026-04-26T14:58:00.026Z</time></trkpt><trkpt lat="43.9767683" lon="12.16036"><ele>452.5</ele><time>2026-04-26T14:58:01.03Z</time></trkpt><trkpt lat="43.976825" lon="12.16017"><ele>449.0</ele><time>2026-04-26T14:58:02.025Z</time></trkpt><trkpt lat="43.9768767" lon="12.15997"><ele>447.66666666666663</ele><time>2026-04-26T14:58:03.025Z</time></trkpt><trkpt lat="43.9769167" lon="12.1597533"><ele>446.33333333333337</ele><time>2026-04-26T14:58:04.026Z</time></trkpt><trkpt lat="43.9769617" lon="12.159515"><ele>445.0</ele><time>2026-04-26T14:58:05.025Z</time></trkpt><trkpt lat="43.977035" lon="12.1592717"><ele>448.6666666666667</ele><time>2026-04-26T14:58:06.026Z</time></trkpt><trkpt lat="43.9771217" lon="12.15903"><ele>452.33333333333337</ele><time>2026-04-26T14:58:07.025Z</time></trkpt><trkpt lat="43.9772017" lon="12.1587817"><ele>456.0</ele><time>2026-04-26T14:58:08.026Z</time></trkpt><trkpt lat="43.97728" lon="12.1585267"><ele>456.0</ele><time>2026-04-26T14:58:09.026Z</time></trkpt><trkpt lat="43.9773617" lon="12.1582817"><ele>456.0</ele><time>2026-04-26T14:58:10.023Z</time></trkpt><trkpt lat="43.9774483" lon="12.1580467"><ele>456.0</ele><time>2026-04-26T14:58:11.024Z</time></trkpt><trkpt lat="43.9775283" lon="12.1578017"><ele>456.66666666666663</ele><time>2026-04-26T14:58:12.024Z</time></trkpt><trkpt lat="43.97761" lon="12.1575567"><ele>457.3333333333333</ele><time>2026-04-26T14:58:13.029Z</time></trkpt><trkpt lat="43.9777083" lon="12.1573333"><ele>458.0</ele><time>2026-04-26T14:58:14.028Z</time></trkpt><trkpt lat="43.977815" lon="12.1571133"><ele>458.0</ele><time>2026-04-26T14:58:15.028Z</time></trkpt><trkpt lat="43.9779367" lon="12.15691"><ele>458.0</ele><time>2026-04-26T14:58:16.026Z</time></trkpt><trkpt lat="43.9780667" lon="12.1567167"><ele>458.0</ele><time>2026-04-26T14:58:17.023Z</time></trkpt><trkpt lat="43.9781933" lon="12.1565217"><ele>460.0</ele><time>2026-04-26T14:58:18.026Z</time></trkpt><trkpt lat="43.9783217" lon="12.1563533"><ele>462.0</ele><time>2026-04-26T14:58:19.025Z</time></trkpt><trkpt lat="43.9784383" lon="12.156185"><ele>464.0</ele><time>2026-04-26T14:58:20.103Z</time></trkpt><trkpt lat="43.9785233" lon="12.156"><ele>464.0</ele><time>2026-04-26T14:58:21.023Z</time></trkpt><trkpt lat="43.9785883" lon="12.1558117"><ele>464.0</ele><time>2026-04-26T14:58:22.024Z</time></trkpt><trkpt lat="43.978655" lon="12.1556583"><ele>464.0</ele><time>2026-04-26T14:58:23.024Z</time></trkpt><trkpt lat="43.9787067" lon="12.155525"><ele>464.0</ele><time>2026-04-26T14:58:24.027Z</time></trkpt><trkpt lat="43.9787517" lon="12.15539"><ele>468.75</ele><time>2026-04-26T14:58:25.026Z</time></trkpt><trkpt lat="43.9787933" lon="12.155235"><ele>473.5</ele><time>2026-04-26T14:58:26.029Z</time></trkpt><trkpt lat="43.9788233" lon="12.155055"><ele>478.25</ele><time>2026-04-26T14:58:27.023Z</time></trkpt><trkpt lat="43.97884" lon="12.1548617"><ele>483.0</ele><time>2026-04-26T14:58:28.026Z</time></trkpt><trkpt lat="43.9788617" lon="12.154685"><ele>483.0</ele><time>2026-04-26T14:58:29.025Z</time></trkpt><trkpt lat="43.9788867" lon="12.1545333"><ele>482.99999999999994</ele><time>2026-04-26T14:58:30.026Z</time></trkpt><trkpt lat="43.9789317" lon="12.1544067"><ele>482.99999999999994</ele><time>2026-04-26T14:58:31.028Z</time></trkpt><trkpt lat="43.979015" lon="12.154315"><ele>483.0</ele><time>2026-04-26T14:58:32.026Z</time></trkpt><trkpt lat="43.9791217" lon="12.154245"><ele>483.0</ele><time>2026-04-26T14:58:33.026Z</time></trkpt><trkpt lat="43.979255" lon="12.154165"><ele>484.75</ele><time>2026-04-26T14:58:34.023Z</time></trkpt><trkpt lat="43.9793767" lon="12.1540483"><ele>486.5</ele><time>2026-04-26T14:58:35.028Z</time></trkpt><trkpt lat="43.9794883" lon="12.1539117"><ele>488.25</ele><time>2026-04-26T14:58:36.026Z</time></trkpt><trkpt lat="43.9795767" lon="12.1537567"><ele>490.0</ele><time>2026-04-26T14:58:37.025Z</time></trkpt><trkpt lat="43.9796383" lon="12.15359"><ele>490.0</ele><time>2026-04-26T14:58:38.025Z</time></trkpt><trkpt lat="43.9796583" lon="12.1534083"><ele>490.0</ele><time>2026-04-26T14:58:39.026Z</time></trkpt><trkpt lat="43.9796533" lon="12.15323"><ele>490.0</ele><time>2026-04-26T14:58:40.027Z</time></trkpt><trkpt lat="43.9796667" lon="12.1530483"><ele>490.0</ele><time>2026-04-26T14:58:41.027Z</time></trkpt><trkpt lat="43.9796917" lon="12.152865"><ele>487.75</ele><time>2026-04-26T14:58:42.025Z</time></trkpt><trkpt lat="43.97972" lon="12.1526883"><ele>485.5</ele><time>2026-04-26T14:58:43.025Z</time></trkpt><trkpt lat="43.97974" lon="12.1525067"><ele>483.25</ele><time>2026-04-26T14:58:44.026Z</time></trkpt><trkpt lat="43.9797433" lon="12.1523417"><ele>481.0</ele><time>2026-04-26T14:58:45.025Z</time></trkpt><trkpt lat="43.979735" lon="12.1521983"><ele>479.75</ele><time>2026-04-26T14:58:46.024Z</time></trkpt><trkpt lat="43.9796967" lon="12.1520633"><ele>478.5</ele><time>2026-04-26T14:58:47.029Z</time></trkpt><trkpt lat="43.97963" lon="12.1519367"><ele>477.25</ele><time>2026-04-26T14:58:48.024Z</time></trkpt><trkpt lat="43.9795233" lon="12.15182"><ele>476.0</ele><time>2026-04-26T14:58:49.025Z</time></trkpt><trkpt lat="43.9794067" lon="12.1516933"><ele>476.0</ele><time>2026-04-26T14:58:50.024Z</time></trkpt><trkpt lat="43.9793" lon="12.1515567"><ele>476.0</ele><time>2026-04-26T14:58:51.025Z</time></trkpt><trkpt lat="43.9791883" lon="12.1514183"><ele>476.0</ele><time>2026-04-26T14:58:52.028Z</time></trkpt><trkpt lat="43.9790683" lon="12.1513183"><ele>476.0</ele><time>2026-04-26T14:58:53.023Z</time></trkpt><trkpt lat="43.97895" lon="12.1512533"><ele>481.6</ele><time>2026-04-26T14:58:54.023Z</time></trkpt><trkpt lat="43.9788433" lon="12.1512"><ele>487.20000000000005</ele><time>2026-04-26T14:58:55.027Z</time></trkpt><trkpt lat="43.9787733" lon="12.1511183"><ele>492.79999999999995</ele><time>2026-04-26T14:58:56.025Z</time></trkpt><trkpt lat="43.97874" lon="12.1510033"><ele>498.4</ele><time>2026-04-26T14:58:57.026Z</time></trkpt><trkpt lat="43.9787317" lon="12.1508633"><ele>504.0</ele><time>2026-04-26T14:58:58.026Z</time></trkpt><trkpt lat="43.9786983" lon="12.1507483"><ele>503.25</ele><time>2026-04-26T14:58:59.025Z</time></trkpt><trkpt lat="43.97863" lon="12.15064"><ele>502.5</ele><time>2026-04-26T14:59:00.024Z</time></trkpt><trkpt lat="43.9785367" lon="12.1505383"><ele>501.75</ele><time>2026-04-26T14:59:01.024Z</time></trkpt><trkpt lat="43.9784333" lon="12.1504317"><ele>501.0</ele><time>2026-04-26T14:59:02.025Z</time></trkpt><trkpt lat="43.978325" lon="12.1503217"><ele>505.66666666666663</ele><time>2026-04-26T14:59:03.026Z</time></trkpt><trkpt lat="43.978215" lon="12.1501917"><ele>510.3333333333333</ele><time>2026-04-26T14:59:04.025Z</time></trkpt><trkpt lat="43.9780967" lon="12.15004"><ele>515.0</ele><time>2026-04-26T14:59:05.025Z</time></trkpt><trkpt lat="43.977965" lon="12.14991"><ele>515.6666666666666</ele><time>2026-04-26T14:59:06.026Z</time></trkpt><trkpt lat="43.9778283" lon="12.1498083"><ele>516.3333333333334</ele><time>2026-04-26T14:59:07.025Z</time></trkpt><trkpt lat="43.97769" lon="12.1497167"><ele>517.0</ele><time>2026-04-26T14:59:08.025Z</time></trkpt><trkpt lat="43.97756" lon="12.1495733"><ele>519.3333333333334</ele><time>2026-04-26T14:59:09.025Z</time></trkpt><trkpt lat="43.9774583" lon="12.14938"><ele>521.6666666666666</ele><time>2026-04-26T14:59:10.024Z</time></trkpt><trkpt lat="43.9773717" lon="12.1491767"><ele>524.0</ele><time>2026-04-26T14:59:11.025Z</time></trkpt><trkpt lat="43.9772983" lon="12.14899"><ele>525.3333333333333</ele><time>2026-04-26T14:59:12.023Z</time></trkpt><trkpt lat="43.9772383" lon="12.14879"><ele>526.6666666666666</ele><time>2026-04-26T14:59:13.025Z</time></trkpt><trkpt lat="43.9771833" lon="12.1485683"><ele>528.0</ele><time>2026-04-26T14:59:14.029Z</time></trkpt><trkpt lat="43.9771417" lon="12.148325"><ele>525.0</ele><time>2026-04-26T14:59:15.027Z</time></trkpt><trkpt lat="43.9771017" lon="12.1480833"><ele>522.0</ele><time>2026-04-26T14:59:16.025Z</time></trkpt><trkpt lat="43.9770533" lon="12.1478633"><ele>519.0</ele><time>2026-04-26T14:59:17.025Z</time></trkpt><trkpt lat="43.9770067" lon="12.1476617"><ele>519.0</ele><time>2026-04-26T14:59:18.025Z</time></trkpt><trkpt lat="43.9769667" lon="12.147485"><ele>519.0</ele><time>2026-04-26T14:59:19.026Z</time></trkpt><trkpt lat="43.97694" lon="12.14732"><ele>519.0</ele><time>2026-04-26T14:59:20.023Z</time></trkpt><trkpt lat="43.9769183" lon="12.1471583"><ele>519.0</ele><time>2026-04-26T14:59:21.034Z</time></trkpt><trkpt lat="43.9768817" lon="12.146995"><ele>518.25</ele><time>2026-04-26T14:59:22.024Z</time></trkpt><trkpt lat="43.9768567" lon="12.14681"><ele>517.5</ele><time>2026-04-26T14:59:23.024Z</time></trkpt><trkpt lat="43.9768683" lon="12.1466083"><ele>516.75</ele><time>2026-04-26T14:59:24.023Z</time></trkpt><trkpt lat="43.976895" lon="12.1464033"><ele>516.0</ele><time>2026-04-26T14:59:25.029Z</time></trkpt><trkpt lat="43.9769233" lon="12.1461917"><ele>516.0</ele><time>2026-04-26T14:59:26.108Z</time></trkpt><trkpt lat="43.97696" lon="12.145975"><ele>516.0</ele><time>2026-04-26T14:59:27.029Z</time></trkpt><trkpt lat="43.9769917" lon="12.1457467"><ele>516.0</ele><time>2026-04-26T14:59:28.025Z</time></trkpt><trkpt lat="43.9770267" lon="12.1455133"><ele>521.0</ele><time>2026-04-26T14:59:29.024Z</time></trkpt><trkpt lat="43.9770783" lon="12.145285"><ele>526.0</ele><time>2026-04-26T14:59:30.023Z</time></trkpt><trkpt lat="43.9771333" lon="12.1450517"><ele>531.0</ele><time>2026-04-26T14:59:31.03Z</time></trkpt><trkpt lat="43.97717" lon="12.1448"><ele>534.6666666666666</ele><time>2026-04-26T14:59:32.024Z</time></trkpt><trkpt lat="43.9771967" lon="12.1445467"><ele>538.3333333333333</ele><time>2026-04-26T14:59:33.025Z</time></trkpt><trkpt lat="43.977225" lon="12.1442867"><ele>542.0</ele><time>2026-04-26T14:59:34.025Z</time></trkpt><trkpt lat="43.9772633" lon="12.1440333"><ele>544.6666666666666</ele><time>2026-04-26T14:59:35.024Z</time></trkpt><trkpt lat="43.97733" lon="12.1438083"><ele>547.3333333333334</ele><time>2026-04-26T14:59:36.031Z</time></trkpt><trkpt lat="43.9774133" lon="12.143615"><ele>550.0</ele><time>2026-04-26T14:59:37.024Z</time></trkpt><trkpt lat="43.9774717" lon="12.1434233"><ele>550.0</ele><time>2026-04-26T14:59:38.023Z</time></trkpt><trkpt lat="43.977515" lon="12.1432233"><ele>550.0</ele><time>2026-04-26T14:59:39.025Z</time></trkpt><trkpt lat="43.9775433" lon="12.1430167"><ele>550.0</ele><time>2026-04-26T14:59:40.023Z</time></trkpt><trkpt lat="43.977575" lon="12.1428067"><ele>550.3333333333334</ele><time>2026-04-26T14:59:41.024Z</time></trkpt><trkpt lat="43.97764" lon="12.1425917"><ele>550.6666666666666</ele><time>2026-04-26T14:59:42.028Z</time></trkpt><trkpt lat="43.97771" lon="12.1423867"><ele>551.0</ele><time>2026-04-26T14:59:43.027Z</time></trkpt><trkpt lat="43.9777667" lon="12.1421933"><ele>551.0</ele><time>2026-04-26T14:59:44.024Z</time></trkpt><trkpt lat="43.9778083" lon="12.14201"><ele>551.0</ele><time>2026-04-26T14:59:45.023Z</time></trkpt><trkpt lat="43.977865" lon="12.1418533"><ele>551.0</ele><time>2026-04-26T14:59:46.025Z</time></trkpt><trkpt lat="43.9779433" lon="12.1417433"><ele>551.0</ele><time>2026-04-26T14:59:47.027Z</time></trkpt><trkpt lat="43.9780283" lon="12.1416733"><ele>551.0</ele><time>2026-04-26T14:59:48.022Z</time></trkpt><trkpt lat="43.9781167" lon="12.141645"><ele>551.0</ele><time>2026-04-26T14:59:49.024Z</time></trkpt><trkpt lat="43.9782067" lon="12.1416467"><ele>551.0</ele><time>2026-04-26T14:59:50.025Z</time></trkpt><trkpt lat="43.97831" lon="12.14167"><ele>551.0</ele><time>2026-04-26T14:59:51.031Z</time></trkpt><trkpt lat="43.978415" lon="12.1417"><ele>551.0</ele><time>2026-04-26T14:59:52.024Z</time></trkpt><trkpt lat="43.978525" lon="12.141725"><ele>550.8</ele><time>2026-04-26T14:59:53.025Z</time></trkpt><trkpt lat="43.9786317" lon="12.14173"><ele>550.6</ele><time>2026-04-26T14:59:54.022Z</time></trkpt><trkpt lat="43.9787233" lon="12.1416983"><ele>550.4</ele><time>2026-04-26T14:59:55.023Z</time></trkpt><trkpt lat="43.9788017" lon="12.141635"><ele>550.2</ele><time>2026-04-26T14:59:56.026Z</time></trkpt><trkpt lat="43.97886" lon="12.141505"><ele>550.0</ele><time>2026-04-26T14:59:57.023Z</time></trkpt><trkpt lat="43.9789033" lon="12.1413333"><ele>550.0</ele><time>2026-04-26T14:59:58.024Z</time></trkpt><trkpt lat="43.9789683" lon="12.1411467"><ele>550.0</ele><time>2026-04-26T14:59:59.03Z</time></trkpt><trkpt lat="43.9790617" lon="12.1409683"><ele>550.0</ele><time>2026-04-26T15:00:00.028Z</time></trkpt><trkpt lat="43.9791883" lon="12.14081"><ele>547.0</ele><time>2026-04-26T15:00:01.027Z</time></trkpt><trkpt lat="43.9793283" lon="12.1406533"><ele>544.0</ele><time>2026-04-26T15:00:02.026Z</time></trkpt><trkpt lat="43.97945" lon="12.14048"><ele>541.0</ele><time>2026-04-26T15:00:03.026Z</time></trkpt><trkpt lat="43.97954" lon="12.1402917"><ele>541.0</ele><time>2026-04-26T15:00:04.026Z</time></trkpt><trkpt lat="43.9796133" lon="12.1401183"><ele>541.0</ele><time>2026-04-26T15:00:05.028Z</time></trkpt><trkpt lat="43.9796583" lon="12.1399517"><ele>541.0</ele><time>2026-04-26T15:00:06.024Z</time></trkpt><trkpt lat="43.9796767" lon="12.139795"><ele>541.0</ele><time>2026-04-26T15:00:07.027Z</time></trkpt><trkpt lat="43.9796817" lon="12.13966"><ele>539.5</ele><time>2026-04-26T15:00:08.024Z</time></trkpt><trkpt lat="43.9796433" lon="12.1395333"><ele>538.0</ele><time>2026-04-26T15:00:09.026Z</time></trkpt><trkpt lat="43.9795641" lon="12.139411"><ele>536.5</ele><time>2026-04-26T15:00:10.025Z</time></trkpt><trkpt lat="43.9794738" lon="12.1392609"><ele>535.0</ele><time>2026-04-26T15:00:11.025Z</time></trkpt><trkpt lat="43.9793945" lon="12.1390803"><ele>530.75</ele><time>2026-04-26T15:00:12.026Z</time></trkpt><trkpt lat="43.9793355" lon="12.1388843"><ele>526.5</ele><time>2026-04-26T15:00:13.027Z</time></trkpt><trkpt lat="43.9792707" lon="12.1387082"><ele>522.25</ele><time>2026-04-26T15:00:14.027Z</time></trkpt><trkpt lat="43.9791883" lon="12.1385485"><ele>518.0</ele><time>2026-04-26T15:00:15.026Z</time></trkpt><trkpt lat="43.9790659" lon="12.138425"><ele>522.3333333333333</ele><time>2026-04-26T15:00:16.024Z</time></trkpt><trkpt lat="43.9789133" lon="12.1383298"><ele>526.6666666666666</ele><time>2026-04-26T15:00:17.025Z</time></trkpt><trkpt lat="43.9787433" lon="12.1382413"><ele>531.0</ele><time>2026-04-26T15:00:18.023Z</time></trkpt><trkpt lat="43.9785742" lon="12.1381693"><ele>531.0</ele><time>2026-04-26T15:00:19.022Z</time></trkpt><trkpt lat="43.9784243" lon="12.1381044"><ele>531.0</ele><time>2026-04-26T15:00:20.024Z</time></trkpt><trkpt lat="43.9783008" lon="12.1379977"><ele>531.0</ele><time>2026-04-26T15:00:21.024Z</time></trkpt><trkpt lat="43.9781892" lon="12.1378533"><ele>537.3333333333334</ele><time>2026-04-26T15:00:22.024Z</time></trkpt><trkpt lat="43.9780762" lon="12.1377017"><ele>543.6666666666667</ele><time>2026-04-26T15:00:23.022Z</time></trkpt><trkpt lat="43.977946" lon="12.1375899"><ele>550.0</ele><time>2026-04-26T15:00:24.025Z</time></trkpt><trkpt lat="43.9778042" lon="12.1375419"><ele>550.0</ele><time>2026-04-26T15:00:25.024Z</time></trkpt><trkpt lat="43.9776619" lon="12.1375374"><ele>550.0</ele><time>2026-04-26T15:00:26.028Z</time></trkpt><trkpt lat="43.9775261" lon="12.1375556"><ele>550.0</ele><time>2026-04-26T15:00:27.025Z</time></trkpt><trkpt lat="43.9774075" lon="12.1375512"><ele>550.0</ele><time>2026-04-26T15:00:28.022Z</time></trkpt><trkpt lat="43.9773195" lon="12.137499"><ele>549.25</ele><time>2026-04-26T15:00:29.028Z</time></trkpt><trkpt lat="43.9772497" lon="12.1374122"><ele>548.5</ele><time>2026-04-26T15:00:30.024Z</time></trkpt><trkpt lat="43.9772097" lon="12.1372672"><ele>547.75</ele><time>2026-04-26T15:00:31.032Z</time></trkpt><trkpt lat="43.9771832" lon="12.1370558"><ele>547.0</ele><time>2026-04-26T15:00:32.024Z</time></trkpt><trkpt lat="43.9771314" lon="12.1368178"><ele>547.0</ele><time>2026-04-26T15:00:33.026Z</time></trkpt><trkpt lat="43.9770419" lon="12.1365662"><ele>547.0</ele><time>2026-04-26T15:00:34.025Z</time></trkpt><trkpt lat="43.9769246" lon="12.1363101"><ele>547.0</ele><time>2026-04-26T15:00:35.025Z</time></trkpt><trkpt lat="43.9768059" lon="12.1360508"><ele>547.6666666666667</ele><time>2026-04-26T15:00:36.024Z</time></trkpt><trkpt lat="43.9766897" lon="12.1357929"><ele>548.3333333333334</ele><time>2026-04-26T15:00:37.024Z</time></trkpt><trkpt lat="43.9765719" lon="12.1355341"><ele>549.0</ele><time>2026-04-26T15:00:38.024Z</time></trkpt><trkpt lat="43.9764649" lon="12.1352788"><ele>549.0</ele><time>2026-04-26T15:00:39.027Z</time></trkpt><trkpt lat="43.9763508" lon="12.1350487"><ele>549.0</ele><time>2026-04-26T15:00:40.024Z</time></trkpt><trkpt lat="43.9762466" lon="12.1348391"><ele>549.0</ele><time>2026-04-26T15:00:41.026Z</time></trkpt><trkpt lat="43.9761575" lon="12.1346627"><ele>547.6</ele><time>2026-04-26T15:00:42.023Z</time></trkpt><trkpt lat="43.9760874" lon="12.134504"><ele>546.2</ele><time>2026-04-26T15:00:43.026Z</time></trkpt><trkpt lat="43.9760452" lon="12.1343629"><ele>544.8000000000001</ele><time>2026-04-26T15:00:44.024Z</time></trkpt><trkpt lat="43.9760344" lon="12.1342383"><ele>543.4</ele><time>2026-04-26T15:00:45.028Z</time></trkpt><trkpt lat="43.9760673" lon="12.1341257"><ele>542.0</ele><time>2026-04-26T15:00:46.025Z</time></trkpt><trkpt lat="43.9761544" lon="12.1340543"><ele>539.75</ele><time>2026-04-26T15:00:47.025Z</time></trkpt><trkpt lat="43.9762868" lon="12.1340211"><ele>537.5</ele><time>2026-04-26T15:00:48.025Z</time></trkpt><trkpt lat="43.9764292" lon="12.1339713"><ele>535.25</ele><time>2026-04-26T15:00:49.024Z</time></trkpt><trkpt lat="43.9765529" lon="12.1338894"><ele>533.0</ele><time>2026-04-26T15:00:50.024Z</time></trkpt><trkpt lat="43.9766461" lon="12.1337753"><ele>531.75</ele><time>2026-04-26T15:00:51.026Z</time></trkpt><trkpt lat="43.9767031" lon="12.1336214"><ele>530.5</ele><time>2026-04-26T15:00:52.028Z</time></trkpt><trkpt lat="43.9767296" lon="12.1334383"><ele>529.25</ele><time>2026-04-26T15:00:53.027Z</time></trkpt><trkpt lat="43.9767367" lon="12.1332501"><ele>528.0</ele><time>2026-04-26T15:00:54.025Z</time></trkpt><trkpt lat="43.9767191" lon="12.1330769"><ele>531.0</ele><time>2026-04-26T15:00:55.028Z</time></trkpt><trkpt lat="43.9766558" lon="12.1329176"><ele>534.0</ele><time>2026-04-26T15:00:56.026Z</time></trkpt><trkpt lat="43.9765451" lon="12.1327819"><ele>537.0</ele><time>2026-04-26T15:00:57.027Z</time></trkpt><trkpt lat="43.9764045" lon="12.1326725"><ele>540.0</ele><time>2026-04-26T15:00:58.028Z</time></trkpt><trkpt lat="43.9762518" lon="12.1325579"><ele>540.0</ele><time>2026-04-26T15:00:59.025Z</time></trkpt><trkpt lat="43.9761015" lon="12.1324261"><ele>540.0</ele><time>2026-04-26T15:01:00.027Z</time></trkpt><trkpt lat="43.9759545" lon="12.1323012"><ele>540.0</ele><time>2026-04-26T15:01:01.024Z</time></trkpt><trkpt lat="43.9758219" lon="12.1321968"><ele>539.8333333333334</ele><time>2026-04-26T15:01:02.025Z</time></trkpt><trkpt lat="43.9757112" lon="12.1321132"><ele>539.6666666666666</ele><time>2026-04-26T15:01:03.025Z</time></trkpt><trkpt lat="43.9756296" lon="12.1320419"><ele>539.5</ele><time>2026-04-26T15:01:04.026Z</time></trkpt><trkpt lat="43.9755711" lon="12.1319685"><ele>539.3333333333333</ele><time>2026-04-26T15:01:05.024Z</time></trkpt><trkpt lat="43.9755379" lon="12.1318844"><ele>539.1666666666666</ele><time>2026-04-26T15:01:06.028Z</time></trkpt><trkpt lat="43.9755386" lon="12.1317825"><ele>539.0</ele><time>2026-04-26T15:01:07.026Z</time></trkpt><trkpt lat="43.9755783" lon="12.1316646"><ele>538.75</ele><time>2026-04-26T15:01:08.024Z</time></trkpt><trkpt lat="43.9756647" lon="12.1315391"><ele>538.5</ele><time>2026-04-26T15:01:09.026Z</time></trkpt><trkpt lat="43.9758082" lon="12.1314437"><ele>538.25</ele><time>2026-04-26T15:01:10.025Z</time></trkpt><trkpt lat="43.9759636" lon="12.131391"><ele>538.0</ele><time>2026-04-26T15:01:11.024Z</time></trkpt><trkpt lat="43.9761011" lon="12.1313314"><ele>538.0</ele><time>2026-04-26T15:01:12.024Z</time></trkpt><trkpt lat="43.9762276" lon="12.1312504"><ele>538.0</ele><time>2026-04-26T15:01:13.022Z</time></trkpt><trkpt lat="43.9763316" lon="12.1311409"><ele>538.0</ele><time>2026-04-26T15:01:14.022Z</time></trkpt><trkpt lat="43.9764067" lon="12.1309928"><ele>538.0</ele><time>2026-04-26T15:01:15.025Z</time></trkpt><trkpt lat="43.9764535" lon="12.1308266"><ele>538.5</ele><time>2026-04-26T15:01:16.027Z</time></trkpt><trkpt lat="43.9764657" lon="12.1306539"><ele>539.0</ele><time>2026-04-26T15:01:17.024Z</time></trkpt><trkpt lat="43.9764287" lon="12.1304767"><ele>539.5</ele><time>2026-04-26T15:01:18.024Z</time></trkpt><trkpt lat="43.9763417" lon="12.1303004"><ele>540.0</ele><time>2026-04-26T15:01:19.024Z</time></trkpt><trkpt lat="43.9762372" lon="12.1301245"><ele>540.0</ele><time>2026-04-26T15:01:20.025Z</time></trkpt><trkpt lat="43.9761353" lon="12.1299508"><ele>540.0</ele><time>2026-04-26T15:01:21.023Z</time></trkpt><trkpt lat="43.9760439" lon="12.1297763"><ele>540.0</ele><time>2026-04-26T15:01:22.024Z</time></trkpt><trkpt lat="43.9759643" lon="12.1296101"><ele>539.8</ele><time>2026-04-26T15:01:23.023Z</time></trkpt><trkpt lat="43.9758955" lon="12.1294611"><ele>539.6</ele><time>2026-04-26T15:01:24.023Z</time></trkpt><trkpt lat="43.9758424" lon="12.1293225"><ele>539.4</ele><time>2026-04-26T15:01:25.024Z</time></trkpt><trkpt lat="43.9758197" lon="12.1291876"><ele>539.2</ele><time>2026-04-26T15:01:26.021Z</time></trkpt><trkpt lat="43.9758306" lon="12.12905"><ele>539.0</ele><time>2026-04-26T15:01:27.024Z</time></trkpt><trkpt lat="43.9758877" lon="12.1289124"><ele>539.0</ele><time>2026-04-26T15:01:28.023Z</time></trkpt><trkpt lat="43.9759823" lon="12.1287855"><ele>539.0</ele><time>2026-04-26T15:01:29.023Z</time></trkpt><trkpt lat="43.9760914" lon="12.1286681"><ele>539.0</ele><time>2026-04-26T15:01:30.026Z</time></trkpt><trkpt lat="43.9761907" lon="12.1285398"><ele>539.0</ele><time>2026-04-26T15:01:31.023Z</time></trkpt><trkpt lat="43.9762568" lon="12.1283851"><ele>535.0</ele><time>2026-04-26T15:01:32.023Z</time></trkpt><trkpt lat="43.9762825" lon="12.1282098"><ele>531.0</ele><time>2026-04-26T15:01:33.026Z</time></trkpt><trkpt lat="43.9762687" lon="12.1280333"><ele>527.0</ele><time>2026-04-26T15:01:34.024Z</time></trkpt><trkpt lat="43.9762433" lon="12.1278698"><ele>523.0</ele><time>2026-04-26T15:01:35.022Z</time></trkpt><trkpt lat="43.9762589" lon="12.1277198"><ele>523.0</ele><time>2026-04-26T15:01:36.021Z</time></trkpt><trkpt lat="43.9763227" lon="12.1275768"><ele>523.0</ele><time>2026-04-26T15:01:37.023Z</time></trkpt><trkpt lat="43.9764192" lon="12.127451"><ele>523.0</ele><time>2026-04-26T15:01:38.021Z</time></trkpt><trkpt lat="43.9765505" lon="12.1273592"><ele>523.0</ele><time>2026-04-26T15:01:39.031Z</time></trkpt><trkpt lat="43.9766932" lon="12.1272779"><ele>517.3333333333334</ele><time>2026-04-26T15:01:40.026Z</time></trkpt><trkpt lat="43.9768279" lon="12.1271695"><ele>511.66666666666663</ele><time>2026-04-26T15:01:41.023Z</time></trkpt><trkpt lat="43.9769641" lon="12.1270604"><ele>506.0</ele><time>2026-04-26T15:01:42.024Z</time></trkpt><trkpt lat="43.9770973" lon="12.1269561"><ele>506.0</ele><time>2026-04-26T15:01:43.022Z</time></trkpt><trkpt lat="43.9772226" lon="12.1268664"><ele>506.0</ele><time>2026-04-26T15:01:44.027Z</time></trkpt><trkpt lat="43.9773461" lon="12.1268154"><ele>506.0</ele><time>2026-04-26T15:01:45.023Z</time></trkpt><trkpt lat="43.9774706" lon="12.1268161"><ele>506.0</ele><time>2026-04-26T15:01:46.029Z</time></trkpt><trkpt lat="43.9775931" lon="12.1268802"><ele>502.5</ele><time>2026-04-26T15:01:47.023Z</time></trkpt><trkpt lat="43.97771" lon="12.127009"><ele>499.0</ele><time>2026-04-26T15:01:48.023Z</time></trkpt><trkpt lat="43.9778208" lon="12.1271585"><ele>495.5</ele><time>2026-04-26T15:01:49.022Z</time></trkpt><trkpt lat="43.9779346" lon="12.1272834"><ele>492.0</ele><time>2026-04-26T15:01:50.023Z</time></trkpt><trkpt lat="43.9780657" lon="12.1273556"><ele>492.0</ele><time>2026-04-26T15:01:51.023Z</time></trkpt><trkpt lat="43.9782141" lon="12.1273728"><ele>492.0</ele><time>2026-04-26T15:01:52.028Z</time></trkpt><trkpt lat="43.9783757" lon="12.1273646"><ele>492.0</ele><time>2026-04-26T15:01:53.022Z</time></trkpt><trkpt lat="43.9785419" lon="12.1273609"><ele>495.66666666666663</ele><time>2026-04-26T15:01:54.023Z</time></trkpt><trkpt lat="43.9787065" lon="12.1273752"><ele>499.3333333333333</ele><time>2026-04-26T15:01:55.029Z</time></trkpt><trkpt lat="43.97887" lon="12.1273901"><ele>503.0</ele><time>2026-04-26T15:01:56.021Z</time></trkpt><trkpt lat="43.9790205" lon="12.1273741"><ele>503.0</ele><time>2026-04-26T15:01:57.03Z</time></trkpt><trkpt lat="43.9791653" lon="12.1273367"><ele>503.0</ele><time>2026-04-26T15:01:58.022Z</time></trkpt><trkpt lat="43.9792961" lon="12.1272768"><ele>503.0</ele><time>2026-04-26T15:01:59.021Z</time></trkpt><trkpt lat="43.9794164" lon="12.1271696"><ele>503.0</ele><time>2026-04-26T15:02:00.022Z</time></trkpt><trkpt lat="43.979538" lon="12.1270241"><ele>502.66666666666663</ele><time>2026-04-26T15:02:01.024Z</time></trkpt><trkpt lat="43.9796639" lon="12.1268495"><ele>502.33333333333337</ele><time>2026-04-26T15:02:02.025Z</time></trkpt><trkpt lat="43.9797951" lon="12.126656"><ele>502.0</ele><time>2026-04-26T15:02:03.024Z</time></trkpt><trkpt lat="43.979933" lon="12.1264401"><ele>497.0</ele><time>2026-04-26T15:02:04.027Z</time></trkpt><trkpt lat="43.9800716" lon="12.1262029"><ele>492.0</ele><time>2026-04-26T15:02:05.025Z</time></trkpt><trkpt lat="43.9802076" lon="12.1259519"><ele>487.0</ele><time>2026-04-26T15:02:06.025Z</time></trkpt><trkpt lat="43.9803322" lon="12.1257142"><ele>487.0</ele><time>2026-04-26T15:02:07.023Z</time></trkpt><trkpt lat="43.9804453" lon="12.1254981"><ele>487.0</ele><time>2026-04-26T15:02:08.024Z</time></trkpt><trkpt lat="43.9805418" lon="12.1252975"><ele>487.0</ele><time>2026-04-26T15:02:09.023Z</time></trkpt><trkpt lat="43.980616" lon="12.1251061"><ele>487.0</ele><time>2026-04-26T15:02:10.024Z</time></trkpt><trkpt lat="43.9806746" lon="12.1249194"><ele>487.0</ele><time>2026-04-26T15:02:11.026Z</time></trkpt><trkpt lat="43.9807218" lon="12.1247343"><ele>487.0</ele><time>2026-04-26T15:02:12.025Z</time></trkpt><trkpt lat="43.9807916" lon="12.1245581"><ele>487.0</ele><time>2026-04-26T15:02:13.025Z</time></trkpt><trkpt lat="43.9808957" lon="12.124388"><ele>487.33333333333337</ele><time>2026-04-26T15:02:14.028Z</time></trkpt><trkpt lat="43.9810278" lon="12.1242337"><ele>487.66666666666663</ele><time>2026-04-26T15:02:15.025Z</time></trkpt><trkpt lat="43.9811692" lon="12.1240938"><ele>488.0</ele><time>2026-04-26T15:02:16.025Z</time></trkpt><trkpt lat="43.9813104" lon="12.1239646"><ele>487.0</ele><time>2026-04-26T15:02:17.027Z</time></trkpt><trkpt lat="43.9814536" lon="12.1238511"><ele>486.0</ele><time>2026-04-26T15:02:18.023Z</time></trkpt><trkpt lat="43.9816043" lon="12.1237523"><ele>485.0</ele><time>2026-04-26T15:02:19.025Z</time></trkpt><trkpt lat="43.9817644" lon="12.1236676"><ele>485.0</ele><time>2026-04-26T15:02:20.026Z</time></trkpt><trkpt lat="43.9819258" lon="12.1235925"><ele>485.0</ele><time>2026-04-26T15:02:21.025Z</time></trkpt><trkpt lat="43.9820913" lon="12.1235157"><ele>485.0</ele><time>2026-04-26T15:02:22.03Z</time></trkpt><trkpt lat="43.9822676" lon="12.1234429"><ele>485.0</ele><time>2026-04-26T15:02:23.024Z</time></trkpt><trkpt lat="43.982454" lon="12.1233658"><ele>485.0</ele><time>2026-04-26T15:02:24.024Z</time></trkpt><trkpt lat="43.9826446" lon="12.1232811"><ele>485.0</ele><time>2026-04-26T15:02:25.024Z</time></trkpt><trkpt lat="43.9828435" lon="12.1232092"><ele>485.0</ele><time>2026-04-26T15:02:26.025Z</time></trkpt><trkpt lat="43.9830395" lon="12.1231491"><ele>485.0</ele><time>2026-04-26T15:02:27.023Z</time></trkpt><trkpt lat="43.9832264" lon="12.1230898"><ele>485.0</ele><time>2026-04-26T15:02:28.025Z</time></trkpt><trkpt lat="43.9833954" lon="12.1230361"><ele>481.66666666666663</ele><time>2026-04-26T15:02:29.023Z</time></trkpt><trkpt lat="43.9835563" lon="12.1229906"><ele>478.33333333333337</ele><time>2026-04-26T15:02:30.028Z</time></trkpt><trkpt lat="43.9837116" lon="12.1229429"><ele>475.0</ele><time>2026-04-26T15:02:31.024Z</time></trkpt><trkpt lat="43.9838597" lon="12.1228838"><ele>475.0</ele><time>2026-04-26T15:02:32.025Z</time></trkpt><trkpt lat="43.9839935" lon="12.1227884"><ele>475.0</ele><time>2026-04-26T15:02:33.027Z</time></trkpt><trkpt lat="43.9841152" lon="12.1226717"><ele>475.0</ele><time>2026-04-26T15:02:34.025Z</time></trkpt><trkpt lat="43.98423" lon="12.1225539"><ele>475.0</ele><time>2026-04-26T15:02:35.029Z</time></trkpt><trkpt lat="43.9843377" lon="12.1224531"><ele>474.4</ele><time>2026-04-26T15:02:36.025Z</time></trkpt><trkpt lat="43.984445" lon="12.1223835"><ele>473.8</ele><time>2026-04-26T15:02:37.027Z</time></trkpt><trkpt lat="43.984557" lon="12.1223703"><ele>473.20000000000005</ele><time>2026-04-26T15:02:38.025Z</time></trkpt><trkpt lat="43.9846603" lon="12.1223949"><ele>472.6</ele><time>2026-04-26T15:02:39.029Z</time></trkpt><trkpt lat="43.984757" lon="12.1224693"><ele>472.0</ele><time>2026-04-26T15:02:40.024Z</time></trkpt><trkpt lat="43.9848417" lon="12.1225993"><ele>472.0</ele><time>2026-04-26T15:02:41.026Z</time></trkpt><trkpt lat="43.9849207" lon="12.1227652"><ele>472.0</ele><time>2026-04-26T15:02:42.026Z</time></trkpt><trkpt lat="43.9850167" lon="12.1229285"><ele>472.0</ele><time>2026-04-26T15:02:43.027Z</time></trkpt><trkpt lat="43.9851427" lon="12.1230702"><ele>469.0</ele><time>2026-04-26T15:02:44.026Z</time></trkpt><trkpt lat="43.9852877" lon="12.1231933"><ele>466.0</ele><time>2026-04-26T15:02:45.025Z</time></trkpt><trkpt lat="43.9854294" lon="12.1232975"><ele>463.0</ele><time>2026-04-26T15:02:46.024Z</time></trkpt><trkpt lat="43.985557" lon="12.1233759"><ele>463.0</ele><time>2026-04-26T15:02:47.025Z</time></trkpt><trkpt lat="43.9856649" lon="12.1234262"><ele>462.99999999999994</ele><time>2026-04-26T15:02:48.025Z</time></trkpt><trkpt lat="43.985757" lon="12.1234342"><ele>462.99999999999994</ele><time>2026-04-26T15:02:49.024Z</time></trkpt><trkpt lat="43.9858418" lon="12.1234095"><ele>463.0</ele><time>2026-04-26T15:02:50.03Z</time></trkpt><trkpt lat="43.9859233" lon="12.1233206"><ele>463.0</ele><time>2026-04-26T15:02:51.025Z</time></trkpt><trkpt lat="43.9860049" lon="12.1232134"><ele>466.5</ele><time>2026-04-26T15:02:52.025Z</time></trkpt><trkpt lat="43.9860955" lon="12.1231232"><ele>470.0</ele><time>2026-04-26T15:02:53.026Z</time></trkpt><trkpt lat="43.986209" lon="12.1230625"><ele>473.5</ele><time>2026-04-26T15:02:54.028Z</time></trkpt><trkpt lat="43.9863347" lon="12.1230139"><ele>477.0</ele><time>2026-04-26T15:02:55.026Z</time></trkpt><trkpt lat="43.9864651" lon="12.1229772"><ele>477.0</ele><time>2026-04-26T15:02:56.027Z</time></trkpt><trkpt lat="43.9865883" lon="12.1229774"><ele>477.0</ele><time>2026-04-26T15:02:57.025Z</time></trkpt><trkpt lat="43.9867" lon="12.123045"><ele>477.0</ele><time>2026-04-26T15:02:58.023Z</time></trkpt><trkpt lat="43.986795" lon="12.123155"><ele>477.0</ele><time>2026-04-26T15:02:59.022Z</time></trkpt><trkpt lat="43.9868733" lon="12.123305"><ele>473.0</ele><time>2026-04-26T15:03:00.026Z</time></trkpt><trkpt lat="43.986935" lon="12.123465"><ele>469.0</ele><time>2026-04-26T15:03:01.025Z</time></trkpt><trkpt lat="43.98702" lon="12.123575"><ele>465.0</ele><time>2026-04-26T15:03:02.025Z</time></trkpt><trkpt lat="43.9871333" lon="12.1236267"><ele>461.0</ele><time>2026-04-26T15:03:03.026Z</time></trkpt><trkpt lat="43.9872433" lon="12.1236667"><ele>461.0</ele><time>2026-04-26T15:03:04.025Z</time></trkpt><trkpt lat="43.9873433" lon="12.12371"><ele>461.0</ele><time>2026-04-26T15:03:05.025Z</time></trkpt><trkpt lat="43.98744" lon="12.1237483"><ele>461.0</ele><time>2026-04-26T15:03:06.028Z</time></trkpt><trkpt lat="43.9875317" lon="12.1237617"><ele>461.0</ele><time>2026-04-26T15:03:07.025Z</time></trkpt><trkpt lat="43.9876217" lon="12.1237167"><ele>461.0</ele><time>2026-04-26T15:03:08.024Z</time></trkpt><trkpt lat="43.9877167" lon="12.1235933"><ele>458.0</ele><time>2026-04-26T15:03:09.024Z</time></trkpt><trkpt lat="43.9878333" lon="12.1234783"><ele>455.0</ele><time>2026-04-26T15:03:10.023Z</time></trkpt><trkpt lat="43.9879683" lon="12.1233433"><ele>452.0</ele><time>2026-04-26T15:03:11.024Z</time></trkpt><trkpt lat="43.9881083" lon="12.123215"><ele>452.0</ele><time>2026-04-26T15:03:12.026Z</time></trkpt><trkpt lat="43.9882517" lon="12.1231117"><ele>452.0</ele><time>2026-04-26T15:03:13.026Z</time></trkpt><trkpt lat="43.9884017" lon="12.1230583"><ele>452.0</ele><time>2026-04-26T15:03:14.028Z</time></trkpt><trkpt lat="43.9885417" lon="12.1230217"><ele>449.25</ele><time>2026-04-26T15:03:15.028Z</time></trkpt><trkpt lat="43.988655" lon="12.12293"><ele>446.5</ele><time>2026-04-26T15:03:16.025Z</time></trkpt><trkpt lat="43.9887533" lon="12.1227983"><ele>443.75</ele><time>2026-04-26T15:03:17.032Z</time></trkpt><trkpt lat="43.9888467" lon="12.122645"><ele>441.0</ele><time>2026-04-26T15:03:18.023Z</time></trkpt><trkpt lat="43.988965" lon="12.1225417"><ele>441.0</ele><time>2026-04-26T15:03:19.023Z</time></trkpt><trkpt lat="43.9890867" lon="12.1224733"><ele>441.0</ele><time>2026-04-26T15:03:20.025Z</time></trkpt><trkpt lat="43.9892117" lon="12.1224583"><ele>441.0</ele><time>2026-04-26T15:03:21.027Z</time></trkpt><trkpt lat="43.9893483" lon="12.1224867"><ele>441.0</ele><time>2026-04-26T15:03:22.026Z</time></trkpt><trkpt lat="43.9894783" lon="12.122545"><ele>439.33333333333337</ele><time>2026-04-26T15:03:23.024Z</time></trkpt><trkpt lat="43.9896033" lon="12.1226383"><ele>437.6666666666667</ele><time>2026-04-26T15:03:24.031Z</time></trkpt><trkpt lat="43.989715" lon="12.1227733"><ele>436.0</ele><time>2026-04-26T15:03:25.024Z</time></trkpt><trkpt lat="43.9898183" lon="12.1229533"><ele>436.0</ele><time>2026-04-26T15:03:26.024Z</time></trkpt><trkpt lat="43.9899117" lon="12.1231433"><ele>436.0</ele><time>2026-04-26T15:03:27.023Z</time></trkpt><trkpt lat="43.9900033" lon="12.1233217"><ele>436.0</ele><time>2026-04-26T15:03:28.025Z</time></trkpt><trkpt lat="43.9900883" lon="12.1234883"><ele>433.5</ele><time>2026-04-26T15:03:29.025Z</time></trkpt><trkpt lat="43.9901667" lon="12.1236267"><ele>431.0</ele><time>2026-04-26T15:03:30.022Z</time></trkpt><trkpt lat="43.990265" lon="12.1237167"><ele>428.5</ele><time>2026-04-26T15:03:31.023Z</time></trkpt><trkpt lat="43.9903667" lon="12.1237633"><ele>426.0</ele><time>2026-04-26T15:03:32.029Z</time></trkpt><trkpt lat="43.9904718" lon="12.1237784"><ele>426.0</ele><time>2026-04-26T15:03:33.025Z</time></trkpt><trkpt lat="43.9905935" lon="12.1237537"><ele>426.0</ele><time>2026-04-26T15:03:34.023Z</time></trkpt><trkpt lat="43.9907234" lon="12.1237089"><ele>426.0</ele><time>2026-04-26T15:03:35.024Z</time></trkpt><trkpt lat="43.9908521" lon="12.1236261"><ele>426.0</ele><time>2026-04-26T15:03:36.025Z</time></trkpt><trkpt lat="43.9909738" lon="12.1235005"><ele>417.25</ele><time>2026-04-26T15:03:37.022Z</time></trkpt><trkpt lat="43.9910731" lon="12.1233617"><ele>408.5</ele><time>2026-04-26T15:03:38.024Z</time></trkpt><trkpt lat="43.9911448" lon="12.1232197"><ele>399.75</ele><time>2026-04-26T15:03:39.025Z</time></trkpt><trkpt lat="43.9911856" lon="12.1230539"><ele>391.0</ele><time>2026-04-26T15:03:40.023Z</time></trkpt><trkpt lat="43.9912019" lon="12.1228644"><ele>389.33333333333337</ele><time>2026-04-26T15:03:41.027Z</time></trkpt><trkpt lat="43.9911927" lon="12.1226527"><ele>387.66666666666663</ele><time>2026-04-26T15:03:42.024Z</time></trkpt><trkpt lat="43.9911714" lon="12.1224242"><ele>386.0</ele><time>2026-04-26T15:03:43.024Z</time></trkpt><trkpt lat="43.9911315" lon="12.1221828"><ele>385.3333333333333</ele><time>2026-04-26T15:03:44.024Z</time></trkpt><trkpt lat="43.9910783" lon="12.1219441"><ele>384.66666666666663</ele><time>2026-04-26T15:03:45.024Z</time></trkpt><trkpt lat="43.9910188" lon="12.121715"><ele>384.0</ele><time>2026-04-26T15:03:46.024Z</time></trkpt><trkpt lat="43.9909603" lon="12.1214973"><ele>385.5</ele><time>2026-04-26T15:03:47.025Z</time></trkpt><trkpt lat="43.9909156" lon="12.1212843"><ele>387.0</ele><time>2026-04-26T15:03:48.027Z</time></trkpt><trkpt lat="43.9908936" lon="12.1210774"><ele>388.5</ele><time>2026-04-26T15:03:49.025Z</time></trkpt><trkpt lat="43.9909002" lon="12.1208958"><ele>390.0</ele><time>2026-04-26T15:03:50.028Z</time></trkpt><trkpt lat="43.990931" lon="12.1207551"><ele>391.4</ele><time>2026-04-26T15:03:51.021Z</time></trkpt><trkpt lat="43.9910035" lon="12.1206575"><ele>392.8</ele><time>2026-04-26T15:03:52.025Z</time></trkpt><trkpt lat="43.9910984" lon="12.1205955"><ele>394.20000000000005</ele><time>2026-04-26T15:03:53.026Z</time></trkpt><trkpt lat="43.9912059" lon="12.1205429"><ele>395.6</ele><time>2026-04-26T15:03:54.023Z</time></trkpt><trkpt lat="43.9913294" lon="12.1204954"><ele>397.0</ele><time>2026-04-26T15:03:55.026Z</time></trkpt><trkpt lat="43.9914797" lon="12.1204881"><ele>397.0</ele><time>2026-04-26T15:03:56.025Z</time></trkpt><trkpt lat="43.9916305" lon="12.1204881"><ele>397.0</ele><time>2026-04-26T15:03:57.024Z</time></trkpt><trkpt lat="43.9917701" lon="12.120448"><ele>397.0</ele><time>2026-04-26T15:03:58.03Z</time></trkpt><trkpt lat="43.9918934" lon="12.1203793"><ele>397.0</ele><time>2026-04-26T15:03:59.024Z</time></trkpt><trkpt lat="43.9919938" lon="12.1202728"><ele>393.0</ele><time>2026-04-26T15:04:00.025Z</time></trkpt><trkpt lat="43.992079" lon="12.1201257"><ele>389.0</ele><time>2026-04-26T15:04:01.025Z</time></trkpt><trkpt lat="43.99216" lon="12.1199665"><ele>385.0</ele><time>2026-04-26T15:04:02.026Z</time></trkpt><trkpt lat="43.9922455" lon="12.1197973"><ele>381.0</ele><time>2026-04-26T15:04:03.029Z</time></trkpt><trkpt lat="43.9923291" lon="12.1196305"><ele>381.0</ele><time>2026-04-26T15:04:04.025Z</time></trkpt><trkpt lat="43.9924132" lon="12.1194727"><ele>381.0</ele><time>2026-04-26T15:04:05.026Z</time></trkpt><trkpt lat="43.992488" lon="12.1193178"><ele>381.0</ele><time>2026-04-26T15:04:06.026Z</time></trkpt><trkpt lat="43.9925454" lon="12.1191584"><ele>381.0</ele><time>2026-04-26T15:04:07.025Z</time></trkpt><trkpt lat="43.9925788" lon="12.1189951"><ele>379.20000000000005</ele><time>2026-04-26T15:04:08.026Z</time></trkpt><trkpt lat="43.9925744" lon="12.1188348"><ele>377.40000000000003</ele><time>2026-04-26T15:04:09.026Z</time></trkpt><trkpt lat="43.9925365" lon="12.1186932"><ele>375.6</ele><time>2026-04-26T15:04:10.025Z</time></trkpt><trkpt lat="43.9924752" lon="12.1185746"><ele>373.8</ele><time>2026-04-26T15:04:11.028Z</time></trkpt><trkpt lat="43.9923855" lon="12.1184887"><ele>372.0</ele><time>2026-04-26T15:04:12.025Z</time></trkpt><trkpt lat="43.9922663" lon="12.1184399"><ele>372.0</ele><time>2026-04-26T15:04:13.026Z</time></trkpt><trkpt lat="43.9921218" lon="12.1184064"><ele>372.0</ele><time>2026-04-26T15:04:14.023Z</time></trkpt><trkpt lat="43.9919801" lon="12.1183798"><ele>372.0</ele><time>2026-04-26T15:04:15.027Z</time></trkpt><trkpt lat="43.9918456" lon="12.1183702"><ele>372.0</ele><time>2026-04-26T15:04:16.024Z</time></trkpt><trkpt lat="43.9917267" lon="12.1183847"><ele>371.25</ele><time>2026-04-26T15:04:17.024Z</time></trkpt><trkpt lat="43.9916203" lon="12.1184349"><ele>370.5</ele><time>2026-04-26T15:04:18.023Z</time></trkpt><trkpt lat="43.9915318" lon="12.1185335"><ele>369.75</ele><time>2026-04-26T15:04:19.024Z</time></trkpt><trkpt lat="43.9914514" lon="12.1186555"><ele>369.0</ele><time>2026-04-26T15:04:20.026Z</time></trkpt><trkpt lat="43.9913833" lon="12.1187874"><ele>369.0</ele><time>2026-04-26T15:04:21.023Z</time></trkpt><trkpt lat="43.991322" lon="12.1188922"><ele>369.0</ele><time>2026-04-26T15:04:22.025Z</time></trkpt><trkpt lat="43.9912637" lon="12.1189785"><ele>369.0</ele><time>2026-04-26T15:04:23.025Z</time></trkpt><trkpt lat="43.9912064" lon="12.1190303"><ele>369.0</ele><time>2026-04-26T15:04:24.03Z</time></trkpt><trkpt lat="43.9911702" lon="12.1188765"><ele>369.0</ele><time>2026-04-26T15:04:26.024Z</time></trkpt><trkpt lat="43.9912103" lon="12.1187431"><ele>369.0</ele><time>2026-04-26T15:04:27.025Z</time></trkpt><trkpt lat="43.9912749" lon="12.1185908"><ele>369.0</ele><time>2026-04-26T15:04:28.025Z</time></trkpt><trkpt lat="43.9913442" lon="12.1184415"><ele>369.0</ele><time>2026-04-26T15:04:29.03Z</time></trkpt><trkpt lat="43.991402" lon="12.1182896"><ele>369.0</ele><time>2026-04-26T15:04:30.024Z</time></trkpt><trkpt lat="43.9915044" lon="12.1181443"><ele>366.75</ele><time>2026-04-26T15:04:31.024Z</time></trkpt><trkpt lat="43.9916319" lon="12.1180274"><ele>364.5</ele><time>2026-04-26T15:04:32.024Z</time></trkpt><trkpt lat="43.9917727" lon="12.1179363"><ele>362.25</ele><time>2026-04-26T15:04:33.026Z</time></trkpt><trkpt lat="43.9918845" lon="12.1178307"><ele>360.0</ele><time>2026-04-26T15:04:34.023Z</time></trkpt><trkpt lat="43.9919628" lon="12.1176992"><ele>360.0</ele><time>2026-04-26T15:04:35.027Z</time></trkpt><trkpt lat="43.9920143" lon="12.117536"><ele>360.0</ele><time>2026-04-26T15:04:36.021Z</time></trkpt><trkpt lat="43.992049" lon="12.1173391"><ele>360.0</ele><time>2026-04-26T15:04:37.027Z</time></trkpt><trkpt lat="43.9920888" lon="12.1171276"><ele>360.0</ele><time>2026-04-26T15:04:38.027Z</time></trkpt><trkpt lat="43.9921289" lon="12.1169063"><ele>358.0</ele><time>2026-04-26T15:04:39.026Z</time></trkpt><trkpt lat="43.9921578" lon="12.116691"><ele>356.0</ele><time>2026-04-26T15:04:40.024Z</time></trkpt><trkpt lat="43.9921709" lon="12.1164913"><ele>354.0</ele><time>2026-04-26T15:04:41.025Z</time></trkpt><trkpt lat="43.9922117" lon="12.11632"><ele>352.0</ele><time>2026-04-26T15:04:42.024Z</time></trkpt><trkpt lat="43.9922823" lon="12.1161839"><ele>348.5</ele><time>2026-04-26T15:04:43.028Z</time></trkpt><trkpt lat="43.9923918" lon="12.1160854"><ele>345.0</ele><time>2026-04-26T15:04:44.024Z</time></trkpt><trkpt lat="43.9925227" lon="12.1159932"><ele>341.5</ele><time>2026-04-26T15:04:45.024Z</time></trkpt><trkpt lat="43.9926379" lon="12.1158739"><ele>338.0</ele><time>2026-04-26T15:04:46.023Z</time></trkpt><trkpt lat="43.9927379" lon="12.1157362"><ele>334.75</ele><time>2026-04-26T15:04:47.024Z</time></trkpt><trkpt lat="43.9928181" lon="12.1155959"><ele>331.5</ele><time>2026-04-26T15:04:48.023Z</time></trkpt><trkpt lat="43.9928712" lon="12.1154484"><ele>328.25</ele><time>2026-04-26T15:04:49.024Z</time></trkpt><trkpt lat="43.9928784" lon="12.1152782"><ele>325.0</ele><time>2026-04-26T15:04:50.024Z</time></trkpt><trkpt lat="43.9928472" lon="12.1151045"><ele>325.0</ele><time>2026-04-26T15:04:51.025Z</time></trkpt><trkpt lat="43.9928136" lon="12.1149286"><ele>325.0</ele><time>2026-04-26T15:04:52.028Z</time></trkpt><trkpt lat="43.992811" lon="12.1147519"><ele>325.0</ele><time>2026-04-26T15:04:53.024Z</time></trkpt><trkpt lat="43.9928526" lon="12.1145866"><ele>325.0</ele><time>2026-04-26T15:04:54.024Z</time></trkpt><trkpt lat="43.9929109" lon="12.1144326"><ele>323.2</ele><time>2026-04-26T15:04:55.024Z</time></trkpt><trkpt lat="43.9929865" lon="12.1143286"><ele>321.4</ele><time>2026-04-26T15:04:56.023Z</time></trkpt><trkpt lat="43.9930405" lon="12.1142577"><ele>319.6</ele><time>2026-04-26T15:04:57.025Z</time></trkpt><trkpt lat="43.9931597" lon="12.1142534"><ele>317.8</ele><time>2026-04-26T15:04:59.028Z</time></trkpt><trkpt lat="43.9932424" lon="12.1143322"><ele>316.0</ele><time>2026-04-26T15:05:00.024Z</time></trkpt><trkpt lat="43.9933331" lon="12.1144395"><ele>307.0</ele><time>2026-04-26T15:05:01.026Z</time></trkpt><trkpt lat="43.9934471" lon="12.1145662"><ele>298.0</ele><time>2026-04-26T15:05:02.024Z</time></trkpt><trkpt lat="43.9935863" lon="12.1146987"><ele>289.0</ele><time>2026-04-26T15:05:03.023Z</time></trkpt><trkpt lat="43.9937367" lon="12.1148406"><ele>293.3333333333333</ele><time>2026-04-26T15:05:04.024Z</time></trkpt><trkpt lat="43.9938824" lon="12.1149936"><ele>297.6666666666667</ele><time>2026-04-26T15:05:05.024Z</time></trkpt><trkpt lat="43.9940096" lon="12.1151479"><ele>302.0</ele><time>2026-04-26T15:05:06.025Z</time></trkpt><trkpt lat="43.9941157" lon="12.1152953"><ele>295.5</ele><time>2026-04-26T15:05:07.024Z</time></trkpt><trkpt lat="43.9942002" lon="12.1154321"><ele>289.0</ele><time>2026-04-26T15:05:08.028Z</time></trkpt><trkpt lat="43.9942485" lon="12.1155839"><ele>282.5</ele><time>2026-04-26T15:05:09.026Z</time></trkpt><trkpt lat="43.9942682" lon="12.1157457"><ele>276.0</ele><time>2026-04-26T15:05:10.025Z</time></trkpt><trkpt lat="43.994262" lon="12.115894"><ele>276.0</ele><time>2026-04-26T15:05:11.027Z</time></trkpt><trkpt lat="43.9942824" lon="12.1159992"><ele>276.0</ele><time>2026-04-26T15:05:12.024Z</time></trkpt><trkpt lat="43.9943208" lon="12.1160733"><ele>276.0</ele><time>2026-04-26T15:05:13.023Z</time></trkpt><trkpt lat="43.9944377" lon="12.116086"><ele>276.0</ele><time>2026-04-26T15:05:15.029Z</time></trkpt><trkpt lat="43.99447" lon="12.1159492"><ele>276.0</ele><time>2026-04-26T15:05:16.024Z</time></trkpt><trkpt lat="43.994458" lon="12.1157262"><ele>273.3333333333333</ele><time>2026-04-26T15:05:17.027Z</time></trkpt><trkpt lat="43.9944453" lon="12.1155058"><ele>270.66666666666663</ele><time>2026-04-26T15:05:18.026Z</time></trkpt><trkpt lat="43.9944381" lon="12.1152947"><ele>268.0</ele><time>2026-04-26T15:05:19.026Z</time></trkpt><trkpt lat="43.9944228" lon="12.1150853"><ele>262.66666666666663</ele><time>2026-04-26T15:05:20.03Z</time></trkpt><trkpt lat="43.9943859" lon="12.1148744"><ele>257.3333333333333</ele><time>2026-04-26T15:05:21.025Z</time></trkpt><trkpt lat="43.9943247" lon="12.1146568"><ele>252.0</ele><time>2026-04-26T15:05:22.024Z</time></trkpt><trkpt lat="43.9942484" lon="12.1144499"><ele>252.0</ele><time>2026-04-26T15:05:23.025Z</time></trkpt><trkpt lat="43.9941844" lon="12.1142447"><ele>252.0</ele><time>2026-04-26T15:05:24.024Z</time></trkpt><trkpt lat="43.9941451" lon="12.1140414"><ele>252.0</ele><time>2026-04-26T15:05:25.026Z</time></trkpt><trkpt lat="43.9941387" lon="12.1138242"><ele>250.5</ele><time>2026-04-26T15:05:26.024Z</time></trkpt><trkpt lat="43.994151" lon="12.1136211"><ele>249.0</ele><time>2026-04-26T15:05:27.026Z</time></trkpt><trkpt lat="43.994189" lon="12.1134388"><ele>247.5</ele><time>2026-04-26T15:05:28.025Z</time></trkpt><trkpt lat="43.994249" lon="12.1132742"><ele>246.0</ele><time>2026-04-26T15:05:29.023Z</time></trkpt><trkpt lat="43.9942873" lon="12.1131055"><ele>245.8</ele><time>2026-04-26T15:05:30.025Z</time></trkpt><trkpt lat="43.9943038" lon="12.1129282"><ele>245.60000000000002</ele><time>2026-04-26T15:05:31.025Z</time></trkpt><trkpt lat="43.9943156" lon="12.1127539"><ele>245.4</ele><time>2026-04-26T15:05:32.025Z</time></trkpt><trkpt lat="43.9943258" lon="12.1126031"><ele>245.2</ele><time>2026-04-26T15:05:33.025Z</time></trkpt><trkpt lat="43.9943449" lon="12.1124968"><ele>245.0</ele><time>2026-04-26T15:05:34.022Z</time></trkpt><trkpt lat="43.9944362" lon="12.112421"><ele>245.0</ele><time>2026-04-26T15:05:36.024Z</time></trkpt><trkpt lat="43.994497" lon="12.1124531"><ele>245.0</ele><time>2026-04-26T15:05:37.03Z</time></trkpt><trkpt lat="43.9945472" lon="12.1125281"><ele>245.0</ele><time>2026-04-26T15:05:38.024Z</time></trkpt><trkpt lat="43.9945659" lon="12.1126665"><ele>245.0</ele><time>2026-04-26T15:05:39.024Z</time></trkpt><trkpt lat="43.9945506" lon="12.1128488"><ele>245.0</ele><time>2026-04-26T15:05:40.024Z</time></trkpt><trkpt lat="43.9945232" lon="12.1130321"><ele>245.0</ele><time>2026-04-26T15:05:41.024Z</time></trkpt><trkpt lat="43.9944811" lon="12.1131994"><ele>245.0</ele><time>2026-04-26T15:05:42.03Z</time></trkpt><trkpt lat="43.9944525" lon="12.1133282"><ele>245.0</ele><time>2026-04-26T15:05:43.022Z</time></trkpt><trkpt lat="43.9944452" lon="12.1134236"><ele>245.0</ele><time>2026-04-26T15:05:44.024Z</time></trkpt><trkpt lat="43.9945009" lon="12.1135177"><ele>245.0</ele><time>2026-04-26T15:05:46.023Z</time></trkpt><trkpt lat="43.9945911" lon="12.1133982"><ele>245.0</ele><time>2026-04-26T15:05:48.023Z</time></trkpt><trkpt lat="43.9946174" lon="12.1132282"><ele>245.0</ele><time>2026-04-26T15:05:49.025Z</time></trkpt><trkpt lat="43.9946587" lon="12.1130463"><ele>245.0</ele><time>2026-04-26T15:05:50.022Z</time></trkpt><trkpt lat="43.9947003" lon="12.112837"><ele>245.0</ele><time>2026-04-26T15:05:51.026Z</time></trkpt><trkpt lat="43.9947207" lon="12.1126183"><ele>242.0</ele><time>2026-04-26T15:05:52.028Z</time></trkpt><trkpt lat="43.9947215" lon="12.112404"><ele>239.0</ele><time>2026-04-26T15:05:53.023Z</time></trkpt><trkpt lat="43.9946944" lon="12.1121917"><ele>236.0</ele><time>2026-04-26T15:05:54.025Z</time></trkpt><trkpt lat="43.994654" lon="12.1119788"><ele>236.0</ele><time>2026-04-26T15:05:55.023Z</time></trkpt><trkpt lat="43.9945995" lon="12.1117651"><ele>236.0</ele><time>2026-04-26T15:05:56.026Z</time></trkpt><trkpt lat="43.9945295" lon="12.1115633"><ele>236.0</ele><time>2026-04-26T15:05:57.022Z</time></trkpt><trkpt lat="43.9944508" lon="12.1113725"><ele>232.25</ele><time>2026-04-26T15:05:58.023Z</time></trkpt><trkpt lat="43.9943621" lon="12.1111961"><ele>228.5</ele><time>2026-04-26T15:05:59.024Z</time></trkpt><trkpt lat="43.9942691" lon="12.1110379"><ele>224.75</ele><time>2026-04-26T15:06:00.022Z</time></trkpt><trkpt lat="43.9941833" lon="12.110894"><ele>221.0</ele><time>2026-04-26T15:06:01.023Z</time></trkpt><trkpt lat="43.9941106" lon="12.1107658"><ele>219.50000000000003</ele><time>2026-04-26T15:06:02.022Z</time></trkpt><trkpt lat="43.9940637" lon="12.1106536"><ele>218.0</ele><time>2026-04-26T15:06:03.024Z</time></trkpt><trkpt lat="43.994053" lon="12.1105487"><ele>216.5</ele><time>2026-04-26T15:06:04.022Z</time></trkpt><trkpt lat="43.9940671" lon="12.1104428"><ele>215.0</ele><time>2026-04-26T15:06:05.025Z</time></trkpt><trkpt lat="43.9941102" lon="12.110353"><ele>213.50000000000003</ele><time>2026-04-26T15:06:06.023Z</time></trkpt><trkpt lat="43.9941966" lon="12.1103373"><ele>212.0</ele><time>2026-04-26T15:06:07.023Z</time></trkpt><trkpt lat="43.9943064" lon="12.11041"><ele>212.0</ele><time>2026-04-26T15:06:08.025Z</time></trkpt><trkpt lat="43.9944088" lon="12.1104944"><ele>212.0</ele><time>2026-04-26T15:06:09.022Z</time></trkpt><trkpt lat="43.9944793" lon="12.1105963"><ele>212.0</ele><time>2026-04-26T15:06:10.024Z</time></trkpt><trkpt lat="43.9945008" lon="12.1107475"><ele>212.0</ele><time>2026-04-26T15:06:11.025Z</time></trkpt><trkpt lat="43.9945244" lon="12.1108675"><ele>212.0</ele><time>2026-04-26T15:06:12.021Z</time></trkpt><trkpt lat="43.9945746" lon="12.1109257"><ele>212.0</ele><time>2026-04-26T15:06:13.023Z</time></trkpt><trkpt lat="43.994652" lon="12.1108704"><ele>212.0</ele><time>2026-04-26T15:06:15.024Z</time></trkpt><trkpt lat="43.9946662" lon="12.1107621"><ele>212.0</ele><time>2026-04-26T15:06:16.025Z</time></trkpt><trkpt lat="43.9946649" lon="12.1106182"><ele>212.0</ele><time>2026-04-26T15:06:17.023Z</time></trkpt><trkpt lat="43.9946366" lon="12.1104489"><ele>212.0</ele><time>2026-04-26T15:06:18.023Z</time></trkpt><trkpt lat="43.9946029" lon="12.1102916"><ele>212.0</ele><time>2026-04-26T15:06:19.024Z</time></trkpt><trkpt lat="43.9945395" lon="12.1101688"><ele>212.0</ele><time>2026-04-26T15:06:20.023Z</time></trkpt><trkpt lat="43.9944542" lon="12.110092"><ele>212.0</ele><time>2026-04-26T15:06:21.025Z</time></trkpt><trkpt lat="43.9943451" lon="12.1100878"><ele>212.0</ele><time>2026-04-26T15:06:22.023Z</time></trkpt><trkpt lat="43.9942542" lon="12.1100606"><ele>212.0</ele><time>2026-04-26T15:06:23.025Z</time></trkpt><trkpt lat="43.9941927" lon="12.1100079"><ele>212.0</ele><time>2026-04-26T15:06:24.025Z</time></trkpt><trkpt lat="43.9942066" lon="12.1098825"><ele>212.0</ele><time>2026-04-26T15:06:26.022Z</time></trkpt><trkpt lat="43.9943156" lon="12.1098501"><ele>212.0</ele><time>2026-04-26T15:06:27.024Z</time></trkpt><trkpt lat="43.9944189" lon="12.1098162"><ele>212.0</ele><time>2026-04-26T15:06:28.025Z</time></trkpt><trkpt lat="43.9945531" lon="12.1098417"><ele>212.0</ele><time>2026-04-26T15:06:29.023Z</time></trkpt><trkpt lat="43.9946939" lon="12.1099429"><ele>212.0</ele><time>2026-04-26T15:06:30.032Z</time></trkpt><trkpt lat="43.9948251" lon="12.1100709"><ele>212.0</ele><time>2026-04-26T15:06:31.027Z</time></trkpt><trkpt lat="43.9949346" lon="12.1102494"><ele>212.0</ele><time>2026-04-26T15:06:32.026Z</time></trkpt><trkpt lat="43.995028" lon="12.110451"><ele>208.0</ele><time>2026-04-26T15:06:33.028Z</time></trkpt><trkpt lat="43.9951168" lon="12.1106426"><ele>204.0</ele><time>2026-04-26T15:06:34.024Z</time></trkpt><trkpt lat="43.9952124" lon="12.1108209"><ele>200.0</ele><time>2026-04-26T15:06:35.028Z</time></trkpt><trkpt lat="43.9953112" lon="12.1109738"><ele>200.0</ele><time>2026-04-26T15:06:36.025Z</time></trkpt><trkpt lat="43.9954046" lon="12.1111043"><ele>200.0</ele><time>2026-04-26T15:06:37.027Z</time></trkpt><trkpt lat="43.9954983" lon="12.1111996"><ele>200.0</ele><time>2026-04-26T15:06:38.025Z</time></trkpt><trkpt lat="43.9955763" lon="12.1112577"><ele>200.0</ele><time>2026-04-26T15:06:39.027Z</time></trkpt><trkpt lat="43.9956508" lon="12.1112755"><ele>200.0</ele><time>2026-04-26T15:06:40.025Z</time></trkpt><trkpt lat="43.9957248" lon="12.1112527"><ele>200.0</ele><time>2026-04-26T15:06:41.028Z</time></trkpt><trkpt lat="43.99578" lon="12.1111988"><ele>200.0</ele><time>2026-04-26T15:06:42.028Z</time></trkpt><trkpt lat="43.9958004" lon="12.1111146"><ele>200.0</ele><time>2026-04-26T15:06:43.026Z</time></trkpt><trkpt lat="43.9957235" lon="12.1109848"><ele>200.0</ele><time>2026-04-26T15:06:44.026Z</time></trkpt><trkpt lat="43.9956149" lon="12.1108449"><ele>200.0</ele><time>2026-04-26T15:06:45.025Z</time></trkpt><trkpt lat="43.9955394" lon="12.1106807"><ele>196.66666666666669</ele><time>2026-04-26T15:06:46.028Z</time></trkpt><trkpt lat="43.9955035" lon="12.1104831"><ele>193.33333333333334</ele><time>2026-04-26T15:06:47.026Z</time></trkpt><trkpt lat="43.9955074" lon="12.1102717"><ele>190.0</ele><time>2026-04-26T15:06:48.027Z</time></trkpt><trkpt lat="43.9955539" lon="12.1100618"><ele>186.75</ele><time>2026-04-26T15:06:49.024Z</time></trkpt><trkpt lat="43.9956069" lon="12.1098625"><ele>183.5</ele><time>2026-04-26T15:06:50.032Z</time></trkpt><trkpt lat="43.9956504" lon="12.1096833"><ele>180.25</ele><time>2026-04-26T15:06:51.026Z</time></trkpt><trkpt lat="43.9956629" lon="12.1095077"><ele>177.0</ele><time>2026-04-26T15:06:52.025Z</time></trkpt><trkpt lat="43.9956453" lon="12.1093343"><ele>177.0</ele><time>2026-04-26T15:06:53.029Z</time></trkpt><trkpt lat="43.9956044" lon="12.1091801"><ele>177.0</ele><time>2026-04-26T15:06:54.031Z</time></trkpt><trkpt lat="43.9955475" lon="12.1090602"><ele>177.0</ele><time>2026-04-26T15:06:55.026Z</time></trkpt><trkpt lat="43.9954732" lon="12.108974"><ele>177.0</ele><time>2026-04-26T15:06:56.026Z</time></trkpt><trkpt lat="43.995376" lon="12.108949"><ele>177.0</ele><time>2026-04-26T15:06:57.026Z</time></trkpt><trkpt lat="43.9952673" lon="12.1089699"><ele>174.5</ele><time>2026-04-26T15:06:58.032Z</time></trkpt><trkpt lat="43.9951385" lon="12.1090402"><ele>172.0</ele><time>2026-04-26T15:06:59.026Z</time></trkpt><trkpt lat="43.9949998" lon="12.1091154"><ele>169.5</ele><time>2026-04-26T15:07:00.025Z</time></trkpt><trkpt lat="43.9948611" lon="12.1091604"><ele>167.0</ele><time>2026-04-26T15:07:01.026Z</time></trkpt><trkpt lat="43.9947303" lon="12.1091809"><ele>167.5</ele><time>2026-04-26T15:07:02.029Z</time></trkpt><trkpt lat="43.9946126" lon="12.1091697"><ele>168.0</ele><time>2026-04-26T15:07:03.03Z</time></trkpt><trkpt lat="43.9945068" lon="12.1091067"><ele>168.5</ele><time>2026-04-26T15:07:04.028Z</time></trkpt><trkpt lat="43.9944156" lon="12.108998"><ele>169.0</ele><time>2026-04-26T15:07:05.027Z</time></trkpt><trkpt lat="43.9943271" lon="12.1088811"><ele>169.0</ele><time>2026-04-26T15:07:06.026Z</time></trkpt><trkpt lat="43.9942463" lon="12.1087668"><ele>169.0</ele><time>2026-04-26T15:07:07.027Z</time></trkpt><trkpt lat="43.9941606" lon="12.1086657"><ele>169.0</ele><time>2026-04-26T15:07:08.027Z</time></trkpt><trkpt lat="43.994063" lon="12.1085925"><ele>169.0</ele><time>2026-04-26T15:07:09.026Z</time></trkpt><trkpt lat="43.9939599" lon="12.1085503"><ele>169.0</ele><time>2026-04-26T15:07:10.024Z</time></trkpt><trkpt lat="43.993862" lon="12.1085153"><ele>170.5</ele><time>2026-04-26T15:07:11.026Z</time></trkpt><trkpt lat="43.9937824" lon="12.1084478"><ele>172.0</ele><time>2026-04-26T15:07:12.029Z</time></trkpt><trkpt lat="43.9937357" lon="12.1083491"><ele>173.5</ele><time>2026-04-26T15:07:13.028Z</time></trkpt><trkpt lat="43.9937113" lon="12.1082338"><ele>175.0</ele><time>2026-04-26T15:07:14.03Z</time></trkpt><trkpt lat="43.9937088" lon="12.1081171"><ele>176.5</ele><time>2026-04-26T15:07:15.026Z</time></trkpt><trkpt lat="43.9937608" lon="12.1080155"><ele>178.0</ele><time>2026-04-26T15:07:16.026Z</time></trkpt><trkpt lat="43.9938253" lon="12.1079258"><ele>179.25</ele><time>2026-04-26T15:07:17.026Z</time></trkpt><trkpt lat="43.9938775" lon="12.1078327"><ele>180.5</ele><time>2026-04-26T15:07:18.025Z</time></trkpt><trkpt lat="43.9939617" lon="12.1077606"><ele>181.75</ele><time>2026-04-26T15:07:19.032Z</time></trkpt><trkpt lat="43.9940752" lon="12.1077075"><ele>183.0</ele><time>2026-04-26T15:07:20.025Z</time></trkpt><trkpt lat="43.9942505" lon="12.107655"><ele>177.66666666666666</ele><time>2026-04-26T15:07:21.026Z</time></trkpt><trkpt lat="43.9944298" lon="12.1076085"><ele>172.33333333333331</ele><time>2026-04-26T15:07:22.025Z</time></trkpt><trkpt lat="43.994608" lon="12.1075798"><ele>167.0</ele><time>2026-04-26T15:07:23.025Z</time></trkpt><trkpt lat="43.994769" lon="12.1075908"><ele>167.0</ele><time>2026-04-26T15:07:24.027Z</time></trkpt><trkpt lat="43.9949309" lon="12.1076676"><ele>167.0</ele><time>2026-04-26T15:07:25.026Z</time></trkpt><trkpt lat="43.995078" lon="12.1077938"><ele>167.0</ele><time>2026-04-26T15:07:26.031Z</time></trkpt><trkpt lat="43.9952084" lon="12.1079256"><ele>167.0</ele><time>2026-04-26T15:07:27.026Z</time></trkpt><trkpt lat="43.9953395" lon="12.1080431"><ele>167.0</ele><time>2026-04-26T15:07:28.025Z</time></trkpt><trkpt lat="43.9954706" lon="12.108149"><ele>167.0</ele><time>2026-04-26T15:07:29.025Z</time></trkpt><trkpt lat="43.9956034" lon="12.1082513"><ele>167.0</ele><time>2026-04-26T15:07:30.024Z</time></trkpt><trkpt lat="43.9957409" lon="12.1083473"><ele>167.0</ele><time>2026-04-26T15:07:31.029Z</time></trkpt><trkpt lat="43.9958793" lon="12.1084479"><ele>167.0</ele><time>2026-04-26T15:07:32.027Z</time></trkpt><trkpt lat="43.9960127" lon="12.1085603"><ele>164.0</ele><time>2026-04-26T15:07:33.025Z</time></trkpt><trkpt lat="43.9961484" lon="12.1086797"><ele>161.0</ele><time>2026-04-26T15:07:34.025Z</time></trkpt><trkpt lat="43.9962823" lon="12.1088171"><ele>158.0</ele><time>2026-04-26T15:07:35.026Z</time></trkpt><trkpt lat="43.996416" lon="12.108961"><ele>157.0</ele><time>2026-04-26T15:07:36.025Z</time></trkpt><trkpt lat="43.9965523" lon="12.1091103"><ele>156.0</ele><time>2026-04-26T15:07:37.026Z</time></trkpt><trkpt lat="43.9966882" lon="12.1092631"><ele>155.0</ele><time>2026-04-26T15:07:38.032Z</time></trkpt><trkpt lat="43.9968243" lon="12.1094156"><ele>155.0</ele><time>2026-04-26T15:07:39.026Z</time></trkpt><trkpt lat="43.9969599" lon="12.1095686"><ele>155.0</ele><time>2026-04-26T15:07:40.026Z</time></trkpt><trkpt lat="43.9970933" lon="12.1097183"><ele>155.0</ele><time>2026-04-26T15:07:41.025Z</time></trkpt><trkpt lat="43.99723" lon="12.10987"><ele>155.0</ele><time>2026-04-26T15:07:42.025Z</time></trkpt><trkpt lat="43.9973717" lon="12.1100233"><ele>155.0</ele><time>2026-04-26T15:07:43.026Z</time></trkpt><trkpt lat="43.997515" lon="12.110185"><ele>155.0</ele><time>2026-04-26T15:07:44.025Z</time></trkpt><trkpt lat="43.997655" lon="12.1103467"><ele>154.33333333333331</ele><time>2026-04-26T15:07:45.024Z</time></trkpt><trkpt lat="43.9977933" lon="12.11051"><ele>153.66666666666666</ele><time>2026-04-26T15:07:46.024Z</time></trkpt><trkpt lat="43.9979333" lon="12.1106683"><ele>153.0</ele><time>2026-04-26T15:07:47.024Z</time></trkpt><trkpt lat="43.9980783" lon="12.1108267"><ele>153.0</ele><time>2026-04-26T15:07:48.028Z</time></trkpt><trkpt lat="43.9982267" lon="12.1109967"><ele>153.0</ele><time>2026-04-26T15:07:49.026Z</time></trkpt><trkpt lat="43.99838" lon="12.1111683"><ele>153.0</ele><time>2026-04-26T15:07:50.026Z</time></trkpt><trkpt lat="43.99853" lon="12.1113533"><ele>152.33333333333334</ele><time>2026-04-26T15:07:51.022Z</time></trkpt><trkpt lat="43.99869" lon="12.1115417"><ele>151.66666666666669</ele><time>2026-04-26T15:07:52.024Z</time></trkpt><trkpt lat="43.99885" lon="12.1117333"><ele>151.0</ele><time>2026-04-26T15:07:53.023Z</time></trkpt><trkpt lat="43.9990117" lon="12.11192"><ele>150.33333333333334</ele><time>2026-04-26T15:07:54.026Z</time></trkpt><trkpt lat="43.9991683" lon="12.1121"><ele>149.66666666666666</ele><time>2026-04-26T15:07:55.025Z</time></trkpt><trkpt lat="43.9993183" lon="12.11227"><ele>149.0</ele><time>2026-04-26T15:07:56.03Z</time></trkpt><trkpt lat="43.9994633" lon="12.1124317"><ele>149.0</ele><time>2026-04-26T15:07:57.026Z</time></trkpt><trkpt lat="43.999605" lon="12.1125917"><ele>149.0</ele><time>2026-04-26T15:07:58.026Z</time></trkpt><trkpt lat="43.9997417" lon="12.112745"><ele>149.0</ele><time>2026-04-26T15:07:59.025Z</time></trkpt><trkpt lat="43.9998667" lon="12.11289"><ele>149.0</ele><time>2026-04-26T15:08:00.025Z</time></trkpt><trkpt lat="43.99999" lon="12.1129983"><ele>149.0</ele><time>2026-04-26T15:08:01.026Z</time></trkpt><trkpt lat="44.00011" lon="12.1130833"><ele>149.0</ele><time>2026-04-26T15:08:02.025Z</time></trkpt><trkpt lat="44.0002333" lon="12.113115"><ele>149.0</ele><time>2026-04-26T15:08:03.025Z</time></trkpt><trkpt lat="44.0003683" lon="12.1130983"><ele>149.0</ele><time>2026-04-26T15:08:04.025Z</time></trkpt><trkpt lat="44.0005117" lon="12.113035"><ele>149.0</ele><time>2026-04-26T15:08:05.026Z</time></trkpt><trkpt lat="44.0006617" lon="12.112945"><ele>149.0</ele><time>2026-04-26T15:08:06.023Z</time></trkpt><trkpt lat="44.000805" lon="12.1128467"><ele>148.25</ele><time>2026-04-26T15:08:07.026Z</time></trkpt><trkpt lat="44.0009417" lon="12.1127467"><ele>147.5</ele><time>2026-04-26T15:08:08.025Z</time></trkpt><trkpt lat="44.0010683" lon="12.1126533"><ele>146.75</ele><time>2026-04-26T15:08:09.024Z</time></trkpt><trkpt lat="44.00119" lon="12.1125867"><ele>146.0</ele><time>2026-04-26T15:08:10.026Z</time></trkpt><trkpt lat="44.0013183" lon="12.112535"><ele>146.0</ele><time>2026-04-26T15:08:11.024Z</time></trkpt><trkpt lat="44.00146" lon="12.1125483"><ele>146.0</ele><time>2026-04-26T15:08:12.026Z</time></trkpt><trkpt lat="44.0016233" lon="12.1125817"><ele>146.0</ele><time>2026-04-26T15:08:13.028Z</time></trkpt><trkpt lat="44.0018033" lon="12.1126567"><ele>146.0</ele><time>2026-04-26T15:08:14.026Z</time></trkpt><trkpt lat="44.001995" lon="12.1127533"><ele>146.0</ele><time>2026-04-26T15:08:15.028Z</time></trkpt><trkpt lat="44.002195" lon="12.112875"><ele>146.0</ele><time>2026-04-26T15:08:16.026Z</time></trkpt><trkpt lat="44.0023933" lon="12.1130117"><ele>145.0</ele><time>2026-04-26T15:08:17.026Z</time></trkpt><trkpt lat="44.002595" lon="12.11317"><ele>144.0</ele><time>2026-04-26T15:08:18.024Z</time></trkpt><trkpt lat="44.00278" lon="12.1133467"><ele>144.0</ele><time>2026-04-26T15:08:19.028Z</time></trkpt><trkpt lat="44.0029467" lon="12.1135333"><ele>144.0</ele><time>2026-04-26T15:08:20.024Z</time></trkpt><trkpt lat="44.00309" lon="12.1137233"><ele>144.0</ele><time>2026-04-26T15:08:21.025Z</time></trkpt><trkpt lat="44.0032233" lon="12.1139117"><ele>144.33333333333334</ele><time>2026-04-26T15:08:22.024Z</time></trkpt><trkpt lat="44.0033533" lon="12.1141"><ele>144.66666666666669</ele><time>2026-04-26T15:08:23.022Z</time></trkpt><trkpt lat="44.0034817" lon="12.1142933"><ele>145.0</ele><time>2026-04-26T15:08:24.025Z</time></trkpt><trkpt lat="44.003585" lon="12.1145217"><ele>145.0</ele><time>2026-04-26T15:08:25.024Z</time></trkpt><trkpt lat="44.0036567" lon="12.1147733"><ele>145.0</ele><time>2026-04-26T15:08:26.027Z</time></trkpt><trkpt lat="44.0037167" lon="12.1150133"><ele>145.0</ele><time>2026-04-26T15:08:27.026Z</time></trkpt><trkpt lat="44.0037817" lon="12.1152333"><ele>144.0</ele><time>2026-04-26T15:08:28.032Z</time></trkpt><trkpt lat="44.0038633" lon="12.1154383"><ele>143.0</ele><time>2026-04-26T15:08:29.026Z</time></trkpt><trkpt lat="44.0039667" lon="12.1156283"><ele>142.0</ele><time>2026-04-26T15:08:30.027Z</time></trkpt><trkpt lat="44.004095" lon="12.1158033"><ele>142.66666666666669</ele><time>2026-04-26T15:08:31.027Z</time></trkpt><trkpt lat="44.00424" lon="12.1159667"><ele>143.33333333333334</ele><time>2026-04-26T15:08:32.026Z</time></trkpt><trkpt lat="44.004395" lon="12.1161233"><ele>144.0</ele><time>2026-04-26T15:08:33.027Z</time></trkpt><trkpt lat="44.0045483" lon="12.1162917"><ele>144.0</ele><time>2026-04-26T15:08:34.027Z</time></trkpt><trkpt lat="44.00471" lon="12.1164617"><ele>144.0</ele><time>2026-04-26T15:08:35.026Z</time></trkpt><trkpt lat="44.0048783" lon="12.1166317"><ele>144.0</ele><time>2026-04-26T15:08:36.026Z</time></trkpt><trkpt lat="44.0050483" lon="12.1167867"><ele>143.33333333333334</ele><time>2026-04-26T15:08:37.025Z</time></trkpt><trkpt lat="44.0052233" lon="12.1169233"><ele>142.66666666666669</ele><time>2026-04-26T15:08:38.028Z</time></trkpt><trkpt lat="44.0054083" lon="12.11702"><ele>142.0</ele><time>2026-04-26T15:08:39.027Z</time></trkpt><trkpt lat="44.0055983" lon="12.1170733"><ele>142.0</ele><time>2026-04-26T15:08:40.029Z</time></trkpt><trkpt lat="44.005785" lon="12.1171117"><ele>142.0</ele><time>2026-04-26T15:08:41.029Z</time></trkpt><trkpt lat="44.0059583" lon="12.1171483"><ele>142.0</ele><time>2026-04-26T15:08:42.026Z</time></trkpt><trkpt lat="44.0061233" lon="12.1171867"><ele>142.33333333333334</ele><time>2026-04-26T15:08:43.028Z</time></trkpt><trkpt lat="44.0062883" lon="12.1172183"><ele>142.66666666666666</ele><time>2026-04-26T15:08:44.024Z</time></trkpt><trkpt lat="44.00645" lon="12.1172567"><ele>143.0</ele><time>2026-04-26T15:08:45.024Z</time></trkpt><trkpt lat="44.0066117" lon="12.11728"><ele>142.0</ele><time>2026-04-26T15:08:46.026Z</time></trkpt><trkpt lat="44.0067767" lon="12.1173017"><ele>141.0</ele><time>2026-04-26T15:08:47.026Z</time></trkpt><trkpt lat="44.0069433" lon="12.117305"><ele>140.0</ele><time>2026-04-26T15:08:48.026Z</time></trkpt><trkpt lat="44.0071133" lon="12.1172883"><ele>140.0</ele><time>2026-04-26T15:08:49.025Z</time></trkpt><trkpt lat="44.0072783" lon="12.1172617"><ele>140.0</ele><time>2026-04-26T15:08:50.028Z</time></trkpt><trkpt lat="44.0074433" lon="12.11723"><ele>140.0</ele><time>2026-04-26T15:08:51.027Z</time></trkpt><trkpt lat="44.0076117" lon="12.1171967"><ele>139.0</ele><time>2026-04-26T15:08:52.026Z</time></trkpt><trkpt lat="44.0077783" lon="12.11715"><ele>138.0</ele><time>2026-04-26T15:08:53.03Z</time></trkpt><trkpt lat="44.007945" lon="12.1170933"><ele>137.0</ele><time>2026-04-26T15:08:54.025Z</time></trkpt><trkpt lat="44.0081133" lon="12.1170267"><ele>137.0</ele><time>2026-04-26T15:08:55.026Z</time></trkpt><trkpt lat="44.0082883" lon="12.1169767"><ele>137.0</ele><time>2026-04-26T15:08:56.028Z</time></trkpt><trkpt lat="44.0084717" lon="12.1169283"><ele>137.0</ele><time>2026-04-26T15:08:57.026Z</time></trkpt><trkpt lat="44.0086567" lon="12.116865"><ele>136.66666666666666</ele><time>2026-04-26T15:08:58.029Z</time></trkpt><trkpt lat="44.0088433" lon="12.1168067"><ele>136.33333333333334</ele><time>2026-04-26T15:08:59.026Z</time></trkpt><trkpt lat="44.00903" lon="12.1167617"><ele>136.0</ele><time>2026-04-26T15:09:00.029Z</time></trkpt><trkpt lat="44.0092133" lon="12.1167333"><ele>135.66666666666669</ele><time>2026-04-26T15:09:01.026Z</time></trkpt><trkpt lat="44.009395" lon="12.1167267"><ele>135.33333333333334</ele><time>2026-04-26T15:09:02.026Z</time></trkpt><trkpt lat="44.0095733" lon="12.1167517"><ele>135.0</ele><time>2026-04-26T15:09:03.027Z</time></trkpt><trkpt lat="44.0097483" lon="12.1167833"><ele>135.0</ele><time>2026-04-26T15:09:04.025Z</time></trkpt><trkpt lat="44.00992" lon="12.116825"><ele>135.0</ele><time>2026-04-26T15:09:05.032Z</time></trkpt><trkpt lat="44.0100917" lon="12.1168717"><ele>135.0</ele><time>2026-04-26T15:09:06.028Z</time></trkpt><trkpt lat="44.01026" lon="12.116935"><ele>134.66666666666666</ele><time>2026-04-26T15:09:07.028Z</time></trkpt><trkpt lat="44.01043" lon="12.11701"><ele>134.33333333333331</ele><time>2026-04-26T15:09:08.026Z</time></trkpt><trkpt lat="44.01059" lon="12.1171233"><ele>134.0</ele><time>2026-04-26T15:09:09.027Z</time></trkpt><trkpt lat="44.010755" lon="12.1172517"><ele>134.33333333333331</ele><time>2026-04-26T15:09:10.031Z</time></trkpt><trkpt lat="44.01092" lon="12.1173883"><ele>134.66666666666666</ele><time>2026-04-26T15:09:11.026Z</time></trkpt><trkpt lat="44.0110933" lon="12.1175317"><ele>135.0</ele><time>2026-04-26T15:09:12.026Z</time></trkpt><trkpt lat="44.011275" lon="12.11768"><ele>134.0</ele><time>2026-04-26T15:09:13.031Z</time></trkpt><trkpt lat="44.011465" lon="12.117825"><ele>133.0</ele><time>2026-04-26T15:09:14.027Z</time></trkpt><trkpt lat="44.011665" lon="12.117965"><ele>132.0</ele><time>2026-04-26T15:09:15.029Z</time></trkpt><trkpt lat="44.0118633" lon="12.11812"><ele>130.5</ele><time>2026-04-26T15:09:16.025Z</time></trkpt><trkpt lat="44.012065" lon="12.1182817"><ele>129.0</ele><time>2026-04-26T15:09:17.026Z</time></trkpt><trkpt lat="44.0122717" lon="12.118445"><ele>129.0</ele><time>2026-04-26T15:09:18.023Z</time></trkpt><trkpt lat="44.0124833" lon="12.1186083"><ele>129.0</ele><time>2026-04-26T15:09:19.027Z</time></trkpt><trkpt lat="44.0126967" lon="12.11877"><ele>128.0</ele><time>2026-04-26T15:09:20.027Z</time></trkpt><trkpt lat="44.01291" lon="12.118925"><ele>127.0</ele><time>2026-04-26T15:09:21.025Z</time></trkpt><trkpt lat="44.0131083" lon="12.1190683"><ele>127.0</ele><time>2026-04-26T15:09:22.023Z</time></trkpt><trkpt lat="44.0132933" lon="12.1192083"><ele>127.0</ele><time>2026-04-26T15:09:23.026Z</time></trkpt><trkpt lat="44.0134717" lon="12.1193483"><ele>127.0</ele><time>2026-04-26T15:09:24.026Z</time></trkpt><trkpt lat="44.0136433" lon="12.1194933"><ele>126.66666666666667</ele><time>2026-04-26T15:09:25.024Z</time></trkpt><trkpt lat="44.01382" lon="12.119635"><ele>126.33333333333334</ele><time>2026-04-26T15:09:26.029Z</time></trkpt><trkpt lat="44.0140017" lon="12.119765"><ele>126.0</ele><time>2026-04-26T15:09:27.025Z</time></trkpt><trkpt lat="44.0141883" lon="12.1198983"><ele>125.66666666666666</ele><time>2026-04-26T15:09:28.024Z</time></trkpt><trkpt lat="44.01437" lon="12.1200417"><ele>125.33333333333333</ele><time>2026-04-26T15:09:29.024Z</time></trkpt><trkpt lat="44.0145517" lon="12.12019"><ele>125.0</ele><time>2026-04-26T15:09:30.026Z</time></trkpt><trkpt lat="44.0147433" lon="12.1203333"><ele>125.0</ele><time>2026-04-26T15:09:31.025Z</time></trkpt><trkpt lat="44.0149367" lon="12.120485"><ele>125.0</ele><time>2026-04-26T15:09:32.023Z</time></trkpt><trkpt lat="44.0151333" lon="12.1206417"><ele>125.0</ele><time>2026-04-26T15:09:33.028Z</time></trkpt><trkpt lat="44.0153367" lon="12.1207967"><ele>124.5</ele><time>2026-04-26T15:09:34.026Z</time></trkpt><trkpt lat="44.0155383" lon="12.1209583"><ele>124.0</ele><time>2026-04-26T15:09:35.022Z</time></trkpt><trkpt lat="44.015745" lon="12.1211017"><ele>127.0</ele><time>2026-04-26T15:09:36.024Z</time></trkpt><trkpt lat="44.0159567" lon="12.1212333"><ele>130.0</ele><time>2026-04-26T15:09:37.026Z</time></trkpt><trkpt lat="44.0161783" lon="12.12134"><ele>130.0</ele><time>2026-04-26T15:09:38.024Z</time></trkpt><trkpt lat="44.0164017" lon="12.1214333"><ele>130.0</ele><time>2026-04-26T15:09:39.025Z</time></trkpt><trkpt lat="44.0166233" lon="12.1215283"><ele>128.0</ele><time>2026-04-26T15:09:40.027Z</time></trkpt><trkpt lat="44.016845" lon="12.121615"><ele>126.0</ele><time>2026-04-26T15:09:41.025Z</time></trkpt><trkpt lat="44.017065" lon="12.1216917"><ele>126.0</ele><time>2026-04-26T15:09:42.028Z</time></trkpt><trkpt lat="44.01728" lon="12.1217783"><ele>126.0</ele><time>2026-04-26T15:09:43.026Z</time></trkpt><trkpt lat="44.0174983" lon="12.1218617"><ele>127.0</ele><time>2026-04-26T15:09:44.025Z</time></trkpt><trkpt lat="44.01772" lon="12.1219333"><ele>128.0</ele><time>2026-04-26T15:09:45.024Z</time></trkpt><trkpt lat="44.01794" lon="12.1220067"><ele>128.0</ele><time>2026-04-26T15:09:46.026Z</time></trkpt><trkpt lat="44.018155" lon="12.1220917"><ele>128.0</ele><time>2026-04-26T15:09:47.023Z</time></trkpt><trkpt lat="44.0183633" lon="12.1222"><ele>128.0</ele><time>2026-04-26T15:09:48.022Z</time></trkpt><trkpt lat="44.018565" lon="12.1223283"><ele>126.66666666666666</ele><time>2026-04-26T15:09:49.027Z</time></trkpt><trkpt lat="44.0187533" lon="12.1224933"><ele>125.33333333333334</ele><time>2026-04-26T15:09:50.025Z</time></trkpt><trkpt lat="44.01893" lon="12.1226767"><ele>124.0</ele><time>2026-04-26T15:09:51.028Z</time></trkpt><trkpt lat="44.01911" lon="12.122865"><ele>122.5</ele><time>2026-04-26T15:09:52.025Z</time></trkpt><trkpt lat="44.0192917" lon="12.1230517"><ele>121.0</ele><time>2026-04-26T15:09:53.025Z</time></trkpt><trkpt lat="44.0194717" lon="12.1232417"><ele>121.0</ele><time>2026-04-26T15:09:54.024Z</time></trkpt><trkpt lat="44.019655" lon="12.123425"><ele>121.0</ele><time>2026-04-26T15:09:55.023Z</time></trkpt><trkpt lat="44.019835" lon="12.12361"><ele>120.66666666666667</ele><time>2026-04-26T15:09:56.028Z</time></trkpt><trkpt lat="44.020015" lon="12.123795"><ele>120.33333333333334</ele><time>2026-04-26T15:09:57.024Z</time></trkpt><trkpt lat="44.0201967" lon="12.1239783"><ele>120.0</ele><time>2026-04-26T15:09:58.023Z</time></trkpt><trkpt lat="44.0203783" lon="12.124155"><ele>120.0</ele><time>2026-04-26T15:09:59.024Z</time></trkpt><trkpt lat="44.0205517" lon="12.12433"><ele>120.0</ele><time>2026-04-26T15:10:00.025Z</time></trkpt><trkpt lat="44.02072" lon="12.1245017"><ele>120.0</ele><time>2026-04-26T15:10:01.026Z</time></trkpt><trkpt lat="44.0208817" lon="12.1246767"><ele>120.0</ele><time>2026-04-26T15:10:02.027Z</time></trkpt><trkpt lat="44.0210333" lon="12.1248467"><ele>120.0</ele><time>2026-04-26T15:10:03.027Z</time></trkpt><trkpt lat="44.02118" lon="12.125005"><ele>120.0</ele><time>2026-04-26T15:10:04.024Z</time></trkpt><trkpt lat="44.0213217" lon="12.12516"><ele>120.0</ele><time>2026-04-26T15:10:05.023Z</time></trkpt><trkpt lat="44.0214617" lon="12.12531"><ele>120.0</ele><time>2026-04-26T15:10:06.024Z</time></trkpt><trkpt lat="44.0216017" lon="12.1254533"><ele>120.0</ele><time>2026-04-26T15:10:07.025Z</time></trkpt><trkpt lat="44.02174" lon="12.1255883"><ele>119.66666666666666</ele><time>2026-04-26T15:10:08.023Z</time></trkpt><trkpt lat="44.0218667" lon="12.125725"><ele>119.33333333333333</ele><time>2026-04-26T15:10:09.027Z</time></trkpt><trkpt lat="44.0219917" lon="12.1258567"><ele>119.0</ele><time>2026-04-26T15:10:10.023Z</time></trkpt><trkpt lat="44.02211" lon="12.1259783"><ele>119.0</ele><time>2026-04-26T15:10:11.024Z</time></trkpt><trkpt lat="44.022225" lon="12.12609"><ele>119.0</ele><time>2026-04-26T15:10:12.025Z</time></trkpt><trkpt lat="44.022335" lon="12.1261967"><ele>119.0</ele><time>2026-04-26T15:10:13.023Z</time></trkpt><trkpt lat="44.0224417" lon="12.1263033"><ele>119.0</ele><time>2026-04-26T15:10:14.024Z</time></trkpt><trkpt lat="44.0225483" lon="12.1264133"><ele>119.25</ele><time>2026-04-26T15:10:15.026Z</time></trkpt><trkpt lat="44.0226517" lon="12.126525"><ele>119.5</ele><time>2026-04-26T15:10:16.025Z</time></trkpt><trkpt lat="44.0227533" lon="12.1266317"><ele>119.75</ele><time>2026-04-26T15:10:17.024Z</time></trkpt><trkpt lat="44.022855" lon="12.1267333"><ele>120.0</ele><time>2026-04-26T15:10:18.023Z</time></trkpt><trkpt lat="44.022955" lon="12.1268383"><ele>119.25</ele><time>2026-04-26T15:10:19.026Z</time></trkpt><trkpt lat="44.02306" lon="12.126945"><ele>118.5</ele><time>2026-04-26T15:10:20.024Z</time></trkpt><trkpt lat="44.0231633" lon="12.1270517"><ele>117.75</ele><time>2026-04-26T15:10:21.027Z</time></trkpt><trkpt lat="44.0232667" lon="12.1271567"><ele>117.0</ele><time>2026-04-26T15:10:22.023Z</time></trkpt><trkpt lat="44.0233633" lon="12.1272617"><ele>116.75</ele><time>2026-04-26T15:10:23.023Z</time></trkpt><trkpt lat="44.0234633" lon="12.1273683"><ele>116.5</ele><time>2026-04-26T15:10:24.024Z</time></trkpt><trkpt lat="44.0235667" lon="12.1274783"><ele>116.25</ele><time>2026-04-26T15:10:25.024Z</time></trkpt><trkpt lat="44.0236733" lon="12.1275867"><ele>116.0</ele><time>2026-04-26T15:10:26.026Z</time></trkpt><trkpt lat="44.0237817" lon="12.1277"><ele>116.0</ele><time>2026-04-26T15:10:27.024Z</time></trkpt><trkpt lat="44.0239017" lon="12.1278167"><ele>116.0</ele><time>2026-04-26T15:10:28.023Z</time></trkpt><trkpt lat="44.0240267" lon="12.127945"><ele>116.0</ele><time>2026-04-26T15:10:29.022Z</time></trkpt><trkpt lat="44.0241617" lon="12.128075"><ele>116.33333333333333</ele><time>2026-04-26T15:10:30.023Z</time></trkpt><trkpt lat="44.0243017" lon="12.1282167"><ele>116.66666666666666</ele><time>2026-04-26T15:10:31.027Z</time></trkpt><trkpt lat="44.024445" lon="12.1283717"><ele>117.0</ele><time>2026-04-26T15:10:32.026Z</time></trkpt><trkpt lat="44.0245933" lon="12.1285433"><ele>116.33333333333334</ele><time>2026-04-26T15:10:33.028Z</time></trkpt><trkpt lat="44.024735" lon="12.1287367"><ele>115.66666666666667</ele><time>2026-04-26T15:10:34.024Z</time></trkpt><trkpt lat="44.02486" lon="12.1289517"><ele>115.0</ele><time>2026-04-26T15:10:35.025Z</time></trkpt><trkpt lat="44.02497" lon="12.1291733"><ele>114.66666666666667</ele><time>2026-04-26T15:10:36.023Z</time></trkpt><trkpt lat="44.025065" lon="12.1293867"><ele>114.33333333333334</ele><time>2026-04-26T15:10:37.025Z</time></trkpt><trkpt lat="44.025155" lon="12.1295883"><ele>114.0</ele><time>2026-04-26T15:10:38.024Z</time></trkpt><trkpt lat="44.0252533" lon="12.1297733"><ele>114.0</ele><time>2026-04-26T15:10:39.024Z</time></trkpt><trkpt lat="44.0253733" lon="12.1299383"><ele>114.0</ele><time>2026-04-26T15:10:40.024Z</time></trkpt><trkpt lat="44.0255183" lon="12.13006"><ele>114.0</ele><time>2026-04-26T15:10:41.028Z</time></trkpt><trkpt lat="44.02567" lon="12.130155"><ele>115.0</ele><time>2026-04-26T15:10:42.022Z</time></trkpt><trkpt lat="44.0258167" lon="12.1302317"><ele>116.0</ele><time>2026-04-26T15:10:43.026Z</time></trkpt><trkpt lat="44.0259567" lon="12.1302967"><ele>117.0</ele><time>2026-04-26T15:10:44.024Z</time></trkpt><trkpt lat="44.0260933" lon="12.1303533"><ele>118.0</ele><time>2026-04-26T15:10:45.024Z</time></trkpt><trkpt lat="44.026235" lon="12.13041"><ele>118.0</ele><time>2026-04-26T15:10:46.029Z</time></trkpt><trkpt lat="44.0263767" lon="12.1304683"><ele>118.0</ele><time>2026-04-26T15:10:47.023Z</time></trkpt><trkpt lat="44.0265233" lon="12.1305083"><ele>118.0</ele><time>2026-04-26T15:10:48.024Z</time></trkpt><trkpt lat="44.0266767" lon="12.130525"><ele>120.0</ele><time>2026-04-26T15:10:49.023Z</time></trkpt><trkpt lat="44.0268367" lon="12.1305433"><ele>122.0</ele><time>2026-04-26T15:10:50.028Z</time></trkpt><trkpt lat="44.0269967" lon="12.1305967"><ele>124.0</ele><time>2026-04-26T15:10:51.024Z</time></trkpt><trkpt lat="44.0271683" lon="12.1306233"><ele>124.0</ele><time>2026-04-26T15:10:52.022Z</time></trkpt><trkpt lat="44.02733" lon="12.1306317"><ele>124.0</ele><time>2026-04-26T15:10:53.026Z</time></trkpt><trkpt lat="44.0274817" lon="12.1306417"><ele>124.0</ele><time>2026-04-26T15:10:54.022Z</time></trkpt><trkpt lat="44.0276267" lon="12.1306283"><ele>125.0</ele><time>2026-04-26T15:10:55.024Z</time></trkpt><trkpt lat="44.0277667" lon="12.1305883"><ele>126.0</ele><time>2026-04-26T15:10:56.024Z</time></trkpt><trkpt lat="44.027895" lon="12.1305433"><ele>127.0</ele><time>2026-04-26T15:10:57.023Z</time></trkpt><trkpt lat="44.0280083" lon="12.1304817"><ele>128.0</ele><time>2026-04-26T15:10:58.024Z</time></trkpt><trkpt lat="44.0280817" lon="12.1304017"><ele>128.0</ele><time>2026-04-26T15:10:59.021Z</time></trkpt><trkpt lat="44.02814" lon="12.1303217"><ele>128.0</ele><time>2026-04-26T15:11:00.031Z</time></trkpt><trkpt lat="44.02817" lon="12.1302333"><ele>128.0</ele><time>2026-04-26T15:11:01.023Z</time></trkpt><trkpt lat="44.0281133" lon="12.13009"><ele>128.0</ele><time>2026-04-26T15:11:03.024Z</time></trkpt><trkpt lat="44.02802" lon="12.1300317"><ele>128.0</ele><time>2026-04-26T15:11:04.023Z</time></trkpt><trkpt lat="44.0279483" lon="12.12997"><ele>127.99999999999999</ele><time>2026-04-26T15:11:05.026Z</time></trkpt><trkpt lat="44.02789" lon="12.129905"><ele>128.0</ele><time>2026-04-26T15:11:06.025Z</time></trkpt><trkpt lat="44.0278517" lon="12.1297583"><ele>128.0</ele><time>2026-04-26T15:11:08.025Z</time></trkpt><trkpt lat="44.02792" lon="12.1297167"><ele>128.0</ele><time>2026-04-26T15:11:09.025Z</time></trkpt><trkpt lat="44.0279917" lon="12.1296767"><ele>127.99999999999999</ele><time>2026-04-26T15:11:10.023Z</time></trkpt><trkpt lat="44.0280783" lon="12.1296283"><ele>128.0</ele><time>2026-04-26T15:11:11.025Z</time></trkpt><trkpt lat="44.028145" lon="12.1295417"><ele>129.83333333333331</ele><time>2026-04-26T15:11:12.025Z</time></trkpt><trkpt lat="44.0281917" lon="12.12944"><ele>131.66666666666666</ele><time>2026-04-26T15:11:13.023Z</time></trkpt><trkpt lat="44.0282117" lon="12.1293333"><ele>133.5</ele><time>2026-04-26T15:11:14.025Z</time></trkpt><trkpt lat="44.0282" lon="12.129245"><ele>135.33333333333334</ele><time>2026-04-26T15:11:15.024Z</time></trkpt><trkpt lat="44.02813" lon="12.1291867"><ele>137.16666666666669</ele><time>2026-04-26T15:11:16.024Z</time></trkpt><trkpt lat="44.0279983" lon="12.1291717"><ele>139.0</ele><time>2026-04-26T15:11:17.027Z</time></trkpt><trkpt lat="44.0278683" lon="12.1291583"><ele>139.0</ele><time>2026-04-26T15:11:18.023Z</time></trkpt><trkpt lat="44.0277383" lon="12.1290967"><ele>139.0</ele><time>2026-04-26T15:11:19.028Z</time></trkpt><trkpt lat="44.027605" lon="12.129005"><ele>139.0</ele><time>2026-04-26T15:11:20.024Z</time></trkpt><trkpt lat="44.027465" lon="12.1289017"><ele>139.0</ele><time>2026-04-26T15:11:21.025Z</time></trkpt><trkpt lat="44.0273267" lon="12.1287717"><ele>143.0</ele><time>2026-04-26T15:11:22.026Z</time></trkpt><trkpt lat="44.02719" lon="12.1286217"><ele>147.0</ele><time>2026-04-26T15:11:23.025Z</time></trkpt><trkpt lat="44.027055" lon="12.1284567"><ele>151.0</ele><time>2026-04-26T15:11:24.024Z</time></trkpt><trkpt lat="44.02693" lon="12.1282767"><ele>150.33333333333334</ele><time>2026-04-26T15:11:25.024Z</time></trkpt><trkpt lat="44.0268167" lon="12.1281083"><ele>149.66666666666666</ele><time>2026-04-26T15:11:26.023Z</time></trkpt><trkpt lat="44.0267083" lon="12.1279633"><ele>149.0</ele><time>2026-04-26T15:11:27.031Z</time></trkpt><trkpt lat="44.0266167" lon="12.1278067"><ele>149.0</ele><time>2026-04-26T15:11:28.024Z</time></trkpt><trkpt lat="44.026535" lon="12.12764"><ele>149.0</ele><time>2026-04-26T15:11:29.024Z</time></trkpt><trkpt lat="44.0264617" lon="12.12746"><ele>149.0</ele><time>2026-04-26T15:11:30.022Z</time></trkpt><trkpt lat="44.0263983" lon="12.12728"><ele>149.0</ele><time>2026-04-26T15:11:31.026Z</time></trkpt><trkpt lat="44.0263483" lon="12.12711"><ele>149.66666666666666</ele><time>2026-04-26T15:11:32.022Z</time></trkpt><trkpt lat="44.0263233" lon="12.1269567"><ele>150.33333333333331</ele><time>2026-04-26T15:11:33.024Z</time></trkpt><trkpt lat="44.026325" lon="12.12683"><ele>151.0</ele><time>2026-04-26T15:11:34.023Z</time></trkpt><trkpt lat="44.0263583" lon="12.1267367"><ele>151.66666666666666</ele><time>2026-04-26T15:11:35.024Z</time></trkpt><trkpt lat="44.0264183" lon="12.1266683"><ele>152.33333333333334</ele><time>2026-04-26T15:11:36.024Z</time></trkpt><trkpt lat="44.0265" lon="12.1266117"><ele>153.0</ele><time>2026-04-26T15:11:37.023Z</time></trkpt><trkpt lat="44.0266033" lon="12.1265733"><ele>156.0</ele><time>2026-04-26T15:11:38.022Z</time></trkpt><trkpt lat="44.0267262" lon="12.1265395"><ele>159.0</ele><time>2026-04-26T15:11:39.023Z</time></trkpt><trkpt lat="44.0268563" lon="12.126495"><ele>162.0</ele><time>2026-04-26T15:11:40.026Z</time></trkpt><trkpt lat="44.0269808" lon="12.1264215"><ele>165.0</ele><time>2026-04-26T15:11:41.029Z</time></trkpt><trkpt lat="44.0270923" lon="12.1263181"><ele>165.0</ele><time>2026-04-26T15:11:42.022Z</time></trkpt><trkpt lat="44.0271891" lon="12.126191"><ele>165.0</ele><time>2026-04-26T15:11:43.024Z</time></trkpt><trkpt lat="44.02728" lon="12.126065"><ele>165.0</ele><time>2026-04-26T15:11:44.023Z</time></trkpt><trkpt lat="44.0273747" lon="12.1259494"><ele>165.0</ele><time>2026-04-26T15:11:45.025Z</time></trkpt><trkpt lat="44.0274832" lon="12.125853"><ele>168.25</ele><time>2026-04-26T15:11:46.029Z</time></trkpt><trkpt lat="44.0275989" lon="12.1257774"><ele>171.5</ele><time>2026-04-26T15:11:47.025Z</time></trkpt><trkpt lat="44.0277141" lon="12.1257323"><ele>174.75</ele><time>2026-04-26T15:11:48.024Z</time></trkpt><trkpt lat="44.0278252" lon="12.1257192"><ele>178.0</ele><time>2026-04-26T15:11:49.026Z</time></trkpt><trkpt lat="44.0279331" lon="12.1257414"><ele>178.2</ele><time>2026-04-26T15:11:50.027Z</time></trkpt><trkpt lat="44.028037" lon="12.125793"><ele>178.4</ele><time>2026-04-26T15:11:51.026Z</time></trkpt><trkpt lat="44.0281387" lon="12.1258385"><ele>178.6</ele><time>2026-04-26T15:11:52.025Z</time></trkpt><trkpt lat="44.0282394" lon="12.1258847"><ele>178.79999999999998</ele><time>2026-04-26T15:11:53.025Z</time></trkpt><trkpt lat="44.0283438" lon="12.1259256"><ele>179.0</ele><time>2026-04-26T15:11:54.025Z</time></trkpt><trkpt lat="44.028453" lon="12.1259672"><ele>180.79999999999998</ele><time>2026-04-26T15:11:55.03Z</time></trkpt><trkpt lat="44.0285638" lon="12.1260089"><ele>182.6</ele><time>2026-04-26T15:11:56.023Z</time></trkpt><trkpt lat="44.0286744" lon="12.1260463"><ele>184.4</ele><time>2026-04-26T15:11:57.024Z</time></trkpt><trkpt lat="44.028781" lon="12.1260773"><ele>186.2</ele><time>2026-04-26T15:11:58.023Z</time></trkpt><trkpt lat="44.028882" lon="12.1261036"><ele>188.0</ele><time>2026-04-26T15:11:59.024Z</time></trkpt><trkpt lat="44.0289814" lon="12.1261128"><ele>188.0</ele><time>2026-04-26T15:12:00.025Z</time></trkpt><trkpt lat="44.0290795" lon="12.1261201"><ele>188.0</ele><time>2026-04-26T15:12:01.024Z</time></trkpt><trkpt lat="44.029168" lon="12.1261359"><ele>188.0</ele><time>2026-04-26T15:12:02.03Z</time></trkpt><trkpt lat="44.0292465" lon="12.126146"><ele>188.0</ele><time>2026-04-26T15:12:03.024Z</time></trkpt><trkpt lat="44.0293153" lon="12.1261473"><ele>188.0</ele><time>2026-04-26T15:12:04.026Z</time></trkpt><trkpt lat="44.0294206" lon="12.1260758"><ele>190.60000000000002</ele><time>2026-04-26T15:12:06.024Z</time></trkpt><trkpt lat="44.0293826" lon="12.1258852"><ele>193.20000000000002</ele><time>2026-04-26T15:12:08.023Z</time></trkpt><trkpt lat="44.0293043" lon="12.1257889"><ele>195.8</ele><time>2026-04-26T15:12:09.029Z</time></trkpt><trkpt lat="44.0292609" lon="12.1256983"><ele>198.4</ele><time>2026-04-26T15:12:10.025Z</time></trkpt><trkpt lat="44.0292966" lon="12.12556"><ele>201.0</ele><time>2026-04-26T15:12:12.023Z</time></trkpt><trkpt lat="44.0293929" lon="12.1255673"><ele>202.42857142857142</ele><time>2026-04-26T15:12:14.025Z</time></trkpt><trkpt lat="44.0294604" lon="12.1256072"><ele>203.85714285714286</ele><time>2026-04-26T15:12:15.03Z</time></trkpt><trkpt lat="44.0295258" lon="12.1256356"><ele>205.28571428571428</ele><time>2026-04-26T15:12:16.026Z</time></trkpt><trkpt lat="44.0295996" lon="12.125607"><ele>206.71428571428572</ele><time>2026-04-26T15:12:17.024Z</time></trkpt><trkpt lat="44.0296788" lon="12.1255765"><ele>208.14285714285717</ele><time>2026-04-26T15:12:18.023Z</time></trkpt><trkpt lat="44.0297368" lon="12.1255305"><ele>209.57142857142858</ele><time>2026-04-26T15:12:19.023Z</time></trkpt><trkpt lat="44.029777" lon="12.1254593"><ele>211.0</ele><time>2026-04-26T15:12:20.029Z</time></trkpt><trkpt lat="44.0297891" lon="12.1253674"><ele>211.0</ele><time>2026-04-26T15:12:21.024Z</time></trkpt><trkpt lat="44.0297632" lon="12.1252511"><ele>211.0</ele><time>2026-04-26T15:12:22.023Z</time></trkpt><trkpt lat="44.0297125" lon="12.1251249"><ele>211.0</ele><time>2026-04-26T15:12:23.025Z</time></trkpt><trkpt lat="44.0296471" lon="12.124991"><ele>211.0</ele><time>2026-04-26T15:12:24.022Z</time></trkpt><trkpt lat="44.0295817" lon="12.1248578"><ele>211.0</ele><time>2026-04-26T15:12:25.026Z</time></trkpt><trkpt lat="44.0295264" lon="12.124721"><ele>213.0</ele><time>2026-04-26T15:12:26.023Z</time></trkpt><trkpt lat="44.0294885" lon="12.1245685"><ele>215.0</ele><time>2026-04-26T15:12:27.031Z</time></trkpt><trkpt lat="44.0294614" lon="12.1244014"><ele>217.0</ele><time>2026-04-26T15:12:28.022Z</time></trkpt><trkpt lat="44.0294348" lon="12.1242283"><ele>219.0</ele><time>2026-04-26T15:12:29.024Z</time></trkpt><trkpt lat="44.0294156" lon="12.1240547"><ele>220.6</ele><time>2026-04-26T15:12:30.025Z</time></trkpt><trkpt lat="44.0294038" lon="12.1238827"><ele>222.2</ele><time>2026-04-26T15:12:31.024Z</time></trkpt><trkpt lat="44.0293785" lon="12.123723"><ele>223.79999999999998</ele><time>2026-04-26T15:12:32.025Z</time></trkpt><trkpt lat="44.0293609" lon="12.1235734"><ele>225.39999999999998</ele><time>2026-04-26T15:12:33.026Z</time></trkpt><trkpt lat="44.029349" lon="12.1234407"><ele>227.0</ele><time>2026-04-26T15:12:34.024Z</time></trkpt><trkpt lat="44.0293433" lon="12.1233303"><ele>227.00000000000003</ele><time>2026-04-26T15:12:35.024Z</time></trkpt><trkpt lat="44.0293449" lon="12.1232398"><ele>227.0</ele><time>2026-04-26T15:12:36.025Z</time></trkpt><trkpt lat="44.029424" lon="12.1231343"><ele>227.0</ele><time>2026-04-26T15:12:38.026Z</time></trkpt><trkpt lat="44.0294991" lon="12.1231678"><ele>227.0</ele><time>2026-04-26T15:12:39.024Z</time></trkpt><trkpt lat="44.0295736" lon="12.1232511"><ele>227.00000000000003</ele><time>2026-04-26T15:12:40.024Z</time></trkpt><trkpt lat="44.0296427" lon="12.1233087"><ele>227.0</ele><time>2026-04-26T15:12:41.025Z</time></trkpt><trkpt lat="44.0297267" lon="12.123359"><ele>227.0</ele><time>2026-04-26T15:12:42.024Z</time></trkpt><trkpt lat="44.029826" lon="12.1234331"><ele>227.0</ele><time>2026-04-26T15:12:43.023Z</time></trkpt><trkpt lat="44.0299264" lon="12.1235101"><ele>227.0</ele><time>2026-04-26T15:12:44.022Z</time></trkpt><trkpt lat="44.0300273" lon="12.1235832"><ele>227.0</ele><time>2026-04-26T15:12:45.029Z</time></trkpt><trkpt lat="44.0301333" lon="12.1236383"><ele>229.16666666666669</ele><time>2026-04-26T15:12:46.024Z</time></trkpt><trkpt lat="44.0302333" lon="12.1236517"><ele>231.33333333333334</ele><time>2026-04-26T15:12:47.022Z</time></trkpt><trkpt lat="44.0303217" lon="12.1236567"><ele>233.5</ele><time>2026-04-26T15:12:48.022Z</time></trkpt><trkpt lat="44.030405" lon="12.123625"><ele>235.66666666666669</ele><time>2026-04-26T15:12:49.023Z</time></trkpt><trkpt lat="44.03048" lon="12.1235717"><ele>237.83333333333334</ele><time>2026-04-26T15:12:50.024Z</time></trkpt><trkpt lat="44.0305283" lon="12.1234883"><ele>240.0</ele><time>2026-04-26T15:12:51.025Z</time></trkpt><trkpt lat="44.0305567" lon="12.12338"><ele>240.0</ele><time>2026-04-26T15:12:52.025Z</time></trkpt><trkpt lat="44.0305883" lon="12.1232767"><ele>240.0</ele><time>2026-04-26T15:12:53.024Z</time></trkpt><trkpt lat="44.0306133" lon="12.12316"><ele>240.0</ele><time>2026-04-26T15:12:54.025Z</time></trkpt><trkpt lat="44.0306017" lon="12.1229783"><ele>240.0</ele><time>2026-04-26T15:12:55.025Z</time></trkpt><trkpt lat="44.03059" lon="12.122805"><ele>240.0</ele><time>2026-04-26T15:12:56.024Z</time></trkpt><trkpt lat="44.0305967" lon="12.1226483"><ele>242.0</ele><time>2026-04-26T15:12:57.027Z</time></trkpt><trkpt lat="44.03058" lon="12.1225083"><ele>244.0</ele><time>2026-04-26T15:12:58.024Z</time></trkpt><trkpt lat="44.03055" lon="12.122385"><ele>246.0</ele><time>2026-04-26T15:12:59.025Z</time></trkpt><trkpt lat="44.03049" lon="12.1222667"><ele>248.0</ele><time>2026-04-26T15:13:00.024Z</time></trkpt><trkpt lat="44.0304283" lon="12.1221433"><ele>250.0</ele><time>2026-04-26T15:13:01.023Z</time></trkpt><trkpt lat="44.0303633" lon="12.1220017"><ele>252.5</ele><time>2026-04-26T15:13:02.023Z</time></trkpt><trkpt lat="44.03031" lon="12.1218367"><ele>255.0</ele><time>2026-04-26T15:13:03.024Z</time></trkpt><trkpt lat="44.0302417" lon="12.1216833"><ele>257.5</ele><time>2026-04-26T15:13:04.024Z</time></trkpt><trkpt lat="44.0301867" lon="12.1215"><ele>260.0</ele><time>2026-04-26T15:13:05.025Z</time></trkpt><trkpt lat="44.0301333" lon="12.1213267"><ele>259.0</ele><time>2026-04-26T15:13:06.025Z</time></trkpt><trkpt lat="44.0300783" lon="12.12116"><ele>258.0</ele><time>2026-04-26T15:13:07.025Z</time></trkpt><trkpt lat="44.0300233" lon="12.1210083"><ele>257.0</ele><time>2026-04-26T15:13:08.024Z</time></trkpt><trkpt lat="44.02998" lon="12.1208733"><ele>256.0</ele><time>2026-04-26T15:13:09.025Z</time></trkpt><trkpt lat="44.0299383" lon="12.1207617"><ele>256.16666666666663</ele><time>2026-04-26T15:13:10.023Z</time></trkpt><trkpt lat="44.0299" lon="12.1206533"><ele>256.3333333333333</ele><time>2026-04-26T15:13:11.025Z</time></trkpt><trkpt lat="44.0298683" lon="12.120545"><ele>256.5</ele><time>2026-04-26T15:13:12.024Z</time></trkpt><trkpt lat="44.0298683" lon="12.12041"><ele>256.6666666666667</ele><time>2026-04-26T15:13:13.023Z</time></trkpt><trkpt lat="44.0298817" lon="12.1202917"><ele>256.83333333333337</ele><time>2026-04-26T15:13:14.03Z</time></trkpt><trkpt lat="44.029915" lon="12.120185"><ele>257.0</ele><time>2026-04-26T15:13:15.027Z</time></trkpt><trkpt lat="44.0299683" lon="12.1200917"><ele>257.5</ele><time>2026-04-26T15:13:16.026Z</time></trkpt><trkpt lat="44.0300317" lon="12.12002"><ele>258.0</ele><time>2026-04-26T15:13:17.025Z</time></trkpt><trkpt lat="44.0301083" lon="12.119975"><ele>258.5</ele><time>2026-04-26T15:13:18.025Z</time></trkpt><trkpt lat="44.030195" lon="12.1199417"><ele>259.0</ele><time>2026-04-26T15:13:19.024Z</time></trkpt><trkpt lat="44.030285" lon="12.11991"><ele>259.5</ele><time>2026-04-26T15:13:20.034Z</time></trkpt><trkpt lat="44.030373" lon="12.119863"><ele>260.0</ele><time>2026-04-26T15:13:21.025Z</time></trkpt><trkpt lat="44.0304515" lon="12.1197903"><ele>260.0</ele><time>2026-04-26T15:13:22.023Z</time></trkpt><trkpt lat="44.030519" lon="12.1196857"><ele>260.0</ele><time>2026-04-26T15:13:23.024Z</time></trkpt><trkpt lat="44.0305853" lon="12.1195507"><ele>260.0</ele><time>2026-04-26T15:13:24.024Z</time></trkpt><trkpt lat="44.0306559" lon="12.1193944"><ele>260.0</ele><time>2026-04-26T15:13:25.03Z</time></trkpt><trkpt lat="44.0307345" lon="12.1192235"><ele>264.0</ele><time>2026-04-26T15:13:26.027Z</time></trkpt><trkpt lat="44.0308209" lon="12.1190309"><ele>268.0</ele><time>2026-04-26T15:13:27.025Z</time></trkpt><trkpt lat="44.0309083" lon="12.1188385"><ele>272.0</ele><time>2026-04-26T15:13:28.024Z</time></trkpt><trkpt lat="44.0309926" lon="12.1186624"><ele>272.0</ele><time>2026-04-26T15:13:29.023Z</time></trkpt><trkpt lat="44.0310716" lon="12.1185042"><ele>272.0</ele><time>2026-04-26T15:13:30.024Z</time></trkpt><trkpt lat="44.0311454" lon="12.1183539"><ele>272.0</ele><time>2026-04-26T15:13:31.024Z</time></trkpt><trkpt lat="44.0312137" lon="12.1182092"><ele>272.0</ele><time>2026-04-26T15:13:32.024Z</time></trkpt><trkpt lat="44.0312757" lon="12.1180662"><ele>271.0</ele><time>2026-04-26T15:13:33.025Z</time></trkpt><trkpt lat="44.0313315" lon="12.1179168"><ele>270.0</ele><time>2026-04-26T15:13:34.028Z</time></trkpt><trkpt lat="44.0313841" lon="12.1177584"><ele>269.0</ele><time>2026-04-26T15:13:35.025Z</time></trkpt><trkpt lat="44.0314299" lon="12.1175923"><ele>268.0</ele><time>2026-04-26T15:13:36.024Z</time></trkpt><trkpt lat="44.0314695" lon="12.117422"><ele>266.5</ele><time>2026-04-26T15:13:37.026Z</time></trkpt><trkpt lat="44.0315058" lon="12.1172507"><ele>265.0</ele><time>2026-04-26T15:13:38.024Z</time></trkpt><trkpt lat="44.031543" lon="12.1170756"><ele>263.5</ele><time>2026-04-26T15:13:39.031Z</time></trkpt><trkpt lat="44.0315808" lon="12.1169019"><ele>262.0</ele><time>2026-04-26T15:13:40.024Z</time></trkpt><trkpt lat="44.0316192" lon="12.1167264"><ele>265.75</ele><time>2026-04-26T15:13:41.024Z</time></trkpt><trkpt lat="44.0316607" lon="12.1165422"><ele>269.5</ele><time>2026-04-26T15:13:42.024Z</time></trkpt><trkpt lat="44.0317024" lon="12.1163555"><ele>273.25</ele><time>2026-04-26T15:13:43.024Z</time></trkpt><trkpt lat="44.0317443" lon="12.1161703"><ele>277.0</ele><time>2026-04-26T15:13:44.023Z</time></trkpt><trkpt lat="44.031784" lon="12.1159912"><ele>277.0</ele><time>2026-04-26T15:13:45.028Z</time></trkpt><trkpt lat="44.031821" lon="12.1158238"><ele>277.0</ele><time>2026-04-26T15:13:46.028Z</time></trkpt><trkpt lat="44.0318574" lon="12.1156721"><ele>277.0</ele><time>2026-04-26T15:13:47.025Z</time></trkpt><trkpt lat="44.0318967" lon="12.1155302"><ele>277.0</ele><time>2026-04-26T15:13:48.025Z</time></trkpt><trkpt lat="44.0319459" lon="12.1153993"><ele>277.2</ele><time>2026-04-26T15:13:49.026Z</time></trkpt><trkpt lat="44.0320068" lon="12.1152792"><ele>277.4</ele><time>2026-04-26T15:13:50.026Z</time></trkpt><trkpt lat="44.0320765" lon="12.11517"><ele>277.6</ele><time>2026-04-26T15:13:51.028Z</time></trkpt><trkpt lat="44.0321516" lon="12.11507"><ele>277.8</ele><time>2026-04-26T15:13:52.026Z</time></trkpt><trkpt lat="44.0322292" lon="12.1149649"><ele>278.0</ele><time>2026-04-26T15:13:53.03Z</time></trkpt><trkpt lat="44.0323054" lon="12.1148473"><ele>278.5</ele><time>2026-04-26T15:13:54.023Z</time></trkpt><trkpt lat="44.0323789" lon="12.1147103"><ele>279.0</ele><time>2026-04-26T15:13:55.026Z</time></trkpt><trkpt lat="44.0324438" lon="12.1145555"><ele>279.5</ele><time>2026-04-26T15:13:56.029Z</time></trkpt><trkpt lat="44.0325056" lon="12.1143867"><ele>280.0</ele><time>2026-04-26T15:13:57.025Z</time></trkpt><trkpt lat="44.0325698" lon="12.1142067"><ele>284.0</ele><time>2026-04-26T15:13:58.027Z</time></trkpt><trkpt lat="44.032637" lon="12.1140208"><ele>288.0</ele><time>2026-04-26T15:13:59.023Z</time></trkpt><trkpt lat="44.032708" lon="12.1138336"><ele>292.0</ele><time>2026-04-26T15:14:00.024Z</time></trkpt><trkpt lat="44.0327737" lon="12.1136548"><ele>296.0</ele><time>2026-04-26T15:14:01.029Z</time></trkpt><trkpt lat="44.0328265" lon="12.1134992"><ele>296.0</ele><time>2026-04-26T15:14:02.024Z</time></trkpt><trkpt lat="44.0328546" lon="12.1133661"><ele>296.0</ele><time>2026-04-26T15:14:03.027Z</time></trkpt><trkpt lat="44.0328587" lon="12.1132524"><ele>296.0</ele><time>2026-04-26T15:14:04.025Z</time></trkpt><trkpt lat="44.0328562" lon="12.1131476"><ele>296.0</ele><time>2026-04-26T15:14:05.024Z</time></trkpt><trkpt lat="44.0328556" lon="12.1130556"><ele>296.0</ele><time>2026-04-26T15:14:06.025Z</time></trkpt><trkpt lat="44.0328912" lon="12.1129059"><ele>296.0</ele><time>2026-04-26T15:14:08.028Z</time></trkpt><trkpt lat="44.0329711" lon="12.1128312"><ele>296.5</ele><time>2026-04-26T15:14:10.028Z</time></trkpt><trkpt lat="44.0330841" lon="12.112844"><ele>297.0</ele><time>2026-04-26T15:14:12.027Z</time></trkpt><trkpt lat="44.0331529" lon="12.1128771"><ele>297.5</ele><time>2026-04-26T15:14:13.027Z</time></trkpt><trkpt lat="44.0332268" lon="12.1129155"><ele>298.0</ele><time>2026-04-26T15:14:14.024Z</time></trkpt><trkpt lat="44.0333005" lon="12.1129529"><ele>298.5</ele><time>2026-04-26T15:14:15.031Z</time></trkpt><trkpt lat="44.0333731" lon="12.1129827"><ele>299.0</ele><time>2026-04-26T15:14:16.026Z</time></trkpt><trkpt lat="44.0334439" lon="12.113"><ele>301.83333333333337</ele><time>2026-04-26T15:14:17.023Z</time></trkpt><trkpt lat="44.0335088" lon="12.1130004"><ele>304.6666666666667</ele><time>2026-04-26T15:14:18.025Z</time></trkpt><trkpt lat="44.0336248" lon="12.1129508"><ele>307.5</ele><time>2026-04-26T15:14:20.032Z</time></trkpt><trkpt lat="44.0337031" lon="12.1128275"><ele>310.3333333333333</ele><time>2026-04-26T15:14:22.024Z</time></trkpt><trkpt lat="44.0337279" lon="12.1127416"><ele>313.16666666666663</ele><time>2026-04-26T15:14:23.026Z</time></trkpt><trkpt lat="44.0337461" lon="12.1126355"><ele>316.0</ele><time>2026-04-26T15:14:24.024Z</time></trkpt><trkpt lat="44.0337621" lon="12.1125164"><ele>316.40000000000003</ele><time>2026-04-26T15:14:25.024Z</time></trkpt><trkpt lat="44.0337793" lon="12.112383"><ele>316.8</ele><time>2026-04-26T15:14:26.029Z</time></trkpt><trkpt lat="44.0338" lon="12.1122434"><ele>317.20000000000005</ele><time>2026-04-26T15:14:27.026Z</time></trkpt><trkpt lat="44.0338214" lon="12.1121115"><ele>317.6</ele><time>2026-04-26T15:14:28.024Z</time></trkpt><trkpt lat="44.0338403" lon="12.1119795"><ele>318.0</ele><time>2026-04-26T15:14:29.023Z</time></trkpt><trkpt lat="44.0338613" lon="12.111844"><ele>318.0</ele><time>2026-04-26T15:14:30.026Z</time></trkpt><trkpt lat="44.0338872" lon="12.1117001"><ele>318.0</ele><time>2026-04-26T15:14:31.023Z</time></trkpt><trkpt lat="44.0339166" lon="12.1115517"><ele>318.0</ele><time>2026-04-26T15:14:32.029Z</time></trkpt><trkpt lat="44.0339508" lon="12.1114099"><ele>318.0</ele><time>2026-04-26T15:14:33.024Z</time></trkpt><trkpt lat="44.0339922" lon="12.1112805"><ele>318.0</ele><time>2026-04-26T15:14:34.023Z</time></trkpt><trkpt lat="44.034047" lon="12.1111651"><ele>318.75</ele><time>2026-04-26T15:14:35.025Z</time></trkpt><trkpt lat="44.0341145" lon="12.1110541"><ele>319.5</ele><time>2026-04-26T15:14:36.026Z</time></trkpt><trkpt lat="44.0341928" lon="12.1109407"><ele>320.25</ele><time>2026-04-26T15:14:37.03Z</time></trkpt><trkpt lat="44.0342782" lon="12.1108214"><ele>321.0</ele><time>2026-04-26T15:14:38.025Z</time></trkpt><trkpt lat="44.0343675" lon="12.1106996"><ele>325.0</ele><time>2026-04-26T15:14:39.024Z</time></trkpt><trkpt lat="44.0344546" lon="12.1105766"><ele>329.0</ele><time>2026-04-26T15:14:40.025Z</time></trkpt><trkpt lat="44.0345361" lon="12.1104628"><ele>333.0</ele><time>2026-04-26T15:14:41.025Z</time></trkpt><trkpt lat="44.0346049" lon="12.1103614"><ele>337.0</ele><time>2026-04-26T15:14:42.024Z</time></trkpt><trkpt lat="44.0346587" lon="12.1102706"><ele>341.0</ele><time>2026-04-26T15:14:43.03Z</time></trkpt><trkpt lat="44.0346977" lon="12.1101932"><ele>341.0</ele><time>2026-04-26T15:14:44.027Z</time></trkpt><trkpt lat="44.0347517" lon="12.110086"><ele>341.0</ele><time>2026-04-26T15:14:46.027Z</time></trkpt><trkpt lat="44.0348288" lon="12.1100829"><ele>341.0</ele><time>2026-04-26T15:14:49.026Z</time></trkpt><trkpt lat="44.0348707" lon="12.1102173"><ele>341.0</ele><time>2026-04-26T15:14:51.026Z</time></trkpt><trkpt lat="44.0348976" lon="12.1102991"><ele>341.0</ele><time>2026-04-26T15:14:52.025Z</time></trkpt><trkpt lat="44.0349387" lon="12.11037"><ele>341.0</ele><time>2026-04-26T15:14:53.032Z</time></trkpt><trkpt lat="44.034991" lon="12.1104258"><ele>342.0</ele><time>2026-04-26T15:14:54.025Z</time></trkpt><trkpt lat="44.0350553" lon="12.1104635"><ele>343.0</ele><time>2026-04-26T15:14:55.027Z</time></trkpt><trkpt lat="44.0351275" lon="12.1104791"><ele>344.0</ele><time>2026-04-26T15:14:56.026Z</time></trkpt><trkpt lat="44.0352097" lon="12.1104744"><ele>345.0</ele><time>2026-04-26T15:14:57.026Z</time></trkpt><trkpt lat="44.0353" lon="12.1104517"><ele>346.0</ele><time>2026-04-26T15:14:58.029Z</time></trkpt><trkpt lat="44.0353982" lon="12.1104155"><ele>347.0</ele><time>2026-04-26T15:14:59.026Z</time></trkpt><trkpt lat="44.0355026" lon="12.1103696"><ele>347.0</ele><time>2026-04-26T15:15:00.028Z</time></trkpt><trkpt lat="44.0356157" lon="12.1103243"><ele>347.0</ele><time>2026-04-26T15:15:01.025Z</time></trkpt><trkpt lat="44.0357434" lon="12.1102792"><ele>347.0</ele><time>2026-04-26T15:15:02.027Z</time></trkpt><trkpt lat="44.0358869" lon="12.1102415"><ele>347.0</ele><time>2026-04-26T15:15:03.026Z</time></trkpt><trkpt lat="44.0360411" lon="12.1102103"><ele>345.5</ele><time>2026-04-26T15:15:04.027Z</time></trkpt><trkpt lat="44.0361959" lon="12.1101776"><ele>344.0</ele><time>2026-04-26T15:15:05.023Z</time></trkpt><trkpt lat="44.0363399" lon="12.1101506"><ele>342.5</ele><time>2026-04-26T15:15:06.024Z</time></trkpt><trkpt lat="44.0364672" lon="12.1101309"><ele>341.0</ele><time>2026-04-26T15:15:07.023Z</time></trkpt><trkpt lat="44.0365798" lon="12.1101075"><ele>340.20000000000005</ele><time>2026-04-26T15:15:08.026Z</time></trkpt><trkpt lat="44.0366868" lon="12.1100894"><ele>339.40000000000003</ele><time>2026-04-26T15:15:09.025Z</time></trkpt><trkpt lat="44.0367925" lon="12.1100773"><ele>338.6</ele><time>2026-04-26T15:15:10.023Z</time></trkpt><trkpt lat="44.0368959" lon="12.1100737"><ele>337.8</ele><time>2026-04-26T15:15:11.025Z</time></trkpt><trkpt lat="44.0369946" lon="12.1100788"><ele>337.0</ele><time>2026-04-26T15:15:12.027Z</time></trkpt><trkpt lat="44.0370883" lon="12.1100824"><ele>337.0</ele><time>2026-04-26T15:15:13.028Z</time></trkpt><trkpt lat="44.0371795" lon="12.1100831"><ele>337.0</ele><time>2026-04-26T15:15:14.023Z</time></trkpt><trkpt lat="44.0372732" lon="12.1100823"><ele>337.0</ele><time>2026-04-26T15:15:15.024Z</time></trkpt><trkpt lat="44.0373646" lon="12.1100855"><ele>337.0</ele><time>2026-04-26T15:15:16.026Z</time></trkpt><trkpt lat="44.0374516" lon="12.1100887"><ele>337.0</ele><time>2026-04-26T15:15:17.026Z</time></trkpt><trkpt lat="44.0375347" lon="12.110089"><ele>337.0</ele><time>2026-04-26T15:15:18.024Z</time></trkpt><trkpt lat="44.0376187" lon="12.1100786"><ele>336.6</ele><time>2026-04-26T15:15:19.028Z</time></trkpt><trkpt lat="44.0377061" lon="12.1100515"><ele>336.20000000000005</ele><time>2026-04-26T15:15:20.028Z</time></trkpt><trkpt lat="44.0378014" lon="12.1100039"><ele>335.8</ele><time>2026-04-26T15:15:21.027Z</time></trkpt><trkpt lat="44.0379005" lon="12.1099394"><ele>335.4</ele><time>2026-04-26T15:15:22.025Z</time></trkpt><trkpt lat="44.0379985" lon="12.1098605"><ele>335.0</ele><time>2026-04-26T15:15:23.026Z</time></trkpt><trkpt lat="44.0380941" lon="12.1097697"><ele>335.0</ele><time>2026-04-26T15:15:24.025Z</time></trkpt><trkpt lat="44.0381896" lon="12.1096749"><ele>335.0</ele><time>2026-04-26T15:15:25.026Z</time></trkpt><trkpt lat="44.0382817" lon="12.1095793"><ele>335.0</ele><time>2026-04-26T15:15:26.023Z</time></trkpt><trkpt lat="44.0383664" lon="12.1094832"><ele>335.0</ele><time>2026-04-26T15:15:27.025Z</time></trkpt><trkpt lat="44.038442" lon="12.1093872"><ele>335.0</ele><time>2026-04-26T15:15:28.024Z</time></trkpt><trkpt lat="44.0385012" lon="12.1093004"><ele>332.57142857142856</ele><time>2026-04-26T15:15:29.024Z</time></trkpt><trkpt lat="44.038553" lon="12.1092172"><ele>330.1428571428571</ele><time>2026-04-26T15:15:30.03Z</time></trkpt><trkpt lat="44.0386041" lon="12.10914"><ele>327.71428571428567</ele><time>2026-04-26T15:15:31.026Z</time></trkpt><trkpt lat="44.0386559" lon="12.1090733"><ele>325.2857142857143</ele><time>2026-04-26T15:15:32.025Z</time></trkpt><trkpt lat="44.0387122" lon="12.1090282"><ele>322.8571428571429</ele><time>2026-04-26T15:15:33.025Z</time></trkpt><trkpt lat="44.0387807" lon="12.1090094"><ele>320.4285714285714</ele><time>2026-04-26T15:15:34.025Z</time></trkpt><trkpt lat="44.038858" lon="12.109021"><ele>318.0</ele><time>2026-04-26T15:15:35.025Z</time></trkpt><trkpt lat="44.0389454" lon="12.1090606"><ele>318.0</ele><time>2026-04-26T15:15:36.025Z</time></trkpt><trkpt lat="44.0390403" lon="12.1091252"><ele>318.0</ele><time>2026-04-26T15:15:37.026Z</time></trkpt><trkpt lat="44.039129" lon="12.109196"><ele>318.0</ele><time>2026-04-26T15:15:38.026Z</time></trkpt><trkpt lat="44.0392158" lon="12.1092622"><ele>318.0</ele><time>2026-04-26T15:15:39.024Z</time></trkpt><trkpt lat="44.0392956" lon="12.1093211"><ele>318.0</ele><time>2026-04-26T15:15:40.026Z</time></trkpt><trkpt lat="44.0393664" lon="12.1093728"><ele>316.4285714285714</ele><time>2026-04-26T15:15:41.025Z</time></trkpt><trkpt lat="44.039431" lon="12.1094185"><ele>314.8571428571429</ele><time>2026-04-26T15:15:42.026Z</time></trkpt><trkpt lat="44.039491" lon="12.1094638"><ele>313.2857142857143</ele><time>2026-04-26T15:15:43.03Z</time></trkpt><trkpt lat="44.0395476" lon="12.1095062"><ele>311.71428571428567</ele><time>2026-04-26T15:15:44.024Z</time></trkpt><trkpt lat="44.0396068" lon="12.1095553"><ele>310.1428571428571</ele><time>2026-04-26T15:15:45.024Z</time></trkpt><trkpt lat="44.0396697" lon="12.1096146"><ele>308.57142857142856</ele><time>2026-04-26T15:15:46.026Z</time></trkpt><trkpt lat="44.0397376" lon="12.1096774"><ele>307.0</ele><time>2026-04-26T15:15:47.026Z</time></trkpt><trkpt lat="44.0398156" lon="12.1097436"><ele>307.0</ele><time>2026-04-26T15:15:48.026Z</time></trkpt><trkpt lat="44.0399087" lon="12.1098138"><ele>307.0</ele><time>2026-04-26T15:15:49.027Z</time></trkpt><trkpt lat="44.0400168" lon="12.1098868"><ele>307.0</ele><time>2026-04-26T15:15:50.025Z</time></trkpt><trkpt lat="44.0401471" lon="12.1099645"><ele>307.0</ele><time>2026-04-26T15:15:51.026Z</time></trkpt><trkpt lat="44.0402949" lon="12.1100475"><ele>306.0</ele><time>2026-04-26T15:15:52.024Z</time></trkpt><trkpt lat="44.0404476" lon="12.110129"><ele>305.0</ele><time>2026-04-26T15:15:53.024Z</time></trkpt><trkpt lat="44.0405916" lon="12.1102011"><ele>304.0</ele><time>2026-04-26T15:15:54.025Z</time></trkpt><trkpt lat="44.0407247" lon="12.1102691"><ele>302.0</ele><time>2026-04-26T15:15:55.025Z</time></trkpt><trkpt lat="44.0408475" lon="12.1103298"><ele>300.0</ele><time>2026-04-26T15:15:56.03Z</time></trkpt><trkpt lat="44.040958" lon="12.1103875"><ele>298.0</ele><time>2026-04-26T15:15:57.026Z</time></trkpt><trkpt lat="44.0410619" lon="12.1104402"><ele>296.0</ele><time>2026-04-26T15:15:58.025Z</time></trkpt><trkpt lat="44.0411589" lon="12.1105013"><ele>296.0</ele><time>2026-04-26T15:15:59.026Z</time></trkpt><trkpt lat="44.0412503" lon="12.1105794"><ele>296.0</ele><time>2026-04-26T15:16:00.024Z</time></trkpt><trkpt lat="44.0413388" lon="12.1106923"><ele>296.0</ele><time>2026-04-26T15:16:01.03Z</time></trkpt><trkpt lat="44.0414263" lon="12.110843"><ele>296.0</ele><time>2026-04-26T15:16:02.025Z</time></trkpt><trkpt lat="44.0415021" lon="12.1110188"><ele>295.5</ele><time>2026-04-26T15:16:03.026Z</time></trkpt><trkpt lat="44.0415706" lon="12.1111967"><ele>295.0</ele><time>2026-04-26T15:16:04.024Z</time></trkpt><trkpt lat="44.041636" lon="12.1113627"><ele>294.5</ele><time>2026-04-26T15:16:05.024Z</time></trkpt><trkpt lat="44.041704" lon="12.1115019"><ele>294.0</ele><time>2026-04-26T15:16:06.025Z</time></trkpt><trkpt lat="44.0417846" lon="12.111612"><ele>293.25</ele><time>2026-04-26T15:16:07.025Z</time></trkpt><trkpt lat="44.0418888" lon="12.1117038"><ele>292.5</ele><time>2026-04-26T15:16:08.025Z</time></trkpt><trkpt lat="44.0420165" lon="12.1117798"><ele>291.75</ele><time>2026-04-26T15:16:09.026Z</time></trkpt><trkpt lat="44.0421613" lon="12.1118417"><ele>291.0</ele><time>2026-04-26T15:16:10.026Z</time></trkpt><trkpt lat="44.0423119" lon="12.1118847"><ele>291.0</ele><time>2026-04-26T15:16:11.024Z</time></trkpt><trkpt lat="44.042458" lon="12.11192"><ele>291.0</ele><time>2026-04-26T15:16:12.023Z</time></trkpt><trkpt lat="44.0425969" lon="12.1119627"><ele>291.0</ele><time>2026-04-26T15:16:13.03Z</time></trkpt><trkpt lat="44.0427255" lon="12.1120195"><ele>291.0</ele><time>2026-04-26T15:16:14.022Z</time></trkpt><trkpt lat="44.0428367" lon="12.1120947"><ele>291.25</ele><time>2026-04-26T15:16:15.024Z</time></trkpt><trkpt lat="44.0429261" lon="12.1121812"><ele>291.5</ele><time>2026-04-26T15:16:16.023Z</time></trkpt><trkpt lat="44.0430071" lon="12.1122874"><ele>291.75</ele><time>2026-04-26T15:16:17.023Z</time></trkpt><trkpt lat="44.0430831" lon="12.1124179"><ele>292.0</ele><time>2026-04-26T15:16:18.024Z</time></trkpt><trkpt lat="44.0431613" lon="12.1125652"><ele>294.0</ele><time>2026-04-26T15:16:19.024Z</time></trkpt><trkpt lat="44.0432405" lon="12.1127299"><ele>296.0</ele><time>2026-04-26T15:16:20.022Z</time></trkpt><trkpt lat="44.0433202" lon="12.1128895"><ele>298.0</ele><time>2026-04-26T15:16:21.024Z</time></trkpt><trkpt lat="44.0434041" lon="12.113034"><ele>300.0</ele><time>2026-04-26T15:16:22.025Z</time></trkpt><trkpt lat="44.0434932" lon="12.113153"><ele>300.5</ele><time>2026-04-26T15:16:23.022Z</time></trkpt><trkpt lat="44.0435803" lon="12.1132612"><ele>301.0</ele><time>2026-04-26T15:16:24.024Z</time></trkpt><trkpt lat="44.0436916" lon="12.11336"><ele>301.5</ele><time>2026-04-26T15:16:25.022Z</time></trkpt><trkpt lat="44.0438222" lon="12.1134476"><ele>302.0</ele><time>2026-04-26T15:16:26.024Z</time></trkpt><trkpt lat="44.043962" lon="12.1135299"><ele>302.0</ele><time>2026-04-26T15:16:27.026Z</time></trkpt><trkpt lat="44.0441068" lon="12.1135964"><ele>302.0</ele><time>2026-04-26T15:16:28.022Z</time></trkpt><trkpt lat="44.0442529" lon="12.113645"><ele>302.0</ele><time>2026-04-26T15:16:29.022Z</time></trkpt><trkpt lat="44.0444098" lon="12.1136816"><ele>301.33333333333337</ele><time>2026-04-26T15:16:30.024Z</time></trkpt><trkpt lat="44.0445833" lon="12.1137156"><ele>300.6666666666667</ele><time>2026-04-26T15:16:31.025Z</time></trkpt><trkpt lat="44.044761" lon="12.1137524"><ele>300.0</ele><time>2026-04-26T15:16:32.026Z</time></trkpt><trkpt lat="44.0449291" lon="12.1137902"><ele>299.25</ele><time>2026-04-26T15:16:33.023Z</time></trkpt><trkpt lat="44.045084" lon="12.1138275"><ele>298.5</ele><time>2026-04-26T15:16:34.029Z</time></trkpt><trkpt lat="44.0452293" lon="12.1138678"><ele>297.75</ele><time>2026-04-26T15:16:35.025Z</time></trkpt><trkpt lat="44.0453687" lon="12.1139174"><ele>297.0</ele><time>2026-04-26T15:16:36.024Z</time></trkpt><trkpt lat="44.0454928" lon="12.1139817"><ele>297.0</ele><time>2026-04-26T15:16:37.023Z</time></trkpt><trkpt lat="44.0456057" lon="12.1140664"><ele>297.0</ele><time>2026-04-26T15:16:38.024Z</time></trkpt><trkpt lat="44.0457039" lon="12.1141758"><ele>297.0</ele><time>2026-04-26T15:16:39.026Z</time></trkpt><trkpt lat="44.0457951" lon="12.1143018"><ele>297.0</ele><time>2026-04-26T15:16:40.024Z</time></trkpt><trkpt lat="44.0458907" lon="12.1144253"><ele>300.75</ele><time>2026-04-26T15:16:41.024Z</time></trkpt><trkpt lat="44.0460014" lon="12.1145252"><ele>304.5</ele><time>2026-04-26T15:16:42.027Z</time></trkpt><trkpt lat="44.0461212" lon="12.114596"><ele>308.25</ele><time>2026-04-26T15:16:43.024Z</time></trkpt><trkpt lat="44.0462463" lon="12.1146469"><ele>312.0</ele><time>2026-04-26T15:16:44.024Z</time></trkpt><trkpt lat="44.0463777" lon="12.1146892"><ele>312.0</ele><time>2026-04-26T15:16:45.025Z</time></trkpt><trkpt lat="44.046507" lon="12.1147257"><ele>312.0</ele><time>2026-04-26T15:16:46.023Z</time></trkpt><trkpt lat="44.0466263" lon="12.1147618"><ele>312.0</ele><time>2026-04-26T15:16:47.023Z</time></trkpt><trkpt lat="44.0467403" lon="12.1148027"><ele>312.0</ele><time>2026-04-26T15:16:48.022Z</time></trkpt><trkpt lat="44.0468534" lon="12.1148636"><ele>315.25</ele><time>2026-04-26T15:16:49.023Z</time></trkpt><trkpt lat="44.0469647" lon="12.1149459"><ele>318.5</ele><time>2026-04-26T15:16:50.023Z</time></trkpt><trkpt lat="44.0470785" lon="12.1150525"><ele>321.75</ele><time>2026-04-26T15:16:51.023Z</time></trkpt><trkpt lat="44.0471987" lon="12.1151747"><ele>325.0</ele><time>2026-04-26T15:16:52.024Z</time></trkpt><trkpt lat="44.047329" lon="12.115302"><ele>325.0</ele><time>2026-04-26T15:16:53.024Z</time></trkpt><trkpt lat="44.0474587" lon="12.1154278"><ele>325.0</ele><time>2026-04-26T15:16:54.024Z</time></trkpt><trkpt lat="44.0475847" lon="12.1155526"><ele>325.0</ele><time>2026-04-26T15:16:55.024Z</time></trkpt><trkpt lat="44.0477112" lon="12.1156835"><ele>327.3333333333333</ele><time>2026-04-26T15:16:56.024Z</time></trkpt><trkpt lat="44.0478414" lon="12.1158207"><ele>329.6666666666667</ele><time>2026-04-26T15:16:57.032Z</time></trkpt><trkpt lat="44.0479768" lon="12.115972"><ele>332.0</ele><time>2026-04-26T15:16:58.023Z</time></trkpt><trkpt lat="44.0481222" lon="12.1161363"><ele>332.0</ele><time>2026-04-26T15:16:59.024Z</time></trkpt><trkpt lat="44.0482751" lon="12.1163037"><ele>332.0</ele><time>2026-04-26T15:17:00.025Z</time></trkpt><trkpt lat="44.0484414" lon="12.1164722"><ele>332.0</ele><time>2026-04-26T15:17:01.023Z</time></trkpt><trkpt lat="44.0486204" lon="12.1166347"><ele>333.33333333333337</ele><time>2026-04-26T15:17:02.022Z</time></trkpt><trkpt lat="44.0487954" lon="12.116782"><ele>334.6666666666667</ele><time>2026-04-26T15:17:03.03Z</time></trkpt><trkpt lat="44.0489605" lon="12.116909"><ele>336.0</ele><time>2026-04-26T15:17:04.023Z</time></trkpt><trkpt lat="44.0491172" lon="12.1170241"><ele>338.5</ele><time>2026-04-26T15:17:05.024Z</time></trkpt><trkpt lat="44.0492605" lon="12.1171229"><ele>341.0</ele><time>2026-04-26T15:17:06.023Z</time></trkpt><trkpt lat="44.0493892" lon="12.1172055"><ele>343.5</ele><time>2026-04-26T15:17:07.025Z</time></trkpt><trkpt lat="44.0495096" lon="12.11727"><ele>346.0</ele><time>2026-04-26T15:17:08.028Z</time></trkpt><trkpt lat="44.0496256" lon="12.1173119"><ele>346.0</ele><time>2026-04-26T15:17:09.023Z</time></trkpt><trkpt lat="44.0497415" lon="12.1173291"><ele>346.0</ele><time>2026-04-26T15:17:10.026Z</time></trkpt><trkpt lat="44.0498558" lon="12.1173297"><ele>346.0</ele><time>2026-04-26T15:17:11.023Z</time></trkpt><trkpt lat="44.0499656" lon="12.1173321"><ele>346.0</ele><time>2026-04-26T15:17:12.023Z</time></trkpt><trkpt lat="44.0500685" lon="12.1173467"><ele>346.0</ele><time>2026-04-26T15:17:13.028Z</time></trkpt><trkpt lat="44.0501666" lon="12.1173804"><ele>349.8</ele><time>2026-04-26T15:17:14.024Z</time></trkpt><trkpt lat="44.0502614" lon="12.1174349"><ele>353.6</ele><time>2026-04-26T15:17:15.022Z</time></trkpt><trkpt lat="44.0503503" lon="12.1175062"><ele>357.4</ele><time>2026-04-26T15:17:16.029Z</time></trkpt><trkpt lat="44.0504315" lon="12.1175839"><ele>361.2</ele><time>2026-04-26T15:17:17.024Z</time></trkpt><trkpt lat="44.050508" lon="12.1176817"><ele>365.0</ele><time>2026-04-26T15:17:18.024Z</time></trkpt><trkpt lat="44.0505735" lon="12.1178007"><ele>365.0</ele><time>2026-04-26T15:17:19.024Z</time></trkpt><trkpt lat="44.0506361" lon="12.1179304"><ele>365.0</ele><time>2026-04-26T15:17:20.025Z</time></trkpt><trkpt lat="44.0507044" lon="12.1180687"><ele>365.0</ele><time>2026-04-26T15:17:21.027Z</time></trkpt><trkpt lat="44.0507668" lon="12.1182181"><ele>365.0</ele><time>2026-04-26T15:17:22.026Z</time></trkpt><trkpt lat="44.0508164" lon="12.1183798"><ele>368.5</ele><time>2026-04-26T15:17:23.025Z</time></trkpt><trkpt lat="44.0508542" lon="12.118553"><ele>372.0</ele><time>2026-04-26T15:17:24.023Z</time></trkpt><trkpt lat="44.0508952" lon="12.1187266"><ele>375.5</ele><time>2026-04-26T15:17:25.022Z</time></trkpt><trkpt lat="44.0509321" lon="12.1189059"><ele>379.0</ele><time>2026-04-26T15:17:26.024Z</time></trkpt><trkpt lat="44.0509678" lon="12.1190752"><ele>380.3333333333333</ele><time>2026-04-26T15:17:27.024Z</time></trkpt><trkpt lat="44.0509984" lon="12.1192192"><ele>381.66666666666663</ele><time>2026-04-26T15:17:28.03Z</time></trkpt><trkpt lat="44.0510315" lon="12.119338"><ele>383.0</ele><time>2026-04-26T15:17:29.023Z</time></trkpt><trkpt lat="44.0510688" lon="12.1194454"><ele>384.3333333333333</ele><time>2026-04-26T15:17:30.025Z</time></trkpt><trkpt lat="44.0511155" lon="12.1195353"><ele>385.6666666666667</ele><time>2026-04-26T15:17:31.026Z</time></trkpt><trkpt lat="44.0511808" lon="12.1195923"><ele>387.0</ele><time>2026-04-26T15:17:32.023Z</time></trkpt><trkpt lat="44.051255" lon="12.1196193"><ele>387.0</ele><time>2026-04-26T15:17:33.03Z</time></trkpt><trkpt lat="44.0513336" lon="12.1196206"><ele>387.0</ele><time>2026-04-26T15:17:34.026Z</time></trkpt><trkpt lat="44.0514283" lon="12.1195916"><ele>387.0</ele><time>2026-04-26T15:17:35.024Z</time></trkpt><trkpt lat="44.0515281" lon="12.1195807"><ele>387.0</ele><time>2026-04-26T15:17:36.022Z</time></trkpt><trkpt lat="44.0516315" lon="12.1195962"><ele>387.0</ele><time>2026-04-26T15:17:37.026Z</time></trkpt><trkpt lat="44.0517327" lon="12.1196465"><ele>388.20000000000005</ele><time>2026-04-26T15:17:38.023Z</time></trkpt><trkpt lat="44.0518254" lon="12.1196921"><ele>389.4</ele><time>2026-04-26T15:17:39.029Z</time></trkpt><trkpt lat="44.0519029" lon="12.1197649"><ele>390.6</ele><time>2026-04-26T15:17:40.024Z</time></trkpt><trkpt lat="44.0519748" lon="12.1198654"><ele>391.79999999999995</ele><time>2026-04-26T15:17:41.025Z</time></trkpt><trkpt lat="44.0520444" lon="12.1199685"><ele>393.0</ele><time>2026-04-26T15:17:42.026Z</time></trkpt><trkpt lat="44.0521172" lon="12.1200805"><ele>396.5</ele><time>2026-04-26T15:17:43.024Z</time></trkpt><trkpt lat="44.0522039" lon="12.1201683"><ele>400.0</ele><time>2026-04-26T15:17:44.027Z</time></trkpt><trkpt lat="44.0522869" lon="12.1202957"><ele>403.5</ele><time>2026-04-26T15:17:45.025Z</time></trkpt><trkpt lat="44.0523837" lon="12.1204223"><ele>407.0</ele><time>2026-04-26T15:17:46.028Z</time></trkpt><trkpt lat="44.0524895" lon="12.1205497"><ele>408.25</ele><time>2026-04-26T15:17:47.024Z</time></trkpt><trkpt lat="44.0526078" lon="12.1206547"><ele>409.5</ele><time>2026-04-26T15:17:48.025Z</time></trkpt><trkpt lat="44.0527312" lon="12.1207605"><ele>410.75</ele><time>2026-04-26T15:17:49.026Z</time></trkpt><trkpt lat="44.0528571" lon="12.120845"><ele>412.0</ele><time>2026-04-26T15:17:50.026Z</time></trkpt><trkpt lat="44.0529682" lon="12.1209286"><ele>414.0</ele><time>2026-04-26T15:17:51.026Z</time></trkpt><trkpt lat="44.053066" lon="12.1209981"><ele>416.0</ele><time>2026-04-26T15:17:52.024Z</time></trkpt><trkpt lat="44.0531665" lon="12.1210493"><ele>418.0</ele><time>2026-04-26T15:17:53.029Z</time></trkpt><trkpt lat="44.0532646" lon="12.1210837"><ele>420.0</ele><time>2026-04-26T15:17:54.027Z</time></trkpt><trkpt lat="44.0533612" lon="12.1211023"><ele>422.0</ele><time>2026-04-26T15:17:55.029Z</time></trkpt><trkpt lat="44.0534484" lon="12.1211076"><ele>422.99999999999994</ele><time>2026-04-26T15:17:56.028Z</time></trkpt><trkpt lat="44.0535205" lon="12.1211065"><ele>424.0</ele><time>2026-04-26T15:17:57.026Z</time></trkpt><trkpt lat="44.053585" lon="12.1210969"><ele>425.0</ele><time>2026-04-26T15:17:58.025Z</time></trkpt><trkpt lat="44.0536521" lon="12.1210722"><ele>426.0</ele><time>2026-04-26T15:17:59.025Z</time></trkpt><trkpt lat="44.0537173" lon="12.1210182"><ele>426.99999999999994</ele><time>2026-04-26T15:18:00.026Z</time></trkpt><trkpt lat="44.0537781" lon="12.1209326"><ele>428.0</ele><time>2026-04-26T15:18:01.028Z</time></trkpt><trkpt lat="44.0538322" lon="12.1208159"><ele>425.75</ele><time>2026-04-26T15:18:02.026Z</time></trkpt><trkpt lat="44.0538849" lon="12.1206873"><ele>423.5</ele><time>2026-04-26T15:18:03.03Z</time></trkpt><trkpt lat="44.053944" lon="12.1205516"><ele>421.25</ele><time>2026-04-26T15:18:04.025Z</time></trkpt><trkpt lat="44.0540113" lon="12.1204049"><ele>419.0</ele><time>2026-04-26T15:18:05.024Z</time></trkpt><trkpt lat="44.0540832" lon="12.120246"><ele>421.0</ele><time>2026-04-26T15:18:06.026Z</time></trkpt><trkpt lat="44.0541609" lon="12.1200787"><ele>423.0</ele><time>2026-04-26T15:18:07.026Z</time></trkpt><trkpt lat="44.0542404" lon="12.1199035"><ele>425.0</ele><time>2026-04-26T15:18:08.025Z</time></trkpt><trkpt lat="44.0543124" lon="12.119732"><ele>427.0</ele><time>2026-04-26T15:18:09.028Z</time></trkpt><trkpt lat="44.0543741" lon="12.1195855"><ele>427.0</ele><time>2026-04-26T15:18:10.027Z</time></trkpt><trkpt lat="44.0544314" lon="12.1194725"><ele>427.00000000000006</ele><time>2026-04-26T15:18:11.026Z</time></trkpt><trkpt lat="44.0544889" lon="12.1193826"><ele>427.00000000000006</ele><time>2026-04-26T15:18:12.024Z</time></trkpt><trkpt lat="44.0545632" lon="12.1193141"><ele>427.0</ele><time>2026-04-26T15:18:13.025Z</time></trkpt><trkpt lat="44.0546755" lon="12.119281"><ele>427.0</ele><time>2026-04-26T15:18:14.025Z</time></trkpt><trkpt lat="44.0548154" lon="12.119257"><ele>428.0</ele><time>2026-04-26T15:18:15.03Z</time></trkpt><trkpt lat="44.0549699" lon="12.119214"><ele>429.0</ele><time>2026-04-26T15:18:16.025Z</time></trkpt><trkpt lat="44.0551268" lon="12.1191469"><ele>430.0</ele><time>2026-04-26T15:18:17.026Z</time></trkpt><trkpt lat="44.055274" lon="12.1190723"><ele>427.75</ele><time>2026-04-26T15:18:18.026Z</time></trkpt><trkpt lat="44.0554136" lon="12.1190089"><ele>425.5</ele><time>2026-04-26T15:18:19.028Z</time></trkpt><trkpt lat="44.0555463" lon="12.1189629"><ele>423.25</ele><time>2026-04-26T15:18:20.025Z</time></trkpt><trkpt lat="44.055676" lon="12.1189325"><ele>421.0</ele><time>2026-04-26T15:18:21.026Z</time></trkpt><trkpt lat="44.0558057" lon="12.1189053"><ele>421.0</ele><time>2026-04-26T15:18:22.028Z</time></trkpt><trkpt lat="44.0559417" lon="12.1188657"><ele>421.0</ele><time>2026-04-26T15:18:23.025Z</time></trkpt><trkpt lat="44.0560809" lon="12.1187929"><ele>421.0</ele><time>2026-04-26T15:18:24.024Z</time></trkpt><trkpt lat="44.056226" lon="12.1186658"><ele>421.0</ele><time>2026-04-26T15:18:25.026Z</time></trkpt><trkpt lat="44.0563787" lon="12.1184898"><ele>421.0</ele><time>2026-04-26T15:18:26.024Z</time></trkpt><trkpt lat="44.0565354" lon="12.118298"><ele>421.0</ele><time>2026-04-26T15:18:27.032Z</time></trkpt><trkpt lat="44.0566822" lon="12.1181195"><ele>421.6666666666667</ele><time>2026-04-26T15:18:28.024Z</time></trkpt><trkpt lat="44.0568146" lon="12.1179563"><ele>422.33333333333337</ele><time>2026-04-26T15:18:29.024Z</time></trkpt><trkpt lat="44.0569313" lon="12.1178057"><ele>423.0</ele><time>2026-04-26T15:18:30.025Z</time></trkpt><trkpt lat="44.0570321" lon="12.1176602"><ele>423.0</ele><time>2026-04-26T15:18:31.026Z</time></trkpt><trkpt lat="44.0571155" lon="12.1175102"><ele>423.0</ele><time>2026-04-26T15:18:32.025Z</time></trkpt><trkpt lat="44.0571724" lon="12.1173457"><ele>423.0</ele><time>2026-04-26T15:18:33.025Z</time></trkpt><trkpt lat="44.0571961" lon="12.117166"><ele>423.0</ele><time>2026-04-26T15:18:34.027Z</time></trkpt><trkpt lat="44.0571938" lon="12.116986"><ele>423.25</ele><time>2026-04-26T15:18:35.024Z</time></trkpt><trkpt lat="44.0571826" lon="12.1168057"><ele>423.5</ele><time>2026-04-26T15:18:36.026Z</time></trkpt><trkpt lat="44.0571872" lon="12.1166323"><ele>423.75</ele><time>2026-04-26T15:18:37.023Z</time></trkpt><trkpt lat="44.0572181" lon="12.116471"><ele>424.0</ele><time>2026-04-26T15:18:38.027Z</time></trkpt><trkpt lat="44.0572772" lon="12.1163362"><ele>422.75</ele><time>2026-04-26T15:18:39.027Z</time></trkpt><trkpt lat="44.0573677" lon="12.116229"><ele>421.5</ele><time>2026-04-26T15:18:40.024Z</time></trkpt><trkpt lat="44.0574772" lon="12.1161426"><ele>420.25</ele><time>2026-04-26T15:18:41.024Z</time></trkpt><trkpt lat="44.0575996" lon="12.1160633"><ele>419.0</ele><time>2026-04-26T15:18:42.027Z</time></trkpt><trkpt lat="44.0577251" lon="12.115973"><ele>420.75</ele><time>2026-04-26T15:18:43.026Z</time></trkpt><trkpt lat="44.0578476" lon="12.1158689"><ele>422.5</ele><time>2026-04-26T15:18:44.029Z</time></trkpt><trkpt lat="44.0579595" lon="12.1157584"><ele>424.25</ele><time>2026-04-26T15:18:45.028Z</time></trkpt><trkpt lat="44.0580589" lon="12.1156623"><ele>426.0</ele><time>2026-04-26T15:18:46.026Z</time></trkpt><trkpt lat="44.0581603" lon="12.115581"><ele>426.0</ele><time>2026-04-26T15:18:47.026Z</time></trkpt><trkpt lat="44.0582733" lon="12.1155102"><ele>426.0</ele><time>2026-04-26T15:18:48.027Z</time></trkpt><trkpt lat="44.0583936" lon="12.1154413"><ele>426.0</ele><time>2026-04-26T15:18:49.025Z</time></trkpt><trkpt lat="44.0585216" lon="12.1153612"><ele>426.0</ele><time>2026-04-26T15:18:50.025Z</time></trkpt><trkpt lat="44.058653" lon="12.1152672"><ele>430.0</ele><time>2026-04-26T15:18:51.026Z</time></trkpt><trkpt lat="44.0587857" lon="12.115171"><ele>434.0</ele><time>2026-04-26T15:18:52.029Z</time></trkpt><trkpt lat="44.0589164" lon="12.1150845"><ele>438.0</ele><time>2026-04-26T15:18:53.025Z</time></trkpt><trkpt lat="44.0590437" lon="12.1150088"><ele>442.0</ele><time>2026-04-26T15:18:54.023Z</time></trkpt><trkpt lat="44.0591663" lon="12.1149464"><ele>441.75</ele><time>2026-04-26T15:18:55.029Z</time></trkpt><trkpt lat="44.0592932" lon="12.1148802"><ele>441.5</ele><time>2026-04-26T15:18:56.023Z</time></trkpt><trkpt lat="44.059427" lon="12.1147998"><ele>441.25</ele><time>2026-04-26T15:18:57.026Z</time></trkpt><trkpt lat="44.0595664" lon="12.1147171"><ele>441.0</ele><time>2026-04-26T15:18:58.028Z</time></trkpt><trkpt lat="44.0597115" lon="12.1146527"><ele>441.0</ele><time>2026-04-26T15:18:59.024Z</time></trkpt><trkpt lat="44.0598525" lon="12.1146162"><ele>441.0</ele><time>2026-04-26T15:19:00.024Z</time></trkpt><trkpt lat="44.0599807" lon="12.1145944"><ele>441.0</ele><time>2026-04-26T15:19:01.025Z</time></trkpt><trkpt lat="44.0600895" lon="12.1145697"><ele>441.0</ele><time>2026-04-26T15:19:02.026Z</time></trkpt><trkpt lat="44.0601907" lon="12.1145333"><ele>442.0</ele><time>2026-04-26T15:19:03.026Z</time></trkpt><trkpt lat="44.0602869" lon="12.114489"><ele>443.0</ele><time>2026-04-26T15:19:04.026Z</time></trkpt><trkpt lat="44.0603799" lon="12.114453"><ele>444.0</ele><time>2026-04-26T15:19:05.025Z</time></trkpt><trkpt lat="44.0604758" lon="12.1144275"><ele>445.0</ele><time>2026-04-26T15:19:06.025Z</time></trkpt><trkpt lat="44.0605681" lon="12.1144205"><ele>446.0</ele><time>2026-04-26T15:19:07.031Z</time></trkpt><trkpt lat="44.060654" lon="12.1144455"><ele>446.0</ele><time>2026-04-26T15:19:08.027Z</time></trkpt><trkpt lat="44.0607334" lon="12.1145047"><ele>446.0</ele><time>2026-04-26T15:19:09.025Z</time></trkpt><trkpt lat="44.0608021" lon="12.114604"><ele>446.0</ele><time>2026-04-26T15:19:10.024Z</time></trkpt><trkpt lat="44.0608636" lon="12.1147337"><ele>446.0</ele><time>2026-04-26T15:19:11.024Z</time></trkpt><trkpt lat="44.0609188" lon="12.1148788"><ele>446.0</ele><time>2026-04-26T15:19:12.029Z</time></trkpt><trkpt lat="44.0609799" lon="12.1150173"><ele>443.66666666666663</ele><time>2026-04-26T15:19:13.025Z</time></trkpt><trkpt lat="44.0610508" lon="12.1151426"><ele>441.33333333333337</ele><time>2026-04-26T15:19:14.024Z</time></trkpt><trkpt lat="44.0611461" lon="12.1152673"><ele>439.0</ele><time>2026-04-26T15:19:15.407Z</time></trkpt><trkpt lat="44.0613531" lon="12.1154457"><ele>439.0</ele><time>2026-04-26T15:19:17.025Z</time></trkpt><trkpt lat="44.0614707" lon="12.1155341"><ele>439.0</ele><time>2026-04-26T15:19:18.023Z</time></trkpt><trkpt lat="44.061575" lon="12.1156161"><ele>439.0</ele><time>2026-04-26T15:19:19.026Z</time></trkpt><trkpt lat="44.0616651" lon="12.1156886"><ele>439.0</ele><time>2026-04-26T15:19:20.023Z</time></trkpt><trkpt lat="44.0617348" lon="12.115759"><ele>439.0</ele><time>2026-04-26T15:19:21.024Z</time></trkpt><trkpt lat="44.0617892" lon="12.1158307"><ele>439.00000000000006</ele><time>2026-04-26T15:19:22.025Z</time></trkpt><trkpt lat="44.0618278" lon="12.1159104"><ele>439.0</ele><time>2026-04-26T15:19:23.023Z</time></trkpt><trkpt lat="44.0618462" lon="12.1160062"><ele>439.0</ele><time>2026-04-26T15:19:24.023Z</time></trkpt><trkpt lat="44.0618381" lon="12.1161081"><ele>439.0</ele><time>2026-04-26T15:19:25.027Z</time></trkpt><trkpt lat="44.0618181" lon="12.1162145"><ele>439.00000000000006</ele><time>2026-04-26T15:19:26.024Z</time></trkpt><trkpt lat="44.0618131" lon="12.1163148"><ele>439.0</ele><time>2026-04-26T15:19:27.029Z</time></trkpt><trkpt lat="44.0618794" lon="12.1164481"><ele>439.0</ele><time>2026-04-26T15:19:29.024Z</time></trkpt><trkpt lat="44.0619976" lon="12.1164662"><ele>439.0</ele><time>2026-04-26T15:19:31.024Z</time></trkpt><trkpt lat="44.0620798" lon="12.1164103"><ele>439.0</ele><time>2026-04-26T15:19:32.023Z</time></trkpt><trkpt lat="44.0621709" lon="12.1163339"><ele>439.0</ele><time>2026-04-26T15:19:33.024Z</time></trkpt><trkpt lat="44.0622645" lon="12.1162714"><ele>439.0</ele><time>2026-04-26T15:19:34.023Z</time></trkpt><trkpt lat="44.062356" lon="12.1162243"><ele>439.0</ele><time>2026-04-26T15:19:35.024Z</time></trkpt><trkpt lat="44.0624467" lon="12.1161924"><ele>439.0</ele><time>2026-04-26T15:19:36.024Z</time></trkpt><trkpt lat="44.0625429" lon="12.1162114"><ele>439.0</ele><time>2026-04-26T15:19:37.026Z</time></trkpt><trkpt lat="44.0626446" lon="12.1162883"><ele>439.0</ele><time>2026-04-26T15:19:38.024Z</time></trkpt><trkpt lat="44.0627508" lon="12.1164167"><ele>439.0</ele><time>2026-04-26T15:19:39.025Z</time></trkpt><trkpt lat="44.0628614" lon="12.1165584"><ele>437.0</ele><time>2026-04-26T15:19:40.022Z</time></trkpt><trkpt lat="44.0629621" lon="12.1167032"><ele>435.0</ele><time>2026-04-26T15:19:41.028Z</time></trkpt><trkpt lat="44.0630582" lon="12.1168324"><ele>433.0</ele><time>2026-04-26T15:19:42.024Z</time></trkpt><trkpt lat="44.0631495" lon="12.116967"><ele>431.0</ele><time>2026-04-26T15:19:43.025Z</time></trkpt><trkpt lat="44.0632461" lon="12.1170966"><ele>430.75</ele><time>2026-04-26T15:19:44.024Z</time></trkpt><trkpt lat="44.0633531" lon="12.1172287"><ele>430.5</ele><time>2026-04-26T15:19:45.024Z</time></trkpt><trkpt lat="44.0634634" lon="12.1173585"><ele>430.25</ele><time>2026-04-26T15:19:46.033Z</time></trkpt><trkpt lat="44.0635681" lon="12.1174666"><ele>430.0</ele><time>2026-04-26T15:19:47.025Z</time></trkpt><trkpt lat="44.0636688" lon="12.1175429"><ele>430.00000000000006</ele><time>2026-04-26T15:19:48.022Z</time></trkpt><trkpt lat="44.0637646" lon="12.1175876"><ele>430.0</ele><time>2026-04-26T15:19:49.024Z</time></trkpt><trkpt lat="44.0638549" lon="12.1176158"><ele>430.0</ele><time>2026-04-26T15:19:50.022Z</time></trkpt><trkpt lat="44.0639422" lon="12.1176526"><ele>430.0</ele><time>2026-04-26T15:19:51.023Z</time></trkpt><trkpt lat="44.0640117" lon="12.117706"><ele>430.00000000000006</ele><time>2026-04-26T15:19:52.028Z</time></trkpt><trkpt lat="44.0640736" lon="12.1177737"><ele>430.0</ele><time>2026-04-26T15:19:53.024Z</time></trkpt><trkpt lat="44.0641262" lon="12.1178751"><ele>430.75</ele><time>2026-04-26T15:19:54.022Z</time></trkpt><trkpt lat="44.0641509" lon="12.1180241"><ele>431.5</ele><time>2026-04-26T15:19:55.024Z</time></trkpt><trkpt lat="44.064174" lon="12.1181891"><ele>432.25</ele><time>2026-04-26T15:19:56.023Z</time></trkpt><trkpt lat="44.0642106" lon="12.1183562"><ele>433.0</ele><time>2026-04-26T15:19:57.023Z</time></trkpt><trkpt lat="44.0642548" lon="12.1185233"><ele>433.0</ele><time>2026-04-26T15:19:58.026Z</time></trkpt><trkpt lat="44.0642954" lon="12.1186978"><ele>433.0</ele><time>2026-04-26T15:19:59.025Z</time></trkpt><trkpt lat="44.0643226" lon="12.1188799"><ele>433.0</ele><time>2026-04-26T15:20:00.029Z</time></trkpt><trkpt lat="44.0643321" lon="12.1190498"><ele>433.0</ele><time>2026-04-26T15:20:01.023Z</time></trkpt><trkpt lat="44.0643244" lon="12.1191951"><ele>432.4</ele><time>2026-04-26T15:20:02.024Z</time></trkpt><trkpt lat="44.0643211" lon="12.1193286"><ele>431.79999999999995</ele><time>2026-04-26T15:20:03.025Z</time></trkpt><trkpt lat="44.0643309" lon="12.1194521"><ele>431.2</ele><time>2026-04-26T15:20:04.023Z</time></trkpt><trkpt lat="44.0643665" lon="12.1195696"><ele>430.6</ele><time>2026-04-26T15:20:05.025Z</time></trkpt><trkpt lat="44.0644383" lon="12.1196733"><ele>430.0</ele><time>2026-04-26T15:20:06.023Z</time></trkpt><trkpt lat="44.0645167" lon="12.1197717"><ele>430.0</ele><time>2026-04-26T15:20:07.024Z</time></trkpt><trkpt lat="44.0645983" lon="12.1198683"><ele>430.0</ele><time>2026-04-26T15:20:08.024Z</time></trkpt><trkpt lat="44.0646883" lon="12.1199583"><ele>430.0</ele><time>2026-04-26T15:20:09.024Z</time></trkpt><trkpt lat="44.06479" lon="12.120035"><ele>430.0</ele><time>2026-04-26T15:20:10.027Z</time></trkpt><trkpt lat="44.0649033" lon="12.1201033"><ele>430.0</ele><time>2026-04-26T15:20:11.023Z</time></trkpt><trkpt lat="44.0650183" lon="12.1201567"><ele>430.0</ele><time>2026-04-26T15:20:12.024Z</time></trkpt><trkpt lat="44.0651283" lon="12.1201917"><ele>430.0</ele><time>2026-04-26T15:20:13.023Z</time></trkpt><trkpt lat="44.0652367" lon="12.1202033"><ele>430.0</ele><time>2026-04-26T15:20:14.025Z</time></trkpt><trkpt lat="44.065355" lon="12.1201883"><ele>430.0</ele><time>2026-04-26T15:20:15.027Z</time></trkpt><trkpt lat="44.06548" lon="12.1201417"><ele>430.0</ele><time>2026-04-26T15:20:16.025Z</time></trkpt><trkpt lat="44.065605" lon="12.12008"><ele>430.0</ele><time>2026-04-26T15:20:17.026Z</time></trkpt><trkpt lat="44.06572" lon="12.120015"><ele>430.0</ele><time>2026-04-26T15:20:18.024Z</time></trkpt><trkpt lat="44.0658233" lon="12.1199417"><ele>429.0</ele><time>2026-04-26T15:20:19.024Z</time></trkpt><trkpt lat="44.065925" lon="12.1198733"><ele>428.0</ele><time>2026-04-26T15:20:20.027Z</time></trkpt><trkpt lat="44.0660317" lon="12.1198083"><ele>427.0</ele><time>2026-04-26T15:20:21.025Z</time></trkpt><trkpt lat="44.066135" lon="12.11974"><ele>426.0</ele><time>2026-04-26T15:20:22.029Z</time></trkpt><trkpt lat="44.0662317" lon="12.1196683"><ele>426.0</ele><time>2026-04-26T15:20:23.024Z</time></trkpt><trkpt lat="44.0663217" lon="12.1195983"><ele>426.0</ele><time>2026-04-26T15:20:24.025Z</time></trkpt><trkpt lat="44.0664033" lon="12.1195333"><ele>426.0</ele><time>2026-04-26T15:20:25.029Z</time></trkpt><trkpt lat="44.066475" lon="12.1194767"><ele>426.0</ele><time>2026-04-26T15:20:26.023Z</time></trkpt><trkpt lat="44.066545" lon="12.119435"><ele>426.0</ele><time>2026-04-26T15:20:27.024Z</time></trkpt><trkpt lat="44.0666217" lon="12.11941"><ele>426.0</ele><time>2026-04-26T15:20:28.023Z</time></trkpt><trkpt lat="44.0667033" lon="12.11941"><ele>423.8333333333333</ele><time>2026-04-26T15:20:29.028Z</time></trkpt><trkpt lat="44.0667783" lon="12.1194367"><ele>421.66666666666663</ele><time>2026-04-26T15:20:30.026Z</time></trkpt><trkpt lat="44.0668333" lon="12.1194867"><ele>419.5</ele><time>2026-04-26T15:20:31.024Z</time></trkpt><trkpt lat="44.0668983" lon="12.11963"><ele>417.3333333333333</ele><time>2026-04-26T15:20:33.025Z</time></trkpt><trkpt lat="44.0669117" lon="12.1197267"><ele>415.16666666666663</ele><time>2026-04-26T15:20:34.024Z</time></trkpt><trkpt lat="44.0669333" lon="12.1198383"><ele>413.0</ele><time>2026-04-26T15:20:35.024Z</time></trkpt><trkpt lat="44.066965" lon="12.1199367"><ele>413.0</ele><time>2026-04-26T15:20:36.027Z</time></trkpt><trkpt lat="44.067015" lon="12.1200133"><ele>413.0</ele><time>2026-04-26T15:20:37.027Z</time></trkpt><trkpt lat="44.067085" lon="12.1200717"><ele>413.0</ele><time>2026-04-26T15:20:38.027Z</time></trkpt><trkpt lat="44.0671833" lon="12.1201217"><ele>413.0</ele><time>2026-04-26T15:20:39.026Z</time></trkpt><trkpt lat="44.0672833" lon="12.1201733"><ele>413.0</ele><time>2026-04-26T15:20:40.024Z</time></trkpt><trkpt lat="44.0673748" lon="12.1202367"><ele>412.99999999999994</ele><time>2026-04-26T15:20:41.024Z</time></trkpt><trkpt lat="44.0674542" lon="12.1203248"><ele>413.0</ele><time>2026-04-26T15:20:42.025Z</time></trkpt><trkpt lat="44.0675156" lon="12.1204325"><ele>413.0</ele><time>2026-04-26T15:20:43.025Z</time></trkpt><trkpt lat="44.0675586" lon="12.120543"><ele>413.0</ele><time>2026-04-26T15:20:44.025Z</time></trkpt><trkpt lat="44.0676003" lon="12.1206351"><ele>412.99999999999994</ele><time>2026-04-26T15:20:45.027Z</time></trkpt><trkpt lat="44.0676441" lon="12.1207078"><ele>413.0</ele><time>2026-04-26T15:20:46.024Z</time></trkpt><trkpt lat="44.0676971" lon="12.1207596"><ele>412.99999999999994</ele><time>2026-04-26T15:20:47.023Z</time></trkpt><trkpt lat="44.0677628" lon="12.1207482"><ele>413.0</ele><time>2026-04-26T15:20:48.025Z</time></trkpt><trkpt lat="44.0678246" lon="12.1207143"><ele>413.0</ele><time>2026-04-26T15:20:49.03Z</time></trkpt><trkpt lat="44.067874" lon="12.1206269"><ele>413.0</ele><time>2026-04-26T15:20:50.025Z</time></trkpt><trkpt lat="44.0679055" lon="12.1205324"><ele>412.99999999999994</ele><time>2026-04-26T15:20:51.024Z</time></trkpt><trkpt lat="44.0679381" lon="12.1204509"><ele>413.0</ele><time>2026-04-26T15:20:52.028Z</time></trkpt><trkpt lat="44.0680325" lon="12.1203648"><ele>412.59999999999997</ele><time>2026-04-26T15:20:54.026Z</time></trkpt><trkpt lat="44.0681638" lon="12.1204136"><ele>412.2</ele><time>2026-04-26T15:20:56.025Z</time></trkpt><trkpt lat="44.0682329" lon="12.120479"><ele>411.8</ele><time>2026-04-26T15:20:57.026Z</time></trkpt><trkpt lat="44.0682928" lon="12.1205586"><ele>411.4</ele><time>2026-04-26T15:20:58.03Z</time></trkpt><trkpt lat="44.0683452" lon="12.120648"><ele>411.0</ele><time>2026-04-26T15:20:59.023Z</time></trkpt><trkpt lat="44.0683853" lon="12.1207623"><ele>415.5</ele><time>2026-04-26T15:21:00.033Z</time></trkpt><trkpt lat="44.0684155" lon="12.1208981"><ele>420.0</ele><time>2026-04-26T15:21:01.026Z</time></trkpt><trkpt lat="44.0684472" lon="12.1210475"><ele>424.5</ele><time>2026-04-26T15:21:02.027Z</time></trkpt><trkpt lat="44.0684835" lon="12.1212137"><ele>429.0</ele><time>2026-04-26T15:21:03.028Z</time></trkpt><trkpt lat="44.0685256" lon="12.1213944"><ele>429.5</ele><time>2026-04-26T15:21:04.027Z</time></trkpt><trkpt lat="44.0685645" lon="12.1215923"><ele>430.0</ele><time>2026-04-26T15:21:05.03Z</time></trkpt><trkpt lat="44.0685934" lon="12.1217935"><ele>430.5</ele><time>2026-04-26T15:21:06.025Z</time></trkpt><trkpt lat="44.0686163" lon="12.121988"><ele>431.0</ele><time>2026-04-26T15:21:07.024Z</time></trkpt><trkpt lat="44.0686319" lon="12.1221734"><ele>431.0</ele><time>2026-04-26T15:21:08.027Z</time></trkpt><trkpt lat="44.0686399" lon="12.1223426"><ele>431.0</ele><time>2026-04-26T15:21:09.026Z</time></trkpt><trkpt lat="44.0686394" lon="12.1224986"><ele>431.0</ele><time>2026-04-26T15:21:10.028Z</time></trkpt><trkpt lat="44.0686404" lon="12.1226464"><ele>431.0</ele><time>2026-04-26T15:21:11.026Z</time></trkpt><trkpt lat="44.0686502" lon="12.1227892"><ele>431.0</ele><time>2026-04-26T15:21:12.025Z</time></trkpt><trkpt lat="44.0686709" lon="12.122929"><ele>431.0</ele><time>2026-04-26T15:21:13.025Z</time></trkpt><trkpt lat="44.0687123" lon="12.1230724"><ele>431.0</ele><time>2026-04-26T15:21:14.026Z</time></trkpt><trkpt lat="44.0687666" lon="12.1232213"><ele>431.0</ele><time>2026-04-26T15:21:15.024Z</time></trkpt><trkpt lat="44.06883" lon="12.1233846"><ele>431.0</ele><time>2026-04-26T15:21:16.024Z</time></trkpt><trkpt lat="44.0688951" lon="12.12356"><ele>429.75</ele><time>2026-04-26T15:21:17.028Z</time></trkpt><trkpt lat="44.0689544" lon="12.1237312"><ele>428.5</ele><time>2026-04-26T15:21:18.025Z</time></trkpt><trkpt lat="44.0690109" lon="12.1238952"><ele>427.25</ele><time>2026-04-26T15:21:19.024Z</time></trkpt><trkpt lat="44.0690581" lon="12.1240526"><ele>426.0</ele><time>2026-04-26T15:21:20.025Z</time></trkpt><trkpt lat="44.0690914" lon="12.1241986"><ele>427.5</ele><time>2026-04-26T15:21:21.027Z</time></trkpt><trkpt lat="44.0691228" lon="12.1243301"><ele>429.0</ele><time>2026-04-26T15:21:22.028Z</time></trkpt><trkpt lat="44.0691523" lon="12.124447"><ele>430.5</ele><time>2026-04-26T15:21:23.026Z</time></trkpt><trkpt lat="44.0691768" lon="12.124549"><ele>432.0</ele><time>2026-04-26T15:21:24.024Z</time></trkpt><trkpt lat="44.0692146" lon="12.1246864"><ele>433.5</ele><time>2026-04-26T15:21:26.025Z</time></trkpt><trkpt lat="44.0692629" lon="12.1247529"><ele>435.0</ele><time>2026-04-26T15:21:28.025Z</time></trkpt><trkpt lat="44.0693475" lon="12.1247216"><ele>435.0</ele><time>2026-04-26T15:21:30.032Z</time></trkpt><trkpt lat="44.0694052" lon="12.1246572"><ele>435.0</ele><time>2026-04-26T15:21:31.025Z</time></trkpt><trkpt lat="44.0694706" lon="12.1245596"><ele>435.0</ele><time>2026-04-26T15:21:32.025Z</time></trkpt><trkpt lat="44.0695429" lon="12.1244309"><ele>435.0</ele><time>2026-04-26T15:21:33.026Z</time></trkpt><trkpt lat="44.0696248" lon="12.124277"><ele>435.0</ele><time>2026-04-26T15:21:34.027Z</time></trkpt><trkpt lat="44.0697125" lon="12.1241175"><ele>434.66666666666663</ele><time>2026-04-26T15:21:35.03Z</time></trkpt><trkpt lat="44.0698083" lon="12.1239546"><ele>434.3333333333333</ele><time>2026-04-26T15:21:36.024Z</time></trkpt><trkpt lat="44.0699121" lon="12.1237907"><ele>434.0</ele><time>2026-04-26T15:21:37.025Z</time></trkpt><trkpt lat="44.0700256" lon="12.12362"><ele>434.0</ele><time>2026-04-26T15:21:38.024Z</time></trkpt><trkpt lat="44.0701331" lon="12.1234576"><ele>434.0</ele><time>2026-04-26T15:21:39.023Z</time></trkpt><trkpt lat="44.0702312" lon="12.1233033"><ele>434.0</ele><time>2026-04-26T15:21:40.024Z</time></trkpt><trkpt lat="44.0703224" lon="12.1231581"><ele>434.0</ele><time>2026-04-26T15:21:41.024Z</time></trkpt><trkpt lat="44.0704075" lon="12.1230193"><ele>435.75</ele><time>2026-04-26T15:21:42.024Z</time></trkpt><trkpt lat="44.0704864" lon="12.1228922"><ele>437.5</ele><time>2026-04-26T15:21:43.024Z</time></trkpt><trkpt lat="44.0705642" lon="12.1227739"><ele>439.25</ele><time>2026-04-26T15:21:44.023Z</time></trkpt><trkpt lat="44.0706414" lon="12.1226618"><ele>441.0</ele><time>2026-04-26T15:21:45.032Z</time></trkpt><trkpt lat="44.0707226" lon="12.1225537"><ele>440.0</ele><time>2026-04-26T15:21:46.024Z</time></trkpt><trkpt lat="44.0708076" lon="12.1224541"><ele>439.0</ele><time>2026-04-26T15:21:47.031Z</time></trkpt><trkpt lat="44.0709013" lon="12.1223677"><ele>438.0</ele><time>2026-04-26T15:21:48.028Z</time></trkpt><trkpt lat="44.0710032" lon="12.122299"><ele>437.0</ele><time>2026-04-26T15:21:49.03Z</time></trkpt><trkpt lat="44.0711138" lon="12.1222522"><ele>437.0</ele><time>2026-04-26T15:21:50.027Z</time></trkpt><trkpt lat="44.0712237" lon="12.1222146"><ele>437.00000000000006</ele><time>2026-04-26T15:21:51.027Z</time></trkpt><trkpt lat="44.0713309" lon="12.1221702"><ele>437.00000000000006</ele><time>2026-04-26T15:21:52.026Z</time></trkpt><trkpt lat="44.071431" lon="12.1221033"><ele>437.0</ele><time>2026-04-26T15:21:53.026Z</time></trkpt><trkpt lat="44.071518" lon="12.1220085"><ele>437.0</ele><time>2026-04-26T15:21:54.029Z</time></trkpt><trkpt lat="44.0715835" lon="12.1218902"><ele>436.20000000000005</ele><time>2026-04-26T15:21:55.026Z</time></trkpt><trkpt lat="44.0716262" lon="12.1217602"><ele>435.40000000000003</ele><time>2026-04-26T15:21:56.025Z</time></trkpt><trkpt lat="44.071639" lon="12.1216087"><ele>434.59999999999997</ele><time>2026-04-26T15:21:57.031Z</time></trkpt><trkpt lat="44.0716284" lon="12.1214535"><ele>433.79999999999995</ele><time>2026-04-26T15:21:58.029Z</time></trkpt><trkpt lat="44.0715994" lon="12.121294"><ele>433.0</ele><time>2026-04-26T15:21:59.026Z</time></trkpt><trkpt lat="44.0715599" lon="12.1211259"><ele>433.0</ele><time>2026-04-26T15:22:00.03Z</time></trkpt><trkpt lat="44.0715173" lon="12.1209579"><ele>433.0</ele><time>2026-04-26T15:22:01.03Z</time></trkpt><trkpt lat="44.0714785" lon="12.1207908"><ele>433.0</ele><time>2026-04-26T15:22:02.032Z</time></trkpt><trkpt lat="44.071447" lon="12.120623"><ele>433.0</ele><time>2026-04-26T15:22:03.03Z</time></trkpt><trkpt lat="44.0714159" lon="12.1204475"><ele>430.0</ele><time>2026-04-26T15:22:04.039Z</time></trkpt><trkpt lat="44.0713927" lon="12.120263"><ele>427.0</ele><time>2026-04-26T15:22:05.028Z</time></trkpt><trkpt lat="44.0713858" lon="12.1200726"><ele>424.0</ele><time>2026-04-26T15:22:06.026Z</time></trkpt><trkpt lat="44.0713996" lon="12.1198804"><ele>421.0</ele><time>2026-04-26T15:22:07.028Z</time></trkpt><trkpt lat="44.0714286" lon="12.1196869"><ele>416.75</ele><time>2026-04-26T15:22:08.029Z</time></trkpt><trkpt lat="44.0714658" lon="12.1194945"><ele>412.5</ele><time>2026-04-26T15:22:09.029Z</time></trkpt><trkpt lat="44.0715084" lon="12.1193145"><ele>408.25</ele><time>2026-04-26T15:22:10.033Z</time></trkpt><trkpt lat="44.0715543" lon="12.1191601"><ele>404.0</ele><time>2026-04-26T15:22:11.032Z</time></trkpt><trkpt lat="44.0716071" lon="12.1190389"><ele>403.49999999999994</ele><time>2026-04-26T15:22:12.028Z</time></trkpt><trkpt lat="44.0716713" lon="12.1189515"><ele>403.0</ele><time>2026-04-26T15:22:13.027Z</time></trkpt><trkpt lat="44.0717434" lon="12.118904"><ele>402.5</ele><time>2026-04-26T15:22:14.027Z</time></trkpt><trkpt lat="44.0718228" lon="12.118899"><ele>402.0</ele><time>2026-04-26T15:22:15.026Z</time></trkpt><trkpt lat="44.0719052" lon="12.1189634"><ele>401.49999999999994</ele><time>2026-04-26T15:22:16.026Z</time></trkpt><trkpt lat="44.0719789" lon="12.1190529"><ele>401.0</ele><time>2026-04-26T15:22:17.025Z</time></trkpt><trkpt lat="44.0720349" lon="12.1191893"><ele>402.4</ele><time>2026-04-26T15:22:18.026Z</time></trkpt><trkpt lat="44.0720773" lon="12.1193382"><ele>403.8</ele><time>2026-04-26T15:22:19.028Z</time></trkpt><trkpt lat="44.0721187" lon="12.1194777"><ele>405.2</ele><time>2026-04-26T15:22:20.03Z</time></trkpt><trkpt lat="44.0721632" lon="12.119595"><ele>406.59999999999997</ele><time>2026-04-26T15:22:21.028Z</time></trkpt><trkpt lat="44.0722135" lon="12.1196884"><ele>408.0</ele><time>2026-04-26T15:22:22.027Z</time></trkpt><trkpt lat="44.0722856" lon="12.1197211"><ele>408.0</ele><time>2026-04-26T15:22:23.031Z</time></trkpt><trkpt lat="44.0723586" lon="12.119719"><ele>408.0</ele><time>2026-04-26T15:22:24.026Z</time></trkpt><trkpt lat="44.0724239" lon="12.1196513"><ele>408.0</ele><time>2026-04-26T15:22:25.029Z</time></trkpt><trkpt lat="44.0724889" lon="12.1195547"><ele>408.0</ele><time>2026-04-26T15:22:26.027Z</time></trkpt><trkpt lat="44.072566" lon="12.119412"><ele>408.0</ele><time>2026-04-26T15:22:27.031Z</time></trkpt><trkpt lat="44.072648" lon="12.1192496"><ele>404.0</ele><time>2026-04-26T15:22:28.027Z</time></trkpt><trkpt lat="44.0727347" lon="12.1190767"><ele>400.0</ele><time>2026-04-26T15:22:29.029Z</time></trkpt><trkpt lat="44.072825" lon="12.1188872"><ele>396.0</ele><time>2026-04-26T15:22:30.027Z</time></trkpt><trkpt lat="44.0729201" lon="12.118692"><ele>395.66666666666663</ele><time>2026-04-26T15:22:31.03Z</time></trkpt><trkpt lat="44.0730137" lon="12.1184979"><ele>395.3333333333333</ele><time>2026-04-26T15:22:32.026Z</time></trkpt><trkpt lat="44.073106" lon="12.1183077"><ele>395.0</ele><time>2026-04-26T15:22:33.026Z</time></trkpt><trkpt lat="44.0731922" lon="12.1181281"><ele>389.3333333333333</ele><time>2026-04-26T15:22:34.029Z</time></trkpt><trkpt lat="44.0732793" lon="12.1179539"><ele>383.66666666666663</ele><time>2026-04-26T15:22:35.03Z</time></trkpt><trkpt lat="44.0733632" lon="12.1177818"><ele>378.0</ele><time>2026-04-26T15:22:36.027Z</time></trkpt><trkpt lat="44.0734363" lon="12.1175948"><ele>376.6666666666667</ele><time>2026-04-26T15:22:37.032Z</time></trkpt><trkpt lat="44.0734936" lon="12.1173844"><ele>375.33333333333337</ele><time>2026-04-26T15:22:38.026Z</time></trkpt><trkpt lat="44.0735431" lon="12.1171598"><ele>374.0</ele><time>2026-04-26T15:22:39.029Z</time></trkpt><trkpt lat="44.0735955" lon="12.116928"><ele>374.0</ele><time>2026-04-26T15:22:40.033Z</time></trkpt><trkpt lat="44.0736548" lon="12.1166941"><ele>374.0</ele><time>2026-04-26T15:22:41.031Z</time></trkpt><trkpt lat="44.0737266" lon="12.1164498"><ele>374.0</ele><time>2026-04-26T15:22:42.032Z</time></trkpt><trkpt lat="44.0738087" lon="12.1161938"><ele>371.6666666666667</ele><time>2026-04-26T15:22:43.034Z</time></trkpt><trkpt lat="44.0738945" lon="12.1159318"><ele>369.3333333333333</ele><time>2026-04-26T15:22:44.026Z</time></trkpt><trkpt lat="44.0739852" lon="12.1156613"><ele>367.0</ele><time>2026-04-26T15:22:45.026Z</time></trkpt><trkpt lat="44.0740757" lon="12.1153999"><ele>362.0</ele><time>2026-04-26T15:22:46.025Z</time></trkpt><trkpt lat="44.0741597" lon="12.1151519"><ele>357.0</ele><time>2026-04-26T15:22:47.026Z</time></trkpt><trkpt lat="44.0742384" lon="12.1149242"><ele>352.0</ele><time>2026-04-26T15:22:48.03Z</time></trkpt><trkpt lat="44.0743093" lon="12.1147113"><ele>348.0</ele><time>2026-04-26T15:22:49.027Z</time></trkpt><trkpt lat="44.0743768" lon="12.1145107"><ele>344.0</ele><time>2026-04-26T15:22:50.03Z</time></trkpt><trkpt lat="44.0744445" lon="12.1143122"><ele>340.0</ele><time>2026-04-26T15:22:51.028Z</time></trkpt><trkpt lat="44.0745239" lon="12.1141095"><ele>337.3333333333333</ele><time>2026-04-26T15:22:52.026Z</time></trkpt><trkpt lat="44.0746215" lon="12.1139048"><ele>334.6666666666667</ele><time>2026-04-26T15:22:53.023Z</time></trkpt><trkpt lat="44.0747414" lon="12.113697"><ele>332.0</ele><time>2026-04-26T15:22:54.031Z</time></trkpt><trkpt lat="44.0748795" lon="12.113483"><ele>334.0</ele><time>2026-04-26T15:22:55.034Z</time></trkpt><trkpt lat="44.0750277" lon="12.1132683"><ele>336.0</ele><time>2026-04-26T15:22:56.035Z</time></trkpt><trkpt lat="44.0751827" lon="12.1130568"><ele>338.0</ele><time>2026-04-26T15:22:57.025Z</time></trkpt><trkpt lat="44.0753375" lon="12.1128406"><ele>338.0</ele><time>2026-04-26T15:22:58.027Z</time></trkpt><trkpt lat="44.0754901" lon="12.1126234"><ele>338.0</ele><time>2026-04-26T15:22:59.024Z</time></trkpt><trkpt lat="44.0756479" lon="12.1124005"><ele>338.0</ele><time>2026-04-26T15:23:00.027Z</time></trkpt><trkpt lat="44.0758111" lon="12.1121716"><ele>336.5</ele><time>2026-04-26T15:23:01.025Z</time></trkpt><trkpt lat="44.0759756" lon="12.111937"><ele>335.0</ele><time>2026-04-26T15:23:02.028Z</time></trkpt><trkpt lat="44.0761323" lon="12.1117062"><ele>326.5</ele><time>2026-04-26T15:23:03.027Z</time></trkpt><trkpt lat="44.0762808" lon="12.1114869"><ele>318.0</ele><time>2026-04-26T15:23:04.026Z</time></trkpt><trkpt lat="44.0886217" lon="12.0938983"><ele>277.6666666666667</ele><time>2026-04-26T15:25:29.026Z</time></trkpt><trkpt lat="44.0885833" lon="12.0941117"><ele>237.33333333333334</ele><time>2026-04-26T15:25:30.028Z</time></trkpt><trkpt lat="44.0885583" lon="12.0943167"><ele>197.0</ele><time>2026-04-26T15:25:31.023Z</time></trkpt><trkpt lat="44.0885533" lon="12.0945167"><ele>197.0</ele><time>2026-04-26T15:25:32.025Z</time></trkpt><trkpt lat="44.08857" lon="12.0946917"><ele>197.0</ele><time>2026-04-26T15:25:33.028Z</time></trkpt><trkpt lat="44.0886017" lon="12.094845"><ele>197.0</ele><time>2026-04-26T15:25:34.027Z</time></trkpt><trkpt lat="44.0886467" lon="12.0949783"><ele>197.0</ele><time>2026-04-26T15:25:35.025Z</time></trkpt><trkpt lat="44.08869" lon="12.0950833"><ele>197.0</ele><time>2026-04-26T15:25:36.025Z</time></trkpt><trkpt lat="44.0887217" lon="12.0951783"><ele>196.75</ele><time>2026-04-26T15:25:37.025Z</time></trkpt><trkpt lat="44.0887433" lon="12.0952717"><ele>196.5</ele><time>2026-04-26T15:25:38.027Z</time></trkpt><trkpt lat="44.0887317" lon="12.0954167"><ele>196.25</ele><time>2026-04-26T15:25:40.027Z</time></trkpt><trkpt lat="44.0886667" lon="12.095465"><ele>196.0</ele><time>2026-04-26T15:25:42.031Z</time></trkpt><trkpt lat="44.0885417" lon="12.09523"><ele>196.0</ele><time>2026-04-26T15:25:45.023Z</time></trkpt><trkpt lat="44.0884983" lon="12.0950846"><ele>196.0</ele><time>2026-04-26T15:25:46.028Z</time></trkpt><trkpt lat="44.0884528" lon="12.0949213"><ele>196.0</ele><time>2026-04-26T15:25:47.026Z</time></trkpt><trkpt lat="44.0884075" lon="12.0947474"><ele>196.0</ele><time>2026-04-26T15:25:48.026Z</time></trkpt><trkpt lat="44.0883687" lon="12.094565"><ele>196.33333333333331</ele><time>2026-04-26T15:25:49.027Z</time></trkpt><trkpt lat="44.0883437" lon="12.094365"><ele>196.66666666666669</ele><time>2026-04-26T15:25:50.024Z</time></trkpt><trkpt lat="44.0883279" lon="12.0941495"><ele>197.0</ele><time>2026-04-26T15:25:51.026Z</time></trkpt><trkpt lat="44.0883276" lon="12.0939082"><ele>195.66666666666669</ele><time>2026-04-26T15:25:52.026Z</time></trkpt><trkpt lat="44.0883385" lon="12.093644"><ele>194.33333333333331</ele><time>2026-04-26T15:25:53.024Z</time></trkpt><trkpt lat="44.0883472" lon="12.0933768"><ele>193.0</ele><time>2026-04-26T15:25:54.027Z</time></trkpt><trkpt lat="44.0883447" lon="12.0931193"><ele>193.0</ele><time>2026-04-26T15:25:55.025Z</time></trkpt><trkpt lat="44.0883312" lon="12.0928763"><ele>193.0</ele><time>2026-04-26T15:25:56.03Z</time></trkpt><trkpt lat="44.0883058" lon="12.0926469"><ele>193.0</ele><time>2026-04-26T15:25:57.038Z</time></trkpt><trkpt lat="44.0882772" lon="12.0924238"><ele>178.66666666666666</ele><time>2026-04-26T15:25:58.024Z</time></trkpt><trkpt lat="44.0882513" lon="12.0922087"><ele>164.33333333333331</ele><time>2026-04-26T15:25:59.026Z</time></trkpt><trkpt lat="44.0882333" lon="12.0919978"><ele>150.0</ele><time>2026-04-26T15:26:00.024Z</time></trkpt><trkpt lat="44.0882268" lon="12.0917896"><ele>150.0</ele><time>2026-04-26T15:26:01.029Z</time></trkpt><trkpt lat="44.0882308" lon="12.0915961"><ele>150.0</ele><time>2026-04-26T15:26:02.025Z</time></trkpt><trkpt lat="44.0882444" lon="12.0914372"><ele>150.0</ele><time>2026-04-26T15:26:03.032Z</time></trkpt><trkpt lat="44.0883153" lon="12.0912067"><ele>150.0</ele><time>2026-04-26T15:26:05.026Z</time></trkpt><trkpt lat="44.0883786" lon="12.0911245"><ele>154.75</ele><time>2026-04-26T15:26:06.024Z</time></trkpt><trkpt lat="44.0884659" lon="12.0910763"><ele>159.5</ele><time>2026-04-26T15:26:07.032Z</time></trkpt><trkpt lat="44.08859" lon="12.0910604"><ele>164.25</ele><time>2026-04-26T15:26:08.028Z</time></trkpt><trkpt lat="44.0887448" lon="12.091053"><ele>169.0</ele><time>2026-04-26T15:26:09.031Z</time></trkpt><trkpt lat="44.0889143" lon="12.091046"><ele>169.0</ele><time>2026-04-26T15:26:10.027Z</time></trkpt><trkpt lat="44.0890839" lon="12.0910407"><ele>169.0</ele><time>2026-04-26T15:26:11.032Z</time></trkpt><trkpt lat="44.0892524" lon="12.0910414"><ele>169.0</ele><time>2026-04-26T15:26:12.024Z</time></trkpt><trkpt lat="44.0894175" lon="12.0910375"><ele>169.0</ele><time>2026-04-26T15:26:13.025Z</time></trkpt><trkpt lat="44.0895753" lon="12.0910246"><ele>169.0</ele><time>2026-04-26T15:26:14.022Z</time></trkpt><trkpt lat="44.0897228" lon="12.0910097"><ele>169.0</ele><time>2026-04-26T15:26:15.025Z</time></trkpt><trkpt lat="44.0898616" lon="12.0910061"><ele>169.0</ele><time>2026-04-26T15:26:16.026Z</time></trkpt><trkpt lat="44.089998" lon="12.0910239"><ele>169.0</ele><time>2026-04-26T15:26:17.024Z</time></trkpt><trkpt lat="44.0901367" lon="12.0910761"><ele>169.0</ele><time>2026-04-26T15:26:18.023Z</time></trkpt><trkpt lat="44.0902691" lon="12.0911588"><ele>169.0</ele><time>2026-04-26T15:26:19.028Z</time></trkpt><trkpt lat="44.0903948" lon="12.0912431"><ele>169.0</ele><time>2026-04-26T15:26:20.027Z</time></trkpt><trkpt lat="44.0905306" lon="12.0913058"><ele>169.0</ele><time>2026-04-26T15:26:21.118Z</time></trkpt><trkpt lat="44.0906685" lon="12.0913313"><ele>169.0</ele><time>2026-04-26T15:26:22.028Z</time></trkpt><trkpt lat="44.0908106" lon="12.0913439"><ele>169.0</ele><time>2026-04-26T15:26:23.027Z</time></trkpt><trkpt lat="44.0909422" lon="12.0913547"><ele>169.0</ele><time>2026-04-26T15:26:24.025Z</time></trkpt><trkpt lat="44.0911671" lon="12.0913503"><ele>168.0</ele><time>2026-04-26T15:26:26.025Z</time></trkpt><trkpt lat="44.0912575" lon="12.0913176"><ele>167.0</ele><time>2026-04-26T15:26:27.026Z</time></trkpt><trkpt lat="44.0913342" lon="12.091266"><ele>166.0</ele><time>2026-04-26T15:26:28.022Z</time></trkpt><trkpt lat="44.0913847" lon="12.0912011"><ele>165.0</ele><time>2026-04-26T15:26:29.024Z</time></trkpt><trkpt lat="44.0913565" lon="12.0910889"><ele>164.0</ele><time>2026-04-26T15:26:30.024Z</time></trkpt><trkpt lat="44.091302" lon="12.09097"><ele>163.0</ele><time>2026-04-26T15:26:31.026Z</time></trkpt><trkpt lat="44.0911927" lon="12.0908575"><ele>163.0</ele><time>2026-04-26T15:26:32.024Z</time></trkpt><trkpt lat="44.0910498" lon="12.0907783"><ele>163.0</ele><time>2026-04-26T15:26:33.026Z</time></trkpt><trkpt lat="44.0908745" lon="12.0907212"><ele>163.0</ele><time>2026-04-26T15:26:34.028Z</time></trkpt><trkpt lat="44.0906902" lon="12.0906608"><ele>158.33333333333334</ele><time>2026-04-26T15:26:35.023Z</time></trkpt><trkpt lat="44.0905083" lon="12.0905767"><ele>153.66666666666666</ele><time>2026-04-26T15:26:36.032Z</time></trkpt><trkpt lat="44.0903332" lon="12.0904793"><ele>149.0</ele><time>2026-04-26T15:26:37.027Z</time></trkpt><trkpt lat="44.0901509" lon="12.0903865"><ele>149.0</ele><time>2026-04-26T15:26:38.123Z</time></trkpt><trkpt lat="44.089987" lon="12.0903101"><ele>149.0</ele><time>2026-04-26T15:26:39.025Z</time></trkpt><trkpt lat="44.0898235" lon="12.0902443"><ele>149.0</ele><time>2026-04-26T15:26:40.024Z</time></trkpt><trkpt lat="44.0896869" lon="12.0901931"><ele>149.0</ele><time>2026-04-26T15:26:41.027Z</time></trkpt><trkpt lat="44.089568" lon="12.0901439"><ele>149.0</ele><time>2026-04-26T15:26:42.023Z</time></trkpt><trkpt lat="44.0894592" lon="12.0901015"><ele>149.0</ele><time>2026-04-26T15:26:43.026Z</time></trkpt><trkpt lat="44.0893581" lon="12.0900595"><ele>149.0</ele><time>2026-04-26T15:26:44.041Z</time></trkpt><trkpt lat="44.089262" lon="12.0900188"><ele>149.0</ele><time>2026-04-26T15:26:45.025Z</time></trkpt><trkpt lat="44.0890672" lon="12.0899266"><ele>144.75</ele><time>2026-04-26T15:26:47.029Z</time></trkpt><trkpt lat="44.0889643" lon="12.0898832"><ele>140.5</ele><time>2026-04-26T15:26:48.027Z</time></trkpt><trkpt lat="44.0888564" lon="12.0898415"><ele>136.25</ele><time>2026-04-26T15:26:49.024Z</time></trkpt><trkpt lat="44.0887406" lon="12.0897989"><ele>132.0</ele><time>2026-04-26T15:26:50.027Z</time></trkpt><trkpt lat="44.0886133" lon="12.0897542"><ele>132.0</ele><time>2026-04-26T15:26:51.029Z</time></trkpt><trkpt lat="44.0884782" lon="12.0897116"><ele>132.0</ele><time>2026-04-26T15:26:52.026Z</time></trkpt><trkpt lat="44.0883364" lon="12.0896718"><ele>132.0</ele><time>2026-04-26T15:26:53.025Z</time></trkpt><trkpt lat="44.0881962" lon="12.0896381"><ele>132.0</ele><time>2026-04-26T15:26:54.028Z</time></trkpt><trkpt lat="44.0880642" lon="12.0896202"><ele>130.4</ele><time>2026-04-26T15:26:55.031Z</time></trkpt><trkpt lat="44.0879445" lon="12.0896243"><ele>128.79999999999998</ele><time>2026-04-26T15:26:56.027Z</time></trkpt><trkpt lat="44.0878422" lon="12.089646"><ele>127.2</ele><time>2026-04-26T15:26:57.025Z</time></trkpt><trkpt lat="44.087765" lon="12.0896633"><ele>125.6</ele><time>2026-04-26T15:26:58.031Z</time></trkpt><trkpt lat="44.0876967" lon="12.0896483"><ele>124.0</ele><time>2026-04-26T15:26:59.029Z</time></trkpt><trkpt lat="44.08765" lon="12.08954"><ele>124.0</ele><time>2026-04-26T15:27:01.029Z</time></trkpt><trkpt lat="44.087695" lon="12.08945"><ele>124.0</ele><time>2026-04-26T15:27:02.025Z</time></trkpt><trkpt lat="44.08778" lon="12.0893683"><ele>124.0</ele><time>2026-04-26T15:27:03.031Z</time></trkpt><trkpt lat="44.0879" lon="12.0892967"><ele>124.0</ele><time>2026-04-26T15:27:04.024Z</time></trkpt><trkpt lat="44.088045" lon="12.089215"><ele>124.0</ele><time>2026-04-26T15:27:05.029Z</time></trkpt><trkpt lat="44.0881967" lon="12.0891083"><ele>124.0</ele><time>2026-04-26T15:27:06.031Z</time></trkpt><trkpt lat="44.0885" lon="12.0888583"><ele>121.66666666666667</ele><time>2026-04-26T15:27:08.025Z</time></trkpt><trkpt lat="44.0886517" lon="12.0887517"><ele>119.33333333333334</ele><time>2026-04-26T15:27:09.026Z</time></trkpt><trkpt lat="44.0888033" lon="12.08866"><ele>117.0</ele><time>2026-04-26T15:27:10.026Z</time></trkpt><trkpt lat="44.08896" lon="12.0885917"><ele>117.66666666666666</ele><time>2026-04-26T15:27:11.029Z</time></trkpt><trkpt lat="44.0891133" lon="12.088555"><ele>118.33333333333333</ele><time>2026-04-26T15:27:12.029Z</time></trkpt><trkpt lat="44.0892667" lon="12.08855"><ele>119.0</ele><time>2026-04-26T15:27:13.024Z</time></trkpt><trkpt lat="44.089425" lon="12.0885683"><ele>119.0</ele><time>2026-04-26T15:27:14.025Z</time></trkpt><trkpt lat="44.0896017" lon="12.0885883"><ele>119.0</ele><time>2026-04-26T15:27:15.03Z</time></trkpt><trkpt lat="44.0897633" lon="12.088595"><ele>119.0</ele><time>2026-04-26T15:27:16.026Z</time></trkpt><trkpt lat="44.0899183" lon="12.0885833"><ele>118.75</ele><time>2026-04-26T15:27:17.026Z</time></trkpt><trkpt lat="44.0900733" lon="12.0885617"><ele>118.5</ele><time>2026-04-26T15:27:18.025Z</time></trkpt><trkpt lat="44.0902133" lon="12.0885283"><ele>118.25</ele><time>2026-04-26T15:27:19.03Z</time></trkpt><trkpt lat="44.0903367" lon="12.0884767"><ele>118.0</ele><time>2026-04-26T15:27:20.026Z</time></trkpt><trkpt lat="44.0904217" lon="12.088425"><ele>118.0</ele><time>2026-04-26T15:27:21.028Z</time></trkpt><trkpt lat="44.0904867" lon="12.08836"><ele>118.00000000000001</ele><time>2026-04-26T15:27:22.024Z</time></trkpt><trkpt lat="44.0904517" lon="12.0881933"><ele>118.00000000000001</ele><time>2026-04-26T15:27:24.029Z</time></trkpt><trkpt lat="44.0903533" lon="12.08814"><ele>118.0</ele><time>2026-04-26T15:27:25.025Z</time></trkpt><trkpt lat="44.0902333" lon="12.0880933"><ele>118.0</ele><time>2026-04-26T15:27:26.026Z</time></trkpt><trkpt lat="44.0900733" lon="12.0880717"><ele>109.0</ele><time>2026-04-26T15:27:27.025Z</time></trkpt><trkpt lat="44.089705" lon="12.0880883"><ele>100.0</ele><time>2026-04-26T15:27:29.027Z</time></trkpt><trkpt lat="44.0895383" lon="12.0880667"><ele>100.0</ele><time>2026-04-26T15:27:30.027Z</time></trkpt><trkpt lat="44.0893783" lon="12.088035"><ele>100.0</ele><time>2026-04-26T15:27:31.031Z</time></trkpt><trkpt lat="44.0892233" lon="12.088"><ele>100.0</ele><time>2026-04-26T15:27:32.028Z</time></trkpt><trkpt lat="44.0890817" lon="12.0879533"><ele>101.5</ele><time>2026-04-26T15:27:33.026Z</time></trkpt><trkpt lat="44.08895" lon="12.0878933"><ele>103.0</ele><time>2026-04-26T15:27:34.026Z</time></trkpt><trkpt lat="44.08882" lon="12.0878283"><ele>104.5</ele><time>2026-04-26T15:27:35.024Z</time></trkpt><trkpt lat="44.0886883" lon="12.08775"><ele>106.0</ele><time>2026-04-26T15:27:36.029Z</time></trkpt><trkpt lat="44.0885633" lon="12.0876717"><ele>106.0</ele><time>2026-04-26T15:27:37.026Z</time></trkpt><trkpt lat="44.088445" lon="12.08759"><ele>106.0</ele><time>2026-04-26T15:27:38.027Z</time></trkpt><trkpt lat="44.08833" lon="12.0875033"><ele>106.0</ele><time>2026-04-26T15:27:39.026Z</time></trkpt><trkpt lat="44.088225" lon="12.08741"><ele>106.0</ele><time>2026-04-26T15:27:40.026Z</time></trkpt><trkpt lat="44.08815" lon="12.0872817"><ele>105.25</ele><time>2026-04-26T15:27:41.025Z</time></trkpt><trkpt lat="44.08809" lon="12.0871183"><ele>104.5</ele><time>2026-04-26T15:27:42.025Z</time></trkpt><trkpt lat="44.088045" lon="12.08695"><ele>103.75</ele><time>2026-04-26T15:27:43.028Z</time></trkpt><trkpt lat="44.0879933" lon="12.0867933"><ele>103.0</ele><time>2026-04-26T15:27:44.034Z</time></trkpt><trkpt lat="44.087915" lon="12.0866817"><ele>100.25</ele><time>2026-04-26T15:27:45.027Z</time></trkpt><trkpt lat="44.08782" lon="12.08659"><ele>97.5</ele><time>2026-04-26T15:27:46.03Z</time></trkpt><trkpt lat="44.0877067" lon="12.086505"><ele>94.75</ele><time>2026-04-26T15:27:47.026Z</time></trkpt><trkpt lat="44.087585" lon="12.0864233"><ele>92.0</ele><time>2026-04-26T15:27:48.027Z</time></trkpt><trkpt lat="44.08736" lon="12.086255"><ele>92.0</ele><time>2026-04-26T15:27:50.025Z</time></trkpt><trkpt lat="44.08727" lon="12.0861783"><ele>92.0</ele><time>2026-04-26T15:27:51.034Z</time></trkpt><trkpt lat="44.0871967" lon="12.0860867"><ele>92.0</ele><time>2026-04-26T15:27:52.027Z</time></trkpt><trkpt lat="44.0871433" lon="12.08597"><ele>92.0</ele><time>2026-04-26T15:27:53.033Z</time></trkpt><trkpt lat="44.0871033" lon="12.0858317"><ele>92.0</ele><time>2026-04-26T15:27:54.026Z</time></trkpt><trkpt lat="44.0870817" lon="12.0856683"><ele>90.66666666666667</ele><time>2026-04-26T15:27:55.029Z</time></trkpt><trkpt lat="44.0870867" lon="12.0854767"><ele>89.33333333333333</ele><time>2026-04-26T15:27:56.028Z</time></trkpt><trkpt lat="44.08712" lon="12.0852583"><ele>88.0</ele><time>2026-04-26T15:27:57.034Z</time></trkpt><trkpt lat="44.08716" lon="12.0850433"><ele>87.25</ele><time>2026-04-26T15:27:58.038Z</time></trkpt><trkpt lat="44.0871967" lon="12.0848383"><ele>86.5</ele><time>2026-04-26T15:27:59.028Z</time></trkpt><trkpt lat="44.0872317" lon="12.0846533"><ele>85.75</ele><time>2026-04-26T15:28:00.036Z</time></trkpt><trkpt lat="44.0872583" lon="12.0845"><ele>85.0</ele><time>2026-04-26T15:28:01.026Z</time></trkpt><trkpt lat="44.0872883" lon="12.0843833"><ele>85.0</ele><time>2026-04-26T15:28:02.03Z</time></trkpt><trkpt lat="44.0873333" lon="12.08429"><ele>85.0</ele><time>2026-04-26T15:28:03.031Z</time></trkpt><trkpt lat="44.0873883" lon="12.084225"><ele>85.0</ele><time>2026-04-26T15:28:04.025Z</time></trkpt><trkpt lat="44.08747" lon="12.084195"><ele>85.0</ele><time>2026-04-26T15:28:05.027Z</time></trkpt><trkpt lat="44.08764" lon="12.0842517"><ele>85.0</ele><time>2026-04-26T15:28:06.031Z</time></trkpt><trkpt lat="44.0877884" lon="12.0842875"><ele>84.0</ele><time>2026-04-26T15:28:07.029Z</time></trkpt><trkpt lat="44.0879428" lon="12.0843177"><ele>83.0</ele><time>2026-04-26T15:28:08.024Z</time></trkpt><trkpt lat="44.088083" lon="12.0843383"><ele>82.0</ele><time>2026-04-26T15:28:09.027Z</time></trkpt><trkpt lat="44.0883343" lon="12.0844367"><ele>81.5</ele><time>2026-04-26T15:28:11.024Z</time></trkpt><trkpt lat="44.08846" lon="12.0844947"><ele>81.0</ele><time>2026-04-26T15:28:12.03Z</time></trkpt><trkpt lat="44.0885942" lon="12.0845204"><ele>80.5</ele><time>2026-04-26T15:28:13.028Z</time></trkpt><trkpt lat="44.0887336" lon="12.0844991"><ele>80.0</ele><time>2026-04-26T15:28:14.023Z</time></trkpt><trkpt lat="44.088874" lon="12.084434"><ele>80.0</ele><time>2026-04-26T15:28:15.028Z</time></trkpt><trkpt lat="44.0890125" lon="12.0843352"><ele>80.0</ele><time>2026-04-26T15:28:16.032Z</time></trkpt><trkpt lat="44.0891428" lon="12.0842376"><ele>80.0</ele><time>2026-04-26T15:28:17.03Z</time></trkpt><trkpt lat="44.0892784" lon="12.0841742"><ele>80.0</ele><time>2026-04-26T15:28:18.027Z</time></trkpt><trkpt lat="44.0894269" lon="12.0841539"><ele>79.33333333333334</ele><time>2026-04-26T15:28:19.024Z</time></trkpt><trkpt lat="44.0895883" lon="12.0841719"><ele>78.66666666666667</ele><time>2026-04-26T15:28:20.029Z</time></trkpt><trkpt lat="44.089753" lon="12.084214"><ele>78.0</ele><time>2026-04-26T15:28:21.027Z</time></trkpt><trkpt lat="44.0899174" lon="12.0842739"><ele>77.66666666666667</ele><time>2026-04-26T15:28:22.024Z</time></trkpt><trkpt lat="44.09008" lon="12.0843376"><ele>77.33333333333334</ele><time>2026-04-26T15:28:23.024Z</time></trkpt><trkpt lat="44.0902389" lon="12.0843957"><ele>77.0</ele><time>2026-04-26T15:28:24.028Z</time></trkpt><trkpt lat="44.090392" lon="12.0844498"><ele>77.0</ele><time>2026-04-26T15:28:25.023Z</time></trkpt><trkpt lat="44.0905315" lon="12.0844982"><ele>77.0</ele><time>2026-04-26T15:28:26.023Z</time></trkpt><trkpt lat="44.0906533" lon="12.0845408"><ele>77.0</ele><time>2026-04-26T15:28:27.029Z</time></trkpt><trkpt lat="44.0907631" lon="12.0845886"><ele>77.0</ele><time>2026-04-26T15:28:28.027Z</time></trkpt><trkpt lat="44.0908667" lon="12.0846391"><ele>76.33333333333334</ele><time>2026-04-26T15:28:29.026Z</time></trkpt><trkpt lat="44.0909704" lon="12.0846929"><ele>75.66666666666667</ele><time>2026-04-26T15:28:30.034Z</time></trkpt><trkpt lat="44.0911931" lon="12.0848187"><ele>75.0</ele><time>2026-04-26T15:28:32.032Z</time></trkpt><trkpt lat="44.0913149" lon="12.0848939"><ele>76.0</ele><time>2026-04-26T15:28:33.028Z</time></trkpt><trkpt lat="44.0914449" lon="12.0849762"><ele>77.0</ele><time>2026-04-26T15:28:34.031Z</time></trkpt><trkpt lat="44.0915843" lon="12.0850655"><ele>78.0</ele><time>2026-04-26T15:28:35.029Z</time></trkpt><trkpt lat="44.0917311" lon="12.0851591"><ele>78.0</ele><time>2026-04-26T15:28:36.029Z</time></trkpt><trkpt lat="44.0918722" lon="12.0852459"><ele>78.0</ele><time>2026-04-26T15:28:37.025Z</time></trkpt><trkpt lat="44.09201" lon="12.0853158"><ele>78.0</ele><time>2026-04-26T15:28:38.028Z</time></trkpt><trkpt lat="44.0921562" lon="12.0853542"><ele>78.0</ele><time>2026-04-26T15:28:39.028Z</time></trkpt><trkpt lat="44.0923076" lon="12.0853473"><ele>78.0</ele><time>2026-04-26T15:28:40.027Z</time></trkpt><trkpt lat="44.0924657" lon="12.0853"><ele>78.0</ele><time>2026-04-26T15:28:41.028Z</time></trkpt><trkpt lat="44.0926261" lon="12.0852358"><ele>80.66666666666667</ele><time>2026-04-26T15:28:42.031Z</time></trkpt><trkpt lat="44.0927838" lon="12.0851695"><ele>83.33333333333334</ele><time>2026-04-26T15:28:43.028Z</time></trkpt><trkpt lat="44.0929313" lon="12.0850973"><ele>86.0</ele><time>2026-04-26T15:28:44.029Z</time></trkpt><trkpt lat="44.0930618" lon="12.0849979"><ele>85.66666666666667</ele><time>2026-04-26T15:28:45.028Z</time></trkpt><trkpt lat="44.0931864" lon="12.0848758"><ele>85.33333333333333</ele><time>2026-04-26T15:28:46.029Z</time></trkpt><trkpt lat="44.0933078" lon="12.0847135"><ele>85.0</ele><time>2026-04-26T15:28:47.031Z</time></trkpt><trkpt lat="44.0934257" lon="12.0845156"><ele>85.0</ele><time>2026-04-26T15:28:48.027Z</time></trkpt><trkpt lat="44.0935404" lon="12.0843021"><ele>85.0</ele><time>2026-04-26T15:28:49.028Z</time></trkpt><trkpt lat="44.0936519" lon="12.0840873"><ele>85.0</ele><time>2026-04-26T15:28:50.029Z</time></trkpt><trkpt lat="44.09376" lon="12.0838855"><ele>76.0</ele><time>2026-04-26T15:28:51.027Z</time></trkpt></trkseg></trk></gpx>